<?xml version="1.0" encoding="UTF-8" standalone="no" ?>
<gpx xmlns="http://www.topografix.com/GPX/1/1" xmlns:xsi="http://www.w3.org/2001/XMLSchema-instance" xsi:schemaLocation="http://www.topografix.com/GPX/1/1 http://www.topografix.com/GPX/1/1/gpx.xsd" version="1.1" creator="VisuGPX - https://www.visugpx.com">
  <metadata>
    <name>81 vtt castres - mas d'enfau - st jean de vals - gourteau - missècle 46km 1500d+</name>
  </metadata>
  <trk>
    <name><![CDATA[vtt st jean de vals - missecle 46km 1500d+]]></name>
    <extensions>
      <line xmlns="http://www.topografix.com/GPX/gpx_style/0/2">
        <color>0000FF</color>
        <opacity>1</opacity>
        <width>4</width>
      </line>
    </extensions>
    <trkseg>
      <trkpt lat="43.6289" lon="2.26931">
        <ele>188.5</ele>
        <time>2025-09-30T11:09:48.000Z</time>
      </trkpt>
      <trkpt lat="43.62891" lon="2.26932">
        <ele>188.4</ele>
        <time>2025-09-30T11:09:48.085Z</time>
      </trkpt>
      <trkpt lat="43.63002" lon="2.26914">
        <ele>186.9</ele>
        <time>2025-09-30T11:09:59.379Z</time>
      </trkpt>
      <trkpt lat="43.63051" lon="2.26959">
        <ele>184</ele>
        <time>2025-09-30T11:10:03.887Z</time>
      </trkpt>
      <trkpt lat="43.63075" lon="2.27395">
        <ele>185.6</ele>
        <time>2025-09-30T11:10:41.837Z</time>
      </trkpt>
      <trkpt lat="43.63074" lon="2.27395">
        <ele>185.6</ele>
        <time>2025-09-30T11:10:41.952Z</time>
      </trkpt>
      <trkpt lat="43.63079" lon="2.27399">
        <ele>117.4</ele>
        <time>2025-09-30T11:10:42.347Z</time>
      </trkpt>
      <trkpt lat="43.63083" lon="2.27403">
        <ele>117.2</ele>
        <time>2025-09-30T11:10:42.750Z</time>
      </trkpt>
      <trkpt lat="43.63088" lon="2.27405">
        <ele>117</ele>
        <time>2025-09-30T11:10:43.180Z</time>
      </trkpt>
      <trkpt lat="43.63095" lon="2.27408">
        <ele>116.8</ele>
        <time>2025-09-30T11:10:43.840Z</time>
      </trkpt>
      <trkpt lat="43.63101" lon="2.2741">
        <ele>116.4</ele>
        <time>2025-09-30T11:10:44.268Z</time>
      </trkpt>
      <trkpt lat="43.63108" lon="2.27412">
        <ele>116</ele>
        <time>2025-09-30T11:10:44.792Z</time>
      </trkpt>
      <trkpt lat="43.63115" lon="2.27415">
        <ele>115.6</ele>
        <time>2025-09-30T11:10:45.334Z</time>
      </trkpt>
      <trkpt lat="43.63122" lon="2.27417">
        <ele>115.2</ele>
        <time>2025-09-30T11:10:45.858Z</time>
      </trkpt>
      <trkpt lat="43.63129" lon="2.27419">
        <ele>114.6</ele>
        <time>2025-09-30T11:10:46.348Z</time>
      </trkpt>
      <trkpt lat="43.63136" lon="2.27422">
        <ele>114.2</ele>
        <time>2025-09-30T11:10:46.890Z</time>
      </trkpt>
      <trkpt lat="43.63143" lon="2.27424">
        <ele>113.8</ele>
        <time>2025-09-30T11:10:47.413Z</time>
      </trkpt>
      <trkpt lat="43.63149" lon="2.27426">
        <ele>113.4</ele>
        <time>2025-09-30T11:10:47.841Z</time>
      </trkpt>
      <trkpt lat="43.63155" lon="2.27428">
        <ele>113</ele>
        <time>2025-09-30T11:10:48.269Z</time>
      </trkpt>
      <trkpt lat="43.63161" lon="2.2743">
        <ele>112.8</ele>
        <time>2025-09-30T11:10:48.803Z</time>
      </trkpt>
      <trkpt lat="43.63166" lon="2.27431">
        <ele>112.6</ele>
        <time>2025-09-30T11:10:49.217Z</time>
      </trkpt>
      <trkpt lat="43.63172" lon="2.27433">
        <ele>112.4</ele>
        <time>2025-09-30T11:10:49.752Z</time>
      </trkpt>
      <trkpt lat="43.63177" lon="2.27434">
        <ele>112.2</ele>
        <time>2025-09-30T11:10:50.166Z</time>
      </trkpt>
      <trkpt lat="43.63181" lon="2.27436">
        <ele>112</ele>
        <time>2025-09-30T11:10:50.497Z</time>
      </trkpt>
      <trkpt lat="43.63185" lon="2.27437">
        <ele>112</ele>
        <time>2025-09-30T11:10:50.961Z</time>
      </trkpt>
      <trkpt lat="43.63188" lon="2.27438">
        <ele>111.8</ele>
        <time>2025-09-30T11:10:51.175Z</time>
      </trkpt>
      <trkpt lat="43.6319" lon="2.27439">
        <ele>111.8</ele>
        <time>2025-09-30T11:10:51.418Z</time>
      </trkpt>
      <trkpt lat="43.63191" lon="2.2744">
        <ele>111.6</ele>
        <time>2025-09-30T11:10:51.503Z</time>
      </trkpt>
      <trkpt lat="43.63193" lon="2.27441">
        <ele>111.6</ele>
        <time>2025-09-30T11:10:51.745Z</time>
      </trkpt>
      <trkpt lat="43.63194" lon="2.27442">
        <ele>111.6</ele>
        <time>2025-09-30T11:10:51.886Z</time>
      </trkpt>
      <trkpt lat="43.63195" lon="2.27442">
        <ele>111.4</ele>
        <time>2025-09-30T11:10:51.955Z</time>
      </trkpt>
      <trkpt lat="43.63198" lon="2.27443">
        <ele>111.4</ele>
        <time>2025-09-30T11:10:52.307Z</time>
      </trkpt>
      <trkpt lat="43.632" lon="2.27444">
        <ele>111.4</ele>
        <time>2025-09-30T11:10:52.550Z</time>
      </trkpt>
      <trkpt lat="43.63202" lon="2.27445">
        <ele>111.4</ele>
        <time>2025-09-30T11:10:52.793Z</time>
      </trkpt>
      <trkpt lat="43.63204" lon="2.27446">
        <ele>111.4</ele>
        <time>2025-09-30T11:10:53.036Z</time>
      </trkpt>
      <trkpt lat="43.63207" lon="2.27448">
        <ele>111.6</ele>
        <time>2025-09-30T11:10:53.792Z</time>
      </trkpt>
      <trkpt lat="43.6321" lon="2.27451">
        <ele>111.6</ele>
        <time>2025-09-30T11:10:54.215Z</time>
      </trkpt>
      <trkpt lat="43.63213" lon="2.27454">
        <ele>111.6</ele>
        <time>2025-09-30T11:10:54.638Z</time>
      </trkpt>
      <trkpt lat="43.63216" lon="2.27457">
        <ele>111.6</ele>
        <time>2025-09-30T11:10:55.061Z</time>
      </trkpt>
      <trkpt lat="43.6322" lon="2.27461">
        <ele>111.6</ele>
        <time>2025-09-30T11:10:55.625Z</time>
      </trkpt>
      <trkpt lat="43.63224" lon="2.27463">
        <ele>111.6</ele>
        <time>2025-09-30T11:10:56.110Z</time>
      </trkpt>
      <trkpt lat="43.63228" lon="2.27466">
        <ele>111.8</ele>
        <time>2025-09-30T11:10:56.951Z</time>
      </trkpt>
      <trkpt lat="43.63232" lon="2.27469">
        <ele>111.8</ele>
        <time>2025-09-30T11:10:57.470Z</time>
      </trkpt>
      <trkpt lat="43.63236" lon="2.27471">
        <ele>112</ele>
        <time>2025-09-30T11:10:58.286Z</time>
      </trkpt>
      <trkpt lat="43.63239" lon="2.27474">
        <ele>112</ele>
        <time>2025-09-30T11:10:58.709Z</time>
      </trkpt>
      <trkpt lat="43.63243" lon="2.27476">
        <ele>112.2</ele>
        <time>2025-09-30T11:10:59.525Z</time>
      </trkpt>
      <trkpt lat="43.63247" lon="2.27478">
        <ele>112.2</ele>
        <time>2025-09-30T11:11:00.011Z</time>
      </trkpt>
      <trkpt lat="43.6325" lon="2.27481">
        <ele>112.4</ele>
        <time>2025-09-30T11:11:00.788Z</time>
      </trkpt>
      <trkpt lat="43.63253" lon="2.27483">
        <ele>112.6</ele>
        <time>2025-09-30T11:11:01.544Z</time>
      </trkpt>
      <trkpt lat="43.63257" lon="2.27485">
        <ele>112.6</ele>
        <time>2025-09-30T11:11:02.030Z</time>
      </trkpt>
      <trkpt lat="43.6326" lon="2.27488">
        <ele>112.8</ele>
        <time>2025-09-30T11:11:02.806Z</time>
      </trkpt>
      <trkpt lat="43.63263" lon="2.2749">
        <ele>113</ele>
        <time>2025-09-30T11:11:03.562Z</time>
      </trkpt>
      <trkpt lat="43.63267" lon="2.27492">
        <ele>113.2</ele>
        <time>2025-09-30T11:11:04.378Z</time>
      </trkpt>
      <trkpt lat="43.6327" lon="2.27494">
        <ele>113.2</ele>
        <time>2025-09-30T11:11:04.759Z</time>
      </trkpt>
      <trkpt lat="43.63273" lon="2.27496">
        <ele>113.4</ele>
        <time>2025-09-30T11:11:05.515Z</time>
      </trkpt>
      <trkpt lat="43.63276" lon="2.27498">
        <ele>113.6</ele>
        <time>2025-09-30T11:11:06.271Z</time>
      </trkpt>
      <trkpt lat="43.63279" lon="2.275">
        <ele>113.8</ele>
        <time>2025-09-30T11:11:07.027Z</time>
      </trkpt>
      <trkpt lat="43.63282" lon="2.27502">
        <ele>113.8</ele>
        <time>2025-09-30T11:11:07.408Z</time>
      </trkpt>
      <trkpt lat="43.63286" lon="2.27504">
        <ele>114</ele>
        <time>2025-09-30T11:11:08.224Z</time>
      </trkpt>
      <trkpt lat="43.63289" lon="2.27506">
        <ele>114.2</ele>
        <time>2025-09-30T11:11:08.980Z</time>
      </trkpt>
      <trkpt lat="43.63292" lon="2.27508">
        <ele>114.2</ele>
        <time>2025-09-30T11:11:09.360Z</time>
      </trkpt>
      <trkpt lat="43.63295" lon="2.2751">
        <ele>114.4</ele>
        <time>2025-09-30T11:11:10.116Z</time>
      </trkpt>
      <trkpt lat="43.63299" lon="2.27512">
        <ele>114.6</ele>
        <time>2025-09-30T11:11:10.932Z</time>
      </trkpt>
      <trkpt lat="43.63301" lon="2.27515">
        <ele>114.6</ele>
        <time>2025-09-30T11:11:11.269Z</time>
      </trkpt>
      <trkpt lat="43.63305" lon="2.27517">
        <ele>114.8</ele>
        <time>2025-09-30T11:11:12.085Z</time>
      </trkpt>
      <trkpt lat="43.63307" lon="2.27519">
        <ele>115</ele>
        <time>2025-09-30T11:11:12.830Z</time>
      </trkpt>
      <trkpt lat="43.6331" lon="2.27521">
        <ele>115</ele>
        <time>2025-09-30T11:11:13.210Z</time>
      </trkpt>
      <trkpt lat="43.63313" lon="2.27524">
        <ele>115.2</ele>
        <time>2025-09-30T11:11:13.987Z</time>
      </trkpt>
      <trkpt lat="43.63316" lon="2.27526">
        <ele>115.4</ele>
        <time>2025-09-30T11:11:14.743Z</time>
      </trkpt>
      <trkpt lat="43.6332" lon="2.27528">
        <ele>115.6</ele>
        <time>2025-09-30T11:11:15.559Z</time>
      </trkpt>
      <trkpt lat="43.63322" lon="2.2753">
        <ele>115.6</ele>
        <time>2025-09-30T11:11:15.841Z</time>
      </trkpt>
      <trkpt lat="43.63325" lon="2.27531">
        <ele>115.8</ele>
        <time>2025-09-30T11:11:16.587Z</time>
      </trkpt>
      <trkpt lat="43.63328" lon="2.27533">
        <ele>116</ele>
        <time>2025-09-30T11:11:17.343Z</time>
      </trkpt>
      <trkpt lat="43.6333" lon="2.27535">
        <ele>116</ele>
        <time>2025-09-30T11:11:17.625Z</time>
      </trkpt>
      <trkpt lat="43.63333" lon="2.27537">
        <ele>116</ele>
        <time>2025-09-30T11:11:18.006Z</time>
      </trkpt>
      <trkpt lat="43.63336" lon="2.27538">
        <ele>116.2</ele>
        <time>2025-09-30T11:11:18.752Z</time>
      </trkpt>
      <trkpt lat="43.63339" lon="2.2754">
        <ele>116.4</ele>
        <time>2025-09-30T11:11:19.508Z</time>
      </trkpt>
      <trkpt lat="43.63342" lon="2.27541">
        <ele>116.4</ele>
        <time>2025-09-30T11:11:19.861Z</time>
      </trkpt>
      <trkpt lat="43.63345" lon="2.27543">
        <ele>116.6</ele>
        <time>2025-09-30T11:11:20.617Z</time>
      </trkpt>
      <trkpt lat="43.63348" lon="2.27546">
        <ele>116.8</ele>
        <time>2025-09-30T11:11:21.393Z</time>
      </trkpt>
      <trkpt lat="43.63351" lon="2.27547">
        <ele>116.8</ele>
        <time>2025-09-30T11:11:21.746Z</time>
      </trkpt>
      <trkpt lat="43.63354" lon="2.27549">
        <ele>117</ele>
        <time>2025-09-30T11:11:22.502Z</time>
      </trkpt>
      <trkpt lat="43.63356" lon="2.2755">
        <ele>117.2</ele>
        <time>2025-09-30T11:11:23.264Z</time>
      </trkpt>
      <trkpt lat="43.63357" lon="2.27553">
        <ele>117.4</ele>
        <time>2025-09-30T11:11:24.011Z</time>
      </trkpt>
      <trkpt lat="43.63357" lon="2.27555">
        <ele>117.6</ele>
        <time>2025-09-30T11:11:24.719Z</time>
      </trkpt>
      <trkpt lat="43.63356" lon="2.27558">
        <ele>118</ele>
        <time>2025-09-30T11:11:25.889Z</time>
      </trkpt>
      <trkpt lat="43.63355" lon="2.27563">
        <ele>118.2</ele>
        <time>2025-09-30T11:11:26.669Z</time>
      </trkpt>
      <trkpt lat="43.63354" lon="2.27568">
        <ele>118.4</ele>
        <time>2025-09-30T11:11:27.449Z</time>
      </trkpt>
      <trkpt lat="43.63354" lon="2.27573">
        <ele>118.6</ele>
        <time>2025-09-30T11:11:28.221Z</time>
      </trkpt>
      <trkpt lat="43.63352" lon="2.27579">
        <ele>118.8</ele>
        <time>2025-09-30T11:11:29.081Z</time>
      </trkpt>
      <trkpt lat="43.63352" lon="2.27584">
        <ele>119</ele>
        <time>2025-09-30T11:11:29.852Z</time>
      </trkpt>
      <trkpt lat="43.63351" lon="2.27589">
        <ele>119.2</ele>
        <time>2025-09-30T11:11:30.632Z</time>
      </trkpt>
      <trkpt lat="43.63351" lon="2.27595">
        <ele>119.4</ele>
        <time>2025-09-30T11:11:31.455Z</time>
      </trkpt>
      <trkpt lat="43.6335" lon="2.27601">
        <ele>119.8</ele>
        <time>2025-09-30T11:11:32.966Z</time>
      </trkpt>
      <trkpt lat="43.63349" lon="2.27606">
        <ele>120</ele>
        <time>2025-09-30T11:11:33.746Z</time>
      </trkpt>
      <trkpt lat="43.63348" lon="2.27612">
        <ele>120</ele>
        <time>2025-09-30T11:11:34.254Z</time>
      </trkpt>
      <trkpt lat="43.63347" lon="2.27617">
        <ele>120.2</ele>
        <time>2025-09-30T11:11:35.034Z</time>
      </trkpt>
      <trkpt lat="43.63347" lon="2.27623">
        <ele>120.4</ele>
        <time>2025-09-30T11:11:35.858Z</time>
      </trkpt>
      <trkpt lat="43.63346" lon="2.27628">
        <ele>120.6</ele>
        <time>2025-09-30T11:11:36.637Z</time>
      </trkpt>
      <trkpt lat="43.63345" lon="2.27633">
        <ele>120.8</ele>
        <time>2025-09-30T11:11:37.417Z</time>
      </trkpt>
      <trkpt lat="43.63344" lon="2.27639">
        <ele>121</ele>
        <time>2025-09-30T11:11:38.250Z</time>
      </trkpt>
      <trkpt lat="43.63343" lon="2.27644">
        <ele>121.2</ele>
        <time>2025-09-30T11:11:39.030Z</time>
      </trkpt>
      <trkpt lat="43.63342" lon="2.27649">
        <ele>121.2</ele>
        <time>2025-09-30T11:11:39.458Z</time>
      </trkpt>
      <trkpt lat="43.6334" lon="2.27655">
        <ele>121.4</ele>
        <time>2025-09-30T11:11:40.318Z</time>
      </trkpt>
      <trkpt lat="43.63338" lon="2.2766">
        <ele>121.6</ele>
        <time>2025-09-30T11:11:41.125Z</time>
      </trkpt>
      <trkpt lat="43.63337" lon="2.27666">
        <ele>121.6</ele>
        <time>2025-09-30T11:11:41.634Z</time>
      </trkpt>
      <trkpt lat="43.63335" lon="2.27671">
        <ele>121.8</ele>
        <time>2025-09-30T11:11:42.441Z</time>
      </trkpt>
      <trkpt lat="43.63334" lon="2.27677">
        <ele>121.8</ele>
        <time>2025-09-30T11:11:42.950Z</time>
      </trkpt>
      <trkpt lat="43.63333" lon="2.27682">
        <ele>121.8</ele>
        <time>2025-09-30T11:11:43.379Z</time>
      </trkpt>
      <trkpt lat="43.63331" lon="2.27688">
        <ele>121.8</ele>
        <time>2025-09-30T11:11:43.924Z</time>
      </trkpt>
      <trkpt lat="43.6333" lon="2.27693">
        <ele>122</ele>
        <time>2025-09-30T11:11:44.704Z</time>
      </trkpt>
      <trkpt lat="43.63328" lon="2.27698">
        <ele>122</ele>
        <time>2025-09-30T11:11:45.177Z</time>
      </trkpt>
      <trkpt lat="43.63327" lon="2.27704">
        <ele>122</ele>
        <time>2025-09-30T11:11:45.685Z</time>
      </trkpt>
      <trkpt lat="43.63325" lon="2.2771">
        <ele>122</ele>
        <time>2025-09-30T11:11:46.231Z</time>
      </trkpt>
      <trkpt lat="43.63324" lon="2.27715">
        <ele>122</ele>
        <time>2025-09-30T11:11:46.660Z</time>
      </trkpt>
      <trkpt lat="43.63322" lon="2.2772">
        <ele>122</ele>
        <time>2025-09-30T11:11:47.132Z</time>
      </trkpt>
      <trkpt lat="43.63321" lon="2.27726">
        <ele>121.8</ele>
        <time>2025-09-30T11:11:47.484Z</time>
      </trkpt>
      <trkpt lat="43.6332" lon="2.27732">
        <ele>121.8</ele>
        <time>2025-09-30T11:11:47.993Z</time>
      </trkpt>
      <trkpt lat="43.63318" lon="2.27737">
        <ele>121.8</ele>
        <time>2025-09-30T11:11:48.465Z</time>
      </trkpt>
      <trkpt lat="43.63317" lon="2.27743">
        <ele>121.8</ele>
        <time>2025-09-30T11:11:48.974Z</time>
      </trkpt>
      <trkpt lat="43.63316" lon="2.27748">
        <ele>121.8</ele>
        <time>2025-09-30T11:11:49.403Z</time>
      </trkpt>
      <trkpt lat="43.63314" lon="2.27753">
        <ele>121.8</ele>
        <time>2025-09-30T11:11:49.875Z</time>
      </trkpt>
      <trkpt lat="43.63313" lon="2.27758">
        <ele>121.8</ele>
        <time>2025-09-30T11:11:50.304Z</time>
      </trkpt>
      <trkpt lat="43.63312" lon="2.27763">
        <ele>121.8</ele>
        <time>2025-09-30T11:11:50.733Z</time>
      </trkpt>
      <trkpt lat="43.63311" lon="2.27768">
        <ele>121.8</ele>
        <time>2025-09-30T11:11:51.161Z</time>
      </trkpt>
      <trkpt lat="43.6331" lon="2.27773">
        <ele>121.8</ele>
        <time>2025-09-30T11:11:51.590Z</time>
      </trkpt>
      <trkpt lat="43.63309" lon="2.27778">
        <ele>121.8</ele>
        <time>2025-09-30T11:11:52.019Z</time>
      </trkpt>
      <trkpt lat="43.63307" lon="2.27783">
        <ele>121.8</ele>
        <time>2025-09-30T11:11:52.491Z</time>
      </trkpt>
      <trkpt lat="43.63306" lon="2.27788">
        <ele>122</ele>
        <time>2025-09-30T11:11:53.271Z</time>
      </trkpt>
      <trkpt lat="43.63305" lon="2.27794">
        <ele>122</ele>
        <time>2025-09-30T11:11:53.780Z</time>
      </trkpt>
      <trkpt lat="43.63303" lon="2.27799">
        <ele>122</ele>
        <time>2025-09-30T11:11:54.252Z</time>
      </trkpt>
      <trkpt lat="43.63302" lon="2.27805">
        <ele>122</ele>
        <time>2025-09-30T11:11:54.761Z</time>
      </trkpt>
      <trkpt lat="43.633" lon="2.2781">
        <ele>121.8</ele>
        <time>2025-09-30T11:11:55.079Z</time>
      </trkpt>
      <trkpt lat="43.63298" lon="2.27815">
        <ele>121.8</ele>
        <time>2025-09-30T11:11:55.552Z</time>
      </trkpt>
      <trkpt lat="43.63297" lon="2.2782">
        <ele>121.8</ele>
        <time>2025-09-30T11:11:55.980Z</time>
      </trkpt>
      <trkpt lat="43.63296" lon="2.27823">
        <ele>121.8</ele>
        <time>2025-09-30T11:11:56.253Z</time>
      </trkpt>
      <trkpt lat="43.63296" lon="2.27826">
        <ele>121.8</ele>
        <time>2025-09-30T11:11:56.501Z</time>
      </trkpt>
      <trkpt lat="43.63295" lon="2.27829">
        <ele>121.8</ele>
        <time>2025-09-30T11:11:56.774Z</time>
      </trkpt>
      <trkpt lat="43.63294" lon="2.2783">
        <ele>121.8</ele>
        <time>2025-09-30T11:11:56.915Z</time>
      </trkpt>
      <trkpt lat="43.63294" lon="2.27831">
        <ele>121.8</ele>
        <time>2025-09-30T11:11:56.998Z</time>
      </trkpt>
      <trkpt lat="43.63294" lon="2.27832">
        <ele>121.8</ele>
        <time>2025-09-30T11:11:57.081Z</time>
      </trkpt>
      <trkpt lat="43.63293" lon="2.27833">
        <ele>121.8</ele>
        <time>2025-09-30T11:11:57.222Z</time>
      </trkpt>
      <trkpt lat="43.63293" lon="2.27834">
        <ele>121.8</ele>
        <time>2025-09-30T11:11:57.304Z</time>
      </trkpt>
      <trkpt lat="43.63293" lon="2.27835">
        <ele>121.8</ele>
        <time>2025-09-30T11:11:57.387Z</time>
      </trkpt>
      <trkpt lat="43.63292" lon="2.27836">
        <ele>121.8</ele>
        <time>2025-09-30T11:11:57.528Z</time>
      </trkpt>
      <trkpt lat="43.63292" lon="2.27837">
        <ele>121.8</ele>
        <time>2025-09-30T11:11:57.610Z</time>
      </trkpt>
      <trkpt lat="43.6329" lon="2.27842">
        <ele>121.8</ele>
        <time>2025-09-30T11:11:58.083Z</time>
      </trkpt>
      <trkpt lat="43.63289" lon="2.27845">
        <ele>121.8</ele>
        <time>2025-09-30T11:11:58.356Z</time>
      </trkpt>
      <trkpt lat="43.63289" lon="2.2785">
        <ele>121.8</ele>
        <time>2025-09-30T11:11:58.769Z</time>
      </trkpt>
      <trkpt lat="43.63289" lon="2.27855">
        <ele>122</ele>
        <time>2025-09-30T11:11:59.540Z</time>
      </trkpt>
      <trkpt lat="43.63289" lon="2.2786">
        <ele>122.2</ele>
        <time>2025-09-30T11:12:00.312Z</time>
      </trkpt>
      <trkpt lat="43.63288" lon="2.27864">
        <ele>122.4</ele>
        <time>2025-09-30T11:12:01.058Z</time>
      </trkpt>
      <trkpt lat="43.63288" lon="2.27868">
        <ele>122.8</ele>
        <time>2025-09-30T11:12:02.474Z</time>
      </trkpt>
      <trkpt lat="43.63287" lon="2.27871">
        <ele>123</ele>
        <time>2025-09-30T11:12:03.222Z</time>
      </trkpt>
      <trkpt lat="43.63288" lon="2.27875">
        <ele>123.4</ele>
        <time>2025-09-30T11:12:04.715Z</time>
      </trkpt>
      <trkpt lat="43.6329" lon="2.27877">
        <ele>123.8</ele>
        <time>2025-09-30T11:12:05.924Z</time>
      </trkpt>
      <trkpt lat="43.63292" lon="2.27879">
        <ele>124.2</ele>
        <time>2025-09-30T11:12:07.132Z</time>
      </trkpt>
      <trkpt lat="43.63295" lon="2.27881">
        <ele>124.6</ele>
        <time>2025-09-30T11:12:08.686Z</time>
      </trkpt>
      <trkpt lat="43.63298" lon="2.27882">
        <ele>124.8</ele>
        <time>2025-09-30T11:12:09.433Z</time>
      </trkpt>
      <trkpt lat="43.633" lon="2.27884">
        <ele>125.2</ele>
        <time>2025-09-30T11:12:10.641Z</time>
      </trkpt>
      <trkpt lat="43.63303" lon="2.27885">
        <ele>125.6</ele>
        <time>2025-09-30T11:12:12.143Z</time>
      </trkpt>
      <trkpt lat="43.63305" lon="2.27887">
        <ele>126.2</ele>
        <time>2025-09-30T11:12:13.352Z</time>
      </trkpt>
      <trkpt lat="43.63308" lon="2.27888">
        <ele>126.6</ele>
        <time>2025-09-30T11:12:14.854Z</time>
      </trkpt>
      <trkpt lat="43.6331" lon="2.2789">
        <ele>127</ele>
        <time>2025-09-30T11:12:16.062Z</time>
      </trkpt>
      <trkpt lat="43.63312" lon="2.27891">
        <ele>127.4</ele>
        <time>2025-09-30T11:12:17.103Z</time>
      </trkpt>
      <trkpt lat="43.63314" lon="2.27892">
        <ele>127.8</ele>
        <time>2025-09-30T11:12:18.144Z</time>
      </trkpt>
      <trkpt lat="43.63317" lon="2.27894">
        <ele>128.2</ele>
        <time>2025-09-30T11:12:19.698Z</time>
      </trkpt>
      <trkpt lat="43.63319" lon="2.27895">
        <ele>128.6</ele>
        <time>2025-09-30T11:12:20.739Z</time>
      </trkpt>
      <trkpt lat="43.63321" lon="2.27897">
        <ele>129</ele>
        <time>2025-09-30T11:12:21.947Z</time>
      </trkpt>
      <trkpt lat="43.63324" lon="2.27899">
        <ele>129.4</ele>
        <time>2025-09-30T11:12:23.502Z</time>
      </trkpt>
      <trkpt lat="43.63326" lon="2.27902">
        <ele>129.8</ele>
        <time>2025-09-30T11:12:24.947Z</time>
      </trkpt>
      <trkpt lat="43.63327" lon="2.27904">
        <ele>130.2</ele>
        <time>2025-09-30T11:12:25.808Z</time>
      </trkpt>
      <trkpt lat="43.63329" lon="2.27908">
        <ele>130.6</ele>
        <time>2025-09-30T11:12:27.372Z</time>
      </trkpt>
      <trkpt lat="43.63329" lon="2.27911">
        <ele>130.8</ele>
        <time>2025-09-30T11:12:28.131Z</time>
      </trkpt>
      <trkpt lat="43.6333" lon="2.27915">
        <ele>131.2</ele>
        <time>2025-09-30T11:12:29.625Z</time>
      </trkpt>
      <trkpt lat="43.6333" lon="2.27919">
        <ele>131.4</ele>
        <time>2025-09-30T11:12:30.367Z</time>
      </trkpt>
      <trkpt lat="43.6333" lon="2.27924">
        <ele>131.8</ele>
        <time>2025-09-30T11:12:31.931Z</time>
      </trkpt>
      <trkpt lat="43.63331" lon="2.27928">
        <ele>132</ele>
        <time>2025-09-30T11:12:32.677Z</time>
      </trkpt>
      <trkpt lat="43.63331" lon="2.27932">
        <ele>132.2</ele>
        <time>2025-09-30T11:12:33.419Z</time>
      </trkpt>
      <trkpt lat="43.63331" lon="2.27936">
        <ele>132.6</ele>
        <time>2025-09-30T11:12:34.835Z</time>
      </trkpt>
      <trkpt lat="43.63332" lon="2.27939">
        <ele>132.8</ele>
        <time>2025-09-30T11:12:35.583Z</time>
      </trkpt>
      <trkpt lat="43.63332" lon="2.27943">
        <ele>133</ele>
        <time>2025-09-30T11:12:36.324Z</time>
      </trkpt>
      <trkpt lat="43.63331" lon="2.27947">
        <ele>133.4</ele>
        <time>2025-09-30T11:12:37.818Z</time>
      </trkpt>
      <trkpt lat="43.6333" lon="2.27951">
        <ele>133.6</ele>
        <time>2025-09-30T11:12:38.564Z</time>
      </trkpt>
      <trkpt lat="43.6333" lon="2.27955">
        <ele>133.8</ele>
        <time>2025-09-30T11:12:39.306Z</time>
      </trkpt>
      <trkpt lat="43.63329" lon="2.27959">
        <ele>134</ele>
        <time>2025-09-30T11:12:40.052Z</time>
      </trkpt>
      <trkpt lat="43.63329" lon="2.27963">
        <ele>134.2</ele>
        <time>2025-09-30T11:12:40.794Z</time>
      </trkpt>
      <trkpt lat="43.63329" lon="2.27967">
        <ele>134.4</ele>
        <time>2025-09-30T11:12:41.536Z</time>
      </trkpt>
      <trkpt lat="43.6333" lon="2.27971">
        <ele>134.8</ele>
        <time>2025-09-30T11:12:43.030Z</time>
      </trkpt>
      <trkpt lat="43.6333" lon="2.27975">
        <ele>135</ele>
        <time>2025-09-30T11:12:43.772Z</time>
      </trkpt>
      <trkpt lat="43.6333" lon="2.27978">
        <ele>135.4</ele>
        <time>2025-09-30T11:12:44.834Z</time>
      </trkpt>
      <trkpt lat="43.63331" lon="2.27982">
        <ele>135.8</ele>
        <time>2025-09-30T11:12:46.328Z</time>
      </trkpt>
      <trkpt lat="43.63332" lon="2.27985">
        <ele>136</ele>
        <time>2025-09-30T11:12:47.075Z</time>
      </trkpt>
      <trkpt lat="43.63332" lon="2.27989">
        <ele>136.4</ele>
        <time>2025-09-30T11:12:48.492Z</time>
      </trkpt>
      <trkpt lat="43.63332" lon="2.27992">
        <ele>136.8</ele>
        <time>2025-09-30T11:12:49.555Z</time>
      </trkpt>
      <trkpt lat="43.63332" lon="2.27996">
        <ele>137</ele>
        <time>2025-09-30T11:12:50.297Z</time>
      </trkpt>
      <trkpt lat="43.63332" lon="2.28">
        <ele>137.4</ele>
        <time>2025-09-30T11:12:51.714Z</time>
      </trkpt>
      <trkpt lat="43.63332" lon="2.28003">
        <ele>137.6</ele>
        <time>2025-09-30T11:12:52.472Z</time>
      </trkpt>
      <trkpt lat="43.63332" lon="2.28006">
        <ele>138</ele>
        <time>2025-09-30T11:12:53.535Z</time>
      </trkpt>
      <trkpt lat="43.63332" lon="2.2801">
        <ele>138.2</ele>
        <time>2025-09-30T11:12:54.277Z</time>
      </trkpt>
      <trkpt lat="43.63333" lon="2.28013">
        <ele>138.4</ele>
        <time>2025-09-30T11:12:55.024Z</time>
      </trkpt>
      <trkpt lat="43.63333" lon="2.28016">
        <ele>138.8</ele>
        <time>2025-09-30T11:12:56.087Z</time>
      </trkpt>
      <trkpt lat="43.63333" lon="2.28019">
        <ele>139</ele>
        <time>2025-09-30T11:12:56.846Z</time>
      </trkpt>
      <trkpt lat="43.63334" lon="2.28022">
        <ele>139.2</ele>
        <time>2025-09-30T11:12:57.593Z</time>
      </trkpt>
      <trkpt lat="43.63334" lon="2.28025">
        <ele>139.6</ele>
        <time>2025-09-30T11:12:58.655Z</time>
      </trkpt>
      <trkpt lat="43.63334" lon="2.28028">
        <ele>139.8</ele>
        <time>2025-09-30T11:12:59.414Z</time>
      </trkpt>
      <trkpt lat="43.63334" lon="2.2803">
        <ele>140</ele>
        <time>2025-09-30T11:13:00.122Z</time>
      </trkpt>
      <trkpt lat="43.63334" lon="2.28033">
        <ele>140.2</ele>
        <time>2025-09-30T11:13:00.881Z</time>
      </trkpt>
      <trkpt lat="43.63334" lon="2.28035">
        <ele>140.4</ele>
        <time>2025-09-30T11:13:01.590Z</time>
      </trkpt>
      <trkpt lat="43.63334" lon="2.28038">
        <ele>140.6</ele>
        <time>2025-09-30T11:13:02.349Z</time>
      </trkpt>
      <trkpt lat="43.63335" lon="2.2804">
        <ele>141</ele>
        <time>2025-09-30T11:13:03.210Z</time>
      </trkpt>
      <trkpt lat="43.63335" lon="2.28043">
        <ele>141.2</ele>
        <time>2025-09-30T11:13:03.969Z</time>
      </trkpt>
      <trkpt lat="43.63336" lon="2.28046">
        <ele>141.4</ele>
        <time>2025-09-30T11:13:04.716Z</time>
      </trkpt>
      <trkpt lat="43.63336" lon="2.28049">
        <ele>141.6</ele>
        <time>2025-09-30T11:13:05.474Z</time>
      </trkpt>
      <trkpt lat="43.63337" lon="2.28052">
        <ele>142</ele>
        <time>2025-09-30T11:13:06.644Z</time>
      </trkpt>
      <trkpt lat="43.63337" lon="2.28056">
        <ele>142.2</ele>
        <time>2025-09-30T11:13:07.386Z</time>
      </trkpt>
      <trkpt lat="43.63338" lon="2.28059">
        <ele>142.6</ele>
        <time>2025-09-30T11:13:08.556Z</time>
      </trkpt>
      <trkpt lat="43.63338" lon="2.28062">
        <ele>142.8</ele>
        <time>2025-09-30T11:13:09.315Z</time>
      </trkpt>
      <trkpt lat="43.63339" lon="2.28065">
        <ele>143</ele>
        <time>2025-09-30T11:13:10.062Z</time>
      </trkpt>
      <trkpt lat="43.6334" lon="2.28068">
        <ele>143.4</ele>
        <time>2025-09-30T11:13:11.232Z</time>
      </trkpt>
      <trkpt lat="43.63341" lon="2.28071">
        <ele>143.6</ele>
        <time>2025-09-30T11:13:11.979Z</time>
      </trkpt>
      <trkpt lat="43.63341" lon="2.28074">
        <ele>144</ele>
        <time>2025-09-30T11:13:13.042Z</time>
      </trkpt>
      <trkpt lat="43.63343" lon="2.28077">
        <ele>144.2</ele>
        <time>2025-09-30T11:13:13.785Z</time>
      </trkpt>
      <trkpt lat="43.63344" lon="2.2808">
        <ele>144.6</ele>
        <time>2025-09-30T11:13:14.955Z</time>
      </trkpt>
      <trkpt lat="43.63346" lon="2.28082">
        <ele>145</ele>
        <time>2025-09-30T11:13:16.163Z</time>
      </trkpt>
      <trkpt lat="43.63348" lon="2.28084">
        <ele>145.2</ele>
        <time>2025-09-30T11:13:16.907Z</time>
      </trkpt>
      <trkpt lat="43.6335" lon="2.28084">
        <ele>145.6</ele>
        <time>2025-09-30T11:13:17.886Z</time>
      </trkpt>
      <trkpt lat="43.63352" lon="2.28084">
        <ele>146</ele>
        <time>2025-09-30T11:13:18.865Z</time>
      </trkpt>
      <trkpt lat="43.63354" lon="2.28085">
        <ele>146.2</ele>
        <time>2025-09-30T11:13:19.627Z</time>
      </trkpt>
      <trkpt lat="43.63356" lon="2.28085">
        <ele>146.6</ele>
        <time>2025-09-30T11:13:20.605Z</time>
      </trkpt>
      <trkpt lat="43.63359" lon="2.28085">
        <ele>146.8</ele>
        <time>2025-09-30T11:13:21.350Z</time>
      </trkpt>
      <trkpt lat="43.63361" lon="2.28084">
        <ele>147.2</ele>
        <time>2025-09-30T11:13:22.391Z</time>
      </trkpt>
      <trkpt lat="43.63363" lon="2.28084">
        <ele>147.4</ele>
        <time>2025-09-30T11:13:23.162Z</time>
      </trkpt>
      <trkpt lat="43.63366" lon="2.28083">
        <ele>147.8</ele>
        <time>2025-09-30T11:13:24.664Z</time>
      </trkpt>
      <trkpt lat="43.63368" lon="2.28083">
        <ele>148</ele>
        <time>2025-09-30T11:13:25.435Z</time>
      </trkpt>
      <trkpt lat="43.6337" lon="2.28083">
        <ele>148.4</ele>
        <time>2025-09-30T11:13:26.414Z</time>
      </trkpt>
      <trkpt lat="43.63373" lon="2.28082">
        <ele>148.6</ele>
        <time>2025-09-30T11:13:27.160Z</time>
      </trkpt>
      <trkpt lat="43.63375" lon="2.28082">
        <ele>148.8</ele>
        <time>2025-09-30T11:13:27.931Z</time>
      </trkpt>
      <trkpt lat="43.63378" lon="2.28081">
        <ele>149</ele>
        <time>2025-09-30T11:13:28.678Z</time>
      </trkpt>
      <trkpt lat="43.6338" lon="2.28081">
        <ele>149.2</ele>
        <time>2025-09-30T11:13:29.449Z</time>
      </trkpt>
      <trkpt lat="43.63383" lon="2.28081">
        <ele>149.2</ele>
        <time>2025-09-30T11:13:29.792Z</time>
      </trkpt>
      <trkpt lat="43.63387" lon="2.2808">
        <ele>149.4</ele>
        <time>2025-09-30T11:13:30.593Z</time>
      </trkpt>
      <trkpt lat="43.6339" lon="2.2808">
        <ele>149.4</ele>
        <time>2025-09-30T11:13:30.936Z</time>
      </trkpt>
      <trkpt lat="43.63393" lon="2.2808">
        <ele>149.6</ele>
        <time>2025-09-30T11:13:31.680Z</time>
      </trkpt>
      <trkpt lat="43.63396" lon="2.28079">
        <ele>149.6</ele>
        <time>2025-09-30T11:13:32.032Z</time>
      </trkpt>
      <trkpt lat="43.63399" lon="2.28079">
        <ele>149.6</ele>
        <time>2025-09-30T11:13:32.375Z</time>
      </trkpt>
      <trkpt lat="43.63402" lon="2.28078">
        <ele>149.8</ele>
        <time>2025-09-30T11:13:33.121Z</time>
      </trkpt>
      <trkpt lat="43.63406" lon="2.28078">
        <ele>149.8</ele>
        <time>2025-09-30T11:13:33.578Z</time>
      </trkpt>
      <trkpt lat="43.63409" lon="2.28077">
        <ele>149.8</ele>
        <time>2025-09-30T11:13:33.931Z</time>
      </trkpt>
      <trkpt lat="43.63412" lon="2.28077">
        <ele>150</ele>
        <time>2025-09-30T11:13:34.675Z</time>
      </trkpt>
      <trkpt lat="43.63415" lon="2.28077">
        <ele>150</ele>
        <time>2025-09-30T11:13:35.017Z</time>
      </trkpt>
      <trkpt lat="43.63418" lon="2.28076">
        <ele>150</ele>
        <time>2025-09-30T11:13:35.370Z</time>
      </trkpt>
      <trkpt lat="43.63422" lon="2.28076">
        <ele>150</ele>
        <time>2025-09-30T11:13:35.826Z</time>
      </trkpt>
      <trkpt lat="43.63425" lon="2.28075">
        <ele>150</ele>
        <time>2025-09-30T11:13:36.179Z</time>
      </trkpt>
      <trkpt lat="43.63428" lon="2.28075">
        <ele>150.2</ele>
        <time>2025-09-30T11:13:36.923Z</time>
      </trkpt>
      <trkpt lat="43.63431" lon="2.28074">
        <ele>150.2</ele>
        <time>2025-09-30T11:13:37.275Z</time>
      </trkpt>
      <trkpt lat="43.63434" lon="2.28074">
        <ele>150.2</ele>
        <time>2025-09-30T11:13:37.618Z</time>
      </trkpt>
      <trkpt lat="43.63437" lon="2.28074">
        <ele>150.2</ele>
        <time>2025-09-30T11:13:37.961Z</time>
      </trkpt>
      <trkpt lat="43.6344" lon="2.28073">
        <ele>150.2</ele>
        <time>2025-09-30T11:13:38.313Z</time>
      </trkpt>
      <trkpt lat="43.63444" lon="2.28073">
        <ele>150.4</ele>
        <time>2025-09-30T11:13:39.110Z</time>
      </trkpt>
      <trkpt lat="43.63447" lon="2.28072">
        <ele>150.4</ele>
        <time>2025-09-30T11:13:39.462Z</time>
      </trkpt>
      <trkpt lat="43.6345" lon="2.28072">
        <ele>150.4</ele>
        <time>2025-09-30T11:13:39.805Z</time>
      </trkpt>
      <trkpt lat="43.63452" lon="2.28071">
        <ele>150.6</ele>
        <time>2025-09-30T11:13:40.567Z</time>
      </trkpt>
      <trkpt lat="43.63455" lon="2.28071">
        <ele>150.6</ele>
        <time>2025-09-30T11:13:40.909Z</time>
      </trkpt>
      <trkpt lat="43.63458" lon="2.28071">
        <ele>150.8</ele>
        <time>2025-09-30T11:13:41.653Z</time>
      </trkpt>
      <trkpt lat="43.63461" lon="2.2807">
        <ele>150.8</ele>
        <time>2025-09-30T11:13:42.006Z</time>
      </trkpt>
      <trkpt lat="43.63465" lon="2.2807">
        <ele>151</ele>
        <time>2025-09-30T11:13:42.803Z</time>
      </trkpt>
      <trkpt lat="43.63468" lon="2.2807">
        <ele>151</ele>
        <time>2025-09-30T11:13:43.145Z</time>
      </trkpt>
      <trkpt lat="43.63471" lon="2.2807">
        <ele>151.2</ele>
        <time>2025-09-30T11:13:43.889Z</time>
      </trkpt>
      <trkpt lat="43.63474" lon="2.28069">
        <ele>151.2</ele>
        <time>2025-09-30T11:13:44.242Z</time>
      </trkpt>
      <trkpt lat="43.63478" lon="2.28069">
        <ele>151.4</ele>
        <time>2025-09-30T11:13:45.039Z</time>
      </trkpt>
      <trkpt lat="43.63481" lon="2.28069">
        <ele>151.4</ele>
        <time>2025-09-30T11:13:45.381Z</time>
      </trkpt>
      <trkpt lat="43.63485" lon="2.28069">
        <ele>151.6</ele>
        <time>2025-09-30T11:13:46.178Z</time>
      </trkpt>
      <trkpt lat="43.63489" lon="2.28069">
        <ele>151.6</ele>
        <time>2025-09-30T11:13:46.635Z</time>
      </trkpt>
      <trkpt lat="43.63493" lon="2.28068">
        <ele>151.6</ele>
        <time>2025-09-30T11:13:47.099Z</time>
      </trkpt>
      <trkpt lat="43.63496" lon="2.28068">
        <ele>151.8</ele>
        <time>2025-09-30T11:13:47.843Z</time>
      </trkpt>
      <trkpt lat="43.635" lon="2.28068">
        <ele>151.8</ele>
        <time>2025-09-30T11:13:48.300Z</time>
      </trkpt>
      <trkpt lat="43.63503" lon="2.28067">
        <ele>152</ele>
        <time>2025-09-30T11:13:49.046Z</time>
      </trkpt>
      <trkpt lat="43.63507" lon="2.28067">
        <ele>152</ele>
        <time>2025-09-30T11:13:49.503Z</time>
      </trkpt>
      <trkpt lat="43.63511" lon="2.28066">
        <ele>152</ele>
        <time>2025-09-30T11:13:49.967Z</time>
      </trkpt>
      <trkpt lat="43.63515" lon="2.28065">
        <ele>152.2</ele>
        <time>2025-09-30T11:13:50.769Z</time>
      </trkpt>
      <trkpt lat="43.63518" lon="2.28065">
        <ele>152.2</ele>
        <time>2025-09-30T11:13:51.111Z</time>
      </trkpt>
      <trkpt lat="43.63522" lon="2.28064">
        <ele>152.4</ele>
        <time>2025-09-30T11:13:51.913Z</time>
      </trkpt>
      <trkpt lat="43.63526" lon="2.28064">
        <ele>152.4</ele>
        <time>2025-09-30T11:13:52.370Z</time>
      </trkpt>
      <trkpt lat="43.63529" lon="2.28064">
        <ele>152.6</ele>
        <time>2025-09-30T11:13:53.114Z</time>
      </trkpt>
      <trkpt lat="43.63533" lon="2.28064">
        <ele>152.6</ele>
        <time>2025-09-30T11:13:53.571Z</time>
      </trkpt>
      <trkpt lat="43.63536" lon="2.28063">
        <ele>152.8</ele>
        <time>2025-09-30T11:13:54.317Z</time>
      </trkpt>
      <trkpt lat="43.6354" lon="2.28063">
        <ele>152.8</ele>
        <time>2025-09-30T11:13:54.774Z</time>
      </trkpt>
      <trkpt lat="43.63544" lon="2.28063">
        <ele>153</ele>
        <time>2025-09-30T11:13:55.571Z</time>
      </trkpt>
      <trkpt lat="43.63547" lon="2.28062">
        <ele>153</ele>
        <time>2025-09-30T11:13:55.923Z</time>
      </trkpt>
      <trkpt lat="43.63551" lon="2.28062">
        <ele>153.2</ele>
        <time>2025-09-30T11:13:56.720Z</time>
      </trkpt>
      <trkpt lat="43.63554" lon="2.28061">
        <ele>153.4</ele>
        <time>2025-09-30T11:13:57.467Z</time>
      </trkpt>
      <trkpt lat="43.63557" lon="2.28061">
        <ele>153.4</ele>
        <time>2025-09-30T11:13:57.809Z</time>
      </trkpt>
      <trkpt lat="43.63561" lon="2.2806">
        <ele>153.6</ele>
        <time>2025-09-30T11:13:58.611Z</time>
      </trkpt>
      <trkpt lat="43.63564" lon="2.28059">
        <ele>153.8</ele>
        <time>2025-09-30T11:13:59.357Z</time>
      </trkpt>
      <trkpt lat="43.63568" lon="2.28059">
        <ele>153.8</ele>
        <time>2025-09-30T11:13:59.814Z</time>
      </trkpt>
      <trkpt lat="43.63571" lon="2.28058">
        <ele>154</ele>
        <time>2025-09-30T11:14:00.561Z</time>
      </trkpt>
      <trkpt lat="43.63574" lon="2.28058">
        <ele>154</ele>
        <time>2025-09-30T11:14:00.903Z</time>
      </trkpt>
      <trkpt lat="43.63576" lon="2.28058">
        <ele>154.2</ele>
        <time>2025-09-30T11:14:01.674Z</time>
      </trkpt>
      <trkpt lat="43.63579" lon="2.28058">
        <ele>154.2</ele>
        <time>2025-09-30T11:14:02.017Z</time>
      </trkpt>
      <trkpt lat="43.63583" lon="2.28058">
        <ele>154.2</ele>
        <time>2025-09-30T11:14:02.474Z</time>
      </trkpt>
      <trkpt lat="43.63587" lon="2.28058">
        <ele>154.2</ele>
        <time>2025-09-30T11:14:02.930Z</time>
      </trkpt>
      <trkpt lat="43.6359" lon="2.28057">
        <ele>154.4</ele>
        <time>2025-09-30T11:14:03.677Z</time>
      </trkpt>
      <trkpt lat="43.63594" lon="2.28057">
        <ele>154.4</ele>
        <time>2025-09-30T11:14:04.134Z</time>
      </trkpt>
      <trkpt lat="43.63597" lon="2.28057">
        <ele>154.4</ele>
        <time>2025-09-30T11:14:04.476Z</time>
      </trkpt>
      <trkpt lat="43.636" lon="2.28056">
        <ele>154.4</ele>
        <time>2025-09-30T11:14:04.829Z</time>
      </trkpt>
      <trkpt lat="43.63603" lon="2.28055">
        <ele>154.4</ele>
        <time>2025-09-30T11:14:05.181Z</time>
      </trkpt>
      <trkpt lat="43.63606" lon="2.28054">
        <ele>154.4</ele>
        <time>2025-09-30T11:14:05.534Z</time>
      </trkpt>
      <trkpt lat="43.6361" lon="2.28054">
        <ele>154.4</ele>
        <time>2025-09-30T11:14:05.990Z</time>
      </trkpt>
      <trkpt lat="43.63614" lon="2.28053">
        <ele>154.4</ele>
        <time>2025-09-30T11:14:06.455Z</time>
      </trkpt>
      <trkpt lat="43.63618" lon="2.28053">
        <ele>154.4</ele>
        <time>2025-09-30T11:14:06.911Z</time>
      </trkpt>
      <trkpt lat="43.63622" lon="2.28052">
        <ele>154.4</ele>
        <time>2025-09-30T11:14:07.375Z</time>
      </trkpt>
      <trkpt lat="43.63626" lon="2.28052">
        <ele>154.2</ele>
        <time>2025-09-30T11:14:07.680Z</time>
      </trkpt>
      <trkpt lat="43.63629" lon="2.28052">
        <ele>154</ele>
        <time>2025-09-30T11:14:07.886Z</time>
      </trkpt>
      <trkpt lat="43.63632" lon="2.28053">
        <ele>154</ele>
        <time>2025-09-30T11:14:08.238Z</time>
      </trkpt>
      <trkpt lat="43.63635" lon="2.28052">
        <ele>153.8</ele>
        <time>2025-09-30T11:14:08.452Z</time>
      </trkpt>
      <trkpt lat="43.63638" lon="2.28052">
        <ele>153.8</ele>
        <time>2025-09-30T11:14:08.795Z</time>
      </trkpt>
      <trkpt lat="43.63642" lon="2.28052">
        <ele>153.6</ele>
        <time>2025-09-30T11:14:09.100Z</time>
      </trkpt>
      <trkpt lat="43.63645" lon="2.28052">
        <ele>153.4</ele>
        <time>2025-09-30T11:14:09.305Z</time>
      </trkpt>
      <trkpt lat="43.63648" lon="2.28052">
        <ele>153.2</ele>
        <time>2025-09-30T11:14:09.511Z</time>
      </trkpt>
      <trkpt lat="43.63652" lon="2.28052">
        <ele>153</ele>
        <time>2025-09-30T11:14:09.816Z</time>
      </trkpt>
      <trkpt lat="43.63656" lon="2.28052">
        <ele>152.8</ele>
        <time>2025-09-30T11:14:10.121Z</time>
      </trkpt>
      <trkpt lat="43.63661" lon="2.28052">
        <ele>152.6</ele>
        <time>2025-09-30T11:14:10.530Z</time>
      </trkpt>
      <trkpt lat="43.63665" lon="2.28052">
        <ele>152.4</ele>
        <time>2025-09-30T11:14:10.835Z</time>
      </trkpt>
      <trkpt lat="43.63671" lon="2.28052">
        <ele>152</ele>
        <time>2025-09-30T11:14:11.246Z</time>
      </trkpt>
      <trkpt lat="43.63677" lon="2.28053">
        <ele>151.4</ele>
        <time>2025-09-30T11:14:11.660Z</time>
      </trkpt>
      <trkpt lat="43.63683" lon="2.28054">
        <ele>151</ele>
        <time>2025-09-30T11:14:12.075Z</time>
      </trkpt>
      <trkpt lat="43.63689" lon="2.28055">
        <ele>150.6</ele>
        <time>2025-09-30T11:14:12.491Z</time>
      </trkpt>
      <trkpt lat="43.63696" lon="2.28056">
        <ele>150.2</ele>
        <time>2025-09-30T11:14:13.004Z</time>
      </trkpt>
      <trkpt lat="43.63702" lon="2.28058">
        <ele>149.8</ele>
        <time>2025-09-30T11:14:13.431Z</time>
      </trkpt>
      <trkpt lat="43.63707" lon="2.28061">
        <ele>149.4</ele>
        <time>2025-09-30T11:14:13.805Z</time>
      </trkpt>
      <trkpt lat="43.63713" lon="2.28064">
        <ele>149.2</ele>
        <time>2025-09-30T11:14:14.362Z</time>
      </trkpt>
      <trkpt lat="43.63719" lon="2.28068">
        <ele>148.8</ele>
        <time>2025-09-30T11:14:14.837Z</time>
      </trkpt>
      <trkpt lat="43.63724" lon="2.28071">
        <ele>148.6</ele>
        <time>2025-09-30T11:14:15.294Z</time>
      </trkpt>
      <trkpt lat="43.6373" lon="2.28074">
        <ele>148.6</ele>
        <time>2025-09-30T11:14:16.023Z</time>
      </trkpt>
      <trkpt lat="43.63735" lon="2.28076">
        <ele>148.6</ele>
        <time>2025-09-30T11:14:16.617Z</time>
      </trkpt>
      <trkpt lat="43.63739" lon="2.28078">
        <ele>148.8</ele>
        <time>2025-09-30T11:14:17.433Z</time>
      </trkpt>
      <trkpt lat="43.63744" lon="2.28079">
        <ele>149</ele>
        <time>2025-09-30T11:14:18.317Z</time>
      </trkpt>
      <trkpt lat="43.63748" lon="2.2808">
        <ele>149.2</ele>
        <time>2025-09-30T11:14:19.119Z</time>
      </trkpt>
      <trkpt lat="43.63751" lon="2.28082">
        <ele>149.4</ele>
        <time>2025-09-30T11:14:19.875Z</time>
      </trkpt>
      <trkpt lat="43.63754" lon="2.28083">
        <ele>149.8</ele>
        <time>2025-09-30T11:14:21.377Z</time>
      </trkpt>
      <trkpt lat="43.63756" lon="2.28083">
        <ele>150</ele>
        <time>2025-09-30T11:14:22.148Z</time>
      </trkpt>
      <trkpt lat="43.63759" lon="2.28084">
        <ele>150.2</ele>
        <time>2025-09-30T11:14:22.895Z</time>
      </trkpt>
      <trkpt lat="43.63762" lon="2.28085">
        <ele>150.6</ele>
        <time>2025-09-30T11:14:24.397Z</time>
      </trkpt>
      <trkpt lat="43.63765" lon="2.28086">
        <ele>150.8</ele>
        <time>2025-09-30T11:14:25.143Z</time>
      </trkpt>
      <trkpt lat="43.63768" lon="2.28087">
        <ele>151</ele>
        <time>2025-09-30T11:14:25.890Z</time>
      </trkpt>
      <trkpt lat="43.63771" lon="2.28088">
        <ele>151.4</ele>
        <time>2025-09-30T11:14:27.392Z</time>
      </trkpt>
      <trkpt lat="43.63774" lon="2.28089">
        <ele>151.6</ele>
        <time>2025-09-30T11:14:28.138Z</time>
      </trkpt>
      <trkpt lat="43.63776" lon="2.28091">
        <ele>151.8</ele>
        <time>2025-09-30T11:14:28.883Z</time>
      </trkpt>
      <trkpt lat="43.63779" lon="2.28091">
        <ele>152</ele>
        <time>2025-09-30T11:14:29.627Z</time>
      </trkpt>
      <trkpt lat="43.63781" lon="2.28092">
        <ele>152.2</ele>
        <time>2025-09-30T11:14:30.389Z</time>
      </trkpt>
      <trkpt lat="43.63784" lon="2.28093">
        <ele>152.4</ele>
        <time>2025-09-30T11:14:31.135Z</time>
      </trkpt>
      <trkpt lat="43.63786" lon="2.28094">
        <ele>152.6</ele>
        <time>2025-09-30T11:14:31.897Z</time>
      </trkpt>
      <trkpt lat="43.63788" lon="2.28094">
        <ele>152.8</ele>
        <time>2025-09-30T11:14:32.668Z</time>
      </trkpt>
      <trkpt lat="43.63789" lon="2.28095">
        <ele>153.2</ele>
        <time>2025-09-30T11:14:33.272Z</time>
      </trkpt>
      <trkpt lat="43.63791" lon="2.28095">
        <ele>153.4</ele>
        <time>2025-09-30T11:14:34.044Z</time>
      </trkpt>
      <trkpt lat="43.63793" lon="2.28096">
        <ele>153.6</ele>
        <time>2025-09-30T11:14:34.805Z</time>
      </trkpt>
      <trkpt lat="43.63795" lon="2.28097">
        <ele>153.8</ele>
        <time>2025-09-30T11:14:35.567Z</time>
      </trkpt>
      <trkpt lat="43.63797" lon="2.28097">
        <ele>154</ele>
        <time>2025-09-30T11:14:36.339Z</time>
      </trkpt>
      <trkpt lat="43.638" lon="2.28097">
        <ele>154.2</ele>
        <time>2025-09-30T11:14:37.083Z</time>
      </trkpt>
      <trkpt lat="43.63802" lon="2.28097">
        <ele>154.4</ele>
        <time>2025-09-30T11:14:37.854Z</time>
      </trkpt>
      <trkpt lat="43.63812" lon="2.281">
        <ele>155.6</ele>
        <time>2025-09-30T11:14:42.537Z</time>
      </trkpt>
      <trkpt lat="43.63814" lon="2.281">
        <ele>155.8</ele>
        <time>2025-09-30T11:14:43.308Z</time>
      </trkpt>
      <trkpt lat="43.63815" lon="2.28101">
        <ele>155.8</ele>
        <time>2025-09-30T11:14:43.449Z</time>
      </trkpt>
      <trkpt lat="43.63818" lon="2.28102">
        <ele>156</ele>
        <time>2025-09-30T11:14:44.196Z</time>
      </trkpt>
      <trkpt lat="43.63819" lon="2.28103">
        <ele>156.2</ele>
        <time>2025-09-30T11:14:44.800Z</time>
      </trkpt>
      <trkpt lat="43.63821" lon="2.28103">
        <ele>156.4</ele>
        <time>2025-09-30T11:14:45.571Z</time>
      </trkpt>
      <trkpt lat="43.63822" lon="2.28103">
        <ele>156.6</ele>
        <time>2025-09-30T11:14:46.061Z</time>
      </trkpt>
      <trkpt lat="43.63823" lon="2.28103">
        <ele>156.8</ele>
        <time>2025-09-30T11:14:46.550Z</time>
      </trkpt>
      <trkpt lat="43.63824" lon="2.28103">
        <ele>156.8</ele>
        <time>2025-09-30T11:14:46.664Z</time>
      </trkpt>
      <trkpt lat="43.63825" lon="2.28102">
        <ele>157</ele>
        <time>2025-09-30T11:14:47.268Z</time>
      </trkpt>
      <trkpt lat="43.63827" lon="2.28103">
        <ele>157.2</ele>
        <time>2025-09-30T11:14:48.030Z</time>
      </trkpt>
      <trkpt lat="43.63829" lon="2.28104">
        <ele>157.2</ele>
        <time>2025-09-30T11:14:48.273Z</time>
      </trkpt>
      <trkpt lat="43.63831" lon="2.28104">
        <ele>157.4</ele>
        <time>2025-09-30T11:14:49.044Z</time>
      </trkpt>
      <trkpt lat="43.63833" lon="2.28104">
        <ele>157.4</ele>
        <time>2025-09-30T11:14:49.273Z</time>
      </trkpt>
      <trkpt lat="43.63835" lon="2.28105">
        <ele>157.6</ele>
        <time>2025-09-30T11:14:50.035Z</time>
      </trkpt>
      <trkpt lat="43.63837" lon="2.28105">
        <ele>157.8</ele>
        <time>2025-09-30T11:14:50.806Z</time>
      </trkpt>
      <trkpt lat="43.63839" lon="2.28106">
        <ele>157.8</ele>
        <time>2025-09-30T11:14:51.049Z</time>
      </trkpt>
      <trkpt lat="43.63841" lon="2.28107">
        <ele>158</ele>
        <time>2025-09-30T11:14:51.810Z</time>
      </trkpt>
      <trkpt lat="43.63842" lon="2.28107">
        <ele>158.2</ele>
        <time>2025-09-30T11:14:52.300Z</time>
      </trkpt>
      <trkpt lat="43.63844" lon="2.28107">
        <ele>158.4</ele>
        <time>2025-09-30T11:14:53.071Z</time>
      </trkpt>
      <trkpt lat="43.63846" lon="2.28108">
        <ele>158.6</ele>
        <time>2025-09-30T11:14:53.833Z</time>
      </trkpt>
      <trkpt lat="43.63848" lon="2.28109">
        <ele>158.8</ele>
        <time>2025-09-30T11:14:54.595Z</time>
      </trkpt>
      <trkpt lat="43.63849" lon="2.28109">
        <ele>159</ele>
        <time>2025-09-30T11:14:55.084Z</time>
      </trkpt>
      <trkpt lat="43.63851" lon="2.28109">
        <ele>159.2</ele>
        <time>2025-09-30T11:14:55.855Z</time>
      </trkpt>
      <trkpt lat="43.63853" lon="2.2811">
        <ele>159.4</ele>
        <time>2025-09-30T11:14:56.617Z</time>
      </trkpt>
      <trkpt lat="43.63855" lon="2.2811">
        <ele>159.6</ele>
        <time>2025-09-30T11:14:57.388Z</time>
      </trkpt>
      <trkpt lat="43.63857" lon="2.28111">
        <ele>159.8</ele>
        <time>2025-09-30T11:14:58.150Z</time>
      </trkpt>
      <trkpt lat="43.63859" lon="2.28111">
        <ele>160</ele>
        <time>2025-09-30T11:14:58.921Z</time>
      </trkpt>
      <trkpt lat="43.6386" lon="2.28112">
        <ele>160.2</ele>
        <time>2025-09-30T11:14:59.526Z</time>
      </trkpt>
      <trkpt lat="43.63862" lon="2.28113">
        <ele>160.4</ele>
        <time>2025-09-30T11:15:00.287Z</time>
      </trkpt>
      <trkpt lat="43.63865" lon="2.28113">
        <ele>160.6</ele>
        <time>2025-09-30T11:15:01.032Z</time>
      </trkpt>
      <trkpt lat="43.63867" lon="2.28113">
        <ele>160.8</ele>
        <time>2025-09-30T11:15:01.803Z</time>
      </trkpt>
      <trkpt lat="43.63869" lon="2.28114">
        <ele>161</ele>
        <time>2025-09-30T11:15:02.565Z</time>
      </trkpt>
      <trkpt lat="43.63871" lon="2.28114">
        <ele>161.2</ele>
        <time>2025-09-30T11:15:03.336Z</time>
      </trkpt>
      <trkpt lat="43.63872" lon="2.28113">
        <ele>161.4</ele>
        <time>2025-09-30T11:15:03.940Z</time>
      </trkpt>
      <trkpt lat="43.63874" lon="2.28114">
        <ele>161.4</ele>
        <time>2025-09-30T11:15:04.183Z</time>
      </trkpt>
      <trkpt lat="43.63876" lon="2.28116">
        <ele>161.6</ele>
        <time>2025-09-30T11:15:04.927Z</time>
      </trkpt>
      <trkpt lat="43.63878" lon="2.28117">
        <ele>161.8</ele>
        <time>2025-09-30T11:15:05.689Z</time>
      </trkpt>
      <trkpt lat="43.6388" lon="2.28118">
        <ele>162</ele>
        <time>2025-09-30T11:15:06.451Z</time>
      </trkpt>
      <trkpt lat="43.63882" lon="2.28118">
        <ele>162</ele>
        <time>2025-09-30T11:15:06.679Z</time>
      </trkpt>
      <trkpt lat="43.63884" lon="2.28118">
        <ele>162.2</ele>
        <time>2025-09-30T11:15:07.450Z</time>
      </trkpt>
      <trkpt lat="43.63886" lon="2.28119">
        <ele>162.2</ele>
        <time>2025-09-30T11:15:07.693Z</time>
      </trkpt>
      <trkpt lat="43.63889" lon="2.28119">
        <ele>162.4</ele>
        <time>2025-09-30T11:15:08.437Z</time>
      </trkpt>
      <trkpt lat="43.63892" lon="2.2812">
        <ele>162.4</ele>
        <time>2025-09-30T11:15:08.790Z</time>
      </trkpt>
      <trkpt lat="43.63895" lon="2.28121">
        <ele>162.6</ele>
        <time>2025-09-30T11:15:09.536Z</time>
      </trkpt>
      <trkpt lat="43.63897" lon="2.28123">
        <ele>162.6</ele>
        <time>2025-09-30T11:15:09.818Z</time>
      </trkpt>
      <trkpt lat="43.639" lon="2.28124">
        <ele>162.8</ele>
        <time>2025-09-30T11:15:10.565Z</time>
      </trkpt>
      <trkpt lat="43.63902" lon="2.28125">
        <ele>162.8</ele>
        <time>2025-09-30T11:15:10.808Z</time>
      </trkpt>
      <trkpt lat="43.63904" lon="2.28126">
        <ele>163</ele>
        <time>2025-09-30T11:15:11.570Z</time>
      </trkpt>
      <trkpt lat="43.63906" lon="2.28127">
        <ele>163</ele>
        <time>2025-09-30T11:15:11.812Z</time>
      </trkpt>
      <trkpt lat="43.63909" lon="2.28128">
        <ele>163.2</ele>
        <time>2025-09-30T11:15:12.559Z</time>
      </trkpt>
      <trkpt lat="43.63912" lon="2.2813">
        <ele>163.2</ele>
        <time>2025-09-30T11:15:12.939Z</time>
      </trkpt>
      <trkpt lat="43.63915" lon="2.28131">
        <ele>163.4</ele>
        <time>2025-09-30T11:15:13.686Z</time>
      </trkpt>
      <trkpt lat="43.63918" lon="2.28131">
        <ele>163.6</ele>
        <time>2025-09-30T11:15:14.430Z</time>
      </trkpt>
      <trkpt lat="43.6392" lon="2.28132">
        <ele>163.6</ele>
        <time>2025-09-30T11:15:14.673Z</time>
      </trkpt>
      <trkpt lat="43.63922" lon="2.28134">
        <ele>163.8</ele>
        <time>2025-09-30T11:15:15.417Z</time>
      </trkpt>
      <trkpt lat="43.63925" lon="2.28136">
        <ele>164</ele>
        <time>2025-09-30T11:15:16.173Z</time>
      </trkpt>
      <trkpt lat="43.63928" lon="2.28137">
        <ele>164.2</ele>
        <time>2025-09-30T11:15:16.920Z</time>
      </trkpt>
      <trkpt lat="43.63931" lon="2.28138">
        <ele>164.2</ele>
        <time>2025-09-30T11:15:17.272Z</time>
      </trkpt>
      <trkpt lat="43.63934" lon="2.28139">
        <ele>164.4</ele>
        <time>2025-09-30T11:15:18.019Z</time>
      </trkpt>
      <trkpt lat="43.63936" lon="2.28139">
        <ele>164.6</ele>
        <time>2025-09-30T11:15:18.790Z</time>
      </trkpt>
      <trkpt lat="43.63938" lon="2.2814">
        <ele>164.8</ele>
        <time>2025-09-30T11:15:19.552Z</time>
      </trkpt>
      <trkpt lat="43.6394" lon="2.2814">
        <ele>164.8</ele>
        <time>2025-09-30T11:15:19.780Z</time>
      </trkpt>
      <trkpt lat="43.63943" lon="2.2814">
        <ele>165</ele>
        <time>2025-09-30T11:15:20.524Z</time>
      </trkpt>
      <trkpt lat="43.63946" lon="2.2814">
        <ele>165</ele>
        <time>2025-09-30T11:15:20.867Z</time>
      </trkpt>
      <trkpt lat="43.63949" lon="2.28141">
        <ele>165</ele>
        <time>2025-09-30T11:15:21.219Z</time>
      </trkpt>
      <trkpt lat="43.63952" lon="2.28142">
        <ele>165.2</ele>
        <time>2025-09-30T11:15:21.966Z</time>
      </trkpt>
      <trkpt lat="43.63956" lon="2.28144">
        <ele>165.2</ele>
        <time>2025-09-30T11:15:22.452Z</time>
      </trkpt>
      <trkpt lat="43.63959" lon="2.28144">
        <ele>165.2</ele>
        <time>2025-09-30T11:15:22.794Z</time>
      </trkpt>
      <trkpt lat="43.63962" lon="2.28145">
        <ele>165.2</ele>
        <time>2025-09-30T11:15:23.147Z</time>
      </trkpt>
      <trkpt lat="43.63965" lon="2.28146">
        <ele>165.4</ele>
        <time>2025-09-30T11:15:23.893Z</time>
      </trkpt>
      <trkpt lat="43.63968" lon="2.28147">
        <ele>165.4</ele>
        <time>2025-09-30T11:15:24.246Z</time>
      </trkpt>
      <trkpt lat="43.63971" lon="2.28149">
        <ele>165.4</ele>
        <time>2025-09-30T11:15:24.626Z</time>
      </trkpt>
      <trkpt lat="43.63974" lon="2.2815">
        <ele>165.6</ele>
        <time>2025-09-30T11:15:25.372Z</time>
      </trkpt>
      <trkpt lat="43.63977" lon="2.2815">
        <ele>165.6</ele>
        <time>2025-09-30T11:15:25.715Z</time>
      </trkpt>
      <trkpt lat="43.63979" lon="2.28151">
        <ele>165.8</ele>
        <time>2025-09-30T11:15:26.477Z</time>
      </trkpt>
      <trkpt lat="43.63982" lon="2.28152">
        <ele>166</ele>
        <time>2025-09-30T11:15:27.223Z</time>
      </trkpt>
      <trkpt lat="43.63985" lon="2.28153">
        <ele>166.2</ele>
        <time>2025-09-30T11:15:27.970Z</time>
      </trkpt>
      <trkpt lat="43.63988" lon="2.28153">
        <ele>166.4</ele>
        <time>2025-09-30T11:15:28.714Z</time>
      </trkpt>
      <trkpt lat="43.63991" lon="2.28153">
        <ele>166.4</ele>
        <time>2025-09-30T11:15:29.057Z</time>
      </trkpt>
      <trkpt lat="43.63993" lon="2.28154">
        <ele>166.6</ele>
        <time>2025-09-30T11:15:29.819Z</time>
      </trkpt>
      <trkpt lat="43.63996" lon="2.28155">
        <ele>166.8</ele>
        <time>2025-09-30T11:15:30.565Z</time>
      </trkpt>
      <trkpt lat="43.63998" lon="2.28157">
        <ele>167</ele>
        <time>2025-09-30T11:15:31.309Z</time>
      </trkpt>
      <trkpt lat="43.64" lon="2.28157">
        <ele>167.4</ele>
        <time>2025-09-30T11:15:32.288Z</time>
      </trkpt>
      <trkpt lat="43.64002" lon="2.28158">
        <ele>167.6</ele>
        <time>2025-09-30T11:15:33.050Z</time>
      </trkpt>
      <trkpt lat="43.64004" lon="2.28159">
        <ele>167.8</ele>
        <time>2025-09-30T11:15:33.812Z</time>
      </trkpt>
      <trkpt lat="43.64006" lon="2.2816">
        <ele>168</ele>
        <time>2025-09-30T11:15:34.574Z</time>
      </trkpt>
      <trkpt lat="43.64009" lon="2.2816">
        <ele>168.2</ele>
        <time>2025-09-30T11:15:35.318Z</time>
      </trkpt>
      <trkpt lat="43.64011" lon="2.28161">
        <ele>168.2</ele>
        <time>2025-09-30T11:15:35.561Z</time>
      </trkpt>
      <trkpt lat="43.64013" lon="2.28161">
        <ele>168.4</ele>
        <time>2025-09-30T11:15:36.332Z</time>
      </trkpt>
      <trkpt lat="43.64015" lon="2.28162">
        <ele>168.4</ele>
        <time>2025-09-30T11:15:36.575Z</time>
      </trkpt>
      <trkpt lat="43.64017" lon="2.28163">
        <ele>168.4</ele>
        <time>2025-09-30T11:15:36.818Z</time>
      </trkpt>
      <trkpt lat="43.64019" lon="2.28164">
        <ele>168.6</ele>
        <time>2025-09-30T11:15:37.580Z</time>
      </trkpt>
      <trkpt lat="43.64022" lon="2.28164">
        <ele>168.6</ele>
        <time>2025-09-30T11:15:37.922Z</time>
      </trkpt>
      <trkpt lat="43.64024" lon="2.28165">
        <ele>168.6</ele>
        <time>2025-09-30T11:15:38.165Z</time>
      </trkpt>
      <trkpt lat="43.64027" lon="2.28166">
        <ele>168.6</ele>
        <time>2025-09-30T11:15:38.518Z</time>
      </trkpt>
      <trkpt lat="43.6403" lon="2.28166">
        <ele>168.8</ele>
        <time>2025-09-30T11:15:39.262Z</time>
      </trkpt>
      <trkpt lat="43.64032" lon="2.28167">
        <ele>168.8</ele>
        <time>2025-09-30T11:15:39.505Z</time>
      </trkpt>
      <trkpt lat="43.64035" lon="2.28168">
        <ele>168.8</ele>
        <time>2025-09-30T11:15:39.857Z</time>
      </trkpt>
      <trkpt lat="43.64038" lon="2.28168">
        <ele>169</ele>
        <time>2025-09-30T11:15:40.601Z</time>
      </trkpt>
      <trkpt lat="43.64041" lon="2.28168">
        <ele>169</ele>
        <time>2025-09-30T11:15:40.944Z</time>
      </trkpt>
      <trkpt lat="43.64044" lon="2.28169">
        <ele>169.2</ele>
        <time>2025-09-30T11:15:41.690Z</time>
      </trkpt>
      <trkpt lat="43.64046" lon="2.28169">
        <ele>169.2</ele>
        <time>2025-09-30T11:15:41.919Z</time>
      </trkpt>
      <trkpt lat="43.64049" lon="2.2817">
        <ele>169.2</ele>
        <time>2025-09-30T11:15:42.271Z</time>
      </trkpt>
      <trkpt lat="43.64052" lon="2.28171">
        <ele>169.4</ele>
        <time>2025-09-30T11:15:43.018Z</time>
      </trkpt>
      <trkpt lat="43.64055" lon="2.28172">
        <ele>169.4</ele>
        <time>2025-09-30T11:15:43.370Z</time>
      </trkpt>
      <trkpt lat="43.64058" lon="2.28173">
        <ele>169.6</ele>
        <time>2025-09-30T11:15:44.117Z</time>
      </trkpt>
      <trkpt lat="43.64061" lon="2.28174">
        <ele>169.8</ele>
        <time>2025-09-30T11:15:44.863Z</time>
      </trkpt>
      <trkpt lat="43.64064" lon="2.28176">
        <ele>169.8</ele>
        <time>2025-09-30T11:15:45.243Z</time>
      </trkpt>
      <trkpt lat="43.64067" lon="2.28178">
        <ele>170</ele>
        <time>2025-09-30T11:15:46.000Z</time>
      </trkpt>
      <trkpt lat="43.64068" lon="2.28181">
        <ele>170.2</ele>
        <time>2025-09-30T11:15:46.747Z</time>
      </trkpt>
      <trkpt lat="43.6407" lon="2.28184">
        <ele>170.4</ele>
        <time>2025-09-30T11:15:47.490Z</time>
      </trkpt>
      <trkpt lat="43.64071" lon="2.28187">
        <ele>170.6</ele>
        <time>2025-09-30T11:15:48.237Z</time>
      </trkpt>
      <trkpt lat="43.64072" lon="2.28189">
        <ele>171</ele>
        <time>2025-09-30T11:15:49.098Z</time>
      </trkpt>
      <trkpt lat="43.64073" lon="2.28191">
        <ele>171.2</ele>
        <time>2025-09-30T11:15:49.880Z</time>
      </trkpt>
      <trkpt lat="43.64075" lon="2.28192">
        <ele>171.6</ele>
        <time>2025-09-30T11:15:50.921Z</time>
      </trkpt>
      <trkpt lat="43.64076" lon="2.28194">
        <ele>172</ele>
        <time>2025-09-30T11:15:51.782Z</time>
      </trkpt>
      <trkpt lat="43.64078" lon="2.28195">
        <ele>172.2</ele>
        <time>2025-09-30T11:15:52.544Z</time>
      </trkpt>
      <trkpt lat="43.64079" lon="2.28197">
        <ele>172.6</ele>
        <time>2025-09-30T11:15:53.405Z</time>
      </trkpt>
      <trkpt lat="43.64081" lon="2.28198">
        <ele>173</ele>
        <time>2025-09-30T11:15:54.446Z</time>
      </trkpt>
      <trkpt lat="43.64083" lon="2.28199">
        <ele>173.2</ele>
        <time>2025-09-30T11:15:55.208Z</time>
      </trkpt>
      <trkpt lat="43.64084" lon="2.282">
        <ele>173.6</ele>
        <time>2025-09-30T11:15:55.812Z</time>
      </trkpt>
      <trkpt lat="43.64086" lon="2.28201">
        <ele>173.8</ele>
        <time>2025-09-30T11:15:56.574Z</time>
      </trkpt>
      <trkpt lat="43.64087" lon="2.28203">
        <ele>174.2</ele>
        <time>2025-09-30T11:15:57.434Z</time>
      </trkpt>
      <trkpt lat="43.64088" lon="2.28204">
        <ele>174.4</ele>
        <time>2025-09-30T11:15:58.039Z</time>
      </trkpt>
      <trkpt lat="43.64089" lon="2.28205">
        <ele>174.8</ele>
        <time>2025-09-30T11:15:58.643Z</time>
      </trkpt>
      <trkpt lat="43.64091" lon="2.28206">
        <ele>175</ele>
        <time>2025-09-30T11:15:59.405Z</time>
      </trkpt>
      <trkpt lat="43.64092" lon="2.28207">
        <ele>175.4</ele>
        <time>2025-09-30T11:16:00.009Z</time>
      </trkpt>
      <trkpt lat="43.64093" lon="2.28208">
        <ele>175.6</ele>
        <time>2025-09-30T11:16:00.613Z</time>
      </trkpt>
      <trkpt lat="43.64095" lon="2.28209">
        <ele>175.8</ele>
        <time>2025-09-30T11:16:01.375Z</time>
      </trkpt>
      <trkpt lat="43.64097" lon="2.2821">
        <ele>176.2</ele>
        <time>2025-09-30T11:16:02.416Z</time>
      </trkpt>
      <trkpt lat="43.64098" lon="2.28211">
        <ele>176.4</ele>
        <time>2025-09-30T11:16:03.020Z</time>
      </trkpt>
      <trkpt lat="43.64099" lon="2.28213">
        <ele>176.6</ele>
        <time>2025-09-30T11:16:03.802Z</time>
      </trkpt>
      <trkpt lat="43.641" lon="2.28215">
        <ele>177</ele>
        <time>2025-09-30T11:16:04.663Z</time>
      </trkpt>
      <trkpt lat="43.64102" lon="2.28216">
        <ele>177.2</ele>
        <time>2025-09-30T11:16:05.425Z</time>
      </trkpt>
      <trkpt lat="43.64103" lon="2.28218">
        <ele>177.6</ele>
        <time>2025-09-30T11:16:06.286Z</time>
      </trkpt>
      <trkpt lat="43.64105" lon="2.28219">
        <ele>177.8</ele>
        <time>2025-09-30T11:16:07.048Z</time>
      </trkpt>
      <trkpt lat="43.64107" lon="2.28219">
        <ele>178.2</ele>
        <time>2025-09-30T11:16:08.027Z</time>
      </trkpt>
      <trkpt lat="43.64108" lon="2.28221">
        <ele>178.4</ele>
        <time>2025-09-30T11:16:08.809Z</time>
      </trkpt>
      <trkpt lat="43.6411" lon="2.28222">
        <ele>178.6</ele>
        <time>2025-09-30T11:16:09.571Z</time>
      </trkpt>
      <trkpt lat="43.64112" lon="2.28223">
        <ele>179</ele>
        <time>2025-09-30T11:16:10.612Z</time>
      </trkpt>
      <trkpt lat="43.64113" lon="2.28225">
        <ele>179.2</ele>
        <time>2025-09-30T11:16:11.394Z</time>
      </trkpt>
      <trkpt lat="43.64114" lon="2.28227">
        <ele>179.6</ele>
        <time>2025-09-30T11:16:12.255Z</time>
      </trkpt>
      <trkpt lat="43.64115" lon="2.28229">
        <ele>179.8</ele>
        <time>2025-09-30T11:16:13.037Z</time>
      </trkpt>
      <trkpt lat="43.64116" lon="2.28231">
        <ele>180.2</ele>
        <time>2025-09-30T11:16:13.898Z</time>
      </trkpt>
      <trkpt lat="43.64118" lon="2.28234">
        <ele>180.4</ele>
        <time>2025-09-30T11:16:14.641Z</time>
      </trkpt>
      <trkpt lat="43.64119" lon="2.28236">
        <ele>180.8</ele>
        <time>2025-09-30T11:16:15.502Z</time>
      </trkpt>
      <trkpt lat="43.6412" lon="2.28238">
        <ele>181</ele>
        <time>2025-09-30T11:16:16.285Z</time>
      </trkpt>
      <trkpt lat="43.64121" lon="2.28239">
        <ele>181.4</ele>
        <time>2025-09-30T11:16:16.889Z</time>
      </trkpt>
      <trkpt lat="43.64122" lon="2.28241">
        <ele>181.6</ele>
        <time>2025-09-30T11:16:17.671Z</time>
      </trkpt>
      <trkpt lat="43.64122" lon="2.28243">
        <ele>181.8</ele>
        <time>2025-09-30T11:16:18.379Z</time>
      </trkpt>
      <trkpt lat="43.64123" lon="2.28245">
        <ele>182</ele>
        <time>2025-09-30T11:16:19.162Z</time>
      </trkpt>
      <trkpt lat="43.64124" lon="2.28247">
        <ele>182.2</ele>
        <time>2025-09-30T11:16:19.944Z</time>
      </trkpt>
      <trkpt lat="43.64126" lon="2.28249">
        <ele>182.4</ele>
        <time>2025-09-30T11:16:20.688Z</time>
      </trkpt>
      <trkpt lat="43.64127" lon="2.28252">
        <ele>182.6</ele>
        <time>2025-09-30T11:16:21.435Z</time>
      </trkpt>
      <trkpt lat="43.64128" lon="2.28254">
        <ele>182.8</ele>
        <time>2025-09-30T11:16:22.218Z</time>
      </trkpt>
      <trkpt lat="43.64129" lon="2.28256">
        <ele>183</ele>
        <time>2025-09-30T11:16:23.000Z</time>
      </trkpt>
      <trkpt lat="43.64131" lon="2.28259">
        <ele>183</ele>
        <time>2025-09-30T11:16:23.337Z</time>
      </trkpt>
      <trkpt lat="43.64132" lon="2.28261">
        <ele>183.2</ele>
        <time>2025-09-30T11:16:24.119Z</time>
      </trkpt>
      <trkpt lat="43.64133" lon="2.28263">
        <ele>183.4</ele>
        <time>2025-09-30T11:16:24.902Z</time>
      </trkpt>
      <trkpt lat="43.64134" lon="2.28265">
        <ele>183.6</ele>
        <time>2025-09-30T11:16:25.684Z</time>
      </trkpt>
      <trkpt lat="43.64136" lon="2.28268">
        <ele>183.6</ele>
        <time>2025-09-30T11:16:26.021Z</time>
      </trkpt>
      <trkpt lat="43.64136" lon="2.2827">
        <ele>183.8</ele>
        <time>2025-09-30T11:16:26.730Z</time>
      </trkpt>
      <trkpt lat="43.64137" lon="2.28272">
        <ele>184</ele>
        <time>2025-09-30T11:16:27.512Z</time>
      </trkpt>
      <trkpt lat="43.64138" lon="2.28274">
        <ele>184.2</ele>
        <time>2025-09-30T11:16:28.294Z</time>
      </trkpt>
      <trkpt lat="43.64139" lon="2.28276">
        <ele>184.4</ele>
        <time>2025-09-30T11:16:29.077Z</time>
      </trkpt>
      <trkpt lat="43.6414" lon="2.28279">
        <ele>184.6</ele>
        <time>2025-09-30T11:16:29.824Z</time>
      </trkpt>
      <trkpt lat="43.64142" lon="2.2828">
        <ele>184.8</ele>
        <time>2025-09-30T11:16:30.586Z</time>
      </trkpt>
      <trkpt lat="43.64143" lon="2.28282">
        <ele>184.8</ele>
        <time>2025-09-30T11:16:30.786Z</time>
      </trkpt>
      <trkpt lat="43.64144" lon="2.28284">
        <ele>185</ele>
        <time>2025-09-30T11:16:31.569Z</time>
      </trkpt>
      <trkpt lat="43.64144" lon="2.28286">
        <ele>185.2</ele>
        <time>2025-09-30T11:16:32.277Z</time>
      </trkpt>
      <trkpt lat="43.64146" lon="2.28288">
        <ele>185.4</ele>
        <time>2025-09-30T11:16:33.021Z</time>
      </trkpt>
      <trkpt lat="43.64146" lon="2.2829">
        <ele>185.4</ele>
        <time>2025-09-30T11:16:33.187Z</time>
      </trkpt>
      <trkpt lat="43.64147" lon="2.28291">
        <ele>185.6</ele>
        <time>2025-09-30T11:16:33.791Z</time>
      </trkpt>
      <trkpt lat="43.64149" lon="2.28293">
        <ele>185.8</ele>
        <time>2025-09-30T11:16:34.535Z</time>
      </trkpt>
      <trkpt lat="43.6415" lon="2.28294">
        <ele>185.8</ele>
        <time>2025-09-30T11:16:34.676Z</time>
      </trkpt>
      <trkpt lat="43.64151" lon="2.28296">
        <ele>186</ele>
        <time>2025-09-30T11:16:35.458Z</time>
      </trkpt>
      <trkpt lat="43.64152" lon="2.28298">
        <ele>186</ele>
        <time>2025-09-30T11:16:35.659Z</time>
      </trkpt>
      <trkpt lat="43.64153" lon="2.283">
        <ele>186.2</ele>
        <time>2025-09-30T11:16:36.442Z</time>
      </trkpt>
      <trkpt lat="43.64155" lon="2.28302">
        <ele>186.4</ele>
        <time>2025-09-30T11:16:37.186Z</time>
      </trkpt>
      <trkpt lat="43.64156" lon="2.28304">
        <ele>186.4</ele>
        <time>2025-09-30T11:16:37.387Z</time>
      </trkpt>
      <trkpt lat="43.64157" lon="2.28307">
        <ele>186.6</ele>
        <time>2025-09-30T11:16:38.134Z</time>
      </trkpt>
      <trkpt lat="43.64158" lon="2.2831">
        <ele>186.8</ele>
        <time>2025-09-30T11:16:38.881Z</time>
      </trkpt>
      <trkpt lat="43.6416" lon="2.28312">
        <ele>187</ele>
        <time>2025-09-30T11:16:39.625Z</time>
      </trkpt>
      <trkpt lat="43.64161" lon="2.28314">
        <ele>187.2</ele>
        <time>2025-09-30T11:16:40.407Z</time>
      </trkpt>
      <trkpt lat="43.64162" lon="2.28317">
        <ele>187.2</ele>
        <time>2025-09-30T11:16:40.680Z</time>
      </trkpt>
      <trkpt lat="43.64164" lon="2.28319">
        <ele>187.4</ele>
        <time>2025-09-30T11:16:41.425Z</time>
      </trkpt>
      <trkpt lat="43.64165" lon="2.28322">
        <ele>187.6</ele>
        <time>2025-09-30T11:16:42.172Z</time>
      </trkpt>
      <trkpt lat="43.64166" lon="2.28324">
        <ele>187.8</ele>
        <time>2025-09-30T11:16:42.954Z</time>
      </trkpt>
      <trkpt lat="43.64168" lon="2.28326">
        <ele>188</ele>
        <time>2025-09-30T11:16:43.698Z</time>
      </trkpt>
      <trkpt lat="43.64169" lon="2.28328">
        <ele>188.2</ele>
        <time>2025-09-30T11:16:44.481Z</time>
      </trkpt>
      <trkpt lat="43.64171" lon="2.28331">
        <ele>188.2</ele>
        <time>2025-09-30T11:16:44.818Z</time>
      </trkpt>
      <trkpt lat="43.64172" lon="2.28333">
        <ele>188.4</ele>
        <time>2025-09-30T11:16:45.600Z</time>
      </trkpt>
      <trkpt lat="43.64172" lon="2.28336">
        <ele>188.6</ele>
        <time>2025-09-30T11:16:46.359Z</time>
      </trkpt>
      <trkpt lat="43.64173" lon="2.28338">
        <ele>188.8</ele>
        <time>2025-09-30T11:16:47.141Z</time>
      </trkpt>
      <trkpt lat="43.64174" lon="2.28341">
        <ele>189</ele>
        <time>2025-09-30T11:16:47.888Z</time>
      </trkpt>
      <trkpt lat="43.64176" lon="2.28343">
        <ele>189.2</ele>
        <time>2025-09-30T11:16:48.633Z</time>
      </trkpt>
      <trkpt lat="43.64176" lon="2.28346">
        <ele>189.4</ele>
        <time>2025-09-30T11:16:49.392Z</time>
      </trkpt>
      <trkpt lat="43.64177" lon="2.28348">
        <ele>189.6</ele>
        <time>2025-09-30T11:16:50.174Z</time>
      </trkpt>
      <trkpt lat="43.64179" lon="2.28351">
        <ele>189.8</ele>
        <time>2025-09-30T11:16:50.917Z</time>
      </trkpt>
      <trkpt lat="43.6418" lon="2.28353">
        <ele>190</ele>
        <time>2025-09-30T11:16:51.699Z</time>
      </trkpt>
      <trkpt lat="43.64182" lon="2.28356">
        <ele>190.2</ele>
        <time>2025-09-30T11:16:52.442Z</time>
      </trkpt>
      <trkpt lat="43.64183" lon="2.28358">
        <ele>190.4</ele>
        <time>2025-09-30T11:16:53.225Z</time>
      </trkpt>
      <trkpt lat="43.64185" lon="2.28361">
        <ele>190.6</ele>
        <time>2025-09-30T11:16:53.968Z</time>
      </trkpt>
      <trkpt lat="43.64186" lon="2.28363">
        <ele>190.8</ele>
        <time>2025-09-30T11:16:54.750Z</time>
      </trkpt>
      <trkpt lat="43.64187" lon="2.28365">
        <ele>191</ele>
        <time>2025-09-30T11:16:55.532Z</time>
      </trkpt>
      <trkpt lat="43.64189" lon="2.28367">
        <ele>191.2</ele>
        <time>2025-09-30T11:16:56.277Z</time>
      </trkpt>
      <trkpt lat="43.6419" lon="2.2837">
        <ele>191.4</ele>
        <time>2025-09-30T11:16:57.024Z</time>
      </trkpt>
      <trkpt lat="43.64191" lon="2.28372">
        <ele>191.6</ele>
        <time>2025-09-30T11:16:57.806Z</time>
      </trkpt>
      <trkpt lat="43.64192" lon="2.28374">
        <ele>191.8</ele>
        <time>2025-09-30T11:16:58.588Z</time>
      </trkpt>
      <trkpt lat="43.64192" lon="2.28377">
        <ele>191.8</ele>
        <time>2025-09-30T11:16:58.836Z</time>
      </trkpt>
      <trkpt lat="43.64193" lon="2.28381">
        <ele>192</ele>
        <time>2025-09-30T11:16:59.582Z</time>
      </trkpt>
      <trkpt lat="43.64194" lon="2.28384">
        <ele>192.2</ele>
        <time>2025-09-30T11:17:00.329Z</time>
      </trkpt>
      <trkpt lat="43.64194" lon="2.28387">
        <ele>192.4</ele>
        <time>2025-09-30T11:17:01.088Z</time>
      </trkpt>
      <trkpt lat="43.64195" lon="2.2839">
        <ele>192.6</ele>
        <time>2025-09-30T11:17:01.835Z</time>
      </trkpt>
      <trkpt lat="43.64195" lon="2.28393">
        <ele>192.8</ele>
        <time>2025-09-30T11:17:02.594Z</time>
      </trkpt>
      <trkpt lat="43.64195" lon="2.28395">
        <ele>193</ele>
        <time>2025-09-30T11:17:03.302Z</time>
      </trkpt>
      <trkpt lat="43.64195" lon="2.28396">
        <ele>193.2</ele>
        <time>2025-09-30T11:17:03.656Z</time>
      </trkpt>
      <trkpt lat="43.64195" lon="2.28398">
        <ele>193.4</ele>
        <time>2025-09-30T11:17:04.365Z</time>
      </trkpt>
      <trkpt lat="43.64196" lon="2.28402">
        <ele>193.8</ele>
        <time>2025-09-30T11:17:05.858Z</time>
      </trkpt>
      <trkpt lat="43.64196" lon="2.28404">
        <ele>194</ele>
        <time>2025-09-30T11:17:06.567Z</time>
      </trkpt>
      <trkpt lat="43.64196" lon="2.28407">
        <ele>194.2</ele>
        <time>2025-09-30T11:17:07.326Z</time>
      </trkpt>
      <trkpt lat="43.64196" lon="2.28409">
        <ele>194.4</ele>
        <time>2025-09-30T11:17:08.034Z</time>
      </trkpt>
      <trkpt lat="43.64195" lon="2.28415">
        <ele>194.6</ele>
        <time>2025-09-30T11:17:08.866Z</time>
      </trkpt>
      <trkpt lat="43.64195" lon="2.28418">
        <ele>194.8</ele>
        <time>2025-09-30T11:17:09.625Z</time>
      </trkpt>
      <trkpt lat="43.64194" lon="2.28422">
        <ele>195</ele>
        <time>2025-09-30T11:17:10.371Z</time>
      </trkpt>
      <trkpt lat="43.64194" lon="2.28426">
        <ele>195.4</ele>
        <time>2025-09-30T11:17:11.788Z</time>
      </trkpt>
      <trkpt lat="43.64194" lon="2.28429">
        <ele>195.6</ele>
        <time>2025-09-30T11:17:12.547Z</time>
      </trkpt>
      <trkpt lat="43.64193" lon="2.28433">
        <ele>195.8</ele>
        <time>2025-09-30T11:17:13.292Z</time>
      </trkpt>
      <trkpt lat="43.64193" lon="2.28437">
        <ele>197</ele>
        <time>2025-09-30T11:17:14.709Z</time>
      </trkpt>
      <trkpt lat="43.64193" lon="2.2844">
        <ele>197</ele>
        <time>2025-09-30T11:17:14.957Z</time>
      </trkpt>
      <trkpt lat="43.64192" lon="2.28444">
        <ele>197.2</ele>
        <time>2025-09-30T11:17:15.703Z</time>
      </trkpt>
      <trkpt lat="43.64192" lon="2.28447">
        <ele>197.2</ele>
        <time>2025-09-30T11:17:15.951Z</time>
      </trkpt>
      <trkpt lat="43.64191" lon="2.28451">
        <ele>197.4</ele>
        <time>2025-09-30T11:17:16.696Z</time>
      </trkpt>
      <trkpt lat="43.64191" lon="2.28453">
        <ele>197.6</ele>
        <time>2025-09-30T11:17:17.405Z</time>
      </trkpt>
      <trkpt lat="43.64191" lon="2.28454">
        <ele>197.8</ele>
        <time>2025-09-30T11:17:17.759Z</time>
      </trkpt>
      <trkpt lat="43.64191" lon="2.28456">
        <ele>198</ele>
        <time>2025-09-30T11:17:18.467Z</time>
      </trkpt>
      <trkpt lat="43.6419" lon="2.28458">
        <ele>198.2</ele>
        <time>2025-09-30T11:17:19.250Z</time>
      </trkpt>
      <trkpt lat="43.6419" lon="2.28459">
        <ele>198.4</ele>
        <time>2025-09-30T11:17:19.604Z</time>
      </trkpt>
      <trkpt lat="43.64189" lon="2.28463">
        <ele>198.8</ele>
        <time>2025-09-30T11:17:21.097Z</time>
      </trkpt>
      <trkpt lat="43.64189" lon="2.28465">
        <ele>199</ele>
        <time>2025-09-30T11:17:21.806Z</time>
      </trkpt>
      <trkpt lat="43.64189" lon="2.28468">
        <ele>199.2</ele>
        <time>2025-09-30T11:17:22.565Z</time>
      </trkpt>
      <trkpt lat="43.64189" lon="2.28471">
        <ele>199.4</ele>
        <time>2025-09-30T11:17:23.324Z</time>
      </trkpt>
      <trkpt lat="43.64189" lon="2.28474">
        <ele>199.8</ele>
        <time>2025-09-30T11:17:24.386Z</time>
      </trkpt>
      <trkpt lat="43.64188" lon="2.28476">
        <ele>200</ele>
        <time>2025-09-30T11:17:25.168Z</time>
      </trkpt>
      <trkpt lat="43.64187" lon="2.28478">
        <ele>200.2</ele>
        <time>2025-09-30T11:17:25.951Z</time>
      </trkpt>
      <trkpt lat="43.64187" lon="2.2848">
        <ele>200.4</ele>
        <time>2025-09-30T11:17:26.659Z</time>
      </trkpt>
      <trkpt lat="43.64187" lon="2.28482">
        <ele>200.8</ele>
        <time>2025-09-30T11:17:27.367Z</time>
      </trkpt>
      <trkpt lat="43.64186" lon="2.28484">
        <ele>201</ele>
        <time>2025-09-30T11:17:28.150Z</time>
      </trkpt>
      <trkpt lat="43.64186" lon="2.28485">
        <ele>201.2</ele>
        <time>2025-09-30T11:17:28.504Z</time>
      </trkpt>
      <trkpt lat="43.64185" lon="2.28489">
        <ele>201.6</ele>
        <time>2025-09-30T11:17:29.998Z</time>
      </trkpt>
      <trkpt lat="43.64184" lon="2.28493">
        <ele>201.8</ele>
        <time>2025-09-30T11:17:30.743Z</time>
      </trkpt>
      <trkpt lat="43.64184" lon="2.28495">
        <ele>202.2</ele>
        <time>2025-09-30T11:17:31.452Z</time>
      </trkpt>
      <trkpt lat="43.64183" lon="2.28498">
        <ele>202.4</ele>
        <time>2025-09-30T11:17:32.199Z</time>
      </trkpt>
      <trkpt lat="43.64182" lon="2.285">
        <ele>202.8</ele>
        <time>2025-09-30T11:17:33.060Z</time>
      </trkpt>
      <trkpt lat="43.64182" lon="2.28502">
        <ele>203</ele>
        <time>2025-09-30T11:17:33.768Z</time>
      </trkpt>
      <trkpt lat="43.64181" lon="2.28505">
        <ele>203.4</ele>
        <time>2025-09-30T11:17:34.938Z</time>
      </trkpt>
      <trkpt lat="43.6418" lon="2.28508">
        <ele>203.6</ele>
        <time>2025-09-30T11:17:35.685Z</time>
      </trkpt>
      <trkpt lat="43.6418" lon="2.28511">
        <ele>204</ele>
        <time>2025-09-30T11:17:36.747Z</time>
      </trkpt>
      <trkpt lat="43.64179" lon="2.28513">
        <ele>204.4</ele>
        <time>2025-09-30T11:17:37.608Z</time>
      </trkpt>
      <trkpt lat="43.64179" lon="2.28516">
        <ele>204.6</ele>
        <time>2025-09-30T11:17:38.367Z</time>
      </trkpt>
      <trkpt lat="43.64179" lon="2.28519">
        <ele>205</ele>
        <time>2025-09-30T11:17:39.430Z</time>
      </trkpt>
      <trkpt lat="43.64178" lon="2.28521">
        <ele>205.4</ele>
        <time>2025-09-30T11:17:40.291Z</time>
      </trkpt>
      <trkpt lat="43.64177" lon="2.28524">
        <ele>205.6</ele>
        <time>2025-09-30T11:17:41.038Z</time>
      </trkpt>
      <trkpt lat="43.64176" lon="2.28528">
        <ele>206.2</ele>
        <time>2025-09-30T11:17:42.536Z</time>
      </trkpt>
      <trkpt lat="43.64176" lon="2.28531">
        <ele>206.4</ele>
        <time>2025-09-30T11:17:43.295Z</time>
      </trkpt>
      <trkpt lat="43.64175" lon="2.28534">
        <ele>206.6</ele>
        <time>2025-09-30T11:17:44.042Z</time>
      </trkpt>
      <trkpt lat="43.64175" lon="2.28536">
        <ele>206.8</ele>
        <time>2025-09-30T11:17:44.751Z</time>
      </trkpt>
      <trkpt lat="43.64174" lon="2.28539">
        <ele>207.2</ele>
        <time>2025-09-30T11:17:45.921Z</time>
      </trkpt>
      <trkpt lat="43.64174" lon="2.28543">
        <ele>207.4</ele>
        <time>2025-09-30T11:17:46.662Z</time>
      </trkpt>
      <trkpt lat="43.64174" lon="2.28545">
        <ele>207.6</ele>
        <time>2025-09-30T11:17:47.371Z</time>
      </trkpt>
      <trkpt lat="43.64173" lon="2.28547">
        <ele>207.8</ele>
        <time>2025-09-30T11:17:48.153Z</time>
      </trkpt>
      <trkpt lat="43.64173" lon="2.28548">
        <ele>208</ele>
        <time>2025-09-30T11:17:48.507Z</time>
      </trkpt>
      <trkpt lat="43.64173" lon="2.2855">
        <ele>208.2</ele>
        <time>2025-09-30T11:17:49.216Z</time>
      </trkpt>
      <trkpt lat="43.64173" lon="2.28552">
        <ele>208.4</ele>
        <time>2025-09-30T11:17:49.924Z</time>
      </trkpt>
      <trkpt lat="43.64172" lon="2.28554">
        <ele>208.6</ele>
        <time>2025-09-30T11:17:50.706Z</time>
      </trkpt>
      <trkpt lat="43.64172" lon="2.28556">
        <ele>208.8</ele>
        <time>2025-09-30T11:17:51.415Z</time>
      </trkpt>
      <trkpt lat="43.64172" lon="2.28557">
        <ele>209</ele>
        <time>2025-09-30T11:17:51.769Z</time>
      </trkpt>
      <trkpt lat="43.64172" lon="2.28559">
        <ele>209.2</ele>
        <time>2025-09-30T11:17:52.477Z</time>
      </trkpt>
      <trkpt lat="43.64171" lon="2.28561">
        <ele>209.4</ele>
        <time>2025-09-30T11:17:53.259Z</time>
      </trkpt>
      <trkpt lat="43.64171" lon="2.28563">
        <ele>209.6</ele>
        <time>2025-09-30T11:17:53.968Z</time>
      </trkpt>
      <trkpt lat="43.64171" lon="2.28564">
        <ele>209.8</ele>
        <time>2025-09-30T11:17:54.322Z</time>
      </trkpt>
      <trkpt lat="43.6417" lon="2.28569">
        <ele>210</ele>
        <time>2025-09-30T11:17:55.102Z</time>
      </trkpt>
      <trkpt lat="43.64169" lon="2.28571">
        <ele>210.2</ele>
        <time>2025-09-30T11:17:55.884Z</time>
      </trkpt>
      <trkpt lat="43.64169" lon="2.28574">
        <ele>210.6</ele>
        <time>2025-09-30T11:17:56.947Z</time>
      </trkpt>
      <trkpt lat="43.64168" lon="2.28575">
        <ele>210.8</ele>
        <time>2025-09-30T11:17:57.551Z</time>
      </trkpt>
      <trkpt lat="43.64168" lon="2.28577">
        <ele>211</ele>
        <time>2025-09-30T11:17:58.259Z</time>
      </trkpt>
      <trkpt lat="43.64167" lon="2.2858">
        <ele>211.2</ele>
        <time>2025-09-30T11:17:59.006Z</time>
      </trkpt>
      <trkpt lat="43.64167" lon="2.28583">
        <ele>211.4</ele>
        <time>2025-09-30T11:17:59.765Z</time>
      </trkpt>
      <trkpt lat="43.64166" lon="2.28587">
        <ele>211.6</ele>
        <time>2025-09-30T11:18:00.511Z</time>
      </trkpt>
      <trkpt lat="43.64166" lon="2.28588">
        <ele>211.8</ele>
        <time>2025-09-30T11:18:00.865Z</time>
      </trkpt>
      <trkpt lat="43.64165" lon="2.2859">
        <ele>212</ele>
        <time>2025-09-30T11:18:01.647Z</time>
      </trkpt>
      <trkpt lat="43.64165" lon="2.28591">
        <ele>212.2</ele>
        <time>2025-09-30T11:18:02.001Z</time>
      </trkpt>
      <trkpt lat="43.64165" lon="2.28593">
        <ele>212.4</ele>
        <time>2025-09-30T11:18:02.710Z</time>
      </trkpt>
      <trkpt lat="43.64164" lon="2.28595">
        <ele>212.6</ele>
        <time>2025-09-30T11:18:03.492Z</time>
      </trkpt>
      <trkpt lat="43.64164" lon="2.28596">
        <ele>212.8</ele>
        <time>2025-09-30T11:18:03.846Z</time>
      </trkpt>
      <trkpt lat="43.64164" lon="2.28598">
        <ele>213</ele>
        <time>2025-09-30T11:18:04.555Z</time>
      </trkpt>
      <trkpt lat="43.64164" lon="2.28599">
        <ele>213.2</ele>
        <time>2025-09-30T11:18:04.909Z</time>
      </trkpt>
      <trkpt lat="43.64163" lon="2.28601">
        <ele>213.4</ele>
        <time>2025-09-30T11:18:05.691Z</time>
      </trkpt>
      <trkpt lat="43.64163" lon="2.28603">
        <ele>213.6</ele>
        <time>2025-09-30T11:18:06.399Z</time>
      </trkpt>
      <trkpt lat="43.64163" lon="2.28604">
        <ele>213.8</ele>
        <time>2025-09-30T11:18:06.754Z</time>
      </trkpt>
      <trkpt lat="43.64162" lon="2.28606">
        <ele>214</ele>
        <time>2025-09-30T11:18:07.536Z</time>
      </trkpt>
      <trkpt lat="43.64161" lon="2.2861">
        <ele>214</ele>
        <time>2025-09-30T11:18:07.886Z</time>
      </trkpt>
      <trkpt lat="43.64161" lon="2.28614">
        <ele>214.2</ele>
        <time>2025-09-30T11:18:08.628Z</time>
      </trkpt>
      <trkpt lat="43.6416" lon="2.28616">
        <ele>214.4</ele>
        <time>2025-09-30T11:18:09.410Z</time>
      </trkpt>
      <trkpt lat="43.6416" lon="2.28617">
        <ele>214.6</ele>
        <time>2025-09-30T11:18:09.764Z</time>
      </trkpt>
      <trkpt lat="43.64159" lon="2.28619">
        <ele>214.8</ele>
        <time>2025-09-30T11:18:10.546Z</time>
      </trkpt>
      <trkpt lat="43.64159" lon="2.2862">
        <ele>215</ele>
        <time>2025-09-30T11:18:10.901Z</time>
      </trkpt>
      <trkpt lat="43.64158" lon="2.28622">
        <ele>215.4</ele>
        <time>2025-09-30T11:18:11.762Z</time>
      </trkpt>
      <trkpt lat="43.64158" lon="2.28623">
        <ele>215.6</ele>
        <time>2025-09-30T11:18:12.116Z</time>
      </trkpt>
      <trkpt lat="43.64157" lon="2.28627">
        <ele>215.8</ele>
        <time>2025-09-30T11:18:12.862Z</time>
      </trkpt>
      <trkpt lat="43.64157" lon="2.28629">
        <ele>216</ele>
        <time>2025-09-30T11:18:13.570Z</time>
      </trkpt>
      <trkpt lat="43.64157" lon="2.28631">
        <ele>216.2</ele>
        <time>2025-09-30T11:18:14.278Z</time>
      </trkpt>
      <trkpt lat="43.64157" lon="2.28634">
        <ele>216.4</ele>
        <time>2025-09-30T11:18:15.037Z</time>
      </trkpt>
      <trkpt lat="43.64157" lon="2.28636">
        <ele>216.8</ele>
        <time>2025-09-30T11:18:15.745Z</time>
      </trkpt>
      <trkpt lat="43.64156" lon="2.28638">
        <ele>217</ele>
        <time>2025-09-30T11:18:16.528Z</time>
      </trkpt>
      <trkpt lat="43.64155" lon="2.2864">
        <ele>217.2</ele>
        <time>2025-09-30T11:18:17.310Z</time>
      </trkpt>
      <trkpt lat="43.64155" lon="2.28642">
        <ele>217.4</ele>
        <time>2025-09-30T11:18:18.018Z</time>
      </trkpt>
      <trkpt lat="43.64154" lon="2.28645">
        <ele>217.6</ele>
        <time>2025-09-30T11:18:18.766Z</time>
      </trkpt>
      <trkpt lat="43.64153" lon="2.28648">
        <ele>217.8</ele>
        <time>2025-09-30T11:18:19.513Z</time>
      </trkpt>
      <trkpt lat="43.64153" lon="2.2865">
        <ele>218.2</ele>
        <time>2025-09-30T11:18:20.221Z</time>
      </trkpt>
      <trkpt lat="43.64153" lon="2.28651">
        <ele>218.4</ele>
        <time>2025-09-30T11:18:20.575Z</time>
      </trkpt>
      <trkpt lat="43.64152" lon="2.28652">
        <ele>218.4</ele>
        <time>2025-09-30T11:18:20.716Z</time>
      </trkpt>
      <trkpt lat="43.64152" lon="2.28653">
        <ele>218.6</ele>
        <time>2025-09-30T11:18:21.070Z</time>
      </trkpt>
      <trkpt lat="43.64151" lon="2.28655">
        <ele>219</ele>
        <time>2025-09-30T11:18:21.931Z</time>
      </trkpt>
      <trkpt lat="43.64151" lon="2.28656">
        <ele>219.2</ele>
        <time>2025-09-30T11:18:22.285Z</time>
      </trkpt>
      <trkpt lat="43.6415" lon="2.28657">
        <ele>219.4</ele>
        <time>2025-09-30T11:18:22.889Z</time>
      </trkpt>
      <trkpt lat="43.6415" lon="2.28659">
        <ele>219.6</ele>
        <time>2025-09-30T11:18:23.598Z</time>
      </trkpt>
      <trkpt lat="43.6415" lon="2.2866">
        <ele>219.8</ele>
        <time>2025-09-30T11:18:23.952Z</time>
      </trkpt>
      <trkpt lat="43.64149" lon="2.28661">
        <ele>220</ele>
        <time>2025-09-30T11:18:24.556Z</time>
      </trkpt>
      <trkpt lat="43.64148" lon="2.28665">
        <ele>220.2</ele>
        <time>2025-09-30T11:18:25.302Z</time>
      </trkpt>
      <trkpt lat="43.64147" lon="2.28667">
        <ele>220.4</ele>
        <time>2025-09-30T11:18:26.084Z</time>
      </trkpt>
      <trkpt lat="43.64147" lon="2.28668">
        <ele>220.6</ele>
        <time>2025-09-30T11:18:26.438Z</time>
      </trkpt>
      <trkpt lat="43.64146" lon="2.28669">
        <ele>220.8</ele>
        <time>2025-09-30T11:18:27.042Z</time>
      </trkpt>
      <trkpt lat="43.64146" lon="2.28671">
        <ele>220.8</ele>
        <time>2025-09-30T11:18:27.208Z</time>
      </trkpt>
      <trkpt lat="43.64145" lon="2.28672">
        <ele>221</ele>
        <time>2025-09-30T11:18:27.812Z</time>
      </trkpt>
      <trkpt lat="43.64145" lon="2.28673">
        <ele>221.2</ele>
        <time>2025-09-30T11:18:28.166Z</time>
      </trkpt>
      <trkpt lat="43.64144" lon="2.28676">
        <ele>221.4</ele>
        <time>2025-09-30T11:18:28.913Z</time>
      </trkpt>
      <trkpt lat="43.64143" lon="2.28678">
        <ele>221.6</ele>
        <time>2025-09-30T11:18:29.695Z</time>
      </trkpt>
      <trkpt lat="43.64142" lon="2.2868">
        <ele>221.8</ele>
        <time>2025-09-30T11:18:30.478Z</time>
      </trkpt>
      <trkpt lat="43.64141" lon="2.28681">
        <ele>222</ele>
        <time>2025-09-30T11:18:31.082Z</time>
      </trkpt>
      <trkpt lat="43.6414" lon="2.28685">
        <ele>222.4</ele>
        <time>2025-09-30T11:18:32.575Z</time>
      </trkpt>
      <trkpt lat="43.6414" lon="2.28687">
        <ele>222.6</ele>
        <time>2025-09-30T11:18:33.284Z</time>
      </trkpt>
      <trkpt lat="43.64139" lon="2.28689">
        <ele>222.8</ele>
        <time>2025-09-30T11:18:34.066Z</time>
      </trkpt>
      <trkpt lat="43.64138" lon="2.28691">
        <ele>222.8</ele>
        <time>2025-09-30T11:18:34.267Z</time>
      </trkpt>
      <trkpt lat="43.64138" lon="2.28693">
        <ele>223</ele>
        <time>2025-09-30T11:18:34.975Z</time>
      </trkpt>
      <trkpt lat="43.64137" lon="2.28695">
        <ele>223.2</ele>
        <time>2025-09-30T11:18:35.758Z</time>
      </trkpt>
      <trkpt lat="43.64136" lon="2.28697">
        <ele>223.4</ele>
        <time>2025-09-30T11:18:36.540Z</time>
      </trkpt>
      <trkpt lat="43.64135" lon="2.28699">
        <ele>223.6</ele>
        <time>2025-09-30T11:18:37.322Z</time>
      </trkpt>
      <trkpt lat="43.64134" lon="2.287">
        <ele>223.8</ele>
        <time>2025-09-30T11:18:37.926Z</time>
      </trkpt>
      <trkpt lat="43.64133" lon="2.28702">
        <ele>224.2</ele>
        <time>2025-09-30T11:18:38.787Z</time>
      </trkpt>
      <trkpt lat="43.64131" lon="2.28703">
        <ele>224.4</ele>
        <time>2025-09-30T11:18:39.549Z</time>
      </trkpt>
      <trkpt lat="43.6413" lon="2.28704">
        <ele>224.8</ele>
        <time>2025-09-30T11:18:40.153Z</time>
      </trkpt>
      <trkpt lat="43.64129" lon="2.28706">
        <ele>225</ele>
        <time>2025-09-30T11:18:40.936Z</time>
      </trkpt>
      <trkpt lat="43.64128" lon="2.28708">
        <ele>225.4</ele>
        <time>2025-09-30T11:18:41.797Z</time>
      </trkpt>
      <trkpt lat="43.64126" lon="2.28709">
        <ele>225.6</ele>
        <time>2025-09-30T11:18:42.559Z</time>
      </trkpt>
      <trkpt lat="43.64125" lon="2.2871">
        <ele>225.8</ele>
        <time>2025-09-30T11:18:43.163Z</time>
      </trkpt>
      <trkpt lat="43.64124" lon="2.28712">
        <ele>226.2</ele>
        <time>2025-09-30T11:18:44.024Z</time>
      </trkpt>
      <trkpt lat="43.64123" lon="2.28713">
        <ele>226.4</ele>
        <time>2025-09-30T11:18:44.628Z</time>
      </trkpt>
      <trkpt lat="43.64122" lon="2.28715">
        <ele>226.6</ele>
        <time>2025-09-30T11:18:45.410Z</time>
      </trkpt>
      <trkpt lat="43.6412" lon="2.28716">
        <ele>226.8</ele>
        <time>2025-09-30T11:18:46.172Z</time>
      </trkpt>
      <trkpt lat="43.64119" lon="2.28718">
        <ele>227</ele>
        <time>2025-09-30T11:18:46.954Z</time>
      </trkpt>
      <trkpt lat="43.64118" lon="2.28719">
        <ele>227.4</ele>
        <time>2025-09-30T11:18:47.558Z</time>
      </trkpt>
      <trkpt lat="43.64116" lon="2.2872">
        <ele>227.6</ele>
        <time>2025-09-30T11:18:48.320Z</time>
      </trkpt>
      <trkpt lat="43.64115" lon="2.28721">
        <ele>227.8</ele>
        <time>2025-09-30T11:18:48.924Z</time>
      </trkpt>
      <trkpt lat="43.64114" lon="2.28723">
        <ele>228</ele>
        <time>2025-09-30T11:18:49.707Z</time>
      </trkpt>
      <trkpt lat="43.64112" lon="2.28724">
        <ele>228.4</ele>
        <time>2025-09-30T11:18:50.748Z</time>
      </trkpt>
      <trkpt lat="43.64111" lon="2.28725">
        <ele>228.6</ele>
        <time>2025-09-30T11:18:51.352Z</time>
      </trkpt>
      <trkpt lat="43.6411" lon="2.28727">
        <ele>228.8</ele>
        <time>2025-09-30T11:18:52.134Z</time>
      </trkpt>
      <trkpt lat="43.64109" lon="2.28728">
        <ele>229.2</ele>
        <time>2025-09-30T11:18:52.738Z</time>
      </trkpt>
      <trkpt lat="43.64107" lon="2.28729">
        <ele>229.4</ele>
        <time>2025-09-30T11:18:53.500Z</time>
      </trkpt>
      <trkpt lat="43.64106" lon="2.2873">
        <ele>229.6</ele>
        <time>2025-09-30T11:18:54.104Z</time>
      </trkpt>
      <trkpt lat="43.64105" lon="2.28731">
        <ele>230</ele>
        <time>2025-09-30T11:18:54.708Z</time>
      </trkpt>
      <trkpt lat="43.64104" lon="2.28732">
        <ele>230.2</ele>
        <time>2025-09-30T11:18:55.312Z</time>
      </trkpt>
      <trkpt lat="43.64103" lon="2.28733">
        <ele>230.4</ele>
        <time>2025-09-30T11:18:55.917Z</time>
      </trkpt>
      <trkpt lat="43.64102" lon="2.28734">
        <ele>230.8</ele>
        <time>2025-09-30T11:18:56.521Z</time>
      </trkpt>
      <trkpt lat="43.64101" lon="2.28735">
        <ele>231</ele>
        <time>2025-09-30T11:18:57.125Z</time>
      </trkpt>
      <trkpt lat="43.641" lon="2.28736">
        <ele>231.2</ele>
        <time>2025-09-30T11:18:57.729Z</time>
      </trkpt>
      <trkpt lat="43.64099" lon="2.28737">
        <ele>231.4</ele>
        <time>2025-09-30T11:18:58.333Z</time>
      </trkpt>
      <trkpt lat="43.64098" lon="2.28738">
        <ele>231.8</ele>
        <time>2025-09-30T11:18:58.937Z</time>
      </trkpt>
      <trkpt lat="43.64097" lon="2.28739">
        <ele>232</ele>
        <time>2025-09-30T11:18:59.541Z</time>
      </trkpt>
      <trkpt lat="43.64096" lon="2.2874">
        <ele>232.2</ele>
        <time>2025-09-30T11:19:00.145Z</time>
      </trkpt>
      <trkpt lat="43.64094" lon="2.28741">
        <ele>232.6</ele>
        <time>2025-09-30T11:19:01.186Z</time>
      </trkpt>
      <trkpt lat="43.64093" lon="2.28742">
        <ele>232.8</ele>
        <time>2025-09-30T11:19:01.790Z</time>
      </trkpt>
      <trkpt lat="43.64091" lon="2.28743">
        <ele>233.2</ele>
        <time>2025-09-30T11:19:02.831Z</time>
      </trkpt>
      <trkpt lat="43.6409" lon="2.28745">
        <ele>233.4</ele>
        <time>2025-09-30T11:19:03.614Z</time>
      </trkpt>
      <trkpt lat="43.64088" lon="2.28747">
        <ele>233.6</ele>
        <time>2025-09-30T11:19:04.358Z</time>
      </trkpt>
      <trkpt lat="43.64086" lon="2.28748">
        <ele>234</ele>
        <time>2025-09-30T11:19:05.399Z</time>
      </trkpt>
      <trkpt lat="43.64085" lon="2.28749">
        <ele>234.2</ele>
        <time>2025-09-30T11:19:06.003Z</time>
      </trkpt>
      <trkpt lat="43.64082" lon="2.28752">
        <ele>234.4</ele>
        <time>2025-09-30T11:19:06.780Z</time>
      </trkpt>
      <trkpt lat="43.64081" lon="2.28753">
        <ele>235</ele>
        <time>2025-09-30T11:19:07.384Z</time>
      </trkpt>
      <trkpt lat="43.6408" lon="2.28754">
        <ele>235.2</ele>
        <time>2025-09-30T11:19:07.988Z</time>
      </trkpt>
      <trkpt lat="43.64079" lon="2.28755">
        <ele>235.6</ele>
        <time>2025-09-30T11:19:08.592Z</time>
      </trkpt>
      <trkpt lat="43.64078" lon="2.28756">
        <ele>235.8</ele>
        <time>2025-09-30T11:19:09.196Z</time>
      </trkpt>
      <trkpt lat="43.64077" lon="2.28757">
        <ele>236</ele>
        <time>2025-09-30T11:19:09.800Z</time>
      </trkpt>
      <trkpt lat="43.64076" lon="2.28757">
        <ele>236.2</ele>
        <time>2025-09-30T11:19:10.289Z</time>
      </trkpt>
      <trkpt lat="43.64075" lon="2.28758">
        <ele>236.4</ele>
        <time>2025-09-30T11:19:10.894Z</time>
      </trkpt>
      <trkpt lat="43.64075" lon="2.28759">
        <ele>236.6</ele>
        <time>2025-09-30T11:19:11.248Z</time>
      </trkpt>
      <trkpt lat="43.64074" lon="2.2876">
        <ele>236.8</ele>
        <time>2025-09-30T11:19:11.852Z</time>
      </trkpt>
      <trkpt lat="43.64073" lon="2.28761">
        <ele>237.4</ele>
        <time>2025-09-30T11:19:12.456Z</time>
      </trkpt>
      <trkpt lat="43.64072" lon="2.28762">
        <ele>237.6</ele>
        <time>2025-09-30T11:19:13.060Z</time>
      </trkpt>
      <trkpt lat="43.64069" lon="2.28764">
        <ele>237.8</ele>
        <time>2025-09-30T11:19:13.816Z</time>
      </trkpt>
      <trkpt lat="43.64068" lon="2.28765">
        <ele>238</ele>
        <time>2025-09-30T11:19:14.420Z</time>
      </trkpt>
      <trkpt lat="43.64067" lon="2.28766">
        <ele>238.2</ele>
        <time>2025-09-30T11:19:15.024Z</time>
      </trkpt>
      <trkpt lat="43.64065" lon="2.28767">
        <ele>238.2</ele>
        <time>2025-09-30T11:19:15.267Z</time>
      </trkpt>
      <trkpt lat="43.64065" lon="2.28768">
        <ele>238.4</ele>
        <time>2025-09-30T11:19:15.621Z</time>
      </trkpt>
      <trkpt lat="43.64064" lon="2.28768">
        <ele>238.6</ele>
        <time>2025-09-30T11:19:16.111Z</time>
      </trkpt>
      <trkpt lat="43.64058" lon="2.28774">
        <ele>239.8</ele>
        <time>2025-09-30T11:19:19.735Z</time>
      </trkpt>
      <trkpt lat="43.64055" lon="2.28777">
        <ele>240</ele>
        <time>2025-09-30T11:19:20.512Z</time>
      </trkpt>
      <trkpt lat="43.64053" lon="2.28779">
        <ele>240.2</ele>
        <time>2025-09-30T11:19:21.256Z</time>
      </trkpt>
      <trkpt lat="43.64051" lon="2.2878">
        <ele>240.2</ele>
        <time>2025-09-30T11:19:21.499Z</time>
      </trkpt>
      <trkpt lat="43.6405" lon="2.28782">
        <ele>240.4</ele>
        <time>2025-09-30T11:19:22.282Z</time>
      </trkpt>
      <trkpt lat="43.64047" lon="2.28783">
        <ele>240.6</ele>
        <time>2025-09-30T11:19:23.028Z</time>
      </trkpt>
      <trkpt lat="43.64045" lon="2.28785">
        <ele>240.8</ele>
        <time>2025-09-30T11:19:23.773Z</time>
      </trkpt>
      <trkpt lat="43.64044" lon="2.28787">
        <ele>240.8</ele>
        <time>2025-09-30T11:19:23.973Z</time>
      </trkpt>
      <trkpt lat="43.64042" lon="2.28788">
        <ele>241</ele>
        <time>2025-09-30T11:19:24.735Z</time>
      </trkpt>
      <trkpt lat="43.6404" lon="2.2879">
        <ele>241</ele>
        <time>2025-09-30T11:19:25.017Z</time>
      </trkpt>
      <trkpt lat="43.64038" lon="2.28792">
        <ele>241.2</ele>
        <time>2025-09-30T11:19:25.762Z</time>
      </trkpt>
      <trkpt lat="43.64036" lon="2.28794">
        <ele>241.4</ele>
        <time>2025-09-30T11:19:26.506Z</time>
      </trkpt>
      <trkpt lat="43.64034" lon="2.28796">
        <ele>241.4</ele>
        <time>2025-09-30T11:19:26.788Z</time>
      </trkpt>
      <trkpt lat="43.64032" lon="2.28798">
        <ele>241.6</ele>
        <time>2025-09-30T11:19:27.532Z</time>
      </trkpt>
      <trkpt lat="43.6403" lon="2.28799">
        <ele>241.6</ele>
        <time>2025-09-30T11:19:27.775Z</time>
      </trkpt>
      <trkpt lat="43.64029" lon="2.288">
        <ele>241.6</ele>
        <time>2025-09-30T11:19:27.916Z</time>
      </trkpt>
      <trkpt lat="43.64028" lon="2.288">
        <ele>241.6</ele>
        <time>2025-09-30T11:19:28.030Z</time>
      </trkpt>
      <trkpt lat="43.64028" lon="2.28801">
        <ele>241.6</ele>
        <time>2025-09-30T11:19:28.113Z</time>
      </trkpt>
      <trkpt lat="43.64027" lon="2.28802">
        <ele>241.8</ele>
        <time>2025-09-30T11:19:28.717Z</time>
      </trkpt>
      <trkpt lat="43.64025" lon="2.28804">
        <ele>241.8</ele>
        <time>2025-09-30T11:19:28.999Z</time>
      </trkpt>
      <trkpt lat="43.64023" lon="2.28806">
        <ele>241.8</ele>
        <time>2025-09-30T11:19:29.281Z</time>
      </trkpt>
      <trkpt lat="43.64021" lon="2.28807">
        <ele>242</ele>
        <time>2025-09-30T11:19:30.043Z</time>
      </trkpt>
      <trkpt lat="43.64019" lon="2.28809">
        <ele>242</ele>
        <time>2025-09-30T11:19:30.324Z</time>
      </trkpt>
      <trkpt lat="43.64016" lon="2.28811">
        <ele>242</ele>
        <time>2025-09-30T11:19:30.705Z</time>
      </trkpt>
      <trkpt lat="43.64014" lon="2.28814">
        <ele>242.2</ele>
        <time>2025-09-30T11:19:31.448Z</time>
      </trkpt>
      <trkpt lat="43.64012" lon="2.28818">
        <ele>242.2</ele>
        <time>2025-09-30T11:19:31.850Z</time>
      </trkpt>
      <trkpt lat="43.64011" lon="2.28822">
        <ele>242.4</ele>
        <time>2025-09-30T11:19:32.595Z</time>
      </trkpt>
      <trkpt lat="43.6401" lon="2.28827">
        <ele>242.6</ele>
        <time>2025-09-30T11:19:33.375Z</time>
      </trkpt>
      <trkpt lat="43.6401" lon="2.28831">
        <ele>242.8</ele>
        <time>2025-09-30T11:19:34.117Z</time>
      </trkpt>
      <trkpt lat="43.64009" lon="2.28835">
        <ele>242.8</ele>
        <time>2025-09-30T11:19:34.467Z</time>
      </trkpt>
      <trkpt lat="43.64008" lon="2.2884">
        <ele>243</ele>
        <time>2025-09-30T11:19:35.247Z</time>
      </trkpt>
      <trkpt lat="43.64008" lon="2.28844">
        <ele>243.2</ele>
        <time>2025-09-30T11:19:35.989Z</time>
      </trkpt>
      <trkpt lat="43.64008" lon="2.28847">
        <ele>243.4</ele>
        <time>2025-09-30T11:19:36.748Z</time>
      </trkpt>
      <trkpt lat="43.64007" lon="2.28851">
        <ele>243.6</ele>
        <time>2025-09-30T11:19:37.494Z</time>
      </trkpt>
      <trkpt lat="43.64007" lon="2.28855">
        <ele>243.8</ele>
        <time>2025-09-30T11:19:38.236Z</time>
      </trkpt>
      <trkpt lat="43.64007" lon="2.28858">
        <ele>244</ele>
        <time>2025-09-30T11:19:38.994Z</time>
      </trkpt>
      <trkpt lat="43.64006" lon="2.28861">
        <ele>244.2</ele>
        <time>2025-09-30T11:19:39.742Z</time>
      </trkpt>
      <trkpt lat="43.64006" lon="2.28865">
        <ele>244.4</ele>
        <time>2025-09-30T11:19:40.484Z</time>
      </trkpt>
      <trkpt lat="43.64006" lon="2.28868">
        <ele>244.6</ele>
        <time>2025-09-30T11:19:41.242Z</time>
      </trkpt>
      <trkpt lat="43.64006" lon="2.28871">
        <ele>245</ele>
        <time>2025-09-30T11:19:42.305Z</time>
      </trkpt>
      <trkpt lat="43.64005" lon="2.28874">
        <ele>245.2</ele>
        <time>2025-09-30T11:19:43.052Z</time>
      </trkpt>
      <trkpt lat="43.64005" lon="2.28877">
        <ele>245.4</ele>
        <time>2025-09-30T11:19:43.811Z</time>
      </trkpt>
      <trkpt lat="43.64005" lon="2.2888">
        <ele>245.6</ele>
        <time>2025-09-30T11:19:44.570Z</time>
      </trkpt>
      <trkpt lat="43.64005" lon="2.28883">
        <ele>245.8</ele>
        <time>2025-09-30T11:19:45.329Z</time>
      </trkpt>
      <trkpt lat="43.64005" lon="2.28886">
        <ele>246.2</ele>
        <time>2025-09-30T11:19:46.391Z</time>
      </trkpt>
      <trkpt lat="43.64005" lon="2.28888">
        <ele>246.4</ele>
        <time>2025-09-30T11:19:47.099Z</time>
      </trkpt>
      <trkpt lat="43.64005" lon="2.28891">
        <ele>246.6</ele>
        <time>2025-09-30T11:19:47.858Z</time>
      </trkpt>
      <trkpt lat="43.64005" lon="2.28894">
        <ele>246.8</ele>
        <time>2025-09-30T11:19:48.617Z</time>
      </trkpt>
      <trkpt lat="43.64005" lon="2.28896">
        <ele>247.2</ele>
        <time>2025-09-30T11:19:49.326Z</time>
      </trkpt>
      <trkpt lat="43.64005" lon="2.28899">
        <ele>247.4</ele>
        <time>2025-09-30T11:19:50.084Z</time>
      </trkpt>
      <trkpt lat="43.64005" lon="2.28902">
        <ele>247.6</ele>
        <time>2025-09-30T11:19:50.843Z</time>
      </trkpt>
      <trkpt lat="43.64005" lon="2.28905">
        <ele>248</ele>
        <time>2025-09-30T11:19:51.906Z</time>
      </trkpt>
      <trkpt lat="43.64005" lon="2.28908">
        <ele>248.2</ele>
        <time>2025-09-30T11:19:52.665Z</time>
      </trkpt>
      <trkpt lat="43.64005" lon="2.28911">
        <ele>248.4</ele>
        <time>2025-09-30T11:19:53.424Z</time>
      </trkpt>
      <trkpt lat="43.64005" lon="2.28914">
        <ele>248.8</ele>
        <time>2025-09-30T11:19:54.486Z</time>
      </trkpt>
      <trkpt lat="43.64005" lon="2.28917">
        <ele>249</ele>
        <time>2025-09-30T11:19:55.245Z</time>
      </trkpt>
      <trkpt lat="43.64005" lon="2.28921">
        <ele>249.2</ele>
        <time>2025-09-30T11:19:55.987Z</time>
      </trkpt>
      <trkpt lat="43.64005" lon="2.28924">
        <ele>249.6</ele>
        <time>2025-09-30T11:19:57.049Z</time>
      </trkpt>
      <trkpt lat="43.64005" lon="2.28927">
        <ele>249.8</ele>
        <time>2025-09-30T11:19:57.808Z</time>
      </trkpt>
      <trkpt lat="43.64005" lon="2.2893">
        <ele>250</ele>
        <time>2025-09-30T11:19:58.567Z</time>
      </trkpt>
      <trkpt lat="43.64005" lon="2.28933">
        <ele>250.4</ele>
        <time>2025-09-30T11:19:59.630Z</time>
      </trkpt>
      <trkpt lat="43.64005" lon="2.28936">
        <ele>250.6</ele>
        <time>2025-09-30T11:20:00.389Z</time>
      </trkpt>
      <trkpt lat="43.64006" lon="2.28939">
        <ele>250.8</ele>
        <time>2025-09-30T11:20:01.136Z</time>
      </trkpt>
      <trkpt lat="43.64006" lon="2.28942">
        <ele>251</ele>
        <time>2025-09-30T11:20:01.895Z</time>
      </trkpt>
      <trkpt lat="43.64006" lon="2.28945">
        <ele>251.4</ele>
        <time>2025-09-30T11:20:02.957Z</time>
      </trkpt>
      <trkpt lat="43.64007" lon="2.28947">
        <ele>251.6</ele>
        <time>2025-09-30T11:20:03.739Z</time>
      </trkpt>
      <trkpt lat="43.64008" lon="2.2895">
        <ele>251.8</ele>
        <time>2025-09-30T11:20:04.486Z</time>
      </trkpt>
      <trkpt lat="43.64008" lon="2.28953">
        <ele>252</ele>
        <time>2025-09-30T11:20:05.245Z</time>
      </trkpt>
      <trkpt lat="43.64009" lon="2.28956">
        <ele>252.2</ele>
        <time>2025-09-30T11:20:05.992Z</time>
      </trkpt>
      <trkpt lat="43.6401" lon="2.28959">
        <ele>252.4</ele>
        <time>2025-09-30T11:20:06.739Z</time>
      </trkpt>
      <trkpt lat="43.64011" lon="2.28961">
        <ele>252.4</ele>
        <time>2025-09-30T11:20:06.940Z</time>
      </trkpt>
      <trkpt lat="43.64012" lon="2.28963">
        <ele>252.6</ele>
        <time>2025-09-30T11:20:07.723Z</time>
      </trkpt>
      <trkpt lat="43.64012" lon="2.28966">
        <ele>252.6</ele>
        <time>2025-09-30T11:20:07.971Z</time>
      </trkpt>
      <trkpt lat="43.64014" lon="2.28968">
        <ele>252.8</ele>
        <time>2025-09-30T11:20:08.715Z</time>
      </trkpt>
      <trkpt lat="43.64015" lon="2.28971">
        <ele>252.8</ele>
        <time>2025-09-30T11:20:08.988Z</time>
      </trkpt>
      <trkpt lat="43.64016" lon="2.28974">
        <ele>252.8</ele>
        <time>2025-09-30T11:20:09.261Z</time>
      </trkpt>
      <trkpt lat="43.64017" lon="2.28978">
        <ele>252.8</ele>
        <time>2025-09-30T11:20:09.610Z</time>
      </trkpt>
      <trkpt lat="43.64019" lon="2.28981">
        <ele>252.8</ele>
        <time>2025-09-30T11:20:09.948Z</time>
      </trkpt>
      <trkpt lat="43.6402" lon="2.28985">
        <ele>253</ele>
        <time>2025-09-30T11:20:10.693Z</time>
      </trkpt>
      <trkpt lat="43.64021" lon="2.28988">
        <ele>252.8</ele>
        <time>2025-09-30T11:20:10.857Z</time>
      </trkpt>
      <trkpt lat="43.64022" lon="2.28992">
        <ele>253</ele>
        <time>2025-09-30T11:20:11.603Z</time>
      </trkpt>
      <trkpt lat="43.64023" lon="2.28995">
        <ele>253</ele>
        <time>2025-09-30T11:20:11.876Z</time>
      </trkpt>
      <trkpt lat="43.64024" lon="2.28998">
        <ele>253</ele>
        <time>2025-09-30T11:20:12.149Z</time>
      </trkpt>
      <trkpt lat="43.64025" lon="2.29001">
        <ele>253</ele>
        <time>2025-09-30T11:20:12.422Z</time>
      </trkpt>
      <trkpt lat="43.64026" lon="2.29005">
        <ele>253</ele>
        <time>2025-09-30T11:20:12.772Z</time>
      </trkpt>
      <trkpt lat="43.64027" lon="2.29009">
        <ele>253</ele>
        <time>2025-09-30T11:20:13.121Z</time>
      </trkpt>
      <trkpt lat="43.64028" lon="2.29012">
        <ele>253</ele>
        <time>2025-09-30T11:20:13.394Z</time>
      </trkpt>
      <trkpt lat="43.6403" lon="2.29015">
        <ele>253.2</ele>
        <time>2025-09-30T11:20:14.137Z</time>
      </trkpt>
      <trkpt lat="43.64031" lon="2.29019">
        <ele>253.2</ele>
        <time>2025-09-30T11:20:14.487Z</time>
      </trkpt>
      <trkpt lat="43.64032" lon="2.29023">
        <ele>253.2</ele>
        <time>2025-09-30T11:20:14.837Z</time>
      </trkpt>
      <trkpt lat="43.64033" lon="2.29026">
        <ele>253.2</ele>
        <time>2025-09-30T11:20:15.110Z</time>
      </trkpt>
      <trkpt lat="43.64034" lon="2.2903">
        <ele>253.2</ele>
        <time>2025-09-30T11:20:15.459Z</time>
      </trkpt>
      <trkpt lat="43.64036" lon="2.29033">
        <ele>253.4</ele>
        <time>2025-09-30T11:20:16.202Z</time>
      </trkpt>
      <trkpt lat="43.64037" lon="2.29036">
        <ele>253.4</ele>
        <time>2025-09-30T11:20:16.475Z</time>
      </trkpt>
      <trkpt lat="43.64038" lon="2.2904">
        <ele>253.4</ele>
        <time>2025-09-30T11:20:16.825Z</time>
      </trkpt>
      <trkpt lat="43.64039" lon="2.29043">
        <ele>253.6</ele>
        <time>2025-09-30T11:20:17.572Z</time>
      </trkpt>
      <trkpt lat="43.64041" lon="2.29046">
        <ele>253.6</ele>
        <time>2025-09-30T11:20:17.909Z</time>
      </trkpt>
      <trkpt lat="43.64042" lon="2.2905">
        <ele>253.6</ele>
        <time>2025-09-30T11:20:18.259Z</time>
      </trkpt>
      <trkpt lat="43.64043" lon="2.29053">
        <ele>253.8</ele>
        <time>2025-09-30T11:20:19.006Z</time>
      </trkpt>
      <trkpt lat="43.64045" lon="2.29056">
        <ele>253.8</ele>
        <time>2025-09-30T11:20:19.343Z</time>
      </trkpt>
      <trkpt lat="43.64046" lon="2.29059">
        <ele>253.8</ele>
        <time>2025-09-30T11:20:19.616Z</time>
      </trkpt>
      <trkpt lat="43.64048" lon="2.29062">
        <ele>254</ele>
        <time>2025-09-30T11:20:20.359Z</time>
      </trkpt>
      <trkpt lat="43.64049" lon="2.29066">
        <ele>254</ele>
        <time>2025-09-30T11:20:20.709Z</time>
      </trkpt>
      <trkpt lat="43.64051" lon="2.29069">
        <ele>254</ele>
        <time>2025-09-30T11:20:21.046Z</time>
      </trkpt>
      <trkpt lat="43.64052" lon="2.29073">
        <ele>254.2</ele>
        <time>2025-09-30T11:20:21.792Z</time>
      </trkpt>
      <trkpt lat="43.64054" lon="2.29076">
        <ele>254.2</ele>
        <time>2025-09-30T11:20:22.129Z</time>
      </trkpt>
      <trkpt lat="43.64055" lon="2.2908">
        <ele>254.2</ele>
        <time>2025-09-30T11:20:22.479Z</time>
      </trkpt>
      <trkpt lat="43.64057" lon="2.29084">
        <ele>254.2</ele>
        <time>2025-09-30T11:20:22.880Z</time>
      </trkpt>
      <trkpt lat="43.64058" lon="2.29088">
        <ele>254.4</ele>
        <time>2025-09-30T11:20:23.626Z</time>
      </trkpt>
      <trkpt lat="43.6406" lon="2.29091">
        <ele>254.4</ele>
        <time>2025-09-30T11:20:23.963Z</time>
      </trkpt>
      <trkpt lat="43.64061" lon="2.29095">
        <ele>254.4</ele>
        <time>2025-09-30T11:20:24.313Z</time>
      </trkpt>
      <trkpt lat="43.64062" lon="2.29099">
        <ele>254.4</ele>
        <time>2025-09-30T11:20:24.663Z</time>
      </trkpt>
      <trkpt lat="43.64063" lon="2.29102">
        <ele>254.4</ele>
        <time>2025-09-30T11:20:24.936Z</time>
      </trkpt>
      <trkpt lat="43.64064" lon="2.29104">
        <ele>254.4</ele>
        <time>2025-09-30T11:20:25.137Z</time>
      </trkpt>
      <trkpt lat="43.64065" lon="2.29107">
        <ele>254.6</ele>
        <time>2025-09-30T11:20:25.884Z</time>
      </trkpt>
      <trkpt lat="43.64065" lon="2.2911">
        <ele>254.6</ele>
        <time>2025-09-30T11:20:26.131Z</time>
      </trkpt>
      <trkpt lat="43.64066" lon="2.29112">
        <ele>254.6</ele>
        <time>2025-09-30T11:20:26.332Z</time>
      </trkpt>
      <trkpt lat="43.64067" lon="2.29114">
        <ele>254.6</ele>
        <time>2025-09-30T11:20:26.533Z</time>
      </trkpt>
      <trkpt lat="43.64068" lon="2.29117">
        <ele>254.8</ele>
        <time>2025-09-30T11:20:27.280Z</time>
      </trkpt>
      <trkpt lat="43.64069" lon="2.29118">
        <ele>254.8</ele>
        <time>2025-09-30T11:20:27.421Z</time>
      </trkpt>
      <trkpt lat="43.6407" lon="2.29118">
        <ele>255</ele>
        <time>2025-09-30T11:20:27.911Z</time>
      </trkpt>
      <trkpt lat="43.64072" lon="2.29117">
        <ele>255</ele>
        <time>2025-09-30T11:20:28.154Z</time>
      </trkpt>
      <trkpt lat="43.64075" lon="2.29113">
        <ele>255</ele>
        <time>2025-09-30T11:20:28.630Z</time>
      </trkpt>
      <trkpt lat="43.64077" lon="2.29111">
        <ele>255</ele>
        <time>2025-09-30T11:20:28.912Z</time>
      </trkpt>
      <trkpt lat="43.64079" lon="2.29109">
        <ele>255</ele>
        <time>2025-09-30T11:20:29.193Z</time>
      </trkpt>
      <trkpt lat="43.64081" lon="2.29107">
        <ele>255</ele>
        <time>2025-09-30T11:20:29.475Z</time>
      </trkpt>
      <trkpt lat="43.64082" lon="2.29104">
        <ele>254.8</ele>
        <time>2025-09-30T11:20:29.639Z</time>
      </trkpt>
      <trkpt lat="43.64085" lon="2.29102">
        <ele>254.8</ele>
        <time>2025-09-30T11:20:30.019Z</time>
      </trkpt>
      <trkpt lat="43.64087" lon="2.29099">
        <ele>254.8</ele>
        <time>2025-09-30T11:20:30.357Z</time>
      </trkpt>
      <trkpt lat="43.64089" lon="2.29096">
        <ele>254.6</ele>
        <time>2025-09-30T11:20:30.559Z</time>
      </trkpt>
      <trkpt lat="43.64091" lon="2.29092">
        <ele>254.4</ele>
        <time>2025-09-30T11:20:30.815Z</time>
      </trkpt>
      <trkpt lat="43.64094" lon="2.2909">
        <ele>254.2</ele>
        <time>2025-09-30T11:20:31.053Z</time>
      </trkpt>
      <trkpt lat="43.64097" lon="2.29087">
        <ele>253.8</ele>
        <time>2025-09-30T11:20:31.307Z</time>
      </trkpt>
      <trkpt lat="43.641" lon="2.29086">
        <ele>253.4</ele>
        <time>2025-09-30T11:20:31.518Z</time>
      </trkpt>
      <trkpt lat="43.64103" lon="2.29088">
        <ele>253</ele>
        <time>2025-09-30T11:20:31.746Z</time>
      </trkpt>
      <trkpt lat="43.64107" lon="2.29093">
        <ele>252.6</ele>
        <time>2025-09-30T11:20:32.116Z</time>
      </trkpt>
      <trkpt lat="43.6411" lon="2.291">
        <ele>252.2</ele>
        <time>2025-09-30T11:20:32.519Z</time>
      </trkpt>
      <trkpt lat="43.64114" lon="2.29107">
        <ele>251.4</ele>
        <time>2025-09-30T11:20:32.962Z</time>
      </trkpt>
      <trkpt lat="43.6412" lon="2.29114">
        <ele>250.6</ele>
        <time>2025-09-30T11:20:33.500Z</time>
      </trkpt>
      <trkpt lat="43.64126" lon="2.29121">
        <ele>250</ele>
        <time>2025-09-30T11:20:34.038Z</time>
      </trkpt>
      <trkpt lat="43.64134" lon="2.29127">
        <ele>249.4</ele>
        <time>2025-09-30T11:20:34.664Z</time>
      </trkpt>
      <trkpt lat="43.64142" lon="2.29132">
        <ele>248.8</ele>
        <time>2025-09-30T11:20:35.266Z</time>
      </trkpt>
      <trkpt lat="43.64149" lon="2.29136">
        <ele>248.2</ele>
        <time>2025-09-30T11:20:35.785Z</time>
      </trkpt>
      <trkpt lat="43.64157" lon="2.29137">
        <ele>248</ele>
        <time>2025-09-30T11:20:36.522Z</time>
      </trkpt>
      <trkpt lat="43.64164" lon="2.29137">
        <ele>247.6</ele>
        <time>2025-09-30T11:20:37.031Z</time>
      </trkpt>
      <trkpt lat="43.6417" lon="2.29134">
        <ele>247.4</ele>
        <time>2025-09-30T11:20:37.588Z</time>
      </trkpt>
      <trkpt lat="43.64175" lon="2.2913">
        <ele>247.4</ele>
        <time>2025-09-30T11:20:38.248Z</time>
      </trkpt>
      <trkpt lat="43.64179" lon="2.29125">
        <ele>247.4</ele>
        <time>2025-09-30T11:20:38.864Z</time>
      </trkpt>
      <trkpt lat="43.64181" lon="2.2912">
        <ele>247.4</ele>
        <time>2025-09-30T11:20:39.336Z</time>
      </trkpt>
      <trkpt lat="43.64183" lon="2.29115">
        <ele>247.6</ele>
        <time>2025-09-30T11:20:40.143Z</time>
      </trkpt>
      <trkpt lat="43.64184" lon="2.29109">
        <ele>247.6</ele>
        <time>2025-09-30T11:20:40.651Z</time>
      </trkpt>
      <trkpt lat="43.64185" lon="2.29104">
        <ele>247.6</ele>
        <time>2025-09-30T11:20:41.080Z</time>
      </trkpt>
      <trkpt lat="43.64186" lon="2.29099">
        <ele>247.8</ele>
        <time>2025-09-30T11:20:41.860Z</time>
      </trkpt>
      <trkpt lat="43.64188" lon="2.29094">
        <ele>248</ele>
        <time>2025-09-30T11:20:42.667Z</time>
      </trkpt>
      <trkpt lat="43.6419" lon="2.2909">
        <ele>248.2</ele>
        <time>2025-09-30T11:20:43.432Z</time>
      </trkpt>
      <trkpt lat="43.64192" lon="2.29086">
        <ele>248.4</ele>
        <time>2025-09-30T11:20:44.198Z</time>
      </trkpt>
      <trkpt lat="43.64195" lon="2.29082">
        <ele>248.6</ele>
        <time>2025-09-30T11:20:45.007Z</time>
      </trkpt>
      <trkpt lat="43.64199" lon="2.29078">
        <ele>249</ele>
        <time>2025-09-30T11:20:46.496Z</time>
      </trkpt>
      <trkpt lat="43.64203" lon="2.29075">
        <ele>249.2</ele>
        <time>2025-09-30T11:20:47.336Z</time>
      </trkpt>
      <trkpt lat="43.64206" lon="2.29073">
        <ele>249.6</ele>
        <time>2025-09-30T11:20:48.891Z</time>
      </trkpt>
      <trkpt lat="43.64211" lon="2.29071">
        <ele>249.8</ele>
        <time>2025-09-30T11:20:49.789Z</time>
      </trkpt>
      <trkpt lat="43.64215" lon="2.29069">
        <ele>250.2</ele>
        <time>2025-09-30T11:20:51.313Z</time>
      </trkpt>
      <trkpt lat="43.64219" lon="2.29067">
        <ele>250.4</ele>
        <time>2025-09-30T11:20:52.129Z</time>
      </trkpt>
      <trkpt lat="43.64224" lon="2.29065">
        <ele>250.6</ele>
        <time>2025-09-30T11:20:53.027Z</time>
      </trkpt>
      <trkpt lat="43.64228" lon="2.29063">
        <ele>250.8</ele>
        <time>2025-09-30T11:20:53.843Z</time>
      </trkpt>
      <trkpt lat="43.64233" lon="2.29061">
        <ele>250.8</ele>
        <time>2025-09-30T11:20:54.438Z</time>
      </trkpt>
      <trkpt lat="43.64237" lon="2.29058">
        <ele>250.8</ele>
        <time>2025-09-30T11:20:54.958Z</time>
      </trkpt>
      <trkpt lat="43.64242" lon="2.29055">
        <ele>251</ele>
        <time>2025-09-30T11:20:55.879Z</time>
      </trkpt>
      <trkpt lat="43.64246" lon="2.29051">
        <ele>251.2</ele>
        <time>2025-09-30T11:20:56.753Z</time>
      </trkpt>
      <trkpt lat="43.6425" lon="2.29048">
        <ele>251.2</ele>
        <time>2025-09-30T11:20:57.273Z</time>
      </trkpt>
      <trkpt lat="43.64254" lon="2.29045">
        <ele>251.4</ele>
        <time>2025-09-30T11:20:58.113Z</time>
      </trkpt>
      <trkpt lat="43.64258" lon="2.29042">
        <ele>251.8</ele>
        <time>2025-09-30T11:20:59.618Z</time>
      </trkpt>
      <trkpt lat="43.64262" lon="2.29039">
        <ele>252</ele>
        <time>2025-09-30T11:21:00.458Z</time>
      </trkpt>
      <trkpt lat="43.64266" lon="2.29036">
        <ele>252.2</ele>
        <time>2025-09-30T11:21:01.299Z</time>
      </trkpt>
      <trkpt lat="43.64269" lon="2.29033">
        <ele>252.6</ele>
        <time>2025-09-30T11:21:02.859Z</time>
      </trkpt>
      <trkpt lat="43.64273" lon="2.2903">
        <ele>253</ele>
        <time>2025-09-30T11:21:04.364Z</time>
      </trkpt>
      <trkpt lat="43.64277" lon="2.29027">
        <ele>253.2</ele>
        <time>2025-09-30T11:21:05.205Z</time>
      </trkpt>
      <trkpt lat="43.64281" lon="2.29024">
        <ele>253.6</ele>
        <time>2025-09-30T11:21:06.710Z</time>
      </trkpt>
      <trkpt lat="43.64285" lon="2.29021">
        <ele>253.8</ele>
        <time>2025-09-30T11:21:07.550Z</time>
      </trkpt>
      <trkpt lat="43.64288" lon="2.29019">
        <ele>254.2</ele>
        <time>2025-09-30T11:21:09.104Z</time>
      </trkpt>
      <trkpt lat="43.64292" lon="2.29016">
        <ele>254.4</ele>
        <time>2025-09-30T11:21:09.945Z</time>
      </trkpt>
      <trkpt lat="43.64296" lon="2.29014">
        <ele>254.6</ele>
        <time>2025-09-30T11:21:10.761Z</time>
      </trkpt>
      <trkpt lat="43.64299" lon="2.29012">
        <ele>254.8</ele>
        <time>2025-09-30T11:21:11.517Z</time>
      </trkpt>
      <trkpt lat="43.64302" lon="2.29011">
        <ele>255</ele>
        <time>2025-09-30T11:21:12.263Z</time>
      </trkpt>
      <trkpt lat="43.64304" lon="2.29011">
        <ele>255.2</ele>
        <time>2025-09-30T11:21:13.034Z</time>
      </trkpt>
      <trkpt lat="43.64307" lon="2.29011">
        <ele>255.6</ele>
        <time>2025-09-30T11:21:14.502Z</time>
      </trkpt>
      <trkpt lat="43.6431" lon="2.29011">
        <ele>256</ele>
        <time>2025-09-30T11:21:15.970Z</time>
      </trkpt>
      <trkpt lat="43.64312" lon="2.29011">
        <ele>256.2</ele>
        <time>2025-09-30T11:21:16.742Z</time>
      </trkpt>
      <trkpt lat="43.64314" lon="2.29012">
        <ele>256.6</ele>
        <time>2025-09-30T11:21:17.783Z</time>
      </trkpt>
      <trkpt lat="43.64317" lon="2.29012">
        <ele>256.8</ele>
        <time>2025-09-30T11:21:18.527Z</time>
      </trkpt>
      <trkpt lat="43.6432" lon="2.29012">
        <ele>257</ele>
        <time>2025-09-30T11:21:19.271Z</time>
      </trkpt>
      <trkpt lat="43.64322" lon="2.29012">
        <ele>257</ele>
        <time>2025-09-30T11:21:19.499Z</time>
      </trkpt>
      <trkpt lat="43.64324" lon="2.29012">
        <ele>257.2</ele>
        <time>2025-09-30T11:21:20.270Z</time>
      </trkpt>
      <trkpt lat="43.64327" lon="2.29012">
        <ele>257.2</ele>
        <time>2025-09-30T11:21:20.613Z</time>
      </trkpt>
      <trkpt lat="43.64331" lon="2.29012">
        <ele>257.2</ele>
        <time>2025-09-30T11:21:21.070Z</time>
      </trkpt>
      <trkpt lat="43.64335" lon="2.29014">
        <ele>257</ele>
        <time>2025-09-30T11:21:21.401Z</time>
      </trkpt>
      <trkpt lat="43.64338" lon="2.29016">
        <ele>257</ele>
        <time>2025-09-30T11:21:21.781Z</time>
      </trkpt>
      <trkpt lat="43.6434" lon="2.29018">
        <ele>256.6</ele>
        <time>2025-09-30T11:21:21.950Z</time>
      </trkpt>
      <trkpt lat="43.64342" lon="2.29022">
        <ele>256.4</ele>
        <time>2025-09-30T11:21:22.207Z</time>
      </trkpt>
      <trkpt lat="43.64342" lon="2.29025">
        <ele>256</ele>
        <time>2025-09-30T11:21:22.355Z</time>
      </trkpt>
      <trkpt lat="43.64343" lon="2.29029">
        <ele>255.6</ele>
        <time>2025-09-30T11:21:22.565Z</time>
      </trkpt>
      <trkpt lat="43.64343" lon="2.29034">
        <ele>255.2</ele>
        <time>2025-09-30T11:21:22.813Z</time>
      </trkpt>
      <trkpt lat="43.64343" lon="2.29038">
        <ele>254.8</ele>
        <time>2025-09-30T11:21:23.011Z</time>
      </trkpt>
      <trkpt lat="43.64343" lon="2.29043">
        <ele>254.4</ele>
        <time>2025-09-30T11:21:23.259Z</time>
      </trkpt>
      <trkpt lat="43.64344" lon="2.2905">
        <ele>254</ele>
        <time>2025-09-30T11:21:23.613Z</time>
      </trkpt>
      <trkpt lat="43.64344" lon="2.29056">
        <ele>253.6</ele>
        <time>2025-09-30T11:21:23.910Z</time>
      </trkpt>
      <trkpt lat="43.64345" lon="2.29063">
        <ele>253.4</ele>
        <time>2025-09-30T11:21:24.337Z</time>
      </trkpt>
      <trkpt lat="43.64346" lon="2.2907">
        <ele>253.2</ele>
        <time>2025-09-30T11:21:24.763Z</time>
      </trkpt>
      <trkpt lat="43.64347" lon="2.29077">
        <ele>253.2</ele>
        <time>2025-09-30T11:21:25.352Z</time>
      </trkpt>
      <trkpt lat="43.64348" lon="2.29084">
        <ele>253</ele>
        <time>2025-09-30T11:21:25.779Z</time>
      </trkpt>
      <trkpt lat="43.64348" lon="2.29091">
        <ele>253</ele>
        <time>2025-09-30T11:21:26.357Z</time>
      </trkpt>
      <trkpt lat="43.64349" lon="2.29097">
        <ele>253</ele>
        <time>2025-09-30T11:21:26.866Z</time>
      </trkpt>
      <trkpt lat="43.64349" lon="2.29103">
        <ele>252.8</ele>
        <time>2025-09-30T11:21:27.206Z</time>
      </trkpt>
      <trkpt lat="43.64349" lon="2.29109">
        <ele>252.8</ele>
        <time>2025-09-30T11:21:27.702Z</time>
      </trkpt>
      <trkpt lat="43.64349" lon="2.29114">
        <ele>252.8</ele>
        <time>2025-09-30T11:21:28.115Z</time>
      </trkpt>
      <trkpt lat="43.64349" lon="2.29119">
        <ele>252.8</ele>
        <time>2025-09-30T11:21:28.528Z</time>
      </trkpt>
      <trkpt lat="43.64348" lon="2.29125">
        <ele>252.8</ele>
        <time>2025-09-30T11:21:29.037Z</time>
      </trkpt>
      <trkpt lat="43.64348" lon="2.2913">
        <ele>252.8</ele>
        <time>2025-09-30T11:21:29.450Z</time>
      </trkpt>
      <trkpt lat="43.64348" lon="2.29136">
        <ele>252.8</ele>
        <time>2025-09-30T11:21:29.946Z</time>
      </trkpt>
      <trkpt lat="43.64348" lon="2.29142">
        <ele>252.8</ele>
        <time>2025-09-30T11:21:30.442Z</time>
      </trkpt>
      <trkpt lat="43.64349" lon="2.29147">
        <ele>252.6</ele>
        <time>2025-09-30T11:21:30.722Z</time>
      </trkpt>
      <trkpt lat="43.6435" lon="2.29153">
        <ele>252.6</ele>
        <time>2025-09-30T11:21:31.230Z</time>
      </trkpt>
      <trkpt lat="43.64351" lon="2.29159">
        <ele>252.6</ele>
        <time>2025-09-30T11:21:31.739Z</time>
      </trkpt>
      <trkpt lat="43.64353" lon="2.29164">
        <ele>252.6</ele>
        <time>2025-09-30T11:21:32.211Z</time>
      </trkpt>
      <trkpt lat="43.64355" lon="2.29169">
        <ele>252.6</ele>
        <time>2025-09-30T11:21:32.683Z</time>
      </trkpt>
      <trkpt lat="43.64357" lon="2.29174">
        <ele>252.6</ele>
        <time>2025-09-30T11:21:33.155Z</time>
      </trkpt>
      <trkpt lat="43.64358" lon="2.29179">
        <ele>252.6</ele>
        <time>2025-09-30T11:21:33.584Z</time>
      </trkpt>
      <trkpt lat="43.6436" lon="2.29184">
        <ele>252.6</ele>
        <time>2025-09-30T11:21:34.056Z</time>
      </trkpt>
      <trkpt lat="43.64361" lon="2.29188">
        <ele>252.8</ele>
        <time>2025-09-30T11:21:34.802Z</time>
      </trkpt>
      <trkpt lat="43.64362" lon="2.29193">
        <ele>253</ele>
        <time>2025-09-30T11:21:35.582Z</time>
      </trkpt>
      <trkpt lat="43.64363" lon="2.29196">
        <ele>253.2</ele>
        <time>2025-09-30T11:21:36.329Z</time>
      </trkpt>
      <trkpt lat="43.64364" lon="2.292">
        <ele>253.4</ele>
        <time>2025-09-30T11:21:37.075Z</time>
      </trkpt>
      <trkpt lat="43.64365" lon="2.29204">
        <ele>253.8</ele>
        <time>2025-09-30T11:21:38.568Z</time>
      </trkpt>
      <trkpt lat="43.64366" lon="2.29207">
        <ele>254</ele>
        <time>2025-09-30T11:21:39.316Z</time>
      </trkpt>
      <trkpt lat="43.64367" lon="2.2921">
        <ele>254.4</ele>
        <time>2025-09-30T11:21:40.485Z</time>
      </trkpt>
      <trkpt lat="43.64368" lon="2.29213">
        <ele>254.8</ele>
        <time>2025-09-30T11:21:41.655Z</time>
      </trkpt>
      <trkpt lat="43.64368" lon="2.29216">
        <ele>255.2</ele>
        <time>2025-09-30T11:21:42.717Z</time>
      </trkpt>
      <trkpt lat="43.64369" lon="2.29218">
        <ele>255.6</ele>
        <time>2025-09-30T11:21:43.578Z</time>
      </trkpt>
      <trkpt lat="43.6437" lon="2.2922">
        <ele>256</ele>
        <time>2025-09-30T11:21:44.439Z</time>
      </trkpt>
      <trkpt lat="43.64371" lon="2.29223">
        <ele>256.4</ele>
        <time>2025-09-30T11:21:45.609Z</time>
      </trkpt>
      <trkpt lat="43.64373" lon="2.29225">
        <ele>257</ele>
        <time>2025-09-30T11:21:46.817Z</time>
      </trkpt>
      <trkpt lat="43.64374" lon="2.29227">
        <ele>257.4</ele>
        <time>2025-09-30T11:21:47.678Z</time>
      </trkpt>
      <trkpt lat="43.64376" lon="2.29229">
        <ele>257.8</ele>
        <time>2025-09-30T11:21:48.886Z</time>
      </trkpt>
      <trkpt lat="43.64377" lon="2.2923">
        <ele>258.2</ele>
        <time>2025-09-30T11:21:49.490Z</time>
      </trkpt>
      <trkpt lat="43.64379" lon="2.29232">
        <ele>258.6</ele>
        <time>2025-09-30T11:21:50.699Z</time>
      </trkpt>
      <trkpt lat="43.64388" lon="2.29241">
        <ele>260.4</ele>
        <time>2025-09-30T11:21:56.136Z</time>
      </trkpt>
      <trkpt lat="43.64391" lon="2.29243">
        <ele>260.4</ele>
        <time>2025-09-30T11:21:56.516Z</time>
      </trkpt>
      <trkpt lat="43.64393" lon="2.29244">
        <ele>260.2</ele>
        <time>2025-09-30T11:21:56.662Z</time>
      </trkpt>
      <trkpt lat="43.64396" lon="2.29245">
        <ele>260.2</ele>
        <time>2025-09-30T11:21:57.014Z</time>
      </trkpt>
      <trkpt lat="43.64398" lon="2.29246">
        <ele>260</ele>
        <time>2025-09-30T11:21:57.160Z</time>
      </trkpt>
      <trkpt lat="43.64401" lon="2.29247">
        <ele>260</ele>
        <time>2025-09-30T11:21:57.512Z</time>
      </trkpt>
      <trkpt lat="43.64405" lon="2.29248">
        <ele>259.8</ele>
        <time>2025-09-30T11:21:57.824Z</time>
      </trkpt>
      <trkpt lat="43.64408" lon="2.29249">
        <ele>259.8</ele>
        <time>2025-09-30T11:21:58.176Z</time>
      </trkpt>
      <trkpt lat="43.64411" lon="2.2925">
        <ele>259.6</ele>
        <time>2025-09-30T11:21:58.390Z</time>
      </trkpt>
      <trkpt lat="43.64415" lon="2.29252">
        <ele>259.4</ele>
        <time>2025-09-30T11:21:58.721Z</time>
      </trkpt>
      <trkpt lat="43.64419" lon="2.29253">
        <ele>259.2</ele>
        <time>2025-09-30T11:21:59.033Z</time>
      </trkpt>
      <trkpt lat="43.64423" lon="2.29254">
        <ele>259</ele>
        <time>2025-09-30T11:21:59.344Z</time>
      </trkpt>
      <trkpt lat="43.64427" lon="2.29255">
        <ele>259</ele>
        <time>2025-09-30T11:21:59.808Z</time>
      </trkpt>
      <trkpt lat="43.64431" lon="2.29257">
        <ele>258.8</ele>
        <time>2025-09-30T11:22:00.139Z</time>
      </trkpt>
      <trkpt lat="43.64434" lon="2.29258">
        <ele>258.8</ele>
        <time>2025-09-30T11:22:00.492Z</time>
      </trkpt>
      <trkpt lat="43.64437" lon="2.29259">
        <ele>258.6</ele>
        <time>2025-09-30T11:22:00.706Z</time>
      </trkpt>
      <trkpt lat="43.6444" lon="2.2926">
        <ele>258.6</ele>
        <time>2025-09-30T11:22:01.058Z</time>
      </trkpt>
      <trkpt lat="43.64442" lon="2.29261">
        <ele>258.6</ele>
        <time>2025-09-30T11:22:01.301Z</time>
      </trkpt>
      <trkpt lat="43.64443" lon="2.29261">
        <ele>258.6</ele>
        <time>2025-09-30T11:22:01.415Z</time>
      </trkpt>
      <trkpt lat="43.64445" lon="2.29261">
        <ele>258.6</ele>
        <time>2025-09-30T11:22:01.643Z</time>
      </trkpt>
      <trkpt lat="43.64446" lon="2.29262">
        <ele>258.6</ele>
        <time>2025-09-30T11:22:01.784Z</time>
      </trkpt>
      <trkpt lat="43.64447" lon="2.29262">
        <ele>258.6</ele>
        <time>2025-09-30T11:22:01.899Z</time>
      </trkpt>
      <trkpt lat="43.64448" lon="2.29262">
        <ele>258.8</ele>
        <time>2025-09-30T11:22:02.388Z</time>
      </trkpt>
      <trkpt lat="43.64449" lon="2.29263">
        <ele>258.8</ele>
        <time>2025-09-30T11:22:02.529Z</time>
      </trkpt>
      <trkpt lat="43.64474" lon="2.29267">
        <ele>259</ele>
        <time>2025-09-30T11:22:05.635Z</time>
      </trkpt>
      <trkpt lat="43.64476" lon="2.29268">
        <ele>259</ele>
        <time>2025-09-30T11:22:05.877Z</time>
      </trkpt>
      <trkpt lat="43.64478" lon="2.29268">
        <ele>259.2</ele>
        <time>2025-09-30T11:22:06.649Z</time>
      </trkpt>
      <trkpt lat="43.64481" lon="2.29268">
        <ele>259.2</ele>
        <time>2025-09-30T11:22:06.991Z</time>
      </trkpt>
      <trkpt lat="43.64483" lon="2.29268">
        <ele>259.4</ele>
        <time>2025-09-30T11:22:07.762Z</time>
      </trkpt>
      <trkpt lat="43.64485" lon="2.29268">
        <ele>259.4</ele>
        <time>2025-09-30T11:22:07.991Z</time>
      </trkpt>
      <trkpt lat="43.64487" lon="2.29267">
        <ele>259.6</ele>
        <time>2025-09-30T11:22:08.753Z</time>
      </trkpt>
      <trkpt lat="43.64489" lon="2.29267">
        <ele>259.8</ele>
        <time>2025-09-30T11:22:09.524Z</time>
      </trkpt>
      <trkpt lat="43.64491" lon="2.29266">
        <ele>260</ele>
        <time>2025-09-30T11:22:10.286Z</time>
      </trkpt>
      <trkpt lat="43.64493" lon="2.29265">
        <ele>260.2</ele>
        <time>2025-09-30T11:22:11.048Z</time>
      </trkpt>
      <trkpt lat="43.64494" lon="2.29264">
        <ele>260.4</ele>
        <time>2025-09-30T11:22:11.652Z</time>
      </trkpt>
      <trkpt lat="43.64497" lon="2.29263">
        <ele>260.6</ele>
        <time>2025-09-30T11:22:12.398Z</time>
      </trkpt>
      <trkpt lat="43.64499" lon="2.29263">
        <ele>260.8</ele>
        <time>2025-09-30T11:22:13.169Z</time>
      </trkpt>
      <trkpt lat="43.64501" lon="2.29262">
        <ele>261</ele>
        <time>2025-09-30T11:22:13.931Z</time>
      </trkpt>
      <trkpt lat="43.64502" lon="2.29261">
        <ele>261.2</ele>
        <time>2025-09-30T11:22:14.535Z</time>
      </trkpt>
      <trkpt lat="43.64504" lon="2.2926">
        <ele>261.4</ele>
        <time>2025-09-30T11:22:15.297Z</time>
      </trkpt>
      <trkpt lat="43.64506" lon="2.29258">
        <ele>261.6</ele>
        <time>2025-09-30T11:22:16.042Z</time>
      </trkpt>
      <trkpt lat="43.64508" lon="2.29257">
        <ele>261.8</ele>
        <time>2025-09-30T11:22:16.803Z</time>
      </trkpt>
      <trkpt lat="43.6451" lon="2.29256">
        <ele>262</ele>
        <time>2025-09-30T11:22:17.565Z</time>
      </trkpt>
      <trkpt lat="43.64512" lon="2.29255">
        <ele>262.2</ele>
        <time>2025-09-30T11:22:18.327Z</time>
      </trkpt>
      <trkpt lat="43.64514" lon="2.29253">
        <ele>262.4</ele>
        <time>2025-09-30T11:22:19.072Z</time>
      </trkpt>
      <trkpt lat="43.64516" lon="2.29252">
        <ele>262.4</ele>
        <time>2025-09-30T11:22:19.314Z</time>
      </trkpt>
      <trkpt lat="43.64518" lon="2.2925">
        <ele>262.6</ele>
        <time>2025-09-30T11:22:20.059Z</time>
      </trkpt>
      <trkpt lat="43.6452" lon="2.29249">
        <ele>262.8</ele>
        <time>2025-09-30T11:22:20.821Z</time>
      </trkpt>
      <trkpt lat="43.64522" lon="2.29247">
        <ele>263</ele>
        <time>2025-09-30T11:22:21.565Z</time>
      </trkpt>
      <trkpt lat="43.64523" lon="2.29245">
        <ele>263.2</ele>
        <time>2025-09-30T11:22:22.347Z</time>
      </trkpt>
      <trkpt lat="43.64524" lon="2.29243">
        <ele>263.2</ele>
        <time>2025-09-30T11:22:22.548Z</time>
      </trkpt>
      <trkpt lat="43.64525" lon="2.2924">
        <ele>263.2</ele>
        <time>2025-09-30T11:22:22.821Z</time>
      </trkpt>
      <trkpt lat="43.64526" lon="2.29238">
        <ele>263.4</ele>
        <time>2025-09-30T11:22:23.603Z</time>
      </trkpt>
      <trkpt lat="43.64527" lon="2.29235">
        <ele>263.4</ele>
        <time>2025-09-30T11:22:23.876Z</time>
      </trkpt>
      <trkpt lat="43.64528" lon="2.29233">
        <ele>263.4</ele>
        <time>2025-09-30T11:22:24.077Z</time>
      </trkpt>
      <trkpt lat="43.6453" lon="2.29232">
        <ele>263.4</ele>
        <time>2025-09-30T11:22:24.320Z</time>
      </trkpt>
      <trkpt lat="43.64531" lon="2.29232">
        <ele>263.6</ele>
        <time>2025-09-30T11:22:24.809Z</time>
      </trkpt>
      <trkpt lat="43.64533" lon="2.29234">
        <ele>263.8</ele>
        <time>2025-09-30T11:22:25.554Z</time>
      </trkpt>
      <trkpt lat="43.64533" lon="2.29236">
        <ele>264</ele>
        <time>2025-09-30T11:22:26.262Z</time>
      </trkpt>
      <trkpt lat="43.64533" lon="2.29239">
        <ele>264.2</ele>
        <time>2025-09-30T11:22:27.021Z</time>
      </trkpt>
      <trkpt lat="43.64533" lon="2.29241">
        <ele>264.4</ele>
        <time>2025-09-30T11:22:27.729Z</time>
      </trkpt>
      <trkpt lat="43.64532" lon="2.29244">
        <ele>264.6</ele>
        <time>2025-09-30T11:22:28.476Z</time>
      </trkpt>
      <trkpt lat="43.64531" lon="2.29247">
        <ele>265</ele>
        <time>2025-09-30T11:22:29.646Z</time>
      </trkpt>
      <trkpt lat="43.64531" lon="2.2925">
        <ele>265.2</ele>
        <time>2025-09-30T11:22:30.405Z</time>
      </trkpt>
      <trkpt lat="43.6453" lon="2.29252">
        <ele>265.4</ele>
        <time>2025-09-30T11:22:31.187Z</time>
      </trkpt>
      <trkpt lat="43.6453" lon="2.29255">
        <ele>265.8</ele>
        <time>2025-09-30T11:22:32.250Z</time>
      </trkpt>
      <trkpt lat="43.64529" lon="2.29258">
        <ele>266</ele>
        <time>2025-09-30T11:22:32.997Z</time>
      </trkpt>
      <trkpt lat="43.64528" lon="2.2926">
        <ele>266.2</ele>
        <time>2025-09-30T11:22:33.779Z</time>
      </trkpt>
      <trkpt lat="43.64527" lon="2.29263">
        <ele>266.6</ele>
        <time>2025-09-30T11:22:34.949Z</time>
      </trkpt>
      <trkpt lat="43.64527" lon="2.29265">
        <ele>266.8</ele>
        <time>2025-09-30T11:22:35.657Z</time>
      </trkpt>
      <trkpt lat="43.64526" lon="2.29268">
        <ele>267</ele>
        <time>2025-09-30T11:22:36.404Z</time>
      </trkpt>
      <trkpt lat="43.64525" lon="2.2927">
        <ele>267.4</ele>
        <time>2025-09-30T11:22:37.265Z</time>
      </trkpt>
      <trkpt lat="43.64525" lon="2.29273">
        <ele>267.6</ele>
        <time>2025-09-30T11:22:38.024Z</time>
      </trkpt>
      <trkpt lat="43.64524" lon="2.29275">
        <ele>268</ele>
        <time>2025-09-30T11:22:38.885Z</time>
      </trkpt>
      <trkpt lat="43.64523" lon="2.29278">
        <ele>268.2</ele>
        <time>2025-09-30T11:22:39.632Z</time>
      </trkpt>
      <trkpt lat="43.64523" lon="2.2928">
        <ele>268.4</ele>
        <time>2025-09-30T11:22:40.340Z</time>
      </trkpt>
      <trkpt lat="43.64522" lon="2.29282">
        <ele>268.8</ele>
        <time>2025-09-30T11:22:41.201Z</time>
      </trkpt>
      <trkpt lat="43.64521" lon="2.29284">
        <ele>269</ele>
        <time>2025-09-30T11:22:41.983Z</time>
      </trkpt>
      <trkpt lat="43.6452" lon="2.29287">
        <ele>269.2</ele>
        <time>2025-09-30T11:22:42.731Z</time>
      </trkpt>
      <trkpt lat="43.6452" lon="2.29289">
        <ele>269.4</ele>
        <time>2025-09-30T11:22:43.439Z</time>
      </trkpt>
      <trkpt lat="43.64519" lon="2.29292">
        <ele>269.8</ele>
        <time>2025-09-30T11:22:44.609Z</time>
      </trkpt>
      <trkpt lat="43.64519" lon="2.29295">
        <ele>270</ele>
        <time>2025-09-30T11:22:45.367Z</time>
      </trkpt>
      <trkpt lat="43.64519" lon="2.29297">
        <ele>270.4</ele>
        <time>2025-09-30T11:22:46.076Z</time>
      </trkpt>
      <trkpt lat="43.6452" lon="2.293">
        <ele>270.6</ele>
        <time>2025-09-30T11:22:46.823Z</time>
      </trkpt>
      <trkpt lat="43.64521" lon="2.29302">
        <ele>270.8</ele>
        <time>2025-09-30T11:22:47.605Z</time>
      </trkpt>
      <trkpt lat="43.64523" lon="2.29302">
        <ele>271.2</ele>
        <time>2025-09-30T11:22:48.584Z</time>
      </trkpt>
      <trkpt lat="43.64525" lon="2.293">
        <ele>271.4</ele>
        <time>2025-09-30T11:22:49.328Z</time>
      </trkpt>
      <trkpt lat="43.64527" lon="2.29298">
        <ele>271.6</ele>
        <time>2025-09-30T11:22:50.072Z</time>
      </trkpt>
      <trkpt lat="43.64528" lon="2.29295">
        <ele>271.8</ele>
        <time>2025-09-30T11:22:50.820Z</time>
      </trkpt>
      <trkpt lat="43.6453" lon="2.29292">
        <ele>272</ele>
        <time>2025-09-30T11:22:51.563Z</time>
      </trkpt>
      <trkpt lat="43.64532" lon="2.2929">
        <ele>272.2</ele>
        <time>2025-09-30T11:22:52.307Z</time>
      </trkpt>
      <trkpt lat="43.64534" lon="2.29287">
        <ele>272.2</ele>
        <time>2025-09-30T11:22:52.644Z</time>
      </trkpt>
      <trkpt lat="43.64536" lon="2.29284">
        <ele>272.4</ele>
        <time>2025-09-30T11:22:53.387Z</time>
      </trkpt>
      <trkpt lat="43.64538" lon="2.29281">
        <ele>272.6</ele>
        <time>2025-09-30T11:22:54.130Z</time>
      </trkpt>
      <trkpt lat="43.64541" lon="2.29278">
        <ele>272.6</ele>
        <time>2025-09-30T11:22:54.553Z</time>
      </trkpt>
      <trkpt lat="43.64543" lon="2.29275">
        <ele>272.8</ele>
        <time>2025-09-30T11:22:55.296Z</time>
      </trkpt>
      <trkpt lat="43.64545" lon="2.29272">
        <ele>272.8</ele>
        <time>2025-09-30T11:22:55.633Z</time>
      </trkpt>
      <trkpt lat="43.64547" lon="2.29269">
        <ele>272.8</ele>
        <time>2025-09-30T11:22:55.970Z</time>
      </trkpt>
      <trkpt lat="43.64549" lon="2.29266">
        <ele>273</ele>
        <time>2025-09-30T11:22:56.713Z</time>
      </trkpt>
      <trkpt lat="43.64551" lon="2.29263">
        <ele>273</ele>
        <time>2025-09-30T11:22:57.050Z</time>
      </trkpt>
      <trkpt lat="43.64553" lon="2.29261">
        <ele>273</ele>
        <time>2025-09-30T11:22:57.332Z</time>
      </trkpt>
      <trkpt lat="43.64555" lon="2.29258">
        <ele>273</ele>
        <time>2025-09-30T11:22:57.669Z</time>
      </trkpt>
      <trkpt lat="43.64557" lon="2.29256">
        <ele>273</ele>
        <time>2025-09-30T11:22:57.951Z</time>
      </trkpt>
      <trkpt lat="43.6456" lon="2.29253">
        <ele>273.2</ele>
        <time>2025-09-30T11:22:58.728Z</time>
      </trkpt>
      <trkpt lat="43.64562" lon="2.2925">
        <ele>273.2</ele>
        <time>2025-09-30T11:22:59.065Z</time>
      </trkpt>
      <trkpt lat="43.64564" lon="2.29248">
        <ele>273.2</ele>
        <time>2025-09-30T11:22:59.347Z</time>
      </trkpt>
      <trkpt lat="43.64567" lon="2.29245">
        <ele>273.2</ele>
        <time>2025-09-30T11:22:59.769Z</time>
      </trkpt>
      <trkpt lat="43.64569" lon="2.29243">
        <ele>273.4</ele>
        <time>2025-09-30T11:23:00.514Z</time>
      </trkpt>
      <trkpt lat="43.64572" lon="2.29241">
        <ele>273.4</ele>
        <time>2025-09-30T11:23:00.894Z</time>
      </trkpt>
      <trkpt lat="43.64574" lon="2.29239">
        <ele>273.4</ele>
        <time>2025-09-30T11:23:01.176Z</time>
      </trkpt>
      <trkpt lat="43.64576" lon="2.29236">
        <ele>273.4</ele>
        <time>2025-09-30T11:23:01.513Z</time>
      </trkpt>
      <trkpt lat="43.64578" lon="2.29234">
        <ele>273.6</ele>
        <time>2025-09-30T11:23:02.257Z</time>
      </trkpt>
      <trkpt lat="43.6458" lon="2.29231">
        <ele>273.6</ele>
        <time>2025-09-30T11:23:02.594Z</time>
      </trkpt>
      <trkpt lat="43.64582" lon="2.29229">
        <ele>273.6</ele>
        <time>2025-09-30T11:23:02.876Z</time>
      </trkpt>
      <trkpt lat="43.64584" lon="2.29228">
        <ele>273.6</ele>
        <time>2025-09-30T11:23:03.119Z</time>
      </trkpt>
      <trkpt lat="43.64586" lon="2.29227">
        <ele>273.8</ele>
        <time>2025-09-30T11:23:03.881Z</time>
      </trkpt>
      <trkpt lat="43.64588" lon="2.29226">
        <ele>273.8</ele>
        <time>2025-09-30T11:23:04.124Z</time>
      </trkpt>
      <trkpt lat="43.6459" lon="2.29225">
        <ele>273.8</ele>
        <time>2025-09-30T11:23:04.367Z</time>
      </trkpt>
      <trkpt lat="43.64592" lon="2.29223">
        <ele>274</ele>
        <time>2025-09-30T11:23:05.111Z</time>
      </trkpt>
      <trkpt lat="43.64593" lon="2.29222">
        <ele>274</ele>
        <time>2025-09-30T11:23:05.252Z</time>
      </trkpt>
      <trkpt lat="43.64595" lon="2.29221">
        <ele>274</ele>
        <time>2025-09-30T11:23:05.495Z</time>
      </trkpt>
      <trkpt lat="43.64597" lon="2.2922">
        <ele>274.2</ele>
        <time>2025-09-30T11:23:06.257Z</time>
      </trkpt>
      <trkpt lat="43.64598" lon="2.29219">
        <ele>274.2</ele>
        <time>2025-09-30T11:23:06.398Z</time>
      </trkpt>
      <trkpt lat="43.646" lon="2.29217">
        <ele>274.2</ele>
        <time>2025-09-30T11:23:06.680Z</time>
      </trkpt>
      <trkpt lat="43.64602" lon="2.29216">
        <ele>274.4</ele>
        <time>2025-09-30T11:23:07.442Z</time>
      </trkpt>
      <trkpt lat="43.64604" lon="2.29214">
        <ele>274.4</ele>
        <time>2025-09-30T11:23:07.724Z</time>
      </trkpt>
      <trkpt lat="43.64607" lon="2.29213">
        <ele>274.6</ele>
        <time>2025-09-30T11:23:08.470Z</time>
      </trkpt>
      <trkpt lat="43.64608" lon="2.29212">
        <ele>274.6</ele>
        <time>2025-09-30T11:23:08.611Z</time>
      </trkpt>
      <trkpt lat="43.6461" lon="2.2921">
        <ele>274.8</ele>
        <time>2025-09-30T11:23:09.355Z</time>
      </trkpt>
      <trkpt lat="43.64612" lon="2.29209">
        <ele>274.8</ele>
        <time>2025-09-30T11:23:09.598Z</time>
      </trkpt>
      <trkpt lat="43.64613" lon="2.29207">
        <ele>275</ele>
        <time>2025-09-30T11:23:10.381Z</time>
      </trkpt>
      <trkpt lat="43.64615" lon="2.29206">
        <ele>275</ele>
        <time>2025-09-30T11:23:10.623Z</time>
      </trkpt>
      <trkpt lat="43.64616" lon="2.29204">
        <ele>275.2</ele>
        <time>2025-09-30T11:23:11.406Z</time>
      </trkpt>
      <trkpt lat="43.64618" lon="2.29202">
        <ele>275.2</ele>
        <time>2025-09-30T11:23:11.688Z</time>
      </trkpt>
      <trkpt lat="43.64619" lon="2.292">
        <ele>275.4</ele>
        <time>2025-09-30T11:23:12.470Z</time>
      </trkpt>
      <trkpt lat="43.64621" lon="2.29198">
        <ele>275.6</ele>
        <time>2025-09-30T11:23:13.214Z</time>
      </trkpt>
      <trkpt lat="43.64622" lon="2.29196">
        <ele>275.6</ele>
        <time>2025-09-30T11:23:13.415Z</time>
      </trkpt>
      <trkpt lat="43.64624" lon="2.29195">
        <ele>275.8</ele>
        <time>2025-09-30T11:23:14.177Z</time>
      </trkpt>
      <trkpt lat="43.64625" lon="2.29193">
        <ele>275.8</ele>
        <time>2025-09-30T11:23:14.378Z</time>
      </trkpt>
      <trkpt lat="43.64626" lon="2.29192">
        <ele>276</ele>
        <time>2025-09-30T11:23:14.982Z</time>
      </trkpt>
      <trkpt lat="43.64627" lon="2.29191">
        <ele>276</ele>
        <time>2025-09-30T11:23:15.123Z</time>
      </trkpt>
      <trkpt lat="43.64628" lon="2.2919">
        <ele>276</ele>
        <time>2025-09-30T11:23:15.264Z</time>
      </trkpt>
      <trkpt lat="43.6463" lon="2.29189">
        <ele>276.2</ele>
        <time>2025-09-30T11:23:16.026Z</time>
      </trkpt>
      <trkpt lat="43.6463" lon="2.29187">
        <ele>276.2</ele>
        <time>2025-09-30T11:23:16.191Z</time>
      </trkpt>
      <trkpt lat="43.64632" lon="2.29186">
        <ele>276.2</ele>
        <time>2025-09-30T11:23:16.434Z</time>
      </trkpt>
      <trkpt lat="43.64633" lon="2.29185">
        <ele>276.2</ele>
        <time>2025-09-30T11:23:16.575Z</time>
      </trkpt>
      <trkpt lat="43.64634" lon="2.29184">
        <ele>276.4</ele>
        <time>2025-09-30T11:23:17.179Z</time>
      </trkpt>
      <trkpt lat="43.64635" lon="2.29183">
        <ele>276.4</ele>
        <time>2025-09-30T11:23:17.320Z</time>
      </trkpt>
      <trkpt lat="43.64637" lon="2.29182">
        <ele>276.4</ele>
        <time>2025-09-30T11:23:17.563Z</time>
      </trkpt>
      <trkpt lat="43.64639" lon="2.29179">
        <ele>276.6</ele>
        <time>2025-09-30T11:23:18.306Z</time>
      </trkpt>
      <trkpt lat="43.6464" lon="2.29177">
        <ele>276.6</ele>
        <time>2025-09-30T11:23:18.507Z</time>
      </trkpt>
      <trkpt lat="43.64641" lon="2.29174">
        <ele>276.6</ele>
        <time>2025-09-30T11:23:18.780Z</time>
      </trkpt>
      <trkpt lat="43.64642" lon="2.29172">
        <ele>276.6</ele>
        <time>2025-09-30T11:23:18.981Z</time>
      </trkpt>
      <trkpt lat="43.64643" lon="2.2917">
        <ele>276.6</ele>
        <time>2025-09-30T11:23:19.181Z</time>
      </trkpt>
      <trkpt lat="43.64644" lon="2.29168">
        <ele>276.4</ele>
        <time>2025-09-30T11:23:19.302Z</time>
      </trkpt>
      <trkpt lat="43.64646" lon="2.29165">
        <ele>276.4</ele>
        <time>2025-09-30T11:23:19.639Z</time>
      </trkpt>
      <trkpt lat="43.64647" lon="2.29163">
        <ele>276.4</ele>
        <time>2025-09-30T11:23:19.840Z</time>
      </trkpt>
      <trkpt lat="43.64649" lon="2.2916">
        <ele>276.4</ele>
        <time>2025-09-30T11:23:20.177Z</time>
      </trkpt>
      <trkpt lat="43.6465" lon="2.29156">
        <ele>276.2</ele>
        <time>2025-09-30T11:23:20.389Z</time>
      </trkpt>
      <trkpt lat="43.64652" lon="2.29152">
        <ele>276.2</ele>
        <time>2025-09-30T11:23:20.790Z</time>
      </trkpt>
      <trkpt lat="43.64654" lon="2.29148">
        <ele>276.2</ele>
        <time>2025-09-30T11:23:21.192Z</time>
      </trkpt>
      <trkpt lat="43.64656" lon="2.29143">
        <ele>276.2</ele>
        <time>2025-09-30T11:23:21.664Z</time>
      </trkpt>
      <trkpt lat="43.64659" lon="2.29137">
        <ele>276</ele>
        <time>2025-09-30T11:23:22.102Z</time>
      </trkpt>
      <trkpt lat="43.6466" lon="2.29132">
        <ele>275.8</ele>
        <time>2025-09-30T11:23:22.382Z</time>
      </trkpt>
      <trkpt lat="43.64662" lon="2.29126">
        <ele>275.8</ele>
        <time>2025-09-30T11:23:22.928Z</time>
      </trkpt>
      <trkpt lat="43.64664" lon="2.29119">
        <ele>275.6</ele>
        <time>2025-09-30T11:23:23.384Z</time>
      </trkpt>
      <trkpt lat="43.64665" lon="2.29113">
        <ele>275.4</ele>
        <time>2025-09-30T11:23:23.736Z</time>
      </trkpt>
      <trkpt lat="43.64665" lon="2.29108">
        <ele>275.2</ele>
        <time>2025-09-30T11:23:24.003Z</time>
      </trkpt>
      <trkpt lat="43.64665" lon="2.29103">
        <ele>275</ele>
        <time>2025-09-30T11:23:24.269Z</time>
      </trkpt>
      <trkpt lat="43.64665" lon="2.29098">
        <ele>274.8</ele>
        <time>2025-09-30T11:23:24.535Z</time>
      </trkpt>
      <trkpt lat="43.64665" lon="2.29093">
        <ele>274.6</ele>
        <time>2025-09-30T11:23:24.801Z</time>
      </trkpt>
      <trkpt lat="43.64664" lon="2.29088">
        <ele>274.4</ele>
        <time>2025-09-30T11:23:25.081Z</time>
      </trkpt>
      <trkpt lat="43.64664" lon="2.29083">
        <ele>274.2</ele>
        <time>2025-09-30T11:23:25.348Z</time>
      </trkpt>
      <trkpt lat="43.64663" lon="2.29077">
        <ele>274</ele>
        <time>2025-09-30T11:23:25.700Z</time>
      </trkpt>
      <trkpt lat="43.64662" lon="2.29071">
        <ele>273.8</ele>
        <time>2025-09-30T11:23:26.051Z</time>
      </trkpt>
      <trkpt lat="43.64661" lon="2.29065">
        <ele>273.6</ele>
        <time>2025-09-30T11:23:26.403Z</time>
      </trkpt>
      <trkpt lat="43.64661" lon="2.29059">
        <ele>273.4</ele>
        <time>2025-09-30T11:23:26.743Z</time>
      </trkpt>
      <trkpt lat="43.6466" lon="2.29052">
        <ele>273.2</ele>
        <time>2025-09-30T11:23:27.169Z</time>
      </trkpt>
      <trkpt lat="43.6466" lon="2.29045">
        <ele>272.8</ele>
        <time>2025-09-30T11:23:27.516Z</time>
      </trkpt>
      <trkpt lat="43.64659" lon="2.29039">
        <ele>272.6</ele>
        <time>2025-09-30T11:23:27.868Z</time>
      </trkpt>
      <trkpt lat="43.64659" lon="2.29032">
        <ele>272.4</ele>
        <time>2025-09-30T11:23:28.284Z</time>
      </trkpt>
      <trkpt lat="43.64659" lon="2.29025">
        <ele>272</ele>
        <time>2025-09-30T11:23:28.631Z</time>
      </trkpt>
      <trkpt lat="43.64659" lon="2.29017">
        <ele>271.8</ele>
        <time>2025-09-30T11:23:29.124Z</time>
      </trkpt>
      <trkpt lat="43.64659" lon="2.29009">
        <ele>271.6</ele>
        <time>2025-09-30T11:23:29.617Z</time>
      </trkpt>
      <trkpt lat="43.64659" lon="2.29">
        <ele>271.2</ele>
        <time>2025-09-30T11:23:30.078Z</time>
      </trkpt>
      <trkpt lat="43.6466" lon="2.28992">
        <ele>271</ele>
        <time>2025-09-30T11:23:30.580Z</time>
      </trkpt>
      <trkpt lat="43.64661" lon="2.28983">
        <ele>270.6</ele>
        <time>2025-09-30T11:23:31.048Z</time>
      </trkpt>
      <trkpt lat="43.64661" lon="2.28975">
        <ele>270.4</ele>
        <time>2025-09-30T11:23:31.541Z</time>
      </trkpt>
      <trkpt lat="43.64662" lon="2.28967">
        <ele>270</ele>
        <time>2025-09-30T11:23:31.944Z</time>
      </trkpt>
      <trkpt lat="43.64663" lon="2.28958">
        <ele>269.8</ele>
        <time>2025-09-30T11:23:32.523Z</time>
      </trkpt>
      <trkpt lat="43.64664" lon="2.2895">
        <ele>269.6</ele>
        <time>2025-09-30T11:23:33.025Z</time>
      </trkpt>
      <trkpt lat="43.64664" lon="2.28942">
        <ele>269.2</ele>
        <time>2025-09-30T11:23:33.422Z</time>
      </trkpt>
      <trkpt lat="43.64665" lon="2.28933">
        <ele>269</ele>
        <time>2025-09-30T11:23:34.001Z</time>
      </trkpt>
      <trkpt lat="43.64667" lon="2.28924">
        <ele>268.4</ele>
        <time>2025-09-30T11:23:34.468Z</time>
      </trkpt>
      <trkpt lat="43.64668" lon="2.28915">
        <ele>268</ele>
        <time>2025-09-30T11:23:34.936Z</time>
      </trkpt>
      <trkpt lat="43.64669" lon="2.28907">
        <ele>267.6</ele>
        <time>2025-09-30T11:23:35.339Z</time>
      </trkpt>
      <trkpt lat="43.6467" lon="2.289">
        <ele>267.2</ele>
        <time>2025-09-30T11:23:35.692Z</time>
      </trkpt>
      <trkpt lat="43.6467" lon="2.28893">
        <ele>266.8</ele>
        <time>2025-09-30T11:23:36.039Z</time>
      </trkpt>
      <trkpt lat="43.64672" lon="2.28885">
        <ele>266.2</ele>
        <time>2025-09-30T11:23:36.459Z</time>
      </trkpt>
      <trkpt lat="43.64673" lon="2.28878">
        <ele>265.8</ele>
        <time>2025-09-30T11:23:36.813Z</time>
      </trkpt>
      <trkpt lat="43.64674" lon="2.2887">
        <ele>265.4</ele>
        <time>2025-09-30T11:23:37.215Z</time>
      </trkpt>
      <trkpt lat="43.64675" lon="2.28862">
        <ele>264.8</ele>
        <time>2025-09-30T11:23:37.618Z</time>
      </trkpt>
      <trkpt lat="43.64676" lon="2.28854">
        <ele>264.4</ele>
        <time>2025-09-30T11:23:38.020Z</time>
      </trkpt>
      <trkpt lat="43.64677" lon="2.28847">
        <ele>264</ele>
        <time>2025-09-30T11:23:38.374Z</time>
      </trkpt>
      <trkpt lat="43.64678" lon="2.28839">
        <ele>263.6</ele>
        <time>2025-09-30T11:23:38.777Z</time>
      </trkpt>
      <trkpt lat="43.64679" lon="2.2883">
        <ele>263.2</ele>
        <time>2025-09-30T11:23:39.245Z</time>
      </trkpt>
      <trkpt lat="43.64681" lon="2.28821">
        <ele>262.6</ele>
        <time>2025-09-30T11:23:39.712Z</time>
      </trkpt>
      <trkpt lat="43.64683" lon="2.28812">
        <ele>262</ele>
        <time>2025-09-30T11:23:40.179Z</time>
      </trkpt>
      <trkpt lat="43.64685" lon="2.28804">
        <ele>261.4</ele>
        <time>2025-09-30T11:23:40.598Z</time>
      </trkpt>
      <trkpt lat="43.64688" lon="2.28797">
        <ele>260.8</ele>
        <time>2025-09-30T11:23:41.002Z</time>
      </trkpt>
      <trkpt lat="43.64692" lon="2.2879">
        <ele>260.4</ele>
        <time>2025-09-30T11:23:41.457Z</time>
      </trkpt>
      <trkpt lat="43.64696" lon="2.28784">
        <ele>259.8</ele>
        <time>2025-09-30T11:23:41.861Z</time>
      </trkpt>
      <trkpt lat="43.647" lon="2.28778">
        <ele>259.2</ele>
        <time>2025-09-30T11:23:42.266Z</time>
      </trkpt>
      <trkpt lat="43.64704" lon="2.28772">
        <ele>258.8</ele>
        <time>2025-09-30T11:23:42.670Z</time>
      </trkpt>
      <trkpt lat="43.64708" lon="2.28767">
        <ele>258.4</ele>
        <time>2025-09-30T11:23:43.040Z</time>
      </trkpt>
      <trkpt lat="43.64713" lon="2.28762">
        <ele>257.8</ele>
        <time>2025-09-30T11:23:43.463Z</time>
      </trkpt>
      <trkpt lat="43.64717" lon="2.28758">
        <ele>257.2</ele>
        <time>2025-09-30T11:23:43.801Z</time>
      </trkpt>
      <trkpt lat="43.64722" lon="2.28753">
        <ele>256.6</ele>
        <time>2025-09-30T11:23:44.224Z</time>
      </trkpt>
      <trkpt lat="43.64727" lon="2.28747">
        <ele>256</ele>
        <time>2025-09-30T11:23:44.677Z</time>
      </trkpt>
      <trkpt lat="43.64732" lon="2.2874">
        <ele>255.6</ele>
        <time>2025-09-30T11:23:45.198Z</time>
      </trkpt>
      <trkpt lat="43.64736" lon="2.28733">
        <ele>255</ele>
        <time>2025-09-30T11:23:45.640Z</time>
      </trkpt>
      <trkpt lat="43.6474" lon="2.28726">
        <ele>254.6</ele>
        <time>2025-09-30T11:23:46.096Z</time>
      </trkpt>
      <trkpt lat="43.64744" lon="2.28719">
        <ele>254.2</ele>
        <time>2025-09-30T11:23:46.551Z</time>
      </trkpt>
      <trkpt lat="43.64747" lon="2.28711">
        <ele>253.8</ele>
        <time>2025-09-30T11:23:47.012Z</time>
      </trkpt>
      <trkpt lat="43.6475" lon="2.28703">
        <ele>253.4</ele>
        <time>2025-09-30T11:23:47.474Z</time>
      </trkpt>
      <trkpt lat="43.64752" lon="2.28694">
        <ele>253</ele>
        <time>2025-09-30T11:23:47.965Z</time>
      </trkpt>
      <trkpt lat="43.64753" lon="2.28684">
        <ele>252.8</ele>
        <time>2025-09-30T11:23:48.622Z</time>
      </trkpt>
      <trkpt lat="43.64753" lon="2.28675">
        <ele>252.6</ele>
        <time>2025-09-30T11:23:49.193Z</time>
      </trkpt>
      <trkpt lat="43.64752" lon="2.28666">
        <ele>252.4</ele>
        <time>2025-09-30T11:23:49.772Z</time>
      </trkpt>
      <trkpt lat="43.6475" lon="2.28658">
        <ele>252.2</ele>
        <time>2025-09-30T11:23:50.301Z</time>
      </trkpt>
      <trkpt lat="43.64748" lon="2.2865">
        <ele>252.2</ele>
        <time>2025-09-30T11:23:51.001Z</time>
      </trkpt>
      <trkpt lat="43.64746" lon="2.28642">
        <ele>252</ele>
        <time>2025-09-30T11:23:51.530Z</time>
      </trkpt>
      <trkpt lat="43.64745" lon="2.28637">
        <ele>251.8</ele>
        <time>2025-09-30T11:23:51.810Z</time>
      </trkpt>
      <trkpt lat="43.64743" lon="2.28632">
        <ele>251.6</ele>
        <time>2025-09-30T11:23:52.128Z</time>
      </trkpt>
      <trkpt lat="43.64741" lon="2.28627">
        <ele>251.4</ele>
        <time>2025-09-30T11:23:52.447Z</time>
      </trkpt>
      <trkpt lat="43.6474" lon="2.28624">
        <ele>251.2</ele>
        <time>2025-09-30T11:23:52.611Z</time>
      </trkpt>
      <trkpt lat="43.64739" lon="2.28621">
        <ele>251.2</ele>
        <time>2025-09-30T11:23:52.884Z</time>
      </trkpt>
      <trkpt lat="43.64738" lon="2.28618">
        <ele>251</ele>
        <time>2025-09-30T11:23:53.047Z</time>
      </trkpt>
      <trkpt lat="43.64737" lon="2.28615">
        <ele>251</ele>
        <time>2025-09-30T11:23:53.320Z</time>
      </trkpt>
      <trkpt lat="43.64736" lon="2.28613">
        <ele>250.8</ele>
        <time>2025-09-30T11:23:53.441Z</time>
      </trkpt>
      <trkpt lat="43.64735" lon="2.28611">
        <ele>250.8</ele>
        <time>2025-09-30T11:23:53.642Z</time>
      </trkpt>
      <trkpt lat="43.64734" lon="2.28609">
        <ele>250.8</ele>
        <time>2025-09-30T11:23:53.843Z</time>
      </trkpt>
      <trkpt lat="43.64734" lon="2.28607">
        <ele>250.6</ele>
        <time>2025-09-30T11:23:53.942Z</time>
      </trkpt>
      <trkpt lat="43.64734" lon="2.28606">
        <ele>250.6</ele>
        <time>2025-09-30T11:23:54.024Z</time>
      </trkpt>
      <trkpt lat="43.64732" lon="2.28604">
        <ele>250.6</ele>
        <time>2025-09-30T11:23:54.306Z</time>
      </trkpt>
      <trkpt lat="43.64731" lon="2.28604">
        <ele>250.6</ele>
        <time>2025-09-30T11:23:54.420Z</time>
      </trkpt>
      <trkpt lat="43.64731" lon="2.28606">
        <ele>250.6</ele>
        <time>2025-09-30T11:23:54.586Z</time>
      </trkpt>
      <trkpt lat="43.64732" lon="2.28608">
        <ele>250.8</ele>
        <time>2025-09-30T11:23:55.368Z</time>
      </trkpt>
      <trkpt lat="43.64733" lon="2.28608">
        <ele>250.8</ele>
        <time>2025-09-30T11:23:55.482Z</time>
      </trkpt>
      <trkpt lat="43.64735" lon="2.28608">
        <ele>251</ele>
        <time>2025-09-30T11:23:56.253Z</time>
      </trkpt>
      <trkpt lat="43.64737" lon="2.28608">
        <ele>251</ele>
        <time>2025-09-30T11:23:56.482Z</time>
      </trkpt>
      <trkpt lat="43.64739" lon="2.28608">
        <ele>251</ele>
        <time>2025-09-30T11:23:56.710Z</time>
      </trkpt>
      <trkpt lat="43.64741" lon="2.28608">
        <ele>251</ele>
        <time>2025-09-30T11:23:56.939Z</time>
      </trkpt>
      <trkpt lat="43.64743" lon="2.28609">
        <ele>251</ele>
        <time>2025-09-30T11:23:57.181Z</time>
      </trkpt>
      <trkpt lat="43.64745" lon="2.2861">
        <ele>251</ele>
        <time>2025-09-30T11:23:57.424Z</time>
      </trkpt>
      <trkpt lat="43.64747" lon="2.28613">
        <ele>251</ele>
        <time>2025-09-30T11:23:57.761Z</time>
      </trkpt>
      <trkpt lat="43.6475" lon="2.28615">
        <ele>251</ele>
        <time>2025-09-30T11:23:58.142Z</time>
      </trkpt>
      <trkpt lat="43.64752" lon="2.28617">
        <ele>251</ele>
        <time>2025-09-30T11:23:58.424Z</time>
      </trkpt>
      <trkpt lat="43.64755" lon="2.2862">
        <ele>250.8</ele>
        <time>2025-09-30T11:23:58.698Z</time>
      </trkpt>
      <trkpt lat="43.64758" lon="2.28623">
        <ele>250.8</ele>
        <time>2025-09-30T11:23:59.121Z</time>
      </trkpt>
      <trkpt lat="43.64761" lon="2.28627">
        <ele>250.6</ele>
        <time>2025-09-30T11:23:59.443Z</time>
      </trkpt>
      <trkpt lat="43.64764" lon="2.28632">
        <ele>250.4</ele>
        <time>2025-09-30T11:23:59.821Z</time>
      </trkpt>
      <trkpt lat="43.64767" lon="2.28636">
        <ele>250.4</ele>
        <time>2025-09-30T11:24:00.297Z</time>
      </trkpt>
      <trkpt lat="43.64771" lon="2.2864">
        <ele>250.2</ele>
        <time>2025-09-30T11:24:00.699Z</time>
      </trkpt>
      <trkpt lat="43.64774" lon="2.28644">
        <ele>250.2</ele>
        <time>2025-09-30T11:24:01.175Z</time>
      </trkpt>
      <trkpt lat="43.64777" lon="2.28648">
        <ele>250</ele>
        <time>2025-09-30T11:24:01.497Z</time>
      </trkpt>
      <trkpt lat="43.6478" lon="2.28651">
        <ele>249.8</ele>
        <time>2025-09-30T11:24:01.772Z</time>
      </trkpt>
      <trkpt lat="43.64782" lon="2.28653">
        <ele>249.8</ele>
        <time>2025-09-30T11:24:02.054Z</time>
      </trkpt>
      <trkpt lat="43.64785" lon="2.28656">
        <ele>249.6</ele>
        <time>2025-09-30T11:24:02.329Z</time>
      </trkpt>
      <trkpt lat="43.64788" lon="2.28659">
        <ele>249.6</ele>
        <time>2025-09-30T11:24:02.752Z</time>
      </trkpt>
      <trkpt lat="43.64791" lon="2.28662">
        <ele>249.6</ele>
        <time>2025-09-30T11:24:03.175Z</time>
      </trkpt>
      <trkpt lat="43.64794" lon="2.28665">
        <ele>249.4</ele>
        <time>2025-09-30T11:24:03.449Z</time>
      </trkpt>
      <trkpt lat="43.64797" lon="2.28668">
        <ele>249.4</ele>
        <time>2025-09-30T11:24:03.872Z</time>
      </trkpt>
      <trkpt lat="43.64799" lon="2.2867">
        <ele>249.4</ele>
        <time>2025-09-30T11:24:04.154Z</time>
      </trkpt>
      <trkpt lat="43.64802" lon="2.28673">
        <ele>249.4</ele>
        <time>2025-09-30T11:24:04.577Z</time>
      </trkpt>
      <trkpt lat="43.64805" lon="2.28675">
        <ele>249.4</ele>
        <time>2025-09-30T11:24:04.957Z</time>
      </trkpt>
      <trkpt lat="43.64809" lon="2.28678">
        <ele>249.4</ele>
        <time>2025-09-30T11:24:05.477Z</time>
      </trkpt>
      <trkpt lat="43.64812" lon="2.2868">
        <ele>249.4</ele>
        <time>2025-09-30T11:24:05.858Z</time>
      </trkpt>
      <trkpt lat="43.64815" lon="2.28682">
        <ele>249.4</ele>
        <time>2025-09-30T11:24:06.238Z</time>
      </trkpt>
      <trkpt lat="43.64818" lon="2.28683">
        <ele>249.4</ele>
        <time>2025-09-30T11:24:06.590Z</time>
      </trkpt>
      <trkpt lat="43.64821" lon="2.28684">
        <ele>249.4</ele>
        <time>2025-09-30T11:24:06.943Z</time>
      </trkpt>
      <trkpt lat="43.64824" lon="2.28685">
        <ele>249.4</ele>
        <time>2025-09-30T11:24:07.295Z</time>
      </trkpt>
      <trkpt lat="43.64828" lon="2.28686">
        <ele>249.2</ele>
        <time>2025-09-30T11:24:07.607Z</time>
        <extensions>
          <visugpx:TrkExtension xmlns:visugpx="https://www.visugpx.com/editgpx/">
            <visugpx:node>1</visugpx:node>
            </visugpx:TrkExtension>
        </extensions>
      </trkpt>
      <trkpt lat="43.6484" lon="2.28691">
        <ele>313.8</ele>
      </trkpt>
      <trkpt lat="43.64857" lon="2.28685">
        <ele>311.6</ele>
      </trkpt>
      <trkpt lat="43.64849" lon="2.2872">
        <ele>312</ele>
      </trkpt>
      <trkpt lat="43.64852" lon="2.28748">
        <ele>309.6</ele>
      </trkpt>
      <trkpt lat="43.64864" lon="2.28777">
        <ele>306.9</ele>
      </trkpt>
      <trkpt lat="43.64866" lon="2.28794">
        <ele>304.9</ele>
      </trkpt>
      <trkpt lat="43.64856" lon="2.28818">
        <ele>303.2</ele>
      </trkpt>
      <trkpt lat="43.64849" lon="2.28826">
        <ele>303</ele>
      </trkpt>
      <trkpt lat="43.6484" lon="2.28828">
        <ele>304.4</ele>
      </trkpt>
      <trkpt lat="43.6483" lon="2.28831">
        <ele>305.6</ele>
      </trkpt>
      <trkpt lat="43.64824" lon="2.2884">
        <ele>304.7</ele>
      </trkpt>
      <trkpt lat="43.64818" lon="2.2886">
        <ele>302.8</ele>
      </trkpt>
      <trkpt lat="43.64816" lon="2.28884">
        <ele>301.8</ele>
      </trkpt>
      <trkpt lat="43.64815" lon="2.28901">
        <ele>301.7</ele>
      </trkpt>
      <trkpt lat="43.64821" lon="2.28911">
        <ele>300.2</ele>
      </trkpt>
      <trkpt lat="43.64828" lon="2.28913">
        <ele>298.2</ele>
      </trkpt>
      <trkpt lat="43.64905" lon="2.28908">
        <ele>285.3</ele>
      </trkpt>
      <trkpt lat="43.64919" lon="2.28912">
        <ele>282.8</ele>
      </trkpt>
      <trkpt lat="43.64926" lon="2.28919">
        <ele>281</ele>
      </trkpt>
      <trkpt lat="43.64926" lon="2.28934">
        <ele>279.7</ele>
      </trkpt>
      <trkpt lat="43.64924" lon="2.28957">
        <ele>279</ele>
      </trkpt>
      <trkpt lat="43.64931" lon="2.28963">
        <ele>276.5</ele>
      </trkpt>
      <trkpt lat="43.64941" lon="2.28949">
        <ele>273.8</ele>
      </trkpt>
      <trkpt lat="43.64958" lon="2.28912">
        <ele>269.1</ele>
      </trkpt>
      <trkpt lat="43.64966" lon="2.28887">
        <ele>266.2</ele>
      </trkpt>
      <trkpt lat="43.64968" lon="2.28863">
        <ele>264.5</ele>
      </trkpt>
      <trkpt lat="43.64977" lon="2.28846">
        <ele>263.9</ele>
      </trkpt>
      <trkpt lat="43.64985" lon="2.28823">
        <ele>263.6</ele>
      </trkpt>
      <trkpt lat="43.64989" lon="2.28823">
        <ele>262</ele>
      </trkpt>
      <trkpt lat="43.64991" lon="2.28829">
        <ele>260.3</ele>
      </trkpt>
      <trkpt lat="43.6499" lon="2.28866">
        <ele>258.7</ele>
      </trkpt>
      <trkpt lat="43.64992" lon="2.28873">
        <ele>259.5</ele>
      </trkpt>
      <trkpt lat="43.64997" lon="2.28874">
        <ele>258.7</ele>
      </trkpt>
      <trkpt lat="43.65004" lon="2.28867">
        <ele>257.8</ele>
      </trkpt>
      <trkpt lat="43.65024" lon="2.28835">
        <ele>256.4</ele>
      </trkpt>
      <trkpt lat="43.65047" lon="2.28815">
        <ele>251.9</ele>
        <extensions>
          <visugpx:TrkExtension xmlns:visugpx="https://www.visugpx.com/editgpx/">
            <visugpx:node>2</visugpx:node>
            </visugpx:TrkExtension>
        </extensions>
      </trkpt>
      <trkpt lat="43.65061" lon="2.28803">
        <ele>248.7</ele>
      </trkpt>
      <trkpt lat="43.65078" lon="2.28793">
        <ele>246</ele>
      </trkpt>
      <trkpt lat="43.65147" lon="2.28793">
        <ele>248.5</ele>
      </trkpt>
      <trkpt lat="43.65187" lon="2.28785">
        <ele>249.8</ele>
        <extensions>
          <visugpx:TrkExtension xmlns:visugpx="https://www.visugpx.com/editgpx/">
            <visugpx:node>3</visugpx:node>
            </visugpx:TrkExtension>
        </extensions>
      </trkpt>
      <trkpt lat="43.65206" lon="2.28781">
        <ele>250.2</ele>
        <extensions>
          <visugpx:TrkExtension xmlns:visugpx="https://www.visugpx.com/editgpx/">
            <visugpx:node>4</visugpx:node>
            </visugpx:TrkExtension>
        </extensions>
      </trkpt>
      <trkpt lat="43.65195" lon="2.28769">
        <ele>245.8</ele>
        <extensions>
          <visugpx:TrkExtension xmlns:visugpx="https://www.visugpx.com/editgpx/">
            <visugpx:node>5</visugpx:node>
            </visugpx:TrkExtension>
        </extensions>
      </trkpt>
      <trkpt lat="43.65154" lon="2.28728">
        <ele>244.4</ele>
      </trkpt>
      <trkpt lat="43.65128" lon="2.28664">
        <ele>256.8</ele>
      </trkpt>
      <trkpt lat="43.65115" lon="2.28609">
        <ele>258.7</ele>
      </trkpt>
      <trkpt lat="43.65106" lon="2.28578">
        <ele>260.6</ele>
        <extensions>
          <visugpx:TrkExtension xmlns:visugpx="https://www.visugpx.com/editgpx/">
            <visugpx:node>6</visugpx:node>
            </visugpx:TrkExtension>
        </extensions>
      </trkpt>
      <trkpt lat="43.65103" lon="2.28575">
        <ele>189.6</ele>
        <time>2025-09-30T11:25:08.717Z</time>
      </trkpt>
      <trkpt lat="43.65101" lon="2.28571">
        <ele>189.8</ele>
        <time>2025-09-30T11:25:09.483Z</time>
      </trkpt>
      <trkpt lat="43.65099" lon="2.28563">
        <ele>189.8</ele>
        <time>2025-09-30T11:25:10.182Z</time>
      </trkpt>
      <trkpt lat="43.65098" lon="2.28554">
        <ele>190</ele>
        <time>2025-09-30T11:25:11.217Z</time>
      </trkpt>
      <trkpt lat="43.65094" lon="2.28548">
        <ele>190</ele>
        <time>2025-09-30T11:25:11.891Z</time>
      </trkpt>
      <trkpt lat="43.65091" lon="2.28543">
        <ele>190.2</ele>
        <time>2025-09-30T11:25:12.744Z</time>
      </trkpt>
      <trkpt lat="43.65089" lon="2.28539">
        <ele>190.2</ele>
        <time>2025-09-30T11:25:13.145Z</time>
      </trkpt>
      <trkpt lat="43.65087" lon="2.28536">
        <ele>190.4</ele>
        <time>2025-09-30T11:25:13.889Z</time>
      </trkpt>
      <trkpt lat="43.65086" lon="2.28533">
        <ele>190.4</ele>
        <time>2025-09-30T11:25:14.161Z</time>
      </trkpt>
      <trkpt lat="43.65085" lon="2.28529">
        <ele>190.4</ele>
        <time>2025-09-30T11:25:14.511Z</time>
      </trkpt>
      <trkpt lat="43.65083" lon="2.28526">
        <ele>190.6</ele>
        <time>2025-09-30T11:25:15.254Z</time>
      </trkpt>
      <trkpt lat="43.65081" lon="2.28524">
        <ele>190.6</ele>
        <time>2025-09-30T11:25:15.536Z</time>
      </trkpt>
      <trkpt lat="43.65079" lon="2.28521">
        <ele>190.6</ele>
        <time>2025-09-30T11:25:15.873Z</time>
      </trkpt>
      <trkpt lat="43.65077" lon="2.28518">
        <ele>190.8</ele>
        <time>2025-09-30T11:25:16.616Z</time>
      </trkpt>
      <trkpt lat="43.65075" lon="2.28516">
        <ele>190.8</ele>
        <time>2025-09-30T11:25:16.898Z</time>
      </trkpt>
      <trkpt lat="43.65073" lon="2.28514">
        <ele>190.8</ele>
        <time>2025-09-30T11:25:17.180Z</time>
      </trkpt>
      <trkpt lat="43.6507" lon="2.28511">
        <ele>191</ele>
        <time>2025-09-30T11:25:17.957Z</time>
      </trkpt>
      <trkpt lat="43.65069" lon="2.28509">
        <ele>191</ele>
        <time>2025-09-30T11:25:18.157Z</time>
      </trkpt>
      <trkpt lat="43.65068" lon="2.28506">
        <ele>191</ele>
        <time>2025-09-30T11:25:18.430Z</time>
      </trkpt>
      <trkpt lat="43.65066" lon="2.28504">
        <ele>191</ele>
        <time>2025-09-30T11:25:18.712Z</time>
      </trkpt>
      <trkpt lat="43.65064" lon="2.28502">
        <ele>191.2</ele>
        <time>2025-09-30T11:25:19.457Z</time>
      </trkpt>
      <trkpt lat="43.65062" lon="2.28499">
        <ele>191.2</ele>
        <time>2025-09-30T11:25:19.794Z</time>
      </trkpt>
      <trkpt lat="43.6506" lon="2.28497">
        <ele>191.2</ele>
        <time>2025-09-30T11:25:20.075Z</time>
      </trkpt>
      <trkpt lat="43.65059" lon="2.28495">
        <ele>191.4</ele>
        <time>2025-09-30T11:25:20.858Z</time>
      </trkpt>
      <trkpt lat="43.65057" lon="2.28494">
        <ele>191.4</ele>
        <time>2025-09-30T11:25:21.101Z</time>
      </trkpt>
      <trkpt lat="43.65055" lon="2.28493">
        <ele>191.4</ele>
        <time>2025-09-30T11:25:21.344Z</time>
      </trkpt>
      <trkpt lat="43.65053" lon="2.2849">
        <ele>191.6</ele>
        <time>2025-09-30T11:25:22.087Z</time>
      </trkpt>
      <trkpt lat="43.65051" lon="2.28488">
        <ele>191.6</ele>
        <time>2025-09-30T11:25:22.368Z</time>
      </trkpt>
      <trkpt lat="43.65049" lon="2.28485">
        <ele>191.8</ele>
        <time>2025-09-30T11:25:23.111Z</time>
      </trkpt>
      <trkpt lat="43.65047" lon="2.28483">
        <ele>192</ele>
        <time>2025-09-30T11:25:23.856Z</time>
      </trkpt>
      <trkpt lat="43.65045" lon="2.28481">
        <ele>192</ele>
        <time>2025-09-30T11:25:24.138Z</time>
      </trkpt>
      <trkpt lat="43.65042" lon="2.28479">
        <ele>192.2</ele>
        <time>2025-09-30T11:25:24.894Z</time>
      </trkpt>
      <trkpt lat="43.6504" lon="2.28477">
        <ele>192.2</ele>
        <time>2025-09-30T11:25:25.176Z</time>
      </trkpt>
      <trkpt lat="43.65038" lon="2.28476">
        <ele>192.4</ele>
        <time>2025-09-30T11:25:25.938Z</time>
      </trkpt>
      <trkpt lat="43.65035" lon="2.28473">
        <ele>192.4</ele>
        <time>2025-09-30T11:25:26.360Z</time>
      </trkpt>
      <trkpt lat="43.65033" lon="2.28471">
        <ele>192.4</ele>
        <time>2025-09-30T11:25:26.642Z</time>
      </trkpt>
      <trkpt lat="43.6503" lon="2.28469">
        <ele>192.6</ele>
        <time>2025-09-30T11:25:27.398Z</time>
      </trkpt>
      <trkpt lat="43.65028" lon="2.28467">
        <ele>192.6</ele>
        <time>2025-09-30T11:25:27.680Z</time>
      </trkpt>
      <trkpt lat="43.65025" lon="2.28465">
        <ele>192.8</ele>
        <time>2025-09-30T11:25:28.436Z</time>
      </trkpt>
      <trkpt lat="43.65023" lon="2.28463">
        <ele>192.8</ele>
        <time>2025-09-30T11:25:28.718Z</time>
      </trkpt>
      <trkpt lat="43.65021" lon="2.28461">
        <ele>193</ele>
        <time>2025-09-30T11:25:29.463Z</time>
      </trkpt>
      <trkpt lat="43.65019" lon="2.2846">
        <ele>193</ele>
        <time>2025-09-30T11:25:29.706Z</time>
      </trkpt>
      <trkpt lat="43.65017" lon="2.28458">
        <ele>193.2</ele>
        <time>2025-09-30T11:25:30.450Z</time>
      </trkpt>
      <trkpt lat="43.65015" lon="2.28457">
        <ele>193.2</ele>
        <time>2025-09-30T11:25:30.693Z</time>
      </trkpt>
      <trkpt lat="43.65012" lon="2.28456">
        <ele>193.2</ele>
        <time>2025-09-30T11:25:31.045Z</time>
      </trkpt>
      <trkpt lat="43.65009" lon="2.28455">
        <ele>193.4</ele>
        <time>2025-09-30T11:25:31.792Z</time>
      </trkpt>
      <trkpt lat="43.65007" lon="2.28454">
        <ele>193.4</ele>
        <time>2025-09-30T11:25:32.035Z</time>
      </trkpt>
      <trkpt lat="43.65006" lon="2.28453">
        <ele>193.4</ele>
        <time>2025-09-30T11:25:32.175Z</time>
      </trkpt>
      <trkpt lat="43.65004" lon="2.28451">
        <ele>193.4</ele>
        <time>2025-09-30T11:25:32.457Z</time>
      </trkpt>
      <trkpt lat="43.65002" lon="2.2845">
        <ele>193.6</ele>
        <time>2025-09-30T11:25:33.219Z</time>
      </trkpt>
      <trkpt lat="43.65" lon="2.28449">
        <ele>193.6</ele>
        <time>2025-09-30T11:25:33.462Z</time>
      </trkpt>
      <trkpt lat="43.64998" lon="2.28448">
        <ele>193.6</ele>
        <time>2025-09-30T11:25:33.705Z</time>
      </trkpt>
      <trkpt lat="43.64996" lon="2.28446">
        <ele>193.8</ele>
        <time>2025-09-30T11:25:34.449Z</time>
      </trkpt>
      <trkpt lat="43.64993" lon="2.28445">
        <ele>193.8</ele>
        <time>2025-09-30T11:25:34.802Z</time>
      </trkpt>
      <trkpt lat="43.64991" lon="2.28443">
        <ele>194</ele>
        <time>2025-09-30T11:25:35.546Z</time>
      </trkpt>
      <trkpt lat="43.64988" lon="2.28441">
        <ele>194</ele>
        <time>2025-09-30T11:25:35.926Z</time>
      </trkpt>
      <trkpt lat="43.64986" lon="2.28439">
        <ele>194</ele>
        <time>2025-09-30T11:25:36.208Z</time>
      </trkpt>
      <trkpt lat="43.64984" lon="2.28438">
        <ele>194.2</ele>
        <time>2025-09-30T11:25:36.970Z</time>
      </trkpt>
      <trkpt lat="43.64981" lon="2.28435">
        <ele>194.2</ele>
        <time>2025-09-30T11:25:37.393Z</time>
      </trkpt>
      <trkpt lat="43.64979" lon="2.28433">
        <ele>194.4</ele>
        <time>2025-09-30T11:25:38.137Z</time>
      </trkpt>
      <trkpt lat="43.64978" lon="2.28431">
        <ele>194.4</ele>
        <time>2025-09-30T11:25:38.338Z</time>
      </trkpt>
      <trkpt lat="43.64976" lon="2.28429">
        <ele>194.4</ele>
        <time>2025-09-30T11:25:38.620Z</time>
      </trkpt>
      <trkpt lat="43.64974" lon="2.28426">
        <ele>194.6</ele>
        <time>2025-09-30T11:25:39.363Z</time>
      </trkpt>
      <trkpt lat="43.64972" lon="2.28424">
        <ele>194.6</ele>
        <time>2025-09-30T11:25:39.645Z</time>
      </trkpt>
      <trkpt lat="43.6497" lon="2.28422">
        <ele>194.8</ele>
        <time>2025-09-30T11:25:40.389Z</time>
      </trkpt>
      <trkpt lat="43.64969" lon="2.2842">
        <ele>194.8</ele>
        <time>2025-09-30T11:25:40.590Z</time>
      </trkpt>
      <trkpt lat="43.64967" lon="2.28418">
        <ele>195</ele>
        <time>2025-09-30T11:25:41.335Z</time>
      </trkpt>
      <trkpt lat="43.64965" lon="2.28416">
        <ele>195</ele>
        <time>2025-09-30T11:25:41.616Z</time>
      </trkpt>
      <trkpt lat="43.64964" lon="2.28415">
        <ele>195.2</ele>
        <time>2025-09-30T11:25:42.221Z</time>
      </trkpt>
      <trkpt lat="43.64962" lon="2.28412">
        <ele>195.2</ele>
        <time>2025-09-30T11:25:42.558Z</time>
      </trkpt>
      <trkpt lat="43.64962" lon="2.2841">
        <ele>195.2</ele>
        <time>2025-09-30T11:25:42.723Z</time>
      </trkpt>
      <trkpt lat="43.64962" lon="2.28409">
        <ele>195.2</ele>
        <time>2025-09-30T11:25:42.805Z</time>
      </trkpt>
      <trkpt lat="43.64962" lon="2.28407">
        <ele>195.2</ele>
        <time>2025-09-30T11:25:42.971Z</time>
      </trkpt>
      <trkpt lat="43.64962" lon="2.28406">
        <ele>195.2</ele>
        <time>2025-09-30T11:25:43.053Z</time>
      </trkpt>
      <trkpt lat="43.64961" lon="2.28404">
        <ele>195.2</ele>
        <time>2025-09-30T11:25:43.254Z</time>
      </trkpt>
      <trkpt lat="43.64961" lon="2.28403">
        <ele>195.2</ele>
        <time>2025-09-30T11:25:43.337Z</time>
      </trkpt>
      <trkpt lat="43.64962" lon="2.28399">
        <ele>195.2</ele>
        <time>2025-09-30T11:25:43.686Z</time>
      </trkpt>
      <trkpt lat="43.64963" lon="2.28397">
        <ele>195.2</ele>
        <time>2025-09-30T11:25:43.887Z</time>
      </trkpt>
      <trkpt lat="43.64964" lon="2.28396">
        <ele>195</ele>
        <time>2025-09-30T11:25:43.972Z</time>
      </trkpt>
      <trkpt lat="43.64966" lon="2.28395">
        <ele>194.8</ele>
        <time>2025-09-30T11:25:44.118Z</time>
      </trkpt>
      <trkpt lat="43.64969" lon="2.28393">
        <ele>194.2</ele>
        <time>2025-09-30T11:25:44.346Z</time>
      </trkpt>
      <trkpt lat="43.64971" lon="2.28392">
        <ele>193.6</ele>
        <time>2025-09-30T11:25:44.492Z</time>
      </trkpt>
      <trkpt lat="43.64973" lon="2.2839">
        <ele>192.8</ele>
        <time>2025-09-30T11:25:44.661Z</time>
      </trkpt>
      <trkpt lat="43.64975" lon="2.28388">
        <ele>192</ele>
        <time>2025-09-30T11:25:44.830Z</time>
      </trkpt>
      <trkpt lat="43.64977" lon="2.28386">
        <ele>191.2</ele>
        <time>2025-09-30T11:25:44.999Z</time>
      </trkpt>
      <trkpt lat="43.64979" lon="2.28383">
        <ele>190.2</ele>
        <time>2025-09-30T11:25:45.201Z</time>
      </trkpt>
      <trkpt lat="43.6498" lon="2.28379">
        <ele>189.4</ele>
        <time>2025-09-30T11:25:45.411Z</time>
      </trkpt>
      <trkpt lat="43.64981" lon="2.28375">
        <ele>188.4</ele>
        <time>2025-09-30T11:25:45.621Z</time>
      </trkpt>
      <trkpt lat="43.64981" lon="2.28371">
        <ele>187.4</ele>
        <time>2025-09-30T11:25:45.819Z</time>
      </trkpt>
      <trkpt lat="43.64981" lon="2.28367">
        <ele>186.2</ele>
        <time>2025-09-30T11:25:46.017Z</time>
      </trkpt>
      <trkpt lat="43.64981" lon="2.28363">
        <ele>185.2</ele>
        <time>2025-09-30T11:25:46.216Z</time>
      </trkpt>
      <trkpt lat="43.64981" lon="2.28358">
        <ele>184</ele>
        <time>2025-09-30T11:25:46.464Z</time>
      </trkpt>
      <trkpt lat="43.64982" lon="2.28354">
        <ele>183</ele>
        <time>2025-09-30T11:25:46.673Z</time>
      </trkpt>
      <trkpt lat="43.64982" lon="2.2835">
        <ele>182</ele>
        <time>2025-09-30T11:25:46.872Z</time>
      </trkpt>
      <trkpt lat="43.64983" lon="2.28345">
        <ele>181</ele>
        <time>2025-09-30T11:25:47.129Z</time>
      </trkpt>
      <trkpt lat="43.64983" lon="2.28342">
        <ele>180.2</ele>
        <time>2025-09-30T11:25:47.278Z</time>
      </trkpt>
      <trkpt lat="43.64983" lon="2.28338">
        <ele>179.2</ele>
        <time>2025-09-30T11:25:47.476Z</time>
      </trkpt>
      <trkpt lat="43.64982" lon="2.28334">
        <ele>178.4</ele>
        <time>2025-09-30T11:25:47.686Z</time>
      </trkpt>
      <trkpt lat="43.64982" lon="2.28331">
        <ele>177.6</ele>
        <time>2025-09-30T11:25:47.835Z</time>
      </trkpt>
      <trkpt lat="43.64981" lon="2.28327">
        <ele>176.6</ele>
        <time>2025-09-30T11:25:48.044Z</time>
      </trkpt>
      <trkpt lat="43.6498" lon="2.28324">
        <ele>175.8</ele>
        <time>2025-09-30T11:25:48.208Z</time>
      </trkpt>
      <trkpt lat="43.6498" lon="2.2832">
        <ele>174.8</ele>
        <time>2025-09-30T11:25:48.406Z</time>
      </trkpt>
      <trkpt lat="43.64979" lon="2.28316">
        <ele>174</ele>
        <time>2025-09-30T11:25:48.616Z</time>
      </trkpt>
      <trkpt lat="43.64978" lon="2.28313">
        <ele>173.2</ele>
        <time>2025-09-30T11:25:48.780Z</time>
      </trkpt>
      <trkpt lat="43.64976" lon="2.28312">
        <ele>172.4</ele>
        <time>2025-09-30T11:25:48.926Z</time>
      </trkpt>
      <trkpt lat="43.64975" lon="2.2831">
        <ele>171.6</ele>
        <time>2025-09-30T11:25:49.046Z</time>
      </trkpt>
      <trkpt lat="43.64972" lon="2.28308">
        <ele>171</ele>
        <time>2025-09-30T11:25:49.274Z</time>
      </trkpt>
      <trkpt lat="43.6497" lon="2.28307">
        <ele>170.4</ele>
        <time>2025-09-30T11:25:49.420Z</time>
      </trkpt>
      <trkpt lat="43.64969" lon="2.28305">
        <ele>169.8</ele>
        <time>2025-09-30T11:25:49.541Z</time>
      </trkpt>
      <trkpt lat="43.64968" lon="2.28304">
        <ele>169.2</ele>
        <time>2025-09-30T11:25:49.625Z</time>
      </trkpt>
      <trkpt lat="43.64968" lon="2.28303">
        <ele>169</ele>
        <time>2025-09-30T11:25:49.675Z</time>
      </trkpt>
      <trkpt lat="43.64967" lon="2.28302">
        <ele>168.6</ele>
        <time>2025-09-30T11:25:49.759Z</time>
      </trkpt>
      <trkpt lat="43.64967" lon="2.28301">
        <ele>168.4</ele>
        <time>2025-09-30T11:25:49.809Z</time>
      </trkpt>
      <trkpt lat="43.64966" lon="2.283">
        <ele>168.4</ele>
        <time>2025-09-30T11:25:49.950Z</time>
      </trkpt>
      <trkpt lat="43.64966" lon="2.28299">
        <ele>168.2</ele>
        <time>2025-09-30T11:25:49.999Z</time>
      </trkpt>
      <trkpt lat="43.64965" lon="2.28298">
        <ele>167.6</ele>
        <time>2025-09-30T11:25:50.084Z</time>
      </trkpt>
      <trkpt lat="43.64964" lon="2.28297">
        <ele>167.6</ele>
        <time>2025-09-30T11:25:50.225Z</time>
      </trkpt>
      <trkpt lat="43.64964" lon="2.28296">
        <ele>167.6</ele>
        <time>2025-09-30T11:25:50.308Z</time>
      </trkpt>
      <trkpt lat="43.64963" lon="2.28295">
        <ele>167.6</ele>
        <time>2025-09-30T11:25:50.449Z</time>
      </trkpt>
      <trkpt lat="43.64963" lon="2.28294">
        <ele>167.6</ele>
        <time>2025-09-30T11:25:50.531Z</time>
      </trkpt>
      <trkpt lat="43.64962" lon="2.28293">
        <ele>167.6</ele>
        <time>2025-09-30T11:25:50.672Z</time>
      </trkpt>
      <trkpt lat="43.64962" lon="2.28292">
        <ele>167.6</ele>
        <time>2025-09-30T11:25:50.755Z</time>
      </trkpt>
      <trkpt lat="43.64961" lon="2.28291">
        <ele>167.8</ele>
        <time>2025-09-30T11:25:51.359Z</time>
      </trkpt>
      <trkpt lat="43.64961" lon="2.2829">
        <ele>167.8</ele>
        <time>2025-09-30T11:25:51.441Z</time>
      </trkpt>
      <trkpt lat="43.6496" lon="2.28289">
        <ele>168</ele>
        <time>2025-09-30T11:25:52.046Z</time>
      </trkpt>
      <trkpt lat="43.6496" lon="2.28288">
        <ele>168</ele>
        <time>2025-09-30T11:25:52.128Z</time>
      </trkpt>
      <trkpt lat="43.64959" lon="2.28287">
        <ele>168.2</ele>
        <time>2025-09-30T11:25:52.732Z</time>
      </trkpt>
      <trkpt lat="43.64959" lon="2.28283">
        <ele>168.6</ele>
        <time>2025-09-30T11:25:54.149Z</time>
      </trkpt>
      <trkpt lat="43.64959" lon="2.2828">
        <ele>168.8</ele>
        <time>2025-09-30T11:25:54.908Z</time>
      </trkpt>
      <trkpt lat="43.6496" lon="2.28278">
        <ele>169.4</ele>
        <time>2025-09-30T11:25:55.768Z</time>
      </trkpt>
      <trkpt lat="43.64961" lon="2.28275">
        <ele>169.8</ele>
        <time>2025-09-30T11:25:56.938Z</time>
      </trkpt>
      <trkpt lat="43.64962" lon="2.28272">
        <ele>170.2</ele>
        <time>2025-09-30T11:25:58.108Z</time>
      </trkpt>
      <trkpt lat="43.64962" lon="2.2827">
        <ele>170.6</ele>
        <time>2025-09-30T11:25:58.816Z</time>
      </trkpt>
      <trkpt lat="43.64963" lon="2.28267">
        <ele>171.2</ele>
        <time>2025-09-30T11:25:59.986Z</time>
      </trkpt>
      <trkpt lat="43.64964" lon="2.28264">
        <ele>171.6</ele>
        <time>2025-09-30T11:26:01.155Z</time>
      </trkpt>
      <trkpt lat="43.64964" lon="2.28261">
        <ele>172.2</ele>
        <time>2025-09-30T11:26:02.218Z</time>
      </trkpt>
      <trkpt lat="43.64965" lon="2.28259">
        <ele>172.6</ele>
        <time>2025-09-30T11:26:03.079Z</time>
      </trkpt>
      <trkpt lat="43.64965" lon="2.28256">
        <ele>173</ele>
        <time>2025-09-30T11:26:04.141Z</time>
      </trkpt>
      <trkpt lat="43.64966" lon="2.28254">
        <ele>173.4</ele>
        <time>2025-09-30T11:26:05.002Z</time>
      </trkpt>
      <trkpt lat="43.64967" lon="2.28251">
        <ele>173.8</ele>
        <time>2025-09-30T11:26:06.171Z</time>
      </trkpt>
      <trkpt lat="43.64967" lon="2.28249">
        <ele>174.2</ele>
        <time>2025-09-30T11:26:06.880Z</time>
      </trkpt>
      <trkpt lat="43.64968" lon="2.28247">
        <ele>174.6</ele>
        <time>2025-09-30T11:26:07.741Z</time>
      </trkpt>
      <trkpt lat="43.64968" lon="2.28245">
        <ele>174.8</ele>
        <time>2025-09-30T11:26:08.449Z</time>
      </trkpt>
      <trkpt lat="43.64969" lon="2.28242">
        <ele>175.2</ele>
        <time>2025-09-30T11:26:09.618Z</time>
      </trkpt>
      <trkpt lat="43.6497" lon="2.28239">
        <ele>175.6</ele>
        <time>2025-09-30T11:26:10.788Z</time>
      </trkpt>
      <trkpt lat="43.64969" lon="2.28237">
        <ele>175.8</ele>
        <time>2025-09-30T11:26:11.570Z</time>
      </trkpt>
      <trkpt lat="43.6497" lon="2.28235">
        <ele>176.2</ele>
        <time>2025-09-30T11:26:12.431Z</time>
      </trkpt>
      <trkpt lat="43.6497" lon="2.28233">
        <ele>176.4</ele>
        <time>2025-09-30T11:26:13.139Z</time>
      </trkpt>
      <trkpt lat="43.64969" lon="2.28231">
        <ele>176.8</ele>
        <time>2025-09-30T11:26:14.000Z</time>
      </trkpt>
      <trkpt lat="43.64969" lon="2.28229">
        <ele>177</ele>
        <time>2025-09-30T11:26:14.709Z</time>
      </trkpt>
      <trkpt lat="43.6497" lon="2.28227">
        <ele>177.2</ele>
        <time>2025-09-30T11:26:15.491Z</time>
      </trkpt>
      <trkpt lat="43.6497" lon="2.28225">
        <ele>177.6</ele>
        <time>2025-09-30T11:26:16.199Z</time>
      </trkpt>
      <trkpt lat="43.6497" lon="2.28222">
        <ele>177.8</ele>
        <time>2025-09-30T11:26:16.958Z</time>
      </trkpt>
      <trkpt lat="43.6497" lon="2.2822">
        <ele>178</ele>
        <time>2025-09-30T11:26:17.666Z</time>
      </trkpt>
      <trkpt lat="43.6497" lon="2.28217">
        <ele>178.2</ele>
        <time>2025-09-30T11:26:18.425Z</time>
      </trkpt>
      <trkpt lat="43.6497" lon="2.28215">
        <ele>178.4</ele>
        <time>2025-09-30T11:26:19.133Z</time>
      </trkpt>
      <trkpt lat="43.6497" lon="2.28213">
        <ele>178.6</ele>
        <time>2025-09-30T11:26:19.842Z</time>
      </trkpt>
      <trkpt lat="43.6497" lon="2.28211">
        <ele>178.6</ele>
        <time>2025-09-30T11:26:20.007Z</time>
      </trkpt>
      <trkpt lat="43.64971" lon="2.28208">
        <ele>178.8</ele>
        <time>2025-09-30T11:26:20.754Z</time>
      </trkpt>
      <trkpt lat="43.64972" lon="2.28206">
        <ele>179</ele>
        <time>2025-09-30T11:26:21.536Z</time>
      </trkpt>
      <trkpt lat="43.64972" lon="2.28203">
        <ele>179</ele>
        <time>2025-09-30T11:26:21.784Z</time>
      </trkpt>
      <trkpt lat="43.64973" lon="2.28201">
        <ele>179.2</ele>
        <time>2025-09-30T11:26:22.567Z</time>
      </trkpt>
      <trkpt lat="43.64973" lon="2.28198">
        <ele>179.2</ele>
        <time>2025-09-30T11:26:22.814Z</time>
      </trkpt>
      <trkpt lat="43.64974" lon="2.28196">
        <ele>179.2</ele>
        <time>2025-09-30T11:26:23.015Z</time>
      </trkpt>
      <trkpt lat="43.64974" lon="2.28193">
        <ele>179.4</ele>
        <time>2025-09-30T11:26:23.774Z</time>
      </trkpt>
      <trkpt lat="43.64975" lon="2.2819">
        <ele>179.4</ele>
        <time>2025-09-30T11:26:24.047Z</time>
      </trkpt>
      <trkpt lat="43.64975" lon="2.28187">
        <ele>179.4</ele>
        <time>2025-09-30T11:26:24.295Z</time>
      </trkpt>
      <trkpt lat="43.64975" lon="2.28184">
        <ele>179.6</ele>
        <time>2025-09-30T11:26:25.054Z</time>
      </trkpt>
      <trkpt lat="43.64976" lon="2.2818">
        <ele>179.6</ele>
        <time>2025-09-30T11:26:25.404Z</time>
      </trkpt>
      <trkpt lat="43.64976" lon="2.28177">
        <ele>179.6</ele>
        <time>2025-09-30T11:26:25.651Z</time>
      </trkpt>
      <trkpt lat="43.64977" lon="2.28173">
        <ele>179.6</ele>
        <time>2025-09-30T11:26:26.001Z</time>
      </trkpt>
      <trkpt lat="43.64979" lon="2.2817">
        <ele>179.6</ele>
        <time>2025-09-30T11:26:26.338Z</time>
      </trkpt>
      <trkpt lat="43.64979" lon="2.28167">
        <ele>179.8</ele>
        <time>2025-09-30T11:26:27.097Z</time>
      </trkpt>
      <trkpt lat="43.6498" lon="2.28164">
        <ele>179.8</ele>
        <time>2025-09-30T11:26:27.370Z</time>
      </trkpt>
      <trkpt lat="43.64981" lon="2.28161">
        <ele>179.8</ele>
        <time>2025-09-30T11:26:27.643Z</time>
      </trkpt>
      <trkpt lat="43.64982" lon="2.28158">
        <ele>179.8</ele>
        <time>2025-09-30T11:26:27.916Z</time>
      </trkpt>
      <trkpt lat="43.64982" lon="2.28155">
        <ele>179.8</ele>
        <time>2025-09-30T11:26:28.164Z</time>
      </trkpt>
      <trkpt lat="43.64983" lon="2.28153">
        <ele>179.8</ele>
        <time>2025-09-30T11:26:28.365Z</time>
      </trkpt>
      <trkpt lat="43.64983" lon="2.2815">
        <ele>179.8</ele>
        <time>2025-09-30T11:26:28.612Z</time>
      </trkpt>
      <trkpt lat="43.64984" lon="2.28148">
        <ele>179.8</ele>
        <time>2025-09-30T11:26:28.813Z</time>
      </trkpt>
      <trkpt lat="43.64985" lon="2.28146">
        <ele>180</ele>
        <time>2025-09-30T11:26:29.596Z</time>
      </trkpt>
      <trkpt lat="43.64986" lon="2.28143">
        <ele>180</ele>
        <time>2025-09-30T11:26:29.869Z</time>
      </trkpt>
      <trkpt lat="43.64987" lon="2.28141">
        <ele>180</ele>
        <time>2025-09-30T11:26:30.069Z</time>
      </trkpt>
      <trkpt lat="43.64987" lon="2.28138">
        <ele>180.2</ele>
        <time>2025-09-30T11:26:30.828Z</time>
      </trkpt>
      <trkpt lat="43.64988" lon="2.28136">
        <ele>180.2</ele>
        <time>2025-09-30T11:26:31.029Z</time>
      </trkpt>
      <trkpt lat="43.64987" lon="2.28133">
        <ele>180.4</ele>
        <time>2025-09-30T11:26:31.776Z</time>
      </trkpt>
      <trkpt lat="43.64987" lon="2.28131">
        <ele>180.4</ele>
        <time>2025-09-30T11:26:31.942Z</time>
      </trkpt>
      <trkpt lat="43.64986" lon="2.28129">
        <ele>180.4</ele>
        <time>2025-09-30T11:26:32.142Z</time>
      </trkpt>
      <trkpt lat="43.64984" lon="2.28125">
        <ele>180.6</ele>
        <time>2025-09-30T11:26:32.908Z</time>
      </trkpt>
      <trkpt lat="43.64982" lon="2.2812">
        <ele>180.6</ele>
        <time>2025-09-30T11:26:33.380Z</time>
      </trkpt>
      <trkpt lat="43.6498" lon="2.28115">
        <ele>180.6</ele>
        <time>2025-09-30T11:26:33.852Z</time>
      </trkpt>
      <trkpt lat="43.64979" lon="2.28113">
        <ele>180.6</ele>
        <time>2025-09-30T11:26:34.053Z</time>
      </trkpt>
      <trkpt lat="43.64978" lon="2.28114">
        <ele>180.8</ele>
        <time>2025-09-30T11:26:34.657Z</time>
      </trkpt>
      <trkpt lat="43.64975" lon="2.28112">
        <ele>180.8</ele>
        <time>2025-09-30T11:26:35.037Z</time>
      </trkpt>
      <trkpt lat="43.64974" lon="2.2811">
        <ele>180.8</ele>
        <time>2025-09-30T11:26:35.238Z</time>
      </trkpt>
      <trkpt lat="43.64974" lon="2.28106">
        <ele>180.8</ele>
        <time>2025-09-30T11:26:35.569Z</time>
      </trkpt>
      <trkpt lat="43.64974" lon="2.28104">
        <ele>180.8</ele>
        <time>2025-09-30T11:26:35.734Z</time>
      </trkpt>
      <trkpt lat="43.64974" lon="2.28102">
        <ele>180.8</ele>
        <time>2025-09-30T11:26:35.899Z</time>
      </trkpt>
      <trkpt lat="43.64975" lon="2.281">
        <ele>180.8</ele>
        <time>2025-09-30T11:26:36.100Z</time>
      </trkpt>
      <trkpt lat="43.64977" lon="2.28099">
        <ele>180.8</ele>
        <time>2025-09-30T11:26:36.343Z</time>
      </trkpt>
      <trkpt lat="43.64979" lon="2.28098">
        <ele>180.8</ele>
        <time>2025-09-30T11:26:36.586Z</time>
      </trkpt>
      <trkpt lat="43.6498" lon="2.28097">
        <ele>180.8</ele>
        <time>2025-09-30T11:26:36.727Z</time>
      </trkpt>
      <trkpt lat="43.64982" lon="2.28097">
        <ele>180.8</ele>
        <time>2025-09-30T11:26:36.955Z</time>
      </trkpt>
      <trkpt lat="43.64984" lon="2.28096">
        <ele>180.8</ele>
        <time>2025-09-30T11:26:37.198Z</time>
      </trkpt>
      <trkpt lat="43.64986" lon="2.28095">
        <ele>180.8</ele>
        <time>2025-09-30T11:26:37.441Z</time>
      </trkpt>
      <trkpt lat="43.64987" lon="2.28094">
        <ele>180.8</ele>
        <time>2025-09-30T11:26:37.582Z</time>
      </trkpt>
      <trkpt lat="43.64989" lon="2.28093">
        <ele>181</ele>
        <time>2025-09-30T11:26:38.344Z</time>
      </trkpt>
      <trkpt lat="43.6499" lon="2.28091">
        <ele>181</ele>
        <time>2025-09-30T11:26:38.545Z</time>
      </trkpt>
      <trkpt lat="43.64992" lon="2.2809">
        <ele>181.2</ele>
        <time>2025-09-30T11:26:39.307Z</time>
      </trkpt>
      <trkpt lat="43.64993" lon="2.28089">
        <ele>181.4</ele>
        <time>2025-09-30T11:26:39.911Z</time>
      </trkpt>
      <trkpt lat="43.64995" lon="2.28087">
        <ele>181.6</ele>
        <time>2025-09-30T11:26:40.655Z</time>
      </trkpt>
      <trkpt lat="43.64997" lon="2.28086">
        <ele>181.8</ele>
        <time>2025-09-30T11:26:41.417Z</time>
      </trkpt>
      <trkpt lat="43.64998" lon="2.28084">
        <ele>182</ele>
        <time>2025-09-30T11:26:42.199Z</time>
      </trkpt>
      <trkpt lat="43.64999" lon="2.28082">
        <ele>182.2</ele>
        <time>2025-09-30T11:26:42.982Z</time>
      </trkpt>
      <trkpt lat="43.65" lon="2.28081">
        <ele>182.4</ele>
        <time>2025-09-30T11:26:43.586Z</time>
      </trkpt>
      <trkpt lat="43.65002" lon="2.28079">
        <ele>182.6</ele>
        <time>2025-09-30T11:26:44.330Z</time>
      </trkpt>
      <trkpt lat="43.65003" lon="2.28076">
        <ele>182.6</ele>
        <time>2025-09-30T11:26:44.603Z</time>
      </trkpt>
      <trkpt lat="43.65004" lon="2.28073">
        <ele>182.8</ele>
        <time>2025-09-30T11:26:45.350Z</time>
      </trkpt>
      <trkpt lat="43.65005" lon="2.2807">
        <ele>182.8</ele>
        <time>2025-09-30T11:26:45.623Z</time>
      </trkpt>
      <trkpt lat="43.65005" lon="2.28066">
        <ele>183</ele>
        <time>2025-09-30T11:26:46.365Z</time>
      </trkpt>
      <trkpt lat="43.65006" lon="2.28063">
        <ele>183</ele>
        <time>2025-09-30T11:26:46.638Z</time>
      </trkpt>
      <trkpt lat="43.65007" lon="2.2806">
        <ele>183.2</ele>
        <time>2025-09-30T11:26:47.385Z</time>
      </trkpt>
      <trkpt lat="43.65008" lon="2.28057">
        <ele>183.2</ele>
        <time>2025-09-30T11:26:47.658Z</time>
      </trkpt>
      <trkpt lat="43.65009" lon="2.28054">
        <ele>183.2</ele>
        <time>2025-09-30T11:26:47.931Z</time>
      </trkpt>
      <trkpt lat="43.6501" lon="2.28051">
        <ele>183.4</ele>
        <time>2025-09-30T11:26:48.678Z</time>
      </trkpt>
      <trkpt lat="43.65011" lon="2.28048">
        <ele>183.4</ele>
        <time>2025-09-30T11:26:48.951Z</time>
      </trkpt>
      <trkpt lat="43.65011" lon="2.28045">
        <ele>183.6</ele>
        <time>2025-09-30T11:26:49.710Z</time>
      </trkpt>
      <trkpt lat="43.65012" lon="2.28042">
        <ele>183.6</ele>
        <time>2025-09-30T11:26:49.983Z</time>
      </trkpt>
      <trkpt lat="43.65013" lon="2.2804">
        <ele>183.8</ele>
        <time>2025-09-30T11:26:50.765Z</time>
      </trkpt>
      <trkpt lat="43.65014" lon="2.28038">
        <ele>183.8</ele>
        <time>2025-09-30T11:26:50.966Z</time>
      </trkpt>
      <trkpt lat="43.65015" lon="2.28035">
        <ele>184</ele>
        <time>2025-09-30T11:26:51.713Z</time>
      </trkpt>
      <trkpt lat="43.65016" lon="2.28033">
        <ele>184</ele>
        <time>2025-09-30T11:26:51.914Z</time>
      </trkpt>
      <trkpt lat="43.65016" lon="2.28031">
        <ele>184</ele>
        <time>2025-09-30T11:26:52.079Z</time>
      </trkpt>
      <trkpt lat="43.65017" lon="2.2803">
        <ele>184.2</ele>
        <time>2025-09-30T11:26:52.683Z</time>
      </trkpt>
      <trkpt lat="43.65018" lon="2.28029">
        <ele>184.2</ele>
        <time>2025-09-30T11:26:52.824Z</time>
      </trkpt>
      <trkpt lat="43.65022" lon="2.28022">
        <ele>184.4</ele>
        <time>2025-09-30T11:26:53.845Z</time>
      </trkpt>
      <trkpt lat="43.65022" lon="2.28021">
        <ele>184.2</ele>
        <time>2025-09-30T11:26:53.894Z</time>
      </trkpt>
      <trkpt lat="43.65022" lon="2.2802">
        <ele>184</ele>
        <time>2025-09-30T11:26:53.944Z</time>
      </trkpt>
      <trkpt lat="43.65024" lon="2.28014">
        <ele>183.8</ele>
        <time>2025-09-30T11:26:54.329Z</time>
      </trkpt>
      <trkpt lat="43.65024" lon="2.28012">
        <ele>183.8</ele>
        <time>2025-09-30T11:26:54.495Z</time>
      </trkpt>
      <trkpt lat="43.65024" lon="2.28011">
        <ele>183.8</ele>
        <time>2025-09-30T11:26:54.577Z</time>
      </trkpt>
      <trkpt lat="43.65025" lon="2.28009">
        <ele>183.8</ele>
        <time>2025-09-30T11:26:54.778Z</time>
      </trkpt>
      <trkpt lat="43.65025" lon="2.28007">
        <ele>184</ele>
        <time>2025-09-30T11:26:55.486Z</time>
      </trkpt>
      <trkpt lat="43.65025" lon="2.28004">
        <ele>184</ele>
        <time>2025-09-30T11:26:55.734Z</time>
      </trkpt>
      <trkpt lat="43.65025" lon="2.28002">
        <ele>184</ele>
        <time>2025-09-30T11:26:55.899Z</time>
      </trkpt>
      <trkpt lat="43.65026" lon="2.27999">
        <ele>184.2</ele>
        <time>2025-09-30T11:26:56.647Z</time>
      </trkpt>
      <trkpt lat="43.65026" lon="2.27996">
        <ele>184.4</ele>
        <time>2025-09-30T11:26:57.405Z</time>
      </trkpt>
      <trkpt lat="43.65027" lon="2.27993">
        <ele>184.4</ele>
        <time>2025-09-30T11:26:57.678Z</time>
      </trkpt>
      <trkpt lat="43.65028" lon="2.27991">
        <ele>184.6</ele>
        <time>2025-09-30T11:26:58.461Z</time>
      </trkpt>
      <trkpt lat="43.65029" lon="2.27989">
        <ele>184.8</ele>
        <time>2025-09-30T11:26:59.243Z</time>
      </trkpt>
      <trkpt lat="43.6503" lon="2.27988">
        <ele>185</ele>
        <time>2025-09-30T11:26:59.847Z</time>
      </trkpt>
      <trkpt lat="43.65031" lon="2.27985">
        <ele>185.2</ele>
        <time>2025-09-30T11:27:00.594Z</time>
      </trkpt>
      <trkpt lat="43.65031" lon="2.27983">
        <ele>185.4</ele>
        <time>2025-09-30T11:27:01.302Z</time>
      </trkpt>
      <trkpt lat="43.65031" lon="2.2798">
        <ele>185.6</ele>
        <time>2025-09-30T11:27:02.061Z</time>
      </trkpt>
      <trkpt lat="43.65032" lon="2.27978">
        <ele>185.8</ele>
        <time>2025-09-30T11:27:02.844Z</time>
      </trkpt>
      <trkpt lat="43.65032" lon="2.27975">
        <ele>186</ele>
        <time>2025-09-30T11:27:03.603Z</time>
      </trkpt>
      <trkpt lat="43.65033" lon="2.27973">
        <ele>186.4</ele>
        <time>2025-09-30T11:27:04.463Z</time>
      </trkpt>
      <trkpt lat="43.65033" lon="2.27971">
        <ele>186.6</ele>
        <time>2025-09-30T11:27:05.172Z</time>
      </trkpt>
      <trkpt lat="43.65033" lon="2.27969">
        <ele>186.8</ele>
        <time>2025-09-30T11:27:05.880Z</time>
      </trkpt>
      <trkpt lat="43.65033" lon="2.27967">
        <ele>187.2</ele>
        <time>2025-09-30T11:27:06.588Z</time>
      </trkpt>
      <trkpt lat="43.65034" lon="2.27965">
        <ele>187.4</ele>
        <time>2025-09-30T11:27:07.370Z</time>
      </trkpt>
      <trkpt lat="43.65034" lon="2.27964">
        <ele>187.8</ele>
        <time>2025-09-30T11:27:07.725Z</time>
      </trkpt>
      <trkpt lat="43.65034" lon="2.27962">
        <ele>188</ele>
        <time>2025-09-30T11:27:08.433Z</time>
      </trkpt>
      <trkpt lat="43.65035" lon="2.2796">
        <ele>188.4</ele>
        <time>2025-09-30T11:27:09.294Z</time>
      </trkpt>
      <trkpt lat="43.65036" lon="2.27959">
        <ele>188.6</ele>
        <time>2025-09-30T11:27:09.898Z</time>
      </trkpt>
      <trkpt lat="43.65036" lon="2.27957">
        <ele>188.8</ele>
        <time>2025-09-30T11:27:10.606Z</time>
      </trkpt>
      <trkpt lat="43.65037" lon="2.27955">
        <ele>189</ele>
        <time>2025-09-30T11:27:11.388Z</time>
      </trkpt>
      <trkpt lat="43.65038" lon="2.27953">
        <ele>189.2</ele>
        <time>2025-09-30T11:27:12.171Z</time>
      </trkpt>
      <trkpt lat="43.65039" lon="2.27951">
        <ele>189.2</ele>
        <time>2025-09-30T11:27:12.371Z</time>
      </trkpt>
      <trkpt lat="43.6504" lon="2.27948">
        <ele>189.4</ele>
        <time>2025-09-30T11:27:13.119Z</time>
      </trkpt>
      <trkpt lat="43.65041" lon="2.27946">
        <ele>189.6</ele>
        <time>2025-09-30T11:27:13.901Z</time>
      </trkpt>
      <trkpt lat="43.65042" lon="2.27943">
        <ele>189.6</ele>
        <time>2025-09-30T11:27:14.174Z</time>
      </trkpt>
      <trkpt lat="43.65043" lon="2.2794">
        <ele>189.8</ele>
        <time>2025-09-30T11:27:14.921Z</time>
      </trkpt>
      <trkpt lat="43.65044" lon="2.27937">
        <ele>190</ele>
        <time>2025-09-30T11:27:15.668Z</time>
      </trkpt>
      <trkpt lat="43.65045" lon="2.27935">
        <ele>190</ele>
        <time>2025-09-30T11:27:15.869Z</time>
      </trkpt>
      <trkpt lat="43.65046" lon="2.27932">
        <ele>190.2</ele>
        <time>2025-09-30T11:27:16.616Z</time>
      </trkpt>
      <trkpt lat="43.65048" lon="2.27928">
        <ele>190.4</ele>
        <time>2025-09-30T11:27:17.381Z</time>
      </trkpt>
      <trkpt lat="43.65049" lon="2.27925">
        <ele>190.4</ele>
        <time>2025-09-30T11:27:17.654Z</time>
      </trkpt>
      <trkpt lat="43.6505" lon="2.27922">
        <ele>190.6</ele>
        <time>2025-09-30T11:27:18.401Z</time>
      </trkpt>
      <trkpt lat="43.65051" lon="2.27919">
        <ele>190.8</ele>
        <time>2025-09-30T11:27:19.149Z</time>
      </trkpt>
      <trkpt lat="43.65053" lon="2.27917">
        <ele>191</ele>
        <time>2025-09-30T11:27:19.893Z</time>
      </trkpt>
      <trkpt lat="43.65053" lon="2.27914">
        <ele>191.2</ele>
        <time>2025-09-30T11:27:20.652Z</time>
      </trkpt>
      <trkpt lat="43.65054" lon="2.27912">
        <ele>191.4</ele>
        <time>2025-09-30T11:27:21.434Z</time>
      </trkpt>
      <trkpt lat="43.65054" lon="2.27909">
        <ele>191.6</ele>
        <time>2025-09-30T11:27:22.193Z</time>
      </trkpt>
      <trkpt lat="43.65054" lon="2.27906">
        <ele>191.8</ele>
        <time>2025-09-30T11:27:22.952Z</time>
      </trkpt>
      <trkpt lat="43.65055" lon="2.27903">
        <ele>192.2</ele>
        <time>2025-09-30T11:27:24.122Z</time>
      </trkpt>
      <trkpt lat="43.65055" lon="2.27899">
        <ele>192.4</ele>
        <time>2025-09-30T11:27:24.863Z</time>
      </trkpt>
      <trkpt lat="43.65055" lon="2.27896">
        <ele>192.6</ele>
        <time>2025-09-30T11:27:25.622Z</time>
      </trkpt>
      <trkpt lat="43.65055" lon="2.27893">
        <ele>192.8</ele>
        <time>2025-09-30T11:27:26.381Z</time>
      </trkpt>
      <trkpt lat="43.65056" lon="2.2789">
        <ele>193</ele>
        <time>2025-09-30T11:27:27.128Z</time>
      </trkpt>
      <trkpt lat="43.65056" lon="2.27887">
        <ele>193.2</ele>
        <time>2025-09-30T11:27:27.887Z</time>
      </trkpt>
      <trkpt lat="43.65056" lon="2.27885">
        <ele>193.4</ele>
        <time>2025-09-30T11:27:28.595Z</time>
      </trkpt>
      <trkpt lat="43.65057" lon="2.27882">
        <ele>193.6</ele>
        <time>2025-09-30T11:27:29.343Z</time>
      </trkpt>
      <trkpt lat="43.65057" lon="2.2788">
        <ele>193.8</ele>
        <time>2025-09-30T11:27:30.051Z</time>
      </trkpt>
      <trkpt lat="43.65057" lon="2.27878">
        <ele>194.2</ele>
        <time>2025-09-30T11:27:30.759Z</time>
      </trkpt>
      <trkpt lat="43.65057" lon="2.27875">
        <ele>194.4</ele>
        <time>2025-09-30T11:27:31.518Z</time>
      </trkpt>
      <trkpt lat="43.65058" lon="2.27873">
        <ele>194.8</ele>
        <time>2025-09-30T11:27:32.379Z</time>
      </trkpt>
      <trkpt lat="43.6506" lon="2.2787">
        <ele>195</ele>
        <time>2025-09-30T11:27:33.122Z</time>
      </trkpt>
      <trkpt lat="43.65061" lon="2.27868">
        <ele>195.4</ele>
        <time>2025-09-30T11:27:33.983Z</time>
      </trkpt>
      <trkpt lat="43.65062" lon="2.27865">
        <ele>195.8</ele>
        <time>2025-09-30T11:27:35.152Z</time>
      </trkpt>
      <trkpt lat="43.65063" lon="2.27863">
        <ele>196</ele>
        <time>2025-09-30T11:27:35.935Z</time>
      </trkpt>
      <trkpt lat="43.65065" lon="2.27861">
        <ele>196.4</ele>
        <time>2025-09-30T11:27:37.143Z</time>
      </trkpt>
      <trkpt lat="43.65066" lon="2.27858">
        <ele>196.8</ele>
        <time>2025-09-30T11:27:38.312Z</time>
      </trkpt>
      <trkpt lat="43.65068" lon="2.27856">
        <ele>197.2</ele>
        <time>2025-09-30T11:27:39.521Z</time>
      </trkpt>
      <trkpt lat="43.6507" lon="2.27854">
        <ele>197.6</ele>
        <time>2025-09-30T11:27:40.729Z</time>
      </trkpt>
      <trkpt lat="43.65071" lon="2.27852">
        <ele>197.8</ele>
        <time>2025-09-30T11:27:41.511Z</time>
      </trkpt>
      <trkpt lat="43.65073" lon="2.2785">
        <ele>198</ele>
        <time>2025-09-30T11:27:42.255Z</time>
      </trkpt>
      <trkpt lat="43.65074" lon="2.27848">
        <ele>198.4</ele>
        <time>2025-09-30T11:27:43.116Z</time>
      </trkpt>
      <trkpt lat="43.65076" lon="2.27846">
        <ele>198.6</ele>
        <time>2025-09-30T11:27:43.860Z</time>
      </trkpt>
      <trkpt lat="43.65077" lon="2.27844">
        <ele>198.6</ele>
        <time>2025-09-30T11:27:44.061Z</time>
      </trkpt>
      <trkpt lat="43.65079" lon="2.27842">
        <ele>198.8</ele>
        <time>2025-09-30T11:27:44.806Z</time>
      </trkpt>
      <trkpt lat="43.6508" lon="2.27839">
        <ele>199</ele>
        <time>2025-09-30T11:27:45.553Z</time>
      </trkpt>
      <trkpt lat="43.65082" lon="2.27837">
        <ele>199.2</ele>
        <time>2025-09-30T11:27:46.297Z</time>
      </trkpt>
      <trkpt lat="43.65084" lon="2.27834">
        <ele>199.4</ele>
        <time>2025-09-30T11:27:47.040Z</time>
      </trkpt>
      <trkpt lat="43.65085" lon="2.27832">
        <ele>199.6</ele>
        <time>2025-09-30T11:27:47.822Z</time>
      </trkpt>
      <trkpt lat="43.65087" lon="2.27829">
        <ele>199.8</ele>
        <time>2025-09-30T11:27:48.565Z</time>
      </trkpt>
      <trkpt lat="43.65087" lon="2.27826">
        <ele>199.8</ele>
        <time>2025-09-30T11:27:48.813Z</time>
      </trkpt>
      <trkpt lat="43.65088" lon="2.27823">
        <ele>200</ele>
        <time>2025-09-30T11:27:49.560Z</time>
      </trkpt>
      <trkpt lat="43.65089" lon="2.2782">
        <ele>200.2</ele>
        <time>2025-09-30T11:27:50.307Z</time>
      </trkpt>
      <trkpt lat="43.6509" lon="2.27818">
        <ele>200.4</ele>
        <time>2025-09-30T11:27:51.090Z</time>
      </trkpt>
      <trkpt lat="43.65091" lon="2.27816">
        <ele>200.6</ele>
        <time>2025-09-30T11:27:51.872Z</time>
      </trkpt>
      <trkpt lat="43.65092" lon="2.27813">
        <ele>200.8</ele>
        <time>2025-09-30T11:27:52.619Z</time>
      </trkpt>
      <trkpt lat="43.65093" lon="2.27811">
        <ele>201.2</ele>
        <time>2025-09-30T11:27:53.480Z</time>
      </trkpt>
      <trkpt lat="43.65094" lon="2.27808">
        <ele>201.4</ele>
        <time>2025-09-30T11:27:54.227Z</time>
      </trkpt>
      <trkpt lat="43.65094" lon="2.27806">
        <ele>201.6</ele>
        <time>2025-09-30T11:27:54.935Z</time>
      </trkpt>
      <trkpt lat="43.65095" lon="2.27804">
        <ele>201.8</ele>
        <time>2025-09-30T11:27:55.718Z</time>
      </trkpt>
      <trkpt lat="43.65095" lon="2.27802">
        <ele>202</ele>
        <time>2025-09-30T11:27:56.426Z</time>
      </trkpt>
      <trkpt lat="43.65096" lon="2.278">
        <ele>202.2</ele>
        <time>2025-09-30T11:27:57.208Z</time>
      </trkpt>
      <trkpt lat="43.65097" lon="2.27798">
        <ele>202.4</ele>
        <time>2025-09-30T11:27:57.990Z</time>
      </trkpt>
      <trkpt lat="43.65097" lon="2.27796">
        <ele>202.6</ele>
        <time>2025-09-30T11:27:58.699Z</time>
      </trkpt>
      <trkpt lat="43.65098" lon="2.27793">
        <ele>203</ele>
        <time>2025-09-30T11:27:59.868Z</time>
      </trkpt>
      <trkpt lat="43.65099" lon="2.27791">
        <ele>203.2</ele>
        <time>2025-09-30T11:28:00.651Z</time>
      </trkpt>
      <trkpt lat="43.65099" lon="2.27788">
        <ele>203.4</ele>
        <time>2025-09-30T11:28:01.410Z</time>
      </trkpt>
      <trkpt lat="43.651" lon="2.27786">
        <ele>203.6</ele>
        <time>2025-09-30T11:28:02.192Z</time>
      </trkpt>
      <trkpt lat="43.65101" lon="2.27784">
        <ele>203.8</ele>
        <time>2025-09-30T11:28:02.974Z</time>
      </trkpt>
      <trkpt lat="43.65102" lon="2.27782">
        <ele>204</ele>
        <time>2025-09-30T11:28:03.757Z</time>
      </trkpt>
      <trkpt lat="43.65103" lon="2.2778">
        <ele>204</ele>
        <time>2025-09-30T11:28:03.957Z</time>
      </trkpt>
      <trkpt lat="43.65105" lon="2.27778">
        <ele>204</ele>
        <time>2025-09-30T11:28:04.239Z</time>
      </trkpt>
      <trkpt lat="43.65106" lon="2.27776">
        <ele>204</ele>
        <time>2025-09-30T11:28:04.440Z</time>
      </trkpt>
      <trkpt lat="43.65107" lon="2.27775">
        <ele>204</ele>
        <time>2025-09-30T11:28:04.581Z</time>
      </trkpt>
      <trkpt lat="43.65108" lon="2.27773">
        <ele>204</ele>
        <time>2025-09-30T11:28:04.782Z</time>
      </trkpt>
      <trkpt lat="43.65109" lon="2.27771">
        <ele>204</ele>
        <time>2025-09-30T11:28:04.983Z</time>
      </trkpt>
      <trkpt lat="43.65111" lon="2.27768">
        <ele>204</ele>
        <time>2025-09-30T11:28:05.320Z</time>
      </trkpt>
      <trkpt lat="43.65114" lon="2.27765">
        <ele>204</ele>
        <time>2025-09-30T11:28:05.743Z</time>
      </trkpt>
      <trkpt lat="43.65116" lon="2.27761">
        <ele>204</ele>
        <time>2025-09-30T11:28:06.145Z</time>
      </trkpt>
      <trkpt lat="43.65118" lon="2.27758">
        <ele>203.8</ele>
        <time>2025-09-30T11:28:06.347Z</time>
      </trkpt>
      <trkpt lat="43.65119" lon="2.27756">
        <ele>203.8</ele>
        <time>2025-09-30T11:28:06.548Z</time>
      </trkpt>
      <trkpt lat="43.65121" lon="2.27753">
        <ele>203.6</ele>
        <time>2025-09-30T11:28:06.750Z</time>
      </trkpt>
      <trkpt lat="43.65122" lon="2.2775">
        <ele>203.6</ele>
        <time>2025-09-30T11:28:07.023Z</time>
      </trkpt>
      <trkpt lat="43.65123" lon="2.27748">
        <ele>203.4</ele>
        <time>2025-09-30T11:28:07.143Z</time>
      </trkpt>
      <trkpt lat="43.65125" lon="2.27744">
        <ele>203.4</ele>
        <time>2025-09-30T11:28:07.545Z</time>
      </trkpt>
      <trkpt lat="43.65127" lon="2.2774">
        <ele>203.4</ele>
        <time>2025-09-30T11:28:07.947Z</time>
      </trkpt>
      <trkpt lat="43.65129" lon="2.27736">
        <ele>203.4</ele>
        <time>2025-09-30T11:28:08.348Z</time>
      </trkpt>
      <trkpt lat="43.65132" lon="2.27732">
        <ele>203.2</ele>
        <time>2025-09-30T11:28:08.671Z</time>
      </trkpt>
      <trkpt lat="43.65134" lon="2.27728">
        <ele>203.2</ele>
        <time>2025-09-30T11:28:09.072Z</time>
      </trkpt>
      <trkpt lat="43.65136" lon="2.27724">
        <ele>203</ele>
        <time>2025-09-30T11:28:09.329Z</time>
      </trkpt>
      <trkpt lat="43.65139" lon="2.27722">
        <ele>203</ele>
        <time>2025-09-30T11:28:09.709Z</time>
      </trkpt>
      <trkpt lat="43.65141" lon="2.2772">
        <ele>202.8</ele>
        <time>2025-09-30T11:28:09.878Z</time>
      </trkpt>
      <trkpt lat="43.65143" lon="2.2772">
        <ele>202.6</ele>
        <time>2025-09-30T11:28:10.015Z</time>
      </trkpt>
      <trkpt lat="43.65146" lon="2.27719">
        <ele>202.6</ele>
        <time>2025-09-30T11:28:10.368Z</time>
      </trkpt>
      <trkpt lat="43.6515" lon="2.27716">
        <ele>202.4</ele>
        <time>2025-09-30T11:28:10.729Z</time>
      </trkpt>
      <trkpt lat="43.65152" lon="2.27713">
        <ele>202.4</ele>
        <time>2025-09-30T11:28:11.066Z</time>
      </trkpt>
      <trkpt lat="43.65154" lon="2.27709">
        <ele>202.2</ele>
        <time>2025-09-30T11:28:11.323Z</time>
      </trkpt>
      <trkpt lat="43.65156" lon="2.27704">
        <ele>202.2</ele>
        <time>2025-09-30T11:28:11.795Z</time>
      </trkpt>
      <trkpt lat="43.65158" lon="2.27701">
        <ele>202.2</ele>
        <time>2025-09-30T11:28:12.132Z</time>
      </trkpt>
      <trkpt lat="43.6516" lon="2.27697">
        <ele>202</ele>
        <time>2025-09-30T11:28:12.388Z</time>
        <extensions>
          <visugpx:TrkExtension xmlns:visugpx="https://www.visugpx.com/editgpx/">
            <visugpx:node>7</visugpx:node>
            </visugpx:TrkExtension>
        </extensions>
      </trkpt>
      <trkpt lat="43.6516" lon="2.27691">
        <ele>265.1</ele>
        <time>2025-09-30T11:28:14.586Z</time>
      </trkpt>
      <trkpt lat="43.6517" lon="2.27685">
        <ele>264.4</ele>
        <time>2025-09-30T11:28:15.326Z</time>
      </trkpt>
      <trkpt lat="43.65169" lon="2.27682">
        <ele>264.4</ele>
        <time>2025-09-30T11:28:15.561Z</time>
      </trkpt>
      <trkpt lat="43.65168" lon="2.27675">
        <ele>264.2</ele>
        <time>2025-09-30T11:28:16.008Z</time>
      </trkpt>
      <trkpt lat="43.65166" lon="2.27663">
        <ele>263.7</ele>
        <time>2025-09-30T11:28:16.667Z</time>
      </trkpt>
      <trkpt lat="43.65161" lon="2.27651">
        <ele>263.2</ele>
        <time>2025-09-30T11:28:17.419Z</time>
      </trkpt>
      <trkpt lat="43.65146" lon="2.27639">
        <ele>263.5</ele>
        <time>2025-09-30T11:28:19.830Z</time>
      </trkpt>
      <trkpt lat="43.65124" lon="2.27621">
        <ele>263</ele>
        <time>2025-09-30T11:28:22.302Z</time>
      </trkpt>
      <trkpt lat="43.65108" lon="2.27605">
        <ele>263</ele>
        <time>2025-09-30T11:28:24.563Z</time>
      </trkpt>
      <trkpt lat="43.65118" lon="2.27569">
        <ele>261.5</ele>
        <time>2025-09-30T11:28:26.661Z</time>
      </trkpt>
      <trkpt lat="43.65128" lon="2.27541">
        <ele>260.6</ele>
        <time>2025-09-30T11:28:28.519Z</time>
      </trkpt>
      <trkpt lat="43.65138" lon="2.27521">
        <ele>259.8</ele>
        <time>2025-09-30T11:28:29.872Z</time>
      </trkpt>
      <trkpt lat="43.65181" lon="2.27465">
        <ele>256.7</ele>
        <time>2025-09-30T11:28:34.336Z</time>
      </trkpt>
      <trkpt lat="43.65191" lon="2.27456">
        <ele>255.7</ele>
        <time>2025-09-30T11:28:35.138Z</time>
      </trkpt>
      <trkpt lat="43.65209" lon="2.27448">
        <ele>253.5</ele>
        <time>2025-09-30T11:28:36.397Z</time>
      </trkpt>
      <trkpt lat="43.65208" lon="2.27448">
        <ele>253.6</ele>
        <time>2025-09-30T11:28:36.501Z</time>
        <extensions>
          <visugpx:TrkExtension xmlns:visugpx="https://www.visugpx.com/editgpx/">
            <visugpx:node>8</visugpx:node>
            </visugpx:TrkExtension>
        </extensions>
      </trkpt>
      <trkpt lat="43.65286" lon="2.27426">
        <ele>243.9</ele>
        <time>2025-09-30T11:28:41.904Z</time>
      </trkpt>
      <trkpt lat="43.65308" lon="2.27421">
        <ele>240.6</ele>
        <time>2025-09-30T11:28:43.458Z</time>
      </trkpt>
      <trkpt lat="43.6534" lon="2.27426">
        <ele>235.6</ele>
        <time>2025-09-30T11:28:45.694Z</time>
      </trkpt>
      <trkpt lat="43.65334" lon="2.27415">
        <ele>236.7</ele>
        <time>2025-09-30T11:28:49.970Z</time>
        <extensions>
          <visugpx:TrkExtension xmlns:visugpx="https://www.visugpx.com/editgpx/">
            <visugpx:node>9</visugpx:node>
            </visugpx:TrkExtension>
        </extensions>
      </trkpt>
      <trkpt lat="43.65331" lon="2.27403">
        <ele>175.8</ele>
        <time>2025-09-30T11:28:50.587Z</time>
        <extensions>
          <visugpx:TrkExtension xmlns:visugpx="https://www.visugpx.com/editgpx/">
            <visugpx:node>10</visugpx:node>
            </visugpx:TrkExtension>
        </extensions>
      </trkpt>
      <trkpt lat="43.6533" lon="2.274">
        <ele>176</ele>
        <time>2025-09-30T11:28:51.334Z</time>
      </trkpt>
      <trkpt lat="43.65329" lon="2.27398">
        <ele>176.2</ele>
        <time>2025-09-30T11:28:52.117Z</time>
      </trkpt>
      <trkpt lat="43.65329" lon="2.27396">
        <ele>176.2</ele>
        <time>2025-09-30T11:28:52.282Z</time>
      </trkpt>
      <trkpt lat="43.65328" lon="2.27395">
        <ele>176.4</ele>
        <time>2025-09-30T11:28:52.886Z</time>
      </trkpt>
      <trkpt lat="43.65328" lon="2.27392">
        <ele>176.4</ele>
        <time>2025-09-30T11:28:53.134Z</time>
      </trkpt>
      <trkpt lat="43.65328" lon="2.27389">
        <ele>176.4</ele>
        <time>2025-09-30T11:28:53.382Z</time>
      </trkpt>
      <trkpt lat="43.65327" lon="2.27386">
        <ele>176.2</ele>
        <time>2025-09-30T11:28:53.546Z</time>
      </trkpt>
      <trkpt lat="43.65327" lon="2.27383">
        <ele>175.8</ele>
        <time>2025-09-30T11:28:53.694Z</time>
      </trkpt>
      <trkpt lat="43.65327" lon="2.2738">
        <ele>175.4</ele>
        <time>2025-09-30T11:28:53.843Z</time>
      </trkpt>
      <trkpt lat="43.65327" lon="2.27379">
        <ele>175</ele>
        <time>2025-09-30T11:28:53.893Z</time>
      </trkpt>
      <trkpt lat="43.65327" lon="2.27377">
        <ele>174.8</ele>
        <time>2025-09-30T11:28:53.992Z</time>
      </trkpt>
      <trkpt lat="43.6533" lon="2.27375">
        <ele>173.6</ele>
        <time>2025-09-30T11:28:54.220Z</time>
      </trkpt>
      <trkpt lat="43.65331" lon="2.27375">
        <ele>173.6</ele>
        <time>2025-09-30T11:28:54.334Z</time>
      </trkpt>
      <trkpt lat="43.65333" lon="2.27373">
        <ele>173.4</ele>
        <time>2025-09-30T11:28:54.503Z</time>
      </trkpt>
      <trkpt lat="43.65334" lon="2.27371">
        <ele>173.4</ele>
        <time>2025-09-30T11:28:54.704Z</time>
      </trkpt>
      <trkpt lat="43.65334" lon="2.27367">
        <ele>173</ele>
        <time>2025-09-30T11:28:54.902Z</time>
      </trkpt>
      <trkpt lat="43.65334" lon="2.27362">
        <ele>172.8</ele>
        <time>2025-09-30T11:28:55.169Z</time>
      </trkpt>
      <trkpt lat="43.65334" lon="2.27357">
        <ele>172.4</ele>
        <time>2025-09-30T11:28:55.417Z</time>
      </trkpt>
      <trkpt lat="43.65334" lon="2.27351">
        <ele>172</ele>
        <time>2025-09-30T11:28:55.714Z</time>
      </trkpt>
      <trkpt lat="43.65336" lon="2.27347">
        <ele>171.8</ele>
        <time>2025-09-30T11:28:55.970Z</time>
      </trkpt>
      <trkpt lat="43.65338" lon="2.27343">
        <ele>171.4</ele>
        <time>2025-09-30T11:28:56.211Z</time>
      </trkpt>
      <trkpt lat="43.65342" lon="2.27341">
        <ele>171.2</ele>
        <time>2025-09-30T11:28:56.542Z</time>
      </trkpt>
      <trkpt lat="43.65346" lon="2.2734">
        <ele>170.8</ele>
        <time>2025-09-30T11:28:56.821Z</time>
      </trkpt>
      <trkpt lat="43.6535" lon="2.27338">
        <ele>170.4</ele>
        <time>2025-09-30T11:28:57.112Z</time>
      </trkpt>
      <trkpt lat="43.65354" lon="2.27336">
        <ele>170</ele>
        <time>2025-09-30T11:28:57.404Z</time>
      </trkpt>
      <trkpt lat="43.65358" lon="2.27335">
        <ele>169.8</ele>
        <time>2025-09-30T11:28:57.715Z</time>
      </trkpt>
      <trkpt lat="43.65362" lon="2.27333">
        <ele>169.4</ele>
        <time>2025-09-30T11:28:58.007Z</time>
      </trkpt>
      <trkpt lat="43.65365" lon="2.27331">
        <ele>169.2</ele>
        <time>2025-09-30T11:28:58.245Z</time>
      </trkpt>
      <trkpt lat="43.65369" lon="2.27329">
        <ele>168.8</ele>
        <time>2025-09-30T11:28:58.536Z</time>
      </trkpt>
      <trkpt lat="43.65374" lon="2.27327">
        <ele>168.4</ele>
        <time>2025-09-30T11:28:58.893Z</time>
      </trkpt>
      <trkpt lat="43.65379" lon="2.27325">
        <ele>168.2</ele>
        <time>2025-09-30T11:28:59.323Z</time>
      </trkpt>
      <trkpt lat="43.65384" lon="2.27323">
        <ele>167.6</ele>
        <time>2025-09-30T11:28:59.680Z</time>
      </trkpt>
      <trkpt lat="43.65389" lon="2.27321">
        <ele>167</ele>
        <time>2025-09-30T11:29:00.036Z</time>
      </trkpt>
      <trkpt lat="43.65394" lon="2.27319">
        <ele>166.4</ele>
        <time>2025-09-30T11:29:00.393Z</time>
      </trkpt>
      <trkpt lat="43.65399" lon="2.27317">
        <ele>165.4</ele>
        <time>2025-09-30T11:29:00.750Z</time>
      </trkpt>
      <trkpt lat="43.65405" lon="2.27315">
        <ele>164.4</ele>
        <time>2025-09-30T11:29:01.173Z</time>
      </trkpt>
      <trkpt lat="43.6541" lon="2.27314">
        <ele>163.4</ele>
        <time>2025-09-30T11:29:01.519Z</time>
      </trkpt>
      <trkpt lat="43.65416" lon="2.27315">
        <ele>162.4</ele>
        <time>2025-09-30T11:29:01.933Z</time>
      </trkpt>
      <trkpt lat="43.65423" lon="2.27315">
        <ele>161.6</ele>
        <time>2025-09-30T11:29:02.412Z</time>
      </trkpt>
      <trkpt lat="43.65429" lon="2.27314">
        <ele>160.8</ele>
        <time>2025-09-30T11:29:02.826Z</time>
      </trkpt>
      <trkpt lat="43.65434" lon="2.27312">
        <ele>160</ele>
        <time>2025-09-30T11:29:03.183Z</time>
      </trkpt>
      <trkpt lat="43.65438" lon="2.2731">
        <ele>159.6</ele>
        <time>2025-09-30T11:29:03.475Z</time>
      </trkpt>
      <trkpt lat="43.65441" lon="2.27306">
        <ele>159</ele>
        <time>2025-09-30T11:29:03.760Z</time>
      </trkpt>
      <trkpt lat="43.65443" lon="2.27302">
        <ele>158.8</ele>
        <time>2025-09-30T11:29:04.016Z</time>
      </trkpt>
      <trkpt lat="43.65445" lon="2.27298">
        <ele>158.6</ele>
        <time>2025-09-30T11:29:04.273Z</time>
      </trkpt>
      <trkpt lat="43.65446" lon="2.27293">
        <ele>158.4</ele>
        <time>2025-09-30T11:29:04.553Z</time>
      </trkpt>
      <trkpt lat="43.65447" lon="2.27288">
        <ele>158.4</ele>
        <time>2025-09-30T11:29:04.981Z</time>
      </trkpt>
      <trkpt lat="43.65449" lon="2.27284">
        <ele>158.4</ele>
        <time>2025-09-30T11:29:05.383Z</time>
      </trkpt>
      <trkpt lat="43.6545" lon="2.2728">
        <ele>158.4</ele>
        <time>2025-09-30T11:29:05.733Z</time>
      </trkpt>
      <trkpt lat="43.65451" lon="2.27276">
        <ele>158.4</ele>
        <time>2025-09-30T11:29:06.082Z</time>
      </trkpt>
      <trkpt lat="43.65452" lon="2.27272">
        <ele>158.4</ele>
        <time>2025-09-30T11:29:06.432Z</time>
      </trkpt>
      <trkpt lat="43.65454" lon="2.27268">
        <ele>158.6</ele>
        <time>2025-09-30T11:29:07.198Z</time>
      </trkpt>
      <trkpt lat="43.65455" lon="2.27264">
        <ele>158.6</ele>
        <time>2025-09-30T11:29:07.547Z</time>
      </trkpt>
      <trkpt lat="43.65457" lon="2.27261">
        <ele>158.6</ele>
        <time>2025-09-30T11:29:07.884Z</time>
      </trkpt>
      <trkpt lat="43.65457" lon="2.27257">
        <ele>158.8</ele>
        <time>2025-09-30T11:29:08.626Z</time>
      </trkpt>
      <trkpt lat="43.65459" lon="2.27254">
        <ele>158.8</ele>
        <time>2025-09-30T11:29:08.963Z</time>
      </trkpt>
      <trkpt lat="43.65459" lon="2.2725">
        <ele>159</ele>
        <time>2025-09-30T11:29:09.705Z</time>
      </trkpt>
      <trkpt lat="43.6546" lon="2.27247">
        <ele>159</ele>
        <time>2025-09-30T11:29:09.978Z</time>
      </trkpt>
      <trkpt lat="43.65461" lon="2.27244">
        <ele>159.2</ele>
        <time>2025-09-30T11:29:10.725Z</time>
      </trkpt>
      <trkpt lat="43.65462" lon="2.2724">
        <ele>159.4</ele>
        <time>2025-09-30T11:29:11.471Z</time>
      </trkpt>
      <trkpt lat="43.65463" lon="2.27237">
        <ele>159.6</ele>
        <time>2025-09-30T11:29:12.218Z</time>
      </trkpt>
      <trkpt lat="43.65464" lon="2.27235">
        <ele>159.8</ele>
        <time>2025-09-30T11:29:13.000Z</time>
      </trkpt>
      <trkpt lat="43.65465" lon="2.27232">
        <ele>160</ele>
        <time>2025-09-30T11:29:13.748Z</time>
      </trkpt>
      <trkpt lat="43.65465" lon="2.2723">
        <ele>160.2</ele>
        <time>2025-09-30T11:29:14.456Z</time>
      </trkpt>
      <trkpt lat="43.65466" lon="2.27228">
        <ele>160.4</ele>
        <time>2025-09-30T11:29:15.238Z</time>
      </trkpt>
      <trkpt lat="43.65467" lon="2.27226">
        <ele>160.6</ele>
        <time>2025-09-30T11:29:16.020Z</time>
      </trkpt>
      <trkpt lat="43.65467" lon="2.27224">
        <ele>160.6</ele>
        <time>2025-09-30T11:29:16.186Z</time>
      </trkpt>
      <trkpt lat="43.65468" lon="2.27222">
        <ele>160.8</ele>
        <time>2025-09-30T11:29:16.968Z</time>
      </trkpt>
      <trkpt lat="43.65469" lon="2.2722">
        <ele>160.8</ele>
        <time>2025-09-30T11:29:17.169Z</time>
      </trkpt>
      <trkpt lat="43.65469" lon="2.27218">
        <ele>160.8</ele>
        <time>2025-09-30T11:29:17.334Z</time>
      </trkpt>
      <trkpt lat="43.65471" lon="2.27216">
        <ele>161</ele>
        <time>2025-09-30T11:29:18.078Z</time>
      </trkpt>
      <trkpt lat="43.65473" lon="2.27215">
        <ele>161</ele>
        <time>2025-09-30T11:29:18.321Z</time>
      </trkpt>
      <trkpt lat="43.65475" lon="2.27213">
        <ele>161.2</ele>
        <time>2025-09-30T11:29:19.066Z</time>
      </trkpt>
      <trkpt lat="43.65477" lon="2.27212">
        <ele>161.2</ele>
        <time>2025-09-30T11:29:19.308Z</time>
      </trkpt>
      <trkpt lat="43.65479" lon="2.27211">
        <ele>161.4</ele>
        <time>2025-09-30T11:29:20.070Z</time>
      </trkpt>
      <trkpt lat="43.65481" lon="2.27209">
        <ele>161.4</ele>
        <time>2025-09-30T11:29:20.352Z</time>
      </trkpt>
      <trkpt lat="43.65483" lon="2.27208">
        <ele>161.6</ele>
        <time>2025-09-30T11:29:21.114Z</time>
      </trkpt>
      <trkpt lat="43.65485" lon="2.27207">
        <ele>161.6</ele>
        <time>2025-09-30T11:29:21.357Z</time>
      </trkpt>
      <trkpt lat="43.65486" lon="2.27206">
        <ele>161.8</ele>
        <time>2025-09-30T11:29:21.961Z</time>
      </trkpt>
      <trkpt lat="43.65488" lon="2.27206">
        <ele>162</ele>
        <time>2025-09-30T11:29:22.732Z</time>
      </trkpt>
      <trkpt lat="43.65489" lon="2.27205">
        <ele>162</ele>
        <time>2025-09-30T11:29:22.873Z</time>
      </trkpt>
      <trkpt lat="43.6549" lon="2.27204">
        <ele>162.2</ele>
        <time>2025-09-30T11:29:23.477Z</time>
      </trkpt>
      <trkpt lat="43.65492" lon="2.27202">
        <ele>162.6</ele>
        <time>2025-09-30T11:29:24.685Z</time>
      </trkpt>
      <trkpt lat="43.65495" lon="2.27201">
        <ele>162.8</ele>
        <time>2025-09-30T11:29:25.432Z</time>
      </trkpt>
      <trkpt lat="43.65497" lon="2.272">
        <ele>163</ele>
        <time>2025-09-30T11:29:26.194Z</time>
      </trkpt>
      <trkpt lat="43.65499" lon="2.27199">
        <ele>163.2</ele>
        <time>2025-09-30T11:29:26.956Z</time>
      </trkpt>
      <trkpt lat="43.65501" lon="2.27198">
        <ele>163.4</ele>
        <time>2025-09-30T11:29:27.718Z</time>
      </trkpt>
      <trkpt lat="43.65503" lon="2.27197">
        <ele>163.6</ele>
        <time>2025-09-30T11:29:28.479Z</time>
      </trkpt>
      <trkpt lat="43.65504" lon="2.27195">
        <ele>164</ele>
        <time>2025-09-30T11:29:29.340Z</time>
      </trkpt>
      <trkpt lat="43.65506" lon="2.27194">
        <ele>164.2</ele>
        <time>2025-09-30T11:29:30.102Z</time>
      </trkpt>
      <trkpt lat="43.65508" lon="2.27193">
        <ele>164.4</ele>
        <time>2025-09-30T11:29:30.864Z</time>
      </trkpt>
      <trkpt lat="43.65509" lon="2.27192">
        <ele>164.6</ele>
        <time>2025-09-30T11:29:31.468Z</time>
      </trkpt>
      <trkpt lat="43.65511" lon="2.27191">
        <ele>164.8</ele>
        <time>2025-09-30T11:29:32.230Z</time>
      </trkpt>
      <trkpt lat="43.65513" lon="2.2719">
        <ele>165</ele>
        <time>2025-09-30T11:29:32.992Z</time>
      </trkpt>
      <trkpt lat="43.65514" lon="2.27189">
        <ele>165.2</ele>
        <time>2025-09-30T11:29:33.596Z</time>
      </trkpt>
      <trkpt lat="43.65516" lon="2.27189">
        <ele>165.4</ele>
        <time>2025-09-30T11:29:34.367Z</time>
      </trkpt>
      <trkpt lat="43.65518" lon="2.27187">
        <ele>165.4</ele>
        <time>2025-09-30T11:29:34.649Z</time>
      </trkpt>
      <trkpt lat="43.6552" lon="2.27186">
        <ele>165.6</ele>
        <time>2025-09-30T11:29:35.411Z</time>
      </trkpt>
      <trkpt lat="43.65522" lon="2.27185">
        <ele>165.8</ele>
        <time>2025-09-30T11:29:36.173Z</time>
      </trkpt>
      <trkpt lat="43.65524" lon="2.27185">
        <ele>166</ele>
        <time>2025-09-30T11:29:36.944Z</time>
      </trkpt>
      <trkpt lat="43.65526" lon="2.27184">
        <ele>166</ele>
        <time>2025-09-30T11:29:37.187Z</time>
      </trkpt>
      <trkpt lat="43.65528" lon="2.27182">
        <ele>166.2</ele>
        <time>2025-09-30T11:29:37.931Z</time>
      </trkpt>
      <trkpt lat="43.6553" lon="2.27182">
        <ele>166.4</ele>
        <time>2025-09-30T11:29:38.702Z</time>
      </trkpt>
      <trkpt lat="43.65531" lon="2.27181">
        <ele>166.6</ele>
        <time>2025-09-30T11:29:39.306Z</time>
      </trkpt>
      <trkpt lat="43.65533" lon="2.2718">
        <ele>166.8</ele>
        <time>2025-09-30T11:29:40.068Z</time>
      </trkpt>
      <trkpt lat="43.65535" lon="2.27179">
        <ele>166.8</ele>
        <time>2025-09-30T11:29:40.311Z</time>
      </trkpt>
      <trkpt lat="43.65537" lon="2.27178">
        <ele>167</ele>
        <time>2025-09-30T11:29:41.073Z</time>
      </trkpt>
      <trkpt lat="43.65538" lon="2.27177">
        <ele>167.2</ele>
        <time>2025-09-30T11:29:41.677Z</time>
      </trkpt>
      <trkpt lat="43.6554" lon="2.27177">
        <ele>167.4</ele>
        <time>2025-09-30T11:29:42.448Z</time>
      </trkpt>
      <trkpt lat="43.65541" lon="2.27176">
        <ele>167.4</ele>
        <time>2025-09-30T11:29:42.589Z</time>
      </trkpt>
      <trkpt lat="43.65542" lon="2.27175">
        <ele>167.6</ele>
        <time>2025-09-30T11:29:43.193Z</time>
      </trkpt>
      <trkpt lat="43.65544" lon="2.27173">
        <ele>167.8</ele>
        <time>2025-09-30T11:29:43.938Z</time>
      </trkpt>
      <trkpt lat="43.65546" lon="2.27173">
        <ele>167.8</ele>
        <time>2025-09-30T11:29:44.166Z</time>
      </trkpt>
      <trkpt lat="43.65548" lon="2.27172">
        <ele>168</ele>
        <time>2025-09-30T11:29:44.928Z</time>
      </trkpt>
      <trkpt lat="43.6555" lon="2.27172">
        <ele>168</ele>
        <time>2025-09-30T11:29:45.156Z</time>
      </trkpt>
      <trkpt lat="43.65551" lon="2.27171">
        <ele>168</ele>
        <time>2025-09-30T11:29:45.297Z</time>
      </trkpt>
      <trkpt lat="43.65553" lon="2.2717">
        <ele>168.2</ele>
        <time>2025-09-30T11:29:46.059Z</time>
      </trkpt>
      <trkpt lat="43.65555" lon="2.2717">
        <ele>168.2</ele>
        <time>2025-09-30T11:29:46.287Z</time>
      </trkpt>
      <trkpt lat="43.65557" lon="2.27169">
        <ele>168.4</ele>
        <time>2025-09-30T11:29:47.049Z</time>
      </trkpt>
      <trkpt lat="43.65559" lon="2.27169">
        <ele>168.6</ele>
        <time>2025-09-30T11:29:47.821Z</time>
      </trkpt>
      <trkpt lat="43.65561" lon="2.27169">
        <ele>168.6</ele>
        <time>2025-09-30T11:29:48.049Z</time>
      </trkpt>
      <trkpt lat="43.65563" lon="2.27169">
        <ele>168.8</ele>
        <time>2025-09-30T11:29:48.820Z</time>
      </trkpt>
      <trkpt lat="43.65564" lon="2.27169">
        <ele>168.8</ele>
        <time>2025-09-30T11:29:48.934Z</time>
      </trkpt>
      <trkpt lat="43.65567" lon="2.27168">
        <ele>169</ele>
        <time>2025-09-30T11:29:49.681Z</time>
      </trkpt>
      <trkpt lat="43.65568" lon="2.27168">
        <ele>169</ele>
        <time>2025-09-30T11:29:49.795Z</time>
      </trkpt>
      <trkpt lat="43.6557" lon="2.27167">
        <ele>169.2</ele>
        <time>2025-09-30T11:29:50.557Z</time>
      </trkpt>
      <trkpt lat="43.65572" lon="2.27166">
        <ele>169.4</ele>
        <time>2025-09-30T11:29:51.319Z</time>
      </trkpt>
      <trkpt lat="43.65573" lon="2.27165">
        <ele>169.4</ele>
        <time>2025-09-30T11:29:51.460Z</time>
      </trkpt>
      <trkpt lat="43.65574" lon="2.27165">
        <ele>169.6</ele>
        <time>2025-09-30T11:29:51.949Z</time>
      </trkpt>
      <trkpt lat="43.65576" lon="2.27164">
        <ele>169.8</ele>
        <time>2025-09-30T11:29:52.711Z</time>
      </trkpt>
      <trkpt lat="43.65578" lon="2.27164">
        <ele>170</ele>
        <time>2025-09-30T11:29:53.482Z</time>
      </trkpt>
      <trkpt lat="43.6558" lon="2.27163">
        <ele>170.2</ele>
        <time>2025-09-30T11:29:54.244Z</time>
      </trkpt>
      <trkpt lat="43.65582" lon="2.27162">
        <ele>170.4</ele>
        <time>2025-09-30T11:29:55.006Z</time>
      </trkpt>
      <trkpt lat="43.65584" lon="2.27161">
        <ele>170.6</ele>
        <time>2025-09-30T11:29:55.768Z</time>
      </trkpt>
      <trkpt lat="43.65586" lon="2.2716">
        <ele>170.8</ele>
        <time>2025-09-30T11:29:56.530Z</time>
      </trkpt>
      <trkpt lat="43.65588" lon="2.27159">
        <ele>171.2</ele>
        <time>2025-09-30T11:29:57.571Z</time>
      </trkpt>
      <trkpt lat="43.6559" lon="2.27158">
        <ele>171.4</ele>
        <time>2025-09-30T11:29:58.333Z</time>
      </trkpt>
      <trkpt lat="43.65592" lon="2.27157">
        <ele>171.8</ele>
        <time>2025-09-30T11:29:59.373Z</time>
      </trkpt>
      <trkpt lat="43.65595" lon="2.27155">
        <ele>172.2</ele>
        <time>2025-09-30T11:30:00.928Z</time>
      </trkpt>
      <trkpt lat="43.65597" lon="2.27154">
        <ele>172.4</ele>
        <time>2025-09-30T11:30:01.690Z</time>
      </trkpt>
      <trkpt lat="43.656" lon="2.27153">
        <ele>172.8</ele>
        <time>2025-09-30T11:30:03.192Z</time>
      </trkpt>
      <trkpt lat="43.65603" lon="2.27152">
        <ele>173.2</ele>
        <time>2025-09-30T11:30:04.694Z</time>
      </trkpt>
      <trkpt lat="43.65606" lon="2.27151">
        <ele>173.4</ele>
        <time>2025-09-30T11:30:05.440Z</time>
      </trkpt>
      <trkpt lat="43.65608" lon="2.2715">
        <ele>173.8</ele>
        <time>2025-09-30T11:30:06.481Z</time>
      </trkpt>
      <trkpt lat="43.65611" lon="2.27148">
        <ele>174</ele>
        <time>2025-09-30T11:30:07.237Z</time>
      </trkpt>
      <trkpt lat="43.65614" lon="2.27146">
        <ele>174.2</ele>
        <time>2025-09-30T11:30:07.994Z</time>
      </trkpt>
      <trkpt lat="43.65616" lon="2.27144">
        <ele>174.4</ele>
        <time>2025-09-30T11:30:08.738Z</time>
      </trkpt>
      <trkpt lat="43.65619" lon="2.27143">
        <ele>174.6</ele>
        <time>2025-09-30T11:30:09.484Z</time>
      </trkpt>
      <trkpt lat="43.65622" lon="2.27143">
        <ele>174.6</ele>
        <time>2025-09-30T11:30:09.827Z</time>
      </trkpt>
      <trkpt lat="43.65624" lon="2.27142">
        <ele>174.8</ele>
        <time>2025-09-30T11:30:10.589Z</time>
      </trkpt>
      <trkpt lat="43.65627" lon="2.27141">
        <ele>175</ele>
        <time>2025-09-30T11:30:11.335Z</time>
      </trkpt>
      <trkpt lat="43.65629" lon="2.2714">
        <ele>175.2</ele>
        <time>2025-09-30T11:30:12.097Z</time>
      </trkpt>
      <trkpt lat="43.6563" lon="2.27139">
        <ele>175.4</ele>
        <time>2025-09-30T11:30:12.701Z</time>
      </trkpt>
      <trkpt lat="43.65632" lon="2.27138">
        <ele>175.4</ele>
        <time>2025-09-30T11:30:12.944Z</time>
      </trkpt>
      <trkpt lat="43.65634" lon="2.27136">
        <ele>175.6</ele>
        <time>2025-09-30T11:30:13.689Z</time>
      </trkpt>
      <trkpt lat="43.65636" lon="2.27135">
        <ele>175.8</ele>
        <time>2025-09-30T11:30:14.450Z</time>
      </trkpt>
      <trkpt lat="43.65637" lon="2.27133">
        <ele>176</ele>
        <time>2025-09-30T11:30:15.233Z</time>
      </trkpt>
      <trkpt lat="43.65639" lon="2.27132">
        <ele>176.4</ele>
        <time>2025-09-30T11:30:16.274Z</time>
      </trkpt>
      <trkpt lat="43.65641" lon="2.2713">
        <ele>176.6</ele>
        <time>2025-09-30T11:30:17.018Z</time>
      </trkpt>
      <trkpt lat="43.65642" lon="2.27129">
        <ele>176.8</ele>
        <time>2025-09-30T11:30:17.622Z</time>
      </trkpt>
      <trkpt lat="43.65643" lon="2.27128">
        <ele>177.2</ele>
        <time>2025-09-30T11:30:18.226Z</time>
      </trkpt>
      <trkpt lat="43.65645" lon="2.27127">
        <ele>177.4</ele>
        <time>2025-09-30T11:30:18.988Z</time>
      </trkpt>
      <trkpt lat="43.65646" lon="2.27126">
        <ele>177.8</ele>
        <time>2025-09-30T11:30:19.592Z</time>
      </trkpt>
      <trkpt lat="43.65647" lon="2.27125">
        <ele>178</ele>
        <time>2025-09-30T11:30:20.196Z</time>
      </trkpt>
      <trkpt lat="43.65649" lon="2.27124">
        <ele>178.4</ele>
        <time>2025-09-30T11:30:21.237Z</time>
      </trkpt>
      <trkpt lat="43.6565" lon="2.27123">
        <ele>178.6</ele>
        <time>2025-09-30T11:30:21.841Z</time>
      </trkpt>
      <trkpt lat="43.65652" lon="2.27122">
        <ele>178.8</ele>
        <time>2025-09-30T11:30:22.603Z</time>
      </trkpt>
      <trkpt lat="43.65653" lon="2.27121">
        <ele>179.2</ele>
        <time>2025-09-30T11:30:23.207Z</time>
      </trkpt>
      <trkpt lat="43.65654" lon="2.2712">
        <ele>179.4</ele>
        <time>2025-09-30T11:30:23.811Z</time>
      </trkpt>
      <trkpt lat="43.65654" lon="2.27119">
        <ele>179.8</ele>
        <time>2025-09-30T11:30:24.165Z</time>
      </trkpt>
      <trkpt lat="43.65655" lon="2.27119">
        <ele>180</ele>
        <time>2025-09-30T11:30:24.654Z</time>
      </trkpt>
      <trkpt lat="43.65665" lon="2.27112">
        <ele>182</ele>
        <time>2025-09-30T11:30:30.140Z</time>
      </trkpt>
      <trkpt lat="43.65666" lon="2.27111">
        <ele>182.2</ele>
        <time>2025-09-30T11:30:30.744Z</time>
      </trkpt>
      <trkpt lat="43.65667" lon="2.2711">
        <ele>182.4</ele>
        <time>2025-09-30T11:30:31.348Z</time>
      </trkpt>
      <trkpt lat="43.65668" lon="2.27108">
        <ele>182.6</ele>
        <time>2025-09-30T11:30:32.131Z</time>
      </trkpt>
      <trkpt lat="43.6567" lon="2.27106">
        <ele>182.8</ele>
        <time>2025-09-30T11:30:32.875Z</time>
      </trkpt>
      <trkpt lat="43.65672" lon="2.27105">
        <ele>183</ele>
        <time>2025-09-30T11:30:33.637Z</time>
      </trkpt>
      <trkpt lat="43.65675" lon="2.27103">
        <ele>183.2</ele>
        <time>2025-09-30T11:30:34.393Z</time>
      </trkpt>
      <trkpt lat="43.65676" lon="2.27101">
        <ele>183.4</ele>
        <time>2025-09-30T11:30:35.175Z</time>
      </trkpt>
      <trkpt lat="43.65678" lon="2.271">
        <ele>183.8</ele>
        <time>2025-09-30T11:30:36.216Z</time>
      </trkpt>
      <trkpt lat="43.6568" lon="2.27098">
        <ele>184</ele>
        <time>2025-09-30T11:30:36.961Z</time>
      </trkpt>
      <trkpt lat="43.65682" lon="2.27096">
        <ele>184.2</ele>
        <time>2025-09-30T11:30:37.705Z</time>
      </trkpt>
      <trkpt lat="43.65684" lon="2.27095">
        <ele>184.6</ele>
        <time>2025-09-30T11:30:38.746Z</time>
      </trkpt>
      <trkpt lat="43.65686" lon="2.27093">
        <ele>184.8</ele>
        <time>2025-09-30T11:30:39.490Z</time>
      </trkpt>
      <trkpt lat="43.65688" lon="2.27091">
        <ele>185.2</ele>
        <time>2025-09-30T11:30:40.698Z</time>
      </trkpt>
      <trkpt lat="43.6569" lon="2.2709">
        <ele>185.4</ele>
        <time>2025-09-30T11:30:41.460Z</time>
      </trkpt>
      <trkpt lat="43.65692" lon="2.27088">
        <ele>185.8</ele>
        <time>2025-09-30T11:30:42.668Z</time>
      </trkpt>
      <trkpt lat="43.65694" lon="2.27086">
        <ele>186</ele>
        <time>2025-09-30T11:30:43.412Z</time>
      </trkpt>
      <trkpt lat="43.65696" lon="2.27084">
        <ele>186.4</ele>
        <time>2025-09-30T11:30:44.621Z</time>
      </trkpt>
      <trkpt lat="43.65699" lon="2.27082">
        <ele>186.6</ele>
        <time>2025-09-30T11:30:45.377Z</time>
      </trkpt>
      <trkpt lat="43.65701" lon="2.27081">
        <ele>187</ele>
        <time>2025-09-30T11:30:46.417Z</time>
      </trkpt>
      <trkpt lat="43.65703" lon="2.27079">
        <ele>187.2</ele>
        <time>2025-09-30T11:30:47.162Z</time>
      </trkpt>
      <trkpt lat="43.65704" lon="2.27078">
        <ele>187.4</ele>
        <time>2025-09-30T11:30:47.766Z</time>
      </trkpt>
      <trkpt lat="43.65706" lon="2.27077">
        <ele>187.6</ele>
        <time>2025-09-30T11:30:48.528Z</time>
      </trkpt>
      <trkpt lat="43.65707" lon="2.27076">
        <ele>187.8</ele>
        <time>2025-09-30T11:30:49.132Z</time>
      </trkpt>
      <trkpt lat="43.65709" lon="2.27075">
        <ele>188</ele>
        <time>2025-09-30T11:30:49.894Z</time>
      </trkpt>
      <trkpt lat="43.6571" lon="2.27074">
        <ele>188.2</ele>
        <time>2025-09-30T11:30:50.498Z</time>
      </trkpt>
      <trkpt lat="43.65711" lon="2.27073">
        <ele>188.2</ele>
        <time>2025-09-30T11:30:50.639Z</time>
      </trkpt>
      <trkpt lat="43.65713" lon="2.27072">
        <ele>188.4</ele>
        <time>2025-09-30T11:30:51.401Z</time>
      </trkpt>
      <trkpt lat="43.65714" lon="2.27071">
        <ele>188.4</ele>
        <time>2025-09-30T11:30:51.542Z</time>
      </trkpt>
      <trkpt lat="43.65715" lon="2.2707">
        <ele>188.6</ele>
        <time>2025-09-30T11:30:52.146Z</time>
      </trkpt>
      <trkpt lat="43.65716" lon="2.27069">
        <ele>188.6</ele>
        <time>2025-09-30T11:30:52.287Z</time>
      </trkpt>
      <trkpt lat="43.65717" lon="2.27067">
        <ele>188.8</ele>
        <time>2025-09-30T11:30:53.069Z</time>
      </trkpt>
      <trkpt lat="43.65718" lon="2.27066">
        <ele>188.8</ele>
        <time>2025-09-30T11:30:53.210Z</time>
      </trkpt>
      <trkpt lat="43.65719" lon="2.27064">
        <ele>189</ele>
        <time>2025-09-30T11:30:53.992Z</time>
      </trkpt>
      <trkpt lat="43.65721" lon="2.27062">
        <ele>189</ele>
        <time>2025-09-30T11:30:54.274Z</time>
      </trkpt>
      <trkpt lat="43.65722" lon="2.2706">
        <ele>189.2</ele>
        <time>2025-09-30T11:30:55.056Z</time>
      </trkpt>
      <trkpt lat="43.65723" lon="2.27059">
        <ele>189.2</ele>
        <time>2025-09-30T11:30:55.197Z</time>
      </trkpt>
      <trkpt lat="43.65724" lon="2.27058">
        <ele>189.4</ele>
        <time>2025-09-30T11:30:55.801Z</time>
      </trkpt>
      <trkpt lat="43.65725" lon="2.27056">
        <ele>189.4</ele>
        <time>2025-09-30T11:30:56.002Z</time>
      </trkpt>
      <trkpt lat="43.65727" lon="2.27055">
        <ele>189.6</ele>
        <time>2025-09-30T11:30:56.764Z</time>
      </trkpt>
      <trkpt lat="43.65728" lon="2.27054">
        <ele>189.8</ele>
        <time>2025-09-30T11:30:57.368Z</time>
      </trkpt>
      <trkpt lat="43.6573" lon="2.27053">
        <ele>190</ele>
        <time>2025-09-30T11:30:58.130Z</time>
      </trkpt>
      <trkpt lat="43.65732" lon="2.27052">
        <ele>190</ele>
        <time>2025-09-30T11:30:58.373Z</time>
      </trkpt>
      <trkpt lat="43.65734" lon="2.27051">
        <ele>190.2</ele>
        <time>2025-09-30T11:30:59.135Z</time>
      </trkpt>
      <trkpt lat="43.65736" lon="2.2705">
        <ele>190.4</ele>
        <time>2025-09-30T11:30:59.897Z</time>
      </trkpt>
      <trkpt lat="43.65738" lon="2.27049">
        <ele>190.4</ele>
        <time>2025-09-30T11:31:00.140Z</time>
      </trkpt>
      <trkpt lat="43.6574" lon="2.27048">
        <ele>190.6</ele>
        <time>2025-09-30T11:31:00.902Z</time>
      </trkpt>
      <trkpt lat="43.65742" lon="2.27047">
        <ele>190.8</ele>
        <time>2025-09-30T11:31:01.663Z</time>
      </trkpt>
      <trkpt lat="43.65744" lon="2.27046">
        <ele>190.8</ele>
        <time>2025-09-30T11:31:01.906Z</time>
      </trkpt>
      <trkpt lat="43.65746" lon="2.27044">
        <ele>191</ele>
        <time>2025-09-30T11:31:02.651Z</time>
      </trkpt>
      <trkpt lat="43.65749" lon="2.27044">
        <ele>191.2</ele>
        <time>2025-09-30T11:31:03.395Z</time>
      </trkpt>
      <trkpt lat="43.65751" lon="2.27043">
        <ele>191.4</ele>
        <time>2025-09-30T11:31:04.157Z</time>
      </trkpt>
      <trkpt lat="43.65753" lon="2.27042">
        <ele>191.4</ele>
        <time>2025-09-30T11:31:04.400Z</time>
      </trkpt>
      <trkpt lat="43.65755" lon="2.27041">
        <ele>191.6</ele>
        <time>2025-09-30T11:31:05.161Z</time>
      </trkpt>
      <trkpt lat="43.65758" lon="2.2704">
        <ele>191.8</ele>
        <time>2025-09-30T11:31:05.908Z</time>
      </trkpt>
      <trkpt lat="43.6576" lon="2.27039">
        <ele>191.8</ele>
        <time>2025-09-30T11:31:06.151Z</time>
      </trkpt>
      <trkpt lat="43.65762" lon="2.27038">
        <ele>192</ele>
        <time>2025-09-30T11:31:06.913Z</time>
      </trkpt>
      <trkpt lat="43.65765" lon="2.27037">
        <ele>192.2</ele>
        <time>2025-09-30T11:31:07.659Z</time>
      </trkpt>
      <trkpt lat="43.65767" lon="2.27035">
        <ele>192.2</ele>
        <time>2025-09-30T11:31:07.941Z</time>
      </trkpt>
      <trkpt lat="43.6577" lon="2.27034">
        <ele>192.4</ele>
        <time>2025-09-30T11:31:08.688Z</time>
      </trkpt>
      <trkpt lat="43.65772" lon="2.27033">
        <ele>192.6</ele>
        <time>2025-09-30T11:31:09.450Z</time>
      </trkpt>
      <trkpt lat="43.65775" lon="2.27032">
        <ele>192.6</ele>
        <time>2025-09-30T11:31:09.802Z</time>
      </trkpt>
      <trkpt lat="43.65777" lon="2.27031">
        <ele>192.8</ele>
        <time>2025-09-30T11:31:10.564Z</time>
      </trkpt>
      <trkpt lat="43.6578" lon="2.2703">
        <ele>193</ele>
        <time>2025-09-30T11:31:11.310Z</time>
      </trkpt>
      <trkpt lat="43.65783" lon="2.27028">
        <ele>193</ele>
        <time>2025-09-30T11:31:11.691Z</time>
      </trkpt>
      <trkpt lat="43.65785" lon="2.27027">
        <ele>193.2</ele>
        <time>2025-09-30T11:31:12.453Z</time>
      </trkpt>
      <trkpt lat="43.65788" lon="2.27026">
        <ele>193.4</ele>
        <time>2025-09-30T11:31:13.199Z</time>
      </trkpt>
      <trkpt lat="43.65791" lon="2.27024">
        <ele>193.6</ele>
        <time>2025-09-30T11:31:13.955Z</time>
      </trkpt>
      <trkpt lat="43.65794" lon="2.27023">
        <ele>193.8</ele>
        <time>2025-09-30T11:31:14.702Z</time>
      </trkpt>
      <trkpt lat="43.65796" lon="2.27022">
        <ele>193.8</ele>
        <time>2025-09-30T11:31:14.945Z</time>
      </trkpt>
      <trkpt lat="43.65799" lon="2.2702">
        <ele>194</ele>
        <time>2025-09-30T11:31:15.701Z</time>
      </trkpt>
      <trkpt lat="43.65802" lon="2.27019">
        <ele>194</ele>
        <time>2025-09-30T11:31:16.053Z</time>
      </trkpt>
      <trkpt lat="43.65804" lon="2.27018">
        <ele>194.2</ele>
        <time>2025-09-30T11:31:16.815Z</time>
      </trkpt>
      <trkpt lat="43.65807" lon="2.27017">
        <ele>194.4</ele>
        <time>2025-09-30T11:31:17.562Z</time>
      </trkpt>
      <trkpt lat="43.65809" lon="2.27016">
        <ele>194.4</ele>
        <time>2025-09-30T11:31:17.805Z</time>
      </trkpt>
      <trkpt lat="43.65812" lon="2.27014">
        <ele>194.6</ele>
        <time>2025-09-30T11:31:18.561Z</time>
      </trkpt>
      <trkpt lat="43.65815" lon="2.27013">
        <ele>194.6</ele>
        <time>2025-09-30T11:31:18.913Z</time>
      </trkpt>
      <trkpt lat="43.65817" lon="2.27012">
        <ele>194.8</ele>
        <time>2025-09-30T11:31:19.675Z</time>
      </trkpt>
      <trkpt lat="43.6582" lon="2.27011">
        <ele>195</ele>
        <time>2025-09-30T11:31:20.422Z</time>
      </trkpt>
      <trkpt lat="43.65822" lon="2.2701">
        <ele>195</ele>
        <time>2025-09-30T11:31:20.664Z</time>
      </trkpt>
      <trkpt lat="43.65825" lon="2.27009">
        <ele>195.2</ele>
        <time>2025-09-30T11:31:21.411Z</time>
      </trkpt>
      <trkpt lat="43.65827" lon="2.27008">
        <ele>195.4</ele>
        <time>2025-09-30T11:31:22.173Z</time>
      </trkpt>
      <trkpt lat="43.6583" lon="2.27007">
        <ele>195.6</ele>
        <time>2025-09-30T11:31:22.919Z</time>
      </trkpt>
      <trkpt lat="43.65832" lon="2.27006">
        <ele>195.6</ele>
        <time>2025-09-30T11:31:23.162Z</time>
      </trkpt>
      <trkpt lat="43.65835" lon="2.27005">
        <ele>195.8</ele>
        <time>2025-09-30T11:31:23.909Z</time>
      </trkpt>
      <trkpt lat="43.65837" lon="2.27003">
        <ele>195.8</ele>
        <time>2025-09-30T11:31:24.191Z</time>
      </trkpt>
      <trkpt lat="43.6584" lon="2.27002">
        <ele>196</ele>
        <time>2025-09-30T11:31:24.937Z</time>
      </trkpt>
      <trkpt lat="43.65843" lon="2.27001">
        <ele>196.2</ele>
        <time>2025-09-30T11:31:25.684Z</time>
      </trkpt>
      <trkpt lat="43.65846" lon="2.27">
        <ele>196.2</ele>
        <time>2025-09-30T11:31:26.036Z</time>
      </trkpt>
      <trkpt lat="43.65849" lon="2.26999">
        <ele>196.4</ele>
        <time>2025-09-30T11:31:26.783Z</time>
      </trkpt>
      <trkpt lat="43.65852" lon="2.26998">
        <ele>196.4</ele>
        <time>2025-09-30T11:31:27.135Z</time>
      </trkpt>
      <trkpt lat="43.65855" lon="2.26997">
        <ele>196.6</ele>
        <time>2025-09-30T11:31:27.882Z</time>
      </trkpt>
      <trkpt lat="43.65858" lon="2.26997">
        <ele>196.6</ele>
        <time>2025-09-30T11:31:28.224Z</time>
      </trkpt>
      <trkpt lat="43.6586" lon="2.26995">
        <ele>196.8</ele>
        <time>2025-09-30T11:31:28.969Z</time>
      </trkpt>
      <trkpt lat="43.65863" lon="2.26995">
        <ele>196.8</ele>
        <time>2025-09-30T11:31:29.311Z</time>
      </trkpt>
      <trkpt lat="43.65866" lon="2.26994">
        <ele>197</ele>
        <time>2025-09-30T11:31:30.058Z</time>
      </trkpt>
      <trkpt lat="43.65869" lon="2.26993">
        <ele>197</ele>
        <time>2025-09-30T11:31:30.410Z</time>
      </trkpt>
      <trkpt lat="43.65872" lon="2.26992">
        <ele>197.2</ele>
        <time>2025-09-30T11:31:31.157Z</time>
      </trkpt>
      <trkpt lat="43.65875" lon="2.26992">
        <ele>197.2</ele>
        <time>2025-09-30T11:31:31.499Z</time>
      </trkpt>
      <trkpt lat="43.65878" lon="2.26991">
        <ele>197.4</ele>
        <time>2025-09-30T11:31:32.246Z</time>
      </trkpt>
      <trkpt lat="43.65881" lon="2.2699">
        <ele>197.4</ele>
        <time>2025-09-30T11:31:32.598Z</time>
      </trkpt>
      <trkpt lat="43.65884" lon="2.2699">
        <ele>197.4</ele>
        <time>2025-09-30T11:31:32.941Z</time>
      </trkpt>
      <trkpt lat="43.65886" lon="2.26989">
        <ele>197.4</ele>
        <time>2025-09-30T11:31:33.184Z</time>
      </trkpt>
      <trkpt lat="43.65889" lon="2.26988">
        <ele>197.4</ele>
        <time>2025-09-30T11:31:33.536Z</time>
      </trkpt>
      <trkpt lat="43.65892" lon="2.26987">
        <ele>197.6</ele>
        <time>2025-09-30T11:31:34.282Z</time>
      </trkpt>
      <trkpt lat="43.65895" lon="2.26986">
        <ele>197.6</ele>
        <time>2025-09-30T11:31:34.635Z</time>
      </trkpt>
      <trkpt lat="43.65898" lon="2.26984">
        <ele>197.6</ele>
        <time>2025-09-30T11:31:35.015Z</time>
      </trkpt>
      <trkpt lat="43.659" lon="2.26982">
        <ele>197.8</ele>
        <time>2025-09-30T11:31:35.760Z</time>
      </trkpt>
      <trkpt lat="43.65903" lon="2.2698">
        <ele>197.8</ele>
        <time>2025-09-30T11:31:36.140Z</time>
      </trkpt>
      <trkpt lat="43.65906" lon="2.26977">
        <ele>197.8</ele>
        <time>2025-09-30T11:31:36.563Z</time>
      </trkpt>
      <trkpt lat="43.65909" lon="2.26975">
        <ele>198</ele>
        <time>2025-09-30T11:31:37.319Z</time>
      </trkpt>
      <trkpt lat="43.65912" lon="2.26973">
        <ele>198</ele>
        <time>2025-09-30T11:31:37.699Z</time>
      </trkpt>
      <trkpt lat="43.65915" lon="2.2697">
        <ele>198</ele>
        <time>2025-09-30T11:31:38.122Z</time>
      </trkpt>
      <trkpt lat="43.65918" lon="2.26968">
        <ele>198.2</ele>
        <time>2025-09-30T11:31:38.878Z</time>
      </trkpt>
      <trkpt lat="43.65921" lon="2.26965">
        <ele>198.2</ele>
        <time>2025-09-30T11:31:39.301Z</time>
      </trkpt>
      <trkpt lat="43.65924" lon="2.26963">
        <ele>198.2</ele>
        <time>2025-09-30T11:31:39.681Z</time>
      </trkpt>
      <trkpt lat="43.65927" lon="2.2696">
        <ele>198.2</ele>
        <time>2025-09-30T11:31:40.104Z</time>
      </trkpt>
      <trkpt lat="43.6593" lon="2.26958">
        <ele>198.2</ele>
        <time>2025-09-30T11:31:40.484Z</time>
      </trkpt>
      <trkpt lat="43.65933" lon="2.26956">
        <ele>198.2</ele>
        <time>2025-09-30T11:31:40.865Z</time>
      </trkpt>
      <trkpt lat="43.65936" lon="2.26954">
        <ele>198.2</ele>
        <time>2025-09-30T11:31:41.245Z</time>
      </trkpt>
      <trkpt lat="43.6594" lon="2.26952">
        <ele>198.2</ele>
        <time>2025-09-30T11:31:41.731Z</time>
      </trkpt>
      <trkpt lat="43.65944" lon="2.2695">
        <ele>198.2</ele>
        <time>2025-09-30T11:31:42.217Z</time>
      </trkpt>
      <trkpt lat="43.65947" lon="2.26948">
        <ele>198.2</ele>
        <time>2025-09-30T11:31:42.597Z</time>
      </trkpt>
      <trkpt lat="43.65951" lon="2.26946">
        <ele>198.2</ele>
        <time>2025-09-30T11:31:43.083Z</time>
      </trkpt>
      <trkpt lat="43.65955" lon="2.26945">
        <ele>198.2</ele>
        <time>2025-09-30T11:31:43.547Z</time>
      </trkpt>
      <trkpt lat="43.65959" lon="2.26943">
        <ele>198.2</ele>
        <time>2025-09-30T11:31:44.033Z</time>
      </trkpt>
      <trkpt lat="43.65963" lon="2.26941">
        <ele>198.2</ele>
        <time>2025-09-30T11:31:44.518Z</time>
      </trkpt>
      <trkpt lat="43.65967" lon="2.2694">
        <ele>198.2</ele>
        <time>2025-09-30T11:31:44.982Z</time>
      </trkpt>
      <trkpt lat="43.6597" lon="2.26938">
        <ele>198.2</ele>
        <time>2025-09-30T11:31:45.363Z</time>
      </trkpt>
      <trkpt lat="43.65975" lon="2.26936">
        <ele>198.2</ele>
        <time>2025-09-30T11:31:45.957Z</time>
      </trkpt>
      <trkpt lat="43.65978" lon="2.26935">
        <ele>198.2</ele>
        <time>2025-09-30T11:31:46.310Z</time>
      </trkpt>
      <trkpt lat="43.65982" lon="2.26934">
        <ele>198.2</ele>
        <time>2025-09-30T11:31:46.774Z</time>
      </trkpt>
      <trkpt lat="43.65986" lon="2.26932">
        <ele>198.4</ele>
        <time>2025-09-30T11:31:47.590Z</time>
      </trkpt>
      <trkpt lat="43.6599" lon="2.2693">
        <ele>198.4</ele>
        <time>2025-09-30T11:31:48.076Z</time>
      </trkpt>
      <trkpt lat="43.65993" lon="2.26929">
        <ele>198.2</ele>
        <time>2025-09-30T11:31:48.289Z</time>
      </trkpt>
      <trkpt lat="43.65996" lon="2.26928">
        <ele>198.2</ele>
        <time>2025-09-30T11:31:48.642Z</time>
      </trkpt>
      <trkpt lat="43.65998" lon="2.26928">
        <ele>198.2</ele>
        <time>2025-09-30T11:31:48.870Z</time>
      </trkpt>
      <trkpt lat="43.66" lon="2.26927">
        <ele>198.2</ele>
        <time>2025-09-30T11:31:49.113Z</time>
      </trkpt>
      <trkpt lat="43.66002" lon="2.26927">
        <ele>198.2</ele>
        <time>2025-09-30T11:31:49.341Z</time>
      </trkpt>
      <trkpt lat="43.66004" lon="2.26926">
        <ele>198.2</ele>
        <time>2025-09-30T11:31:49.584Z</time>
      </trkpt>
      <trkpt lat="43.66006" lon="2.26926">
        <ele>198.2</ele>
        <time>2025-09-30T11:31:49.813Z</time>
      </trkpt>
      <trkpt lat="43.66007" lon="2.26926">
        <ele>198.2</ele>
        <time>2025-09-30T11:31:49.927Z</time>
      </trkpt>
      <trkpt lat="43.66009" lon="2.26925">
        <ele>198.2</ele>
        <time>2025-09-30T11:31:50.170Z</time>
      </trkpt>
      <trkpt lat="43.6601" lon="2.26925">
        <ele>198.2</ele>
        <time>2025-09-30T11:31:50.284Z</time>
      </trkpt>
      <trkpt lat="43.66011" lon="2.26924">
        <ele>198.2</ele>
        <time>2025-09-30T11:31:50.425Z</time>
      </trkpt>
      <trkpt lat="43.66012" lon="2.26923">
        <ele>198.2</ele>
        <time>2025-09-30T11:31:50.566Z</time>
      </trkpt>
      <trkpt lat="43.66013" lon="2.26922">
        <ele>198.2</ele>
        <time>2025-09-30T11:31:50.707Z</time>
      </trkpt>
      <trkpt lat="43.66014" lon="2.26921">
        <ele>198.2</ele>
        <time>2025-09-30T11:31:50.848Z</time>
      </trkpt>
      <trkpt lat="43.66015" lon="2.2692">
        <ele>198.2</ele>
        <time>2025-09-30T11:31:50.989Z</time>
      </trkpt>
      <trkpt lat="43.66017" lon="2.2692">
        <ele>198.2</ele>
        <time>2025-09-30T11:31:51.217Z</time>
      </trkpt>
      <trkpt lat="43.66019" lon="2.26919">
        <ele>198.2</ele>
        <time>2025-09-30T11:31:51.460Z</time>
      </trkpt>
      <trkpt lat="43.66022" lon="2.26917">
        <ele>198.2</ele>
        <time>2025-09-30T11:31:51.840Z</time>
      </trkpt>
      <trkpt lat="43.66025" lon="2.26916">
        <ele>198.4</ele>
        <time>2025-09-30T11:31:52.587Z</time>
      </trkpt>
      <trkpt lat="43.66029" lon="2.26914">
        <ele>198.4</ele>
        <time>2025-09-30T11:31:53.073Z</time>
      </trkpt>
      <trkpt lat="43.66032" lon="2.26912">
        <ele>198.4</ele>
        <time>2025-09-30T11:31:53.453Z</time>
      </trkpt>
      <trkpt lat="43.66036" lon="2.26911">
        <ele>198.4</ele>
        <time>2025-09-30T11:31:53.917Z</time>
      </trkpt>
      <trkpt lat="43.66039" lon="2.26909">
        <ele>198.4</ele>
        <time>2025-09-30T11:31:54.297Z</time>
      </trkpt>
      <trkpt lat="43.66042" lon="2.26907">
        <ele>198.6</ele>
        <time>2025-09-30T11:31:55.054Z</time>
      </trkpt>
      <trkpt lat="43.66045" lon="2.26905">
        <ele>198.6</ele>
        <time>2025-09-30T11:31:55.434Z</time>
      </trkpt>
      <trkpt lat="43.66048" lon="2.26903">
        <ele>198.6</ele>
        <time>2025-09-30T11:31:55.814Z</time>
      </trkpt>
      <trkpt lat="43.66051" lon="2.26902">
        <ele>198.6</ele>
        <time>2025-09-30T11:31:56.167Z</time>
      </trkpt>
      <trkpt lat="43.66055" lon="2.269">
        <ele>198.6</ele>
        <time>2025-09-30T11:31:56.652Z</time>
      </trkpt>
      <trkpt lat="43.66058" lon="2.26898">
        <ele>198.6</ele>
        <time>2025-09-30T11:31:57.033Z</time>
      </trkpt>
      <trkpt lat="43.66061" lon="2.26896">
        <ele>198.4</ele>
        <time>2025-09-30T11:31:57.270Z</time>
      </trkpt>
      <trkpt lat="43.66064" lon="2.26895">
        <ele>198.4</ele>
        <time>2025-09-30T11:31:57.623Z</time>
      </trkpt>
      <trkpt lat="43.66067" lon="2.26893">
        <ele>198.4</ele>
        <time>2025-09-30T11:31:58.003Z</time>
      </trkpt>
      <trkpt lat="43.6607" lon="2.26891">
        <ele>198.4</ele>
        <time>2025-09-30T11:31:58.384Z</time>
      </trkpt>
      <trkpt lat="43.66073" lon="2.2689">
        <ele>198.4</ele>
        <time>2025-09-30T11:31:58.736Z</time>
      </trkpt>
      <trkpt lat="43.66076" lon="2.26888">
        <ele>198.4</ele>
        <time>2025-09-30T11:31:59.116Z</time>
      </trkpt>
      <trkpt lat="43.6608" lon="2.26886">
        <ele>198.4</ele>
        <time>2025-09-30T11:31:59.602Z</time>
      </trkpt>
      <trkpt lat="43.66083" lon="2.26884">
        <ele>198.4</ele>
        <time>2025-09-30T11:31:59.982Z</time>
      </trkpt>
      <trkpt lat="43.66087" lon="2.26882">
        <ele>198.4</ele>
        <time>2025-09-30T11:32:00.468Z</time>
      </trkpt>
      <trkpt lat="43.6609" lon="2.2688">
        <ele>198.4</ele>
        <time>2025-09-30T11:32:00.848Z</time>
      </trkpt>
      <trkpt lat="43.66093" lon="2.26878">
        <ele>198.4</ele>
        <time>2025-09-30T11:32:01.229Z</time>
      </trkpt>
      <trkpt lat="43.66096" lon="2.26877">
        <ele>198.4</ele>
        <time>2025-09-30T11:32:01.581Z</time>
      </trkpt>
      <trkpt lat="43.661" lon="2.26875">
        <ele>198.4</ele>
        <time>2025-09-30T11:32:02.067Z</time>
      </trkpt>
      <trkpt lat="43.66103" lon="2.26874">
        <ele>198.4</ele>
        <time>2025-09-30T11:32:02.419Z</time>
      </trkpt>
      <trkpt lat="43.66106" lon="2.26872">
        <ele>198.4</ele>
        <time>2025-09-30T11:32:02.800Z</time>
      </trkpt>
      <trkpt lat="43.66109" lon="2.26871">
        <ele>198.4</ele>
        <time>2025-09-30T11:32:03.152Z</time>
      </trkpt>
      <trkpt lat="43.66112" lon="2.2687">
        <ele>198.4</ele>
        <time>2025-09-30T11:32:03.504Z</time>
      </trkpt>
      <trkpt lat="43.66115" lon="2.26868">
        <ele>198.4</ele>
        <time>2025-09-30T11:32:03.885Z</time>
      </trkpt>
      <trkpt lat="43.66119" lon="2.26866">
        <ele>198.4</ele>
        <time>2025-09-30T11:32:04.370Z</time>
      </trkpt>
      <trkpt lat="43.66122" lon="2.26865">
        <ele>198.4</ele>
        <time>2025-09-30T11:32:04.723Z</time>
      </trkpt>
      <trkpt lat="43.66125" lon="2.26863">
        <ele>198.4</ele>
        <time>2025-09-30T11:32:05.103Z</time>
      </trkpt>
      <trkpt lat="43.66128" lon="2.26861">
        <ele>198.4</ele>
        <time>2025-09-30T11:32:05.484Z</time>
      </trkpt>
      <trkpt lat="43.66131" lon="2.2686">
        <ele>198.4</ele>
        <time>2025-09-30T11:32:05.836Z</time>
      </trkpt>
      <trkpt lat="43.66134" lon="2.26858">
        <ele>198.4</ele>
        <time>2025-09-30T11:32:06.216Z</time>
      </trkpt>
      <trkpt lat="43.66137" lon="2.26856">
        <ele>198.6</ele>
        <time>2025-09-30T11:32:06.972Z</time>
      </trkpt>
      <trkpt lat="43.6614" lon="2.26854">
        <ele>198.6</ele>
        <time>2025-09-30T11:32:07.353Z</time>
      </trkpt>
      <trkpt lat="43.66143" lon="2.26853">
        <ele>198.6</ele>
        <time>2025-09-30T11:32:07.705Z</time>
      </trkpt>
      <trkpt lat="43.66146" lon="2.26851">
        <ele>198.6</ele>
        <time>2025-09-30T11:32:08.085Z</time>
      </trkpt>
      <trkpt lat="43.66149" lon="2.2685">
        <ele>198.6</ele>
        <time>2025-09-30T11:32:08.438Z</time>
      </trkpt>
      <trkpt lat="43.66151" lon="2.26848">
        <ele>198.6</ele>
        <time>2025-09-30T11:32:08.720Z</time>
      </trkpt>
      <trkpt lat="43.66154" lon="2.26845">
        <ele>198.6</ele>
        <time>2025-09-30T11:32:09.143Z</time>
      </trkpt>
      <trkpt lat="43.66157" lon="2.26843">
        <ele>198.8</ele>
        <time>2025-09-30T11:32:09.899Z</time>
      </trkpt>
      <trkpt lat="43.6616" lon="2.26841">
        <ele>198.6</ele>
        <time>2025-09-30T11:32:10.136Z</time>
      </trkpt>
      <trkpt lat="43.66163" lon="2.26839">
        <ele>198.8</ele>
        <time>2025-09-30T11:32:10.893Z</time>
      </trkpt>
      <trkpt lat="43.66167" lon="2.26837">
        <ele>198.6</ele>
        <time>2025-09-30T11:32:11.224Z</time>
      </trkpt>
      <trkpt lat="43.6617" lon="2.26835">
        <ele>198.6</ele>
        <time>2025-09-30T11:32:11.604Z</time>
      </trkpt>
      <trkpt lat="43.66173" lon="2.26833">
        <ele>198.6</ele>
        <time>2025-09-30T11:32:11.984Z</time>
      </trkpt>
      <trkpt lat="43.66175" lon="2.26831">
        <ele>198.6</ele>
        <time>2025-09-30T11:32:12.266Z</time>
      </trkpt>
      <trkpt lat="43.66178" lon="2.26828">
        <ele>198.6</ele>
        <time>2025-09-30T11:32:12.689Z</time>
      </trkpt>
      <trkpt lat="43.66181" lon="2.26826">
        <ele>198.6</ele>
        <time>2025-09-30T11:32:13.069Z</time>
      </trkpt>
      <trkpt lat="43.66184" lon="2.26823">
        <ele>198.8</ele>
        <time>2025-09-30T11:32:13.846Z</time>
      </trkpt>
      <trkpt lat="43.66188" lon="2.26821">
        <ele>198.8</ele>
        <time>2025-09-30T11:32:14.332Z</time>
      </trkpt>
      <trkpt lat="43.66191" lon="2.26819">
        <ele>198.8</ele>
        <time>2025-09-30T11:32:14.712Z</time>
      </trkpt>
      <trkpt lat="43.66194" lon="2.26816">
        <ele>198.6</ele>
        <time>2025-09-30T11:32:14.987Z</time>
      </trkpt>
      <trkpt lat="43.66197" lon="2.26814">
        <ele>198.6</ele>
        <time>2025-09-30T11:32:15.367Z</time>
      </trkpt>
      <trkpt lat="43.662" lon="2.26811">
        <ele>198.6</ele>
        <time>2025-09-30T11:32:15.790Z</time>
      </trkpt>
      <trkpt lat="43.66203" lon="2.26809">
        <ele>198.6</ele>
        <time>2025-09-30T11:32:16.170Z</time>
      </trkpt>
      <trkpt lat="43.66206" lon="2.26807">
        <ele>198.6</ele>
        <time>2025-09-30T11:32:16.551Z</time>
      </trkpt>
      <trkpt lat="43.66209" lon="2.26804">
        <ele>198.6</ele>
        <time>2025-09-30T11:32:16.973Z</time>
      </trkpt>
      <trkpt lat="43.66212" lon="2.26802">
        <ele>198.8</ele>
        <time>2025-09-30T11:32:17.730Z</time>
      </trkpt>
      <trkpt lat="43.66215" lon="2.26799">
        <ele>198.6</ele>
        <time>2025-09-30T11:32:18.004Z</time>
      </trkpt>
      <trkpt lat="43.66218" lon="2.26797">
        <ele>198.6</ele>
        <time>2025-09-30T11:32:18.385Z</time>
      </trkpt>
      <trkpt lat="43.66221" lon="2.26794">
        <ele>198.8</ele>
        <time>2025-09-30T11:32:19.161Z</time>
      </trkpt>
      <trkpt lat="43.66224" lon="2.26792">
        <ele>198.8</ele>
        <time>2025-09-30T11:32:19.542Z</time>
      </trkpt>
      <trkpt lat="43.66227" lon="2.26789">
        <ele>198.6</ele>
        <time>2025-09-30T11:32:19.816Z</time>
      </trkpt>
      <trkpt lat="43.6623" lon="2.26786">
        <ele>198.6</ele>
        <time>2025-09-30T11:32:20.239Z</time>
      </trkpt>
      <trkpt lat="43.66233" lon="2.26784">
        <ele>198.6</ele>
        <time>2025-09-30T11:32:20.620Z</time>
      </trkpt>
      <trkpt lat="43.66236" lon="2.26781">
        <ele>198.6</ele>
        <time>2025-09-30T11:32:21.042Z</time>
      </trkpt>
      <trkpt lat="43.66239" lon="2.26779">
        <ele>198.8</ele>
        <time>2025-09-30T11:32:21.799Z</time>
      </trkpt>
      <trkpt lat="43.66242" lon="2.26776">
        <ele>198.8</ele>
        <time>2025-09-30T11:32:22.221Z</time>
      </trkpt>
      <trkpt lat="43.66244" lon="2.26773">
        <ele>198.8</ele>
        <time>2025-09-30T11:32:22.558Z</time>
      </trkpt>
      <trkpt lat="43.66247" lon="2.2677">
        <ele>199</ele>
        <time>2025-09-30T11:32:23.335Z</time>
      </trkpt>
      <trkpt lat="43.6625" lon="2.26768">
        <ele>199</ele>
        <time>2025-09-30T11:32:23.715Z</time>
      </trkpt>
      <trkpt lat="43.66253" lon="2.26765">
        <ele>199</ele>
        <time>2025-09-30T11:32:24.138Z</time>
      </trkpt>
      <trkpt lat="43.66257" lon="2.26762">
        <ele>199</ele>
        <time>2025-09-30T11:32:24.658Z</time>
      </trkpt>
      <trkpt lat="43.6626" lon="2.26759">
        <ele>199</ele>
        <time>2025-09-30T11:32:25.081Z</time>
      </trkpt>
      <trkpt lat="43.66263" lon="2.26756">
        <ele>199.2</ele>
        <time>2025-09-30T11:32:25.857Z</time>
      </trkpt>
      <trkpt lat="43.66266" lon="2.26753">
        <ele>199.2</ele>
        <time>2025-09-30T11:32:26.280Z</time>
      </trkpt>
      <trkpt lat="43.66269" lon="2.2675">
        <ele>199</ele>
        <time>2025-09-30T11:32:26.555Z</time>
      </trkpt>
      <trkpt lat="43.66272" lon="2.26747">
        <ele>199</ele>
        <time>2025-09-30T11:32:26.978Z</time>
      </trkpt>
      <trkpt lat="43.66275" lon="2.26744">
        <ele>199</ele>
        <time>2025-09-30T11:32:27.401Z</time>
      </trkpt>
      <trkpt lat="43.66278" lon="2.26741">
        <ele>199</ele>
        <time>2025-09-30T11:32:27.823Z</time>
      </trkpt>
      <trkpt lat="43.66281" lon="2.26738">
        <ele>199</ele>
        <time>2025-09-30T11:32:28.246Z</time>
      </trkpt>
      <trkpt lat="43.66284" lon="2.26735">
        <ele>199.2</ele>
        <time>2025-09-30T11:32:29.023Z</time>
      </trkpt>
      <trkpt lat="43.66287" lon="2.26731">
        <ele>199.2</ele>
        <time>2025-09-30T11:32:29.499Z</time>
      </trkpt>
      <trkpt lat="43.6629" lon="2.26728">
        <ele>199.2</ele>
        <time>2025-09-30T11:32:29.922Z</time>
      </trkpt>
      <trkpt lat="43.66292" lon="2.26725">
        <ele>199.2</ele>
        <time>2025-09-30T11:32:30.259Z</time>
      </trkpt>
      <trkpt lat="43.66295" lon="2.26722">
        <ele>199.2</ele>
        <time>2025-09-30T11:32:30.681Z</time>
      </trkpt>
      <trkpt lat="43.66298" lon="2.26718">
        <ele>199.2</ele>
        <time>2025-09-30T11:32:31.157Z</time>
      </trkpt>
      <trkpt lat="43.663" lon="2.26715">
        <ele>199.4</ele>
        <time>2025-09-30T11:32:31.900Z</time>
      </trkpt>
      <trkpt lat="43.66302" lon="2.26711">
        <ele>199.4</ele>
        <time>2025-09-30T11:32:32.302Z</time>
      </trkpt>
      <trkpt lat="43.66304" lon="2.26707">
        <ele>199.6</ele>
        <time>2025-09-30T11:32:33.068Z</time>
      </trkpt>
      <trkpt lat="43.66306" lon="2.26703">
        <ele>199.6</ele>
        <time>2025-09-30T11:32:33.469Z</time>
      </trkpt>
      <trkpt lat="43.66308" lon="2.26698">
        <ele>199.8</ele>
        <time>2025-09-30T11:32:34.276Z</time>
      </trkpt>
      <trkpt lat="43.66309" lon="2.26694">
        <ele>199.8</ele>
        <time>2025-09-30T11:32:34.626Z</time>
      </trkpt>
      <trkpt lat="43.66311" lon="2.26689">
        <ele>199.8</ele>
        <time>2025-09-30T11:32:35.098Z</time>
      </trkpt>
      <trkpt lat="43.66312" lon="2.26684">
        <ele>199.8</ele>
        <time>2025-09-30T11:32:35.526Z</time>
      </trkpt>
      <trkpt lat="43.66314" lon="2.26679">
        <ele>200</ele>
        <time>2025-09-30T11:32:36.333Z</time>
      </trkpt>
      <trkpt lat="43.66315" lon="2.26674">
        <ele>200</ele>
        <time>2025-09-30T11:32:36.762Z</time>
      </trkpt>
      <trkpt lat="43.66316" lon="2.2667">
        <ele>200</ele>
        <time>2025-09-30T11:32:37.111Z</time>
      </trkpt>
      <trkpt lat="43.66318" lon="2.26665">
        <ele>200</ele>
        <time>2025-09-30T11:32:37.583Z</time>
      </trkpt>
      <trkpt lat="43.66319" lon="2.26661">
        <ele>200</ele>
        <time>2025-09-30T11:32:37.933Z</time>
      </trkpt>
      <trkpt lat="43.66321" lon="2.26656">
        <ele>200</ele>
        <time>2025-09-30T11:32:38.405Z</time>
      </trkpt>
      <trkpt lat="43.66322" lon="2.26652">
        <ele>200</ele>
        <time>2025-09-30T11:32:38.754Z</time>
      </trkpt>
      <trkpt lat="43.66324" lon="2.26647">
        <ele>200</ele>
        <time>2025-09-30T11:32:39.226Z</time>
      </trkpt>
      <trkpt lat="43.66325" lon="2.26643">
        <ele>200.2</ele>
        <time>2025-09-30T11:32:39.972Z</time>
      </trkpt>
      <trkpt lat="43.66326" lon="2.26639">
        <ele>200.2</ele>
        <time>2025-09-30T11:32:40.322Z</time>
      </trkpt>
      <trkpt lat="43.66328" lon="2.26634">
        <ele>200.2</ele>
        <time>2025-09-30T11:32:40.794Z</time>
      </trkpt>
      <trkpt lat="43.66328" lon="2.2663">
        <ele>200.2</ele>
        <time>2025-09-30T11:32:41.124Z</time>
      </trkpt>
      <trkpt lat="43.66328" lon="2.26624">
        <ele>200.2</ele>
        <time>2025-09-30T11:32:41.620Z</time>
      </trkpt>
      <trkpt lat="43.66327" lon="2.26619">
        <ele>200.2</ele>
        <time>2025-09-30T11:32:42.048Z</time>
      </trkpt>
      <trkpt lat="43.66326" lon="2.26614">
        <ele>200.2</ele>
        <time>2025-09-30T11:32:42.477Z</time>
      </trkpt>
      <trkpt lat="43.66325" lon="2.26608">
        <ele>200.2</ele>
        <time>2025-09-30T11:32:42.985Z</time>
      </trkpt>
      <trkpt lat="43.66324" lon="2.26602">
        <ele>200.2</ele>
        <time>2025-09-30T11:32:43.494Z</time>
      </trkpt>
      <trkpt lat="43.66324" lon="2.26596">
        <ele>200.2</ele>
        <time>2025-09-30T11:32:43.990Z</time>
      </trkpt>
      <trkpt lat="43.66323" lon="2.26591">
        <ele>200.2</ele>
        <time>2025-09-30T11:32:44.418Z</time>
      </trkpt>
      <trkpt lat="43.66321" lon="2.26584">
        <ele>200.2</ele>
        <time>2025-09-30T11:32:45.040Z</time>
      </trkpt>
      <trkpt lat="43.6632" lon="2.26579">
        <ele>200.2</ele>
        <time>2025-09-30T11:32:45.469Z</time>
      </trkpt>
      <trkpt lat="43.66319" lon="2.26573">
        <ele>200.2</ele>
        <time>2025-09-30T11:32:45.977Z</time>
      </trkpt>
      <trkpt lat="43.66317" lon="2.26567">
        <ele>200</ele>
        <time>2025-09-30T11:32:46.363Z</time>
      </trkpt>
      <trkpt lat="43.66316" lon="2.26561">
        <ele>200</ele>
        <time>2025-09-30T11:32:46.871Z</time>
      </trkpt>
      <trkpt lat="43.66314" lon="2.26555">
        <ele>200</ele>
        <time>2025-09-30T11:32:47.417Z</time>
      </trkpt>
      <trkpt lat="43.66313" lon="2.26549">
        <ele>200</ele>
        <time>2025-09-30T11:32:47.926Z</time>
      </trkpt>
      <trkpt lat="43.66311" lon="2.26543">
        <ele>200</ele>
        <time>2025-09-30T11:32:48.472Z</time>
      </trkpt>
      <trkpt lat="43.6631" lon="2.26537">
        <ele>200</ele>
        <time>2025-09-30T11:32:48.980Z</time>
      </trkpt>
      <trkpt lat="43.66308" lon="2.26532">
        <ele>200.2</ele>
        <time>2025-09-30T11:32:49.787Z</time>
      </trkpt>
      <trkpt lat="43.66307" lon="2.26527">
        <ele>200.2</ele>
        <time>2025-09-30T11:32:50.215Z</time>
      </trkpt>
      <trkpt lat="43.66305" lon="2.26521">
        <ele>200.2</ele>
        <time>2025-09-30T11:32:50.761Z</time>
      </trkpt>
      <trkpt lat="43.66304" lon="2.26516">
        <ele>200.2</ele>
        <time>2025-09-30T11:32:51.190Z</time>
      </trkpt>
      <trkpt lat="43.66302" lon="2.26511">
        <ele>200.4</ele>
        <time>2025-09-30T11:32:51.996Z</time>
      </trkpt>
      <trkpt lat="43.66301" lon="2.26505">
        <ele>200.4</ele>
        <time>2025-09-30T11:32:52.505Z</time>
      </trkpt>
      <trkpt lat="43.66299" lon="2.26501">
        <ele>200.4</ele>
        <time>2025-09-30T11:32:52.907Z</time>
      </trkpt>
      <trkpt lat="43.66298" lon="2.26496">
        <ele>200.4</ele>
        <time>2025-09-30T11:32:53.335Z</time>
      </trkpt>
      <trkpt lat="43.66297" lon="2.26491">
        <ele>200.4</ele>
        <time>2025-09-30T11:32:53.764Z</time>
      </trkpt>
      <trkpt lat="43.66295" lon="2.26486">
        <ele>200.6</ele>
        <time>2025-09-30T11:32:54.570Z</time>
      </trkpt>
      <trkpt lat="43.66294" lon="2.26481">
        <ele>200.6</ele>
        <time>2025-09-30T11:32:54.999Z</time>
      </trkpt>
      <trkpt lat="43.66293" lon="2.26475">
        <ele>200.6</ele>
        <time>2025-09-30T11:32:55.508Z</time>
      </trkpt>
      <trkpt lat="43.66291" lon="2.2647">
        <ele>200.6</ele>
        <time>2025-09-30T11:32:55.980Z</time>
      </trkpt>
      <trkpt lat="43.66289" lon="2.26465">
        <ele>200.6</ele>
        <time>2025-09-30T11:32:56.452Z</time>
      </trkpt>
      <trkpt lat="43.66288" lon="2.26459">
        <ele>200.6</ele>
        <time>2025-09-30T11:32:56.960Z</time>
      </trkpt>
      <trkpt lat="43.66286" lon="2.26452">
        <ele>200.8</ele>
        <time>2025-09-30T11:32:57.881Z</time>
      </trkpt>
      <trkpt lat="43.66285" lon="2.26446">
        <ele>200.8</ele>
        <time>2025-09-30T11:32:58.390Z</time>
      </trkpt>
      <trkpt lat="43.66283" lon="2.2644">
        <ele>200.8</ele>
        <time>2025-09-30T11:32:58.936Z</time>
      </trkpt>
      <trkpt lat="43.66281" lon="2.26433">
        <ele>200.6</ele>
        <time>2025-09-30T11:32:59.392Z</time>
      </trkpt>
      <trkpt lat="43.66279" lon="2.26427">
        <ele>200.6</ele>
        <time>2025-09-30T11:32:59.937Z</time>
      </trkpt>
      <trkpt lat="43.66277" lon="2.2642">
        <ele>200.6</ele>
        <time>2025-09-30T11:33:00.559Z</time>
      </trkpt>
      <trkpt lat="43.66275" lon="2.26414">
        <ele>200.6</ele>
        <time>2025-09-30T11:33:01.105Z</time>
      </trkpt>
      <trkpt lat="43.66274" lon="2.26407">
        <ele>200.6</ele>
        <time>2025-09-30T11:33:01.694Z</time>
      </trkpt>
      <trkpt lat="43.66272" lon="2.264">
        <ele>200.6</ele>
        <time>2025-09-30T11:33:02.316Z</time>
      </trkpt>
      <trkpt lat="43.6627" lon="2.26394">
        <ele>200.4</ele>
        <time>2025-09-30T11:33:02.702Z</time>
      </trkpt>
      <trkpt lat="43.66268" lon="2.26387">
        <ele>200.4</ele>
        <time>2025-09-30T11:33:03.323Z</time>
      </trkpt>
      <trkpt lat="43.66266" lon="2.2638">
        <ele>200.2</ele>
        <time>2025-09-30T11:33:03.779Z</time>
      </trkpt>
      <trkpt lat="43.66265" lon="2.26373">
        <ele>200.2</ele>
        <time>2025-09-30T11:33:04.369Z</time>
      </trkpt>
      <trkpt lat="43.66263" lon="2.26367">
        <ele>200</ele>
        <time>2025-09-30T11:33:04.754Z</time>
      </trkpt>
      <trkpt lat="43.66261" lon="2.2636">
        <ele>199.8</ele>
        <time>2025-09-30T11:33:05.210Z</time>
      </trkpt>
      <trkpt lat="43.66259" lon="2.26353">
        <ele>199.6</ele>
        <time>2025-09-30T11:33:05.666Z</time>
      </trkpt>
      <trkpt lat="43.66257" lon="2.26347">
        <ele>199.4</ele>
        <time>2025-09-30T11:33:06.052Z</time>
      </trkpt>
      <trkpt lat="43.66255" lon="2.2634">
        <ele>199</ele>
        <time>2025-09-30T11:33:06.425Z</time>
      </trkpt>
      <trkpt lat="43.66253" lon="2.26333">
        <ele>198.8</ele>
        <time>2025-09-30T11:33:06.881Z</time>
      </trkpt>
      <trkpt lat="43.66251" lon="2.26325">
        <ele>198.6</ele>
        <time>2025-09-30T11:33:07.410Z</time>
      </trkpt>
      <trkpt lat="43.66248" lon="2.26317">
        <ele>198.4</ele>
        <time>2025-09-30T11:33:07.982Z</time>
      </trkpt>
      <trkpt lat="43.66246" lon="2.2631">
        <ele>198</ele>
        <time>2025-09-30T11:33:08.355Z</time>
      </trkpt>
      <trkpt lat="43.66244" lon="2.26302">
        <ele>197.8</ele>
        <time>2025-09-30T11:33:08.884Z</time>
      </trkpt>
      <trkpt lat="43.66241" lon="2.26294">
        <ele>197.6</ele>
        <time>2025-09-30T11:33:09.455Z</time>
      </trkpt>
      <trkpt lat="43.66239" lon="2.26287">
        <ele>197.6</ele>
        <time>2025-09-30T11:33:10.077Z</time>
      </trkpt>
      <trkpt lat="43.66237" lon="2.2628">
        <ele>197.4</ele>
        <time>2025-09-30T11:33:10.533Z</time>
      </trkpt>
      <trkpt lat="43.66234" lon="2.26273">
        <ele>197.2</ele>
        <time>2025-09-30T11:33:11.036Z</time>
      </trkpt>
      <trkpt lat="43.66232" lon="2.26266">
        <ele>197.2</ele>
        <time>2025-09-30T11:33:11.658Z</time>
      </trkpt>
      <trkpt lat="43.66229" lon="2.26259">
        <ele>197.2</ele>
        <time>2025-09-30T11:33:12.330Z</time>
      </trkpt>
      <trkpt lat="43.66227" lon="2.26252">
        <ele>197.2</ele>
        <time>2025-09-30T11:33:12.952Z</time>
      </trkpt>
      <trkpt lat="43.66224" lon="2.26245">
        <ele>197.2</ele>
        <time>2025-09-30T11:33:13.624Z</time>
      </trkpt>
      <trkpt lat="43.66221" lon="2.26239">
        <ele>197.2</ele>
        <time>2025-09-30T11:33:14.227Z</time>
      </trkpt>
      <trkpt lat="43.66219" lon="2.26232">
        <ele>197.2</ele>
        <time>2025-09-30T11:33:14.848Z</time>
      </trkpt>
      <trkpt lat="43.66216" lon="2.26225">
        <ele>197.2</ele>
        <time>2025-09-30T11:33:15.521Z</time>
      </trkpt>
      <trkpt lat="43.66214" lon="2.26218">
        <ele>197.2</ele>
        <time>2025-09-30T11:33:16.142Z</time>
      </trkpt>
      <trkpt lat="43.66211" lon="2.26211">
        <ele>197.2</ele>
        <time>2025-09-30T11:33:16.814Z</time>
      </trkpt>
      <trkpt lat="43.66209" lon="2.26205">
        <ele>197.4</ele>
        <time>2025-09-30T11:33:17.674Z</time>
      </trkpt>
      <trkpt lat="43.66207" lon="2.26198">
        <ele>197.4</ele>
        <time>2025-09-30T11:33:18.296Z</time>
      </trkpt>
      <trkpt lat="43.66204" lon="2.26191">
        <ele>197.6</ele>
        <time>2025-09-30T11:33:19.260Z</time>
      </trkpt>
      <trkpt lat="43.66202" lon="2.26184">
        <ele>197.8</ele>
        <time>2025-09-30T11:33:20.181Z</time>
      </trkpt>
      <trkpt lat="43.662" lon="2.26178">
        <ele>197.8</ele>
        <time>2025-09-30T11:33:20.726Z</time>
      </trkpt>
      <trkpt lat="43.66197" lon="2.26171">
        <ele>198</ele>
        <time>2025-09-30T11:33:21.690Z</time>
      </trkpt>
      <trkpt lat="43.66195" lon="2.26165">
        <ele>198.4</ele>
        <time>2025-09-30T11:33:23.184Z</time>
      </trkpt>
      <trkpt lat="43.66192" lon="2.26159">
        <ele>198.6</ele>
        <time>2025-09-30T11:33:24.089Z</time>
      </trkpt>
      <trkpt lat="43.6619" lon="2.26153">
        <ele>198.8</ele>
        <time>2025-09-30T11:33:24.949Z</time>
      </trkpt>
      <trkpt lat="43.66187" lon="2.26146">
        <ele>199</ele>
        <time>2025-09-30T11:33:25.913Z</time>
      </trkpt>
      <trkpt lat="43.66185" lon="2.2614">
        <ele>199</ele>
        <time>2025-09-30T11:33:26.459Z</time>
      </trkpt>
      <trkpt lat="43.66183" lon="2.26134">
        <ele>199.2</ele>
        <time>2025-09-30T11:33:27.318Z</time>
      </trkpt>
      <trkpt lat="43.6618" lon="2.26127">
        <ele>199.4</ele>
        <time>2025-09-30T11:33:28.282Z</time>
      </trkpt>
      <trkpt lat="43.66178" lon="2.26121">
        <ele>199.4</ele>
        <time>2025-09-30T11:33:28.828Z</time>
      </trkpt>
      <trkpt lat="43.66176" lon="2.26114">
        <ele>199.6</ele>
        <time>2025-09-30T11:33:29.749Z</time>
      </trkpt>
      <trkpt lat="43.66174" lon="2.26108">
        <ele>199.8</ele>
        <time>2025-09-30T11:33:30.609Z</time>
      </trkpt>
      <trkpt lat="43.66171" lon="2.26101">
        <ele>199.8</ele>
        <time>2025-09-30T11:33:31.281Z</time>
      </trkpt>
      <trkpt lat="43.66169" lon="2.26095">
        <ele>200</ele>
        <time>2025-09-30T11:33:32.141Z</time>
      </trkpt>
      <trkpt lat="43.66167" lon="2.26089">
        <ele>200</ele>
        <time>2025-09-30T11:33:32.686Z</time>
      </trkpt>
      <trkpt lat="43.66166" lon="2.26082">
        <ele>199.8</ele>
        <time>2025-09-30T11:33:33.112Z</time>
      </trkpt>
      <trkpt lat="43.66164" lon="2.26075">
        <ele>199.8</ele>
        <time>2025-09-30T11:33:33.734Z</time>
      </trkpt>
      <trkpt lat="43.66162" lon="2.26068">
        <ele>199.6</ele>
        <time>2025-09-30T11:33:34.190Z</time>
      </trkpt>
      <trkpt lat="43.66159" lon="2.26062">
        <ele>199.4</ele>
        <time>2025-09-30T11:33:34.628Z</time>
      </trkpt>
      <trkpt lat="43.66157" lon="2.26055">
        <ele>199.2</ele>
        <time>2025-09-30T11:33:35.084Z</time>
      </trkpt>
      <trkpt lat="43.66154" lon="2.26047">
        <ele>199.2</ele>
        <time>2025-09-30T11:33:35.829Z</time>
      </trkpt>
      <trkpt lat="43.66152" lon="2.2604">
        <ele>199</ele>
        <time>2025-09-30T11:33:36.285Z</time>
      </trkpt>
      <trkpt lat="43.66149" lon="2.26033">
        <ele>198.8</ele>
        <time>2025-09-30T11:33:36.788Z</time>
      </trkpt>
      <trkpt lat="43.66147" lon="2.26026">
        <ele>198.4</ele>
        <time>2025-09-30T11:33:37.161Z</time>
      </trkpt>
      <trkpt lat="43.66145" lon="2.26019">
        <ele>198.2</ele>
        <time>2025-09-30T11:33:37.617Z</time>
      </trkpt>
      <trkpt lat="43.66143" lon="2.26011">
        <ele>198</ele>
        <time>2025-09-30T11:33:38.146Z</time>
      </trkpt>
      <trkpt lat="43.66142" lon="2.26003">
        <ele>197.8</ele>
        <time>2025-09-30T11:33:38.648Z</time>
      </trkpt>
      <trkpt lat="43.66142" lon="2.25995">
        <ele>197.6</ele>
        <time>2025-09-30T11:33:39.141Z</time>
      </trkpt>
      <trkpt lat="43.66143" lon="2.25986">
        <ele>197.4</ele>
        <time>2025-09-30T11:33:39.720Z</time>
      </trkpt>
      <trkpt lat="43.66144" lon="2.25977">
        <ele>197</ele>
        <time>2025-09-30T11:33:40.188Z</time>
      </trkpt>
      <trkpt lat="43.66145" lon="2.25968">
        <ele>196.8</ele>
        <time>2025-09-30T11:33:40.767Z</time>
      </trkpt>
      <trkpt lat="43.66147" lon="2.25958">
        <ele>196.4</ele>
        <time>2025-09-30T11:33:41.327Z</time>
      </trkpt>
      <trkpt lat="43.66149" lon="2.25949">
        <ele>196</ele>
        <time>2025-09-30T11:33:41.817Z</time>
      </trkpt>
      <trkpt lat="43.66151" lon="2.2594">
        <ele>195.8</ele>
        <time>2025-09-30T11:33:42.421Z</time>
      </trkpt>
      <trkpt lat="43.66153" lon="2.2593">
        <ele>195.4</ele>
        <time>2025-09-30T11:33:42.981Z</time>
      </trkpt>
      <trkpt lat="43.66156" lon="2.25921">
        <ele>195.2</ele>
        <time>2025-09-30T11:33:43.623Z</time>
      </trkpt>
      <trkpt lat="43.66158" lon="2.25912">
        <ele>194.8</ele>
        <time>2025-09-30T11:33:44.113Z</time>
      </trkpt>
      <trkpt lat="43.66161" lon="2.25903">
        <ele>194.4</ele>
        <time>2025-09-30T11:33:44.639Z</time>
      </trkpt>
      <trkpt lat="43.66164" lon="2.25894">
        <ele>194.2</ele>
        <time>2025-09-30T11:33:45.282Z</time>
      </trkpt>
      <trkpt lat="43.66168" lon="2.25885">
        <ele>193.8</ele>
        <time>2025-09-30T11:33:45.855Z</time>
      </trkpt>
      <trkpt lat="43.66172" lon="2.25877">
        <ele>193.4</ele>
        <time>2025-09-30T11:33:46.368Z</time>
      </trkpt>
      <trkpt lat="43.66176" lon="2.2587">
        <ele>193.2</ele>
        <time>2025-09-30T11:33:46.932Z</time>
      </trkpt>
      <trkpt lat="43.6618" lon="2.25863">
        <ele>193</ele>
        <time>2025-09-30T11:33:47.497Z</time>
      </trkpt>
      <trkpt lat="43.66185" lon="2.25856">
        <ele>192.8</ele>
        <time>2025-09-30T11:33:48.134Z</time>
      </trkpt>
      <trkpt lat="43.6619" lon="2.2585">
        <ele>192.6</ele>
        <time>2025-09-30T11:33:48.717Z</time>
      </trkpt>
      <trkpt lat="43.66195" lon="2.25843">
        <ele>192.4</ele>
        <time>2025-09-30T11:33:49.353Z</time>
      </trkpt>
      <trkpt lat="43.662" lon="2.25836">
        <ele>192.2</ele>
        <time>2025-09-30T11:33:49.990Z</time>
      </trkpt>
      <trkpt lat="43.66205" lon="2.25829">
        <ele>191.8</ele>
        <time>2025-09-30T11:33:50.511Z</time>
      </trkpt>
      <trkpt lat="43.6621" lon="2.25823">
        <ele>191.6</ele>
        <time>2025-09-30T11:33:51.094Z</time>
      </trkpt>
      <trkpt lat="43.66215" lon="2.25816">
        <ele>191.4</ele>
        <time>2025-09-30T11:33:51.730Z</time>
      </trkpt>
      <trkpt lat="43.66219" lon="2.25809">
        <ele>191.2</ele>
        <time>2025-09-30T11:33:52.295Z</time>
      </trkpt>
      <trkpt lat="43.66222" lon="2.25801">
        <ele>191</ele>
        <time>2025-09-30T11:33:52.867Z</time>
      </trkpt>
      <trkpt lat="43.66225" lon="2.25792">
        <ele>190.8</ele>
        <time>2025-09-30T11:33:53.509Z</time>
      </trkpt>
      <trkpt lat="43.66227" lon="2.25782">
        <ele>190.6</ele>
        <time>2025-09-30T11:33:54.189Z</time>
      </trkpt>
      <trkpt lat="43.66229" lon="2.25773">
        <ele>190.6</ele>
        <time>2025-09-30T11:33:54.966Z</time>
      </trkpt>
      <trkpt lat="43.66231" lon="2.25764">
        <ele>190.4</ele>
        <time>2025-09-30T11:33:55.570Z</time>
      </trkpt>
      <trkpt lat="43.66233" lon="2.25755">
        <ele>190.4</ele>
        <time>2025-09-30T11:33:56.348Z</time>
      </trkpt>
      <trkpt lat="43.66235" lon="2.25746">
        <ele>190.2</ele>
        <time>2025-09-30T11:33:56.951Z</time>
      </trkpt>
      <trkpt lat="43.66237" lon="2.25737">
        <ele>190.2</ele>
        <time>2025-09-30T11:33:57.729Z</time>
      </trkpt>
      <trkpt lat="43.66239" lon="2.25728">
        <ele>190</ele>
        <time>2025-09-30T11:33:58.332Z</time>
      </trkpt>
      <trkpt lat="43.66241" lon="2.25719">
        <ele>190</ele>
        <time>2025-09-30T11:33:59.110Z</time>
      </trkpt>
      <trkpt lat="43.66244" lon="2.2571">
        <ele>189.8</ele>
        <time>2025-09-30T11:33:59.753Z</time>
      </trkpt>
      <trkpt lat="43.66246" lon="2.25701">
        <ele>189.6</ele>
        <time>2025-09-30T11:34:00.356Z</time>
      </trkpt>
      <trkpt lat="43.66248" lon="2.25692">
        <ele>189.4</ele>
        <time>2025-09-30T11:34:00.960Z</time>
      </trkpt>
      <trkpt lat="43.6625" lon="2.25684">
        <ele>189.2</ele>
        <time>2025-09-30T11:34:01.488Z</time>
      </trkpt>
      <trkpt lat="43.66252" lon="2.25675">
        <ele>189</ele>
        <time>2025-09-30T11:34:02.092Z</time>
      </trkpt>
      <trkpt lat="43.66254" lon="2.25666">
        <ele>188.6</ele>
        <time>2025-09-30T11:34:02.582Z</time>
      </trkpt>
      <trkpt lat="43.66256" lon="2.25657">
        <ele>188.4</ele>
        <time>2025-09-30T11:34:03.186Z</time>
      </trkpt>
      <trkpt lat="43.66258" lon="2.25649">
        <ele>188.2</ele>
        <time>2025-09-30T11:34:03.715Z</time>
      </trkpt>
      <trkpt lat="43.6626" lon="2.2564">
        <ele>188</ele>
        <time>2025-09-30T11:34:04.318Z</time>
      </trkpt>
      <trkpt lat="43.66261" lon="2.25632">
        <ele>187.8</ele>
        <time>2025-09-30T11:34:04.820Z</time>
      </trkpt>
      <trkpt lat="43.66263" lon="2.25624">
        <ele>187.4</ele>
        <time>2025-09-30T11:34:05.243Z</time>
      </trkpt>
      <trkpt lat="43.66263" lon="2.25618">
        <ele>187.2</ele>
        <time>2025-09-30T11:34:05.583Z</time>
      </trkpt>
      <trkpt lat="43.66264" lon="2.25613">
        <ele>186.8</ele>
        <time>2025-09-30T11:34:05.840Z</time>
      </trkpt>
      <trkpt lat="43.66264" lon="2.25609">
        <ele>186.6</ele>
        <time>2025-09-30T11:34:06.038Z</time>
      </trkpt>
      <trkpt lat="43.66264" lon="2.25605">
        <ele>186.4</ele>
        <time>2025-09-30T11:34:06.237Z</time>
      </trkpt>
      <trkpt lat="43.66264" lon="2.25601">
        <ele>186.2</ele>
        <time>2025-09-30T11:34:06.435Z</time>
      </trkpt>
      <trkpt lat="43.66264" lon="2.25598">
        <ele>186.2</ele>
        <time>2025-09-30T11:34:06.683Z</time>
      </trkpt>
      <trkpt lat="43.66263" lon="2.25594">
        <ele>186</ele>
        <time>2025-09-30T11:34:06.894Z</time>
      </trkpt>
      <trkpt lat="43.66263" lon="2.25591">
        <ele>186</ele>
        <time>2025-09-30T11:34:07.142Z</time>
      </trkpt>
      <trkpt lat="43.66261" lon="2.25589">
        <ele>185.8</ele>
        <time>2025-09-30T11:34:07.311Z</time>
      </trkpt>
      <trkpt lat="43.66259" lon="2.25587">
        <ele>185.8</ele>
        <time>2025-09-30T11:34:07.593Z</time>
      </trkpt>
      <trkpt lat="43.66258" lon="2.25584">
        <ele>185.8</ele>
        <time>2025-09-30T11:34:07.866Z</time>
      </trkpt>
      <trkpt lat="43.66257" lon="2.2558">
        <ele>185.6</ele>
        <time>2025-09-30T11:34:08.077Z</time>
      </trkpt>
      <trkpt lat="43.66257" lon="2.25577">
        <ele>185.6</ele>
        <time>2025-09-30T11:34:08.325Z</time>
      </trkpt>
      <trkpt lat="43.66258" lon="2.25573">
        <ele>185.6</ele>
        <time>2025-09-30T11:34:08.675Z</time>
      </trkpt>
      <trkpt lat="43.6626" lon="2.25569">
        <ele>185.6</ele>
        <time>2025-09-30T11:34:09.077Z</time>
      </trkpt>
      <trkpt lat="43.66262" lon="2.25565">
        <ele>185.6</ele>
        <time>2025-09-30T11:34:09.478Z</time>
      </trkpt>
      <trkpt lat="43.66265" lon="2.25562">
        <ele>185.8</ele>
        <time>2025-09-30T11:34:10.255Z</time>
      </trkpt>
      <trkpt lat="43.66267" lon="2.25559">
        <ele>185.8</ele>
        <time>2025-09-30T11:34:10.592Z</time>
      </trkpt>
      <trkpt lat="43.66269" lon="2.25556">
        <ele>185.8</ele>
        <time>2025-09-30T11:34:10.929Z</time>
      </trkpt>
      <trkpt lat="43.66271" lon="2.25553">
        <ele>186</ele>
        <time>2025-09-30T11:34:11.672Z</time>
      </trkpt>
      <trkpt lat="43.66272" lon="2.2555">
        <ele>186.2</ele>
        <time>2025-09-30T11:34:12.419Z</time>
      </trkpt>
      <trkpt lat="43.66274" lon="2.25547">
        <ele>186.2</ele>
        <time>2025-09-30T11:34:12.756Z</time>
      </trkpt>
      <trkpt lat="43.66276" lon="2.25545">
        <ele>186.4</ele>
        <time>2025-09-30T11:34:13.500Z</time>
      </trkpt>
      <trkpt lat="43.66278" lon="2.25542">
        <ele>186.6</ele>
        <time>2025-09-30T11:34:14.243Z</time>
      </trkpt>
      <trkpt lat="43.6628" lon="2.25539">
        <ele>186.8</ele>
        <time>2025-09-30T11:34:14.986Z</time>
      </trkpt>
      <trkpt lat="43.66282" lon="2.25536">
        <ele>187</ele>
        <time>2025-09-30T11:34:15.729Z</time>
      </trkpt>
      <trkpt lat="43.66284" lon="2.25534">
        <ele>187.2</ele>
        <time>2025-09-30T11:34:16.474Z</time>
      </trkpt>
      <trkpt lat="43.66286" lon="2.25531">
        <ele>187.4</ele>
        <time>2025-09-30T11:34:17.217Z</time>
      </trkpt>
      <trkpt lat="43.66288" lon="2.25529">
        <ele>187.6</ele>
        <time>2025-09-30T11:34:17.961Z</time>
      </trkpt>
      <trkpt lat="43.6629" lon="2.25527">
        <ele>187.8</ele>
        <time>2025-09-30T11:34:18.705Z</time>
      </trkpt>
      <trkpt lat="43.66293" lon="2.25524">
        <ele>188</ele>
        <time>2025-09-30T11:34:19.482Z</time>
      </trkpt>
      <trkpt lat="43.66295" lon="2.25521">
        <ele>188.2</ele>
        <time>2025-09-30T11:34:20.225Z</time>
      </trkpt>
      <trkpt lat="43.66297" lon="2.25518">
        <ele>188.4</ele>
        <time>2025-09-30T11:34:20.968Z</time>
      </trkpt>
      <trkpt lat="43.66299" lon="2.25515">
        <ele>188.6</ele>
        <time>2025-09-30T11:34:21.711Z</time>
      </trkpt>
      <trkpt lat="43.66302" lon="2.25513">
        <ele>188.8</ele>
        <time>2025-09-30T11:34:22.467Z</time>
      </trkpt>
      <trkpt lat="43.66304" lon="2.2551">
        <ele>189</ele>
        <time>2025-09-30T11:34:23.210Z</time>
      </trkpt>
      <trkpt lat="43.66306" lon="2.25507">
        <ele>189.2</ele>
        <time>2025-09-30T11:34:23.953Z</time>
      </trkpt>
      <trkpt lat="43.66308" lon="2.25505">
        <ele>189.4</ele>
        <time>2025-09-30T11:34:24.697Z</time>
      </trkpt>
      <trkpt lat="43.6631" lon="2.25503">
        <ele>189.6</ele>
        <time>2025-09-30T11:34:25.442Z</time>
      </trkpt>
      <trkpt lat="43.66311" lon="2.25501">
        <ele>189.8</ele>
        <time>2025-09-30T11:34:26.224Z</time>
      </trkpt>
      <trkpt lat="43.66313" lon="2.25498">
        <ele>190</ele>
        <time>2025-09-30T11:34:26.967Z</time>
      </trkpt>
      <trkpt lat="43.66314" lon="2.25496">
        <ele>190.2</ele>
        <time>2025-09-30T11:34:27.749Z</time>
      </trkpt>
      <trkpt lat="43.66316" lon="2.25493">
        <ele>190.4</ele>
        <time>2025-09-30T11:34:28.492Z</time>
      </trkpt>
      <trkpt lat="43.66318" lon="2.25491">
        <ele>190.6</ele>
        <time>2025-09-30T11:34:29.237Z</time>
      </trkpt>
      <trkpt lat="43.6632" lon="2.25489">
        <ele>190.8</ele>
        <time>2025-09-30T11:34:29.981Z</time>
      </trkpt>
      <trkpt lat="43.66322" lon="2.25487">
        <ele>191</ele>
        <time>2025-09-30T11:34:30.725Z</time>
      </trkpt>
      <trkpt lat="43.66324" lon="2.25485">
        <ele>191.2</ele>
        <time>2025-09-30T11:34:31.470Z</time>
      </trkpt>
      <trkpt lat="43.66326" lon="2.25483">
        <ele>191.4</ele>
        <time>2025-09-30T11:34:32.214Z</time>
      </trkpt>
      <trkpt lat="43.66328" lon="2.2548">
        <ele>191.6</ele>
        <time>2025-09-30T11:34:32.957Z</time>
      </trkpt>
      <trkpt lat="43.6633" lon="2.25478">
        <ele>191.8</ele>
        <time>2025-09-30T11:34:33.701Z</time>
      </trkpt>
      <trkpt lat="43.66332" lon="2.25476">
        <ele>192</ele>
        <time>2025-09-30T11:34:34.446Z</time>
      </trkpt>
      <trkpt lat="43.66333" lon="2.25473">
        <ele>192.2</ele>
        <time>2025-09-30T11:34:35.193Z</time>
      </trkpt>
      <trkpt lat="43.66336" lon="2.25471">
        <ele>192.4</ele>
        <time>2025-09-30T11:34:35.949Z</time>
      </trkpt>
      <trkpt lat="43.66338" lon="2.2547">
        <ele>192.6</ele>
        <time>2025-09-30T11:34:36.711Z</time>
      </trkpt>
      <trkpt lat="43.6634" lon="2.25468">
        <ele>192.8</ele>
        <time>2025-09-30T11:34:37.455Z</time>
      </trkpt>
      <trkpt lat="43.66342" lon="2.25466">
        <ele>193.2</ele>
        <time>2025-09-30T11:34:38.663Z</time>
      </trkpt>
      <trkpt lat="43.66344" lon="2.25464">
        <ele>193.4</ele>
        <time>2025-09-30T11:34:39.407Z</time>
      </trkpt>
      <trkpt lat="43.66347" lon="2.25462">
        <ele>193.6</ele>
        <time>2025-09-30T11:34:40.163Z</time>
      </trkpt>
      <trkpt lat="43.66349" lon="2.25461">
        <ele>193.8</ele>
        <time>2025-09-30T11:34:40.925Z</time>
      </trkpt>
      <trkpt lat="43.66351" lon="2.25459">
        <ele>194</ele>
        <time>2025-09-30T11:34:41.670Z</time>
      </trkpt>
      <trkpt lat="43.66353" lon="2.25457">
        <ele>194.2</ele>
        <time>2025-09-30T11:34:42.414Z</time>
      </trkpt>
      <trkpt lat="43.66355" lon="2.25456">
        <ele>194.4</ele>
        <time>2025-09-30T11:34:43.176Z</time>
      </trkpt>
      <trkpt lat="43.66357" lon="2.25454">
        <ele>194.6</ele>
        <time>2025-09-30T11:34:43.920Z</time>
      </trkpt>
      <trkpt lat="43.66359" lon="2.25452">
        <ele>194.8</ele>
        <time>2025-09-30T11:34:44.664Z</time>
      </trkpt>
      <trkpt lat="43.66362" lon="2.25451">
        <ele>195</ele>
        <time>2025-09-30T11:34:45.411Z</time>
      </trkpt>
      <trkpt lat="43.66364" lon="2.25449">
        <ele>195</ele>
        <time>2025-09-30T11:34:45.693Z</time>
      </trkpt>
      <trkpt lat="43.66366" lon="2.25448">
        <ele>195.2</ele>
        <time>2025-09-30T11:34:46.455Z</time>
      </trkpt>
      <trkpt lat="43.66368" lon="2.25446">
        <ele>195.4</ele>
        <time>2025-09-30T11:34:47.199Z</time>
      </trkpt>
      <trkpt lat="43.66371" lon="2.25445">
        <ele>195.6</ele>
        <time>2025-09-30T11:34:47.946Z</time>
      </trkpt>
      <trkpt lat="43.66373" lon="2.25443">
        <ele>195.6</ele>
        <time>2025-09-30T11:34:48.227Z</time>
      </trkpt>
      <trkpt lat="43.66375" lon="2.25442">
        <ele>195.8</ele>
        <time>2025-09-30T11:34:48.989Z</time>
      </trkpt>
      <trkpt lat="43.66377" lon="2.2544">
        <ele>195.8</ele>
        <time>2025-09-30T11:34:49.271Z</time>
      </trkpt>
      <trkpt lat="43.6638" lon="2.25439">
        <ele>196</ele>
        <time>2025-09-30T11:34:50.018Z</time>
      </trkpt>
      <trkpt lat="43.66382" lon="2.25437">
        <ele>196.2</ele>
        <time>2025-09-30T11:34:50.762Z</time>
      </trkpt>
      <trkpt lat="43.66384" lon="2.25436">
        <ele>196.2</ele>
        <time>2025-09-30T11:34:51.005Z</time>
      </trkpt>
      <trkpt lat="43.66386" lon="2.25435">
        <ele>196.4</ele>
        <time>2025-09-30T11:34:51.767Z</time>
      </trkpt>
      <trkpt lat="43.66389" lon="2.25433">
        <ele>196.4</ele>
        <time>2025-09-30T11:34:52.147Z</time>
      </trkpt>
      <trkpt lat="43.66392" lon="2.25432">
        <ele>196.6</ele>
        <time>2025-09-30T11:34:52.894Z</time>
      </trkpt>
      <trkpt lat="43.66394" lon="2.2543">
        <ele>196.6</ele>
        <time>2025-09-30T11:34:53.176Z</time>
      </trkpt>
      <trkpt lat="43.66397" lon="2.25428">
        <ele>196.6</ele>
        <time>2025-09-30T11:34:53.556Z</time>
      </trkpt>
      <trkpt lat="43.664" lon="2.25427">
        <ele>196.8</ele>
        <time>2025-09-30T11:34:54.303Z</time>
      </trkpt>
      <trkpt lat="43.66403" lon="2.25425">
        <ele>196.8</ele>
        <time>2025-09-30T11:34:54.683Z</time>
      </trkpt>
      <trkpt lat="43.66406" lon="2.25424">
        <ele>196.8</ele>
        <time>2025-09-30T11:34:55.035Z</time>
      </trkpt>
      <trkpt lat="43.66409" lon="2.25422">
        <ele>196.8</ele>
        <time>2025-09-30T11:34:55.416Z</time>
      </trkpt>
      <trkpt lat="43.66412" lon="2.25421">
        <ele>197</ele>
        <time>2025-09-30T11:34:56.162Z</time>
      </trkpt>
      <trkpt lat="43.66415" lon="2.2542">
        <ele>197</ele>
        <time>2025-09-30T11:34:56.515Z</time>
      </trkpt>
      <trkpt lat="43.66417" lon="2.25419">
        <ele>197</ele>
        <time>2025-09-30T11:34:56.757Z</time>
      </trkpt>
      <trkpt lat="43.6642" lon="2.25417">
        <ele>197</ele>
        <time>2025-09-30T11:34:57.138Z</time>
      </trkpt>
      <trkpt lat="43.66423" lon="2.25416">
        <ele>197.2</ele>
        <time>2025-09-30T11:34:57.884Z</time>
      </trkpt>
      <trkpt lat="43.66426" lon="2.25415">
        <ele>197.2</ele>
        <time>2025-09-30T11:34:58.237Z</time>
      </trkpt>
      <trkpt lat="43.66429" lon="2.25413">
        <ele>197.2</ele>
        <time>2025-09-30T11:34:58.617Z</time>
      </trkpt>
      <trkpt lat="43.66431" lon="2.25412">
        <ele>197.2</ele>
        <time>2025-09-30T11:34:58.860Z</time>
      </trkpt>
      <trkpt lat="43.66434" lon="2.2541">
        <ele>197.4</ele>
        <time>2025-09-30T11:34:59.616Z</time>
      </trkpt>
      <trkpt lat="43.66437" lon="2.25408">
        <ele>197.4</ele>
        <time>2025-09-30T11:34:59.996Z</time>
      </trkpt>
      <trkpt lat="43.6644" lon="2.25407">
        <ele>197.4</ele>
        <time>2025-09-30T11:35:00.349Z</time>
      </trkpt>
      <trkpt lat="43.66443" lon="2.25405">
        <ele>197.6</ele>
        <time>2025-09-30T11:35:01.105Z</time>
      </trkpt>
      <trkpt lat="43.66446" lon="2.25404">
        <ele>197.6</ele>
        <time>2025-09-30T11:35:01.457Z</time>
      </trkpt>
      <trkpt lat="43.66449" lon="2.25402">
        <ele>197.8</ele>
        <time>2025-09-30T11:35:02.213Z</time>
      </trkpt>
      <trkpt lat="43.66452" lon="2.25401">
        <ele>197.8</ele>
        <time>2025-09-30T11:35:02.566Z</time>
      </trkpt>
      <trkpt lat="43.66454" lon="2.254">
        <ele>198</ele>
        <time>2025-09-30T11:35:03.328Z</time>
      </trkpt>
      <trkpt lat="43.66457" lon="2.25399">
        <ele>198</ele>
        <time>2025-09-30T11:35:03.680Z</time>
      </trkpt>
      <trkpt lat="43.66459" lon="2.25397">
        <ele>198</ele>
        <time>2025-09-30T11:35:03.962Z</time>
      </trkpt>
      <trkpt lat="43.66461" lon="2.25397">
        <ele>198.2</ele>
        <time>2025-09-30T11:35:04.733Z</time>
      </trkpt>
      <trkpt lat="43.66463" lon="2.25396">
        <ele>198.2</ele>
        <time>2025-09-30T11:35:04.976Z</time>
      </trkpt>
      <trkpt lat="43.66465" lon="2.25394">
        <ele>198.4</ele>
        <time>2025-09-30T11:35:05.720Z</time>
      </trkpt>
      <trkpt lat="43.66468" lon="2.25394">
        <ele>198.6</ele>
        <time>2025-09-30T11:35:06.464Z</time>
      </trkpt>
      <trkpt lat="43.6647" lon="2.25392">
        <ele>198.8</ele>
        <time>2025-09-30T11:35:07.209Z</time>
      </trkpt>
      <trkpt lat="43.66473" lon="2.25391">
        <ele>198.8</ele>
        <time>2025-09-30T11:35:07.561Z</time>
      </trkpt>
      <trkpt lat="43.66475" lon="2.25389">
        <ele>199</ele>
        <time>2025-09-30T11:35:08.305Z</time>
      </trkpt>
      <trkpt lat="43.66478" lon="2.25387">
        <ele>199</ele>
        <time>2025-09-30T11:35:08.686Z</time>
      </trkpt>
      <trkpt lat="43.6648" lon="2.25386">
        <ele>199.2</ele>
        <time>2025-09-30T11:35:09.448Z</time>
      </trkpt>
      <trkpt lat="43.66483" lon="2.25385">
        <ele>199.4</ele>
        <time>2025-09-30T11:35:10.194Z</time>
      </trkpt>
      <trkpt lat="43.66485" lon="2.25384">
        <ele>199.4</ele>
        <time>2025-09-30T11:35:10.437Z</time>
      </trkpt>
      <trkpt lat="43.66487" lon="2.25384">
        <ele>199.6</ele>
        <time>2025-09-30T11:35:11.208Z</time>
      </trkpt>
      <trkpt lat="43.66491" lon="2.25383">
        <ele>199.6</ele>
        <time>2025-09-30T11:35:11.672Z</time>
      </trkpt>
      <trkpt lat="43.66495" lon="2.25381">
        <ele>199.8</ele>
        <time>2025-09-30T11:35:12.488Z</time>
      </trkpt>
      <trkpt lat="43.66498" lon="2.25379">
        <ele>200</ele>
        <time>2025-09-30T11:35:13.244Z</time>
      </trkpt>
      <trkpt lat="43.66501" lon="2.25377">
        <ele>200</ele>
        <time>2025-09-30T11:35:13.625Z</time>
      </trkpt>
      <trkpt lat="43.66505" lon="2.25374">
        <ele>200</ele>
        <time>2025-09-30T11:35:14.144Z</time>
      </trkpt>
      <trkpt lat="43.66508" lon="2.25372">
        <ele>200</ele>
        <time>2025-09-30T11:35:14.525Z</time>
      </trkpt>
      <trkpt lat="43.66512" lon="2.25369">
        <ele>200.2</ele>
        <time>2025-09-30T11:35:15.365Z</time>
      </trkpt>
      <trkpt lat="43.66515" lon="2.25367">
        <ele>200.2</ele>
        <time>2025-09-30T11:35:15.745Z</time>
      </trkpt>
      <trkpt lat="43.66518" lon="2.25365">
        <ele>200.4</ele>
        <time>2025-09-30T11:35:16.501Z</time>
      </trkpt>
      <trkpt lat="43.66521" lon="2.25362">
        <ele>200.4</ele>
        <time>2025-09-30T11:35:16.924Z</time>
      </trkpt>
      <trkpt lat="43.66524" lon="2.2536">
        <ele>200.6</ele>
        <time>2025-09-30T11:35:17.680Z</time>
      </trkpt>
      <trkpt lat="43.66527" lon="2.25357">
        <ele>200.8</ele>
        <time>2025-09-30T11:35:18.457Z</time>
      </trkpt>
      <trkpt lat="43.6653" lon="2.25356">
        <ele>200.8</ele>
        <time>2025-09-30T11:35:18.809Z</time>
      </trkpt>
      <trkpt lat="43.66533" lon="2.25354">
        <ele>201</ele>
        <time>2025-09-30T11:35:19.565Z</time>
      </trkpt>
      <trkpt lat="43.66537" lon="2.25352">
        <ele>201.2</ele>
        <time>2025-09-30T11:35:20.381Z</time>
      </trkpt>
      <trkpt lat="43.6654" lon="2.2535">
        <ele>201.4</ele>
        <time>2025-09-30T11:35:21.138Z</time>
      </trkpt>
      <trkpt lat="43.66542" lon="2.25349">
        <ele>201.6</ele>
        <time>2025-09-30T11:35:21.899Z</time>
      </trkpt>
      <trkpt lat="43.66545" lon="2.25347">
        <ele>201.8</ele>
        <time>2025-09-30T11:35:22.656Z</time>
      </trkpt>
      <trkpt lat="43.66549" lon="2.25345">
        <ele>201.8</ele>
        <time>2025-09-30T11:35:23.141Z</time>
      </trkpt>
      <trkpt lat="43.66552" lon="2.25344">
        <ele>202.2</ele>
        <time>2025-09-30T11:35:24.643Z</time>
      </trkpt>
      <trkpt lat="43.66555" lon="2.25342">
        <ele>202.2</ele>
        <time>2025-09-30T11:35:25.024Z</time>
      </trkpt>
      <trkpt lat="43.66558" lon="2.25341">
        <ele>202.6</ele>
        <time>2025-09-30T11:35:26.526Z</time>
      </trkpt>
      <trkpt lat="43.66561" lon="2.25339">
        <ele>202.8</ele>
        <time>2025-09-30T11:35:27.282Z</time>
      </trkpt>
      <trkpt lat="43.66564" lon="2.25338">
        <ele>203</ele>
        <time>2025-09-30T11:35:28.028Z</time>
      </trkpt>
      <trkpt lat="43.66567" lon="2.25337">
        <ele>203.2</ele>
        <time>2025-09-30T11:35:28.775Z</time>
      </trkpt>
      <trkpt lat="43.6657" lon="2.25336">
        <ele>203.4</ele>
        <time>2025-09-30T11:35:29.521Z</time>
      </trkpt>
      <trkpt lat="43.66572" lon="2.25334">
        <ele>203.6</ele>
        <time>2025-09-30T11:35:30.266Z</time>
      </trkpt>
      <trkpt lat="43.66576" lon="2.25333">
        <ele>203.8</ele>
        <time>2025-09-30T11:35:31.067Z</time>
      </trkpt>
      <trkpt lat="43.66578" lon="2.25331">
        <ele>203.8</ele>
        <time>2025-09-30T11:35:31.349Z</time>
      </trkpt>
      <trkpt lat="43.66581" lon="2.2533">
        <ele>204</ele>
        <time>2025-09-30T11:35:32.096Z</time>
      </trkpt>
      <trkpt lat="43.66584" lon="2.25329">
        <ele>204.2</ele>
        <time>2025-09-30T11:35:32.842Z</time>
      </trkpt>
      <trkpt lat="43.66587" lon="2.25328">
        <ele>204.4</ele>
        <time>2025-09-30T11:35:33.589Z</time>
      </trkpt>
      <trkpt lat="43.66589" lon="2.25328">
        <ele>204.6</ele>
        <time>2025-09-30T11:35:34.360Z</time>
      </trkpt>
      <trkpt lat="43.66591" lon="2.25328">
        <ele>205</ele>
        <time>2025-09-30T11:35:35.339Z</time>
      </trkpt>
      <trkpt lat="43.66594" lon="2.25328">
        <ele>205.4</ele>
        <time>2025-09-30T11:35:36.807Z</time>
      </trkpt>
      <trkpt lat="43.66597" lon="2.25327">
        <ele>205.8</ele>
        <time>2025-09-30T11:35:38.309Z</time>
      </trkpt>
      <trkpt lat="43.666" lon="2.25327">
        <ele>206</ele>
        <time>2025-09-30T11:35:39.053Z</time>
      </trkpt>
      <trkpt lat="43.66602" lon="2.25326">
        <ele>206.4</ele>
        <time>2025-09-30T11:35:40.094Z</time>
      </trkpt>
      <trkpt lat="43.66605" lon="2.25326">
        <ele>206.6</ele>
        <time>2025-09-30T11:35:40.838Z</time>
      </trkpt>
      <trkpt lat="43.66607" lon="2.25325">
        <ele>207</ele>
        <time>2025-09-30T11:35:41.879Z</time>
      </trkpt>
      <trkpt lat="43.66609" lon="2.25325">
        <ele>207.2</ele>
        <time>2025-09-30T11:35:42.650Z</time>
      </trkpt>
      <trkpt lat="43.66611" lon="2.25325">
        <ele>207.4</ele>
        <time>2025-09-30T11:35:43.421Z</time>
      </trkpt>
      <trkpt lat="43.66614" lon="2.25324">
        <ele>207.4</ele>
        <time>2025-09-30T11:35:43.773Z</time>
      </trkpt>
      <trkpt lat="43.66616" lon="2.25324">
        <ele>207.6</ele>
        <time>2025-09-30T11:35:44.545Z</time>
      </trkpt>
      <trkpt lat="43.66619" lon="2.25323">
        <ele>207.8</ele>
        <time>2025-09-30T11:35:45.291Z</time>
      </trkpt>
      <trkpt lat="43.66621" lon="2.25323">
        <ele>207.8</ele>
        <time>2025-09-30T11:35:45.519Z</time>
      </trkpt>
      <trkpt lat="43.66624" lon="2.25322">
        <ele>208</ele>
        <time>2025-09-30T11:35:46.266Z</time>
      </trkpt>
      <trkpt lat="43.66626" lon="2.25322">
        <ele>208.2</ele>
        <time>2025-09-30T11:35:47.037Z</time>
      </trkpt>
      <trkpt lat="43.66628" lon="2.25322">
        <ele>208.6</ele>
        <time>2025-09-30T11:35:48.016Z</time>
      </trkpt>
      <trkpt lat="43.66631" lon="2.25321">
        <ele>208.8</ele>
        <time>2025-09-30T11:35:48.762Z</time>
      </trkpt>
      <trkpt lat="43.66633" lon="2.25321">
        <ele>209</ele>
        <time>2025-09-30T11:35:49.534Z</time>
      </trkpt>
      <trkpt lat="43.66635" lon="2.25321">
        <ele>209.2</ele>
        <time>2025-09-30T11:35:50.305Z</time>
      </trkpt>
      <trkpt lat="43.66637" lon="2.2532">
        <ele>209.2</ele>
        <time>2025-09-30T11:35:50.548Z</time>
      </trkpt>
      <trkpt lat="43.6664" lon="2.2532">
        <ele>209.4</ele>
        <time>2025-09-30T11:35:51.292Z</time>
      </trkpt>
      <trkpt lat="43.66643" lon="2.25319">
        <ele>209.6</ele>
        <time>2025-09-30T11:35:52.038Z</time>
      </trkpt>
      <trkpt lat="43.66646" lon="2.25318">
        <ele>209.8</ele>
        <time>2025-09-30T11:35:52.785Z</time>
      </trkpt>
      <trkpt lat="43.6665" lon="2.25316">
        <ele>209.8</ele>
        <time>2025-09-30T11:35:53.271Z</time>
      </trkpt>
      <trkpt lat="43.66654" lon="2.25314">
        <ele>210</ele>
        <time>2025-09-30T11:35:54.087Z</time>
      </trkpt>
      <trkpt lat="43.66657" lon="2.25312">
        <ele>210.2</ele>
        <time>2025-09-30T11:35:54.843Z</time>
      </trkpt>
      <trkpt lat="43.66659" lon="2.2531">
        <ele>210.2</ele>
        <time>2025-09-30T11:35:55.125Z</time>
      </trkpt>
      <trkpt lat="43.66662" lon="2.25307">
        <ele>210.4</ele>
        <time>2025-09-30T11:35:55.901Z</time>
      </trkpt>
      <trkpt lat="43.66664" lon="2.25305">
        <ele>210.4</ele>
        <time>2025-09-30T11:35:56.183Z</time>
      </trkpt>
      <trkpt lat="43.66667" lon="2.25303">
        <ele>210.6</ele>
        <time>2025-09-30T11:35:56.939Z</time>
      </trkpt>
      <trkpt lat="43.66669" lon="2.25301">
        <ele>210.8</ele>
        <time>2025-09-30T11:35:57.683Z</time>
      </trkpt>
      <trkpt lat="43.66671" lon="2.25299">
        <ele>211</ele>
        <time>2025-09-30T11:35:58.428Z</time>
      </trkpt>
      <trkpt lat="43.66673" lon="2.25297">
        <ele>211.2</ele>
        <time>2025-09-30T11:35:59.172Z</time>
      </trkpt>
      <trkpt lat="43.66676" lon="2.25295">
        <ele>211.6</ele>
        <time>2025-09-30T11:36:00.727Z</time>
      </trkpt>
      <trkpt lat="43.66677" lon="2.25294">
        <ele>211.8</ele>
        <time>2025-09-30T11:36:01.331Z</time>
      </trkpt>
      <trkpt lat="43.66678" lon="2.25293">
        <ele>212.2</ele>
        <time>2025-09-30T11:36:01.935Z</time>
      </trkpt>
      <trkpt lat="43.6668" lon="2.25292">
        <ele>212.6</ele>
        <time>2025-09-30T11:36:02.975Z</time>
      </trkpt>
      <trkpt lat="43.66682" lon="2.25291">
        <ele>212.8</ele>
        <time>2025-09-30T11:36:03.737Z</time>
      </trkpt>
      <trkpt lat="43.66684" lon="2.2529">
        <ele>213.2</ele>
        <time>2025-09-30T11:36:04.778Z</time>
      </trkpt>
      <trkpt lat="43.66685" lon="2.25289">
        <ele>213.6</ele>
        <time>2025-09-30T11:36:05.382Z</time>
      </trkpt>
      <trkpt lat="43.66687" lon="2.25289">
        <ele>213.8</ele>
        <time>2025-09-30T11:36:06.153Z</time>
      </trkpt>
      <trkpt lat="43.66689" lon="2.25288">
        <ele>214.2</ele>
        <time>2025-09-30T11:36:07.194Z</time>
      </trkpt>
      <trkpt lat="43.66691" lon="2.25288">
        <ele>214.4</ele>
        <time>2025-09-30T11:36:07.965Z</time>
      </trkpt>
      <trkpt lat="43.66692" lon="2.25287">
        <ele>214.8</ele>
        <time>2025-09-30T11:36:08.569Z</time>
      </trkpt>
      <trkpt lat="43.66694" lon="2.25287">
        <ele>215.2</ele>
        <time>2025-09-30T11:36:09.548Z</time>
      </trkpt>
      <trkpt lat="43.66696" lon="2.25286">
        <ele>215.4</ele>
        <time>2025-09-30T11:36:10.310Z</time>
      </trkpt>
      <trkpt lat="43.66698" lon="2.25285">
        <ele>215.8</ele>
        <time>2025-09-30T11:36:11.351Z</time>
      </trkpt>
      <trkpt lat="43.667" lon="2.25285">
        <ele>216</ele>
        <time>2025-09-30T11:36:12.122Z</time>
      </trkpt>
      <trkpt lat="43.66702" lon="2.25284">
        <ele>216.4</ele>
        <time>2025-09-30T11:36:13.163Z</time>
      </trkpt>
      <trkpt lat="43.66704" lon="2.25284">
        <ele>216.8</ele>
        <time>2025-09-30T11:36:14.142Z</time>
      </trkpt>
      <trkpt lat="43.66706" lon="2.25283">
        <ele>217</ele>
        <time>2025-09-30T11:36:14.904Z</time>
      </trkpt>
      <trkpt lat="43.66708" lon="2.25283">
        <ele>217.4</ele>
        <time>2025-09-30T11:36:15.882Z</time>
      </trkpt>
      <trkpt lat="43.6671" lon="2.25282">
        <ele>217.8</ele>
        <time>2025-09-30T11:36:16.923Z</time>
      </trkpt>
      <trkpt lat="43.66712" lon="2.25282">
        <ele>218</ele>
        <time>2025-09-30T11:36:17.694Z</time>
      </trkpt>
      <trkpt lat="43.66714" lon="2.25281">
        <ele>218.2</ele>
        <time>2025-09-30T11:36:18.456Z</time>
      </trkpt>
      <trkpt lat="43.66716" lon="2.25281">
        <ele>218.6</ele>
        <time>2025-09-30T11:36:19.435Z</time>
      </trkpt>
      <trkpt lat="43.66718" lon="2.2528">
        <ele>218.8</ele>
        <time>2025-09-30T11:36:20.197Z</time>
      </trkpt>
      <trkpt lat="43.6672" lon="2.2528">
        <ele>219</ele>
        <time>2025-09-30T11:36:20.968Z</time>
      </trkpt>
      <trkpt lat="43.66722" lon="2.2528">
        <ele>219.2</ele>
        <time>2025-09-30T11:36:21.739Z</time>
      </trkpt>
      <trkpt lat="43.66724" lon="2.25279">
        <ele>219.6</ele>
        <time>2025-09-30T11:36:22.780Z</time>
      </trkpt>
      <trkpt lat="43.66726" lon="2.25279">
        <ele>219.8</ele>
        <time>2025-09-30T11:36:23.551Z</time>
      </trkpt>
      <trkpt lat="43.66728" lon="2.25278">
        <ele>220.2</ele>
        <time>2025-09-30T11:36:24.592Z</time>
      </trkpt>
      <trkpt lat="43.66729" lon="2.25277">
        <ele>220.6</ele>
        <time>2025-09-30T11:36:25.196Z</time>
      </trkpt>
      <trkpt lat="43.66731" lon="2.25277">
        <ele>220.8</ele>
        <time>2025-09-30T11:36:25.967Z</time>
      </trkpt>
      <trkpt lat="43.66733" lon="2.25276">
        <ele>221.2</ele>
        <time>2025-09-30T11:36:27.008Z</time>
      </trkpt>
      <trkpt lat="43.66735" lon="2.25276">
        <ele>221.4</ele>
        <time>2025-09-30T11:36:27.779Z</time>
      </trkpt>
      <trkpt lat="43.66738" lon="2.25276">
        <ele>221.6</ele>
        <time>2025-09-30T11:36:28.523Z</time>
      </trkpt>
      <trkpt lat="43.66741" lon="2.25275">
        <ele>222</ele>
        <time>2025-09-30T11:36:30.025Z</time>
      </trkpt>
      <trkpt lat="43.66743" lon="2.25275">
        <ele>222.2</ele>
        <time>2025-09-30T11:36:30.797Z</time>
      </trkpt>
      <trkpt lat="43.66746" lon="2.25274">
        <ele>222.4</ele>
        <time>2025-09-30T11:36:31.543Z</time>
      </trkpt>
      <trkpt lat="43.66749" lon="2.25273">
        <ele>222.6</ele>
        <time>2025-09-30T11:36:32.290Z</time>
      </trkpt>
      <trkpt lat="43.66752" lon="2.25272">
        <ele>222.8</ele>
        <time>2025-09-30T11:36:33.036Z</time>
      </trkpt>
      <trkpt lat="43.66755" lon="2.25271">
        <ele>223.2</ele>
        <time>2025-09-30T11:36:34.538Z</time>
      </trkpt>
      <trkpt lat="43.66757" lon="2.25269">
        <ele>223.4</ele>
        <time>2025-09-30T11:36:35.283Z</time>
      </trkpt>
      <trkpt lat="43.66758" lon="2.25267">
        <ele>223.8</ele>
        <time>2025-09-30T11:36:36.143Z</time>
      </trkpt>
      <trkpt lat="43.6676" lon="2.25265">
        <ele>224</ele>
        <time>2025-09-30T11:36:36.888Z</time>
      </trkpt>
      <trkpt lat="43.66762" lon="2.25263">
        <ele>224.4</ele>
        <time>2025-09-30T11:36:38.096Z</time>
      </trkpt>
      <trkpt lat="43.66764" lon="2.25262">
        <ele>224.6</ele>
        <time>2025-09-30T11:36:38.857Z</time>
      </trkpt>
      <trkpt lat="43.66766" lon="2.2526">
        <ele>224.8</ele>
        <time>2025-09-30T11:36:39.602Z</time>
      </trkpt>
      <trkpt lat="43.66768" lon="2.25258">
        <ele>225</ele>
        <time>2025-09-30T11:36:40.346Z</time>
      </trkpt>
      <trkpt lat="43.66769" lon="2.25255">
        <ele>225.4</ele>
        <time>2025-09-30T11:36:41.515Z</time>
      </trkpt>
      <trkpt lat="43.66771" lon="2.25252">
        <ele>225.6</ele>
        <time>2025-09-30T11:36:42.258Z</time>
      </trkpt>
      <trkpt lat="43.66773" lon="2.2525">
        <ele>226</ele>
        <time>2025-09-30T11:36:43.466Z</time>
      </trkpt>
      <trkpt lat="43.66774" lon="2.25247">
        <ele>226.2</ele>
        <time>2025-09-30T11:36:44.214Z</time>
      </trkpt>
      <trkpt lat="43.66775" lon="2.25245">
        <ele>226.4</ele>
        <time>2025-09-30T11:36:44.996Z</time>
      </trkpt>
      <trkpt lat="43.66776" lon="2.25243">
        <ele>226.6</ele>
        <time>2025-09-30T11:36:45.778Z</time>
      </trkpt>
      <trkpt lat="43.66779" lon="2.25241">
        <ele>227</ele>
        <time>2025-09-30T11:36:47.333Z</time>
      </trkpt>
      <trkpt lat="43.66781" lon="2.25239">
        <ele>227.2</ele>
        <time>2025-09-30T11:36:48.077Z</time>
      </trkpt>
      <trkpt lat="43.66782" lon="2.25236">
        <ele>227.4</ele>
        <time>2025-09-30T11:36:48.824Z</time>
      </trkpt>
      <trkpt lat="43.66785" lon="2.25233">
        <ele>227.6</ele>
        <time>2025-09-30T11:36:49.601Z</time>
      </trkpt>
      <trkpt lat="43.66787" lon="2.2523">
        <ele>227.8</ele>
        <time>2025-09-30T11:36:50.344Z</time>
      </trkpt>
      <trkpt lat="43.6679" lon="2.25227">
        <ele>228</ele>
        <time>2025-09-30T11:36:51.120Z</time>
      </trkpt>
      <trkpt lat="43.66792" lon="2.25223">
        <ele>228.2</ele>
        <time>2025-09-30T11:36:51.886Z</time>
      </trkpt>
      <trkpt lat="43.66794" lon="2.2522">
        <ele>228.4</ele>
        <time>2025-09-30T11:36:52.629Z</time>
      </trkpt>
      <trkpt lat="43.66796" lon="2.25217">
        <ele>228.8</ele>
        <time>2025-09-30T11:36:54.073Z</time>
      </trkpt>
      <trkpt lat="43.66798" lon="2.25213">
        <ele>229</ele>
        <time>2025-09-30T11:36:54.839Z</time>
      </trkpt>
      <trkpt lat="43.668" lon="2.25209">
        <ele>229.2</ele>
        <time>2025-09-30T11:36:55.605Z</time>
      </trkpt>
      <trkpt lat="43.66802" lon="2.25206">
        <ele>229.4</ele>
        <time>2025-09-30T11:36:56.348Z</time>
      </trkpt>
      <trkpt lat="43.66804" lon="2.25202">
        <ele>229.8</ele>
        <time>2025-09-30T11:36:57.912Z</time>
      </trkpt>
      <trkpt lat="43.66805" lon="2.25199">
        <ele>230</ele>
        <time>2025-09-30T11:36:58.659Z</time>
      </trkpt>
      <trkpt lat="43.66806" lon="2.25196">
        <ele>230.2</ele>
        <time>2025-09-30T11:36:59.406Z</time>
      </trkpt>
      <trkpt lat="43.66808" lon="2.25193">
        <ele>230.6</ele>
        <time>2025-09-30T11:37:00.851Z</time>
      </trkpt>
      <trkpt lat="43.66809" lon="2.25191">
        <ele>230.8</ele>
        <time>2025-09-30T11:37:01.633Z</time>
      </trkpt>
      <trkpt lat="43.66811" lon="2.25188">
        <ele>231</ele>
        <time>2025-09-30T11:37:02.376Z</time>
      </trkpt>
      <trkpt lat="43.66813" lon="2.25185">
        <ele>231.2</ele>
        <time>2025-09-30T11:37:03.119Z</time>
      </trkpt>
      <trkpt lat="43.66814" lon="2.25183">
        <ele>231.4</ele>
        <time>2025-09-30T11:37:03.901Z</time>
      </trkpt>
      <trkpt lat="43.66816" lon="2.25181">
        <ele>231.6</ele>
        <time>2025-09-30T11:37:04.646Z</time>
      </trkpt>
      <trkpt lat="43.66817" lon="2.25178">
        <ele>231.6</ele>
        <time>2025-09-30T11:37:04.919Z</time>
      </trkpt>
      <trkpt lat="43.66819" lon="2.25176">
        <ele>231.8</ele>
        <time>2025-09-30T11:37:05.663Z</time>
      </trkpt>
      <trkpt lat="43.66821" lon="2.25173">
        <ele>232</ele>
        <time>2025-09-30T11:37:06.406Z</time>
      </trkpt>
      <trkpt lat="43.66824" lon="2.2517">
        <ele>232.2</ele>
        <time>2025-09-30T11:37:07.182Z</time>
      </trkpt>
      <trkpt lat="43.66826" lon="2.25168">
        <ele>232.4</ele>
        <time>2025-09-30T11:37:07.927Z</time>
      </trkpt>
      <trkpt lat="43.66827" lon="2.25165">
        <ele>232.6</ele>
        <time>2025-09-30T11:37:08.674Z</time>
      </trkpt>
      <trkpt lat="43.66829" lon="2.25163">
        <ele>232.8</ele>
        <time>2025-09-30T11:37:09.418Z</time>
      </trkpt>
      <trkpt lat="43.66831" lon="2.2516">
        <ele>233</ele>
        <time>2025-09-30T11:37:10.161Z</time>
      </trkpt>
      <trkpt lat="43.66832" lon="2.25158">
        <ele>233.2</ele>
        <time>2025-09-30T11:37:10.944Z</time>
      </trkpt>
      <trkpt lat="43.66833" lon="2.25155">
        <ele>233.4</ele>
        <time>2025-09-30T11:37:11.691Z</time>
      </trkpt>
      <trkpt lat="43.66835" lon="2.25153">
        <ele>233.8</ele>
        <time>2025-09-30T11:37:12.899Z</time>
      </trkpt>
      <trkpt lat="43.66837" lon="2.25151">
        <ele>234</ele>
        <time>2025-09-30T11:37:13.643Z</time>
      </trkpt>
      <trkpt lat="43.66839" lon="2.25149">
        <ele>234.2</ele>
        <time>2025-09-30T11:37:14.387Z</time>
      </trkpt>
      <trkpt lat="43.6684" lon="2.25147">
        <ele>234.2</ele>
        <time>2025-09-30T11:37:14.588Z</time>
      </trkpt>
      <trkpt lat="43.66842" lon="2.25146">
        <ele>234.4</ele>
        <time>2025-09-30T11:37:15.350Z</time>
      </trkpt>
      <trkpt lat="43.66844" lon="2.25145">
        <ele>234.4</ele>
        <time>2025-09-30T11:37:15.593Z</time>
      </trkpt>
      <trkpt lat="43.66846" lon="2.25144">
        <ele>234.6</ele>
        <time>2025-09-30T11:37:16.355Z</time>
      </trkpt>
      <trkpt lat="43.66848" lon="2.25143">
        <ele>234.6</ele>
        <time>2025-09-30T11:37:16.598Z</time>
      </trkpt>
      <trkpt lat="43.66851" lon="2.25143">
        <ele>234.6</ele>
        <time>2025-09-30T11:37:16.940Z</time>
      </trkpt>
      <trkpt lat="43.66853" lon="2.25142">
        <ele>234.6</ele>
        <time>2025-09-30T11:37:17.183Z</time>
      </trkpt>
      <trkpt lat="43.66856" lon="2.25141">
        <ele>234.6</ele>
        <time>2025-09-30T11:37:17.535Z</time>
      </trkpt>
      <trkpt lat="43.66859" lon="2.25141">
        <ele>234.6</ele>
        <time>2025-09-30T11:37:17.878Z</time>
      </trkpt>
      <trkpt lat="43.66862" lon="2.25141">
        <ele>234.4</ele>
        <time>2025-09-30T11:37:18.084Z</time>
      </trkpt>
      <trkpt lat="43.66866" lon="2.25142">
        <ele>234.4</ele>
        <time>2025-09-30T11:37:18.548Z</time>
      </trkpt>
      <trkpt lat="43.6687" lon="2.25143">
        <ele>234.2</ele>
        <time>2025-09-30T11:37:18.859Z</time>
      </trkpt>
      <trkpt lat="43.66875" lon="2.25144">
        <ele>234</ele>
        <time>2025-09-30T11:37:19.274Z</time>
      </trkpt>
      <trkpt lat="43.6688" lon="2.25146">
        <ele>233.6</ele>
        <time>2025-09-30T11:37:19.630Z</time>
      </trkpt>
      <trkpt lat="43.66885" lon="2.25148">
        <ele>233.4</ele>
        <time>2025-09-30T11:37:20.061Z</time>
      </trkpt>
      <trkpt lat="43.66891" lon="2.25151">
        <ele>233</ele>
        <time>2025-09-30T11:37:20.509Z</time>
      </trkpt>
      <trkpt lat="43.66897" lon="2.25154">
        <ele>232.8</ele>
        <time>2025-09-30T11:37:21.066Z</time>
      </trkpt>
      <trkpt lat="43.66903" lon="2.25157">
        <ele>232.6</ele>
        <time>2025-09-30T11:37:21.622Z</time>
      </trkpt>
      <trkpt lat="43.6691" lon="2.2516">
        <ele>232.2</ele>
        <time>2025-09-30T11:37:22.164Z</time>
      </trkpt>
      <trkpt lat="43.66916" lon="2.25162">
        <ele>232</ele>
        <time>2025-09-30T11:37:22.698Z</time>
      </trkpt>
      <trkpt lat="43.66922" lon="2.25165">
        <ele>231.6</ele>
        <time>2025-09-30T11:37:23.146Z</time>
      </trkpt>
      <trkpt lat="43.66928" lon="2.25167">
        <ele>231.4</ele>
        <time>2025-09-30T11:37:23.680Z</time>
      </trkpt>
      <trkpt lat="43.66934" lon="2.2517">
        <ele>231.2</ele>
        <time>2025-09-30T11:37:24.237Z</time>
      </trkpt>
      <trkpt lat="43.6694" lon="2.25172">
        <ele>231</ele>
        <time>2025-09-30T11:37:24.771Z</time>
      </trkpt>
      <trkpt lat="43.66945" lon="2.25175">
        <ele>231</ele>
        <time>2025-09-30T11:37:25.394Z</time>
      </trkpt>
      <trkpt lat="43.6695" lon="2.25177">
        <ele>230.8</ele>
        <time>2025-09-30T11:37:25.824Z</time>
      </trkpt>
      <trkpt lat="43.66955" lon="2.25179">
        <ele>230.8</ele>
        <time>2025-09-30T11:37:26.419Z</time>
      </trkpt>
      <trkpt lat="43.66959" lon="2.25181">
        <ele>230.8</ele>
        <time>2025-09-30T11:37:26.904Z</time>
      </trkpt>
      <trkpt lat="43.66964" lon="2.25183">
        <ele>231</ele>
        <time>2025-09-30T11:37:27.803Z</time>
      </trkpt>
      <trkpt lat="43.66968" lon="2.25185">
        <ele>231</ele>
        <time>2025-09-30T11:37:28.289Z</time>
      </trkpt>
      <trkpt lat="43.66972" lon="2.25187">
        <ele>231.2</ele>
        <time>2025-09-30T11:37:29.105Z</time>
      </trkpt>
      <trkpt lat="43.66976" lon="2.25189">
        <ele>231.4</ele>
        <time>2025-09-30T11:37:29.921Z</time>
      </trkpt>
      <trkpt lat="43.66979" lon="2.25191">
        <ele>231.6</ele>
        <time>2025-09-30T11:37:30.677Z</time>
      </trkpt>
      <trkpt lat="43.66983" lon="2.25192">
        <ele>231.8</ele>
        <time>2025-09-30T11:37:31.478Z</time>
      </trkpt>
      <trkpt lat="43.66986" lon="2.25193">
        <ele>232.2</ele>
        <time>2025-09-30T11:37:32.980Z</time>
      </trkpt>
      <trkpt lat="43.66989" lon="2.25194">
        <ele>232.6</ele>
        <time>2025-09-30T11:37:34.482Z</time>
      </trkpt>
      <trkpt lat="43.66992" lon="2.25195">
        <ele>233</ele>
        <time>2025-09-30T11:37:35.984Z</time>
      </trkpt>
      <trkpt lat="43.66995" lon="2.25197">
        <ele>233.2</ele>
        <time>2025-09-30T11:37:36.740Z</time>
      </trkpt>
      <trkpt lat="43.66998" lon="2.25198">
        <ele>233.6</ele>
        <time>2025-09-30T11:37:38.242Z</time>
      </trkpt>
      <trkpt lat="43.67001" lon="2.252">
        <ele>233.8</ele>
        <time>2025-09-30T11:37:38.998Z</time>
      </trkpt>
      <trkpt lat="43.67004" lon="2.25203">
        <ele>234.2</ele>
        <time>2025-09-30T11:37:40.559Z</time>
      </trkpt>
      <trkpt lat="43.67007" lon="2.25207">
        <ele>234.4</ele>
        <time>2025-09-30T11:37:41.369Z</time>
      </trkpt>
      <trkpt lat="43.6701" lon="2.2521">
        <ele>234.8</ele>
        <time>2025-09-30T11:37:42.930Z</time>
      </trkpt>
      <trkpt lat="43.67013" lon="2.25214">
        <ele>235</ele>
        <time>2025-09-30T11:37:43.739Z</time>
      </trkpt>
      <trkpt lat="43.67015" lon="2.25217">
        <ele>235.4</ele>
        <time>2025-09-30T11:37:45.183Z</time>
      </trkpt>
      <trkpt lat="43.67018" lon="2.25221">
        <ele>235.6</ele>
        <time>2025-09-30T11:37:45.993Z</time>
      </trkpt>
      <trkpt lat="43.67021" lon="2.25224">
        <ele>235.8</ele>
        <time>2025-09-30T11:37:46.769Z</time>
      </trkpt>
      <trkpt lat="43.67024" lon="2.25228">
        <ele>236</ele>
        <time>2025-09-30T11:37:47.578Z</time>
      </trkpt>
      <trkpt lat="43.67027" lon="2.25231">
        <ele>236</ele>
        <time>2025-09-30T11:37:48.001Z</time>
      </trkpt>
      <trkpt lat="43.6703" lon="2.25234">
        <ele>236.2</ele>
        <time>2025-09-30T11:37:48.778Z</time>
      </trkpt>
      <trkpt lat="43.67033" lon="2.25238">
        <ele>236.2</ele>
        <time>2025-09-30T11:37:49.254Z</time>
      </trkpt>
      <trkpt lat="43.67036" lon="2.25241">
        <ele>236.2</ele>
        <time>2025-09-30T11:37:49.677Z</time>
      </trkpt>
      <trkpt lat="43.6704" lon="2.25245">
        <ele>236.2</ele>
        <time>2025-09-30T11:37:50.240Z</time>
      </trkpt>
      <trkpt lat="43.67043" lon="2.2525">
        <ele>236</ele>
        <time>2025-09-30T11:37:50.618Z</time>
      </trkpt>
      <trkpt lat="43.67047" lon="2.25254">
        <ele>236</ele>
        <time>2025-09-30T11:37:51.181Z</time>
      </trkpt>
      <trkpt lat="43.67052" lon="2.25259">
        <ele>235.8</ele>
        <time>2025-09-30T11:37:51.715Z</time>
      </trkpt>
      <trkpt lat="43.67056" lon="2.25264">
        <ele>235.6</ele>
        <time>2025-09-30T11:37:52.166Z</time>
      </trkpt>
      <trkpt lat="43.67061" lon="2.2527">
        <ele>235.4</ele>
        <time>2025-09-30T11:37:52.749Z</time>
      </trkpt>
      <trkpt lat="43.67066" lon="2.25275">
        <ele>235</ele>
        <time>2025-09-30T11:37:53.176Z</time>
      </trkpt>
      <trkpt lat="43.67071" lon="2.25281">
        <ele>234.6</ele>
        <time>2025-09-30T11:37:53.648Z</time>
      </trkpt>
      <trkpt lat="43.67076" lon="2.25287">
        <ele>234.2</ele>
        <time>2025-09-30T11:37:54.119Z</time>
      </trkpt>
      <trkpt lat="43.67081" lon="2.25293">
        <ele>233.8</ele>
        <time>2025-09-30T11:37:54.591Z</time>
      </trkpt>
      <trkpt lat="43.67086" lon="2.25299">
        <ele>233.6</ele>
        <time>2025-09-30T11:37:55.174Z</time>
      </trkpt>
      <trkpt lat="43.67091" lon="2.25305">
        <ele>233.2</ele>
        <time>2025-09-30T11:37:55.645Z</time>
      </trkpt>
      <trkpt lat="43.67096" lon="2.2531">
        <ele>233</ele>
        <time>2025-09-30T11:37:56.179Z</time>
      </trkpt>
      <trkpt lat="43.67101" lon="2.25314">
        <ele>232.8</ele>
        <time>2025-09-30T11:37:56.671Z</time>
      </trkpt>
      <trkpt lat="43.67107" lon="2.25318">
        <ele>232.6</ele>
        <time>2025-09-30T11:37:57.258Z</time>
      </trkpt>
      <trkpt lat="43.67113" lon="2.25321">
        <ele>232.4</ele>
        <time>2025-09-30T11:37:57.815Z</time>
      </trkpt>
      <trkpt lat="43.67119" lon="2.25324">
        <ele>232.4</ele>
        <time>2025-09-30T11:37:58.543Z</time>
      </trkpt>
      <trkpt lat="43.67125" lon="2.25327">
        <ele>232.6</ele>
        <time>2025-09-30T11:37:59.556Z</time>
      </trkpt>
      <trkpt lat="43.6713" lon="2.25329">
        <ele>232.6</ele>
        <time>2025-09-30T11:38:00.151Z</time>
      </trkpt>
      <trkpt lat="43.67136" lon="2.25332">
        <ele>232.8</ele>
        <time>2025-09-30T11:38:01.164Z</time>
      </trkpt>
      <trkpt lat="43.67141" lon="2.25334">
        <ele>233</ele>
        <time>2025-09-30T11:38:02.062Z</time>
      </trkpt>
      <trkpt lat="43.67146" lon="2.25337">
        <ele>233.4</ele>
        <time>2025-09-30T11:38:03.543Z</time>
      </trkpt>
      <trkpt lat="43.67151" lon="2.2534">
        <ele>233.6</ele>
        <time>2025-09-30T11:38:04.465Z</time>
      </trkpt>
      <trkpt lat="43.67156" lon="2.25343">
        <ele>233.8</ele>
        <time>2025-09-30T11:38:05.386Z</time>
      </trkpt>
      <trkpt lat="43.6716" lon="2.25346">
        <ele>234</ele>
        <time>2025-09-30T11:38:06.227Z</time>
      </trkpt>
      <trkpt lat="43.67165" lon="2.25349">
        <ele>234.2</ele>
        <time>2025-09-30T11:38:07.148Z</time>
      </trkpt>
      <trkpt lat="43.67169" lon="2.25352">
        <ele>234.4</ele>
        <time>2025-09-30T11:38:07.988Z</time>
      </trkpt>
      <trkpt lat="43.67173" lon="2.25356">
        <ele>234.4</ele>
        <time>2025-09-30T11:38:08.552Z</time>
      </trkpt>
      <trkpt lat="43.67177" lon="2.25359">
        <ele>234.6</ele>
        <time>2025-09-30T11:38:09.392Z</time>
      </trkpt>
      <trkpt lat="43.6718" lon="2.25362">
        <ele>234.6</ele>
        <time>2025-09-30T11:38:09.815Z</time>
      </trkpt>
      <trkpt lat="43.67184" lon="2.25365">
        <ele>234.8</ele>
        <time>2025-09-30T11:38:10.655Z</time>
      </trkpt>
      <trkpt lat="43.67188" lon="2.25368">
        <ele>234.6</ele>
        <time>2025-09-30T11:38:11.017Z</time>
      </trkpt>
      <trkpt lat="43.67191" lon="2.25372">
        <ele>234.6</ele>
        <time>2025-09-30T11:38:11.493Z</time>
      </trkpt>
      <trkpt lat="43.67196" lon="2.25376">
        <ele>234.4</ele>
        <time>2025-09-30T11:38:11.985Z</time>
      </trkpt>
      <trkpt lat="43.672" lon="2.2538">
        <ele>234.4</ele>
        <time>2025-09-30T11:38:12.548Z</time>
      </trkpt>
      <trkpt lat="43.67204" lon="2.25385">
        <ele>234.2</ele>
        <time>2025-09-30T11:38:12.999Z</time>
      </trkpt>
      <trkpt lat="43.67209" lon="2.25391">
        <ele>233.8</ele>
        <time>2025-09-30T11:38:13.470Z</time>
      </trkpt>
      <trkpt lat="43.67213" lon="2.25397">
        <ele>233.4</ele>
        <time>2025-09-30T11:38:13.875Z</time>
      </trkpt>
      <trkpt lat="43.67218" lon="2.25406">
        <ele>233</ele>
        <time>2025-09-30T11:38:14.506Z</time>
      </trkpt>
      <trkpt lat="43.67221" lon="2.25415">
        <ele>232.2</ele>
        <time>2025-09-30T11:38:14.997Z</time>
      </trkpt>
      <trkpt lat="43.67224" lon="2.25426">
        <ele>231.6</ele>
        <time>2025-09-30T11:38:15.580Z</time>
      </trkpt>
      <trkpt lat="43.67226" lon="2.25437">
        <ele>230.8</ele>
        <time>2025-09-30T11:38:16.142Z</time>
      </trkpt>
      <trkpt lat="43.67228" lon="2.25449">
        <ele>230.2</ele>
        <time>2025-09-30T11:38:16.752Z</time>
      </trkpt>
      <trkpt lat="43.67231" lon="2.25462">
        <ele>229.4</ele>
        <time>2025-09-30T11:38:17.428Z</time>
      </trkpt>
      <trkpt lat="43.67234" lon="2.25474">
        <ele>228.8</ele>
        <time>2025-09-30T11:38:18.063Z</time>
      </trkpt>
      <trkpt lat="43.67239" lon="2.25485">
        <ele>228</ele>
        <time>2025-09-30T11:38:18.707Z</time>
      </trkpt>
      <trkpt lat="43.67245" lon="2.25495">
        <ele>227.4</ele>
        <time>2025-09-30T11:38:19.362Z</time>
      </trkpt>
      <trkpt lat="43.67254" lon="2.25504">
        <ele>226.8</ele>
        <time>2025-09-30T11:38:20.186Z</time>
      </trkpt>
      <trkpt lat="43.67262" lon="2.25512">
        <ele>226</ele>
        <time>2025-09-30T11:38:20.863Z</time>
      </trkpt>
      <trkpt lat="43.67271" lon="2.2552">
        <ele>225.2</ele>
        <time>2025-09-30T11:38:21.596Z</time>
      </trkpt>
      <trkpt lat="43.67279" lon="2.25528">
        <ele>224.4</ele>
        <time>2025-09-30T11:38:22.272Z</time>
      </trkpt>
      <trkpt lat="43.67286" lon="2.25536">
        <ele>223.4</ele>
        <time>2025-09-30T11:38:22.894Z</time>
      </trkpt>
      <trkpt lat="43.67293" lon="2.25543">
        <ele>222.4</ele>
        <time>2025-09-30T11:38:23.486Z</time>
      </trkpt>
      <trkpt lat="43.67301" lon="2.25552">
        <ele>221.4</ele>
        <time>2025-09-30T11:38:24.193Z</time>
      </trkpt>
      <trkpt lat="43.67307" lon="2.2556">
        <ele>220.6</ele>
        <time>2025-09-30T11:38:24.764Z</time>
      </trkpt>
      <trkpt lat="43.67313" lon="2.25568">
        <ele>219.8</ele>
        <time>2025-09-30T11:38:25.335Z</time>
      </trkpt>
      <trkpt lat="43.67321" lon="2.25576">
        <ele>219</ele>
        <time>2025-09-30T11:38:26.012Z</time>
      </trkpt>
      <trkpt lat="43.67329" lon="2.25584">
        <ele>218.2</ele>
        <time>2025-09-30T11:38:26.688Z</time>
      </trkpt>
      <trkpt lat="43.67337" lon="2.25591">
        <ele>217.4</ele>
        <time>2025-09-30T11:38:27.337Z</time>
      </trkpt>
      <trkpt lat="43.67346" lon="2.25598">
        <ele>216.6</ele>
        <time>2025-09-30T11:38:28.044Z</time>
      </trkpt>
      <trkpt lat="43.67355" lon="2.25605">
        <ele>215.8</ele>
        <time>2025-09-30T11:38:28.752Z</time>
      </trkpt>
      <trkpt lat="43.67364" lon="2.25613">
        <ele>215</ele>
        <time>2025-09-30T11:38:29.485Z</time>
      </trkpt>
      <trkpt lat="43.67373" lon="2.25621">
        <ele>214.2</ele>
        <time>2025-09-30T11:38:30.218Z</time>
      </trkpt>
      <trkpt lat="43.67382" lon="2.25628">
        <ele>213.2</ele>
        <time>2025-09-30T11:38:30.926Z</time>
      </trkpt>
      <trkpt lat="43.67389" lon="2.25634">
        <ele>212</ele>
        <time>2025-09-30T11:38:31.490Z</time>
      </trkpt>
      <trkpt lat="43.67396" lon="2.2564">
        <ele>211</ele>
        <time>2025-09-30T11:38:32.054Z</time>
      </trkpt>
      <trkpt lat="43.67402" lon="2.25645">
        <ele>210</ele>
        <time>2025-09-30T11:38:32.534Z</time>
      </trkpt>
      <trkpt lat="43.67408" lon="2.2565">
        <ele>208.8</ele>
        <time>2025-09-30T11:38:33.014Z</time>
      </trkpt>
      <trkpt lat="43.67413" lon="2.25656">
        <ele>207.6</ele>
        <time>2025-09-30T11:38:33.468Z</time>
      </trkpt>
      <trkpt lat="43.67419" lon="2.25662">
        <ele>206.4</ele>
        <time>2025-09-30T11:38:33.975Z</time>
      </trkpt>
      <trkpt lat="43.67425" lon="2.25669">
        <ele>205.2</ele>
        <time>2025-09-30T11:38:34.513Z</time>
      </trkpt>
      <trkpt lat="43.67432" lon="2.25677">
        <ele>204</ele>
        <time>2025-09-30T11:38:35.135Z</time>
      </trkpt>
      <trkpt lat="43.67439" lon="2.25685">
        <ele>202.8</ele>
        <time>2025-09-30T11:38:35.757Z</time>
      </trkpt>
      <trkpt lat="43.67446" lon="2.25694">
        <ele>201.6</ele>
        <time>2025-09-30T11:38:36.412Z</time>
      </trkpt>
      <trkpt lat="43.67454" lon="2.25704">
        <ele>200.4</ele>
        <time>2025-09-30T11:38:37.151Z</time>
      </trkpt>
      <trkpt lat="43.67462" lon="2.25712">
        <ele>199.2</ele>
        <time>2025-09-30T11:38:37.828Z</time>
      </trkpt>
      <trkpt lat="43.67469" lon="2.25721">
        <ele>198</ele>
        <time>2025-09-30T11:38:38.483Z</time>
      </trkpt>
      <trkpt lat="43.67477" lon="2.25729">
        <ele>196.6</ele>
        <time>2025-09-30T11:38:39.159Z</time>
      </trkpt>
      <trkpt lat="43.67485" lon="2.25735">
        <ele>195.4</ele>
        <time>2025-09-30T11:38:39.783Z</time>
      </trkpt>
      <trkpt lat="43.67491" lon="2.25741">
        <ele>194.4</ele>
        <time>2025-09-30T11:38:40.290Z</time>
      </trkpt>
      <trkpt lat="43.67497" lon="2.25746">
        <ele>193.4</ele>
        <time>2025-09-30T11:38:40.770Z</time>
      </trkpt>
      <trkpt lat="43.67501" lon="2.25751">
        <ele>192.8</ele>
        <time>2025-09-30T11:38:41.140Z</time>
      </trkpt>
      <trkpt lat="43.67504" lon="2.25755">
        <ele>192.2</ele>
        <time>2025-09-30T11:38:41.425Z</time>
      </trkpt>
      <trkpt lat="43.67506" lon="2.25758">
        <ele>191.8</ele>
        <time>2025-09-30T11:38:41.627Z</time>
      </trkpt>
      <trkpt lat="43.67507" lon="2.25761">
        <ele>191.6</ele>
        <time>2025-09-30T11:38:41.791Z</time>
      </trkpt>
      <trkpt lat="43.67507" lon="2.25763">
        <ele>191.4</ele>
        <time>2025-09-30T11:38:41.890Z</time>
      </trkpt>
      <trkpt lat="43.67507" lon="2.25764">
        <ele>191.4</ele>
        <time>2025-09-30T11:38:41.973Z</time>
      </trkpt>
      <trkpt lat="43.67507" lon="2.25766">
        <ele>191.2</ele>
        <time>2025-09-30T11:38:42.072Z</time>
      </trkpt>
      <trkpt lat="43.67507" lon="2.25768">
        <ele>191.2</ele>
        <time>2025-09-30T11:38:42.237Z</time>
      </trkpt>
      <trkpt lat="43.67507" lon="2.2577">
        <ele>191.2</ele>
        <time>2025-09-30T11:38:42.402Z</time>
      </trkpt>
      <trkpt lat="43.67507" lon="2.25773">
        <ele>191</ele>
        <time>2025-09-30T11:38:42.551Z</time>
      </trkpt>
      <trkpt lat="43.67507" lon="2.25777">
        <ele>191</ele>
        <time>2025-09-30T11:38:42.881Z</time>
      </trkpt>
      <trkpt lat="43.67507" lon="2.25781">
        <ele>191</ele>
        <time>2025-09-30T11:38:43.212Z</time>
      </trkpt>
      <trkpt lat="43.67507" lon="2.25786">
        <ele>191</ele>
        <time>2025-09-30T11:38:43.625Z</time>
      </trkpt>
      <trkpt lat="43.67507" lon="2.25791">
        <ele>191</ele>
        <time>2025-09-30T11:38:44.038Z</time>
      </trkpt>
      <trkpt lat="43.67507" lon="2.25797">
        <ele>191</ele>
        <time>2025-09-30T11:38:44.533Z</time>
      </trkpt>
      <trkpt lat="43.67506" lon="2.25802">
        <ele>190.8</ele>
        <time>2025-09-30T11:38:44.813Z</time>
      </trkpt>
      <trkpt lat="43.67505" lon="2.25809">
        <ele>190.8</ele>
        <time>2025-09-30T11:38:45.402Z</time>
      </trkpt>
      <trkpt lat="43.67505" lon="2.25815">
        <ele>190.8</ele>
        <time>2025-09-30T11:38:45.898Z</time>
      </trkpt>
      <trkpt lat="43.67504" lon="2.25821">
        <ele>190.6</ele>
        <time>2025-09-30T11:38:46.249Z</time>
      </trkpt>
      <trkpt lat="43.67504" lon="2.25828">
        <ele>190.6</ele>
        <time>2025-09-30T11:38:46.828Z</time>
      </trkpt>
      <trkpt lat="43.67503" lon="2.25835">
        <ele>190.6</ele>
        <time>2025-09-30T11:38:47.417Z</time>
      </trkpt>
      <trkpt lat="43.67502" lon="2.25841">
        <ele>190.4</ele>
        <time>2025-09-30T11:38:47.768Z</time>
      </trkpt>
      <trkpt lat="43.67503" lon="2.25848">
        <ele>190.2</ele>
        <time>2025-09-30T11:38:48.194Z</time>
      </trkpt>
      <trkpt lat="43.67503" lon="2.25854">
        <ele>190.2</ele>
        <time>2025-09-30T11:38:48.690Z</time>
      </trkpt>
      <trkpt lat="43.67503" lon="2.25861">
        <ele>190</ele>
        <time>2025-09-30T11:38:49.105Z</time>
      </trkpt>
      <trkpt lat="43.67502" lon="2.25868">
        <ele>190</ele>
        <time>2025-09-30T11:38:49.695Z</time>
      </trkpt>
      <trkpt lat="43.67502" lon="2.25875">
        <ele>189.8</ele>
        <time>2025-09-30T11:38:50.110Z</time>
      </trkpt>
      <trkpt lat="43.67501" lon="2.25882">
        <ele>189.8</ele>
        <time>2025-09-30T11:38:50.700Z</time>
      </trkpt>
      <trkpt lat="43.675" lon="2.25889">
        <ele>189.8</ele>
        <time>2025-09-30T11:38:51.289Z</time>
      </trkpt>
      <trkpt lat="43.675" lon="2.25896">
        <ele>189.8</ele>
        <time>2025-09-30T11:38:51.867Z</time>
      </trkpt>
      <trkpt lat="43.67499" lon="2.25903">
        <ele>189.6</ele>
        <time>2025-09-30T11:38:52.293Z</time>
      </trkpt>
      <trkpt lat="43.67497" lon="2.2591">
        <ele>189.6</ele>
        <time>2025-09-30T11:38:52.914Z</time>
      </trkpt>
      <trkpt lat="43.67495" lon="2.25918">
        <ele>189.6</ele>
        <time>2025-09-30T11:38:53.614Z</time>
      </trkpt>
      <trkpt lat="43.67493" lon="2.25925">
        <ele>189.6</ele>
        <time>2025-09-30T11:38:54.235Z</time>
      </trkpt>
      <trkpt lat="43.67491" lon="2.25931">
        <ele>189.6</ele>
        <time>2025-09-30T11:38:54.781Z</time>
      </trkpt>
      <trkpt lat="43.67488" lon="2.25938">
        <ele>189.6</ele>
        <time>2025-09-30T11:38:55.453Z</time>
      </trkpt>
      <trkpt lat="43.67484" lon="2.25943">
        <ele>189.6</ele>
        <time>2025-09-30T11:38:56.069Z</time>
      </trkpt>
      <trkpt lat="43.67481" lon="2.25948">
        <ele>189.4</ele>
        <time>2025-09-30T11:38:56.446Z</time>
      </trkpt>
      <trkpt lat="43.67477" lon="2.25953">
        <ele>189.4</ele>
        <time>2025-09-30T11:38:57.062Z</time>
      </trkpt>
      <trkpt lat="43.67474" lon="2.25958">
        <ele>189.4</ele>
        <time>2025-09-30T11:38:57.598Z</time>
      </trkpt>
      <trkpt lat="43.67471" lon="2.25962">
        <ele>189.4</ele>
        <time>2025-09-30T11:38:58.074Z</time>
      </trkpt>
      <trkpt lat="43.67467" lon="2.25967">
        <ele>189.4</ele>
        <time>2025-09-30T11:38:58.690Z</time>
      </trkpt>
      <trkpt lat="43.67463" lon="2.25971">
        <ele>189.4</ele>
        <time>2025-09-30T11:38:59.254Z</time>
      </trkpt>
      <trkpt lat="43.6746" lon="2.25976">
        <ele>189.4</ele>
        <time>2025-09-30T11:38:59.790Z</time>
      </trkpt>
      <trkpt lat="43.67456" lon="2.2598">
        <ele>189.4</ele>
        <time>2025-09-30T11:39:00.354Z</time>
      </trkpt>
      <trkpt lat="43.67453" lon="2.25984">
        <ele>189.4</ele>
        <time>2025-09-30T11:39:00.830Z</time>
      </trkpt>
      <trkpt lat="43.67449" lon="2.25989">
        <ele>189.4</ele>
        <time>2025-09-30T11:39:01.446Z</time>
      </trkpt>
      <trkpt lat="43.67446" lon="2.25993">
        <ele>189.4</ele>
        <time>2025-09-30T11:39:01.922Z</time>
      </trkpt>
      <trkpt lat="43.67443" lon="2.25997">
        <ele>189.2</ele>
        <time>2025-09-30T11:39:02.244Z</time>
      </trkpt>
      <trkpt lat="43.67439" lon="2.26001">
        <ele>189.2</ele>
        <time>2025-09-30T11:39:02.807Z</time>
      </trkpt>
      <trkpt lat="43.67436" lon="2.26005">
        <ele>189.2</ele>
        <time>2025-09-30T11:39:03.283Z</time>
      </trkpt>
      <trkpt lat="43.67433" lon="2.2601">
        <ele>189.2</ele>
        <time>2025-09-30T11:39:03.820Z</time>
      </trkpt>
      <trkpt lat="43.6743" lon="2.26014">
        <ele>189.2</ele>
        <time>2025-09-30T11:39:04.296Z</time>
      </trkpt>
      <trkpt lat="43.67427" lon="2.26019">
        <ele>189.2</ele>
        <time>2025-09-30T11:39:04.832Z</time>
      </trkpt>
      <trkpt lat="43.67424" lon="2.26024">
        <ele>189.2</ele>
        <time>2025-09-30T11:39:05.369Z</time>
      </trkpt>
      <trkpt lat="43.67421" lon="2.26028">
        <ele>189</ele>
        <time>2025-09-30T11:39:05.691Z</time>
      </trkpt>
      <trkpt lat="43.67417" lon="2.26033">
        <ele>189</ele>
        <time>2025-09-30T11:39:06.307Z</time>
      </trkpt>
      <trkpt lat="43.67414" lon="2.26038">
        <ele>189</ele>
        <time>2025-09-30T11:39:06.843Z</time>
      </trkpt>
      <trkpt lat="43.6741" lon="2.26043">
        <ele>189</ele>
        <time>2025-09-30T11:39:07.459Z</time>
      </trkpt>
      <trkpt lat="43.67407" lon="2.26048">
        <ele>189</ele>
        <time>2025-09-30T11:39:07.996Z</time>
      </trkpt>
      <trkpt lat="43.67403" lon="2.26053">
        <ele>188.8</ele>
        <time>2025-09-30T11:39:08.446Z</time>
      </trkpt>
      <trkpt lat="43.674" lon="2.26059">
        <ele>188.8</ele>
        <time>2025-09-30T11:39:09.049Z</time>
      </trkpt>
      <trkpt lat="43.67397" lon="2.26064">
        <ele>188.8</ele>
        <time>2025-09-30T11:39:09.585Z</time>
      </trkpt>
      <trkpt lat="43.67394" lon="2.2607">
        <ele>188.8</ele>
        <time>2025-09-30T11:39:10.188Z</time>
      </trkpt>
      <trkpt lat="43.6739" lon="2.26075">
        <ele>188.8</ele>
        <time>2025-09-30T11:39:10.803Z</time>
      </trkpt>
      <trkpt lat="43.67387" lon="2.26081">
        <ele>188.8</ele>
        <time>2025-09-30T11:39:11.406Z</time>
      </trkpt>
      <trkpt lat="43.67383" lon="2.26086">
        <ele>188.6</ele>
        <time>2025-09-30T11:39:11.856Z</time>
      </trkpt>
      <trkpt lat="43.6738" lon="2.26092">
        <ele>188.6</ele>
        <time>2025-09-30T11:39:12.459Z</time>
      </trkpt>
      <trkpt lat="43.67377" lon="2.26099">
        <ele>188.6</ele>
        <time>2025-09-30T11:39:13.131Z</time>
      </trkpt>
      <trkpt lat="43.67373" lon="2.26105">
        <ele>188.4</ele>
        <time>2025-09-30T11:39:13.636Z</time>
      </trkpt>
      <trkpt lat="43.6737" lon="2.26111">
        <ele>188.4</ele>
        <time>2025-09-30T11:39:14.238Z</time>
      </trkpt>
      <trkpt lat="43.67366" lon="2.26116">
        <ele>188.4</ele>
        <time>2025-09-30T11:39:14.854Z</time>
      </trkpt>
      <trkpt lat="43.67363" lon="2.26122">
        <ele>188.4</ele>
        <time>2025-09-30T11:39:15.457Z</time>
      </trkpt>
      <trkpt lat="43.67359" lon="2.26128">
        <ele>188.4</ele>
        <time>2025-09-30T11:39:16.130Z</time>
      </trkpt>
      <trkpt lat="43.67356" lon="2.26133">
        <ele>188.2</ele>
        <time>2025-09-30T11:39:16.508Z</time>
      </trkpt>
      <trkpt lat="43.67352" lon="2.26139">
        <ele>188.2</ele>
        <time>2025-09-30T11:39:17.182Z</time>
      </trkpt>
      <trkpt lat="43.67349" lon="2.26145">
        <ele>188</ele>
        <time>2025-09-30T11:39:17.620Z</time>
      </trkpt>
      <trkpt lat="43.67345" lon="2.26152">
        <ele>188</ele>
        <time>2025-09-30T11:39:18.357Z</time>
      </trkpt>
      <trkpt lat="43.67342" lon="2.26158">
        <ele>188</ele>
        <time>2025-09-30T11:39:18.959Z</time>
      </trkpt>
      <trkpt lat="43.67338" lon="2.26164">
        <ele>188</ele>
        <time>2025-09-30T11:39:19.633Z</time>
      </trkpt>
      <trkpt lat="43.67334" lon="2.2617">
        <ele>188</ele>
        <time>2025-09-30T11:39:20.307Z</time>
      </trkpt>
      <trkpt lat="43.67331" lon="2.26177">
        <ele>187.8</ele>
        <time>2025-09-30T11:39:20.810Z</time>
      </trkpt>
      <trkpt lat="43.67326" lon="2.26183">
        <ele>187.8</ele>
        <time>2025-09-30T11:39:21.566Z</time>
      </trkpt>
      <trkpt lat="43.67322" lon="2.2619">
        <ele>187.6</ele>
        <time>2025-09-30T11:39:22.131Z</time>
      </trkpt>
      <trkpt lat="43.67319" lon="2.26197">
        <ele>187.6</ele>
        <time>2025-09-30T11:39:22.803Z</time>
      </trkpt>
      <trkpt lat="43.67315" lon="2.26203">
        <ele>187.6</ele>
        <time>2025-09-30T11:39:23.477Z</time>
      </trkpt>
      <trkpt lat="43.67311" lon="2.26209">
        <ele>187.6</ele>
        <time>2025-09-30T11:39:24.151Z</time>
      </trkpt>
      <trkpt lat="43.67308" lon="2.26215">
        <ele>187.6</ele>
        <time>2025-09-30T11:39:24.753Z</time>
      </trkpt>
      <trkpt lat="43.67304" lon="2.26221">
        <ele>187.4</ele>
        <time>2025-09-30T11:39:25.258Z</time>
      </trkpt>
      <trkpt lat="43.673" lon="2.26227">
        <ele>187.4</ele>
        <time>2025-09-30T11:39:25.932Z</time>
      </trkpt>
      <trkpt lat="43.67297" lon="2.26233">
        <ele>187.4</ele>
        <time>2025-09-30T11:39:26.535Z</time>
      </trkpt>
      <trkpt lat="43.67293" lon="2.26239">
        <ele>187.4</ele>
        <time>2025-09-30T11:39:27.209Z</time>
      </trkpt>
      <trkpt lat="43.67289" lon="2.26244">
        <ele>187.2</ele>
        <time>2025-09-30T11:39:27.659Z</time>
      </trkpt>
      <trkpt lat="43.67286" lon="2.26249">
        <ele>187.2</ele>
        <time>2025-09-30T11:39:28.196Z</time>
      </trkpt>
      <trkpt lat="43.67282" lon="2.26255">
        <ele>187</ele>
        <time>2025-09-30T11:39:28.701Z</time>
      </trkpt>
      <trkpt lat="43.67279" lon="2.26261">
        <ele>187</ele>
        <time>2025-09-30T11:39:29.303Z</time>
      </trkpt>
      <trkpt lat="43.67276" lon="2.26268">
        <ele>186.8</ele>
        <time>2025-09-30T11:39:29.806Z</time>
      </trkpt>
      <trkpt lat="43.67272" lon="2.26274">
        <ele>186.8</ele>
        <time>2025-09-30T11:39:30.480Z</time>
      </trkpt>
      <trkpt lat="43.67269" lon="2.2628">
        <ele>186.6</ele>
        <time>2025-09-30T11:39:30.918Z</time>
      </trkpt>
      <trkpt lat="43.67266" lon="2.26287">
        <ele>186.6</ele>
        <time>2025-09-30T11:39:31.590Z</time>
      </trkpt>
      <trkpt lat="43.67263" lon="2.26293">
        <ele>186.4</ele>
        <time>2025-09-30T11:39:32.028Z</time>
      </trkpt>
      <trkpt lat="43.67259" lon="2.26299">
        <ele>186.4</ele>
        <time>2025-09-30T11:39:32.702Z</time>
      </trkpt>
      <trkpt lat="43.67256" lon="2.26305">
        <ele>186.4</ele>
        <time>2025-09-30T11:39:33.305Z</time>
      </trkpt>
      <trkpt lat="43.67252" lon="2.26311">
        <ele>186.2</ele>
        <time>2025-09-30T11:39:33.810Z</time>
      </trkpt>
      <trkpt lat="43.67249" lon="2.26317">
        <ele>186.2</ele>
        <time>2025-09-30T11:39:34.412Z</time>
      </trkpt>
      <trkpt lat="43.67246" lon="2.26323">
        <ele>186</ele>
        <time>2025-09-30T11:39:34.850Z</time>
      </trkpt>
      <trkpt lat="43.67242" lon="2.26329">
        <ele>186</ele>
        <time>2025-09-30T11:39:35.524Z</time>
      </trkpt>
      <trkpt lat="43.6724" lon="2.26336">
        <ele>185.8</ele>
        <time>2025-09-30T11:39:35.980Z</time>
      </trkpt>
      <trkpt lat="43.67237" lon="2.26343">
        <ele>185.8</ele>
        <time>2025-09-30T11:39:36.652Z</time>
      </trkpt>
      <trkpt lat="43.67233" lon="2.26349">
        <ele>185.8</ele>
        <time>2025-09-30T11:39:37.326Z</time>
      </trkpt>
      <trkpt lat="43.6723" lon="2.26355">
        <ele>185.6</ele>
        <time>2025-09-30T11:39:37.764Z</time>
      </trkpt>
      <trkpt lat="43.67227" lon="2.26361">
        <ele>185.4</ele>
        <time>2025-09-30T11:39:38.203Z</time>
      </trkpt>
      <trkpt lat="43.67225" lon="2.26367">
        <ele>185.2</ele>
        <time>2025-09-30T11:39:38.588Z</time>
      </trkpt>
      <trkpt lat="43.67222" lon="2.26373">
        <ele>185.2</ele>
        <time>2025-09-30T11:39:39.191Z</time>
      </trkpt>
      <trkpt lat="43.6722" lon="2.26378">
        <ele>185</ele>
        <time>2025-09-30T11:39:39.509Z</time>
      </trkpt>
      <trkpt lat="43.67218" lon="2.26384">
        <ele>185</ele>
        <time>2025-09-30T11:39:40.055Z</time>
      </trkpt>
      <trkpt lat="43.67215" lon="2.26389">
        <ele>184.8</ele>
        <time>2025-09-30T11:39:40.432Z</time>
      </trkpt>
      <trkpt lat="43.67213" lon="2.26394">
        <ele>184.8</ele>
        <time>2025-09-30T11:39:40.904Z</time>
      </trkpt>
      <trkpt lat="43.6721" lon="2.26399">
        <ele>184.6</ele>
        <time>2025-09-30T11:39:41.281Z</time>
      </trkpt>
      <trkpt lat="43.67207" lon="2.26404">
        <ele>184.6</ele>
        <time>2025-09-30T11:39:41.818Z</time>
      </trkpt>
      <trkpt lat="43.67204" lon="2.2641">
        <ele>184.4</ele>
        <time>2025-09-30T11:39:42.256Z</time>
      </trkpt>
      <trkpt lat="43.67201" lon="2.26414">
        <ele>184.4</ele>
        <time>2025-09-30T11:39:42.732Z</time>
      </trkpt>
      <trkpt lat="43.67198" lon="2.26419">
        <ele>184.4</ele>
        <time>2025-09-30T11:39:43.268Z</time>
      </trkpt>
      <trkpt lat="43.67195" lon="2.26423">
        <ele>184.4</ele>
        <time>2025-09-30T11:39:43.744Z</time>
      </trkpt>
      <trkpt lat="43.67191" lon="2.26428">
        <ele>184.2</ele>
        <time>2025-09-30T11:39:44.195Z</time>
      </trkpt>
      <trkpt lat="43.67187" lon="2.26433">
        <ele>184.2</ele>
        <time>2025-09-30T11:39:44.811Z</time>
      </trkpt>
      <trkpt lat="43.67183" lon="2.26438">
        <ele>184</ele>
        <time>2025-09-30T11:39:45.261Z</time>
      </trkpt>
      <trkpt lat="43.67181" lon="2.26443">
        <ele>183.8</ele>
        <time>2025-09-30T11:39:45.580Z</time>
      </trkpt>
      <trkpt lat="43.6718" lon="2.26447">
        <ele>183.8</ele>
        <time>2025-09-30T11:39:45.929Z</time>
      </trkpt>
      <trkpt lat="43.67181" lon="2.26451">
        <ele>183.8</ele>
        <time>2025-09-30T11:39:46.279Z</time>
      </trkpt>
      <trkpt lat="43.67183" lon="2.26454">
        <ele>183.8</ele>
        <time>2025-09-30T11:39:46.616Z</time>
      </trkpt>
      <trkpt lat="43.67185" lon="2.26455">
        <ele>184</ele>
        <time>2025-09-30T11:39:47.378Z</time>
      </trkpt>
      <trkpt lat="43.67186" lon="2.26456">
        <ele>184</ele>
        <time>2025-09-30T11:39:47.519Z</time>
      </trkpt>
      <trkpt lat="43.67187" lon="2.26457">
        <ele>184.2</ele>
        <time>2025-09-30T11:39:48.123Z</time>
      </trkpt>
      <trkpt lat="43.67189" lon="2.26457">
        <ele>184.4</ele>
        <time>2025-09-30T11:39:48.894Z</time>
      </trkpt>
      <trkpt lat="43.67192" lon="2.26458">
        <ele>184.8</ele>
        <time>2025-09-30T11:39:50.396Z</time>
      </trkpt>
      <trkpt lat="43.67194" lon="2.26459">
        <ele>185</ele>
        <time>2025-09-30T11:39:51.158Z</time>
      </trkpt>
      <trkpt lat="43.67195" lon="2.2646">
        <ele>185.2</ele>
        <time>2025-09-30T11:39:51.762Z</time>
      </trkpt>
      <trkpt lat="43.67196" lon="2.26461">
        <ele>185.4</ele>
        <time>2025-09-30T11:39:52.366Z</time>
      </trkpt>
      <trkpt lat="43.67198" lon="2.26462">
        <ele>185.8</ele>
        <time>2025-09-30T11:39:53.406Z</time>
      </trkpt>
      <trkpt lat="43.67199" lon="2.26463">
        <ele>186</ele>
        <time>2025-09-30T11:39:54.010Z</time>
      </trkpt>
      <trkpt lat="43.67201" lon="2.26464">
        <ele>186.2</ele>
        <time>2025-09-30T11:39:54.772Z</time>
      </trkpt>
      <trkpt lat="43.67202" lon="2.26464">
        <ele>186.4</ele>
        <time>2025-09-30T11:39:55.262Z</time>
      </trkpt>
      <trkpt lat="43.67208" lon="2.2647">
        <ele>187.4</ele>
        <time>2025-09-30T11:39:58.886Z</time>
      </trkpt>
      <trkpt lat="43.67211" lon="2.26472">
        <ele>187.6</ele>
        <time>2025-09-30T11:39:59.642Z</time>
      </trkpt>
      <trkpt lat="43.67213" lon="2.26473">
        <ele>187.8</ele>
        <time>2025-09-30T11:40:00.404Z</time>
      </trkpt>
      <trkpt lat="43.67215" lon="2.26475">
        <ele>188</ele>
        <time>2025-09-30T11:40:01.148Z</time>
      </trkpt>
      <trkpt lat="43.67217" lon="2.26477">
        <ele>188</ele>
        <time>2025-09-30T11:40:01.430Z</time>
      </trkpt>
      <trkpt lat="43.67219" lon="2.2648">
        <ele>188.2</ele>
        <time>2025-09-30T11:40:02.173Z</time>
      </trkpt>
      <trkpt lat="43.67221" lon="2.26482">
        <ele>188.6</ele>
        <time>2025-09-30T11:40:03.381Z</time>
      </trkpt>
      <trkpt lat="43.67223" lon="2.26483">
        <ele>188.8</ele>
        <time>2025-09-30T11:40:04.143Z</time>
      </trkpt>
      <trkpt lat="43.67224" lon="2.26485">
        <ele>189</ele>
        <time>2025-09-30T11:40:04.925Z</time>
      </trkpt>
      <trkpt lat="43.67226" lon="2.26486">
        <ele>189.2</ele>
        <time>2025-09-30T11:40:05.687Z</time>
      </trkpt>
      <trkpt lat="43.67227" lon="2.26487">
        <ele>189.4</ele>
        <time>2025-09-30T11:40:06.291Z</time>
      </trkpt>
      <trkpt lat="43.67228" lon="2.26489">
        <ele>189.8</ele>
        <time>2025-09-30T11:40:07.152Z</time>
      </trkpt>
      <trkpt lat="43.6723" lon="2.2649">
        <ele>190</ele>
        <time>2025-09-30T11:40:07.914Z</time>
      </trkpt>
      <trkpt lat="43.67231" lon="2.26492">
        <ele>190.2</ele>
        <time>2025-09-30T11:40:08.696Z</time>
      </trkpt>
      <trkpt lat="43.67232" lon="2.26494">
        <ele>190.4</ele>
        <time>2025-09-30T11:40:09.478Z</time>
      </trkpt>
      <trkpt lat="43.67234" lon="2.26496">
        <ele>190.6</ele>
        <time>2025-09-30T11:40:10.223Z</time>
      </trkpt>
      <trkpt lat="43.67234" lon="2.26498">
        <ele>191</ele>
        <time>2025-09-30T11:40:10.931Z</time>
      </trkpt>
      <trkpt lat="43.67235" lon="2.265">
        <ele>191.2</ele>
        <time>2025-09-30T11:40:11.713Z</time>
      </trkpt>
      <trkpt lat="43.67236" lon="2.26502">
        <ele>191.4</ele>
        <time>2025-09-30T11:40:12.495Z</time>
      </trkpt>
      <trkpt lat="43.67237" lon="2.26504">
        <ele>191.6</ele>
        <time>2025-09-30T11:40:13.278Z</time>
      </trkpt>
      <trkpt lat="43.67239" lon="2.26505">
        <ele>191.8</ele>
        <time>2025-09-30T11:40:14.039Z</time>
      </trkpt>
      <trkpt lat="43.6724" lon="2.26507">
        <ele>192</ele>
        <time>2025-09-30T11:40:14.822Z</time>
      </trkpt>
      <trkpt lat="43.67241" lon="2.26509">
        <ele>192.2</ele>
        <time>2025-09-30T11:40:15.604Z</time>
      </trkpt>
      <trkpt lat="43.67242" lon="2.2651">
        <ele>192.4</ele>
        <time>2025-09-30T11:40:16.208Z</time>
      </trkpt>
      <trkpt lat="43.67243" lon="2.26512">
        <ele>192.4</ele>
        <time>2025-09-30T11:40:16.409Z</time>
      </trkpt>
      <trkpt lat="43.67244" lon="2.26514">
        <ele>192.6</ele>
        <time>2025-09-30T11:40:17.191Z</time>
      </trkpt>
      <trkpt lat="43.67246" lon="2.26515">
        <ele>192.8</ele>
        <time>2025-09-30T11:40:17.953Z</time>
      </trkpt>
      <trkpt lat="43.67248" lon="2.26516">
        <ele>192.8</ele>
        <time>2025-09-30T11:40:18.196Z</time>
      </trkpt>
      <trkpt lat="43.67249" lon="2.26517">
        <ele>193</ele>
        <time>2025-09-30T11:40:18.800Z</time>
      </trkpt>
      <trkpt lat="43.67251" lon="2.26518">
        <ele>193.2</ele>
        <time>2025-09-30T11:40:19.562Z</time>
      </trkpt>
      <trkpt lat="43.67253" lon="2.26519">
        <ele>193.2</ele>
        <time>2025-09-30T11:40:19.805Z</time>
      </trkpt>
      <trkpt lat="43.67255" lon="2.2652">
        <ele>193.2</ele>
        <time>2025-09-30T11:40:20.048Z</time>
      </trkpt>
      <trkpt lat="43.67256" lon="2.26521">
        <ele>193.2</ele>
        <time>2025-09-30T11:40:20.189Z</time>
      </trkpt>
      <trkpt lat="43.67258" lon="2.26521">
        <ele>193.2</ele>
        <time>2025-09-30T11:40:20.417Z</time>
      </trkpt>
      <trkpt lat="43.6726" lon="2.26522">
        <ele>193.4</ele>
        <time>2025-09-30T11:40:21.179Z</time>
      </trkpt>
      <trkpt lat="43.67262" lon="2.26522">
        <ele>193.4</ele>
        <time>2025-09-30T11:40:21.407Z</time>
      </trkpt>
      <trkpt lat="43.67264" lon="2.26523">
        <ele>193.4</ele>
        <time>2025-09-30T11:40:21.650Z</time>
      </trkpt>
      <trkpt lat="43.67266" lon="2.26523">
        <ele>193.4</ele>
        <time>2025-09-30T11:40:21.879Z</time>
      </trkpt>
      <trkpt lat="43.67269" lon="2.26524">
        <ele>193.2</ele>
        <time>2025-09-30T11:40:22.092Z</time>
      </trkpt>
      <trkpt lat="43.67271" lon="2.26524">
        <ele>193.2</ele>
        <time>2025-09-30T11:40:22.321Z</time>
      </trkpt>
      <trkpt lat="43.67274" lon="2.26525">
        <ele>193.2</ele>
        <time>2025-09-30T11:40:22.673Z</time>
      </trkpt>
      <trkpt lat="43.67277" lon="2.26525">
        <ele>193</ele>
        <time>2025-09-30T11:40:22.879Z</time>
      </trkpt>
      <trkpt lat="43.6728" lon="2.26526">
        <ele>192.8</ele>
        <time>2025-09-30T11:40:23.093Z</time>
      </trkpt>
      <trkpt lat="43.67284" lon="2.26528">
        <ele>192.6</ele>
        <time>2025-09-30T11:40:23.424Z</time>
      </trkpt>
      <trkpt lat="43.67288" lon="2.2653">
        <ele>192.4</ele>
        <time>2025-09-30T11:40:23.755Z</time>
      </trkpt>
      <trkpt lat="43.67292" lon="2.2653">
        <ele>192.2</ele>
        <time>2025-09-30T11:40:24.060Z</time>
      </trkpt>
      <trkpt lat="43.67296" lon="2.26529">
        <ele>192</ele>
        <time>2025-09-30T11:40:24.371Z</time>
      </trkpt>
      <trkpt lat="43.67299" lon="2.26528">
        <ele>191.8</ele>
        <time>2025-09-30T11:40:24.585Z</time>
      </trkpt>
      <trkpt lat="43.67302" lon="2.26527">
        <ele>191.6</ele>
        <time>2025-09-30T11:40:24.799Z</time>
      </trkpt>
      <trkpt lat="43.67306" lon="2.26527">
        <ele>191.6</ele>
        <time>2025-09-30T11:40:25.256Z</time>
      </trkpt>
      <trkpt lat="43.67309" lon="2.26527">
        <ele>191.8</ele>
        <time>2025-09-30T11:40:26.000Z</time>
      </trkpt>
      <trkpt lat="43.67311" lon="2.26529">
        <ele>191.8</ele>
        <time>2025-09-30T11:40:26.282Z</time>
      </trkpt>
      <trkpt lat="43.67313" lon="2.2653">
        <ele>191.8</ele>
        <time>2025-09-30T11:40:26.525Z</time>
      </trkpt>
      <trkpt lat="43.67315" lon="2.26532">
        <ele>192</ele>
        <time>2025-09-30T11:40:27.269Z</time>
      </trkpt>
      <trkpt lat="43.67317" lon="2.26533">
        <ele>192</ele>
        <time>2025-09-30T11:40:27.512Z</time>
      </trkpt>
      <trkpt lat="43.67319" lon="2.26534">
        <ele>192.2</ele>
        <time>2025-09-30T11:40:28.274Z</time>
      </trkpt>
      <trkpt lat="43.67321" lon="2.26535">
        <ele>192.4</ele>
        <time>2025-09-30T11:40:29.036Z</time>
      </trkpt>
      <trkpt lat="43.67324" lon="2.26536">
        <ele>192.4</ele>
        <time>2025-09-30T11:40:29.388Z</time>
      </trkpt>
      <trkpt lat="43.67326" lon="2.26537">
        <ele>192.6</ele>
        <time>2025-09-30T11:40:30.150Z</time>
      </trkpt>
      <trkpt lat="43.67328" lon="2.26538">
        <ele>192.8</ele>
        <time>2025-09-30T11:40:30.912Z</time>
      </trkpt>
      <trkpt lat="43.6733" lon="2.26539">
        <ele>193</ele>
        <time>2025-09-30T11:40:31.674Z</time>
      </trkpt>
      <trkpt lat="43.67333" lon="2.2654">
        <ele>193.2</ele>
        <time>2025-09-30T11:40:32.420Z</time>
      </trkpt>
      <trkpt lat="43.67335" lon="2.26541">
        <ele>193.4</ele>
        <time>2025-09-30T11:40:33.182Z</time>
      </trkpt>
      <trkpt lat="43.67338" lon="2.26543">
        <ele>193.6</ele>
        <time>2025-09-30T11:40:33.938Z</time>
      </trkpt>
      <trkpt lat="43.6734" lon="2.26544">
        <ele>193.8</ele>
        <time>2025-09-30T11:40:34.700Z</time>
      </trkpt>
      <trkpt lat="43.67342" lon="2.26546">
        <ele>194</ele>
        <time>2025-09-30T11:40:35.444Z</time>
      </trkpt>
      <trkpt lat="43.67344" lon="2.26547">
        <ele>194.2</ele>
        <time>2025-09-30T11:40:36.206Z</time>
      </trkpt>
      <trkpt lat="43.67345" lon="2.26549">
        <ele>194.4</ele>
        <time>2025-09-30T11:40:36.989Z</time>
      </trkpt>
      <trkpt lat="43.67346" lon="2.2655">
        <ele>194.6</ele>
        <time>2025-09-30T11:40:37.593Z</time>
      </trkpt>
      <trkpt lat="43.67348" lon="2.26551">
        <ele>195</ele>
        <time>2025-09-30T11:40:38.633Z</time>
      </trkpt>
      <trkpt lat="43.6735" lon="2.26552">
        <ele>195.2</ele>
        <time>2025-09-30T11:40:39.395Z</time>
      </trkpt>
      <trkpt lat="43.67351" lon="2.26552">
        <ele>195.4</ele>
        <time>2025-09-30T11:40:39.885Z</time>
      </trkpt>
      <trkpt lat="43.67353" lon="2.26553">
        <ele>195.8</ele>
        <time>2025-09-30T11:40:40.926Z</time>
      </trkpt>
      <trkpt lat="43.67354" lon="2.26554">
        <ele>196</ele>
        <time>2025-09-30T11:40:41.530Z</time>
      </trkpt>
      <trkpt lat="43.67356" lon="2.26555">
        <ele>196.4</ele>
        <time>2025-09-30T11:40:42.570Z</time>
      </trkpt>
      <trkpt lat="43.67359" lon="2.26556">
        <ele>196.6</ele>
        <time>2025-09-30T11:40:43.317Z</time>
      </trkpt>
      <trkpt lat="43.67361" lon="2.26557">
        <ele>196.8</ele>
        <time>2025-09-30T11:40:44.079Z</time>
      </trkpt>
      <trkpt lat="43.67363" lon="2.26559">
        <ele>197.2</ele>
        <time>2025-09-30T11:40:45.287Z</time>
      </trkpt>
      <trkpt lat="43.67366" lon="2.2656">
        <ele>197.4</ele>
        <time>2025-09-30T11:40:46.033Z</time>
      </trkpt>
      <trkpt lat="43.67368" lon="2.26562">
        <ele>197.6</ele>
        <time>2025-09-30T11:40:46.778Z</time>
      </trkpt>
      <trkpt lat="43.67371" lon="2.26565">
        <ele>197.8</ele>
        <time>2025-09-30T11:40:47.554Z</time>
      </trkpt>
      <trkpt lat="43.67373" lon="2.26567">
        <ele>198</ele>
        <time>2025-09-30T11:40:48.299Z</time>
      </trkpt>
      <trkpt lat="43.67375" lon="2.26569">
        <ele>198.2</ele>
        <time>2025-09-30T11:40:49.043Z</time>
      </trkpt>
      <trkpt lat="43.67377" lon="2.26571">
        <ele>198.4</ele>
        <time>2025-09-30T11:40:49.787Z</time>
      </trkpt>
      <trkpt lat="43.67379" lon="2.26574">
        <ele>198.6</ele>
        <time>2025-09-30T11:40:50.530Z</time>
      </trkpt>
      <trkpt lat="43.67382" lon="2.26576">
        <ele>198.6</ele>
        <time>2025-09-30T11:40:50.911Z</time>
      </trkpt>
      <trkpt lat="43.67383" lon="2.26578">
        <ele>198.8</ele>
        <time>2025-09-30T11:40:51.693Z</time>
      </trkpt>
      <trkpt lat="43.67385" lon="2.2658">
        <ele>199</ele>
        <time>2025-09-30T11:40:52.437Z</time>
      </trkpt>
      <trkpt lat="43.67387" lon="2.26582">
        <ele>199.2</ele>
        <time>2025-09-30T11:40:53.182Z</time>
      </trkpt>
      <trkpt lat="43.67388" lon="2.26583">
        <ele>199.2</ele>
        <time>2025-09-30T11:40:53.322Z</time>
      </trkpt>
      <trkpt lat="43.67389" lon="2.26585">
        <ele>199.4</ele>
        <time>2025-09-30T11:40:54.105Z</time>
      </trkpt>
      <trkpt lat="43.67391" lon="2.26587">
        <ele>199.4</ele>
        <time>2025-09-30T11:40:54.387Z</time>
      </trkpt>
      <trkpt lat="43.67393" lon="2.26588">
        <ele>199.6</ele>
        <time>2025-09-30T11:40:55.149Z</time>
      </trkpt>
      <trkpt lat="43.67395" lon="2.2659">
        <ele>199.8</ele>
        <time>2025-09-30T11:40:55.893Z</time>
      </trkpt>
      <trkpt lat="43.67397" lon="2.26593">
        <ele>199.8</ele>
        <time>2025-09-30T11:40:56.230Z</time>
      </trkpt>
      <trkpt lat="43.67398" lon="2.26594">
        <ele>200</ele>
        <time>2025-09-30T11:40:56.834Z</time>
      </trkpt>
      <trkpt lat="43.674" lon="2.26596">
        <ele>200.2</ele>
        <time>2025-09-30T11:40:57.578Z</time>
      </trkpt>
      <trkpt lat="43.67401" lon="2.26598">
        <ele>200.2</ele>
        <time>2025-09-30T11:40:57.779Z</time>
      </trkpt>
      <trkpt lat="43.67403" lon="2.26599">
        <ele>200.4</ele>
        <time>2025-09-30T11:40:58.541Z</time>
      </trkpt>
      <trkpt lat="43.67405" lon="2.266">
        <ele>200.4</ele>
        <time>2025-09-30T11:40:58.784Z</time>
      </trkpt>
      <trkpt lat="43.67408" lon="2.26602">
        <ele>200.6</ele>
        <time>2025-09-30T11:40:59.540Z</time>
      </trkpt>
      <trkpt lat="43.6741" lon="2.26604">
        <ele>200.6</ele>
        <time>2025-09-30T11:40:59.822Z</time>
      </trkpt>
      <trkpt lat="43.67412" lon="2.26606">
        <ele>200.8</ele>
        <time>2025-09-30T11:41:00.566Z</time>
      </trkpt>
      <trkpt lat="43.67414" lon="2.26607">
        <ele>201</ele>
        <time>2025-09-30T11:41:01.328Z</time>
      </trkpt>
      <trkpt lat="43.67416" lon="2.26609">
        <ele>201</ele>
        <time>2025-09-30T11:41:01.610Z</time>
      </trkpt>
      <trkpt lat="43.67418" lon="2.2661">
        <ele>201.2</ele>
        <time>2025-09-30T11:41:02.372Z</time>
      </trkpt>
      <trkpt lat="43.67421" lon="2.26612">
        <ele>201.4</ele>
        <time>2025-09-30T11:41:03.128Z</time>
      </trkpt>
      <trkpt lat="43.67425" lon="2.26614">
        <ele>201.6</ele>
        <time>2025-09-30T11:41:03.944Z</time>
      </trkpt>
      <trkpt lat="43.67427" lon="2.26615">
        <ele>201.8</ele>
        <time>2025-09-30T11:41:04.706Z</time>
      </trkpt>
      <trkpt lat="43.6743" lon="2.26616">
        <ele>202</ele>
        <time>2025-09-30T11:41:05.452Z</time>
      </trkpt>
      <trkpt lat="43.67432" lon="2.26617">
        <ele>202.2</ele>
        <time>2025-09-30T11:41:06.214Z</time>
      </trkpt>
      <trkpt lat="43.67434" lon="2.26618">
        <ele>202.4</ele>
        <time>2025-09-30T11:41:06.976Z</time>
      </trkpt>
      <trkpt lat="43.67437" lon="2.26618">
        <ele>202.6</ele>
        <time>2025-09-30T11:41:07.720Z</time>
      </trkpt>
      <trkpt lat="43.67439" lon="2.26619">
        <ele>202.8</ele>
        <time>2025-09-30T11:41:08.482Z</time>
      </trkpt>
      <trkpt lat="43.67442" lon="2.2662">
        <ele>203</ele>
        <time>2025-09-30T11:41:09.229Z</time>
      </trkpt>
      <trkpt lat="43.67444" lon="2.26621">
        <ele>203.2</ele>
        <time>2025-09-30T11:41:09.991Z</time>
      </trkpt>
      <trkpt lat="43.67447" lon="2.26622">
        <ele>203.4</ele>
        <time>2025-09-30T11:41:10.737Z</time>
      </trkpt>
      <trkpt lat="43.67449" lon="2.26622">
        <ele>204.8</ele>
        <time>2025-09-30T11:41:11.716Z</time>
      </trkpt>
      <trkpt lat="43.67452" lon="2.26623">
        <ele>204.8</ele>
        <time>2025-09-30T11:41:12.068Z</time>
      </trkpt>
      <trkpt lat="43.67454" lon="2.26624">
        <ele>205</ele>
        <time>2025-09-30T11:41:12.830Z</time>
      </trkpt>
      <trkpt lat="43.67456" lon="2.26625">
        <ele>205</ele>
        <time>2025-09-30T11:41:13.073Z</time>
      </trkpt>
      <trkpt lat="43.67459" lon="2.26626">
        <ele>205.2</ele>
        <time>2025-09-30T11:41:13.820Z</time>
      </trkpt>
      <trkpt lat="43.67461" lon="2.26626">
        <ele>205.4</ele>
        <time>2025-09-30T11:41:14.591Z</time>
      </trkpt>
      <trkpt lat="43.67464" lon="2.26626">
        <ele>205.6</ele>
        <time>2025-09-30T11:41:15.335Z</time>
      </trkpt>
      <trkpt lat="43.67466" lon="2.26627">
        <ele>205.8</ele>
        <time>2025-09-30T11:41:16.097Z</time>
      </trkpt>
      <trkpt lat="43.67469" lon="2.26627">
        <ele>206</ele>
        <time>2025-09-30T11:41:16.841Z</time>
      </trkpt>
      <trkpt lat="43.67472" lon="2.26628">
        <ele>206.2</ele>
        <time>2025-09-30T11:41:17.587Z</time>
      </trkpt>
      <trkpt lat="43.67474" lon="2.26628">
        <ele>206.4</ele>
        <time>2025-09-30T11:41:18.359Z</time>
      </trkpt>
      <trkpt lat="43.67477" lon="2.26628">
        <ele>206.6</ele>
        <time>2025-09-30T11:41:19.103Z</time>
      </trkpt>
      <trkpt lat="43.6748" lon="2.26628">
        <ele>206.8</ele>
        <time>2025-09-30T11:41:19.847Z</time>
      </trkpt>
      <trkpt lat="43.67482" lon="2.26628">
        <ele>207.2</ele>
        <time>2025-09-30T11:41:20.826Z</time>
      </trkpt>
      <trkpt lat="43.67484" lon="2.26628">
        <ele>207.4</ele>
        <time>2025-09-30T11:41:21.597Z</time>
      </trkpt>
      <trkpt lat="43.67486" lon="2.26627">
        <ele>207.6</ele>
        <time>2025-09-30T11:41:22.359Z</time>
      </trkpt>
      <trkpt lat="43.67488" lon="2.26627">
        <ele>207.8</ele>
        <time>2025-09-30T11:41:23.130Z</time>
      </trkpt>
      <trkpt lat="43.6749" lon="2.26626">
        <ele>208</ele>
        <time>2025-09-30T11:41:23.892Z</time>
      </trkpt>
      <trkpt lat="43.67492" lon="2.26626">
        <ele>208.2</ele>
        <time>2025-09-30T11:41:24.663Z</time>
      </trkpt>
      <trkpt lat="43.67493" lon="2.26626">
        <ele>208.6</ele>
        <time>2025-09-30T11:41:25.152Z</time>
      </trkpt>
      <trkpt lat="43.67494" lon="2.26627">
        <ele>208.8</ele>
        <time>2025-09-30T11:41:25.756Z</time>
      </trkpt>
      <trkpt lat="43.67496" lon="2.26626">
        <ele>209</ele>
        <time>2025-09-30T11:41:26.518Z</time>
      </trkpt>
      <trkpt lat="43.67498" lon="2.26626">
        <ele>209.4</ele>
        <time>2025-09-30T11:41:27.497Z</time>
      </trkpt>
      <trkpt lat="43.675" lon="2.26626">
        <ele>209.6</ele>
        <time>2025-09-30T11:41:28.268Z</time>
      </trkpt>
      <trkpt lat="43.67502" lon="2.26625">
        <ele>209.8</ele>
        <time>2025-09-30T11:41:29.030Z</time>
      </trkpt>
      <trkpt lat="43.67503" lon="2.26625">
        <ele>210</ele>
        <time>2025-09-30T11:41:29.519Z</time>
      </trkpt>
      <trkpt lat="43.67505" lon="2.26624">
        <ele>210.4</ele>
        <time>2025-09-30T11:41:30.560Z</time>
      </trkpt>
      <trkpt lat="43.67507" lon="2.26624">
        <ele>210.6</ele>
        <time>2025-09-30T11:41:31.331Z</time>
      </trkpt>
      <trkpt lat="43.67508" lon="2.26623">
        <ele>210.8</ele>
        <time>2025-09-30T11:41:31.935Z</time>
      </trkpt>
      <trkpt lat="43.6751" lon="2.26623">
        <ele>211</ele>
        <time>2025-09-30T11:41:32.707Z</time>
      </trkpt>
      <trkpt lat="43.67511" lon="2.26622">
        <ele>211.2</ele>
        <time>2025-09-30T11:41:33.311Z</time>
      </trkpt>
      <trkpt lat="43.67518" lon="2.26617">
        <ele>213</ele>
        <time>2025-09-30T11:41:37.166Z</time>
      </trkpt>
      <trkpt lat="43.6752" lon="2.26615">
        <ele>213.2</ele>
        <time>2025-09-30T11:41:37.911Z</time>
      </trkpt>
      <trkpt lat="43.67521" lon="2.26614">
        <ele>213.4</ele>
        <time>2025-09-30T11:41:38.515Z</time>
      </trkpt>
      <trkpt lat="43.67522" lon="2.26613">
        <ele>213.6</ele>
        <time>2025-09-30T11:41:39.119Z</time>
      </trkpt>
      <trkpt lat="43.6753" lon="2.26607">
        <ele>215.2</ele>
        <time>2025-09-30T11:41:43.573Z</time>
      </trkpt>
      <trkpt lat="43.67533" lon="2.26605">
        <ele>215.6</ele>
        <time>2025-09-30T11:41:45.127Z</time>
      </trkpt>
      <trkpt lat="43.67534" lon="2.26604">
        <ele>215.8</ele>
        <time>2025-09-30T11:41:45.731Z</time>
      </trkpt>
      <trkpt lat="43.67536" lon="2.26603">
        <ele>216</ele>
        <time>2025-09-30T11:41:46.493Z</time>
      </trkpt>
      <trkpt lat="43.67538" lon="2.26603">
        <ele>216.2</ele>
        <time>2025-09-30T11:41:47.264Z</time>
      </trkpt>
      <trkpt lat="43.6754" lon="2.26601">
        <ele>216.6</ele>
        <time>2025-09-30T11:41:48.472Z</time>
      </trkpt>
      <trkpt lat="43.67542" lon="2.26599">
        <ele>216.8</ele>
        <time>2025-09-30T11:41:49.217Z</time>
      </trkpt>
      <trkpt lat="43.67543" lon="2.26598">
        <ele>217.2</ele>
        <time>2025-09-30T11:41:49.821Z</time>
      </trkpt>
      <trkpt lat="43.67545" lon="2.26596">
        <ele>217.4</ele>
        <time>2025-09-30T11:41:50.565Z</time>
      </trkpt>
      <trkpt lat="43.67548" lon="2.26594">
        <ele>217.8</ele>
        <time>2025-09-30T11:41:52.119Z</time>
      </trkpt>
      <trkpt lat="43.67549" lon="2.26593">
        <ele>218</ele>
        <time>2025-09-30T11:41:52.723Z</time>
      </trkpt>
      <trkpt lat="43.67551" lon="2.26592">
        <ele>218.4</ele>
        <time>2025-09-30T11:41:53.764Z</time>
      </trkpt>
      <trkpt lat="43.67553" lon="2.26591">
        <ele>218.6</ele>
        <time>2025-09-30T11:41:54.526Z</time>
      </trkpt>
      <trkpt lat="43.67554" lon="2.2659">
        <ele>218.8</ele>
        <time>2025-09-30T11:41:55.130Z</time>
      </trkpt>
      <trkpt lat="43.67555" lon="2.26588">
        <ele>219.2</ele>
        <time>2025-09-30T11:41:55.991Z</time>
      </trkpt>
      <trkpt lat="43.67557" lon="2.26587">
        <ele>219.4</ele>
        <time>2025-09-30T11:41:56.753Z</time>
      </trkpt>
      <trkpt lat="43.67559" lon="2.26585">
        <ele>219.6</ele>
        <time>2025-09-30T11:41:57.497Z</time>
      </trkpt>
      <trkpt lat="43.6756" lon="2.26584">
        <ele>219.6</ele>
        <time>2025-09-30T11:41:57.638Z</time>
      </trkpt>
      <trkpt lat="43.67562" lon="2.26583">
        <ele>219.8</ele>
        <time>2025-09-30T11:41:58.400Z</time>
      </trkpt>
      <trkpt lat="43.67563" lon="2.26582">
        <ele>220</ele>
        <time>2025-09-30T11:41:59.004Z</time>
      </trkpt>
      <trkpt lat="43.67565" lon="2.26581">
        <ele>220.2</ele>
        <time>2025-09-30T11:41:59.766Z</time>
      </trkpt>
      <trkpt lat="43.67566" lon="2.2658">
        <ele>220.4</ele>
        <time>2025-09-30T11:42:00.370Z</time>
      </trkpt>
      <trkpt lat="43.67567" lon="2.2658">
        <ele>220.8</ele>
        <time>2025-09-30T11:42:00.859Z</time>
      </trkpt>
      <trkpt lat="43.67568" lon="2.26579">
        <ele>221</ele>
        <time>2025-09-30T11:42:01.463Z</time>
      </trkpt>
      <trkpt lat="43.67569" lon="2.26578">
        <ele>221.2</ele>
        <time>2025-09-30T11:42:02.067Z</time>
      </trkpt>
      <trkpt lat="43.6757" lon="2.26577">
        <ele>221.4</ele>
        <time>2025-09-30T11:42:02.671Z</time>
      </trkpt>
      <trkpt lat="43.67571" lon="2.26576">
        <ele>221.8</ele>
        <time>2025-09-30T11:42:03.275Z</time>
      </trkpt>
      <trkpt lat="43.67575" lon="2.26574">
        <ele>222</ele>
        <time>2025-09-30T11:42:04.091Z</time>
      </trkpt>
      <trkpt lat="43.67577" lon="2.26573">
        <ele>222.2</ele>
        <time>2025-09-30T11:42:04.853Z</time>
      </trkpt>
      <trkpt lat="43.67579" lon="2.26573">
        <ele>222.4</ele>
        <time>2025-09-30T11:42:05.624Z</time>
      </trkpt>
      <trkpt lat="43.67581" lon="2.26572">
        <ele>222.8</ele>
        <time>2025-09-30T11:42:06.665Z</time>
      </trkpt>
      <trkpt lat="43.67583" lon="2.26572">
        <ele>223</ele>
        <time>2025-09-30T11:42:07.436Z</time>
      </trkpt>
      <trkpt lat="43.67585" lon="2.26571">
        <ele>223.2</ele>
        <time>2025-09-30T11:42:08.198Z</time>
      </trkpt>
      <trkpt lat="43.67587" lon="2.2657">
        <ele>223.4</ele>
        <time>2025-09-30T11:42:08.960Z</time>
      </trkpt>
      <trkpt lat="43.67589" lon="2.26569">
        <ele>223.6</ele>
        <time>2025-09-30T11:42:09.722Z</time>
      </trkpt>
      <trkpt lat="43.6759" lon="2.26568">
        <ele>224</ele>
        <time>2025-09-30T11:42:10.326Z</time>
      </trkpt>
      <trkpt lat="43.67592" lon="2.26568">
        <ele>224.2</ele>
        <time>2025-09-30T11:42:11.097Z</time>
      </trkpt>
      <trkpt lat="43.67594" lon="2.26567">
        <ele>224.4</ele>
        <time>2025-09-30T11:42:11.859Z</time>
      </trkpt>
      <trkpt lat="43.67595" lon="2.26567">
        <ele>224.8</ele>
        <time>2025-09-30T11:42:12.348Z</time>
      </trkpt>
      <trkpt lat="43.67598" lon="2.26567">
        <ele>225</ele>
        <time>2025-09-30T11:42:13.092Z</time>
      </trkpt>
      <trkpt lat="43.676" lon="2.26566">
        <ele>225.2</ele>
        <time>2025-09-30T11:42:13.854Z</time>
      </trkpt>
      <trkpt lat="43.67602" lon="2.26565">
        <ele>225.6</ele>
        <time>2025-09-30T11:42:14.895Z</time>
      </trkpt>
      <trkpt lat="43.67605" lon="2.26564">
        <ele>225.8</ele>
        <time>2025-09-30T11:42:15.642Z</time>
      </trkpt>
      <trkpt lat="43.67607" lon="2.26564">
        <ele>226</ele>
        <time>2025-09-30T11:42:16.413Z</time>
      </trkpt>
      <trkpt lat="43.67609" lon="2.26563">
        <ele>226.2</ele>
        <time>2025-09-30T11:42:17.175Z</time>
      </trkpt>
      <trkpt lat="43.67611" lon="2.26563">
        <ele>226.4</ele>
        <time>2025-09-30T11:42:17.946Z</time>
      </trkpt>
      <trkpt lat="43.67612" lon="2.26562">
        <ele>226.6</ele>
        <time>2025-09-30T11:42:18.550Z</time>
      </trkpt>
      <trkpt lat="43.67613" lon="2.26562">
        <ele>226.8</ele>
        <time>2025-09-30T11:42:19.039Z</time>
      </trkpt>
      <trkpt lat="43.67614" lon="2.26562">
        <ele>227</ele>
        <time>2025-09-30T11:42:19.529Z</time>
      </trkpt>
      <trkpt lat="43.67616" lon="2.26561">
        <ele>227.2</ele>
        <time>2025-09-30T11:42:20.291Z</time>
      </trkpt>
      <trkpt lat="43.67618" lon="2.26561">
        <ele>227.4</ele>
        <time>2025-09-30T11:42:21.062Z</time>
      </trkpt>
      <trkpt lat="43.6762" lon="2.2656">
        <ele>227.6</ele>
        <time>2025-09-30T11:42:21.824Z</time>
      </trkpt>
      <trkpt lat="43.67623" lon="2.2656">
        <ele>227.8</ele>
        <time>2025-09-30T11:42:22.568Z</time>
      </trkpt>
      <trkpt lat="43.67625" lon="2.2656">
        <ele>228</ele>
        <time>2025-09-30T11:42:23.339Z</time>
      </trkpt>
      <trkpt lat="43.67627" lon="2.26559">
        <ele>228.2</ele>
        <time>2025-09-30T11:42:24.101Z</time>
      </trkpt>
      <trkpt lat="43.67628" lon="2.26559">
        <ele>228.4</ele>
        <time>2025-09-30T11:42:24.590Z</time>
      </trkpt>
      <trkpt lat="43.6763" lon="2.26558">
        <ele>228.8</ele>
        <time>2025-09-30T11:42:25.631Z</time>
      </trkpt>
      <trkpt lat="43.67633" lon="2.26558">
        <ele>229</ele>
        <time>2025-09-30T11:42:26.375Z</time>
      </trkpt>
      <trkpt lat="43.67635" lon="2.26558">
        <ele>229.2</ele>
        <time>2025-09-30T11:42:27.146Z</time>
      </trkpt>
      <trkpt lat="43.67636" lon="2.26558">
        <ele>229.4</ele>
        <time>2025-09-30T11:42:27.636Z</time>
      </trkpt>
      <trkpt lat="43.67638" lon="2.26558">
        <ele>229.6</ele>
        <time>2025-09-30T11:42:28.407Z</time>
      </trkpt>
      <trkpt lat="43.6764" lon="2.26558">
        <ele>229.8</ele>
        <time>2025-09-30T11:42:29.178Z</time>
      </trkpt>
      <trkpt lat="43.67642" lon="2.26558">
        <ele>230.2</ele>
        <time>2025-09-30T11:42:30.157Z</time>
      </trkpt>
      <trkpt lat="43.67643" lon="2.26557">
        <ele>230.4</ele>
        <time>2025-09-30T11:42:30.761Z</time>
      </trkpt>
      <trkpt lat="43.67645" lon="2.26557">
        <ele>230.6</ele>
        <time>2025-09-30T11:42:31.532Z</time>
      </trkpt>
      <trkpt lat="43.67647" lon="2.26557">
        <ele>230.8</ele>
        <time>2025-09-30T11:42:32.303Z</time>
      </trkpt>
      <trkpt lat="43.67649" lon="2.26557">
        <ele>231.2</ele>
        <time>2025-09-30T11:42:33.282Z</time>
      </trkpt>
      <trkpt lat="43.67651" lon="2.26557">
        <ele>231.4</ele>
        <time>2025-09-30T11:42:34.053Z</time>
      </trkpt>
      <trkpt lat="43.67652" lon="2.26557">
        <ele>231.8</ele>
        <time>2025-09-30T11:42:34.542Z</time>
      </trkpt>
      <trkpt lat="43.67654" lon="2.26556">
        <ele>232</ele>
        <time>2025-09-30T11:42:35.304Z</time>
      </trkpt>
      <trkpt lat="43.67657" lon="2.26556">
        <ele>232.2</ele>
        <time>2025-09-30T11:42:36.048Z</time>
      </trkpt>
      <trkpt lat="43.67659" lon="2.26555">
        <ele>232.6</ele>
        <time>2025-09-30T11:42:37.089Z</time>
      </trkpt>
      <trkpt lat="43.67661" lon="2.26555">
        <ele>232.8</ele>
        <time>2025-09-30T11:42:37.860Z</time>
      </trkpt>
      <trkpt lat="43.67663" lon="2.26554">
        <ele>233.2</ele>
        <time>2025-09-30T11:42:38.901Z</time>
      </trkpt>
      <trkpt lat="43.67664" lon="2.26553">
        <ele>233.4</ele>
        <time>2025-09-30T11:42:39.505Z</time>
      </trkpt>
      <trkpt lat="43.67665" lon="2.26553">
        <ele>233.6</ele>
        <time>2025-09-30T11:42:39.995Z</time>
      </trkpt>
      <trkpt lat="43.67667" lon="2.26552">
        <ele>234</ele>
        <time>2025-09-30T11:42:41.035Z</time>
      </trkpt>
      <trkpt lat="43.67669" lon="2.26552">
        <ele>234.2</ele>
        <time>2025-09-30T11:42:41.807Z</time>
      </trkpt>
      <trkpt lat="43.67671" lon="2.26551">
        <ele>234.6</ele>
        <time>2025-09-30T11:42:42.847Z</time>
      </trkpt>
      <trkpt lat="43.67673" lon="2.2655">
        <ele>234.8</ele>
        <time>2025-09-30T11:42:43.609Z</time>
      </trkpt>
      <trkpt lat="43.67675" lon="2.2655">
        <ele>235</ele>
        <time>2025-09-30T11:42:44.380Z</time>
      </trkpt>
      <trkpt lat="43.67677" lon="2.2655">
        <ele>235.4</ele>
        <time>2025-09-30T11:42:45.359Z</time>
      </trkpt>
      <trkpt lat="43.67679" lon="2.26549">
        <ele>235.6</ele>
        <time>2025-09-30T11:42:46.121Z</time>
      </trkpt>
      <trkpt lat="43.67682" lon="2.26549">
        <ele>236.4</ele>
        <time>2025-09-30T11:42:47.589Z</time>
      </trkpt>
      <trkpt lat="43.67685" lon="2.26549">
        <ele>236.8</ele>
        <time>2025-09-30T11:42:49.057Z</time>
      </trkpt>
      <trkpt lat="43.67687" lon="2.26549">
        <ele>237</ele>
        <time>2025-09-30T11:42:49.829Z</time>
      </trkpt>
      <trkpt lat="43.67689" lon="2.26549">
        <ele>237.4</ele>
        <time>2025-09-30T11:42:50.807Z</time>
      </trkpt>
      <trkpt lat="43.67691" lon="2.26549">
        <ele>237.8</ele>
        <time>2025-09-30T11:42:51.786Z</time>
      </trkpt>
      <trkpt lat="43.67693" lon="2.26549">
        <ele>238.2</ele>
        <time>2025-09-30T11:42:52.765Z</time>
      </trkpt>
      <trkpt lat="43.67695" lon="2.26548">
        <ele>238.6</ele>
        <time>2025-09-30T11:42:53.806Z</time>
      </trkpt>
      <trkpt lat="43.67698" lon="2.26548">
        <ele>238.8</ele>
        <time>2025-09-30T11:42:54.550Z</time>
      </trkpt>
      <trkpt lat="43.677" lon="2.26547">
        <ele>239.2</ele>
        <time>2025-09-30T11:42:55.591Z</time>
      </trkpt>
      <trkpt lat="43.67701" lon="2.26547">
        <ele>239.4</ele>
        <time>2025-09-30T11:42:56.080Z</time>
      </trkpt>
      <trkpt lat="43.67703" lon="2.26547">
        <ele>239.8</ele>
        <time>2025-09-30T11:42:57.059Z</time>
      </trkpt>
      <trkpt lat="43.67705" lon="2.26547">
        <ele>240</ele>
        <time>2025-09-30T11:42:57.830Z</time>
      </trkpt>
      <trkpt lat="43.67707" lon="2.26547">
        <ele>240.2</ele>
        <time>2025-09-30T11:42:58.601Z</time>
      </trkpt>
      <trkpt lat="43.67709" lon="2.26547">
        <ele>240.6</ele>
        <time>2025-09-30T11:42:59.580Z</time>
      </trkpt>
      <trkpt lat="43.67711" lon="2.26547">
        <ele>240.8</ele>
        <time>2025-09-30T11:43:00.351Z</time>
      </trkpt>
      <trkpt lat="43.67714" lon="2.26546">
        <ele>241.2</ele>
        <time>2025-09-30T11:43:01.853Z</time>
      </trkpt>
      <trkpt lat="43.67717" lon="2.26546">
        <ele>241.4</ele>
        <time>2025-09-30T11:43:02.597Z</time>
      </trkpt>
      <trkpt lat="43.67718" lon="2.26546">
        <ele>241.6</ele>
        <time>2025-09-30T11:43:03.087Z</time>
      </trkpt>
      <trkpt lat="43.6772" lon="2.26546">
        <ele>241.8</ele>
        <time>2025-09-30T11:43:03.858Z</time>
      </trkpt>
      <trkpt lat="43.67722" lon="2.26546">
        <ele>242</ele>
        <time>2025-09-30T11:43:04.629Z</time>
      </trkpt>
      <trkpt lat="43.67724" lon="2.26546">
        <ele>242.2</ele>
        <time>2025-09-30T11:43:05.400Z</time>
      </trkpt>
      <trkpt lat="43.67725" lon="2.26546">
        <ele>242.4</ele>
        <time>2025-09-30T11:43:05.889Z</time>
      </trkpt>
      <trkpt lat="43.67727" lon="2.26545">
        <ele>242.8</ele>
        <time>2025-09-30T11:43:06.930Z</time>
      </trkpt>
      <trkpt lat="43.67729" lon="2.26545">
        <ele>243</ele>
        <time>2025-09-30T11:43:07.701Z</time>
      </trkpt>
      <trkpt lat="43.67731" lon="2.26544">
        <ele>243.2</ele>
        <time>2025-09-30T11:43:08.463Z</time>
      </trkpt>
      <trkpt lat="43.67733" lon="2.26544">
        <ele>243.4</ele>
        <time>2025-09-30T11:43:09.235Z</time>
      </trkpt>
      <trkpt lat="43.67735" lon="2.26544">
        <ele>243.6</ele>
        <time>2025-09-30T11:43:10.006Z</time>
      </trkpt>
      <trkpt lat="43.67738" lon="2.26544">
        <ele>244</ele>
        <time>2025-09-30T11:43:11.474Z</time>
      </trkpt>
      <trkpt lat="43.6774" lon="2.26543">
        <ele>244.2</ele>
        <time>2025-09-30T11:43:12.236Z</time>
      </trkpt>
      <trkpt lat="43.67742" lon="2.26542">
        <ele>244.4</ele>
        <time>2025-09-30T11:43:12.998Z</time>
      </trkpt>
      <trkpt lat="43.67744" lon="2.26542">
        <ele>244.6</ele>
        <time>2025-09-30T11:43:13.769Z</time>
      </trkpt>
      <trkpt lat="43.67747" lon="2.26541">
        <ele>245</ele>
        <time>2025-09-30T11:43:15.271Z</time>
      </trkpt>
      <trkpt lat="43.67749" lon="2.26539">
        <ele>245.2</ele>
        <time>2025-09-30T11:43:16.015Z</time>
      </trkpt>
      <trkpt lat="43.67751" lon="2.26538">
        <ele>245.4</ele>
        <time>2025-09-30T11:43:16.777Z</time>
      </trkpt>
      <trkpt lat="43.67753" lon="2.26536">
        <ele>245.6</ele>
        <time>2025-09-30T11:43:17.521Z</time>
      </trkpt>
      <trkpt lat="43.67755" lon="2.26536">
        <ele>246</ele>
        <time>2025-09-30T11:43:18.500Z</time>
      </trkpt>
      <trkpt lat="43.67757" lon="2.26535">
        <ele>246.2</ele>
        <time>2025-09-30T11:43:19.262Z</time>
      </trkpt>
      <trkpt lat="43.67759" lon="2.26534">
        <ele>246.4</ele>
        <time>2025-09-30T11:43:20.024Z</time>
      </trkpt>
      <trkpt lat="43.6776" lon="2.26534">
        <ele>246.6</ele>
        <time>2025-09-30T11:43:20.513Z</time>
      </trkpt>
      <trkpt lat="43.67762" lon="2.26533">
        <ele>247</ele>
        <time>2025-09-30T11:43:21.554Z</time>
      </trkpt>
      <trkpt lat="43.67764" lon="2.26533">
        <ele>247.2</ele>
        <time>2025-09-30T11:43:22.325Z</time>
      </trkpt>
      <trkpt lat="43.67765" lon="2.26533">
        <ele>247.4</ele>
        <time>2025-09-30T11:43:22.815Z</time>
      </trkpt>
      <trkpt lat="43.67767" lon="2.26533">
        <ele>247.8</ele>
        <time>2025-09-30T11:43:23.793Z</time>
      </trkpt>
      <trkpt lat="43.67769" lon="2.26533">
        <ele>248</ele>
        <time>2025-09-30T11:43:24.565Z</time>
      </trkpt>
      <trkpt lat="43.67771" lon="2.26533">
        <ele>248.2</ele>
        <time>2025-09-30T11:43:25.336Z</time>
      </trkpt>
      <trkpt lat="43.67772" lon="2.26532">
        <ele>248.6</ele>
        <time>2025-09-30T11:43:25.940Z</time>
      </trkpt>
      <trkpt lat="43.67775" lon="2.26533">
        <ele>248.8</ele>
        <time>2025-09-30T11:43:26.686Z</time>
      </trkpt>
      <trkpt lat="43.67776" lon="2.26532">
        <ele>249</ele>
        <time>2025-09-30T11:43:27.290Z</time>
      </trkpt>
      <trkpt lat="43.67778" lon="2.26532">
        <ele>249.2</ele>
        <time>2025-09-30T11:43:28.061Z</time>
      </trkpt>
      <trkpt lat="43.6778" lon="2.26531">
        <ele>249.6</ele>
        <time>2025-09-30T11:43:29.102Z</time>
      </trkpt>
      <trkpt lat="43.67782" lon="2.26531">
        <ele>249.8</ele>
        <time>2025-09-30T11:43:29.873Z</time>
      </trkpt>
      <trkpt lat="43.67783" lon="2.26531">
        <ele>250</ele>
        <time>2025-09-30T11:43:30.363Z</time>
      </trkpt>
      <trkpt lat="43.67786" lon="2.26531">
        <ele>250.2</ele>
        <time>2025-09-30T11:43:31.107Z</time>
      </trkpt>
      <trkpt lat="43.67788" lon="2.2653">
        <ele>250.6</ele>
        <time>2025-09-30T11:43:32.148Z</time>
      </trkpt>
      <trkpt lat="43.67791" lon="2.2653">
        <ele>250.8</ele>
        <time>2025-09-30T11:43:32.892Z</time>
      </trkpt>
      <trkpt lat="43.67793" lon="2.26529">
        <ele>251</ele>
        <time>2025-09-30T11:43:33.654Z</time>
      </trkpt>
      <trkpt lat="43.67795" lon="2.26529">
        <ele>251.2</ele>
        <time>2025-09-30T11:43:34.425Z</time>
      </trkpt>
      <trkpt lat="43.67797" lon="2.26529">
        <ele>251.6</ele>
        <time>2025-09-30T11:43:35.404Z</time>
      </trkpt>
      <trkpt lat="43.678" lon="2.26528">
        <ele>251.8</ele>
        <time>2025-09-30T11:43:36.150Z</time>
      </trkpt>
      <trkpt lat="43.67802" lon="2.26527">
        <ele>252</ele>
        <time>2025-09-30T11:43:36.912Z</time>
      </trkpt>
      <trkpt lat="43.67805" lon="2.26527">
        <ele>252.4</ele>
        <time>2025-09-30T11:43:38.380Z</time>
      </trkpt>
      <trkpt lat="43.67807" lon="2.26526">
        <ele>252.6</ele>
        <time>2025-09-30T11:43:39.142Z</time>
      </trkpt>
      <trkpt lat="43.67809" lon="2.26525">
        <ele>253</ele>
        <time>2025-09-30T11:43:40.183Z</time>
      </trkpt>
      <trkpt lat="43.67811" lon="2.26525">
        <ele>253.2</ele>
        <time>2025-09-30T11:43:40.954Z</time>
      </trkpt>
      <trkpt lat="43.67812" lon="2.26524">
        <ele>253.6</ele>
        <time>2025-09-30T11:43:41.558Z</time>
      </trkpt>
      <trkpt lat="43.67814" lon="2.26523">
        <ele>253.8</ele>
        <time>2025-09-30T11:43:42.320Z</time>
      </trkpt>
      <trkpt lat="43.67816" lon="2.26522">
        <ele>254.2</ele>
        <time>2025-09-30T11:43:43.361Z</time>
      </trkpt>
      <trkpt lat="43.67818" lon="2.26522">
        <ele>254.6</ele>
        <time>2025-09-30T11:43:44.339Z</time>
      </trkpt>
      <trkpt lat="43.6782" lon="2.26521">
        <ele>254.8</ele>
        <time>2025-09-30T11:43:45.101Z</time>
      </trkpt>
      <trkpt lat="43.67822" lon="2.2652">
        <ele>255.2</ele>
        <time>2025-09-30T11:43:46.142Z</time>
      </trkpt>
      <trkpt lat="43.67824" lon="2.26519">
        <ele>255.6</ele>
        <time>2025-09-30T11:43:47.183Z</time>
      </trkpt>
      <trkpt lat="43.67826" lon="2.26519">
        <ele>255.8</ele>
        <time>2025-09-30T11:43:47.954Z</time>
      </trkpt>
      <trkpt lat="43.67828" lon="2.26518">
        <ele>256.2</ele>
        <time>2025-09-30T11:43:48.995Z</time>
      </trkpt>
      <trkpt lat="43.6783" lon="2.26516">
        <ele>256.4</ele>
        <time>2025-09-30T11:43:49.739Z</time>
      </trkpt>
      <trkpt lat="43.67832" lon="2.26515">
        <ele>256.8</ele>
        <time>2025-09-30T11:43:50.780Z</time>
      </trkpt>
      <trkpt lat="43.67833" lon="2.26513">
        <ele>257</ele>
        <time>2025-09-30T11:43:51.562Z</time>
      </trkpt>
      <trkpt lat="43.67836" lon="2.26512">
        <ele>257.2</ele>
        <time>2025-09-30T11:43:52.309Z</time>
      </trkpt>
      <trkpt lat="43.67838" lon="2.26512">
        <ele>257.4</ele>
        <time>2025-09-30T11:43:53.080Z</time>
      </trkpt>
      <trkpt lat="43.6784" lon="2.26511">
        <ele>257.6</ele>
        <time>2025-09-30T11:43:53.842Z</time>
      </trkpt>
      <trkpt lat="43.67842" lon="2.26511">
        <ele>257.8</ele>
        <time>2025-09-30T11:43:54.613Z</time>
      </trkpt>
      <trkpt lat="43.67845" lon="2.26511">
        <ele>258</ele>
        <time>2025-09-30T11:43:55.357Z</time>
      </trkpt>
      <trkpt lat="43.67847" lon="2.26511">
        <ele>258</ele>
        <time>2025-09-30T11:43:55.586Z</time>
      </trkpt>
      <trkpt lat="43.67849" lon="2.26511">
        <ele>258.2</ele>
        <time>2025-09-30T11:43:56.357Z</time>
      </trkpt>
      <trkpt lat="43.67852" lon="2.26511">
        <ele>258.4</ele>
        <time>2025-09-30T11:43:57.101Z</time>
      </trkpt>
      <trkpt lat="43.67854" lon="2.26511">
        <ele>258.6</ele>
        <time>2025-09-30T11:43:57.872Z</time>
      </trkpt>
      <trkpt lat="43.67857" lon="2.2651">
        <ele>258.8</ele>
        <time>2025-09-30T11:43:58.619Z</time>
      </trkpt>
      <trkpt lat="43.67859" lon="2.2651">
        <ele>259</ele>
        <time>2025-09-30T11:43:59.390Z</time>
      </trkpt>
      <trkpt lat="43.67862" lon="2.2651">
        <ele>259.2</ele>
        <time>2025-09-30T11:44:00.134Z</time>
      </trkpt>
      <trkpt lat="43.67865" lon="2.26509">
        <ele>259.4</ele>
        <time>2025-09-30T11:44:00.880Z</time>
      </trkpt>
      <trkpt lat="43.67868" lon="2.26509">
        <ele>259.6</ele>
        <time>2025-09-30T11:44:01.625Z</time>
      </trkpt>
      <trkpt lat="43.67871" lon="2.26508">
        <ele>259.8</ele>
        <time>2025-09-30T11:44:02.371Z</time>
      </trkpt>
      <trkpt lat="43.67874" lon="2.26508">
        <ele>260</ele>
        <time>2025-09-30T11:44:03.115Z</time>
      </trkpt>
      <trkpt lat="43.67877" lon="2.26507">
        <ele>260.2</ele>
        <time>2025-09-30T11:44:03.862Z</time>
      </trkpt>
      <trkpt lat="43.6788" lon="2.26507">
        <ele>260.4</ele>
        <time>2025-09-30T11:44:04.606Z</time>
      </trkpt>
      <trkpt lat="43.67883" lon="2.26508">
        <ele>260.6</ele>
        <time>2025-09-30T11:44:05.352Z</time>
      </trkpt>
      <trkpt lat="43.67886" lon="2.26508">
        <ele>260.8</ele>
        <time>2025-09-30T11:44:06.097Z</time>
      </trkpt>
      <trkpt lat="43.67888" lon="2.26508">
        <ele>261</ele>
        <time>2025-09-30T11:44:06.868Z</time>
      </trkpt>
      <trkpt lat="43.6789" lon="2.26508">
        <ele>261.2</ele>
        <time>2025-09-30T11:44:07.639Z</time>
      </trkpt>
      <trkpt lat="43.67892" lon="2.26509">
        <ele>261.4</ele>
        <time>2025-09-30T11:44:08.401Z</time>
      </trkpt>
      <trkpt lat="43.67895" lon="2.26509">
        <ele>261.6</ele>
        <time>2025-09-30T11:44:09.145Z</time>
      </trkpt>
      <trkpt lat="43.67898" lon="2.2651">
        <ele>262</ele>
        <time>2025-09-30T11:44:10.647Z</time>
      </trkpt>
      <trkpt lat="43.679" lon="2.26511">
        <ele>262.2</ele>
        <time>2025-09-30T11:44:11.409Z</time>
      </trkpt>
      <trkpt lat="43.67902" lon="2.26513">
        <ele>262.6</ele>
        <time>2025-09-30T11:44:12.617Z</time>
      </trkpt>
      <trkpt lat="43.67904" lon="2.26514">
        <ele>262.8</ele>
        <time>2025-09-30T11:44:13.379Z</time>
      </trkpt>
      <trkpt lat="43.67906" lon="2.26515">
        <ele>263.2</ele>
        <time>2025-09-30T11:44:14.420Z</time>
      </trkpt>
      <trkpt lat="43.67908" lon="2.26517">
        <ele>263.6</ele>
        <time>2025-09-30T11:44:15.627Z</time>
      </trkpt>
      <trkpt lat="43.67911" lon="2.26518">
        <ele>263.8</ele>
        <time>2025-09-30T11:44:16.374Z</time>
      </trkpt>
      <trkpt lat="43.67913" lon="2.2652">
        <ele>264.2</ele>
        <time>2025-09-30T11:44:17.582Z</time>
      </trkpt>
      <trkpt lat="43.67916" lon="2.26521">
        <ele>264.4</ele>
        <time>2025-09-30T11:44:18.329Z</time>
      </trkpt>
      <trkpt lat="43.67918" lon="2.26522">
        <ele>264.8</ele>
        <time>2025-09-30T11:44:19.369Z</time>
      </trkpt>
      <trkpt lat="43.6792" lon="2.26523">
        <ele>265</ele>
        <time>2025-09-30T11:44:20.131Z</time>
      </trkpt>
      <trkpt lat="43.67922" lon="2.26524">
        <ele>265.4</ele>
        <time>2025-09-30T11:44:21.172Z</time>
      </trkpt>
      <trkpt lat="43.67924" lon="2.26525">
        <ele>265.6</ele>
        <time>2025-09-30T11:44:21.934Z</time>
      </trkpt>
      <trkpt lat="43.67926" lon="2.26526">
        <ele>266</ele>
        <time>2025-09-30T11:44:22.975Z</time>
      </trkpt>
      <trkpt lat="43.67928" lon="2.26528">
        <ele>266.2</ele>
        <time>2025-09-30T11:44:23.719Z</time>
      </trkpt>
      <trkpt lat="43.67931" lon="2.26529">
        <ele>266.4</ele>
        <time>2025-09-30T11:44:24.466Z</time>
      </trkpt>
      <trkpt lat="43.67934" lon="2.2653">
        <ele>266.6</ele>
        <time>2025-09-30T11:44:25.212Z</time>
      </trkpt>
      <trkpt lat="43.67936" lon="2.26532">
        <ele>266.8</ele>
        <time>2025-09-30T11:44:25.957Z</time>
      </trkpt>
      <trkpt lat="43.67939" lon="2.26534">
        <ele>267</ele>
        <time>2025-09-30T11:44:26.713Z</time>
      </trkpt>
      <trkpt lat="43.67941" lon="2.26536">
        <ele>267.2</ele>
        <time>2025-09-30T11:44:27.457Z</time>
      </trkpt>
      <trkpt lat="43.67943" lon="2.26538">
        <ele>267.4</ele>
        <time>2025-09-30T11:44:28.201Z</time>
      </trkpt>
      <trkpt lat="43.67944" lon="2.2654">
        <ele>267.4</ele>
        <time>2025-09-30T11:44:28.402Z</time>
      </trkpt>
      <trkpt lat="43.67945" lon="2.26541">
        <ele>267.6</ele>
        <time>2025-09-30T11:44:29.006Z</time>
      </trkpt>
      <trkpt lat="43.67946" lon="2.26543">
        <ele>267.6</ele>
        <time>2025-09-30T11:44:29.207Z</time>
      </trkpt>
      <trkpt lat="43.67948" lon="2.26544">
        <ele>267.8</ele>
        <time>2025-09-30T11:44:29.969Z</time>
      </trkpt>
      <trkpt lat="43.67953" lon="2.26548">
        <ele>268</ele>
        <time>2025-09-30T11:44:30.922Z</time>
      </trkpt>
      <trkpt lat="43.67956" lon="2.26549">
        <ele>268</ele>
        <time>2025-09-30T11:44:31.274Z</time>
      </trkpt>
      <trkpt lat="43.67957" lon="2.2655">
        <ele>268</ele>
        <time>2025-09-30T11:44:31.415Z</time>
      </trkpt>
      <trkpt lat="43.67959" lon="2.26552">
        <ele>267.8</ele>
        <time>2025-09-30T11:44:31.584Z</time>
      </trkpt>
      <trkpt lat="43.67961" lon="2.26554">
        <ele>267.8</ele>
        <time>2025-09-30T11:44:31.866Z</time>
      </trkpt>
      <trkpt lat="43.67962" lon="2.26556">
        <ele>267.8</ele>
        <time>2025-09-30T11:44:32.067Z</time>
      </trkpt>
      <trkpt lat="43.67965" lon="2.26558">
        <ele>267.8</ele>
        <time>2025-09-30T11:44:32.447Z</time>
      </trkpt>
      <trkpt lat="43.67967" lon="2.26561">
        <ele>267.8</ele>
        <time>2025-09-30T11:44:32.784Z</time>
      </trkpt>
      <trkpt lat="43.67968" lon="2.26565">
        <ele>267.8</ele>
        <time>2025-09-30T11:44:33.134Z</time>
      </trkpt>
      <trkpt lat="43.6797" lon="2.26569">
        <ele>267.6</ele>
        <time>2025-09-30T11:44:33.390Z</time>
      </trkpt>
      <trkpt lat="43.67972" lon="2.26573">
        <ele>267.6</ele>
        <time>2025-09-30T11:44:33.791Z</time>
      </trkpt>
      <trkpt lat="43.67974" lon="2.26578">
        <ele>267.4</ele>
        <time>2025-09-30T11:44:34.110Z</time>
      </trkpt>
      <trkpt lat="43.67976" lon="2.26582">
        <ele>267.2</ele>
        <time>2025-09-30T11:44:34.366Z</time>
      </trkpt>
      <trkpt lat="43.67978" lon="2.26587">
        <ele>267</ele>
        <time>2025-09-30T11:44:34.685Z</time>
      </trkpt>
      <trkpt lat="43.6798" lon="2.26592">
        <ele>266.8</ele>
        <time>2025-09-30T11:44:35.003Z</time>
      </trkpt>
      <trkpt lat="43.67982" lon="2.26597">
        <ele>266.8</ele>
        <time>2025-09-30T11:44:35.475Z</time>
      </trkpt>
      <trkpt lat="43.67984" lon="2.26603">
        <ele>266.6</ele>
        <time>2025-09-30T11:44:35.860Z</time>
      </trkpt>
      <trkpt lat="43.67986" lon="2.26608">
        <ele>266.4</ele>
        <time>2025-09-30T11:44:36.179Z</time>
      </trkpt>
      <trkpt lat="43.67989" lon="2.26614">
        <ele>266.2</ele>
        <time>2025-09-30T11:44:36.617Z</time>
      </trkpt>
      <trkpt lat="43.67991" lon="2.26619">
        <ele>265.8</ele>
        <time>2025-09-30T11:44:36.900Z</time>
      </trkpt>
      <trkpt lat="43.67995" lon="2.26623">
        <ele>265.6</ele>
        <time>2025-09-30T11:44:37.302Z</time>
      </trkpt>
      <trkpt lat="43.67999" lon="2.26626">
        <ele>265.4</ele>
        <time>2025-09-30T11:44:37.664Z</time>
      </trkpt>
      <trkpt lat="43.68002" lon="2.26627">
        <ele>265.2</ele>
        <time>2025-09-30T11:44:37.878Z</time>
      </trkpt>
      <trkpt lat="43.68006" lon="2.26627">
        <ele>265.2</ele>
        <time>2025-09-30T11:44:38.335Z</time>
      </trkpt>
      <trkpt lat="43.6801" lon="2.26625">
        <ele>265.2</ele>
        <time>2025-09-30T11:44:38.820Z</time>
      </trkpt>
      <trkpt lat="43.68013" lon="2.26623">
        <ele>265.2</ele>
        <time>2025-09-30T11:44:39.201Z</time>
      </trkpt>
      <trkpt lat="43.68016" lon="2.2662">
        <ele>265.2</ele>
        <time>2025-09-30T11:44:39.623Z</time>
      </trkpt>
      <trkpt lat="43.68018" lon="2.26617">
        <ele>265.4</ele>
        <time>2025-09-30T11:44:40.366Z</time>
      </trkpt>
      <trkpt lat="43.68021" lon="2.26614">
        <ele>265.4</ele>
        <time>2025-09-30T11:44:40.789Z</time>
      </trkpt>
      <trkpt lat="43.68022" lon="2.26612">
        <ele>265.6</ele>
        <time>2025-09-30T11:44:41.572Z</time>
      </trkpt>
      <trkpt lat="43.68024" lon="2.26611">
        <ele>265.6</ele>
        <time>2025-09-30T11:44:41.814Z</time>
      </trkpt>
      <trkpt lat="43.68026" lon="2.26609">
        <ele>265.8</ele>
        <time>2025-09-30T11:44:42.559Z</time>
      </trkpt>
      <trkpt lat="43.68028" lon="2.26608">
        <ele>266</ele>
        <time>2025-09-30T11:44:43.321Z</time>
      </trkpt>
      <trkpt lat="43.6803" lon="2.26607">
        <ele>266</ele>
        <time>2025-09-30T11:44:43.563Z</time>
      </trkpt>
      <trkpt lat="43.68031" lon="2.26607">
        <ele>266.2</ele>
        <time>2025-09-30T11:44:44.053Z</time>
      </trkpt>
      <trkpt lat="43.68033" lon="2.26608">
        <ele>266.4</ele>
        <time>2025-09-30T11:44:44.815Z</time>
      </trkpt>
      <trkpt lat="43.68034" lon="2.2661">
        <ele>266.6</ele>
        <time>2025-09-30T11:44:45.597Z</time>
      </trkpt>
      <trkpt lat="43.68035" lon="2.26612">
        <ele>266.8</ele>
        <time>2025-09-30T11:44:46.379Z</time>
      </trkpt>
      <trkpt lat="43.68036" lon="2.26614">
        <ele>267.2</ele>
        <time>2025-09-30T11:44:47.240Z</time>
      </trkpt>
      <trkpt lat="43.68037" lon="2.26616">
        <ele>267.6</ele>
        <time>2025-09-30T11:44:48.101Z</time>
      </trkpt>
      <trkpt lat="43.68037" lon="2.26617">
        <ele>268</ele>
        <time>2025-09-30T11:44:48.455Z</time>
      </trkpt>
      <trkpt lat="43.68038" lon="2.26619">
        <ele>268.4</ele>
        <time>2025-09-30T11:44:49.315Z</time>
      </trkpt>
      <trkpt lat="43.68049" lon="2.26637">
        <ele>271</ele>
        <time>2025-09-30T11:44:57.656Z</time>
      </trkpt>
      <trkpt lat="43.6805" lon="2.26639">
        <ele>270.8</ele>
        <time>2025-09-30T11:44:57.776Z</time>
      </trkpt>
      <trkpt lat="43.68051" lon="2.26641">
        <ele>271</ele>
        <time>2025-09-30T11:44:58.559Z</time>
      </trkpt>
      <trkpt lat="43.68051" lon="2.26642">
        <ele>271</ele>
        <time>2025-09-30T11:44:58.641Z</time>
      </trkpt>
      <trkpt lat="43.68052" lon="2.26644">
        <ele>271.2</ele>
        <time>2025-09-30T11:44:59.424Z</time>
      </trkpt>
      <trkpt lat="43.68052" lon="2.26645">
        <ele>271.4</ele>
        <time>2025-09-30T11:44:59.778Z</time>
      </trkpt>
      <trkpt lat="43.68053" lon="2.26646">
        <ele>271.6</ele>
        <time>2025-09-30T11:45:00.381Z</time>
      </trkpt>
      <trkpt lat="43.68053" lon="2.26648">
        <ele>271.8</ele>
        <time>2025-09-30T11:45:01.089Z</time>
      </trkpt>
      <trkpt lat="43.68053" lon="2.2665">
        <ele>272.2</ele>
        <time>2025-09-30T11:45:01.797Z</time>
      </trkpt>
      <trkpt lat="43.68053" lon="2.26652">
        <ele>272.4</ele>
        <time>2025-09-30T11:45:02.505Z</time>
      </trkpt>
      <trkpt lat="43.68053" lon="2.26654">
        <ele>272.8</ele>
        <time>2025-09-30T11:45:03.213Z</time>
      </trkpt>
      <trkpt lat="43.68053" lon="2.26655">
        <ele>273</ele>
        <time>2025-09-30T11:45:03.567Z</time>
      </trkpt>
      <trkpt lat="43.68053" lon="2.26657">
        <ele>273.4</ele>
        <time>2025-09-30T11:45:04.275Z</time>
      </trkpt>
      <trkpt lat="43.68053" lon="2.26659">
        <ele>273.8</ele>
        <time>2025-09-30T11:45:04.983Z</time>
      </trkpt>
      <trkpt lat="43.68053" lon="2.26661">
        <ele>274.2</ele>
        <time>2025-09-30T11:45:05.690Z</time>
      </trkpt>
      <trkpt lat="43.68053" lon="2.26663">
        <ele>274.6</ele>
        <time>2025-09-30T11:45:06.398Z</time>
      </trkpt>
      <trkpt lat="43.68053" lon="2.26665">
        <ele>275</ele>
        <time>2025-09-30T11:45:07.106Z</time>
      </trkpt>
      <trkpt lat="43.68053" lon="2.26667">
        <ele>275.2</ele>
        <time>2025-09-30T11:45:07.814Z</time>
      </trkpt>
      <trkpt lat="43.68053" lon="2.26668">
        <ele>275.6</ele>
        <time>2025-09-30T11:45:08.168Z</time>
      </trkpt>
      <trkpt lat="43.68054" lon="2.26671">
        <ele>276</ele>
        <time>2025-09-30T11:45:09.337Z</time>
      </trkpt>
      <trkpt lat="43.68054" lon="2.26673">
        <ele>276.4</ele>
        <time>2025-09-30T11:45:10.045Z</time>
      </trkpt>
      <trkpt lat="43.68054" lon="2.26676">
        <ele>276.8</ele>
        <time>2025-09-30T11:45:11.107Z</time>
      </trkpt>
      <trkpt lat="43.68054" lon="2.26678">
        <ele>277.2</ele>
        <time>2025-09-30T11:45:11.815Z</time>
      </trkpt>
      <trkpt lat="43.68054" lon="2.2668">
        <ele>277.6</ele>
        <time>2025-09-30T11:45:12.523Z</time>
      </trkpt>
      <trkpt lat="43.68055" lon="2.26682">
        <ele>278</ele>
        <time>2025-09-30T11:45:13.383Z</time>
      </trkpt>
      <trkpt lat="43.68055" lon="2.26684">
        <ele>278.4</ele>
        <time>2025-09-30T11:45:14.091Z</time>
      </trkpt>
      <trkpt lat="43.68055" lon="2.26686">
        <ele>278.6</ele>
        <time>2025-09-30T11:45:14.799Z</time>
      </trkpt>
      <trkpt lat="43.68055" lon="2.26688">
        <ele>279</ele>
        <time>2025-09-30T11:45:15.507Z</time>
      </trkpt>
      <trkpt lat="43.68055" lon="2.2669">
        <ele>279.4</ele>
        <time>2025-09-30T11:45:16.215Z</time>
      </trkpt>
      <trkpt lat="43.68055" lon="2.26692">
        <ele>279.8</ele>
        <time>2025-09-30T11:45:16.922Z</time>
      </trkpt>
      <trkpt lat="43.68055" lon="2.26694">
        <ele>280.2</ele>
        <time>2025-09-30T11:45:17.630Z</time>
      </trkpt>
      <trkpt lat="43.68055" lon="2.26696">
        <ele>280.6</ele>
        <time>2025-09-30T11:45:18.338Z</time>
      </trkpt>
      <trkpt lat="43.68055" lon="2.26697">
        <ele>281</ele>
        <time>2025-09-30T11:45:18.692Z</time>
      </trkpt>
      <trkpt lat="43.68055" lon="2.26699">
        <ele>281.4</ele>
        <time>2025-09-30T11:45:19.400Z</time>
      </trkpt>
      <trkpt lat="43.68055" lon="2.26701">
        <ele>281.8</ele>
        <time>2025-09-30T11:45:20.108Z</time>
      </trkpt>
      <trkpt lat="43.68055" lon="2.26703">
        <ele>282.4</ele>
        <time>2025-09-30T11:45:20.816Z</time>
      </trkpt>
      <trkpt lat="43.68055" lon="2.26705">
        <ele>282.8</ele>
        <time>2025-09-30T11:45:21.524Z</time>
      </trkpt>
      <trkpt lat="43.68055" lon="2.26707">
        <ele>283.2</ele>
        <time>2025-09-30T11:45:22.231Z</time>
      </trkpt>
      <trkpt lat="43.68055" lon="2.26709">
        <ele>283.8</ele>
        <time>2025-09-30T11:45:22.939Z</time>
      </trkpt>
      <trkpt lat="43.68055" lon="2.26711">
        <ele>284.2</ele>
        <time>2025-09-30T11:45:23.647Z</time>
      </trkpt>
      <trkpt lat="43.68055" lon="2.26713">
        <ele>284.8</ele>
        <time>2025-09-30T11:45:24.355Z</time>
      </trkpt>
      <trkpt lat="43.68055" lon="2.26715">
        <ele>285.2</ele>
        <time>2025-09-30T11:45:25.063Z</time>
      </trkpt>
      <trkpt lat="43.68055" lon="2.26717">
        <ele>285.8</ele>
        <time>2025-09-30T11:45:25.771Z</time>
      </trkpt>
      <trkpt lat="43.68056" lon="2.26719">
        <ele>286.2</ele>
        <time>2025-09-30T11:45:26.631Z</time>
      </trkpt>
      <trkpt lat="43.68056" lon="2.26721">
        <ele>286.6</ele>
        <time>2025-09-30T11:45:27.339Z</time>
      </trkpt>
      <trkpt lat="43.68057" lon="2.26723">
        <ele>287</ele>
        <time>2025-09-30T11:45:28.200Z</time>
      </trkpt>
      <trkpt lat="43.68058" lon="2.26724">
        <ele>287.4</ele>
        <time>2025-09-30T11:45:28.804Z</time>
      </trkpt>
      <trkpt lat="43.68059" lon="2.26726">
        <ele>287.8</ele>
        <time>2025-09-30T11:45:29.664Z</time>
      </trkpt>
      <trkpt lat="43.6806" lon="2.26726">
        <ele>288.2</ele>
        <time>2025-09-30T11:45:30.154Z</time>
      </trkpt>
      <trkpt lat="43.68061" lon="2.26727">
        <ele>288.4</ele>
        <time>2025-09-30T11:45:30.758Z</time>
      </trkpt>
      <trkpt lat="43.68062" lon="2.26728">
        <ele>288.8</ele>
        <time>2025-09-30T11:45:31.362Z</time>
      </trkpt>
      <trkpt lat="43.68063" lon="2.26728">
        <ele>289</ele>
        <time>2025-09-30T11:45:31.851Z</time>
      </trkpt>
      <trkpt lat="43.68065" lon="2.26728">
        <ele>289.2</ele>
        <time>2025-09-30T11:45:32.622Z</time>
      </trkpt>
      <trkpt lat="43.68067" lon="2.26729">
        <ele>289.6</ele>
        <time>2025-09-30T11:45:33.663Z</time>
      </trkpt>
      <trkpt lat="43.68068" lon="2.26728">
        <ele>289.8</ele>
        <time>2025-09-30T11:45:34.267Z</time>
      </trkpt>
      <trkpt lat="43.6807" lon="2.26728">
        <ele>290</ele>
        <time>2025-09-30T11:45:35.038Z</time>
      </trkpt>
      <trkpt lat="43.68071" lon="2.26729">
        <ele>290.2</ele>
        <time>2025-09-30T11:45:35.642Z</time>
      </trkpt>
      <trkpt lat="43.68073" lon="2.26729">
        <ele>290.4</ele>
        <time>2025-09-30T11:45:36.413Z</time>
      </trkpt>
      <trkpt lat="43.68074" lon="2.2673">
        <ele>290.4</ele>
        <time>2025-09-30T11:45:36.554Z</time>
      </trkpt>
      <trkpt lat="43.68075" lon="2.2673">
        <ele>290.6</ele>
        <time>2025-09-30T11:45:37.044Z</time>
      </trkpt>
      <trkpt lat="43.68077" lon="2.2673">
        <ele>290.8</ele>
        <time>2025-09-30T11:45:37.815Z</time>
      </trkpt>
      <trkpt lat="43.68078" lon="2.2673">
        <ele>290.8</ele>
        <time>2025-09-30T11:45:37.929Z</time>
      </trkpt>
      <trkpt lat="43.6808" lon="2.26731">
        <ele>291</ele>
        <time>2025-09-30T11:45:38.691Z</time>
      </trkpt>
      <trkpt lat="43.68082" lon="2.26732">
        <ele>291</ele>
        <time>2025-09-30T11:45:38.934Z</time>
      </trkpt>
      <trkpt lat="43.68084" lon="2.26732">
        <ele>291</ele>
        <time>2025-09-30T11:45:39.162Z</time>
      </trkpt>
      <trkpt lat="43.68087" lon="2.26733">
        <ele>291</ele>
        <time>2025-09-30T11:45:39.514Z</time>
      </trkpt>
      <trkpt lat="43.68089" lon="2.26733">
        <ele>291</ele>
        <time>2025-09-30T11:45:39.743Z</time>
      </trkpt>
      <trkpt lat="43.68091" lon="2.26732">
        <ele>291</ele>
        <time>2025-09-30T11:45:39.986Z</time>
      </trkpt>
      <trkpt lat="43.68092" lon="2.26732">
        <ele>291</ele>
        <time>2025-09-30T11:45:40.100Z</time>
      </trkpt>
      <trkpt lat="43.68093" lon="2.26732">
        <ele>290.8</ele>
        <time>2025-09-30T11:45:40.168Z</time>
      </trkpt>
      <trkpt lat="43.68094" lon="2.26732">
        <ele>290.8</ele>
        <time>2025-09-30T11:45:40.283Z</time>
      </trkpt>
      <trkpt lat="43.68095" lon="2.26732">
        <ele>290.8</ele>
        <time>2025-09-30T11:45:40.397Z</time>
      </trkpt>
      <trkpt lat="43.68098" lon="2.26732">
        <ele>290.8</ele>
        <time>2025-09-30T11:45:40.739Z</time>
      </trkpt>
      <trkpt lat="43.681" lon="2.2673">
        <ele>290.8</ele>
        <time>2025-09-30T11:45:41.021Z</time>
      </trkpt>
      <trkpt lat="43.68102" lon="2.26729">
        <ele>290.8</ele>
        <time>2025-09-30T11:45:41.264Z</time>
      </trkpt>
      <trkpt lat="43.68104" lon="2.26728">
        <ele>290.6</ele>
        <time>2025-09-30T11:45:41.410Z</time>
      </trkpt>
      <trkpt lat="43.68108" lon="2.26726">
        <ele>290.6</ele>
        <time>2025-09-30T11:45:41.896Z</time>
      </trkpt>
      <trkpt lat="43.68112" lon="2.26725">
        <ele>290.6</ele>
        <time>2025-09-30T11:45:42.360Z</time>
      </trkpt>
      <trkpt lat="43.68115" lon="2.26723">
        <ele>290.4</ele>
        <time>2025-09-30T11:45:42.597Z</time>
      </trkpt>
      <trkpt lat="43.68118" lon="2.26721">
        <ele>290.4</ele>
        <time>2025-09-30T11:45:42.978Z</time>
      </trkpt>
      <trkpt lat="43.68123" lon="2.26719">
        <ele>290.2</ele>
        <time>2025-09-30T11:45:43.408Z</time>
      </trkpt>
      <trkpt lat="43.68127" lon="2.26716">
        <ele>290</ele>
        <time>2025-09-30T11:45:43.770Z</time>
      </trkpt>
      <trkpt lat="43.68132" lon="2.26714">
        <ele>289.8</ele>
        <time>2025-09-30T11:45:44.201Z</time>
      </trkpt>
      <trkpt lat="43.68137" lon="2.26712">
        <ele>289.6</ele>
        <time>2025-09-30T11:45:44.631Z</time>
      </trkpt>
      <trkpt lat="43.68143" lon="2.26709">
        <ele>289.4</ele>
        <time>2025-09-30T11:45:45.188Z</time>
      </trkpt>
      <trkpt lat="43.68148" lon="2.26706">
        <ele>289.2</ele>
        <time>2025-09-30T11:45:45.645Z</time>
      </trkpt>
      <trkpt lat="43.68155" lon="2.26703">
        <ele>289</ele>
        <time>2025-09-30T11:45:46.305Z</time>
      </trkpt>
      <trkpt lat="43.68161" lon="2.26699">
        <ele>288.6</ele>
        <time>2025-09-30T11:45:46.780Z</time>
      </trkpt>
      <trkpt lat="43.68168" lon="2.26695">
        <ele>288.2</ele>
        <time>2025-09-30T11:45:47.347Z</time>
      </trkpt>
      <trkpt lat="43.68175" lon="2.26692">
        <ele>287.8</ele>
        <time>2025-09-30T11:45:47.889Z</time>
      </trkpt>
      <trkpt lat="43.68182" lon="2.26688">
        <ele>287.4</ele>
        <time>2025-09-30T11:45:48.455Z</time>
      </trkpt>
      <trkpt lat="43.68189" lon="2.26684">
        <ele>287</ele>
        <time>2025-09-30T11:45:49.022Z</time>
      </trkpt>
      <trkpt lat="43.68197" lon="2.26679">
        <ele>286.6</ele>
        <time>2025-09-30T11:45:49.712Z</time>
      </trkpt>
      <trkpt lat="43.68205" lon="2.26675">
        <ele>286.2</ele>
        <time>2025-09-30T11:45:50.374Z</time>
      </trkpt>
      <trkpt lat="43.68213" lon="2.2667">
        <ele>285.8</ele>
        <time>2025-09-30T11:45:51.064Z</time>
      </trkpt>
      <trkpt lat="43.68221" lon="2.26666">
        <ele>285.4</ele>
        <time>2025-09-30T11:45:51.726Z</time>
      </trkpt>
      <trkpt lat="43.68229" lon="2.26662">
        <ele>285</ele>
        <time>2025-09-30T11:45:52.387Z</time>
      </trkpt>
      <trkpt lat="43.68237" lon="2.26659">
        <ele>284.6</ele>
        <time>2025-09-30T11:45:53.027Z</time>
      </trkpt>
      <trkpt lat="43.68244" lon="2.26655">
        <ele>284.2</ele>
        <time>2025-09-30T11:45:53.594Z</time>
      </trkpt>
      <trkpt lat="43.68251" lon="2.26653">
        <ele>283.8</ele>
        <time>2025-09-30T11:45:54.117Z</time>
      </trkpt>
      <trkpt lat="43.68259" lon="2.26651">
        <ele>283.6</ele>
        <time>2025-09-30T11:45:54.865Z</time>
      </trkpt>
      <trkpt lat="43.68266" lon="2.26651">
        <ele>283.4</ele>
        <time>2025-09-30T11:45:55.490Z</time>
      </trkpt>
      <trkpt lat="43.68273" lon="2.26651">
        <ele>283.4</ele>
        <time>2025-09-30T11:45:56.289Z</time>
      </trkpt>
      <trkpt lat="43.6828" lon="2.26652">
        <ele>283.4</ele>
        <time>2025-09-30T11:45:57.092Z</time>
      </trkpt>
      <trkpt lat="43.68286" lon="2.26655">
        <ele>283.4</ele>
        <time>2025-09-30T11:45:57.821Z</time>
      </trkpt>
      <trkpt lat="43.68291" lon="2.26658">
        <ele>283.6</ele>
        <time>2025-09-30T11:45:58.743Z</time>
      </trkpt>
      <trkpt lat="43.68296" lon="2.26662">
        <ele>283.6</ele>
        <time>2025-09-30T11:45:59.402Z</time>
      </trkpt>
      <trkpt lat="43.68301" lon="2.26665">
        <ele>283.8</ele>
        <time>2025-09-30T11:46:00.324Z</time>
      </trkpt>
      <trkpt lat="43.68306" lon="2.26669">
        <ele>283.8</ele>
        <time>2025-09-30T11:46:00.983Z</time>
      </trkpt>
      <trkpt lat="43.68311" lon="2.26674">
        <ele>284</ele>
        <time>2025-09-30T11:46:01.975Z</time>
      </trkpt>
      <trkpt lat="43.68315" lon="2.26678">
        <ele>284</ele>
        <time>2025-09-30T11:46:02.539Z</time>
      </trkpt>
      <trkpt lat="43.68319" lon="2.26681">
        <ele>284.2</ele>
        <time>2025-09-30T11:46:03.379Z</time>
      </trkpt>
      <trkpt lat="43.68324" lon="2.26684">
        <ele>284.4</ele>
        <time>2025-09-30T11:46:04.301Z</time>
      </trkpt>
      <trkpt lat="43.68327" lon="2.26688">
        <ele>284.6</ele>
        <time>2025-09-30T11:46:05.110Z</time>
      </trkpt>
      <trkpt lat="43.68331" lon="2.2669">
        <ele>284.8</ele>
        <time>2025-09-30T11:46:05.926Z</time>
      </trkpt>
      <trkpt lat="43.68335" lon="2.26692">
        <ele>285</ele>
        <time>2025-09-30T11:46:06.742Z</time>
      </trkpt>
      <trkpt lat="43.68339" lon="2.26694">
        <ele>285.4</ele>
        <time>2025-09-30T11:46:08.266Z</time>
      </trkpt>
      <trkpt lat="43.68343" lon="2.26696">
        <ele>285.6</ele>
        <time>2025-09-30T11:46:09.082Z</time>
      </trkpt>
      <trkpt lat="43.68346" lon="2.26698">
        <ele>286</ele>
        <time>2025-09-30T11:46:10.636Z</time>
      </trkpt>
      <trkpt lat="43.6835" lon="2.267">
        <ele>286.2</ele>
        <time>2025-09-30T11:46:11.452Z</time>
      </trkpt>
      <trkpt lat="43.68353" lon="2.26702">
        <ele>286.8</ele>
        <time>2025-09-30T11:46:13.082Z</time>
      </trkpt>
      <trkpt lat="43.68357" lon="2.26703">
        <ele>287.2</ele>
        <time>2025-09-30T11:46:14.620Z</time>
      </trkpt>
      <trkpt lat="43.68361" lon="2.26705">
        <ele>287.6</ele>
        <time>2025-09-30T11:46:16.143Z</time>
      </trkpt>
      <trkpt lat="43.68364" lon="2.26707">
        <ele>288</ele>
        <time>2025-09-30T11:46:17.698Z</time>
      </trkpt>
      <trkpt lat="43.68368" lon="2.26709">
        <ele>288.6</ele>
        <time>2025-09-30T11:46:19.779Z</time>
      </trkpt>
      <trkpt lat="43.68371" lon="2.26712">
        <ele>289</ele>
        <time>2025-09-30T11:46:21.340Z</time>
      </trkpt>
      <trkpt lat="43.68375" lon="2.26714">
        <ele>289.6</ele>
        <time>2025-09-30T11:46:23.422Z</time>
      </trkpt>
      <trkpt lat="43.68378" lon="2.26716">
        <ele>290</ele>
        <time>2025-09-30T11:46:24.976Z</time>
      </trkpt>
      <trkpt lat="43.68381" lon="2.26719">
        <ele>290.4</ele>
        <time>2025-09-30T11:46:26.537Z</time>
      </trkpt>
      <trkpt lat="43.68384" lon="2.26722">
        <ele>291</ele>
        <time>2025-09-30T11:46:28.349Z</time>
      </trkpt>
      <trkpt lat="43.68387" lon="2.26724">
        <ele>291.4</ele>
        <time>2025-09-30T11:46:29.904Z</time>
      </trkpt>
      <trkpt lat="43.6839" lon="2.26726">
        <ele>291.6</ele>
        <time>2025-09-30T11:46:30.660Z</time>
      </trkpt>
      <trkpt lat="43.68393" lon="2.26728">
        <ele>292</ele>
        <time>2025-09-30T11:46:32.214Z</time>
      </trkpt>
      <trkpt lat="43.68395" lon="2.2673">
        <ele>292.2</ele>
        <time>2025-09-30T11:46:32.958Z</time>
      </trkpt>
      <trkpt lat="43.68397" lon="2.26732">
        <ele>292.2</ele>
        <time>2025-09-30T11:46:33.240Z</time>
      </trkpt>
      <trkpt lat="43.684" lon="2.26733">
        <ele>292.4</ele>
        <time>2025-09-30T11:46:33.987Z</time>
      </trkpt>
      <trkpt lat="43.68402" lon="2.26735">
        <ele>292.6</ele>
        <time>2025-09-30T11:46:34.731Z</time>
      </trkpt>
      <trkpt lat="43.68405" lon="2.26735">
        <ele>292.6</ele>
        <time>2025-09-30T11:46:35.074Z</time>
      </trkpt>
      <trkpt lat="43.68407" lon="2.26735">
        <ele>292.6</ele>
        <time>2025-09-30T11:46:35.302Z</time>
      </trkpt>
      <trkpt lat="43.68409" lon="2.26733">
        <ele>292.8</ele>
        <time>2025-09-30T11:46:36.046Z</time>
      </trkpt>
      <trkpt lat="43.6841" lon="2.26731">
        <ele>292.8</ele>
        <time>2025-09-30T11:46:36.247Z</time>
      </trkpt>
      <trkpt lat="43.68412" lon="2.26728">
        <ele>292.8</ele>
        <time>2025-09-30T11:46:36.584Z</time>
      </trkpt>
      <trkpt lat="43.68413" lon="2.26725">
        <ele>292.8</ele>
        <time>2025-09-30T11:46:36.857Z</time>
      </trkpt>
      <trkpt lat="43.68414" lon="2.26721">
        <ele>292.8</ele>
        <time>2025-09-30T11:46:37.206Z</time>
      </trkpt>
      <trkpt lat="43.68415" lon="2.26718">
        <ele>292.8</ele>
        <time>2025-09-30T11:46:37.479Z</time>
      </trkpt>
      <trkpt lat="43.68416" lon="2.26715">
        <ele>292.8</ele>
        <time>2025-09-30T11:46:37.752Z</time>
      </trkpt>
      <trkpt lat="43.68418" lon="2.26711">
        <ele>292.8</ele>
        <time>2025-09-30T11:46:38.154Z</time>
      </trkpt>
      <trkpt lat="43.68419" lon="2.26707">
        <ele>292.8</ele>
        <time>2025-09-30T11:46:38.503Z</time>
      </trkpt>
      <trkpt lat="43.68421" lon="2.26703">
        <ele>292.6</ele>
        <time>2025-09-30T11:46:38.759Z</time>
      </trkpt>
      <trkpt lat="43.68422" lon="2.26699">
        <ele>292.6</ele>
        <time>2025-09-30T11:46:39.109Z</time>
      </trkpt>
      <trkpt lat="43.68424" lon="2.26695">
        <ele>292.4</ele>
        <time>2025-09-30T11:46:39.365Z</time>
      </trkpt>
      <trkpt lat="43.68426" lon="2.26691">
        <ele>292.4</ele>
        <time>2025-09-30T11:46:39.767Z</time>
      </trkpt>
      <trkpt lat="43.68427" lon="2.26686">
        <ele>292.2</ele>
        <time>2025-09-30T11:46:40.046Z</time>
      </trkpt>
      <trkpt lat="43.68429" lon="2.26681">
        <ele>292.2</ele>
        <time>2025-09-30T11:46:40.518Z</time>
      </trkpt>
      <trkpt lat="43.6843" lon="2.26676">
        <ele>292</ele>
        <time>2025-09-30T11:46:40.798Z</time>
      </trkpt>
      <trkpt lat="43.68432" lon="2.26671">
        <ele>291.8</ele>
        <time>2025-09-30T11:46:41.116Z</time>
      </trkpt>
      <trkpt lat="43.68434" lon="2.26666">
        <ele>291.6</ele>
        <time>2025-09-30T11:46:41.435Z</time>
      </trkpt>
      <trkpt lat="43.68436" lon="2.26661">
        <ele>291.4</ele>
        <time>2025-09-30T11:46:41.753Z</time>
      </trkpt>
      <trkpt lat="43.68438" lon="2.26656">
        <ele>291.4</ele>
        <time>2025-09-30T11:46:42.225Z</time>
      </trkpt>
      <trkpt lat="43.6844" lon="2.26651">
        <ele>291.2</ele>
        <time>2025-09-30T11:46:42.544Z</time>
      </trkpt>
      <trkpt lat="43.68442" lon="2.26645">
        <ele>291</ele>
        <time>2025-09-30T11:46:42.929Z</time>
      </trkpt>
      <trkpt lat="43.68444" lon="2.26639">
        <ele>290.8</ele>
        <time>2025-09-30T11:46:43.315Z</time>
      </trkpt>
      <trkpt lat="43.68446" lon="2.26633">
        <ele>290.6</ele>
        <time>2025-09-30T11:46:43.700Z</time>
      </trkpt>
      <trkpt lat="43.68447" lon="2.26628">
        <ele>290.4</ele>
        <time>2025-09-30T11:46:43.980Z</time>
      </trkpt>
      <trkpt lat="43.68448" lon="2.26623">
        <ele>290.2</ele>
        <time>2025-09-30T11:46:44.259Z</time>
      </trkpt>
      <trkpt lat="43.6845" lon="2.26618">
        <ele>290</ele>
        <time>2025-09-30T11:46:44.578Z</time>
      </trkpt>
      <trkpt lat="43.68451" lon="2.26614">
        <ele>290</ele>
        <time>2025-09-30T11:46:44.927Z</time>
      </trkpt>
      <trkpt lat="43.68452" lon="2.26609">
        <ele>289.8</ele>
        <time>2025-09-30T11:46:45.207Z</time>
      </trkpt>
      <trkpt lat="43.68454" lon="2.26604">
        <ele>289.6</ele>
        <time>2025-09-30T11:46:45.526Z</time>
      </trkpt>
      <trkpt lat="43.68456" lon="2.26599">
        <ele>289.6</ele>
        <time>2025-09-30T11:46:45.997Z</time>
      </trkpt>
      <trkpt lat="43.68457" lon="2.26593">
        <ele>289.4</ele>
        <time>2025-09-30T11:46:46.349Z</time>
      </trkpt>
      <trkpt lat="43.68458" lon="2.26588">
        <ele>289.2</ele>
        <time>2025-09-30T11:46:46.629Z</time>
      </trkpt>
      <trkpt lat="43.68459" lon="2.26582">
        <ele>289.2</ele>
        <time>2025-09-30T11:46:47.137Z</time>
      </trkpt>
      <trkpt lat="43.68462" lon="2.26577">
        <ele>289.2</ele>
        <time>2025-09-30T11:46:47.674Z</time>
      </trkpt>
      <trkpt lat="43.68464" lon="2.26571">
        <ele>289.2</ele>
        <time>2025-09-30T11:46:48.219Z</time>
      </trkpt>
      <trkpt lat="43.68466" lon="2.26565">
        <ele>289</ele>
        <time>2025-09-30T11:46:48.605Z</time>
      </trkpt>
      <trkpt lat="43.68467" lon="2.26559">
        <ele>289</ele>
        <time>2025-09-30T11:46:49.113Z</time>
      </trkpt>
      <trkpt lat="43.68468" lon="2.26553">
        <ele>289</ele>
        <time>2025-09-30T11:46:49.622Z</time>
      </trkpt>
      <trkpt lat="43.6847" lon="2.26547">
        <ele>288.8</ele>
        <time>2025-09-30T11:46:50.007Z</time>
      </trkpt>
      <trkpt lat="43.68471" lon="2.26541">
        <ele>288.8</ele>
        <time>2025-09-30T11:46:50.516Z</time>
      </trkpt>
      <trkpt lat="43.68473" lon="2.26535">
        <ele>288.6</ele>
        <time>2025-09-30T11:46:50.901Z</time>
      </trkpt>
      <trkpt lat="43.68475" lon="2.26528">
        <ele>288.6</ele>
        <time>2025-09-30T11:46:51.523Z</time>
      </trkpt>
      <trkpt lat="43.68478" lon="2.26522">
        <ele>288.6</ele>
        <time>2025-09-30T11:46:52.125Z</time>
      </trkpt>
      <trkpt lat="43.6848" lon="2.26515">
        <ele>288.4</ele>
        <time>2025-09-30T11:46:52.581Z</time>
      </trkpt>
      <trkpt lat="43.68483" lon="2.26508">
        <ele>288.4</ele>
        <time>2025-09-30T11:46:53.253Z</time>
      </trkpt>
      <trkpt lat="43.68487" lon="2.26501">
        <ele>288.2</ele>
        <time>2025-09-30T11:46:53.817Z</time>
      </trkpt>
      <trkpt lat="43.6849" lon="2.26494">
        <ele>288</ele>
        <time>2025-09-30T11:46:54.320Z</time>
      </trkpt>
      <trkpt lat="43.68494" lon="2.26487">
        <ele>287.8</ele>
        <time>2025-09-30T11:46:54.885Z</time>
      </trkpt>
      <trkpt lat="43.68498" lon="2.2648">
        <ele>287.6</ele>
        <time>2025-09-30T11:46:55.449Z</time>
      </trkpt>
      <trkpt lat="43.68502" lon="2.26472">
        <ele>287.2</ele>
        <time>2025-09-30T11:46:55.961Z</time>
      </trkpt>
      <trkpt lat="43.68506" lon="2.26464">
        <ele>287</ele>
        <time>2025-09-30T11:46:56.589Z</time>
      </trkpt>
      <trkpt lat="43.68509" lon="2.26456">
        <ele>286.6</ele>
        <time>2025-09-30T11:46:57.051Z</time>
      </trkpt>
      <trkpt lat="43.68514" lon="2.26447">
        <ele>286.4</ele>
        <time>2025-09-30T11:46:57.807Z</time>
      </trkpt>
      <trkpt lat="43.68518" lon="2.26439">
        <ele>286</ele>
        <time>2025-09-30T11:46:58.320Z</time>
      </trkpt>
      <trkpt lat="43.68523" lon="2.26431">
        <ele>285.8</ele>
        <time>2025-09-30T11:46:59.014Z</time>
      </trkpt>
      <trkpt lat="43.68529" lon="2.26423">
        <ele>285.4</ele>
        <time>2025-09-30T11:46:59.659Z</time>
      </trkpt>
      <trkpt lat="43.68534" lon="2.26414">
        <ele>285</ele>
        <time>2025-09-30T11:47:00.290Z</time>
      </trkpt>
      <trkpt lat="43.68539" lon="2.26405">
        <ele>284.4</ele>
        <time>2025-09-30T11:47:00.852Z</time>
      </trkpt>
      <trkpt lat="43.68545" lon="2.26396">
        <ele>284</ele>
        <time>2025-09-30T11:47:01.550Z</time>
      </trkpt>
      <trkpt lat="43.68551" lon="2.26387">
        <ele>283.4</ele>
        <time>2025-09-30T11:47:02.156Z</time>
      </trkpt>
      <trkpt lat="43.68556" lon="2.26378">
        <ele>283</ele>
        <time>2025-09-30T11:47:02.787Z</time>
      </trkpt>
      <trkpt lat="43.68561" lon="2.26368">
        <ele>282.4</ele>
        <time>2025-09-30T11:47:03.389Z</time>
      </trkpt>
      <trkpt lat="43.68567" lon="2.26358">
        <ele>281.8</ele>
        <time>2025-09-30T11:47:04.045Z</time>
      </trkpt>
      <trkpt lat="43.68573" lon="2.26349">
        <ele>281.2</ele>
        <time>2025-09-30T11:47:04.651Z</time>
      </trkpt>
      <trkpt lat="43.68578" lon="2.26339">
        <ele>280.8</ele>
        <time>2025-09-30T11:47:05.342Z</time>
      </trkpt>
      <trkpt lat="43.68582" lon="2.26329">
        <ele>280.2</ele>
        <time>2025-09-30T11:47:05.909Z</time>
      </trkpt>
      <trkpt lat="43.68586" lon="2.26319">
        <ele>279.8</ele>
        <time>2025-09-30T11:47:06.545Z</time>
      </trkpt>
      <trkpt lat="43.6859" lon="2.26308">
        <ele>279.2</ele>
        <time>2025-09-30T11:47:07.155Z</time>
      </trkpt>
      <trkpt lat="43.68593" lon="2.26297">
        <ele>278.6</ele>
        <time>2025-09-30T11:47:07.738Z</time>
      </trkpt>
      <trkpt lat="43.68595" lon="2.26286">
        <ele>277.8</ele>
        <time>2025-09-30T11:47:08.300Z</time>
      </trkpt>
      <trkpt lat="43.68597" lon="2.26277">
        <ele>277</ele>
        <time>2025-09-30T11:47:08.766Z</time>
      </trkpt>
      <trkpt lat="43.68599" lon="2.2627">
        <ele>276.2</ele>
        <time>2025-09-30T11:47:09.139Z</time>
      </trkpt>
      <trkpt lat="43.686" lon="2.26264">
        <ele>275.4</ele>
        <time>2025-09-30T11:47:09.444Z</time>
      </trkpt>
      <trkpt lat="43.68601" lon="2.26258">
        <ele>274.8</ele>
        <time>2025-09-30T11:47:09.749Z</time>
      </trkpt>
      <trkpt lat="43.68603" lon="2.26252">
        <ele>274</ele>
        <time>2025-09-30T11:47:10.077Z</time>
      </trkpt>
      <trkpt lat="43.68604" lon="2.26246">
        <ele>273.4</ele>
        <time>2025-09-30T11:47:10.382Z</time>
      </trkpt>
      <trkpt lat="43.68606" lon="2.26239">
        <ele>272.4</ele>
        <time>2025-09-30T11:47:10.755Z</time>
      </trkpt>
      <trkpt lat="43.68608" lon="2.26231">
        <ele>271.6</ele>
        <time>2025-09-30T11:47:11.174Z</time>
      </trkpt>
      <trkpt lat="43.68611" lon="2.26223">
        <ele>270.8</ele>
        <time>2025-09-30T11:47:11.621Z</time>
      </trkpt>
      <trkpt lat="43.68614" lon="2.26214">
        <ele>270</ele>
        <time>2025-09-30T11:47:12.112Z</time>
      </trkpt>
      <trkpt lat="43.68618" lon="2.26204">
        <ele>269.2</ele>
        <time>2025-09-30T11:47:12.678Z</time>
      </trkpt>
      <trkpt lat="43.68622" lon="2.26194">
        <ele>268.4</ele>
        <time>2025-09-30T11:47:13.244Z</time>
      </trkpt>
      <trkpt lat="43.68626" lon="2.26184">
        <ele>267.4</ele>
        <time>2025-09-30T11:47:13.810Z</time>
      </trkpt>
      <trkpt lat="43.68629" lon="2.26175">
        <ele>266.6</ele>
        <time>2025-09-30T11:47:14.301Z</time>
      </trkpt>
      <trkpt lat="43.68633" lon="2.26166">
        <ele>265.8</ele>
        <time>2025-09-30T11:47:14.825Z</time>
      </trkpt>
      <trkpt lat="43.68636" lon="2.26158">
        <ele>265</ele>
        <time>2025-09-30T11:47:15.271Z</time>
      </trkpt>
      <trkpt lat="43.68639" lon="2.26152">
        <ele>264.2</ele>
        <time>2025-09-30T11:47:15.633Z</time>
      </trkpt>
      <trkpt lat="43.68642" lon="2.26146">
        <ele>263.4</ele>
        <time>2025-09-30T11:47:15.994Z</time>
      </trkpt>
      <trkpt lat="43.68645" lon="2.26142">
        <ele>262.8</ele>
        <time>2025-09-30T11:47:16.280Z</time>
      </trkpt>
      <trkpt lat="43.68649" lon="2.26138">
        <ele>262</ele>
        <time>2025-09-30T11:47:16.618Z</time>
      </trkpt>
      <trkpt lat="43.68653" lon="2.26133">
        <ele>261.4</ele>
        <time>2025-09-30T11:47:16.987Z</time>
      </trkpt>
      <trkpt lat="43.68659" lon="2.26128">
        <ele>260.6</ele>
        <time>2025-09-30T11:47:17.467Z</time>
      </trkpt>
      <trkpt lat="43.68664" lon="2.26122">
        <ele>259.8</ele>
        <time>2025-09-30T11:47:17.921Z</time>
      </trkpt>
      <trkpt lat="43.68669" lon="2.26117">
        <ele>259</ele>
        <time>2025-09-30T11:47:18.344Z</time>
      </trkpt>
      <trkpt lat="43.68672" lon="2.26112">
        <ele>258.2</ele>
        <time>2025-09-30T11:47:18.665Z</time>
      </trkpt>
      <trkpt lat="43.68675" lon="2.26107">
        <ele>257.4</ele>
        <time>2025-09-30T11:47:18.987Z</time>
      </trkpt>
      <trkpt lat="43.68677" lon="2.26102">
        <ele>256.6</ele>
        <time>2025-09-30T11:47:19.270Z</time>
      </trkpt>
      <trkpt lat="43.68678" lon="2.26096">
        <ele>256</ele>
        <time>2025-09-30T11:47:19.575Z</time>
      </trkpt>
      <trkpt lat="43.6868" lon="2.2609">
        <ele>255.2</ele>
        <time>2025-09-30T11:47:19.903Z</time>
      </trkpt>
      <trkpt lat="43.68682" lon="2.26083">
        <ele>254.6</ele>
        <time>2025-09-30T11:47:20.276Z</time>
      </trkpt>
      <trkpt lat="43.68684" lon="2.26078">
        <ele>253.8</ele>
        <time>2025-09-30T11:47:20.559Z</time>
      </trkpt>
      <trkpt lat="43.68687" lon="2.26072">
        <ele>253</ele>
        <time>2025-09-30T11:47:20.920Z</time>
      </trkpt>
      <trkpt lat="43.6869" lon="2.26067">
        <ele>252.2</ele>
        <time>2025-09-30T11:47:21.242Z</time>
      </trkpt>
      <trkpt lat="43.68692" lon="2.26062">
        <ele>251.4</ele>
        <time>2025-09-30T11:47:21.525Z</time>
      </trkpt>
      <trkpt lat="43.68695" lon="2.26056">
        <ele>250.6</ele>
        <time>2025-09-30T11:47:21.887Z</time>
      </trkpt>
      <trkpt lat="43.68697" lon="2.2605">
        <ele>249.6</ele>
        <time>2025-09-30T11:47:22.214Z</time>
      </trkpt>
      <trkpt lat="43.68699" lon="2.26044">
        <ele>248.8</ele>
        <time>2025-09-30T11:47:22.541Z</time>
      </trkpt>
      <trkpt lat="43.68701" lon="2.26038">
        <ele>247.8</ele>
        <time>2025-09-30T11:47:22.869Z</time>
      </trkpt>
      <trkpt lat="43.68702" lon="2.26034">
        <ele>246.8</ele>
        <time>2025-09-30T11:47:23.078Z</time>
      </trkpt>
      <trkpt lat="43.68704" lon="2.26029">
        <ele>245.8</ele>
        <time>2025-09-30T11:47:23.361Z</time>
      </trkpt>
      <trkpt lat="43.68706" lon="2.26024">
        <ele>245</ele>
        <time>2025-09-30T11:47:23.645Z</time>
      </trkpt>
      <trkpt lat="43.68707" lon="2.26019">
        <ele>244.2</ele>
        <time>2025-09-30T11:47:23.902Z</time>
      </trkpt>
      <trkpt lat="43.68709" lon="2.26014">
        <ele>243.2</ele>
        <time>2025-09-30T11:47:24.185Z</time>
      </trkpt>
      <trkpt lat="43.68711" lon="2.2601">
        <ele>242.4</ele>
        <time>2025-09-30T11:47:24.426Z</time>
      </trkpt>
      <trkpt lat="43.68713" lon="2.26006">
        <ele>241.6</ele>
        <time>2025-09-30T11:47:24.667Z</time>
      </trkpt>
      <trkpt lat="43.68715" lon="2.26001">
        <ele>241</ele>
        <time>2025-09-30T11:47:24.950Z</time>
      </trkpt>
      <trkpt lat="43.68717" lon="2.25995">
        <ele>240.2</ele>
        <time>2025-09-30T11:47:25.277Z</time>
      </trkpt>
      <trkpt lat="43.68719" lon="2.25989">
        <ele>239.4</ele>
        <time>2025-09-30T11:47:25.604Z</time>
      </trkpt>
      <trkpt lat="43.68721" lon="2.25983">
        <ele>238.6</ele>
        <time>2025-09-30T11:47:25.932Z</time>
      </trkpt>
      <trkpt lat="43.68723" lon="2.25977">
        <ele>238</ele>
        <time>2025-09-30T11:47:26.259Z</time>
      </trkpt>
      <trkpt lat="43.68726" lon="2.2597">
        <ele>237.2</ele>
        <time>2025-09-30T11:47:26.662Z</time>
      </trkpt>
      <trkpt lat="43.68729" lon="2.25963">
        <ele>236.6</ele>
        <time>2025-09-30T11:47:27.065Z</time>
      </trkpt>
      <trkpt lat="43.68732" lon="2.25958">
        <ele>235.8</ele>
        <time>2025-09-30T11:47:27.387Z</time>
      </trkpt>
      <trkpt lat="43.68734" lon="2.25952">
        <ele>235.2</ele>
        <time>2025-09-30T11:47:27.715Z</time>
      </trkpt>
      <trkpt lat="43.68737" lon="2.25946">
        <ele>234.6</ele>
        <time>2025-09-30T11:47:28.076Z</time>
      </trkpt>
      <trkpt lat="43.68739" lon="2.25939">
        <ele>233.8</ele>
        <time>2025-09-30T11:47:28.449Z</time>
      </trkpt>
      <trkpt lat="43.68742" lon="2.25932">
        <ele>233.2</ele>
        <time>2025-09-30T11:47:28.852Z</time>
      </trkpt>
      <trkpt lat="43.68745" lon="2.25924">
        <ele>232.6</ele>
        <time>2025-09-30T11:47:29.299Z</time>
      </trkpt>
      <trkpt lat="43.68749" lon="2.25915">
        <ele>231.8</ele>
        <time>2025-09-30T11:47:29.822Z</time>
      </trkpt>
      <trkpt lat="43.68753" lon="2.25905">
        <ele>231.2</ele>
        <time>2025-09-30T11:47:30.388Z</time>
      </trkpt>
      <trkpt lat="43.68757" lon="2.25894">
        <ele>230.6</ele>
        <time>2025-09-30T11:47:30.998Z</time>
      </trkpt>
      <trkpt lat="43.68761" lon="2.25883">
        <ele>229.8</ele>
        <time>2025-09-30T11:47:31.608Z</time>
      </trkpt>
      <trkpt lat="43.68766" lon="2.25871">
        <ele>229</ele>
        <time>2025-09-30T11:47:32.294Z</time>
      </trkpt>
      <trkpt lat="43.6877" lon="2.2586">
        <ele>228</ele>
        <time>2025-09-30T11:47:32.904Z</time>
      </trkpt>
      <trkpt lat="43.68774" lon="2.25848">
        <ele>227</ele>
        <time>2025-09-30T11:47:33.559Z</time>
      </trkpt>
      <trkpt lat="43.68779" lon="2.25836">
        <ele>226.2</ele>
        <time>2025-09-30T11:47:34.245Z</time>
      </trkpt>
      <trkpt lat="43.68784" lon="2.25824">
        <ele>225.2</ele>
        <time>2025-09-30T11:47:34.931Z</time>
      </trkpt>
      <trkpt lat="43.68788" lon="2.25812">
        <ele>224.4</ele>
        <time>2025-09-30T11:47:35.586Z</time>
      </trkpt>
      <trkpt lat="43.68793" lon="2.25799">
        <ele>223.4</ele>
        <time>2025-09-30T11:47:36.316Z</time>
      </trkpt>
      <trkpt lat="43.68798" lon="2.25787">
        <ele>222.4</ele>
        <time>2025-09-30T11:47:37.002Z</time>
      </trkpt>
      <trkpt lat="43.68803" lon="2.25775">
        <ele>221.6</ele>
        <time>2025-09-30T11:47:37.688Z</time>
      </trkpt>
      <trkpt lat="43.68807" lon="2.25764">
        <ele>220.8</ele>
        <time>2025-09-30T11:47:38.298Z</time>
      </trkpt>
      <trkpt lat="43.68811" lon="2.25752">
        <ele>220</ele>
        <time>2025-09-30T11:47:38.953Z</time>
      </trkpt>
      <trkpt lat="43.68815" lon="2.25741">
        <ele>219.2</ele>
        <time>2025-09-30T11:47:39.563Z</time>
      </trkpt>
      <trkpt lat="43.6882" lon="2.2573">
        <ele>218.6</ele>
        <time>2025-09-30T11:47:40.218Z</time>
      </trkpt>
      <trkpt lat="43.68823" lon="2.2572">
        <ele>217.8</ele>
        <time>2025-09-30T11:47:40.754Z</time>
      </trkpt>
      <trkpt lat="43.68827" lon="2.25709">
        <ele>217.2</ele>
        <time>2025-09-30T11:47:41.364Z</time>
      </trkpt>
      <trkpt lat="43.68831" lon="2.25698">
        <ele>216.4</ele>
        <time>2025-09-30T11:47:41.974Z</time>
      </trkpt>
      <trkpt lat="43.68835" lon="2.25687">
        <ele>215.6</ele>
        <time>2025-09-30T11:47:42.584Z</time>
      </trkpt>
      <trkpt lat="43.68838" lon="2.25675">
        <ele>215</ele>
        <time>2025-09-30T11:47:43.218Z</time>
      </trkpt>
      <trkpt lat="43.68841" lon="2.25663">
        <ele>214.2</ele>
        <time>2025-09-30T11:47:43.847Z</time>
      </trkpt>
      <trkpt lat="43.68842" lon="2.25651">
        <ele>213.4</ele>
        <time>2025-09-30T11:47:44.446Z</time>
      </trkpt>
      <trkpt lat="43.68844" lon="2.25638">
        <ele>212.8</ele>
        <time>2025-09-30T11:47:45.122Z</time>
      </trkpt>
      <trkpt lat="43.68845" lon="2.25625">
        <ele>212.2</ele>
        <time>2025-09-30T11:47:45.782Z</time>
      </trkpt>
      <trkpt lat="43.68846" lon="2.25613">
        <ele>211.8</ele>
        <time>2025-09-30T11:47:46.468Z</time>
      </trkpt>
      <trkpt lat="43.68847" lon="2.25602">
        <ele>211.4</ele>
        <time>2025-09-30T11:47:47.079Z</time>
      </trkpt>
      <trkpt lat="43.68849" lon="2.25592">
        <ele>211.4</ele>
        <time>2025-09-30T11:47:47.936Z</time>
      </trkpt>
      <trkpt lat="43.6885" lon="2.25583">
        <ele>211.2</ele>
        <time>2025-09-30T11:47:48.515Z</time>
      </trkpt>
      <trkpt lat="43.68852" lon="2.25575">
        <ele>211</ele>
        <time>2025-09-30T11:47:49.043Z</time>
      </trkpt>
      <trkpt lat="43.68853" lon="2.25568">
        <ele>211</ele>
        <time>2025-09-30T11:47:49.633Z</time>
      </trkpt>
      <trkpt lat="43.68854" lon="2.25561">
        <ele>211</ele>
        <time>2025-09-30T11:47:50.222Z</time>
      </trkpt>
      <trkpt lat="43.68856" lon="2.25554">
        <ele>211</ele>
        <time>2025-09-30T11:47:50.843Z</time>
      </trkpt>
      <trkpt lat="43.68857" lon="2.25547">
        <ele>211</ele>
        <time>2025-09-30T11:47:51.433Z</time>
      </trkpt>
      <trkpt lat="43.68859" lon="2.2554">
        <ele>211.2</ele>
        <time>2025-09-30T11:47:52.353Z</time>
      </trkpt>
      <trkpt lat="43.6886" lon="2.25532">
        <ele>211.2</ele>
        <time>2025-09-30T11:47:53.024Z</time>
      </trkpt>
      <trkpt lat="43.68862" lon="2.25525">
        <ele>211.2</ele>
        <time>2025-09-30T11:47:53.645Z</time>
      </trkpt>
      <trkpt lat="43.68863" lon="2.25517">
        <ele>211.2</ele>
        <time>2025-09-30T11:47:54.316Z</time>
      </trkpt>
      <trkpt lat="43.68865" lon="2.25508">
        <ele>211</ele>
        <time>2025-09-30T11:47:54.919Z</time>
      </trkpt>
      <trkpt lat="43.68867" lon="2.255">
        <ele>211</ele>
        <time>2025-09-30T11:47:55.618Z</time>
      </trkpt>
      <trkpt lat="43.68869" lon="2.25492">
        <ele>210.8</ele>
        <time>2025-09-30T11:47:56.146Z</time>
      </trkpt>
      <trkpt lat="43.68871" lon="2.25485">
        <ele>210.8</ele>
        <time>2025-09-30T11:47:56.768Z</time>
      </trkpt>
      <trkpt lat="43.68874" lon="2.25477">
        <ele>210.6</ele>
        <time>2025-09-30T11:47:57.339Z</time>
      </trkpt>
      <trkpt lat="43.68878" lon="2.25471">
        <ele>210.6</ele>
        <time>2025-09-30T11:47:58.013Z</time>
      </trkpt>
      <trkpt lat="43.68881" lon="2.25465">
        <ele>210.4</ele>
        <time>2025-09-30T11:47:58.451Z</time>
      </trkpt>
      <trkpt lat="43.68884" lon="2.25459">
        <ele>210.4</ele>
        <time>2025-09-30T11:47:59.053Z</time>
      </trkpt>
      <trkpt lat="43.68888" lon="2.25454">
        <ele>210.4</ele>
        <time>2025-09-30T11:47:59.669Z</time>
      </trkpt>
      <trkpt lat="43.68892" lon="2.25448">
        <ele>210.4</ele>
        <time>2025-09-30T11:48:00.343Z</time>
      </trkpt>
      <trkpt lat="43.68895" lon="2.25444">
        <ele>210.2</ele>
        <time>2025-09-30T11:48:00.665Z</time>
      </trkpt>
      <trkpt lat="43.68898" lon="2.2544">
        <ele>210</ele>
        <time>2025-09-30T11:48:00.987Z</time>
      </trkpt>
      <trkpt lat="43.689" lon="2.25437">
        <ele>210</ele>
        <time>2025-09-30T11:48:01.324Z</time>
      </trkpt>
      <trkpt lat="43.68901" lon="2.25434">
        <ele>210</ele>
        <time>2025-09-30T11:48:01.597Z</time>
      </trkpt>
      <trkpt lat="43.68902" lon="2.25431">
        <ele>210</ele>
        <time>2025-09-30T11:48:01.870Z</time>
      </trkpt>
      <trkpt lat="43.68902" lon="2.25428">
        <ele>210</ele>
        <time>2025-09-30T11:48:02.117Z</time>
      </trkpt>
      <trkpt lat="43.689" lon="2.25425">
        <ele>209.8</ele>
        <time>2025-09-30T11:48:02.319Z</time>
      </trkpt>
      <trkpt lat="43.68898" lon="2.25421">
        <ele>209.8</ele>
        <time>2025-09-30T11:48:02.721Z</time>
      </trkpt>
      <trkpt lat="43.68896" lon="2.25418">
        <ele>209.8</ele>
        <time>2025-09-30T11:48:03.058Z</time>
      </trkpt>
      <trkpt lat="43.68895" lon="2.25414">
        <ele>209.8</ele>
        <time>2025-09-30T11:48:03.407Z</time>
      </trkpt>
      <trkpt lat="43.68894" lon="2.2541">
        <ele>209.8</ele>
        <time>2025-09-30T11:48:03.757Z</time>
      </trkpt>
      <trkpt lat="43.68894" lon="2.25406">
        <ele>210</ele>
        <time>2025-09-30T11:48:04.499Z</time>
      </trkpt>
      <trkpt lat="43.68896" lon="2.25401">
        <ele>210.2</ele>
        <time>2025-09-30T11:48:05.305Z</time>
      </trkpt>
      <trkpt lat="43.68897" lon="2.25398">
        <ele>210.4</ele>
        <time>2025-09-30T11:48:06.053Z</time>
      </trkpt>
      <trkpt lat="43.68899" lon="2.25396">
        <ele>210.6</ele>
        <time>2025-09-30T11:48:06.797Z</time>
      </trkpt>
      <trkpt lat="43.68901" lon="2.25394">
        <ele>211</ele>
        <time>2025-09-30T11:48:08.005Z</time>
      </trkpt>
      <trkpt lat="43.68904" lon="2.25392">
        <ele>211.2</ele>
        <time>2025-09-30T11:48:08.761Z</time>
      </trkpt>
      <trkpt lat="43.68906" lon="2.25391">
        <ele>211.6</ele>
        <time>2025-09-30T11:48:09.802Z</time>
      </trkpt>
      <trkpt lat="43.68908" lon="2.2539">
        <ele>212</ele>
        <time>2025-09-30T11:48:10.842Z</time>
      </trkpt>
      <trkpt lat="43.68911" lon="2.25389">
        <ele>212.4</ele>
        <time>2025-09-30T11:48:12.344Z</time>
      </trkpt>
      <trkpt lat="43.68914" lon="2.25388">
        <ele>212.6</ele>
        <time>2025-09-30T11:48:13.091Z</time>
      </trkpt>
      <trkpt lat="43.68916" lon="2.25386">
        <ele>213</ele>
        <time>2025-09-30T11:48:14.299Z</time>
      </trkpt>
      <trkpt lat="43.68919" lon="2.25384">
        <ele>213.2</ele>
        <time>2025-09-30T11:48:15.055Z</time>
      </trkpt>
      <trkpt lat="43.68922" lon="2.25382">
        <ele>213.6</ele>
        <time>2025-09-30T11:48:16.609Z</time>
      </trkpt>
      <trkpt lat="43.68925" lon="2.25381">
        <ele>213.8</ele>
        <time>2025-09-30T11:48:17.356Z</time>
      </trkpt>
      <trkpt lat="43.68927" lon="2.2538">
        <ele>214</ele>
        <time>2025-09-30T11:48:18.118Z</time>
      </trkpt>
      <trkpt lat="43.6893" lon="2.25379">
        <ele>214.2</ele>
        <time>2025-09-30T11:48:18.864Z</time>
      </trkpt>
      <trkpt lat="43.68933" lon="2.25378">
        <ele>214.6</ele>
        <time>2025-09-30T11:48:20.366Z</time>
      </trkpt>
      <trkpt lat="43.68936" lon="2.25377">
        <ele>214.6</ele>
        <time>2025-09-30T11:48:20.719Z</time>
      </trkpt>
      <trkpt lat="43.68939" lon="2.25377">
        <ele>214.8</ele>
        <time>2025-09-30T11:48:21.463Z</time>
      </trkpt>
      <trkpt lat="43.68942" lon="2.25377">
        <ele>215</ele>
        <time>2025-09-30T11:48:22.207Z</time>
      </trkpt>
      <trkpt lat="43.68945" lon="2.25376">
        <ele>215.2</ele>
        <time>2025-09-30T11:48:22.954Z</time>
      </trkpt>
      <trkpt lat="43.68948" lon="2.25376">
        <ele>215.4</ele>
        <time>2025-09-30T11:48:23.698Z</time>
      </trkpt>
      <trkpt lat="43.68951" lon="2.25375">
        <ele>215.4</ele>
        <time>2025-09-30T11:48:24.050Z</time>
      </trkpt>
      <trkpt lat="43.68953" lon="2.25376">
        <ele>215.4</ele>
        <time>2025-09-30T11:48:24.293Z</time>
      </trkpt>
      <trkpt lat="43.68955" lon="2.25376">
        <ele>215.6</ele>
        <time>2025-09-30T11:48:25.064Z</time>
      </trkpt>
      <trkpt lat="43.68958" lon="2.25376">
        <ele>215.6</ele>
        <time>2025-09-30T11:48:25.407Z</time>
      </trkpt>
      <trkpt lat="43.6896" lon="2.25377">
        <ele>215.6</ele>
        <time>2025-09-30T11:48:25.650Z</time>
      </trkpt>
      <trkpt lat="43.68962" lon="2.25377">
        <ele>215.6</ele>
        <time>2025-09-30T11:48:25.878Z</time>
      </trkpt>
      <trkpt lat="43.68965" lon="2.25377">
        <ele>215.6</ele>
        <time>2025-09-30T11:48:26.220Z</time>
      </trkpt>
      <trkpt lat="43.68968" lon="2.25378">
        <ele>215.6</ele>
        <time>2025-09-30T11:48:26.573Z</time>
      </trkpt>
      <trkpt lat="43.68971" lon="2.25379">
        <ele>215.8</ele>
        <time>2025-09-30T11:48:27.319Z</time>
      </trkpt>
      <trkpt lat="43.68975" lon="2.25381">
        <ele>215.8</ele>
        <time>2025-09-30T11:48:27.805Z</time>
      </trkpt>
      <trkpt lat="43.68978" lon="2.25382">
        <ele>215.8</ele>
        <time>2025-09-30T11:48:28.157Z</time>
      </trkpt>
      <trkpt lat="43.68982" lon="2.25383">
        <ele>215.8</ele>
        <time>2025-09-30T11:48:28.622Z</time>
      </trkpt>
      <trkpt lat="43.68985" lon="2.25384">
        <ele>215.8</ele>
        <time>2025-09-30T11:48:28.974Z</time>
      </trkpt>
      <trkpt lat="43.68988" lon="2.25386">
        <ele>215.8</ele>
        <time>2025-09-30T11:48:29.354Z</time>
      </trkpt>
      <trkpt lat="43.68991" lon="2.25387">
        <ele>216</ele>
        <time>2025-09-30T11:48:30.101Z</time>
      </trkpt>
      <trkpt lat="43.68994" lon="2.25388">
        <ele>216</ele>
        <time>2025-09-30T11:48:30.453Z</time>
      </trkpt>
      <trkpt lat="43.68996" lon="2.25389">
        <ele>216</ele>
        <time>2025-09-30T11:48:30.696Z</time>
      </trkpt>
      <trkpt lat="43.68999" lon="2.25391">
        <ele>216.2</ele>
        <time>2025-09-30T11:48:31.452Z</time>
      </trkpt>
      <trkpt lat="43.69002" lon="2.25392">
        <ele>216.2</ele>
        <time>2025-09-30T11:48:31.805Z</time>
      </trkpt>
      <trkpt lat="43.69005" lon="2.25393">
        <ele>216.4</ele>
        <time>2025-09-30T11:48:32.551Z</time>
      </trkpt>
      <trkpt lat="43.69008" lon="2.25395">
        <ele>216.4</ele>
        <time>2025-09-30T11:48:32.931Z</time>
      </trkpt>
      <trkpt lat="43.6901" lon="2.25397">
        <ele>216.6</ele>
        <time>2025-09-30T11:48:33.676Z</time>
      </trkpt>
      <trkpt lat="43.69013" lon="2.25398">
        <ele>216.6</ele>
        <time>2025-09-30T11:48:34.028Z</time>
      </trkpt>
      <trkpt lat="43.69016" lon="2.25399">
        <ele>216.8</ele>
        <time>2025-09-30T11:48:34.775Z</time>
      </trkpt>
      <trkpt lat="43.69019" lon="2.254">
        <ele>217</ele>
        <time>2025-09-30T11:48:35.521Z</time>
      </trkpt>
      <trkpt lat="43.69022" lon="2.25402">
        <ele>217</ele>
        <time>2025-09-30T11:48:35.902Z</time>
      </trkpt>
      <trkpt lat="43.69025" lon="2.25403">
        <ele>217.2</ele>
        <time>2025-09-30T11:48:36.648Z</time>
      </trkpt>
      <trkpt lat="43.69028" lon="2.25403">
        <ele>217.2</ele>
        <time>2025-09-30T11:48:36.991Z</time>
      </trkpt>
      <trkpt lat="43.69032" lon="2.25404">
        <ele>217.4</ele>
        <time>2025-09-30T11:48:37.792Z</time>
      </trkpt>
      <trkpt lat="43.69035" lon="2.25405">
        <ele>217.6</ele>
        <time>2025-09-30T11:48:38.539Z</time>
      </trkpt>
      <trkpt lat="43.69039" lon="2.25406">
        <ele>217.6</ele>
        <time>2025-09-30T11:48:39.003Z</time>
      </trkpt>
      <trkpt lat="43.69042" lon="2.25407">
        <ele>217.8</ele>
        <time>2025-09-30T11:48:39.749Z</time>
      </trkpt>
      <trkpt lat="43.69045" lon="2.25408">
        <ele>218</ele>
        <time>2025-09-30T11:48:40.496Z</time>
      </trkpt>
      <trkpt lat="43.69048" lon="2.25409">
        <ele>218</ele>
        <time>2025-09-30T11:48:40.848Z</time>
      </trkpt>
      <trkpt lat="43.69051" lon="2.2541">
        <ele>218.2</ele>
        <time>2025-09-30T11:48:41.595Z</time>
      </trkpt>
      <trkpt lat="43.69055" lon="2.25411">
        <ele>218.2</ele>
        <time>2025-09-30T11:48:42.059Z</time>
      </trkpt>
      <trkpt lat="43.69058" lon="2.25412">
        <ele>218.4</ele>
        <time>2025-09-30T11:48:42.806Z</time>
      </trkpt>
      <trkpt lat="43.69062" lon="2.25413">
        <ele>218.6</ele>
        <time>2025-09-30T11:48:43.607Z</time>
      </trkpt>
      <trkpt lat="43.69066" lon="2.25414">
        <ele>218.8</ele>
        <time>2025-09-30T11:48:44.409Z</time>
      </trkpt>
      <trkpt lat="43.6907" lon="2.25415">
        <ele>218.8</ele>
        <time>2025-09-30T11:48:44.873Z</time>
      </trkpt>
      <trkpt lat="43.69074" lon="2.25417">
        <ele>219</ele>
        <time>2025-09-30T11:48:45.689Z</time>
      </trkpt>
      <trkpt lat="43.69077" lon="2.25418">
        <ele>219.2</ele>
        <time>2025-09-30T11:48:46.435Z</time>
      </trkpt>
      <trkpt lat="43.69081" lon="2.25419">
        <ele>219.4</ele>
        <time>2025-09-30T11:48:47.237Z</time>
      </trkpt>
      <trkpt lat="43.69085" lon="2.2542">
        <ele>219.8</ele>
        <time>2025-09-30T11:48:48.775Z</time>
      </trkpt>
      <trkpt lat="43.69089" lon="2.2542">
        <ele>220</ele>
        <time>2025-09-30T11:48:49.571Z</time>
      </trkpt>
      <trkpt lat="43.69092" lon="2.25422">
        <ele>220.2</ele>
        <time>2025-09-30T11:48:50.327Z</time>
      </trkpt>
      <trkpt lat="43.69095" lon="2.25423">
        <ele>220.6</ele>
        <time>2025-09-30T11:48:51.829Z</time>
      </trkpt>
      <trkpt lat="43.69099" lon="2.25424">
        <ele>220.8</ele>
        <time>2025-09-30T11:48:52.631Z</time>
      </trkpt>
      <trkpt lat="43.69102" lon="2.25425">
        <ele>221.2</ele>
        <time>2025-09-30T11:48:54.133Z</time>
      </trkpt>
      <trkpt lat="43.69106" lon="2.25426">
        <ele>221.6</ele>
        <time>2025-09-30T11:48:55.671Z</time>
      </trkpt>
      <trkpt lat="43.69109" lon="2.25427">
        <ele>221.8</ele>
        <time>2025-09-30T11:48:56.417Z</time>
      </trkpt>
      <trkpt lat="43.69112" lon="2.25428">
        <ele>222.2</ele>
        <time>2025-09-30T11:48:57.919Z</time>
      </trkpt>
      <trkpt lat="43.69115" lon="2.2543">
        <ele>222.4</ele>
        <time>2025-09-30T11:48:58.675Z</time>
      </trkpt>
      <trkpt lat="43.69119" lon="2.25431">
        <ele>222.8</ele>
        <time>2025-09-30T11:49:00.213Z</time>
      </trkpt>
      <trkpt lat="43.69122" lon="2.25432">
        <ele>223</ele>
        <time>2025-09-30T11:49:00.959Z</time>
      </trkpt>
      <trkpt lat="43.69126" lon="2.25433">
        <ele>223.4</ele>
        <time>2025-09-30T11:49:02.497Z</time>
      </trkpt>
      <trkpt lat="43.69129" lon="2.25435">
        <ele>223.6</ele>
        <time>2025-09-30T11:49:03.253Z</time>
      </trkpt>
      <trkpt lat="43.69132" lon="2.25436">
        <ele>223.8</ele>
        <time>2025-09-30T11:49:03.999Z</time>
      </trkpt>
      <trkpt lat="43.69135" lon="2.25438">
        <ele>224.2</ele>
        <time>2025-09-30T11:49:05.554Z</time>
      </trkpt>
      <trkpt lat="43.69139" lon="2.25439">
        <ele>224.4</ele>
        <time>2025-09-30T11:49:06.355Z</time>
      </trkpt>
      <trkpt lat="43.69142" lon="2.25441">
        <ele>224.6</ele>
        <time>2025-09-30T11:49:07.111Z</time>
      </trkpt>
      <trkpt lat="43.69144" lon="2.25442">
        <ele>224.8</ele>
        <time>2025-09-30T11:49:07.873Z</time>
      </trkpt>
      <trkpt lat="43.69147" lon="2.25444">
        <ele>225</ele>
        <time>2025-09-30T11:49:08.630Z</time>
      </trkpt>
      <trkpt lat="43.6915" lon="2.25446">
        <ele>225.2</ele>
        <time>2025-09-30T11:49:09.386Z</time>
      </trkpt>
      <trkpt lat="43.69153" lon="2.25448">
        <ele>225.4</ele>
        <time>2025-09-30T11:49:10.142Z</time>
      </trkpt>
      <trkpt lat="43.69155" lon="2.25449">
        <ele>225.6</ele>
        <time>2025-09-30T11:49:10.904Z</time>
      </trkpt>
      <trkpt lat="43.69158" lon="2.25451">
        <ele>226</ele>
        <time>2025-09-30T11:49:12.458Z</time>
      </trkpt>
      <trkpt lat="43.69161" lon="2.25453">
        <ele>226.2</ele>
        <time>2025-09-30T11:49:13.214Z</time>
      </trkpt>
      <trkpt lat="43.69164" lon="2.25454">
        <ele>226.4</ele>
        <time>2025-09-30T11:49:13.961Z</time>
      </trkpt>
      <trkpt lat="43.69167" lon="2.25456">
        <ele>226.6</ele>
        <time>2025-09-30T11:49:14.717Z</time>
      </trkpt>
      <trkpt lat="43.69169" lon="2.25458">
        <ele>226.8</ele>
        <time>2025-09-30T11:49:15.461Z</time>
      </trkpt>
      <trkpt lat="43.69172" lon="2.25459">
        <ele>227</ele>
        <time>2025-09-30T11:49:16.208Z</time>
      </trkpt>
      <trkpt lat="43.69175" lon="2.25461">
        <ele>227.2</ele>
        <time>2025-09-30T11:49:16.964Z</time>
      </trkpt>
      <trkpt lat="43.69178" lon="2.25463">
        <ele>227.2</ele>
        <time>2025-09-30T11:49:17.344Z</time>
      </trkpt>
      <trkpt lat="43.69181" lon="2.25465">
        <ele>227.4</ele>
        <time>2025-09-30T11:49:18.100Z</time>
      </trkpt>
      <trkpt lat="43.69184" lon="2.25467">
        <ele>227.6</ele>
        <time>2025-09-30T11:49:18.856Z</time>
      </trkpt>
      <trkpt lat="43.69187" lon="2.25469">
        <ele>227.6</ele>
        <time>2025-09-30T11:49:19.236Z</time>
      </trkpt>
      <trkpt lat="43.6919" lon="2.25471">
        <ele>227.8</ele>
        <time>2025-09-30T11:49:19.993Z</time>
      </trkpt>
      <trkpt lat="43.69193" lon="2.25472">
        <ele>227.8</ele>
        <time>2025-09-30T11:49:20.345Z</time>
      </trkpt>
      <trkpt lat="43.69195" lon="2.25474">
        <ele>228</ele>
        <time>2025-09-30T11:49:21.089Z</time>
      </trkpt>
      <trkpt lat="43.69197" lon="2.25476">
        <ele>228</ele>
        <time>2025-09-30T11:49:21.371Z</time>
      </trkpt>
      <trkpt lat="43.69199" lon="2.25478">
        <ele>228.2</ele>
        <time>2025-09-30T11:49:22.115Z</time>
      </trkpt>
      <trkpt lat="43.69201" lon="2.2548">
        <ele>228.2</ele>
        <time>2025-09-30T11:49:22.397Z</time>
      </trkpt>
      <trkpt lat="43.69204" lon="2.25482">
        <ele>228.4</ele>
        <time>2025-09-30T11:49:23.153Z</time>
      </trkpt>
      <trkpt lat="43.69206" lon="2.25484">
        <ele>228.4</ele>
        <time>2025-09-30T11:49:23.435Z</time>
      </trkpt>
      <trkpt lat="43.69208" lon="2.25486">
        <ele>228.6</ele>
        <time>2025-09-30T11:49:24.180Z</time>
      </trkpt>
      <trkpt lat="43.6921" lon="2.25488">
        <ele>228.8</ele>
        <time>2025-09-30T11:49:24.924Z</time>
      </trkpt>
      <trkpt lat="43.69212" lon="2.2549">
        <ele>229</ele>
        <time>2025-09-30T11:49:25.668Z</time>
      </trkpt>
      <trkpt lat="43.69214" lon="2.25492">
        <ele>229</ele>
        <time>2025-09-30T11:49:25.950Z</time>
      </trkpt>
      <trkpt lat="43.69216" lon="2.25494">
        <ele>229.2</ele>
        <time>2025-09-30T11:49:26.694Z</time>
      </trkpt>
      <trkpt lat="43.69218" lon="2.25497">
        <ele>229.4</ele>
        <time>2025-09-30T11:49:27.437Z</time>
      </trkpt>
      <trkpt lat="43.6922" lon="2.25499">
        <ele>229.6</ele>
        <time>2025-09-30T11:49:28.182Z</time>
      </trkpt>
      <trkpt lat="43.69222" lon="2.25501">
        <ele>229.8</ele>
        <time>2025-09-30T11:49:28.926Z</time>
      </trkpt>
      <trkpt lat="43.69224" lon="2.25504">
        <ele>230</ele>
        <time>2025-09-30T11:49:29.669Z</time>
      </trkpt>
      <trkpt lat="43.69226" lon="2.25506">
        <ele>230.4</ele>
        <time>2025-09-30T11:49:30.877Z</time>
      </trkpt>
      <trkpt lat="43.69228" lon="2.25508">
        <ele>230.6</ele>
        <time>2025-09-30T11:49:31.621Z</time>
      </trkpt>
      <trkpt lat="43.6923" lon="2.2551">
        <ele>230.8</ele>
        <time>2025-09-30T11:49:32.365Z</time>
      </trkpt>
      <trkpt lat="43.69232" lon="2.25513">
        <ele>231.2</ele>
        <time>2025-09-30T11:49:33.809Z</time>
      </trkpt>
      <trkpt lat="43.69233" lon="2.25515">
        <ele>231.4</ele>
        <time>2025-09-30T11:49:34.592Z</time>
      </trkpt>
      <trkpt lat="43.69235" lon="2.25517">
        <ele>231.8</ele>
        <time>2025-09-30T11:49:35.800Z</time>
      </trkpt>
      <trkpt lat="43.69237" lon="2.25518">
        <ele>232</ele>
        <time>2025-09-30T11:49:36.561Z</time>
      </trkpt>
      <trkpt lat="43.69239" lon="2.25519">
        <ele>232.2</ele>
        <time>2025-09-30T11:49:37.323Z</time>
      </trkpt>
      <trkpt lat="43.6924" lon="2.25521">
        <ele>232.6</ele>
        <time>2025-09-30T11:49:38.184Z</time>
      </trkpt>
      <trkpt lat="43.69241" lon="2.25523">
        <ele>232.8</ele>
        <time>2025-09-30T11:49:38.966Z</time>
      </trkpt>
      <trkpt lat="43.69242" lon="2.25524">
        <ele>233.2</ele>
        <time>2025-09-30T11:49:39.570Z</time>
      </trkpt>
      <trkpt lat="43.69244" lon="2.25525">
        <ele>233.4</ele>
        <time>2025-09-30T11:49:40.332Z</time>
      </trkpt>
      <trkpt lat="43.69245" lon="2.25524">
        <ele>233.8</ele>
        <time>2025-09-30T11:49:40.936Z</time>
      </trkpt>
      <trkpt lat="43.69247" lon="2.25523">
        <ele>234</ele>
        <time>2025-09-30T11:49:41.698Z</time>
      </trkpt>
      <trkpt lat="43.69249" lon="2.25521">
        <ele>234.2</ele>
        <time>2025-09-30T11:49:42.442Z</time>
      </trkpt>
      <trkpt lat="43.6925" lon="2.25519">
        <ele>234.6</ele>
        <time>2025-09-30T11:49:43.303Z</time>
      </trkpt>
      <trkpt lat="43.69252" lon="2.25517">
        <ele>234.8</ele>
        <time>2025-09-30T11:49:44.047Z</time>
      </trkpt>
      <trkpt lat="43.69253" lon="2.25513">
        <ele>235</ele>
        <time>2025-09-30T11:49:44.793Z</time>
      </trkpt>
      <trkpt lat="43.69255" lon="2.2551">
        <ele>235.2</ele>
        <time>2025-09-30T11:49:45.536Z</time>
      </trkpt>
      <trkpt lat="43.69256" lon="2.25506">
        <ele>235.4</ele>
        <time>2025-09-30T11:49:46.281Z</time>
      </trkpt>
      <trkpt lat="43.69258" lon="2.25503">
        <ele>235.6</ele>
        <time>2025-09-30T11:49:47.024Z</time>
      </trkpt>
      <trkpt lat="43.69259" lon="2.255">
        <ele>235.8</ele>
        <time>2025-09-30T11:49:47.772Z</time>
      </trkpt>
      <trkpt lat="43.69261" lon="2.25498">
        <ele>236</ele>
        <time>2025-09-30T11:49:48.516Z</time>
      </trkpt>
      <trkpt lat="43.69263" lon="2.25495">
        <ele>236.2</ele>
        <time>2025-09-30T11:49:49.259Z</time>
      </trkpt>
      <trkpt lat="43.69265" lon="2.25493">
        <ele>236.4</ele>
        <time>2025-09-30T11:49:50.003Z</time>
      </trkpt>
      <trkpt lat="43.69267" lon="2.2549">
        <ele>236.4</ele>
        <time>2025-09-30T11:49:50.340Z</time>
      </trkpt>
      <trkpt lat="43.69269" lon="2.25488">
        <ele>236.6</ele>
        <time>2025-09-30T11:49:51.084Z</time>
      </trkpt>
      <trkpt lat="43.6927" lon="2.25487">
        <ele>236.8</ele>
        <time>2025-09-30T11:49:51.688Z</time>
      </trkpt>
      <trkpt lat="43.69272" lon="2.25485">
        <ele>237</ele>
        <time>2025-09-30T11:49:52.433Z</time>
      </trkpt>
      <trkpt lat="43.69274" lon="2.25484">
        <ele>237.2</ele>
        <time>2025-09-30T11:49:53.195Z</time>
      </trkpt>
      <trkpt lat="43.69275" lon="2.25481">
        <ele>237.4</ele>
        <time>2025-09-30T11:49:53.942Z</time>
      </trkpt>
      <trkpt lat="43.69277" lon="2.25479">
        <ele>237.6</ele>
        <time>2025-09-30T11:49:54.686Z</time>
      </trkpt>
      <trkpt lat="43.69279" lon="2.25477">
        <ele>237.6</ele>
        <time>2025-09-30T11:49:54.968Z</time>
      </trkpt>
      <trkpt lat="43.69281" lon="2.25474">
        <ele>237.8</ele>
        <time>2025-09-30T11:49:55.711Z</time>
      </trkpt>
      <trkpt lat="43.69283" lon="2.25472">
        <ele>238</ele>
        <time>2025-09-30T11:49:56.455Z</time>
      </trkpt>
      <trkpt lat="43.69284" lon="2.25469">
        <ele>238</ele>
        <time>2025-09-30T11:49:56.728Z</time>
      </trkpt>
      <trkpt lat="43.69285" lon="2.25467">
        <ele>238.2</ele>
        <time>2025-09-30T11:49:57.510Z</time>
      </trkpt>
      <trkpt lat="43.69287" lon="2.25464">
        <ele>238.2</ele>
        <time>2025-09-30T11:49:57.847Z</time>
      </trkpt>
      <trkpt lat="43.69288" lon="2.25461">
        <ele>238.4</ele>
        <time>2025-09-30T11:49:58.594Z</time>
      </trkpt>
      <trkpt lat="43.6929" lon="2.25459">
        <ele>238.4</ele>
        <time>2025-09-30T11:49:58.876Z</time>
      </trkpt>
      <trkpt lat="43.69291" lon="2.25456">
        <ele>238.6</ele>
        <time>2025-09-30T11:49:59.623Z</time>
      </trkpt>
      <trkpt lat="43.69293" lon="2.25454">
        <ele>238.8</ele>
        <time>2025-09-30T11:50:00.368Z</time>
      </trkpt>
      <trkpt lat="43.69294" lon="2.25451">
        <ele>238.8</ele>
        <time>2025-09-30T11:50:00.640Z</time>
      </trkpt>
      <trkpt lat="43.69295" lon="2.25448">
        <ele>239</ele>
        <time>2025-09-30T11:50:01.388Z</time>
      </trkpt>
      <trkpt lat="43.69296" lon="2.25445">
        <ele>239</ele>
        <time>2025-09-30T11:50:01.660Z</time>
      </trkpt>
      <trkpt lat="43.69297" lon="2.25442">
        <ele>239.2</ele>
        <time>2025-09-30T11:50:02.407Z</time>
      </trkpt>
      <trkpt lat="43.69298" lon="2.25439">
        <ele>239.4</ele>
        <time>2025-09-30T11:50:03.155Z</time>
      </trkpt>
      <trkpt lat="43.69299" lon="2.25436">
        <ele>239.6</ele>
        <time>2025-09-30T11:50:03.902Z</time>
      </trkpt>
      <trkpt lat="43.693" lon="2.25433">
        <ele>239.8</ele>
        <time>2025-09-30T11:50:04.649Z</time>
      </trkpt>
      <trkpt lat="43.69301" lon="2.2543">
        <ele>240</ele>
        <time>2025-09-30T11:50:05.396Z</time>
      </trkpt>
      <trkpt lat="43.69302" lon="2.25427">
        <ele>240.2</ele>
        <time>2025-09-30T11:50:06.143Z</time>
      </trkpt>
      <trkpt lat="43.69302" lon="2.25424">
        <ele>240.6</ele>
        <time>2025-09-30T11:50:07.205Z</time>
      </trkpt>
      <trkpt lat="43.69303" lon="2.25422">
        <ele>240.8</ele>
        <time>2025-09-30T11:50:07.987Z</time>
      </trkpt>
      <trkpt lat="43.69303" lon="2.25419">
        <ele>241</ele>
        <time>2025-09-30T11:50:08.746Z</time>
      </trkpt>
      <trkpt lat="43.69304" lon="2.25416">
        <ele>241.4</ele>
        <time>2025-09-30T11:50:09.915Z</time>
      </trkpt>
      <trkpt lat="43.69305" lon="2.25413">
        <ele>241.6</ele>
        <time>2025-09-30T11:50:10.662Z</time>
      </trkpt>
      <trkpt lat="43.69305" lon="2.2541">
        <ele>242</ele>
        <time>2025-09-30T11:50:11.724Z</time>
      </trkpt>
      <trkpt lat="43.69306" lon="2.25408">
        <ele>242.2</ele>
        <time>2025-09-30T11:50:12.506Z</time>
      </trkpt>
      <trkpt lat="43.69306" lon="2.25405">
        <ele>242.6</ele>
        <time>2025-09-30T11:50:13.567Z</time>
      </trkpt>
      <trkpt lat="43.69307" lon="2.25402">
        <ele>242.8</ele>
        <time>2025-09-30T11:50:14.315Z</time>
      </trkpt>
      <trkpt lat="43.69308" lon="2.25399">
        <ele>243.2</ele>
        <time>2025-09-30T11:50:15.484Z</time>
      </trkpt>
      <trkpt lat="43.69308" lon="2.25396">
        <ele>243.4</ele>
        <time>2025-09-30T11:50:16.243Z</time>
      </trkpt>
      <trkpt lat="43.69309" lon="2.25394">
        <ele>243.8</ele>
        <time>2025-09-30T11:50:17.103Z</time>
      </trkpt>
      <trkpt lat="43.6931" lon="2.25391">
        <ele>244</ele>
        <time>2025-09-30T11:50:17.850Z</time>
      </trkpt>
      <trkpt lat="43.6931" lon="2.25388">
        <ele>244.4</ele>
        <time>2025-09-30T11:50:18.912Z</time>
      </trkpt>
      <trkpt lat="43.69311" lon="2.25385">
        <ele>244.8</ele>
        <time>2025-09-30T11:50:20.081Z</time>
      </trkpt>
      <trkpt lat="43.69312" lon="2.25383">
        <ele>245</ele>
        <time>2025-09-30T11:50:20.863Z</time>
      </trkpt>
      <trkpt lat="43.69313" lon="2.2538">
        <ele>245.4</ele>
        <time>2025-09-30T11:50:22.032Z</time>
      </trkpt>
      <trkpt lat="43.69313" lon="2.25378">
        <ele>245.8</ele>
        <time>2025-09-30T11:50:22.740Z</time>
      </trkpt>
      <trkpt lat="43.69314" lon="2.25375">
        <ele>246.2</ele>
        <time>2025-09-30T11:50:23.909Z</time>
      </trkpt>
      <trkpt lat="43.69315" lon="2.25372">
        <ele>246.4</ele>
        <time>2025-09-30T11:50:24.656Z</time>
      </trkpt>
      <trkpt lat="43.69316" lon="2.25369">
        <ele>246.8</ele>
        <time>2025-09-30T11:50:25.825Z</time>
      </trkpt>
      <trkpt lat="43.69317" lon="2.25366">
        <ele>247.2</ele>
        <time>2025-09-30T11:50:26.994Z</time>
      </trkpt>
      <trkpt lat="43.69318" lon="2.25364">
        <ele>247.6</ele>
        <time>2025-09-30T11:50:27.854Z</time>
      </trkpt>
      <trkpt lat="43.69319" lon="2.25361">
        <ele>247.8</ele>
        <time>2025-09-30T11:50:28.601Z</time>
      </trkpt>
      <trkpt lat="43.6932" lon="2.25358">
        <ele>248.2</ele>
        <time>2025-09-30T11:50:29.770Z</time>
      </trkpt>
      <trkpt lat="43.69321" lon="2.25355">
        <ele>248.4</ele>
        <time>2025-09-30T11:50:30.517Z</time>
      </trkpt>
      <trkpt lat="43.69322" lon="2.25352">
        <ele>248.8</ele>
        <time>2025-09-30T11:50:31.686Z</time>
      </trkpt>
      <trkpt lat="43.69324" lon="2.25349">
        <ele>249</ele>
        <time>2025-09-30T11:50:32.429Z</time>
      </trkpt>
      <trkpt lat="43.69326" lon="2.25346">
        <ele>249.4</ele>
        <time>2025-09-30T11:50:33.873Z</time>
      </trkpt>
      <trkpt lat="43.69327" lon="2.25343">
        <ele>249.6</ele>
        <time>2025-09-30T11:50:34.620Z</time>
      </trkpt>
      <trkpt lat="43.69329" lon="2.2534">
        <ele>249.8</ele>
        <time>2025-09-30T11:50:35.363Z</time>
      </trkpt>
      <trkpt lat="43.69331" lon="2.25337">
        <ele>250</ele>
        <time>2025-09-30T11:50:36.106Z</time>
      </trkpt>
      <trkpt lat="43.69332" lon="2.25334">
        <ele>250.4</ele>
        <time>2025-09-30T11:50:37.275Z</time>
      </trkpt>
      <trkpt lat="43.69334" lon="2.25331">
        <ele>250.6</ele>
        <time>2025-09-30T11:50:38.018Z</time>
      </trkpt>
      <trkpt lat="43.69336" lon="2.25328">
        <ele>250.8</ele>
        <time>2025-09-30T11:50:38.761Z</time>
      </trkpt>
      <trkpt lat="43.69338" lon="2.25325">
        <ele>251</ele>
        <time>2025-09-30T11:50:39.504Z</time>
      </trkpt>
      <trkpt lat="43.6934" lon="2.25323">
        <ele>251.2</ele>
        <time>2025-09-30T11:50:40.249Z</time>
      </trkpt>
      <trkpt lat="43.69342" lon="2.2532">
        <ele>251.4</ele>
        <time>2025-09-30T11:50:40.992Z</time>
      </trkpt>
      <trkpt lat="43.69344" lon="2.25317">
        <ele>251.6</ele>
        <time>2025-09-30T11:50:41.735Z</time>
      </trkpt>
      <trkpt lat="43.69346" lon="2.25314">
        <ele>251.8</ele>
        <time>2025-09-30T11:50:42.478Z</time>
      </trkpt>
      <trkpt lat="43.69348" lon="2.25312">
        <ele>251.8</ele>
        <time>2025-09-30T11:50:42.759Z</time>
      </trkpt>
      <trkpt lat="43.6935" lon="2.25309">
        <ele>252</ele>
        <time>2025-09-30T11:50:43.502Z</time>
      </trkpt>
      <trkpt lat="43.69352" lon="2.25306">
        <ele>252.2</ele>
        <time>2025-09-30T11:50:44.245Z</time>
      </trkpt>
      <trkpt lat="43.69354" lon="2.25303">
        <ele>252.4</ele>
        <time>2025-09-30T11:50:44.988Z</time>
      </trkpt>
      <trkpt lat="43.69356" lon="2.253">
        <ele>252.4</ele>
        <time>2025-09-30T11:50:45.325Z</time>
      </trkpt>
      <trkpt lat="43.69358" lon="2.25298">
        <ele>252.6</ele>
        <time>2025-09-30T11:50:46.070Z</time>
      </trkpt>
      <trkpt lat="43.6936" lon="2.25295">
        <ele>252.8</ele>
        <time>2025-09-30T11:50:46.813Z</time>
      </trkpt>
      <trkpt lat="43.69362" lon="2.25293">
        <ele>252.8</ele>
        <time>2025-09-30T11:50:47.094Z</time>
      </trkpt>
      <trkpt lat="43.69364" lon="2.2529">
        <ele>253</ele>
        <time>2025-09-30T11:50:47.837Z</time>
      </trkpt>
      <trkpt lat="43.69366" lon="2.25287">
        <ele>253</ele>
        <time>2025-09-30T11:50:48.174Z</time>
      </trkpt>
      <trkpt lat="43.69368" lon="2.25284">
        <ele>253.2</ele>
        <time>2025-09-30T11:50:48.917Z</time>
      </trkpt>
      <trkpt lat="43.6937" lon="2.2528">
        <ele>253.4</ele>
        <time>2025-09-30T11:50:49.683Z</time>
      </trkpt>
      <trkpt lat="43.69373" lon="2.25277">
        <ele>253.4</ele>
        <time>2025-09-30T11:50:50.106Z</time>
      </trkpt>
      <trkpt lat="43.69375" lon="2.25274">
        <ele>253.6</ele>
        <time>2025-09-30T11:50:50.849Z</time>
      </trkpt>
      <trkpt lat="43.69377" lon="2.25272">
        <ele>253.6</ele>
        <time>2025-09-30T11:50:51.130Z</time>
      </trkpt>
      <trkpt lat="43.69379" lon="2.25269">
        <ele>253.6</ele>
        <time>2025-09-30T11:50:51.467Z</time>
      </trkpt>
      <trkpt lat="43.69382" lon="2.25266">
        <ele>253.8</ele>
        <time>2025-09-30T11:50:52.244Z</time>
      </trkpt>
      <trkpt lat="43.69384" lon="2.25264">
        <ele>253.8</ele>
        <time>2025-09-30T11:50:52.526Z</time>
      </trkpt>
      <trkpt lat="43.69386" lon="2.25262">
        <ele>254</ele>
        <time>2025-09-30T11:50:53.270Z</time>
      </trkpt>
      <trkpt lat="43.69389" lon="2.25259">
        <ele>254</ele>
        <time>2025-09-30T11:50:53.693Z</time>
      </trkpt>
      <trkpt lat="43.69391" lon="2.25257">
        <ele>254</ele>
        <time>2025-09-30T11:50:53.975Z</time>
      </trkpt>
      <trkpt lat="43.69394" lon="2.25255">
        <ele>254.2</ele>
        <time>2025-09-30T11:50:54.731Z</time>
      </trkpt>
      <trkpt lat="43.69396" lon="2.25253">
        <ele>254.2</ele>
        <time>2025-09-30T11:50:55.013Z</time>
      </trkpt>
      <trkpt lat="43.69398" lon="2.25251">
        <ele>254.4</ele>
        <time>2025-09-30T11:50:55.757Z</time>
      </trkpt>
      <trkpt lat="43.694" lon="2.25249">
        <ele>254.4</ele>
        <time>2025-09-30T11:50:56.039Z</time>
      </trkpt>
      <trkpt lat="43.69402" lon="2.25247">
        <ele>254.4</ele>
        <time>2025-09-30T11:50:56.321Z</time>
      </trkpt>
      <trkpt lat="43.69405" lon="2.25245">
        <ele>254.6</ele>
        <time>2025-09-30T11:50:57.077Z</time>
      </trkpt>
      <trkpt lat="43.69407" lon="2.25242">
        <ele>254.8</ele>
        <time>2025-09-30T11:50:57.820Z</time>
      </trkpt>
      <trkpt lat="43.69409" lon="2.25241">
        <ele>254.8</ele>
        <time>2025-09-30T11:50:58.063Z</time>
      </trkpt>
      <trkpt lat="43.69411" lon="2.25239">
        <ele>255</ele>
        <time>2025-09-30T11:50:58.807Z</time>
      </trkpt>
      <trkpt lat="43.69413" lon="2.25236">
        <ele>255</ele>
        <time>2025-09-30T11:50:59.144Z</time>
      </trkpt>
      <trkpt lat="43.69415" lon="2.25234">
        <ele>255.2</ele>
        <time>2025-09-30T11:50:59.888Z</time>
      </trkpt>
      <trkpt lat="43.69418" lon="2.25232">
        <ele>255.4</ele>
        <time>2025-09-30T11:51:00.644Z</time>
      </trkpt>
      <trkpt lat="43.6942" lon="2.2523">
        <ele>255.4</ele>
        <time>2025-09-30T11:51:00.926Z</time>
      </trkpt>
      <trkpt lat="43.69423" lon="2.25228">
        <ele>255.6</ele>
        <time>2025-09-30T11:51:01.682Z</time>
      </trkpt>
      <trkpt lat="43.69425" lon="2.25227">
        <ele>255.8</ele>
        <time>2025-09-30T11:51:02.444Z</time>
      </trkpt>
      <trkpt lat="43.69427" lon="2.25225">
        <ele>256</ele>
        <time>2025-09-30T11:51:03.188Z</time>
      </trkpt>
      <trkpt lat="43.6943" lon="2.25224">
        <ele>256.2</ele>
        <time>2025-09-30T11:51:03.935Z</time>
      </trkpt>
      <trkpt lat="43.69432" lon="2.25223">
        <ele>256.2</ele>
        <time>2025-09-30T11:51:04.178Z</time>
      </trkpt>
      <trkpt lat="43.69435" lon="2.25222">
        <ele>256.4</ele>
        <time>2025-09-30T11:51:04.924Z</time>
      </trkpt>
      <trkpt lat="43.69438" lon="2.25221">
        <ele>256.6</ele>
        <time>2025-09-30T11:51:05.671Z</time>
      </trkpt>
      <trkpt lat="43.6944" lon="2.25219">
        <ele>256.8</ele>
        <time>2025-09-30T11:51:06.415Z</time>
      </trkpt>
      <trkpt lat="43.69443" lon="2.25218">
        <ele>257</ele>
        <time>2025-09-30T11:51:07.162Z</time>
      </trkpt>
      <trkpt lat="43.69445" lon="2.25217">
        <ele>257.2</ele>
        <time>2025-09-30T11:51:07.924Z</time>
      </trkpt>
      <trkpt lat="43.69447" lon="2.25216">
        <ele>257.4</ele>
        <time>2025-09-30T11:51:08.685Z</time>
      </trkpt>
      <trkpt lat="43.6945" lon="2.25215">
        <ele>257.6</ele>
        <time>2025-09-30T11:51:09.432Z</time>
      </trkpt>
      <trkpt lat="43.69452" lon="2.25214">
        <ele>257.8</ele>
        <time>2025-09-30T11:51:10.194Z</time>
      </trkpt>
      <trkpt lat="43.69454" lon="2.25212">
        <ele>258</ele>
        <time>2025-09-30T11:51:10.938Z</time>
      </trkpt>
      <trkpt lat="43.69456" lon="2.25211">
        <ele>258.4</ele>
        <time>2025-09-30T11:51:11.979Z</time>
      </trkpt>
      <trkpt lat="43.69459" lon="2.2521">
        <ele>258.6</ele>
        <time>2025-09-30T11:51:12.726Z</time>
      </trkpt>
      <trkpt lat="43.69461" lon="2.25209">
        <ele>259</ele>
        <time>2025-09-30T11:51:13.766Z</time>
      </trkpt>
      <trkpt lat="43.69463" lon="2.25208">
        <ele>259.2</ele>
        <time>2025-09-30T11:51:14.528Z</time>
      </trkpt>
      <trkpt lat="43.69466" lon="2.25206">
        <ele>259.4</ele>
        <time>2025-09-30T11:51:15.284Z</time>
      </trkpt>
      <trkpt lat="43.69468" lon="2.25205">
        <ele>259.6</ele>
        <time>2025-09-30T11:51:16.046Z</time>
      </trkpt>
      <trkpt lat="43.6947" lon="2.25203">
        <ele>259.8</ele>
        <time>2025-09-30T11:51:16.791Z</time>
      </trkpt>
      <trkpt lat="43.69473" lon="2.25202">
        <ele>260.2</ele>
        <time>2025-09-30T11:51:18.293Z</time>
      </trkpt>
      <trkpt lat="43.69475" lon="2.252">
        <ele>260.4</ele>
        <time>2025-09-30T11:51:19.037Z</time>
      </trkpt>
      <trkpt lat="43.69477" lon="2.25199">
        <ele>260.6</ele>
        <time>2025-09-30T11:51:19.799Z</time>
      </trkpt>
      <trkpt lat="43.69479" lon="2.25197">
        <ele>260.8</ele>
        <time>2025-09-30T11:51:20.543Z</time>
      </trkpt>
      <trkpt lat="43.69481" lon="2.25196">
        <ele>261</ele>
        <time>2025-09-30T11:51:21.305Z</time>
      </trkpt>
      <trkpt lat="43.69484" lon="2.25194">
        <ele>261.4</ele>
        <time>2025-09-30T11:51:22.860Z</time>
      </trkpt>
      <trkpt lat="43.69486" lon="2.25192">
        <ele>261.6</ele>
        <time>2025-09-30T11:51:23.604Z</time>
      </trkpt>
      <trkpt lat="43.69488" lon="2.25191">
        <ele>261.8</ele>
        <time>2025-09-30T11:51:24.366Z</time>
      </trkpt>
      <trkpt lat="43.6949" lon="2.25189">
        <ele>262</ele>
        <time>2025-09-30T11:51:25.110Z</time>
      </trkpt>
      <trkpt lat="43.69492" lon="2.25188">
        <ele>262.2</ele>
        <time>2025-09-30T11:51:25.872Z</time>
      </trkpt>
      <trkpt lat="43.69495" lon="2.25186">
        <ele>262.4</ele>
        <time>2025-09-30T11:51:26.628Z</time>
      </trkpt>
      <trkpt lat="43.69497" lon="2.25184">
        <ele>262.8</ele>
        <time>2025-09-30T11:51:27.836Z</time>
      </trkpt>
      <trkpt lat="43.69498" lon="2.25183">
        <ele>263</ele>
        <time>2025-09-30T11:51:28.440Z</time>
      </trkpt>
      <trkpt lat="43.69501" lon="2.25181">
        <ele>263.2</ele>
        <time>2025-09-30T11:51:29.196Z</time>
      </trkpt>
      <trkpt lat="43.69503" lon="2.25179">
        <ele>263.6</ele>
        <time>2025-09-30T11:51:30.404Z</time>
      </trkpt>
      <trkpt lat="43.69505" lon="2.25178">
        <ele>263.8</ele>
        <time>2025-09-30T11:51:31.166Z</time>
      </trkpt>
      <trkpt lat="43.69507" lon="2.25176">
        <ele>264</ele>
        <time>2025-09-30T11:51:31.910Z</time>
      </trkpt>
      <trkpt lat="43.69509" lon="2.25174">
        <ele>264.2</ele>
        <time>2025-09-30T11:51:32.654Z</time>
      </trkpt>
      <trkpt lat="43.69511" lon="2.25173">
        <ele>264.6</ele>
        <time>2025-09-30T11:51:33.695Z</time>
      </trkpt>
      <trkpt lat="43.69513" lon="2.25171">
        <ele>264.8</ele>
        <time>2025-09-30T11:51:34.439Z</time>
      </trkpt>
      <trkpt lat="43.69515" lon="2.25169">
        <ele>265</ele>
        <time>2025-09-30T11:51:35.184Z</time>
      </trkpt>
      <trkpt lat="43.69517" lon="2.25167">
        <ele>265.2</ele>
        <time>2025-09-30T11:51:35.928Z</time>
      </trkpt>
      <trkpt lat="43.69519" lon="2.25166">
        <ele>265.4</ele>
        <time>2025-09-30T11:51:36.690Z</time>
      </trkpt>
      <trkpt lat="43.69521" lon="2.25164">
        <ele>265.8</ele>
        <time>2025-09-30T11:51:37.898Z</time>
      </trkpt>
      <trkpt lat="43.69523" lon="2.25161">
        <ele>266</ele>
        <time>2025-09-30T11:51:38.641Z</time>
      </trkpt>
      <trkpt lat="43.69526" lon="2.25159">
        <ele>266.2</ele>
        <time>2025-09-30T11:51:39.397Z</time>
      </trkpt>
      <trkpt lat="43.69528" lon="2.25157">
        <ele>266.4</ele>
        <time>2025-09-30T11:51:40.141Z</time>
      </trkpt>
      <trkpt lat="43.6953" lon="2.25155">
        <ele>266.6</ele>
        <time>2025-09-30T11:51:40.886Z</time>
      </trkpt>
      <trkpt lat="43.69532" lon="2.25153">
        <ele>267</ele>
        <time>2025-09-30T11:51:42.093Z</time>
      </trkpt>
      <trkpt lat="43.69534" lon="2.25151">
        <ele>267.2</ele>
        <time>2025-09-30T11:51:42.838Z</time>
      </trkpt>
      <trkpt lat="43.69536" lon="2.25149">
        <ele>267.4</ele>
        <time>2025-09-30T11:51:43.582Z</time>
      </trkpt>
      <trkpt lat="43.69539" lon="2.25148">
        <ele>267.6</ele>
        <time>2025-09-30T11:51:44.329Z</time>
      </trkpt>
      <trkpt lat="43.69541" lon="2.25146">
        <ele>268</ele>
        <time>2025-09-30T11:51:45.536Z</time>
      </trkpt>
      <trkpt lat="43.69543" lon="2.25144">
        <ele>268.2</ele>
        <time>2025-09-30T11:51:46.281Z</time>
      </trkpt>
      <trkpt lat="43.69545" lon="2.25142">
        <ele>268.6</ele>
        <time>2025-09-30T11:51:47.489Z</time>
      </trkpt>
      <trkpt lat="43.69548" lon="2.25141">
        <ele>268.8</ele>
        <time>2025-09-30T11:51:48.235Z</time>
      </trkpt>
      <trkpt lat="43.6955" lon="2.2514">
        <ele>269</ele>
        <time>2025-09-30T11:51:48.997Z</time>
      </trkpt>
      <trkpt lat="43.69553" lon="2.25138">
        <ele>269.4</ele>
        <time>2025-09-30T11:51:50.551Z</time>
      </trkpt>
      <trkpt lat="43.69555" lon="2.25137">
        <ele>269.6</ele>
        <time>2025-09-30T11:51:51.313Z</time>
      </trkpt>
      <trkpt lat="43.69558" lon="2.25136">
        <ele>269.8</ele>
        <time>2025-09-30T11:51:52.060Z</time>
      </trkpt>
      <trkpt lat="43.69561" lon="2.25135">
        <ele>270</ele>
        <time>2025-09-30T11:51:52.806Z</time>
      </trkpt>
      <trkpt lat="43.69563" lon="2.25134">
        <ele>270.4</ele>
        <time>2025-09-30T11:51:53.847Z</time>
      </trkpt>
      <trkpt lat="43.69565" lon="2.25133">
        <ele>270.6</ele>
        <time>2025-09-30T11:51:54.609Z</time>
      </trkpt>
      <trkpt lat="43.69568" lon="2.25133">
        <ele>270.8</ele>
        <time>2025-09-30T11:51:55.353Z</time>
      </trkpt>
      <trkpt lat="43.6957" lon="2.25132">
        <ele>271.2</ele>
        <time>2025-09-30T11:51:56.394Z</time>
      </trkpt>
      <trkpt lat="43.69572" lon="2.25131">
        <ele>271.4</ele>
        <time>2025-09-30T11:51:57.156Z</time>
      </trkpt>
      <trkpt lat="43.69575" lon="2.2513">
        <ele>271.6</ele>
        <time>2025-09-30T11:51:57.903Z</time>
      </trkpt>
      <trkpt lat="43.69578" lon="2.25128">
        <ele>272</ele>
        <time>2025-09-30T11:51:59.457Z</time>
      </trkpt>
      <trkpt lat="43.69581" lon="2.25127">
        <ele>272.2</ele>
        <time>2025-09-30T11:52:00.203Z</time>
      </trkpt>
      <trkpt lat="43.69584" lon="2.25126">
        <ele>272.4</ele>
        <time>2025-09-30T11:52:00.950Z</time>
      </trkpt>
      <trkpt lat="43.69588" lon="2.25125">
        <ele>272.8</ele>
        <time>2025-09-30T11:52:02.488Z</time>
      </trkpt>
      <trkpt lat="43.69591" lon="2.25124">
        <ele>273</ele>
        <time>2025-09-30T11:52:03.234Z</time>
      </trkpt>
      <trkpt lat="43.69593" lon="2.25123">
        <ele>273.2</ele>
        <time>2025-09-30T11:52:03.996Z</time>
      </trkpt>
      <trkpt lat="43.69596" lon="2.25122">
        <ele>273.4</ele>
        <time>2025-09-30T11:52:04.743Z</time>
      </trkpt>
      <trkpt lat="43.69598" lon="2.25121">
        <ele>273.6</ele>
        <time>2025-09-30T11:52:05.504Z</time>
      </trkpt>
      <trkpt lat="43.69601" lon="2.25121">
        <ele>273.8</ele>
        <time>2025-09-30T11:52:06.249Z</time>
      </trkpt>
      <trkpt lat="43.69604" lon="2.2512">
        <ele>274</ele>
        <time>2025-09-30T11:52:06.995Z</time>
      </trkpt>
      <trkpt lat="43.69607" lon="2.25118">
        <ele>274.2</ele>
        <time>2025-09-30T11:52:07.751Z</time>
      </trkpt>
      <trkpt lat="43.6961" lon="2.25117">
        <ele>274.4</ele>
        <time>2025-09-30T11:52:08.498Z</time>
      </trkpt>
      <trkpt lat="43.69612" lon="2.25115">
        <ele>274.6</ele>
        <time>2025-09-30T11:52:09.242Z</time>
      </trkpt>
      <trkpt lat="43.69615" lon="2.25114">
        <ele>274.8</ele>
        <time>2025-09-30T11:52:09.989Z</time>
      </trkpt>
      <trkpt lat="43.69618" lon="2.25113">
        <ele>275</ele>
        <time>2025-09-30T11:52:10.735Z</time>
      </trkpt>
      <trkpt lat="43.69622" lon="2.25112">
        <ele>275.2</ele>
        <time>2025-09-30T11:52:11.537Z</time>
      </trkpt>
      <trkpt lat="43.69625" lon="2.2511">
        <ele>275.4</ele>
        <time>2025-09-30T11:52:12.293Z</time>
      </trkpt>
      <trkpt lat="43.69628" lon="2.25108">
        <ele>275.6</ele>
        <time>2025-09-30T11:52:13.049Z</time>
      </trkpt>
      <trkpt lat="43.69631" lon="2.25107">
        <ele>275.8</ele>
        <time>2025-09-30T11:52:13.795Z</time>
      </trkpt>
      <trkpt lat="43.69634" lon="2.25105">
        <ele>275.8</ele>
        <time>2025-09-30T11:52:14.176Z</time>
      </trkpt>
      <trkpt lat="43.69637" lon="2.25103">
        <ele>276</ele>
        <time>2025-09-30T11:52:14.932Z</time>
      </trkpt>
      <trkpt lat="43.6964" lon="2.25101">
        <ele>276.2</ele>
        <time>2025-09-30T11:52:15.688Z</time>
      </trkpt>
      <trkpt lat="43.69643" lon="2.25099">
        <ele>276.4</ele>
        <time>2025-09-30T11:52:16.444Z</time>
      </trkpt>
      <trkpt lat="43.69645" lon="2.25097">
        <ele>276.6</ele>
        <time>2025-09-30T11:52:17.188Z</time>
      </trkpt>
      <trkpt lat="43.69648" lon="2.25094">
        <ele>276.8</ele>
        <time>2025-09-30T11:52:17.965Z</time>
      </trkpt>
      <trkpt lat="43.69651" lon="2.25092">
        <ele>277</ele>
        <time>2025-09-30T11:52:18.721Z</time>
      </trkpt>
      <trkpt lat="43.69654" lon="2.25089">
        <ele>277.2</ele>
        <time>2025-09-30T11:52:19.498Z</time>
      </trkpt>
      <trkpt lat="43.69657" lon="2.25087">
        <ele>277.2</ele>
        <time>2025-09-30T11:52:19.878Z</time>
      </trkpt>
      <trkpt lat="43.69659" lon="2.25084">
        <ele>277.4</ele>
        <time>2025-09-30T11:52:20.621Z</time>
      </trkpt>
      <trkpt lat="43.69662" lon="2.25082">
        <ele>277.6</ele>
        <time>2025-09-30T11:52:21.377Z</time>
      </trkpt>
      <trkpt lat="43.69665" lon="2.25079">
        <ele>277.6</ele>
        <time>2025-09-30T11:52:21.800Z</time>
      </trkpt>
      <trkpt lat="43.69667" lon="2.25077">
        <ele>277.8</ele>
        <time>2025-09-30T11:52:22.544Z</time>
      </trkpt>
      <trkpt lat="43.6967" lon="2.25074">
        <ele>278</ele>
        <time>2025-09-30T11:52:23.321Z</time>
      </trkpt>
      <trkpt lat="43.69673" lon="2.25071">
        <ele>278</ele>
        <time>2025-09-30T11:52:23.743Z</time>
      </trkpt>
      <trkpt lat="43.69675" lon="2.25068">
        <ele>278.2</ele>
        <time>2025-09-30T11:52:24.486Z</time>
      </trkpt>
      <trkpt lat="43.69678" lon="2.25065">
        <ele>278.2</ele>
        <time>2025-09-30T11:52:24.909Z</time>
      </trkpt>
      <trkpt lat="43.69681" lon="2.25062">
        <ele>278.2</ele>
        <time>2025-09-30T11:52:25.332Z</time>
      </trkpt>
      <trkpt lat="43.69683" lon="2.25059">
        <ele>278.4</ele>
        <time>2025-09-30T11:52:26.075Z</time>
      </trkpt>
      <trkpt lat="43.69686" lon="2.25056">
        <ele>278.6</ele>
        <time>2025-09-30T11:52:26.851Z</time>
      </trkpt>
      <trkpt lat="43.69689" lon="2.25053">
        <ele>278.6</ele>
        <time>2025-09-30T11:52:27.274Z</time>
      </trkpt>
      <trkpt lat="43.69692" lon="2.2505">
        <ele>278.8</ele>
        <time>2025-09-30T11:52:28.051Z</time>
      </trkpt>
      <trkpt lat="43.69695" lon="2.25047">
        <ele>278.8</ele>
        <time>2025-09-30T11:52:28.473Z</time>
      </trkpt>
      <trkpt lat="43.69699" lon="2.25044">
        <ele>279</ele>
        <time>2025-09-30T11:52:29.314Z</time>
      </trkpt>
      <trkpt lat="43.69702" lon="2.25041">
        <ele>279.2</ele>
        <time>2025-09-30T11:52:30.090Z</time>
      </trkpt>
      <trkpt lat="43.69705" lon="2.25038">
        <ele>279.2</ele>
        <time>2025-09-30T11:52:30.513Z</time>
      </trkpt>
      <trkpt lat="43.69708" lon="2.25035">
        <ele>279.4</ele>
        <time>2025-09-30T11:52:31.290Z</time>
      </trkpt>
      <trkpt lat="43.69711" lon="2.25032">
        <ele>279.6</ele>
        <time>2025-09-30T11:52:32.066Z</time>
      </trkpt>
      <trkpt lat="43.69714" lon="2.25029">
        <ele>279.8</ele>
        <time>2025-09-30T11:52:32.843Z</time>
      </trkpt>
      <trkpt lat="43.69716" lon="2.25026">
        <ele>279.8</ele>
        <time>2025-09-30T11:52:33.180Z</time>
      </trkpt>
      <trkpt lat="43.6972" lon="2.25023">
        <ele>280</ele>
        <time>2025-09-30T11:52:34.020Z</time>
      </trkpt>
      <trkpt lat="43.69723" lon="2.2502">
        <ele>280</ele>
        <time>2025-09-30T11:52:34.443Z</time>
      </trkpt>
      <trkpt lat="43.69726" lon="2.25017">
        <ele>280.2</ele>
        <time>2025-09-30T11:52:35.219Z</time>
      </trkpt>
      <trkpt lat="43.69728" lon="2.25014">
        <ele>280.2</ele>
        <time>2025-09-30T11:52:35.556Z</time>
      </trkpt>
      <trkpt lat="43.69731" lon="2.25011">
        <ele>280.4</ele>
        <time>2025-09-30T11:52:36.333Z</time>
      </trkpt>
      <trkpt lat="43.69734" lon="2.25008">
        <ele>280.6</ele>
        <time>2025-09-30T11:52:37.109Z</time>
      </trkpt>
      <trkpt lat="43.69738" lon="2.25005">
        <ele>280.6</ele>
        <time>2025-09-30T11:52:37.629Z</time>
      </trkpt>
      <trkpt lat="43.6974" lon="2.25003">
        <ele>280.8</ele>
        <time>2025-09-30T11:52:38.373Z</time>
      </trkpt>
      <trkpt lat="43.69743" lon="2.25">
        <ele>281</ele>
        <time>2025-09-30T11:52:39.150Z</time>
      </trkpt>
      <trkpt lat="43.69746" lon="2.24997">
        <ele>281</ele>
        <time>2025-09-30T11:52:39.572Z</time>
      </trkpt>
      <trkpt lat="43.69749" lon="2.24994">
        <ele>281.2</ele>
        <time>2025-09-30T11:52:40.349Z</time>
      </trkpt>
      <trkpt lat="43.69751" lon="2.24992">
        <ele>281.4</ele>
        <time>2025-09-30T11:52:41.093Z</time>
      </trkpt>
      <trkpt lat="43.69754" lon="2.24989">
        <ele>281.6</ele>
        <time>2025-09-30T11:52:41.870Z</time>
      </trkpt>
      <trkpt lat="43.69757" lon="2.24986">
        <ele>281.6</ele>
        <time>2025-09-30T11:52:42.293Z</time>
      </trkpt>
      <trkpt lat="43.6976" lon="2.24983">
        <ele>281.8</ele>
        <time>2025-09-30T11:52:43.069Z</time>
      </trkpt>
      <trkpt lat="43.69763" lon="2.2498">
        <ele>282</ele>
        <time>2025-09-30T11:52:43.846Z</time>
      </trkpt>
      <trkpt lat="43.69767" lon="2.24976">
        <ele>282</ele>
        <time>2025-09-30T11:52:44.410Z</time>
      </trkpt>
      <trkpt lat="43.6977" lon="2.24973">
        <ele>282</ele>
        <time>2025-09-30T11:52:44.832Z</time>
      </trkpt>
      <trkpt lat="43.69773" lon="2.2497">
        <ele>282.2</ele>
        <time>2025-09-30T11:52:45.609Z</time>
      </trkpt>
      <trkpt lat="43.69776" lon="2.24966">
        <ele>282.2</ele>
        <time>2025-09-30T11:52:46.085Z</time>
      </trkpt>
      <trkpt lat="43.6978" lon="2.24962">
        <ele>282.2</ele>
        <time>2025-09-30T11:52:46.648Z</time>
      </trkpt>
      <trkpt lat="43.69784" lon="2.24959">
        <ele>282.2</ele>
        <time>2025-09-30T11:52:47.168Z</time>
      </trkpt>
      <trkpt lat="43.69787" lon="2.24955">
        <ele>282.4</ele>
        <time>2025-09-30T11:52:47.977Z</time>
      </trkpt>
      <trkpt lat="43.69791" lon="2.24951">
        <ele>282.4</ele>
        <time>2025-09-30T11:52:48.541Z</time>
      </trkpt>
      <trkpt lat="43.69795" lon="2.24948">
        <ele>282.4</ele>
        <time>2025-09-30T11:52:49.060Z</time>
      </trkpt>
      <trkpt lat="43.69798" lon="2.24944">
        <ele>282.4</ele>
        <time>2025-09-30T11:52:49.536Z</time>
      </trkpt>
      <trkpt lat="43.69802" lon="2.24942">
        <ele>282.6</ele>
        <time>2025-09-30T11:52:50.352Z</time>
      </trkpt>
      <trkpt lat="43.69806" lon="2.24939">
        <ele>282.6</ele>
        <time>2025-09-30T11:52:50.872Z</time>
      </trkpt>
      <trkpt lat="43.6981" lon="2.24937">
        <ele>282.8</ele>
        <time>2025-09-30T11:52:51.688Z</time>
      </trkpt>
      <trkpt lat="43.69814" lon="2.24935">
        <ele>282.8</ele>
        <time>2025-09-30T11:52:52.174Z</time>
      </trkpt>
      <trkpt lat="43.69818" lon="2.24934">
        <ele>282.8</ele>
        <time>2025-09-30T11:52:52.638Z</time>
      </trkpt>
      <trkpt lat="43.69823" lon="2.24933">
        <ele>283</ele>
        <time>2025-09-30T11:52:53.522Z</time>
      </trkpt>
      <trkpt lat="43.69828" lon="2.24933">
        <ele>283</ele>
        <time>2025-09-30T11:52:54.093Z</time>
      </trkpt>
      <trkpt lat="43.69833" lon="2.24933">
        <ele>283</ele>
        <time>2025-09-30T11:52:54.664Z</time>
      </trkpt>
      <trkpt lat="43.69838" lon="2.24932">
        <ele>283</ele>
        <time>2025-09-30T11:52:55.241Z</time>
      </trkpt>
      <trkpt lat="43.69843" lon="2.24932">
        <ele>283</ele>
        <time>2025-09-30T11:52:55.812Z</time>
      </trkpt>
      <trkpt lat="43.69849" lon="2.24932">
        <ele>283.2</ele>
        <time>2025-09-30T11:52:56.787Z</time>
      </trkpt>
      <trkpt lat="43.69854" lon="2.24933">
        <ele>283.2</ele>
        <time>2025-09-30T11:52:57.364Z</time>
      </trkpt>
      <trkpt lat="43.69859" lon="2.24933">
        <ele>283.2</ele>
        <time>2025-09-30T11:52:57.935Z</time>
      </trkpt>
      <trkpt lat="43.69864" lon="2.24933">
        <ele>283.2</ele>
        <time>2025-09-30T11:52:58.506Z</time>
      </trkpt>
      <trkpt lat="43.69869" lon="2.24933">
        <ele>283.2</ele>
        <time>2025-09-30T11:52:59.077Z</time>
      </trkpt>
      <trkpt lat="43.69874" lon="2.24933">
        <ele>283.2</ele>
        <time>2025-09-30T11:52:59.648Z</time>
      </trkpt>
      <trkpt lat="43.6988" lon="2.24933">
        <ele>283.2</ele>
        <time>2025-09-30T11:53:00.333Z</time>
      </trkpt>
      <trkpt lat="43.69885" lon="2.24933">
        <ele>283.2</ele>
        <time>2025-09-30T11:53:00.904Z</time>
      </trkpt>
      <trkpt lat="43.6989" lon="2.24933">
        <ele>283.4</ele>
        <time>2025-09-30T11:53:01.783Z</time>
      </trkpt>
      <trkpt lat="43.69895" lon="2.24933">
        <ele>283.4</ele>
        <time>2025-09-30T11:53:02.354Z</time>
      </trkpt>
      <trkpt lat="43.699" lon="2.24934">
        <ele>283.4</ele>
        <time>2025-09-30T11:53:02.931Z</time>
      </trkpt>
      <trkpt lat="43.69906" lon="2.24934">
        <ele>283.4</ele>
        <time>2025-09-30T11:53:03.616Z</time>
      </trkpt>
      <trkpt lat="43.69911" lon="2.24934">
        <ele>283.4</ele>
        <time>2025-09-30T11:53:04.187Z</time>
      </trkpt>
      <trkpt lat="43.69916" lon="2.24934">
        <ele>283.6</ele>
        <time>2025-09-30T11:53:05.067Z</time>
      </trkpt>
      <trkpt lat="43.69921" lon="2.24934">
        <ele>283.6</ele>
        <time>2025-09-30T11:53:05.638Z</time>
      </trkpt>
      <trkpt lat="43.69926" lon="2.24934">
        <ele>283.6</ele>
        <time>2025-09-30T11:53:06.209Z</time>
      </trkpt>
      <trkpt lat="43.69931" lon="2.24934">
        <ele>283.8</ele>
        <time>2025-09-30T11:53:07.088Z</time>
      </trkpt>
      <trkpt lat="43.69936" lon="2.24934">
        <ele>284</ele>
        <time>2025-09-30T11:53:07.968Z</time>
      </trkpt>
      <trkpt lat="43.6994" lon="2.24934">
        <ele>284</ele>
        <time>2025-09-30T11:53:08.425Z</time>
      </trkpt>
      <trkpt lat="43.69944" lon="2.24935">
        <ele>284.2</ele>
        <time>2025-09-30T11:53:09.226Z</time>
      </trkpt>
      <trkpt lat="43.69949" lon="2.24935">
        <ele>284.4</ele>
        <time>2025-09-30T11:53:10.106Z</time>
      </trkpt>
      <trkpt lat="43.69953" lon="2.24935">
        <ele>284.6</ele>
        <time>2025-09-30T11:53:10.903Z</time>
      </trkpt>
      <trkpt lat="43.69957" lon="2.24935">
        <ele>284.8</ele>
        <time>2025-09-30T11:53:11.699Z</time>
      </trkpt>
      <trkpt lat="43.6996" lon="2.24935">
        <ele>285.2</ele>
        <time>2025-09-30T11:53:13.167Z</time>
      </trkpt>
      <trkpt lat="43.69964" lon="2.24935">
        <ele>285.4</ele>
        <time>2025-09-30T11:53:13.964Z</time>
      </trkpt>
      <trkpt lat="43.69967" lon="2.24935">
        <ele>285.6</ele>
        <time>2025-09-30T11:53:14.708Z</time>
      </trkpt>
      <trkpt lat="43.69971" lon="2.24935">
        <ele>286</ele>
        <time>2025-09-30T11:53:16.251Z</time>
      </trkpt>
      <trkpt lat="43.69975" lon="2.24935">
        <ele>286.2</ele>
        <time>2025-09-30T11:53:17.048Z</time>
      </trkpt>
      <trkpt lat="43.69978" lon="2.24934">
        <ele>286.6</ele>
        <time>2025-09-30T11:53:18.549Z</time>
      </trkpt>
      <trkpt lat="43.69982" lon="2.24934">
        <ele>286.8</ele>
        <time>2025-09-30T11:53:19.346Z</time>
      </trkpt>
      <trkpt lat="43.69985" lon="2.24933">
        <ele>287</ele>
        <time>2025-09-30T11:53:20.093Z</time>
      </trkpt>
      <trkpt lat="43.69988" lon="2.24933">
        <ele>287.4</ele>
        <time>2025-09-30T11:53:21.561Z</time>
      </trkpt>
      <trkpt lat="43.69991" lon="2.24932">
        <ele>287.6</ele>
        <time>2025-09-30T11:53:22.307Z</time>
      </trkpt>
      <trkpt lat="43.69995" lon="2.24933">
        <ele>288</ele>
        <time>2025-09-30T11:53:23.845Z</time>
      </trkpt>
      <trkpt lat="43.69998" lon="2.24933">
        <ele>288.2</ele>
        <time>2025-09-30T11:53:24.589Z</time>
      </trkpt>
      <trkpt lat="43.70002" lon="2.24933">
        <ele>288.4</ele>
        <time>2025-09-30T11:53:25.386Z</time>
      </trkpt>
      <trkpt lat="43.70006" lon="2.24933">
        <ele>288.8</ele>
        <time>2025-09-30T11:53:26.928Z</time>
      </trkpt>
      <trkpt lat="43.70009" lon="2.24933">
        <ele>289</ele>
        <time>2025-09-30T11:53:27.672Z</time>
      </trkpt>
      <trkpt lat="43.70013" lon="2.24932">
        <ele>289.2</ele>
        <time>2025-09-30T11:53:28.474Z</time>
      </trkpt>
      <trkpt lat="43.70016" lon="2.24932">
        <ele>289.4</ele>
        <time>2025-09-30T11:53:29.218Z</time>
      </trkpt>
      <trkpt lat="43.7002" lon="2.24931">
        <ele>289.8</ele>
        <time>2025-09-30T11:53:30.756Z</time>
      </trkpt>
      <trkpt lat="43.70023" lon="2.24931">
        <ele>290</ele>
        <time>2025-09-30T11:53:31.500Z</time>
      </trkpt>
      <trkpt lat="43.70027" lon="2.2493">
        <ele>290.2</ele>
        <time>2025-09-30T11:53:32.301Z</time>
      </trkpt>
      <trkpt lat="43.7003" lon="2.2493">
        <ele>290.4</ele>
        <time>2025-09-30T11:53:33.045Z</time>
      </trkpt>
      <trkpt lat="43.70033" lon="2.24929">
        <ele>290.6</ele>
        <time>2025-09-30T11:53:33.792Z</time>
      </trkpt>
      <trkpt lat="43.70037" lon="2.24928">
        <ele>290.8</ele>
        <time>2025-09-30T11:53:34.593Z</time>
      </trkpt>
      <trkpt lat="43.7004" lon="2.24928">
        <ele>291.2</ele>
        <time>2025-09-30T11:53:36.061Z</time>
      </trkpt>
      <trkpt lat="43.70043" lon="2.24928">
        <ele>291.4</ele>
        <time>2025-09-30T11:53:36.806Z</time>
      </trkpt>
      <trkpt lat="43.70046" lon="2.24928">
        <ele>291.6</ele>
        <time>2025-09-30T11:53:37.550Z</time>
      </trkpt>
      <trkpt lat="43.70049" lon="2.24928">
        <ele>291.8</ele>
        <time>2025-09-30T11:53:38.294Z</time>
      </trkpt>
      <trkpt lat="43.70051" lon="2.24928">
        <ele>292</ele>
        <time>2025-09-30T11:53:39.065Z</time>
      </trkpt>
      <trkpt lat="43.70054" lon="2.24928">
        <ele>292.2</ele>
        <time>2025-09-30T11:53:39.809Z</time>
      </trkpt>
      <trkpt lat="43.70056" lon="2.24928">
        <ele>292.2</ele>
        <time>2025-09-30T11:53:40.037Z</time>
      </trkpt>
      <trkpt lat="43.70058" lon="2.24928">
        <ele>292.4</ele>
        <time>2025-09-30T11:53:40.809Z</time>
      </trkpt>
      <trkpt lat="43.70061" lon="2.24928">
        <ele>292.6</ele>
        <time>2025-09-30T11:53:41.553Z</time>
      </trkpt>
      <trkpt lat="43.70064" lon="2.24928">
        <ele>292.8</ele>
        <time>2025-09-30T11:53:42.297Z</time>
      </trkpt>
      <trkpt lat="43.70067" lon="2.24929">
        <ele>293</ele>
        <time>2025-09-30T11:53:43.043Z</time>
      </trkpt>
      <trkpt lat="43.7007" lon="2.24931">
        <ele>293.2</ele>
        <time>2025-09-30T11:53:43.799Z</time>
      </trkpt>
      <trkpt lat="43.70073" lon="2.24933">
        <ele>293.4</ele>
        <time>2025-09-30T11:53:44.556Z</time>
      </trkpt>
      <trkpt lat="43.70076" lon="2.24936">
        <ele>293.6</ele>
        <time>2025-09-30T11:53:45.332Z</time>
      </trkpt>
      <trkpt lat="43.70079" lon="2.2494">
        <ele>294</ele>
        <time>2025-09-30T11:53:46.862Z</time>
      </trkpt>
      <trkpt lat="43.70081" lon="2.24943">
        <ele>294.2</ele>
        <time>2025-09-30T11:53:47.605Z</time>
      </trkpt>
      <trkpt lat="43.70083" lon="2.24948">
        <ele>294.6</ele>
        <time>2025-09-30T11:53:49.138Z</time>
      </trkpt>
      <trkpt lat="43.70084" lon="2.24952">
        <ele>294.8</ele>
        <time>2025-09-30T11:53:49.884Z</time>
      </trkpt>
      <trkpt lat="43.70086" lon="2.24956">
        <ele>295.2</ele>
        <time>2025-09-30T11:53:51.448Z</time>
      </trkpt>
      <trkpt lat="43.70087" lon="2.24961">
        <ele>295.4</ele>
        <time>2025-09-30T11:53:52.228Z</time>
      </trkpt>
      <trkpt lat="43.70088" lon="2.24965">
        <ele>295.6</ele>
        <time>2025-09-30T11:53:52.974Z</time>
      </trkpt>
      <trkpt lat="43.70089" lon="2.2497">
        <ele>295.8</ele>
        <time>2025-09-30T11:53:53.753Z</time>
      </trkpt>
      <trkpt lat="43.70091" lon="2.24975">
        <ele>296.2</ele>
        <time>2025-09-30T11:53:55.286Z</time>
      </trkpt>
      <trkpt lat="43.70092" lon="2.2498">
        <ele>296.2</ele>
        <time>2025-09-30T11:53:55.714Z</time>
      </trkpt>
      <trkpt lat="43.70093" lon="2.24984">
        <ele>296.4</ele>
        <time>2025-09-30T11:53:56.460Z</time>
      </trkpt>
      <trkpt lat="43.70095" lon="2.24989">
        <ele>296.6</ele>
        <time>2025-09-30T11:53:57.267Z</time>
      </trkpt>
      <trkpt lat="43.70096" lon="2.24994">
        <ele>296.8</ele>
        <time>2025-09-30T11:53:58.046Z</time>
      </trkpt>
      <trkpt lat="43.70097" lon="2.24998">
        <ele>297</ele>
        <time>2025-09-30T11:53:58.792Z</time>
      </trkpt>
      <trkpt lat="43.70098" lon="2.25003">
        <ele>297.2</ele>
        <time>2025-09-30T11:53:59.572Z</time>
      </trkpt>
      <trkpt lat="43.701" lon="2.25008">
        <ele>297.4</ele>
        <time>2025-09-30T11:54:00.378Z</time>
      </trkpt>
      <trkpt lat="43.70101" lon="2.25012">
        <ele>297.6</ele>
        <time>2025-09-30T11:54:01.124Z</time>
      </trkpt>
      <trkpt lat="43.70102" lon="2.25017">
        <ele>297.8</ele>
        <time>2025-09-30T11:54:01.904Z</time>
      </trkpt>
      <trkpt lat="43.70103" lon="2.25023">
        <ele>298</ele>
        <time>2025-09-30T11:54:02.736Z</time>
      </trkpt>
      <trkpt lat="43.70104" lon="2.25027">
        <ele>298.2</ele>
        <time>2025-09-30T11:54:03.481Z</time>
      </trkpt>
      <trkpt lat="43.70106" lon="2.25032">
        <ele>298.4</ele>
        <time>2025-09-30T11:54:04.288Z</time>
      </trkpt>
      <trkpt lat="43.70107" lon="2.25036">
        <ele>298.6</ele>
        <time>2025-09-30T11:54:05.034Z</time>
      </trkpt>
      <trkpt lat="43.70109" lon="2.25041">
        <ele>299</ele>
        <time>2025-09-30T11:54:06.566Z</time>
      </trkpt>
      <trkpt lat="43.7011" lon="2.25046">
        <ele>299.2</ele>
        <time>2025-09-30T11:54:07.346Z</time>
      </trkpt>
      <trkpt lat="43.70111" lon="2.2505">
        <ele>299.4</ele>
        <time>2025-09-30T11:54:08.092Z</time>
      </trkpt>
      <trkpt lat="43.70112" lon="2.25055">
        <ele>299.6</ele>
        <time>2025-09-30T11:54:08.871Z</time>
      </trkpt>
      <trkpt lat="43.70113" lon="2.2506">
        <ele>299.8</ele>
        <time>2025-09-30T11:54:09.651Z</time>
      </trkpt>
      <trkpt lat="43.70114" lon="2.25065">
        <ele>300</ele>
        <time>2025-09-30T11:54:10.431Z</time>
      </trkpt>
      <trkpt lat="43.70116" lon="2.2507">
        <ele>300.2</ele>
        <time>2025-09-30T11:54:11.237Z</time>
      </trkpt>
      <trkpt lat="43.70117" lon="2.25075">
        <ele>300.4</ele>
        <time>2025-09-30T11:54:12.017Z</time>
      </trkpt>
      <trkpt lat="43.70119" lon="2.2508">
        <ele>300.6</ele>
        <time>2025-09-30T11:54:12.824Z</time>
      </trkpt>
      <trkpt lat="43.7012" lon="2.25085">
        <ele>300.8</ele>
        <time>2025-09-30T11:54:13.603Z</time>
      </trkpt>
      <trkpt lat="43.70121" lon="2.2509">
        <ele>301</ele>
        <time>2025-09-30T11:54:14.383Z</time>
      </trkpt>
      <trkpt lat="43.70123" lon="2.25096">
        <ele>301.2</ele>
        <time>2025-09-30T11:54:15.243Z</time>
      </trkpt>
      <trkpt lat="43.70124" lon="2.251">
        <ele>301.4</ele>
        <time>2025-09-30T11:54:15.988Z</time>
      </trkpt>
      <trkpt lat="43.70126" lon="2.25105">
        <ele>301.6</ele>
        <time>2025-09-30T11:54:16.795Z</time>
      </trkpt>
      <trkpt lat="43.70128" lon="2.2511">
        <ele>301.8</ele>
        <time>2025-09-30T11:54:17.601Z</time>
      </trkpt>
      <trkpt lat="43.70129" lon="2.25115">
        <ele>301.8</ele>
        <time>2025-09-30T11:54:18.030Z</time>
      </trkpt>
      <trkpt lat="43.7013" lon="2.2512">
        <ele>302</ele>
        <time>2025-09-30T11:54:18.809Z</time>
      </trkpt>
      <trkpt lat="43.70132" lon="2.25126">
        <ele>302.2</ele>
        <time>2025-09-30T11:54:19.669Z</time>
      </trkpt>
      <trkpt lat="43.70133" lon="2.25131">
        <ele>302.4</ele>
        <time>2025-09-30T11:54:20.449Z</time>
      </trkpt>
      <trkpt lat="43.70134" lon="2.25136">
        <ele>302.4</ele>
        <time>2025-09-30T11:54:20.877Z</time>
      </trkpt>
      <trkpt lat="43.70135" lon="2.25142">
        <ele>302.6</ele>
        <time>2025-09-30T11:54:21.709Z</time>
      </trkpt>
      <trkpt lat="43.70137" lon="2.25148">
        <ele>302.6</ele>
        <time>2025-09-30T11:54:22.254Z</time>
      </trkpt>
      <trkpt lat="43.70138" lon="2.25154">
        <ele>302.6</ele>
        <time>2025-09-30T11:54:22.763Z</time>
      </trkpt>
      <trkpt lat="43.70139" lon="2.2516">
        <ele>302.6</ele>
        <time>2025-09-30T11:54:23.271Z</time>
      </trkpt>
      <trkpt lat="43.70139" lon="2.25167">
        <ele>302.6</ele>
        <time>2025-09-30T11:54:23.849Z</time>
      </trkpt>
      <trkpt lat="43.7014" lon="2.25174">
        <ele>302.6</ele>
        <time>2025-09-30T11:54:24.438Z</time>
      </trkpt>
      <trkpt lat="43.7014" lon="2.25181">
        <ele>302.6</ele>
        <time>2025-09-30T11:54:25.016Z</time>
      </trkpt>
      <trkpt lat="43.70139" lon="2.25189">
        <ele>302.4</ele>
        <time>2025-09-30T11:54:25.517Z</time>
      </trkpt>
      <trkpt lat="43.70138" lon="2.25196">
        <ele>302.4</ele>
        <time>2025-09-30T11:54:26.106Z</time>
      </trkpt>
      <trkpt lat="43.70138" lon="2.25204">
        <ele>302.4</ele>
        <time>2025-09-30T11:54:26.767Z</time>
      </trkpt>
      <trkpt lat="43.70137" lon="2.25211">
        <ele>302.2</ele>
        <time>2025-09-30T11:54:27.193Z</time>
      </trkpt>
      <trkpt lat="43.70136" lon="2.25219">
        <ele>302.2</ele>
        <time>2025-09-30T11:54:27.863Z</time>
      </trkpt>
      <trkpt lat="43.70135" lon="2.25226">
        <ele>302.2</ele>
        <time>2025-09-30T11:54:28.452Z</time>
      </trkpt>
      <trkpt lat="43.70134" lon="2.25234">
        <ele>302.2</ele>
        <time>2025-09-30T11:54:29.122Z</time>
      </trkpt>
      <trkpt lat="43.70133" lon="2.25243">
        <ele>302</ele>
        <time>2025-09-30T11:54:29.701Z</time>
      </trkpt>
      <trkpt lat="43.70132" lon="2.25251">
        <ele>302</ele>
        <time>2025-09-30T11:54:30.371Z</time>
      </trkpt>
      <trkpt lat="43.70131" lon="2.2526">
        <ele>302</ele>
        <time>2025-09-30T11:54:31.123Z</time>
      </trkpt>
      <trkpt lat="43.7013" lon="2.25269">
        <ele>302</ele>
        <time>2025-09-30T11:54:31.874Z</time>
      </trkpt>
      <trkpt lat="43.70129" lon="2.25277">
        <ele>301.8</ele>
        <time>2025-09-30T11:54:32.376Z</time>
      </trkpt>
      <trkpt lat="43.70128" lon="2.25286">
        <ele>301.8</ele>
        <time>2025-09-30T11:54:33.128Z</time>
      </trkpt>
      <trkpt lat="43.70127" lon="2.25294">
        <ele>301.8</ele>
        <time>2025-09-30T11:54:33.798Z</time>
      </trkpt>
      <trkpt lat="43.70126" lon="2.25302">
        <ele>301.8</ele>
        <time>2025-09-30T11:54:34.468Z</time>
      </trkpt>
      <trkpt lat="43.70125" lon="2.25309">
        <ele>301.8</ele>
        <time>2025-09-30T11:54:35.057Z</time>
      </trkpt>
      <trkpt lat="43.70125" lon="2.25316">
        <ele>301.8</ele>
        <time>2025-09-30T11:54:35.635Z</time>
      </trkpt>
      <trkpt lat="43.70124" lon="2.25323">
        <ele>302</ele>
        <time>2025-09-30T11:54:36.529Z</time>
      </trkpt>
      <trkpt lat="43.70123" lon="2.25329">
        <ele>302</ele>
        <time>2025-09-30T11:54:37.038Z</time>
      </trkpt>
      <trkpt lat="43.70122" lon="2.25336">
        <ele>302.2</ele>
        <time>2025-09-30T11:54:37.932Z</time>
      </trkpt>
      <trkpt lat="43.70121" lon="2.25342">
        <ele>302.2</ele>
        <time>2025-09-30T11:54:38.440Z</time>
      </trkpt>
      <trkpt lat="43.7012" lon="2.25349">
        <ele>302.4</ele>
        <time>2025-09-30T11:54:39.334Z</time>
      </trkpt>
      <trkpt lat="43.7012" lon="2.25356">
        <ele>302.4</ele>
        <time>2025-09-30T11:54:39.912Z</time>
      </trkpt>
      <trkpt lat="43.70119" lon="2.25363">
        <ele>302.4</ele>
        <time>2025-09-30T11:54:40.501Z</time>
      </trkpt>
      <trkpt lat="43.70117" lon="2.25369">
        <ele>302.4</ele>
        <time>2025-09-30T11:54:41.046Z</time>
      </trkpt>
      <trkpt lat="43.70116" lon="2.25374">
        <ele>302.4</ele>
        <time>2025-09-30T11:54:41.475Z</time>
      </trkpt>
      <trkpt lat="43.70115" lon="2.2538">
        <ele>302.6</ele>
        <time>2025-09-30T11:54:42.307Z</time>
      </trkpt>
      <trkpt lat="43.70113" lon="2.25385">
        <ele>302.8</ele>
        <time>2025-09-30T11:54:43.113Z</time>
      </trkpt>
      <trkpt lat="43.70111" lon="2.2539">
        <ele>302.8</ele>
        <time>2025-09-30T11:54:43.585Z</time>
      </trkpt>
      <trkpt lat="43.7011" lon="2.25395">
        <ele>303</ele>
        <time>2025-09-30T11:54:44.365Z</time>
      </trkpt>
      <trkpt lat="43.70107" lon="2.254">
        <ele>303.2</ele>
        <time>2025-09-30T11:54:45.217Z</time>
      </trkpt>
      <trkpt lat="43.70105" lon="2.25405">
        <ele>303.4</ele>
        <time>2025-09-30T11:54:46.024Z</time>
      </trkpt>
      <trkpt lat="43.70103" lon="2.2541">
        <ele>303.6</ele>
        <time>2025-09-30T11:54:46.830Z</time>
      </trkpt>
      <trkpt lat="43.701" lon="2.25415">
        <ele>303.8</ele>
        <time>2025-09-30T11:54:47.683Z</time>
      </trkpt>
      <trkpt lat="43.70098" lon="2.25419">
        <ele>304</ele>
        <time>2025-09-30T11:54:48.449Z</time>
      </trkpt>
      <trkpt lat="43.70096" lon="2.25424">
        <ele>304.4</ele>
        <time>2025-09-30T11:54:49.981Z</time>
      </trkpt>
      <trkpt lat="43.70093" lon="2.25429">
        <ele>304.6</ele>
        <time>2025-09-30T11:54:50.834Z</time>
      </trkpt>
      <trkpt lat="43.70091" lon="2.25433">
        <ele>304.8</ele>
        <time>2025-09-30T11:54:51.600Z</time>
      </trkpt>
      <trkpt lat="43.70088" lon="2.25437">
        <ele>305</ele>
        <time>2025-09-30T11:54:52.409Z</time>
      </trkpt>
      <trkpt lat="43.70086" lon="2.25441">
        <ele>305.2</ele>
        <time>2025-09-30T11:54:53.175Z</time>
      </trkpt>
      <trkpt lat="43.70084" lon="2.25445">
        <ele>305.4</ele>
        <time>2025-09-30T11:54:53.940Z</time>
      </trkpt>
      <trkpt lat="43.70082" lon="2.25449">
        <ele>305.6</ele>
        <time>2025-09-30T11:54:54.706Z</time>
      </trkpt>
      <trkpt lat="43.7008" lon="2.25453">
        <ele>306</ele>
        <time>2025-09-30T11:54:56.270Z</time>
      </trkpt>
      <trkpt lat="43.70077" lon="2.25458">
        <ele>306.2</ele>
        <time>2025-09-30T11:54:57.123Z</time>
      </trkpt>
      <trkpt lat="43.70075" lon="2.25462">
        <ele>306.4</ele>
        <time>2025-09-30T11:54:57.889Z</time>
      </trkpt>
      <trkpt lat="43.70073" lon="2.25467">
        <ele>306.6</ele>
        <time>2025-09-30T11:54:58.695Z</time>
      </trkpt>
      <trkpt lat="43.70071" lon="2.25472">
        <ele>307</ele>
        <time>2025-09-30T11:55:00.228Z</time>
      </trkpt>
      <trkpt lat="43.7007" lon="2.25477">
        <ele>307.2</ele>
        <time>2025-09-30T11:55:01.008Z</time>
      </trkpt>
      <trkpt lat="43.70068" lon="2.25482">
        <ele>307.4</ele>
        <time>2025-09-30T11:55:01.814Z</time>
      </trkpt>
      <trkpt lat="43.70067" lon="2.25487">
        <ele>307.6</ele>
        <time>2025-09-30T11:55:02.594Z</time>
      </trkpt>
      <trkpt lat="43.70065" lon="2.25492">
        <ele>308</ele>
        <time>2025-09-30T11:55:04.126Z</time>
      </trkpt>
      <trkpt lat="43.70064" lon="2.25497">
        <ele>308.2</ele>
        <time>2025-09-30T11:55:04.906Z</time>
      </trkpt>
      <trkpt lat="43.70063" lon="2.25502">
        <ele>308.4</ele>
        <time>2025-09-30T11:55:05.686Z</time>
      </trkpt>
      <trkpt lat="43.70062" lon="2.25507">
        <ele>308.6</ele>
        <time>2025-09-30T11:55:06.465Z</time>
      </trkpt>
      <trkpt lat="43.70061" lon="2.25512">
        <ele>308.8</ele>
        <time>2025-09-30T11:55:07.245Z</time>
      </trkpt>
      <trkpt lat="43.70061" lon="2.25517">
        <ele>309</ele>
        <time>2025-09-30T11:55:08.016Z</time>
      </trkpt>
      <trkpt lat="43.7006" lon="2.25522">
        <ele>309.2</ele>
        <time>2025-09-30T11:55:08.796Z</time>
      </trkpt>
      <trkpt lat="43.70059" lon="2.25528">
        <ele>309.4</ele>
        <time>2025-09-30T11:55:09.628Z</time>
      </trkpt>
      <trkpt lat="43.70058" lon="2.25533">
        <ele>309.6</ele>
        <time>2025-09-30T11:55:10.408Z</time>
      </trkpt>
      <trkpt lat="43.70058" lon="2.25538">
        <ele>309.8</ele>
        <time>2025-09-30T11:55:11.179Z</time>
      </trkpt>
      <trkpt lat="43.70058" lon="2.25543">
        <ele>310</ele>
        <time>2025-09-30T11:55:11.950Z</time>
      </trkpt>
      <trkpt lat="43.70057" lon="2.25548">
        <ele>310.4</ele>
        <time>2025-09-30T11:55:13.509Z</time>
      </trkpt>
      <trkpt lat="43.70057" lon="2.25553">
        <ele>310.6</ele>
        <time>2025-09-30T11:55:14.280Z</time>
      </trkpt>
      <trkpt lat="43.70057" lon="2.25558">
        <ele>310.8</ele>
        <time>2025-09-30T11:55:15.051Z</time>
      </trkpt>
      <trkpt lat="43.70058" lon="2.25564">
        <ele>311</ele>
        <time>2025-09-30T11:55:15.883Z</time>
      </trkpt>
      <trkpt lat="43.70058" lon="2.25569">
        <ele>311.2</ele>
        <time>2025-09-30T11:55:16.655Z</time>
      </trkpt>
      <trkpt lat="43.70058" lon="2.25574">
        <ele>311.4</ele>
        <time>2025-09-30T11:55:17.426Z</time>
      </trkpt>
      <trkpt lat="43.70059" lon="2.25579">
        <ele>311.8</ele>
        <time>2025-09-30T11:55:18.984Z</time>
      </trkpt>
      <trkpt lat="43.7006" lon="2.25584">
        <ele>312</ele>
        <time>2025-09-30T11:55:19.764Z</time>
      </trkpt>
      <trkpt lat="43.7006" lon="2.25589">
        <ele>312.2</ele>
        <time>2025-09-30T11:55:20.535Z</time>
      </trkpt>
      <trkpt lat="43.70061" lon="2.25594">
        <ele>312.4</ele>
        <time>2025-09-30T11:55:21.315Z</time>
      </trkpt>
      <trkpt lat="43.70063" lon="2.25599">
        <ele>312.6</ele>
        <time>2025-09-30T11:55:22.122Z</time>
      </trkpt>
      <trkpt lat="43.70064" lon="2.25604">
        <ele>312.8</ele>
        <time>2025-09-30T11:55:22.901Z</time>
      </trkpt>
      <trkpt lat="43.70065" lon="2.25609">
        <ele>313</ele>
        <time>2025-09-30T11:55:23.681Z</time>
      </trkpt>
      <trkpt lat="43.70067" lon="2.25614">
        <ele>313.2</ele>
        <time>2025-09-30T11:55:24.487Z</time>
      </trkpt>
      <trkpt lat="43.70069" lon="2.25619">
        <ele>313.4</ele>
        <time>2025-09-30T11:55:25.294Z</time>
      </trkpt>
      <trkpt lat="43.70071" lon="2.25623">
        <ele>313.6</ele>
        <time>2025-09-30T11:55:26.060Z</time>
      </trkpt>
      <trkpt lat="43.70072" lon="2.25628">
        <ele>313.8</ele>
        <time>2025-09-30T11:55:26.839Z</time>
      </trkpt>
      <trkpt lat="43.70074" lon="2.25632">
        <ele>314</ele>
        <time>2025-09-30T11:55:27.605Z</time>
      </trkpt>
      <trkpt lat="43.70077" lon="2.25636">
        <ele>314.2</ele>
        <time>2025-09-30T11:55:28.414Z</time>
      </trkpt>
      <trkpt lat="43.70079" lon="2.25639">
        <ele>314.4</ele>
        <time>2025-09-30T11:55:29.157Z</time>
      </trkpt>
      <trkpt lat="43.70081" lon="2.25643">
        <ele>314.6</ele>
        <time>2025-09-30T11:55:29.923Z</time>
      </trkpt>
      <trkpt lat="43.70083" lon="2.25646">
        <ele>315</ele>
        <time>2025-09-30T11:55:31.366Z</time>
      </trkpt>
      <trkpt lat="43.70086" lon="2.25649">
        <ele>315.2</ele>
        <time>2025-09-30T11:55:32.143Z</time>
      </trkpt>
      <trkpt lat="43.70089" lon="2.25652">
        <ele>315.4</ele>
        <time>2025-09-30T11:55:32.920Z</time>
      </trkpt>
      <trkpt lat="43.70092" lon="2.25656">
        <ele>315.6</ele>
        <time>2025-09-30T11:55:33.729Z</time>
      </trkpt>
      <trkpt lat="43.70094" lon="2.25659">
        <ele>315.8</ele>
        <time>2025-09-30T11:55:34.472Z</time>
      </trkpt>
      <trkpt lat="43.70097" lon="2.25663">
        <ele>316</ele>
        <time>2025-09-30T11:55:35.281Z</time>
      </trkpt>
      <trkpt lat="43.70099" lon="2.25667">
        <ele>316.2</ele>
        <time>2025-09-30T11:55:36.047Z</time>
      </trkpt>
      <trkpt lat="43.70102" lon="2.2567">
        <ele>316.6</ele>
        <time>2025-09-30T11:55:37.608Z</time>
      </trkpt>
      <trkpt lat="43.70105" lon="2.25673">
        <ele>316.8</ele>
        <time>2025-09-30T11:55:38.384Z</time>
      </trkpt>
      <trkpt lat="43.70107" lon="2.25677">
        <ele>317</ele>
        <time>2025-09-30T11:55:39.150Z</time>
      </trkpt>
      <trkpt lat="43.7011" lon="2.25681">
        <ele>317.2</ele>
        <time>2025-09-30T11:55:39.959Z</time>
      </trkpt>
      <trkpt lat="43.70113" lon="2.25684">
        <ele>317.4</ele>
        <time>2025-09-30T11:55:40.736Z</time>
      </trkpt>
      <trkpt lat="43.70115" lon="2.25688">
        <ele>317.8</ele>
        <time>2025-09-30T11:55:42.300Z</time>
      </trkpt>
      <trkpt lat="43.70118" lon="2.25691">
        <ele>318</ele>
        <time>2025-09-30T11:55:43.077Z</time>
      </trkpt>
      <trkpt lat="43.70121" lon="2.25694">
        <ele>318.2</ele>
        <time>2025-09-30T11:55:43.853Z</time>
      </trkpt>
      <trkpt lat="43.70124" lon="2.25697">
        <ele>318.6</ele>
        <time>2025-09-30T11:55:45.414Z</time>
      </trkpt>
      <trkpt lat="43.70126" lon="2.257">
        <ele>318.8</ele>
        <time>2025-09-30T11:55:46.157Z</time>
      </trkpt>
      <trkpt lat="43.70128" lon="2.25703">
        <ele>319.2</ele>
        <time>2025-09-30T11:55:47.601Z</time>
      </trkpt>
      <trkpt lat="43.70131" lon="2.25707">
        <ele>319.4</ele>
        <time>2025-09-30T11:55:48.410Z</time>
      </trkpt>
      <trkpt lat="43.70134" lon="2.2571">
        <ele>319.8</ele>
        <time>2025-09-30T11:55:49.971Z</time>
      </trkpt>
      <trkpt lat="43.70137" lon="2.25713">
        <ele>320.2</ele>
        <time>2025-09-30T11:55:51.532Z</time>
      </trkpt>
      <trkpt lat="43.7014" lon="2.25716">
        <ele>320.4</ele>
        <time>2025-09-30T11:55:52.309Z</time>
      </trkpt>
      <trkpt lat="43.70143" lon="2.25719">
        <ele>320.8</ele>
        <time>2025-09-30T11:55:53.870Z</time>
      </trkpt>
      <trkpt lat="43.70146" lon="2.25723">
        <ele>321</ele>
        <time>2025-09-30T11:55:54.679Z</time>
      </trkpt>
      <trkpt lat="43.70149" lon="2.25726">
        <ele>321.4</ele>
        <time>2025-09-30T11:55:56.240Z</time>
      </trkpt>
      <trkpt lat="43.70151" lon="2.25729">
        <ele>321.6</ele>
        <time>2025-09-30T11:55:56.983Z</time>
      </trkpt>
      <trkpt lat="43.70154" lon="2.25732">
        <ele>321.8</ele>
        <time>2025-09-30T11:55:57.760Z</time>
      </trkpt>
      <trkpt lat="43.70156" lon="2.25736">
        <ele>322</ele>
        <time>2025-09-30T11:55:58.525Z</time>
      </trkpt>
      <trkpt lat="43.70158" lon="2.25739">
        <ele>322.2</ele>
        <time>2025-09-30T11:55:59.268Z</time>
      </trkpt>
      <trkpt lat="43.70161" lon="2.25743">
        <ele>322.4</ele>
        <time>2025-09-30T11:56:00.077Z</time>
      </trkpt>
      <trkpt lat="43.70163" lon="2.25747">
        <ele>322.6</ele>
        <time>2025-09-30T11:56:00.843Z</time>
      </trkpt>
      <trkpt lat="43.70165" lon="2.25752">
        <ele>322.8</ele>
        <time>2025-09-30T11:56:01.649Z</time>
      </trkpt>
      <trkpt lat="43.70168" lon="2.25757">
        <ele>323</ele>
        <time>2025-09-30T11:56:02.502Z</time>
      </trkpt>
      <trkpt lat="43.7017" lon="2.25762">
        <ele>323.2</ele>
        <time>2025-09-30T11:56:03.309Z</time>
      </trkpt>
      <trkpt lat="43.70172" lon="2.25766">
        <ele>323.4</ele>
        <time>2025-09-30T11:56:04.074Z</time>
      </trkpt>
      <trkpt lat="43.70173" lon="2.25772">
        <ele>323.6</ele>
        <time>2025-09-30T11:56:04.906Z</time>
      </trkpt>
      <trkpt lat="43.70175" lon="2.25777">
        <ele>323.8</ele>
        <time>2025-09-30T11:56:05.713Z</time>
      </trkpt>
      <trkpt lat="43.70176" lon="2.25782">
        <ele>324</ele>
        <time>2025-09-30T11:56:06.492Z</time>
      </trkpt>
      <trkpt lat="43.70177" lon="2.25787">
        <ele>324.4</ele>
        <time>2025-09-30T11:56:08.051Z</time>
      </trkpt>
      <trkpt lat="43.70178" lon="2.25793">
        <ele>324.6</ele>
        <time>2025-09-30T11:56:08.883Z</time>
      </trkpt>
      <trkpt lat="43.70179" lon="2.25799">
        <ele>325</ele>
        <time>2025-09-30T11:56:10.394Z</time>
      </trkpt>
      <trkpt lat="43.70179" lon="2.25805">
        <ele>325.2</ele>
        <time>2025-09-30T11:56:11.216Z</time>
      </trkpt>
      <trkpt lat="43.7018" lon="2.25811">
        <ele>325.6</ele>
        <time>2025-09-30T11:56:12.727Z</time>
      </trkpt>
      <trkpt lat="43.7018" lon="2.25816">
        <ele>326</ele>
        <time>2025-09-30T11:56:14.291Z</time>
      </trkpt>
      <trkpt lat="43.70181" lon="2.25822">
        <ele>326.2</ele>
        <time>2025-09-30T11:56:15.123Z</time>
      </trkpt>
      <trkpt lat="43.70181" lon="2.25827">
        <ele>326.6</ele>
        <time>2025-09-30T11:56:16.687Z</time>
      </trkpt>
      <trkpt lat="43.70181" lon="2.25831">
        <ele>326.8</ele>
        <time>2025-09-30T11:56:17.429Z</time>
      </trkpt>
      <trkpt lat="43.7018" lon="2.25835">
        <ele>327</ele>
        <time>2025-09-30T11:56:18.175Z</time>
      </trkpt>
      <trkpt lat="43.70179" lon="2.2584">
        <ele>327.4</ele>
        <time>2025-09-30T11:56:19.733Z</time>
      </trkpt>
      <trkpt lat="43.70179" lon="2.25844">
        <ele>327.6</ele>
        <time>2025-09-30T11:56:20.475Z</time>
      </trkpt>
      <trkpt lat="43.70179" lon="2.25849">
        <ele>327.8</ele>
        <time>2025-09-30T11:56:21.246Z</time>
      </trkpt>
      <trkpt lat="43.70178" lon="2.25854">
        <ele>328</ele>
        <time>2025-09-30T11:56:22.026Z</time>
      </trkpt>
      <trkpt lat="43.70178" lon="2.25859">
        <ele>328.2</ele>
        <time>2025-09-30T11:56:22.797Z</time>
      </trkpt>
      <trkpt lat="43.70177" lon="2.25863">
        <ele>328.6</ele>
        <time>2025-09-30T11:56:24.290Z</time>
      </trkpt>
      <trkpt lat="43.70177" lon="2.25868">
        <ele>328.8</ele>
        <time>2025-09-30T11:56:25.061Z</time>
      </trkpt>
      <trkpt lat="43.70176" lon="2.25873">
        <ele>329</ele>
        <time>2025-09-30T11:56:25.841Z</time>
      </trkpt>
      <trkpt lat="43.70175" lon="2.25878">
        <ele>329.2</ele>
        <time>2025-09-30T11:56:26.621Z</time>
      </trkpt>
      <trkpt lat="43.70175" lon="2.25883">
        <ele>329.4</ele>
        <time>2025-09-30T11:56:27.392Z</time>
      </trkpt>
      <trkpt lat="43.70174" lon="2.25887">
        <ele>329.6</ele>
        <time>2025-09-30T11:56:28.138Z</time>
      </trkpt>
      <trkpt lat="43.70173" lon="2.25892">
        <ele>330</ele>
        <time>2025-09-30T11:56:29.696Z</time>
      </trkpt>
      <trkpt lat="43.70173" lon="2.25897">
        <ele>330.2</ele>
        <time>2025-09-30T11:56:30.467Z</time>
      </trkpt>
      <trkpt lat="43.70172" lon="2.25902">
        <ele>330.4</ele>
        <time>2025-09-30T11:56:31.247Z</time>
      </trkpt>
      <trkpt lat="43.70172" lon="2.25906">
        <ele>330.4</ele>
        <time>2025-09-30T11:56:31.577Z</time>
      </trkpt>
      <trkpt lat="43.70171" lon="2.25911">
        <ele>330.6</ele>
        <time>2025-09-30T11:56:32.357Z</time>
      </trkpt>
      <trkpt lat="43.70171" lon="2.25915">
        <ele>330.8</ele>
        <time>2025-09-30T11:56:33.099Z</time>
      </trkpt>
      <trkpt lat="43.70172" lon="2.25919">
        <ele>331</ele>
        <time>2025-09-30T11:56:33.845Z</time>
      </trkpt>
      <trkpt lat="43.70173" lon="2.25921">
        <ele>331.2</ele>
        <time>2025-09-30T11:56:34.627Z</time>
      </trkpt>
      <trkpt lat="43.70176" lon="2.25923">
        <ele>331.4</ele>
        <time>2025-09-30T11:56:35.383Z</time>
      </trkpt>
      <trkpt lat="43.70178" lon="2.25923">
        <ele>331.6</ele>
        <time>2025-09-30T11:56:36.154Z</time>
      </trkpt>
      <trkpt lat="43.70182" lon="2.25921">
        <ele>331.8</ele>
        <time>2025-09-30T11:56:36.970Z</time>
      </trkpt>
      <trkpt lat="43.70185" lon="2.25919">
        <ele>331.8</ele>
        <time>2025-09-30T11:56:37.350Z</time>
      </trkpt>
      <trkpt lat="43.70188" lon="2.25915">
        <ele>331.8</ele>
        <time>2025-09-30T11:56:37.826Z</time>
      </trkpt>
      <trkpt lat="43.70192" lon="2.25911">
        <ele>331.8</ele>
        <time>2025-09-30T11:56:38.390Z</time>
      </trkpt>
      <trkpt lat="43.70195" lon="2.25907">
        <ele>331.8</ele>
        <time>2025-09-30T11:56:38.866Z</time>
      </trkpt>
      <trkpt lat="43.70199" lon="2.25903">
        <ele>331.6</ele>
        <time>2025-09-30T11:56:39.268Z</time>
      </trkpt>
      <trkpt lat="43.70202" lon="2.25898">
        <ele>331.6</ele>
        <time>2025-09-30T11:56:39.804Z</time>
      </trkpt>
      <trkpt lat="43.70206" lon="2.25894">
        <ele>331.6</ele>
        <time>2025-09-30T11:56:40.368Z</time>
      </trkpt>
      <trkpt lat="43.70209" lon="2.25889">
        <ele>331.4</ele>
        <time>2025-09-30T11:56:40.745Z</time>
      </trkpt>
      <trkpt lat="43.70213" lon="2.25885">
        <ele>331.4</ele>
        <time>2025-09-30T11:56:41.309Z</time>
      </trkpt>
      <trkpt lat="43.70217" lon="2.2588">
        <ele>331.2</ele>
        <time>2025-09-30T11:56:41.759Z</time>
      </trkpt>
      <trkpt lat="43.7022" lon="2.25875">
        <ele>331</ele>
        <time>2025-09-30T11:56:42.136Z</time>
      </trkpt>
      <trkpt lat="43.70224" lon="2.2587">
        <ele>330.8</ele>
        <time>2025-09-30T11:56:42.586Z</time>
      </trkpt>
      <trkpt lat="43.70228" lon="2.25865">
        <ele>330.6</ele>
        <time>2025-09-30T11:56:43.037Z</time>
      </trkpt>
      <trkpt lat="43.70232" lon="2.2586">
        <ele>330.4</ele>
        <time>2025-09-30T11:56:43.487Z</time>
      </trkpt>
      <trkpt lat="43.70236" lon="2.25855">
        <ele>330.2</ele>
        <time>2025-09-30T11:56:43.938Z</time>
      </trkpt>
      <trkpt lat="43.70239" lon="2.2585">
        <ele>330</ele>
        <time>2025-09-30T11:56:44.315Z</time>
      </trkpt>
      <trkpt lat="43.70243" lon="2.25845">
        <ele>329.8</ele>
        <time>2025-09-30T11:56:44.765Z</time>
      </trkpt>
      <trkpt lat="43.70247" lon="2.25841">
        <ele>329.6</ele>
        <time>2025-09-30T11:56:45.167Z</time>
      </trkpt>
      <trkpt lat="43.70251" lon="2.25837">
        <ele>329.4</ele>
        <time>2025-09-30T11:56:45.569Z</time>
      </trkpt>
      <trkpt lat="43.70255" lon="2.25833">
        <ele>329.2</ele>
        <time>2025-09-30T11:56:45.971Z</time>
      </trkpt>
      <trkpt lat="43.70258" lon="2.25829">
        <ele>329</ele>
        <time>2025-09-30T11:56:46.293Z</time>
      </trkpt>
      <trkpt lat="43.7026" lon="2.25827">
        <ele>328.8</ele>
        <time>2025-09-30T11:56:46.462Z</time>
      </trkpt>
      <trkpt lat="43.70263" lon="2.25827">
        <ele>328.6</ele>
        <time>2025-09-30T11:56:46.668Z</time>
      </trkpt>
      <trkpt lat="43.70265" lon="2.25829">
        <ele>328.4</ele>
        <time>2025-09-30T11:56:46.837Z</time>
      </trkpt>
      <trkpt lat="43.70267" lon="2.25832">
        <ele>328</ele>
        <time>2025-09-30T11:56:47.039Z</time>
      </trkpt>
      <trkpt lat="43.70269" lon="2.25837">
        <ele>327.8</ele>
        <time>2025-09-30T11:56:47.358Z</time>
      </trkpt>
      <trkpt lat="43.70271" lon="2.25842">
        <ele>327.6</ele>
        <time>2025-09-30T11:56:47.676Z</time>
      </trkpt>
      <trkpt lat="43.70273" lon="2.25848">
        <ele>327.4</ele>
        <time>2025-09-30T11:56:48.061Z</time>
      </trkpt>
      <trkpt lat="43.70275" lon="2.25853">
        <ele>327.2</ele>
        <time>2025-09-30T11:56:48.380Z</time>
      </trkpt>
      <trkpt lat="43.70278" lon="2.25859">
        <ele>327</ele>
        <time>2025-09-30T11:56:48.818Z</time>
      </trkpt>
      <trkpt lat="43.7028" lon="2.25864">
        <ele>327</ele>
        <time>2025-09-30T11:56:49.289Z</time>
      </trkpt>
      <trkpt lat="43.70283" lon="2.25869">
        <ele>326.8</ele>
        <time>2025-09-30T11:56:49.666Z</time>
      </trkpt>
      <trkpt lat="43.70285" lon="2.25874">
        <ele>326.6</ele>
        <time>2025-09-30T11:56:49.985Z</time>
      </trkpt>
      <trkpt lat="43.70288" lon="2.25878">
        <ele>326.6</ele>
        <time>2025-09-30T11:56:50.461Z</time>
      </trkpt>
      <trkpt lat="43.7029" lon="2.25883">
        <ele>326.4</ele>
        <time>2025-09-30T11:56:50.779Z</time>
      </trkpt>
      <trkpt lat="43.70292" lon="2.25887">
        <ele>326.4</ele>
        <time>2025-09-30T11:56:51.180Z</time>
      </trkpt>
      <trkpt lat="43.70295" lon="2.25891">
        <ele>326.4</ele>
        <time>2025-09-30T11:56:51.656Z</time>
      </trkpt>
      <trkpt lat="43.70296" lon="2.25894">
        <ele>326.4</ele>
        <time>2025-09-30T11:56:51.929Z</time>
      </trkpt>
      <trkpt lat="43.70298" lon="2.25897">
        <ele>326.4</ele>
        <time>2025-09-30T11:56:52.266Z</time>
      </trkpt>
      <trkpt lat="43.703" lon="2.259">
        <ele>326.4</ele>
        <time>2025-09-30T11:56:52.603Z</time>
      </trkpt>
      <trkpt lat="43.70301" lon="2.25903">
        <ele>326.4</ele>
        <time>2025-09-30T11:56:52.875Z</time>
      </trkpt>
      <trkpt lat="43.70303" lon="2.25908">
        <ele>326.2</ele>
        <time>2025-09-30T11:56:53.194Z</time>
      </trkpt>
      <trkpt lat="43.70304" lon="2.25911">
        <ele>326.2</ele>
        <time>2025-09-30T11:56:53.466Z</time>
      </trkpt>
      <trkpt lat="43.70305" lon="2.25914">
        <ele>326.2</ele>
        <time>2025-09-30T11:56:53.739Z</time>
      </trkpt>
      <trkpt lat="43.70306" lon="2.25917">
        <ele>326.2</ele>
        <time>2025-09-30T11:56:54.012Z</time>
      </trkpt>
      <trkpt lat="43.70308" lon="2.2592">
        <ele>326.2</ele>
        <time>2025-09-30T11:56:54.349Z</time>
      </trkpt>
      <trkpt lat="43.70309" lon="2.25923">
        <ele>326.2</ele>
        <time>2025-09-30T11:56:54.622Z</time>
      </trkpt>
      <trkpt lat="43.7031" lon="2.25926">
        <ele>326</ele>
        <time>2025-09-30T11:56:54.785Z</time>
      </trkpt>
      <trkpt lat="43.70311" lon="2.25929">
        <ele>326</ele>
        <time>2025-09-30T11:56:55.058Z</time>
      </trkpt>
      <trkpt lat="43.70313" lon="2.25936">
        <ele>325.8</ele>
        <time>2025-09-30T11:56:55.514Z</time>
      </trkpt>
      <trkpt lat="43.70315" lon="2.25943">
        <ele>325.6</ele>
        <time>2025-09-30T11:56:55.969Z</time>
      </trkpt>
      <trkpt lat="43.70317" lon="2.25951">
        <ele>325.4</ele>
        <time>2025-09-30T11:56:56.498Z</time>
      </trkpt>
      <trkpt lat="43.70318" lon="2.2596">
        <ele>325.2</ele>
        <time>2025-09-30T11:56:57.076Z</time>
      </trkpt>
      <trkpt lat="43.70319" lon="2.25969">
        <ele>324.8</ele>
        <time>2025-09-30T11:56:57.544Z</time>
      </trkpt>
      <trkpt lat="43.70319" lon="2.25979">
        <ele>324.6</ele>
        <time>2025-09-30T11:56:58.193Z</time>
      </trkpt>
      <trkpt lat="43.7032" lon="2.2599">
        <ele>324.4</ele>
        <time>2025-09-30T11:56:58.929Z</time>
      </trkpt>
      <trkpt lat="43.7032" lon="2.26001">
        <ele>324</ele>
        <time>2025-09-30T11:56:59.534Z</time>
      </trkpt>
      <trkpt lat="43.7032" lon="2.26013">
        <ele>323.8</ele>
        <time>2025-09-30T11:57:00.342Z</time>
      </trkpt>
      <trkpt lat="43.70319" lon="2.26025">
        <ele>323.4</ele>
        <time>2025-09-30T11:57:01.027Z</time>
      </trkpt>
      <trkpt lat="43.70319" lon="2.26037">
        <ele>323.2</ele>
        <time>2025-09-30T11:57:01.836Z</time>
      </trkpt>
      <trkpt lat="43.70319" lon="2.26049">
        <ele>322.8</ele>
        <time>2025-09-30T11:57:02.515Z</time>
      </trkpt>
      <trkpt lat="43.7032" lon="2.26061">
        <ele>322.6</ele>
        <time>2025-09-30T11:57:03.330Z</time>
      </trkpt>
      <trkpt lat="43.7032" lon="2.26072">
        <ele>322.2</ele>
        <time>2025-09-30T11:57:03.935Z</time>
      </trkpt>
      <trkpt lat="43.7032" lon="2.26084">
        <ele>322</ele>
        <time>2025-09-30T11:57:04.743Z</time>
      </trkpt>
      <trkpt lat="43.7032" lon="2.26096">
        <ele>321.6</ele>
        <time>2025-09-30T11:57:05.422Z</time>
      </trkpt>
      <trkpt lat="43.7032" lon="2.26109">
        <ele>321</ele>
        <time>2025-09-30T11:57:06.078Z</time>
      </trkpt>
      <trkpt lat="43.7032" lon="2.26121">
        <ele>320.6</ele>
        <time>2025-09-30T11:57:06.757Z</time>
      </trkpt>
      <trkpt lat="43.7032" lon="2.26135">
        <ele>320</ele>
        <time>2025-09-30T11:57:07.483Z</time>
      </trkpt>
      <trkpt lat="43.7032" lon="2.26149">
        <ele>319.2</ele>
        <time>2025-09-30T11:57:08.176Z</time>
      </trkpt>
      <trkpt lat="43.7032" lon="2.26164">
        <ele>318.6</ele>
        <time>2025-09-30T11:57:08.974Z</time>
      </trkpt>
      <trkpt lat="43.7032" lon="2.26178">
        <ele>318</ele>
        <time>2025-09-30T11:57:09.700Z</time>
      </trkpt>
      <trkpt lat="43.7032" lon="2.26192">
        <ele>317.6</ele>
        <time>2025-09-30T11:57:10.531Z</time>
      </trkpt>
      <trkpt lat="43.70321" lon="2.26205">
        <ele>317</ele>
        <time>2025-09-30T11:57:11.191Z</time>
      </trkpt>
      <trkpt lat="43.70321" lon="2.26217">
        <ele>316.8</ele>
        <time>2025-09-30T11:57:11.999Z</time>
      </trkpt>
      <trkpt lat="43.7032" lon="2.26228">
        <ele>316.4</ele>
        <time>2025-09-30T11:57:12.611Z</time>
      </trkpt>
      <trkpt lat="43.70318" lon="2.26239">
        <ele>316.2</ele>
        <time>2025-09-30T11:57:13.367Z</time>
      </trkpt>
      <trkpt lat="43.70317" lon="2.26249">
        <ele>316</ele>
        <time>2025-09-30T11:57:14.023Z</time>
      </trkpt>
      <trkpt lat="43.70315" lon="2.26259">
        <ele>316</ele>
        <time>2025-09-30T11:57:14.880Z</time>
      </trkpt>
      <trkpt lat="43.70313" lon="2.26269">
        <ele>315.8</ele>
        <time>2025-09-30T11:57:15.559Z</time>
      </trkpt>
      <trkpt lat="43.70312" lon="2.26278">
        <ele>315.8</ele>
        <time>2025-09-30T11:57:16.310Z</time>
      </trkpt>
      <trkpt lat="43.70312" lon="2.26287">
        <ele>315.6</ele>
        <time>2025-09-30T11:57:16.881Z</time>
      </trkpt>
      <trkpt lat="43.70312" lon="2.26295">
        <ele>315.4</ele>
        <time>2025-09-30T11:57:17.373Z</time>
      </trkpt>
      <trkpt lat="43.70313" lon="2.26302">
        <ele>315</ele>
        <time>2025-09-30T11:57:17.727Z</time>
      </trkpt>
      <trkpt lat="43.70314" lon="2.26309">
        <ele>315</ele>
        <time>2025-09-30T11:57:18.316Z</time>
      </trkpt>
      <trkpt lat="43.70315" lon="2.26314">
        <ele>314.8</ele>
        <time>2025-09-30T11:57:18.595Z</time>
      </trkpt>
      <trkpt lat="43.70316" lon="2.26319">
        <ele>314.6</ele>
        <time>2025-09-30T11:57:18.875Z</time>
      </trkpt>
      <trkpt lat="43.70317" lon="2.26324">
        <ele>314.6</ele>
        <time>2025-09-30T11:57:19.303Z</time>
      </trkpt>
      <trkpt lat="43.70319" lon="2.26329">
        <ele>314.4</ele>
        <time>2025-09-30T11:57:19.621Z</time>
      </trkpt>
      <trkpt lat="43.7032" lon="2.26333">
        <ele>314.2</ele>
        <time>2025-09-30T11:57:19.833Z</time>
      </trkpt>
      <trkpt lat="43.70322" lon="2.26338">
        <ele>314.2</ele>
        <time>2025-09-30T11:57:20.304Z</time>
      </trkpt>
      <trkpt lat="43.70323" lon="2.26342">
        <ele>314.2</ele>
        <time>2025-09-30T11:57:20.654Z</time>
      </trkpt>
      <trkpt lat="43.70325" lon="2.26347">
        <ele>314.2</ele>
        <time>2025-09-30T11:57:21.126Z</time>
      </trkpt>
      <trkpt lat="43.70326" lon="2.26351">
        <ele>314.2</ele>
        <time>2025-09-30T11:57:21.475Z</time>
      </trkpt>
      <trkpt lat="43.70328" lon="2.26356">
        <ele>314.2</ele>
        <time>2025-09-30T11:57:21.947Z</time>
      </trkpt>
      <trkpt lat="43.7033" lon="2.26361">
        <ele>314.2</ele>
        <time>2025-09-30T11:57:22.419Z</time>
      </trkpt>
      <trkpt lat="43.70332" lon="2.26367">
        <ele>314.2</ele>
        <time>2025-09-30T11:57:22.964Z</time>
      </trkpt>
      <trkpt lat="43.70333" lon="2.26373">
        <ele>314.2</ele>
        <time>2025-09-30T11:57:23.472Z</time>
      </trkpt>
      <trkpt lat="43.70335" lon="2.26379">
        <ele>314.2</ele>
        <time>2025-09-30T11:57:24.018Z</time>
      </trkpt>
      <trkpt lat="43.70336" lon="2.26384">
        <ele>314.2</ele>
        <time>2025-09-30T11:57:24.446Z</time>
      </trkpt>
      <trkpt lat="43.70337" lon="2.2639">
        <ele>314.2</ele>
        <time>2025-09-30T11:57:24.954Z</time>
      </trkpt>
      <trkpt lat="43.70339" lon="2.26395">
        <ele>314.2</ele>
        <time>2025-09-30T11:57:25.426Z</time>
      </trkpt>
      <trkpt lat="43.70341" lon="2.26401">
        <ele>314.2</ele>
        <time>2025-09-30T11:57:25.971Z</time>
      </trkpt>
      <trkpt lat="43.70343" lon="2.26407">
        <ele>314</ele>
        <time>2025-09-30T11:57:26.357Z</time>
      </trkpt>
      <trkpt lat="43.70345" lon="2.26413">
        <ele>314</ele>
        <time>2025-09-30T11:57:26.902Z</time>
      </trkpt>
      <trkpt lat="43.70347" lon="2.26419">
        <ele>314</ele>
        <time>2025-09-30T11:57:27.448Z</time>
      </trkpt>
      <trkpt lat="43.70348" lon="2.26426">
        <ele>314</ele>
        <time>2025-09-30T11:57:28.037Z</time>
      </trkpt>
      <trkpt lat="43.7035" lon="2.26433">
        <ele>313.8</ele>
        <time>2025-09-30T11:57:28.492Z</time>
      </trkpt>
      <trkpt lat="43.70353" lon="2.2644">
        <ele>313.8</ele>
        <time>2025-09-30T11:57:29.164Z</time>
      </trkpt>
      <trkpt lat="43.70355" lon="2.26446">
        <ele>313.6</ele>
        <time>2025-09-30T11:57:29.550Z</time>
      </trkpt>
      <trkpt lat="43.70357" lon="2.26453">
        <ele>313.4</ele>
        <time>2025-09-30T11:57:30.005Z</time>
      </trkpt>
      <trkpt lat="43.70358" lon="2.2646">
        <ele>313.2</ele>
        <time>2025-09-30T11:57:30.431Z</time>
      </trkpt>
      <trkpt lat="43.7036" lon="2.26466">
        <ele>313</ele>
        <time>2025-09-30T11:57:30.816Z</time>
      </trkpt>
      <trkpt lat="43.70362" lon="2.26473">
        <ele>312.6</ele>
        <time>2025-09-30T11:57:31.189Z</time>
      </trkpt>
      <trkpt lat="43.70364" lon="2.26481">
        <ele>312.2</ele>
        <time>2025-09-30T11:57:31.612Z</time>
      </trkpt>
      <trkpt lat="43.70365" lon="2.26489">
        <ele>311.8</ele>
        <time>2025-09-30T11:57:32.014Z</time>
      </trkpt>
      <trkpt lat="43.70366" lon="2.26497">
        <ele>311.6</ele>
        <time>2025-09-30T11:57:32.515Z</time>
      </trkpt>
      <trkpt lat="43.70368" lon="2.26506">
        <ele>311.2</ele>
        <time>2025-09-30T11:57:33.005Z</time>
      </trkpt>
      <trkpt lat="43.70369" lon="2.26514">
        <ele>311</ele>
        <time>2025-09-30T11:57:33.507Z</time>
      </trkpt>
      <trkpt lat="43.70371" lon="2.26523">
        <ele>310.8</ele>
        <time>2025-09-30T11:57:34.110Z</time>
      </trkpt>
      <trkpt lat="43.70372" lon="2.26532">
        <ele>310.6</ele>
        <time>2025-09-30T11:57:34.688Z</time>
      </trkpt>
      <trkpt lat="43.70372" lon="2.2654">
        <ele>310.4</ele>
        <time>2025-09-30T11:57:35.181Z</time>
      </trkpt>
      <trkpt lat="43.70373" lon="2.26549">
        <ele>310.2</ele>
        <time>2025-09-30T11:57:35.759Z</time>
      </trkpt>
      <trkpt lat="43.70375" lon="2.26557">
        <ele>310</ele>
        <time>2025-09-30T11:57:36.288Z</time>
      </trkpt>
      <trkpt lat="43.70376" lon="2.26565">
        <ele>309.8</ele>
        <time>2025-09-30T11:57:36.789Z</time>
      </trkpt>
      <trkpt lat="43.70377" lon="2.26572">
        <ele>309.8</ele>
        <time>2025-09-30T11:57:37.378Z</time>
      </trkpt>
      <trkpt lat="43.70379" lon="2.26579">
        <ele>309.8</ele>
        <time>2025-09-30T11:57:38.000Z</time>
      </trkpt>
      <trkpt lat="43.70381" lon="2.26585">
        <ele>309.8</ele>
        <time>2025-09-30T11:57:38.545Z</time>
      </trkpt>
      <trkpt lat="43.70383" lon="2.26591">
        <ele>309.8</ele>
        <time>2025-09-30T11:57:39.091Z</time>
      </trkpt>
      <trkpt lat="43.70385" lon="2.26597">
        <ele>309.8</ele>
        <time>2025-09-30T11:57:39.636Z</time>
      </trkpt>
      <trkpt lat="43.70387" lon="2.26602">
        <ele>310</ele>
        <time>2025-09-30T11:57:40.443Z</time>
      </trkpt>
      <trkpt lat="43.70389" lon="2.26607">
        <ele>310.2</ele>
        <time>2025-09-30T11:57:41.249Z</time>
      </trkpt>
      <trkpt lat="43.70391" lon="2.26612">
        <ele>310.4</ele>
        <time>2025-09-30T11:57:42.056Z</time>
      </trkpt>
      <trkpt lat="43.70393" lon="2.26616">
        <ele>310.6</ele>
        <time>2025-09-30T11:57:42.821Z</time>
      </trkpt>
      <trkpt lat="43.70394" lon="2.26621">
        <ele>310.8</ele>
        <time>2025-09-30T11:57:43.601Z</time>
      </trkpt>
      <trkpt lat="43.70396" lon="2.26626">
        <ele>311</ele>
        <time>2025-09-30T11:57:44.407Z</time>
      </trkpt>
      <trkpt lat="43.70398" lon="2.2663">
        <ele>311.4</ele>
        <time>2025-09-30T11:57:45.972Z</time>
      </trkpt>
      <trkpt lat="43.70401" lon="2.26635">
        <ele>311.6</ele>
        <time>2025-09-30T11:57:46.825Z</time>
      </trkpt>
      <trkpt lat="43.70403" lon="2.2664">
        <ele>311.8</ele>
        <time>2025-09-30T11:57:47.631Z</time>
      </trkpt>
      <trkpt lat="43.70405" lon="2.26645">
        <ele>312.2</ele>
        <time>2025-09-30T11:57:49.164Z</time>
      </trkpt>
      <trkpt lat="43.70406" lon="2.26651">
        <ele>312.4</ele>
        <time>2025-09-30T11:57:49.996Z</time>
      </trkpt>
      <trkpt lat="43.70408" lon="2.26655">
        <ele>312.6</ele>
        <time>2025-09-30T11:57:50.761Z</time>
      </trkpt>
      <trkpt lat="43.7041" lon="2.2666">
        <ele>312.8</ele>
        <time>2025-09-30T11:57:51.568Z</time>
      </trkpt>
      <trkpt lat="43.70411" lon="2.26664">
        <ele>313.2</ele>
        <time>2025-09-30T11:57:53.061Z</time>
      </trkpt>
      <trkpt lat="43.70413" lon="2.26669">
        <ele>313.4</ele>
        <time>2025-09-30T11:57:53.867Z</time>
      </trkpt>
      <trkpt lat="43.70414" lon="2.26672">
        <ele>313.6</ele>
        <time>2025-09-30T11:57:54.614Z</time>
        <extensions>
          <visugpx:TrkExtension xmlns:visugpx="https://www.visugpx.com/editgpx/">
            <visugpx:node>11</visugpx:node>
            </visugpx:TrkExtension>
        </extensions>
      </trkpt>
      <trkpt lat="43.70422" lon="2.26714">
        <ele>376.8</ele>
      </trkpt>
      <trkpt lat="43.70422" lon="2.26722">
        <ele>377</ele>
      </trkpt>
      <trkpt lat="43.70418" lon="2.26727">
        <ele>376.8</ele>
      </trkpt>
      <trkpt lat="43.70402" lon="2.26741">
        <ele>376.7</ele>
      </trkpt>
      <trkpt lat="43.70397" lon="2.26743">
        <ele>376.8</ele>
      </trkpt>
      <trkpt lat="43.70392" lon="2.26745">
        <ele>376.9</ele>
      </trkpt>
      <trkpt lat="43.70361" lon="2.26747">
        <ele>378</ele>
      </trkpt>
      <trkpt lat="43.70354" lon="2.26751">
        <ele>378.5</ele>
      </trkpt>
      <trkpt lat="43.70346" lon="2.26759">
        <ele>378.9</ele>
      </trkpt>
      <trkpt lat="43.70336" lon="2.26765">
        <ele>379.3</ele>
      </trkpt>
      <trkpt lat="43.70327" lon="2.2677">
        <ele>379.7</ele>
      </trkpt>
      <trkpt lat="43.7029" lon="2.26788">
        <ele>382</ele>
      </trkpt>
      <trkpt lat="43.70261" lon="2.26804">
        <ele>384.2</ele>
      </trkpt>
      <trkpt lat="43.70246" lon="2.26815">
        <ele>385</ele>
      </trkpt>
      <trkpt lat="43.70221" lon="2.26841">
        <ele>386.6</ele>
      </trkpt>
      <trkpt lat="43.70157" lon="2.269">
        <ele>391</ele>
      </trkpt>
      <trkpt lat="43.70144" lon="2.26915">
        <ele>392.3</ele>
      </trkpt>
      <trkpt lat="43.70129" lon="2.26937">
        <ele>393.4</ele>
      </trkpt>
      <trkpt lat="43.70121" lon="2.26946">
        <ele>393.9</ele>
      </trkpt>
      <trkpt lat="43.70114" lon="2.26953">
        <ele>394.7</ele>
      </trkpt>
      <trkpt lat="43.70118" lon="2.2697">
        <ele>394</ele>
      </trkpt>
      <trkpt lat="43.70136" lon="2.27035">
        <ele>392.1</ele>
        <extensions>
          <visugpx:TrkExtension xmlns:visugpx="https://www.visugpx.com/editgpx/">
            <visugpx:node>12</visugpx:node>
            </visugpx:TrkExtension>
        </extensions>
      </trkpt>
      <trkpt lat="43.70152" lon="2.27094">
        <ele>390.7</ele>
      </trkpt>
      <trkpt lat="43.70161" lon="2.27124">
        <ele>390.9</ele>
      </trkpt>
      <trkpt lat="43.70165" lon="2.27134">
        <ele>390.9</ele>
      </trkpt>
      <trkpt lat="43.70175" lon="2.27162">
        <ele>390.6</ele>
      </trkpt>
      <trkpt lat="43.70202" lon="2.27218">
        <ele>391.6</ele>
      </trkpt>
      <trkpt lat="43.70224" lon="2.27268">
        <ele>390.9</ele>
      </trkpt>
      <trkpt lat="43.70237" lon="2.27297">
        <ele>390.5</ele>
      </trkpt>
      <trkpt lat="43.70245" lon="2.27316">
        <ele>390.1</ele>
      </trkpt>
      <trkpt lat="43.70257" lon="2.27353">
        <ele>389.9</ele>
      </trkpt>
      <trkpt lat="43.70276" lon="2.27413">
        <ele>389.9</ele>
      </trkpt>
      <trkpt lat="43.70291" lon="2.27465">
        <ele>391</ele>
      </trkpt>
      <trkpt lat="43.70292" lon="2.27469">
        <ele>391</ele>
      </trkpt>
      <trkpt lat="43.70346" lon="2.27647">
        <ele>393.5</ele>
      </trkpt>
      <trkpt lat="43.70369" lon="2.27727">
        <ele>395.1</ele>
      </trkpt>
      <trkpt lat="43.70377" lon="2.27748">
        <ele>395.2</ele>
      </trkpt>
      <trkpt lat="43.70388" lon="2.27762">
        <ele>395</ele>
      </trkpt>
      <trkpt lat="43.70401" lon="2.27773">
        <ele>395.5</ele>
      </trkpt>
      <trkpt lat="43.70415" lon="2.27776">
        <ele>395.8</ele>
      </trkpt>
      <trkpt lat="43.70434" lon="2.27775">
        <ele>395.8</ele>
      </trkpt>
      <trkpt lat="43.7046" lon="2.27769">
        <ele>395.9</ele>
        <extensions>
          <visugpx:TrkExtension xmlns:visugpx="https://www.visugpx.com/editgpx/">
            <visugpx:node>13</visugpx:node>
            </visugpx:TrkExtension>
        </extensions>
      </trkpt>
      <trkpt lat="43.70459" lon="2.27793">
        <ele>334.4</ele>
        <time>2025-09-30T12:01:25.938Z</time>
        <extensions>
          <visugpx:TrkExtension xmlns:visugpx="https://www.visugpx.com/editgpx/">
            <visugpx:node>14</visugpx:node>
            </visugpx:TrkExtension>
        </extensions>
      </trkpt>
      <trkpt lat="43.70456" lon="2.27796">
        <ele>334.6</ele>
        <time>2025-09-30T12:01:26.715Z</time>
      </trkpt>
      <trkpt lat="43.70454" lon="2.27799">
        <ele>334.6</ele>
        <time>2025-09-30T12:01:27.051Z</time>
      </trkpt>
      <trkpt lat="43.70452" lon="2.27803">
        <ele>334.8</ele>
        <time>2025-09-30T12:01:27.817Z</time>
      </trkpt>
      <trkpt lat="43.7045" lon="2.27806">
        <ele>335</ele>
        <time>2025-09-30T12:01:28.560Z</time>
      </trkpt>
      <trkpt lat="43.70448" lon="2.27809">
        <ele>335.2</ele>
        <time>2025-09-30T12:01:29.303Z</time>
      </trkpt>
      <trkpt lat="43.70446" lon="2.27813">
        <ele>335.2</ele>
        <time>2025-09-30T12:01:29.704Z</time>
      </trkpt>
      <trkpt lat="43.70444" lon="2.27816">
        <ele>335.4</ele>
        <time>2025-09-30T12:01:30.447Z</time>
      </trkpt>
      <trkpt lat="43.70442" lon="2.2782">
        <ele>335.6</ele>
        <time>2025-09-30T12:01:31.213Z</time>
      </trkpt>
      <trkpt lat="43.7044" lon="2.27823">
        <ele>335.6</ele>
        <time>2025-09-30T12:01:31.550Z</time>
      </trkpt>
      <trkpt lat="43.70438" lon="2.27827">
        <ele>335.8</ele>
        <time>2025-09-30T12:01:32.315Z</time>
      </trkpt>
      <trkpt lat="43.70436" lon="2.2783">
        <ele>335.8</ele>
        <time>2025-09-30T12:01:32.652Z</time>
      </trkpt>
      <trkpt lat="43.70434" lon="2.27834">
        <ele>335.8</ele>
        <time>2025-09-30T12:01:33.054Z</time>
      </trkpt>
      <trkpt lat="43.70432" lon="2.27838">
        <ele>336</ele>
        <time>2025-09-30T12:01:33.819Z</time>
      </trkpt>
      <trkpt lat="43.70429" lon="2.27842">
        <ele>336</ele>
        <time>2025-09-30T12:01:34.295Z</time>
      </trkpt>
      <trkpt lat="43.70427" lon="2.27845">
        <ele>336</ele>
        <time>2025-09-30T12:01:34.632Z</time>
      </trkpt>
      <trkpt lat="43.70424" lon="2.27848">
        <ele>336.2</ele>
        <time>2025-09-30T12:01:35.409Z</time>
      </trkpt>
      <trkpt lat="43.70422" lon="2.27852">
        <ele>336.2</ele>
        <time>2025-09-30T12:01:35.810Z</time>
      </trkpt>
      <trkpt lat="43.7042" lon="2.27855">
        <ele>336.4</ele>
        <time>2025-09-30T12:01:36.553Z</time>
      </trkpt>
      <trkpt lat="43.70417" lon="2.27858">
        <ele>336.4</ele>
        <time>2025-09-30T12:01:36.976Z</time>
      </trkpt>
      <trkpt lat="43.70415" lon="2.27861">
        <ele>336.6</ele>
        <time>2025-09-30T12:01:37.719Z</time>
      </trkpt>
      <trkpt lat="43.70412" lon="2.27864">
        <ele>336.8</ele>
        <time>2025-09-30T12:01:38.495Z</time>
      </trkpt>
      <trkpt lat="43.7041" lon="2.27867">
        <ele>337</ele>
        <time>2025-09-30T12:01:39.238Z</time>
      </trkpt>
      <trkpt lat="43.70408" lon="2.27869">
        <ele>337</ele>
        <time>2025-09-30T12:01:39.520Z</time>
      </trkpt>
      <trkpt lat="43.70406" lon="2.27872">
        <ele>337.2</ele>
        <time>2025-09-30T12:01:40.263Z</time>
      </trkpt>
      <trkpt lat="43.70404" lon="2.27874">
        <ele>337.4</ele>
        <time>2025-09-30T12:01:41.008Z</time>
      </trkpt>
      <trkpt lat="43.70402" lon="2.27876">
        <ele>337.6</ele>
        <time>2025-09-30T12:01:41.752Z</time>
      </trkpt>
      <trkpt lat="43.704" lon="2.27879">
        <ele>337.8</ele>
        <time>2025-09-30T12:01:42.495Z</time>
      </trkpt>
      <trkpt lat="43.70397" lon="2.27881">
        <ele>338</ele>
        <time>2025-09-30T12:01:43.251Z</time>
      </trkpt>
      <trkpt lat="43.70395" lon="2.27884">
        <ele>338.4</ele>
        <time>2025-09-30T12:01:44.695Z</time>
      </trkpt>
      <trkpt lat="43.70392" lon="2.27887">
        <ele>338.6</ele>
        <time>2025-09-30T12:01:45.471Z</time>
      </trkpt>
      <trkpt lat="43.70389" lon="2.2789">
        <ele>338.8</ele>
        <time>2025-09-30T12:01:46.248Z</time>
      </trkpt>
      <trkpt lat="43.70386" lon="2.27892">
        <ele>339.2</ele>
        <time>2025-09-30T12:01:47.802Z</time>
      </trkpt>
      <trkpt lat="43.70383" lon="2.27894">
        <ele>339.4</ele>
        <time>2025-09-30T12:01:48.558Z</time>
      </trkpt>
      <trkpt lat="43.7038" lon="2.27897">
        <ele>339.6</ele>
        <time>2025-09-30T12:01:49.335Z</time>
      </trkpt>
      <trkpt lat="43.70377" lon="2.279">
        <ele>340</ele>
        <time>2025-09-30T12:01:50.896Z</time>
      </trkpt>
      <trkpt lat="43.70374" lon="2.27902">
        <ele>340.2</ele>
        <time>2025-09-30T12:01:51.652Z</time>
      </trkpt>
      <trkpt lat="43.70371" lon="2.27905">
        <ele>340.6</ele>
        <time>2025-09-30T12:01:53.213Z</time>
      </trkpt>
      <trkpt lat="43.70368" lon="2.27908">
        <ele>340.8</ele>
        <time>2025-09-30T12:01:53.990Z</time>
      </trkpt>
      <trkpt lat="43.70364" lon="2.27911">
        <ele>341</ele>
        <time>2025-09-30T12:01:54.830Z</time>
      </trkpt>
      <trkpt lat="43.70361" lon="2.27913">
        <ele>341.4</ele>
        <time>2025-09-30T12:01:56.384Z</time>
      </trkpt>
      <trkpt lat="43.70357" lon="2.27915">
        <ele>341.6</ele>
        <time>2025-09-30T12:01:57.200Z</time>
      </trkpt>
      <trkpt lat="43.70354" lon="2.27918">
        <ele>341.8</ele>
        <time>2025-09-30T12:01:57.977Z</time>
      </trkpt>
      <trkpt lat="43.7035" lon="2.2792">
        <ele>342</ele>
        <time>2025-09-30T12:01:58.793Z</time>
      </trkpt>
      <trkpt lat="43.70347" lon="2.27923">
        <ele>342.4</ele>
        <time>2025-09-30T12:02:00.354Z</time>
      </trkpt>
      <trkpt lat="43.70343" lon="2.27925">
        <ele>342.6</ele>
        <time>2025-09-30T12:02:01.169Z</time>
      </trkpt>
      <trkpt lat="43.70339" lon="2.27927">
        <ele>342.8</ele>
        <time>2025-09-30T12:02:01.985Z</time>
      </trkpt>
      <trkpt lat="43.70335" lon="2.2793">
        <ele>343</ele>
        <time>2025-09-30T12:02:02.826Z</time>
      </trkpt>
      <trkpt lat="43.7033" lon="2.27932">
        <ele>343.4</ele>
        <time>2025-09-30T12:02:04.308Z</time>
      </trkpt>
      <trkpt lat="43.70326" lon="2.27935">
        <ele>343.6</ele>
        <time>2025-09-30T12:02:05.149Z</time>
      </trkpt>
      <trkpt lat="43.70321" lon="2.27937">
        <ele>343.8</ele>
        <time>2025-09-30T12:02:06.047Z</time>
      </trkpt>
      <trkpt lat="43.70317" lon="2.2794">
        <ele>344</ele>
        <time>2025-09-30T12:02:06.887Z</time>
      </trkpt>
      <trkpt lat="43.70312" lon="2.27943">
        <ele>344.2</ele>
        <time>2025-09-30T12:02:07.809Z</time>
      </trkpt>
      <trkpt lat="43.70308" lon="2.27947">
        <ele>344.4</ele>
        <time>2025-09-30T12:02:08.682Z</time>
      </trkpt>
      <trkpt lat="43.70303" lon="2.2795">
        <ele>344.6</ele>
        <time>2025-09-30T12:02:09.604Z</time>
      </trkpt>
      <trkpt lat="43.70298" lon="2.27954">
        <ele>344.8</ele>
        <time>2025-09-30T12:02:10.557Z</time>
      </trkpt>
      <trkpt lat="43.70293" lon="2.27958">
        <ele>344.8</ele>
        <time>2025-09-30T12:02:11.216Z</time>
      </trkpt>
      <trkpt lat="43.70287" lon="2.27963">
        <ele>345</ele>
        <time>2025-09-30T12:02:12.293Z</time>
      </trkpt>
      <trkpt lat="43.70282" lon="2.27967">
        <ele>345.2</ele>
        <time>2025-09-30T12:02:13.246Z</time>
      </trkpt>
      <trkpt lat="43.70276" lon="2.27972">
        <ele>345.2</ele>
        <time>2025-09-30T12:02:14.046Z</time>
      </trkpt>
      <trkpt lat="43.70271" lon="2.27977">
        <ele>345.4</ele>
        <time>2025-09-30T12:02:15.038Z</time>
      </trkpt>
      <trkpt lat="43.70265" lon="2.27982">
        <ele>345.6</ele>
        <time>2025-09-30T12:02:16.115Z</time>
      </trkpt>
      <trkpt lat="43.7026" lon="2.27987">
        <ele>345.6</ele>
        <time>2025-09-30T12:02:16.820Z</time>
      </trkpt>
      <trkpt lat="43.70254" lon="2.27993">
        <ele>345.6</ele>
        <time>2025-09-30T12:02:17.665Z</time>
      </trkpt>
      <trkpt lat="43.70249" lon="2.27999">
        <ele>345.6</ele>
        <time>2025-09-30T12:02:18.421Z</time>
      </trkpt>
      <trkpt lat="43.70245" lon="2.28006">
        <ele>345.6</ele>
        <time>2025-09-30T12:02:19.158Z</time>
      </trkpt>
      <trkpt lat="43.7024" lon="2.28013">
        <ele>345.4</ele>
        <time>2025-09-30T12:02:19.794Z</time>
      </trkpt>
      <trkpt lat="43.70235" lon="2.28019">
        <ele>345.4</ele>
        <time>2025-09-30T12:02:20.550Z</time>
      </trkpt>
      <trkpt lat="43.7023" lon="2.28025">
        <ele>345.4</ele>
        <time>2025-09-30T12:02:21.306Z</time>
      </trkpt>
      <trkpt lat="43.70225" lon="2.28032">
        <ele>345.2</ele>
        <time>2025-09-30T12:02:21.943Z</time>
      </trkpt>
      <trkpt lat="43.7022" lon="2.28038">
        <ele>345</ele>
        <time>2025-09-30T12:02:22.525Z</time>
      </trkpt>
      <trkpt lat="43.70216" lon="2.28044">
        <ele>344.8</ele>
        <time>2025-09-30T12:02:23.030Z</time>
      </trkpt>
      <trkpt lat="43.70211" lon="2.2805">
        <ele>344.6</ele>
        <time>2025-09-30T12:02:23.613Z</time>
      </trkpt>
      <trkpt lat="43.70206" lon="2.28056">
        <ele>344.4</ele>
        <time>2025-09-30T12:02:24.195Z</time>
      </trkpt>
      <trkpt lat="43.70201" lon="2.28061">
        <ele>344.4</ele>
        <time>2025-09-30T12:02:24.900Z</time>
      </trkpt>
      <trkpt lat="43.70197" lon="2.28067">
        <ele>344.4</ele>
        <time>2025-09-30T12:02:25.574Z</time>
      </trkpt>
      <trkpt lat="43.70192" lon="2.28072">
        <ele>344.2</ele>
        <time>2025-09-30T12:02:26.108Z</time>
      </trkpt>
      <trkpt lat="43.70187" lon="2.28078">
        <ele>344</ele>
        <time>2025-09-30T12:02:26.690Z</time>
      </trkpt>
      <trkpt lat="43.70181" lon="2.28085">
        <ele>343.8</ele>
        <time>2025-09-30T12:02:27.407Z</time>
      </trkpt>
      <trkpt lat="43.70176" lon="2.28091">
        <ele>343.6</ele>
        <time>2025-09-30T12:02:27.990Z</time>
      </trkpt>
      <trkpt lat="43.7017" lon="2.28098">
        <ele>343.4</ele>
        <time>2025-09-30T12:02:28.707Z</time>
      </trkpt>
      <trkpt lat="43.70165" lon="2.28104">
        <ele>343.2</ele>
        <time>2025-09-30T12:02:29.290Z</time>
      </trkpt>
      <trkpt lat="43.70158" lon="2.2811">
        <ele>343</ele>
        <time>2025-09-30T12:02:30.049Z</time>
      </trkpt>
      <trkpt lat="43.70152" lon="2.28116">
        <ele>343</ele>
        <time>2025-09-30T12:02:30.895Z</time>
      </trkpt>
      <trkpt lat="43.70146" lon="2.28123">
        <ele>342.8</ele>
        <time>2025-09-30T12:02:31.612Z</time>
      </trkpt>
      <trkpt lat="43.70139" lon="2.2813">
        <ele>342.6</ele>
        <time>2025-09-30T12:02:32.416Z</time>
      </trkpt>
      <trkpt lat="43.70133" lon="2.28137">
        <ele>342.4</ele>
        <time>2025-09-30T12:02:33.134Z</time>
      </trkpt>
      <trkpt lat="43.70126" lon="2.28145">
        <ele>341.8</ele>
        <time>2025-09-30T12:02:33.758Z</time>
      </trkpt>
      <trkpt lat="43.70118" lon="2.28152">
        <ele>341.2</ele>
        <time>2025-09-30T12:02:34.420Z</time>
      </trkpt>
      <trkpt lat="43.70111" lon="2.28161">
        <ele>340.4</ele>
        <time>2025-09-30T12:02:35.075Z</time>
      </trkpt>
      <trkpt lat="43.70104" lon="2.28168">
        <ele>339.6</ele>
        <time>2025-09-30T12:02:35.667Z</time>
      </trkpt>
      <trkpt lat="43.70096" lon="2.28177">
        <ele>339</ele>
        <time>2025-09-30T12:02:36.411Z</time>
      </trkpt>
      <trkpt lat="43.70088" lon="2.28185">
        <ele>338.6</ele>
        <time>2025-09-30T12:02:37.216Z</time>
      </trkpt>
      <trkpt lat="43.7008" lon="2.28192">
        <ele>338.4</ele>
        <time>2025-09-30T12:02:38.112Z</time>
      </trkpt>
      <trkpt lat="43.70073" lon="2.282">
        <ele>338</ele>
        <time>2025-09-30T12:02:38.833Z</time>
      </trkpt>
      <trkpt lat="43.70066" lon="2.28207">
        <ele>337.6</ele>
        <time>2025-09-30T12:02:39.509Z</time>
      </trkpt>
      <trkpt lat="43.7006" lon="2.28213">
        <ele>337.2</ele>
        <time>2025-09-30T12:02:40.058Z</time>
      </trkpt>
      <trkpt lat="43.70053" lon="2.2822">
        <ele>337.2</ele>
        <time>2025-09-30T12:02:41.044Z</time>
      </trkpt>
      <trkpt lat="43.70047" lon="2.28227">
        <ele>337</ele>
        <time>2025-09-30T12:02:41.762Z</time>
      </trkpt>
      <trkpt lat="43.70042" lon="2.28234">
        <ele>337</ele>
        <time>2025-09-30T12:02:42.574Z</time>
      </trkpt>
      <trkpt lat="43.70036" lon="2.28241">
        <ele>337</ele>
        <time>2025-09-30T12:02:43.470Z</time>
      </trkpt>
      <trkpt lat="43.7003" lon="2.28248">
        <ele>337</ele>
        <time>2025-09-30T12:02:44.367Z</time>
      </trkpt>
      <trkpt lat="43.70024" lon="2.28254">
        <ele>336.8</ele>
        <time>2025-09-30T12:02:45.035Z</time>
      </trkpt>
      <trkpt lat="43.70017" lon="2.2826">
        <ele>336.8</ele>
        <time>2025-09-30T12:02:45.975Z</time>
      </trkpt>
      <trkpt lat="43.70011" lon="2.28264">
        <ele>337</ele>
        <time>2025-09-30T12:02:47.017Z</time>
      </trkpt>
      <trkpt lat="43.70004" lon="2.28268">
        <ele>337.2</ele>
        <time>2025-09-30T12:02:48.154Z</time>
      </trkpt>
      <trkpt lat="43.69998" lon="2.28272">
        <ele>337.4</ele>
        <time>2025-09-30T12:02:49.195Z</time>
      </trkpt>
      <trkpt lat="43.69991" lon="2.28275">
        <ele>337.4</ele>
        <time>2025-09-30T12:02:50.032Z</time>
      </trkpt>
      <trkpt lat="43.69985" lon="2.28279">
        <ele>337.6</ele>
        <time>2025-09-30T12:02:51.074Z</time>
      </trkpt>
      <trkpt lat="43.69978" lon="2.28282">
        <ele>337.6</ele>
        <time>2025-09-30T12:02:51.911Z</time>
      </trkpt>
      <trkpt lat="43.69972" lon="2.28285">
        <ele>337.8</ele>
        <time>2025-09-30T12:02:52.924Z</time>
      </trkpt>
      <trkpt lat="43.69966" lon="2.28288">
        <ele>338</ele>
        <time>2025-09-30T12:02:53.937Z</time>
      </trkpt>
      <trkpt lat="43.6996" lon="2.28291">
        <ele>338</ele>
        <time>2025-09-30T12:02:54.665Z</time>
      </trkpt>
      <trkpt lat="43.69954" lon="2.28294">
        <ele>338.2</ele>
        <time>2025-09-30T12:02:55.679Z</time>
      </trkpt>
      <trkpt lat="43.69948" lon="2.28296">
        <ele>338.4</ele>
        <time>2025-09-30T12:02:56.671Z</time>
      </trkpt>
      <trkpt lat="43.69942" lon="2.28299">
        <ele>338.6</ele>
        <time>2025-09-30T12:02:57.684Z</time>
      </trkpt>
      <trkpt lat="43.69937" lon="2.28302">
        <ele>338.6</ele>
        <time>2025-09-30T12:02:58.306Z</time>
      </trkpt>
      <trkpt lat="43.69931" lon="2.28305">
        <ele>338.8</ele>
        <time>2025-09-30T12:02:59.319Z</time>
      </trkpt>
      <trkpt lat="43.69926" lon="2.28308">
        <ele>339</ele>
        <time>2025-09-30T12:03:00.241Z</time>
      </trkpt>
      <trkpt lat="43.6992" lon="2.28312">
        <ele>339.2</ele>
        <time>2025-09-30T12:03:01.282Z</time>
      </trkpt>
      <trkpt lat="43.69915" lon="2.28315">
        <ele>339.4</ele>
        <time>2025-09-30T12:03:02.204Z</time>
      </trkpt>
      <trkpt lat="43.6991" lon="2.28319">
        <ele>339.6</ele>
        <time>2025-09-30T12:03:03.157Z</time>
      </trkpt>
      <trkpt lat="43.69904" lon="2.28323">
        <ele>339.8</ele>
        <time>2025-09-30T12:03:04.198Z</time>
      </trkpt>
      <trkpt lat="43.69899" lon="2.28326">
        <ele>340</ele>
        <time>2025-09-30T12:03:05.120Z</time>
      </trkpt>
      <trkpt lat="43.69894" lon="2.28331">
        <ele>340</ele>
        <time>2025-09-30T12:03:05.824Z</time>
      </trkpt>
      <trkpt lat="43.69889" lon="2.28335">
        <ele>340.2</ele>
        <time>2025-09-30T12:03:06.777Z</time>
      </trkpt>
      <trkpt lat="43.69883" lon="2.28339">
        <ele>340.2</ele>
        <time>2025-09-30T12:03:07.538Z</time>
      </trkpt>
      <trkpt lat="43.69878" lon="2.28344">
        <ele>340.4</ele>
        <time>2025-09-30T12:03:08.530Z</time>
      </trkpt>
      <trkpt lat="43.69873" lon="2.28348">
        <ele>340.4</ele>
        <time>2025-09-30T12:03:09.189Z</time>
      </trkpt>
      <trkpt lat="43.69868" lon="2.28353">
        <ele>340.6</ele>
        <time>2025-09-30T12:03:10.181Z</time>
      </trkpt>
      <trkpt lat="43.69863" lon="2.28357">
        <ele>340.6</ele>
        <time>2025-09-30T12:03:10.841Z</time>
      </trkpt>
      <trkpt lat="43.69858" lon="2.28361">
        <ele>340.8</ele>
        <time>2025-09-30T12:03:11.794Z</time>
      </trkpt>
      <trkpt lat="43.69854" lon="2.28365">
        <ele>340.8</ele>
        <time>2025-09-30T12:03:12.358Z</time>
      </trkpt>
      <trkpt lat="43.69848" lon="2.28369">
        <ele>341</ele>
        <time>2025-09-30T12:03:13.399Z</time>
      </trkpt>
      <trkpt lat="43.69843" lon="2.28373">
        <ele>341.2</ele>
        <time>2025-09-30T12:03:14.352Z</time>
      </trkpt>
      <trkpt lat="43.69838" lon="2.28377">
        <ele>341.2</ele>
        <time>2025-09-30T12:03:15.012Z</time>
      </trkpt>
      <trkpt lat="43.69833" lon="2.28381">
        <ele>341.2</ele>
        <time>2025-09-30T12:03:15.671Z</time>
      </trkpt>
      <trkpt lat="43.69828" lon="2.28385">
        <ele>341.2</ele>
        <time>2025-09-30T12:03:16.331Z</time>
      </trkpt>
      <trkpt lat="43.69822" lon="2.28388">
        <ele>341.2</ele>
        <time>2025-09-30T12:03:17.059Z</time>
      </trkpt>
      <trkpt lat="43.69816" lon="2.28391">
        <ele>341.2</ele>
        <time>2025-09-30T12:03:17.788Z</time>
      </trkpt>
      <trkpt lat="43.69809" lon="2.28394">
        <ele>341</ele>
        <time>2025-09-30T12:03:18.448Z</time>
      </trkpt>
      <trkpt lat="43.69803" lon="2.28398">
        <ele>341</ele>
        <time>2025-09-30T12:03:19.209Z</time>
      </trkpt>
      <trkpt lat="43.69796" lon="2.28401">
        <ele>340.8</ele>
        <time>2025-09-30T12:03:19.869Z</time>
      </trkpt>
      <trkpt lat="43.69789" lon="2.28406">
        <ele>340.8</ele>
        <time>2025-09-30T12:03:20.768Z</time>
      </trkpt>
      <trkpt lat="43.69782" lon="2.2841">
        <ele>340.6</ele>
        <time>2025-09-30T12:03:21.455Z</time>
      </trkpt>
      <trkpt lat="43.69775" lon="2.28415">
        <ele>340.4</ele>
        <time>2025-09-30T12:03:22.176Z</time>
      </trkpt>
      <trkpt lat="43.69768" lon="2.2842">
        <ele>340.2</ele>
        <time>2025-09-30T12:03:22.896Z</time>
      </trkpt>
      <trkpt lat="43.69761" lon="2.28425">
        <ele>340</ele>
        <time>2025-09-30T12:03:23.616Z</time>
      </trkpt>
      <trkpt lat="43.69753" lon="2.28431">
        <ele>339.6</ele>
        <time>2025-09-30T12:03:24.340Z</time>
      </trkpt>
      <trkpt lat="43.69746" lon="2.28437">
        <ele>339.4</ele>
        <time>2025-09-30T12:03:25.099Z</time>
      </trkpt>
      <trkpt lat="43.69739" lon="2.28443">
        <ele>339.2</ele>
        <time>2025-09-30T12:03:25.859Z</time>
      </trkpt>
      <trkpt lat="43.69731" lon="2.28449">
        <ele>338.8</ele>
        <time>2025-09-30T12:03:26.583Z</time>
      </trkpt>
      <trkpt lat="43.69724" lon="2.28455">
        <ele>338.6</ele>
        <time>2025-09-30T12:03:27.342Z</time>
      </trkpt>
      <trkpt lat="43.69716" lon="2.28462">
        <ele>338.2</ele>
        <time>2025-09-30T12:03:28.104Z</time>
      </trkpt>
      <trkpt lat="43.69709" lon="2.28468">
        <ele>337.8</ele>
        <time>2025-09-30T12:03:28.738Z</time>
      </trkpt>
      <trkpt lat="43.69701" lon="2.28474">
        <ele>337.6</ele>
        <time>2025-09-30T12:03:29.593Z</time>
      </trkpt>
      <trkpt lat="43.69694" lon="2.2848">
        <ele>337.4</ele>
        <time>2025-09-30T12:03:30.353Z</time>
      </trkpt>
      <trkpt lat="43.69687" lon="2.28485">
        <ele>337.2</ele>
        <time>2025-09-30T12:03:31.073Z</time>
      </trkpt>
      <trkpt lat="43.6968" lon="2.2849">
        <ele>337</ele>
        <time>2025-09-30T12:03:31.794Z</time>
      </trkpt>
      <trkpt lat="43.69672" lon="2.28495">
        <ele>337</ele>
        <time>2025-09-30T12:03:32.796Z</time>
      </trkpt>
      <trkpt lat="43.69665" lon="2.28499">
        <ele>336.8</ele>
        <time>2025-09-30T12:03:33.483Z</time>
      </trkpt>
      <trkpt lat="43.69659" lon="2.28502">
        <ele>336.8</ele>
        <time>2025-09-30T12:03:34.212Z</time>
      </trkpt>
      <trkpt lat="43.69652" lon="2.28504">
        <ele>336.8</ele>
        <time>2025-09-30T12:03:35.028Z</time>
      </trkpt>
      <trkpt lat="43.69645" lon="2.28507">
        <ele>336.6</ele>
        <time>2025-09-30T12:03:35.688Z</time>
      </trkpt>
      <trkpt lat="43.69638" lon="2.28509">
        <ele>336.4</ele>
        <time>2025-09-30T12:03:36.328Z</time>
      </trkpt>
      <trkpt lat="43.6963" lon="2.28512">
        <ele>336.2</ele>
        <time>2025-09-30T12:03:37.094Z</time>
      </trkpt>
      <trkpt lat="43.69623" lon="2.28515">
        <ele>336</ele>
        <time>2025-09-30T12:03:37.754Z</time>
      </trkpt>
      <trkpt lat="43.69615" lon="2.28519">
        <ele>335.6</ele>
        <time>2025-09-30T12:03:38.416Z</time>
      </trkpt>
      <trkpt lat="43.69607" lon="2.28522">
        <ele>335.4</ele>
        <time>2025-09-30T12:03:39.181Z</time>
      </trkpt>
      <trkpt lat="43.69599" lon="2.28526">
        <ele>335.2</ele>
        <time>2025-09-30T12:03:39.971Z</time>
      </trkpt>
      <trkpt lat="43.69592" lon="2.2853">
        <ele>334.8</ele>
        <time>2025-09-30T12:03:40.538Z</time>
      </trkpt>
      <trkpt lat="43.69583" lon="2.28534">
        <ele>334.6</ele>
        <time>2025-09-30T12:03:41.432Z</time>
      </trkpt>
      <trkpt lat="43.69576" lon="2.28538">
        <ele>334.4</ele>
        <time>2025-09-30T12:03:42.119Z</time>
      </trkpt>
      <trkpt lat="43.69568" lon="2.28542">
        <ele>334.2</ele>
        <time>2025-09-30T12:03:42.909Z</time>
      </trkpt>
      <trkpt lat="43.69561" lon="2.28546">
        <ele>334.2</ele>
        <time>2025-09-30T12:03:43.774Z</time>
      </trkpt>
      <trkpt lat="43.69553" lon="2.28549">
        <ele>334</ele>
        <time>2025-09-30T12:03:44.540Z</time>
      </trkpt>
      <trkpt lat="43.69546" lon="2.28553">
        <ele>333.8</ele>
        <time>2025-09-30T12:03:45.226Z</time>
      </trkpt>
      <trkpt lat="43.69538" lon="2.28557">
        <ele>333.6</ele>
        <time>2025-09-30T12:03:46.016Z</time>
      </trkpt>
      <trkpt lat="43.6953" lon="2.2856">
        <ele>333.2</ele>
        <time>2025-09-30T12:03:46.656Z</time>
      </trkpt>
      <trkpt lat="43.69523" lon="2.28565">
        <ele>333.2</ele>
        <time>2025-09-30T12:03:47.555Z</time>
      </trkpt>
      <trkpt lat="43.69515" lon="2.28569">
        <ele>333</ele>
        <time>2025-09-30T12:03:48.345Z</time>
      </trkpt>
      <trkpt lat="43.69507" lon="2.28574">
        <ele>332.6</ele>
        <time>2025-09-30T12:03:49.035Z</time>
      </trkpt>
      <trkpt lat="43.69499" lon="2.28578">
        <ele>332.4</ele>
        <time>2025-09-30T12:03:49.825Z</time>
      </trkpt>
      <trkpt lat="43.69492" lon="2.28582">
        <ele>332</ele>
        <time>2025-09-30T12:03:50.391Z</time>
      </trkpt>
      <trkpt lat="43.69484" lon="2.28586">
        <ele>331.6</ele>
        <time>2025-09-30T12:03:51.053Z</time>
      </trkpt>
      <trkpt lat="43.69476" lon="2.28588">
        <ele>331.4</ele>
        <time>2025-09-30T12:03:51.801Z</time>
      </trkpt>
      <trkpt lat="43.69467" lon="2.28589">
        <ele>331</ele>
        <time>2025-09-30T12:03:52.517Z</time>
      </trkpt>
      <trkpt lat="43.69458" lon="2.2859">
        <ele>330.8</ele>
        <time>2025-09-30T12:03:53.365Z</time>
      </trkpt>
      <trkpt lat="43.69449" lon="2.28591">
        <ele>330.4</ele>
        <time>2025-09-30T12:03:54.081Z</time>
      </trkpt>
      <trkpt lat="43.69439" lon="2.28592">
        <ele>329.8</ele>
        <time>2025-09-30T12:03:54.797Z</time>
      </trkpt>
      <trkpt lat="43.69429" lon="2.28593">
        <ele>329.4</ele>
        <time>2025-09-30T12:03:55.618Z</time>
      </trkpt>
      <trkpt lat="43.69419" lon="2.28592">
        <ele>328.8</ele>
        <time>2025-09-30T12:03:56.335Z</time>
      </trkpt>
      <trkpt lat="43.69409" lon="2.28592">
        <ele>328.2</ele>
        <time>2025-09-30T12:03:57.049Z</time>
      </trkpt>
      <trkpt lat="43.69399" lon="2.28592">
        <ele>327.6</ele>
        <time>2025-09-30T12:03:57.763Z</time>
      </trkpt>
      <trkpt lat="43.69389" lon="2.28592">
        <ele>327.2</ele>
        <time>2025-09-30T12:03:58.580Z</time>
      </trkpt>
      <trkpt lat="43.69379" lon="2.28591">
        <ele>326.8</ele>
        <time>2025-09-30T12:03:59.401Z</time>
      </trkpt>
      <trkpt lat="43.6937" lon="2.2859">
        <ele>326.6</ele>
        <time>2025-09-30T12:04:00.249Z</time>
      </trkpt>
      <trkpt lat="43.69361" lon="2.28589">
        <ele>326.4</ele>
        <time>2025-09-30T12:04:01.096Z</time>
      </trkpt>
      <trkpt lat="43.69351" lon="2.28588">
        <ele>326.4</ele>
        <time>2025-09-30T12:04:02.241Z</time>
      </trkpt>
      <trkpt lat="43.69343" lon="2.28588">
        <ele>326.4</ele>
        <time>2025-09-30T12:04:03.155Z</time>
      </trkpt>
      <trkpt lat="43.69334" lon="2.28588">
        <ele>326.6</ele>
        <time>2025-09-30T12:04:04.444Z</time>
      </trkpt>
      <trkpt lat="43.69327" lon="2.28589">
        <ele>327</ele>
        <time>2025-09-30T12:04:05.976Z</time>
      </trkpt>
      <trkpt lat="43.69319" lon="2.2859">
        <ele>327.2</ele>
        <time>2025-09-30T12:04:07.161Z</time>
      </trkpt>
      <trkpt lat="43.69311" lon="2.28591">
        <ele>327.2</ele>
        <time>2025-09-30T12:04:08.079Z</time>
      </trkpt>
      <trkpt lat="43.69303" lon="2.28592">
        <ele>327.2</ele>
        <time>2025-09-30T12:04:08.996Z</time>
      </trkpt>
      <trkpt lat="43.69295" lon="2.28591">
        <ele>327.2</ele>
        <time>2025-09-30T12:04:09.913Z</time>
      </trkpt>
      <trkpt lat="43.69287" lon="2.28589">
        <ele>327</ele>
        <time>2025-09-30T12:04:10.661Z</time>
      </trkpt>
      <trkpt lat="43.69279" lon="2.28588">
        <ele>326.6</ele>
        <time>2025-09-30T12:04:11.274Z</time>
      </trkpt>
      <trkpt lat="43.69269" lon="2.28588">
        <ele>326.4</ele>
        <time>2025-09-30T12:04:12.230Z</time>
      </trkpt>
      <trkpt lat="43.69261" lon="2.28589">
        <ele>326</ele>
        <time>2025-09-30T12:04:12.843Z</time>
      </trkpt>
      <trkpt lat="43.69252" lon="2.28591">
        <ele>325.8</ele>
        <time>2025-09-30T12:04:13.700Z</time>
      </trkpt>
      <trkpt lat="43.69243" lon="2.28594">
        <ele>325.6</ele>
        <time>2025-09-30T12:04:14.573Z</time>
      </trkpt>
      <trkpt lat="43.69233" lon="2.28596">
        <ele>325.2</ele>
        <time>2025-09-30T12:04:15.402Z</time>
      </trkpt>
      <trkpt lat="43.69224" lon="2.28599">
        <ele>325</ele>
        <time>2025-09-30T12:04:16.275Z</time>
      </trkpt>
      <trkpt lat="43.69215" lon="2.28603">
        <ele>324.8</ele>
        <time>2025-09-30T12:04:17.170Z</time>
      </trkpt>
      <trkpt lat="43.69207" lon="2.28607">
        <ele>324.6</ele>
        <time>2025-09-30T12:04:17.959Z</time>
      </trkpt>
      <trkpt lat="43.69199" lon="2.28612">
        <ele>324.2</ele>
        <time>2025-09-30T12:04:18.649Z</time>
      </trkpt>
      <trkpt lat="43.69191" lon="2.28618">
        <ele>323.6</ele>
        <time>2025-09-30T12:04:19.276Z</time>
      </trkpt>
      <trkpt lat="43.69182" lon="2.28623">
        <ele>323</ele>
        <time>2025-09-30T12:04:19.960Z</time>
      </trkpt>
      <trkpt lat="43.69144" lon="2.28627">
        <ele>375.4</ele>
        <time>2025-09-30T12:04:38.611Z</time>
        <extensions>
          <visugpx:TrkExtension xmlns:visugpx="https://www.visugpx.com/editgpx/">
            <visugpx:node>15</visugpx:node>
            </visugpx:TrkExtension>
        </extensions>
      </trkpt>
      <trkpt lat="43.69131" lon="2.28633">
        <ele>374.6</ele>
      </trkpt>
      <trkpt lat="43.69075" lon="2.28635">
        <ele>374.7</ele>
      </trkpt>
      <trkpt lat="43.69009" lon="2.28665">
        <ele>378.7</ele>
      </trkpt>
      <trkpt lat="43.68969" lon="2.28688">
        <ele>380.3</ele>
      </trkpt>
      <trkpt lat="43.68916" lon="2.28721">
        <ele>382.9</ele>
      </trkpt>
      <trkpt lat="43.68869" lon="2.28759">
        <ele>383.5</ele>
      </trkpt>
      <trkpt lat="43.68821" lon="2.28798">
        <ele>381.7</ele>
      </trkpt>
      <trkpt lat="43.68779" lon="2.28839">
        <ele>380</ele>
      </trkpt>
      <trkpt lat="43.68753" lon="2.289">
        <ele>378.1</ele>
      </trkpt>
      <trkpt lat="43.6872" lon="2.28976">
        <ele>369.9</ele>
      </trkpt>
      <trkpt lat="43.68688" lon="2.29038">
        <ele>362.3</ele>
      </trkpt>
      <trkpt lat="43.68648" lon="2.2908">
        <ele>359.7</ele>
      </trkpt>
      <trkpt lat="43.68617" lon="2.29084">
        <ele>356.2</ele>
      </trkpt>
      <trkpt lat="43.68576" lon="2.29103">
        <ele>350</ele>
      </trkpt>
      <trkpt lat="43.68533" lon="2.29129">
        <ele>340.1</ele>
      </trkpt>
      <trkpt lat="43.68525" lon="2.29177">
        <ele>338.5</ele>
      </trkpt>
      <trkpt lat="43.68515" lon="2.29224">
        <ele>333.2</ele>
      </trkpt>
      <trkpt lat="43.68523" lon="2.2926">
        <ele>331.7</ele>
      </trkpt>
      <trkpt lat="43.68492" lon="2.29266">
        <ele>325</ele>
      </trkpt>
      <trkpt lat="43.68415" lon="2.29303">
        <ele>316.6</ele>
      </trkpt>
      <trkpt lat="43.68385" lon="2.2933">
        <ele>314</ele>
      </trkpt>
      <trkpt lat="43.68374" lon="2.29345">
        <ele>311.7</ele>
      </trkpt>
      <trkpt lat="43.68369" lon="2.29351">
        <ele>311.4</ele>
      </trkpt>
      <trkpt lat="43.68361" lon="2.29343">
        <ele>310.7</ele>
      </trkpt>
      <trkpt lat="43.68359" lon="2.29336">
        <ele>309.7</ele>
      </trkpt>
      <trkpt lat="43.68358" lon="2.29318">
        <ele>308.1</ele>
      </trkpt>
      <trkpt lat="43.68356" lon="2.29303">
        <ele>305.9</ele>
      </trkpt>
      <trkpt lat="43.68362" lon="2.29279">
        <ele>303.4</ele>
      </trkpt>
      <trkpt lat="43.68363" lon="2.29272">
        <ele>302.6</ele>
      </trkpt>
      <trkpt lat="43.68361" lon="2.29269">
        <ele>301.5</ele>
      </trkpt>
      <trkpt lat="43.68357" lon="2.2927">
        <ele>300.3</ele>
      </trkpt>
      <trkpt lat="43.68352" lon="2.29273">
        <ele>299</ele>
      </trkpt>
      <trkpt lat="43.6834" lon="2.29285">
        <ele>297.6</ele>
      </trkpt>
      <trkpt lat="43.68325" lon="2.293">
        <ele>294.4</ele>
      </trkpt>
      <trkpt lat="43.68314" lon="2.29313">
        <ele>291.9</ele>
      </trkpt>
      <trkpt lat="43.68302" lon="2.29324">
        <ele>289.2</ele>
      </trkpt>
      <trkpt lat="43.68281" lon="2.29327">
        <ele>283.9</ele>
      </trkpt>
      <trkpt lat="43.68261" lon="2.29331">
        <ele>281.1</ele>
      </trkpt>
      <trkpt lat="43.68249" lon="2.29337">
        <ele>280.1</ele>
      </trkpt>
      <trkpt lat="43.68243" lon="2.29337">
        <ele>279.1</ele>
      </trkpt>
      <trkpt lat="43.68235" lon="2.29342">
        <ele>277.9</ele>
      </trkpt>
      <trkpt lat="43.68209" lon="2.29371">
        <ele>274.6</ele>
      </trkpt>
      <trkpt lat="43.68168" lon="2.29394">
        <ele>271.4</ele>
      </trkpt>
      <trkpt lat="43.6816" lon="2.29396">
        <ele>270.7</ele>
      </trkpt>
      <trkpt lat="43.68152" lon="2.29399">
        <ele>269.9</ele>
      </trkpt>
      <trkpt lat="43.68143" lon="2.29396">
        <ele>269.6</ele>
        <extensions>
          <visugpx:TrkExtension xmlns:visugpx="https://www.visugpx.com/editgpx/">
            <visugpx:node>16</visugpx:node>
            </visugpx:TrkExtension>
        </extensions>
      </trkpt>
      <trkpt lat="43.68138" lon="2.29391">
        <ele>209</ele>
        <time>2025-09-30T12:09:53.624Z</time>
        <extensions>
          <visugpx:TrkExtension xmlns:visugpx="https://www.visugpx.com/editgpx/">
            <visugpx:node>17</visugpx:node>
            </visugpx:TrkExtension>
        </extensions>
      </trkpt>
      <trkpt lat="43.68134" lon="2.2939">
        <ele>209</ele>
        <time>2025-09-30T12:09:54.088Z</time>
      </trkpt>
      <trkpt lat="43.68131" lon="2.29389">
        <ele>209</ele>
        <time>2025-09-30T12:09:54.440Z</time>
      </trkpt>
      <trkpt lat="43.68128" lon="2.29389">
        <ele>209</ele>
        <time>2025-09-30T12:09:54.783Z</time>
      </trkpt>
      <trkpt lat="43.68125" lon="2.29387">
        <ele>209</ele>
        <time>2025-09-30T12:09:55.163Z</time>
      </trkpt>
      <trkpt lat="43.68121" lon="2.29386">
        <ele>208.8</ele>
        <time>2025-09-30T12:09:55.475Z</time>
      </trkpt>
      <trkpt lat="43.68118" lon="2.29385">
        <ele>208.8</ele>
        <time>2025-09-30T12:09:55.827Z</time>
      </trkpt>
      <trkpt lat="43.68114" lon="2.29384">
        <ele>208.8</ele>
        <time>2025-09-30T12:09:56.291Z</time>
      </trkpt>
      <trkpt lat="43.68111" lon="2.29382">
        <ele>208.6</ele>
        <time>2025-09-30T12:09:56.529Z</time>
      </trkpt>
      <trkpt lat="43.68107" lon="2.29381">
        <ele>208.6</ele>
        <time>2025-09-30T12:09:56.993Z</time>
      </trkpt>
      <trkpt lat="43.68103" lon="2.29379">
        <ele>208.6</ele>
        <time>2025-09-30T12:09:57.479Z</time>
      </trkpt>
      <trkpt lat="43.681" lon="2.29378">
        <ele>208.4</ele>
        <time>2025-09-30T12:09:57.693Z</time>
      </trkpt>
      <trkpt lat="43.68096" lon="2.29377">
        <ele>208.4</ele>
        <time>2025-09-30T12:09:58.157Z</time>
      </trkpt>
      <trkpt lat="43.68093" lon="2.29376">
        <ele>208.2</ele>
        <time>2025-09-30T12:09:58.371Z</time>
      </trkpt>
      <trkpt lat="43.68089" lon="2.29374">
        <ele>208.2</ele>
        <time>2025-09-30T12:09:58.856Z</time>
      </trkpt>
      <trkpt lat="43.68085" lon="2.29373">
        <ele>208.2</ele>
        <time>2025-09-30T12:09:59.321Z</time>
      </trkpt>
      <trkpt lat="43.68081" lon="2.29371">
        <ele>208</ele>
        <time>2025-09-30T12:09:59.652Z</time>
      </trkpt>
      <trkpt lat="43.68077" lon="2.29369">
        <ele>208</ele>
        <time>2025-09-30T12:10:00.137Z</time>
      </trkpt>
      <trkpt lat="43.68073" lon="2.29368">
        <ele>207.8</ele>
        <time>2025-09-30T12:10:00.449Z</time>
      </trkpt>
      <trkpt lat="43.68068" lon="2.29366">
        <ele>207.6</ele>
        <time>2025-09-30T12:10:00.879Z</time>
      </trkpt>
      <trkpt lat="43.68063" lon="2.29364">
        <ele>207.4</ele>
        <time>2025-09-30T12:10:01.310Z</time>
      </trkpt>
      <trkpt lat="43.68059" lon="2.29362">
        <ele>207.2</ele>
        <time>2025-09-30T12:10:01.641Z</time>
      </trkpt>
      <trkpt lat="43.68054" lon="2.29361">
        <ele>207</ele>
        <time>2025-09-30T12:10:02.055Z</time>
      </trkpt>
      <trkpt lat="43.68048" lon="2.29359">
        <ele>206.8</ele>
        <time>2025-09-30T12:10:02.589Z</time>
      </trkpt>
      <trkpt lat="43.68043" lon="2.29357">
        <ele>206.6</ele>
        <time>2025-09-30T12:10:03.020Z</time>
      </trkpt>
      <trkpt lat="43.68038" lon="2.29355">
        <ele>206.4</ele>
        <time>2025-09-30T12:10:03.451Z</time>
      </trkpt>
      <trkpt lat="43.68033" lon="2.29353">
        <ele>206.2</ele>
        <time>2025-09-30T12:10:03.881Z</time>
      </trkpt>
      <trkpt lat="43.68028" lon="2.29351">
        <ele>206</ele>
        <time>2025-09-30T12:10:04.312Z</time>
      </trkpt>
      <trkpt lat="43.68023" lon="2.29348">
        <ele>205.8</ele>
        <time>2025-09-30T12:10:04.768Z</time>
      </trkpt>
      <trkpt lat="43.68018" lon="2.29346">
        <ele>205.6</ele>
        <time>2025-09-30T12:10:05.199Z</time>
      </trkpt>
      <trkpt lat="43.68013" lon="2.29344">
        <ele>205.2</ele>
        <time>2025-09-30T12:10:05.556Z</time>
      </trkpt>
      <trkpt lat="43.68008" lon="2.29341">
        <ele>205</ele>
        <time>2025-09-30T12:10:06.012Z</time>
      </trkpt>
      <trkpt lat="43.68002" lon="2.29339">
        <ele>204.4</ele>
        <time>2025-09-30T12:10:06.435Z</time>
      </trkpt>
      <trkpt lat="43.67995" lon="2.29336">
        <ele>204</ele>
        <time>2025-09-30T12:10:06.977Z</time>
      </trkpt>
      <trkpt lat="43.67988" lon="2.29333">
        <ele>203.4</ele>
        <time>2025-09-30T12:10:07.479Z</time>
      </trkpt>
      <trkpt lat="43.6798" lon="2.2933">
        <ele>202.8</ele>
        <time>2025-09-30T12:10:08.047Z</time>
      </trkpt>
      <trkpt lat="43.67973" lon="2.29327">
        <ele>202</ele>
        <time>2025-09-30T12:10:08.549Z</time>
      </trkpt>
      <trkpt lat="43.67966" lon="2.29323">
        <ele>201.4</ele>
        <time>2025-09-30T12:10:09.068Z</time>
      </trkpt>
      <trkpt lat="43.67959" lon="2.29319">
        <ele>200.8</ele>
        <time>2025-09-30T12:10:09.587Z</time>
      </trkpt>
      <trkpt lat="43.67953" lon="2.29314">
        <ele>200</ele>
        <time>2025-09-30T12:10:10.067Z</time>
      </trkpt>
      <trkpt lat="43.67947" lon="2.29308">
        <ele>199.2</ele>
        <time>2025-09-30T12:10:10.574Z</time>
      </trkpt>
      <trkpt lat="43.67942" lon="2.29303">
        <ele>198.2</ele>
        <time>2025-09-30T12:10:10.997Z</time>
      </trkpt>
      <trkpt lat="43.67937" lon="2.29298">
        <ele>197.4</ele>
        <time>2025-09-30T12:10:11.420Z</time>
      </trkpt>
      <trkpt lat="43.67933" lon="2.29294">
        <ele>196.4</ele>
        <time>2025-09-30T12:10:11.758Z</time>
      </trkpt>
      <trkpt lat="43.67929" lon="2.29291">
        <ele>195.4</ele>
        <time>2025-09-30T12:10:12.070Z</time>
      </trkpt>
      <trkpt lat="43.67925" lon="2.29288">
        <ele>194.6</ele>
        <time>2025-09-30T12:10:12.382Z</time>
      </trkpt>
      <trkpt lat="43.67922" lon="2.29285">
        <ele>193.6</ele>
        <time>2025-09-30T12:10:12.635Z</time>
      </trkpt>
      <trkpt lat="43.67919" lon="2.29282">
        <ele>192.8</ele>
        <time>2025-09-30T12:10:12.889Z</time>
      </trkpt>
      <trkpt lat="43.67917" lon="2.29279">
        <ele>192</ele>
        <time>2025-09-30T12:10:13.091Z</time>
      </trkpt>
      <trkpt lat="43.67913" lon="2.29276">
        <ele>191.2</ele>
        <time>2025-09-30T12:10:13.403Z</time>
      </trkpt>
      <trkpt lat="43.6791" lon="2.29273">
        <ele>190.4</ele>
        <time>2025-09-30T12:10:13.657Z</time>
      </trkpt>
      <trkpt lat="43.67905" lon="2.29269">
        <ele>189.8</ele>
        <time>2025-09-30T12:10:14.052Z</time>
      </trkpt>
      <trkpt lat="43.67901" lon="2.29265">
        <ele>189</ele>
        <time>2025-09-30T12:10:14.391Z</time>
      </trkpt>
      <trkpt lat="43.67897" lon="2.29259">
        <ele>188.4</ele>
        <time>2025-09-30T12:10:14.795Z</time>
      </trkpt>
      <trkpt lat="43.67891" lon="2.29254">
        <ele>187.6</ele>
        <time>2025-09-30T12:10:15.275Z</time>
      </trkpt>
      <trkpt lat="43.67886" lon="2.29249">
        <ele>186.8</ele>
        <time>2025-09-30T12:10:15.698Z</time>
      </trkpt>
      <trkpt lat="43.6788" lon="2.29244">
        <ele>186</ele>
        <time>2025-09-30T12:10:16.178Z</time>
      </trkpt>
      <trkpt lat="43.67873" lon="2.29239">
        <ele>185.2</ele>
        <time>2025-09-30T12:10:16.718Z</time>
      </trkpt>
      <trkpt lat="43.67867" lon="2.29234">
        <ele>184.4</ele>
        <time>2025-09-30T12:10:17.198Z</time>
      </trkpt>
      <trkpt lat="43.67861" lon="2.29229">
        <ele>183.6</ele>
        <time>2025-09-30T12:10:17.678Z</time>
      </trkpt>
      <trkpt lat="43.67854" lon="2.29224">
        <ele>183</ele>
        <time>2025-09-30T12:10:18.217Z</time>
      </trkpt>
      <trkpt lat="43.67847" lon="2.29219">
        <ele>182.2</ele>
        <time>2025-09-30T12:10:18.757Z</time>
      </trkpt>
      <trkpt lat="43.67839" lon="2.29214">
        <ele>181.4</ele>
        <time>2025-09-30T12:10:19.359Z</time>
      </trkpt>
      <trkpt lat="43.67831" lon="2.29208">
        <ele>180.4</ele>
        <time>2025-09-30T12:10:19.982Z</time>
      </trkpt>
      <trkpt lat="43.67823" lon="2.29202">
        <ele>179.4</ele>
        <time>2025-09-30T12:10:20.606Z</time>
        <extensions>
          <visugpx:TrkExtension xmlns:visugpx="https://www.visugpx.com/editgpx/">
            <visugpx:node>18</visugpx:node>
            </visugpx:TrkExtension>
        </extensions>
      </trkpt>
      <trkpt lat="43.67817" lon="2.292">
        <ele>234.6</ele>
        <time>2025-09-30T12:10:23.626Z</time>
      </trkpt>
      <trkpt lat="43.67805" lon="2.29186">
        <ele>232.7</ele>
        <time>2025-09-30T12:10:24.702Z</time>
      </trkpt>
      <trkpt lat="43.67804" lon="2.29183">
        <ele>232</ele>
        <time>2025-09-30T12:10:24.866Z</time>
      </trkpt>
      <trkpt lat="43.6782" lon="2.29187">
        <ele>230.8</ele>
        <time>2025-09-30T12:10:25.980Z</time>
      </trkpt>
      <trkpt lat="43.6787" lon="2.29195">
        <ele>227.5</ele>
        <time>2025-09-30T12:10:29.453Z</time>
      </trkpt>
      <trkpt lat="43.67892" lon="2.29202">
        <ele>227.8</ele>
        <time>2025-09-30T12:10:32.394Z</time>
      </trkpt>
      <trkpt lat="43.67895" lon="2.29203">
        <ele>227.9</ele>
        <time>2025-09-30T12:10:32.890Z</time>
      </trkpt>
      <trkpt lat="43.67902" lon="2.29207">
        <ele>228.3</ele>
        <time>2025-09-30T12:10:34.454Z</time>
      </trkpt>
      <trkpt lat="43.67913" lon="2.29208">
        <ele>227.7</ele>
        <time>2025-09-30T12:10:35.270Z</time>
      </trkpt>
      <trkpt lat="43.67923" lon="2.29207">
        <ele>227.3</ele>
        <time>2025-09-30T12:10:36.091Z</time>
      </trkpt>
      <trkpt lat="43.67931" lon="2.29204">
        <ele>226.9</ele>
        <time>2025-09-30T12:10:36.730Z</time>
      </trkpt>
      <trkpt lat="43.6794" lon="2.292">
        <ele>226.4</ele>
        <time>2025-09-30T12:10:37.437Z</time>
      </trkpt>
      <trkpt lat="43.67948" lon="2.29197">
        <ele>226.4</ele>
        <time>2025-09-30T12:10:38.384Z</time>
      </trkpt>
      <trkpt lat="43.67951" lon="2.29192">
        <ele>227.2</ele>
        <time>2025-09-30T12:10:40.683Z</time>
      </trkpt>
      <trkpt lat="43.6795" lon="2.29187">
        <ele>228.5</ele>
        <time>2025-09-30T12:10:42.519Z</time>
      </trkpt>
      <trkpt lat="43.67947" lon="2.29183">
        <ele>229.4</ele>
        <time>2025-09-30T12:10:44.559Z</time>
      </trkpt>
      <trkpt lat="43.6793" lon="2.29171">
        <ele>230.1</ele>
        <time>2025-09-30T12:10:47.785Z</time>
      </trkpt>
      <trkpt lat="43.67908" lon="2.29151">
        <ele>232.2</ele>
        <time>2025-09-30T12:10:55.589Z</time>
      </trkpt>
      <trkpt lat="43.67848" lon="2.29088">
        <ele>242.3</ele>
        <time>2025-09-30T12:11:32.460Z</time>
      </trkpt>
      <trkpt lat="43.67842" lon="2.29059">
        <ele>246.6</ele>
        <time>2025-09-30T12:11:43.136Z</time>
      </trkpt>
      <trkpt lat="43.67834" lon="2.29002">
        <ele>251</ele>
        <time>2025-09-30T12:12:00.238Z</time>
      </trkpt>
      <trkpt lat="43.67832" lon="2.28984">
        <ele>252.4</ele>
        <time>2025-09-30T12:12:05.691Z</time>
      </trkpt>
      <trkpt lat="43.67829" lon="2.28954">
        <ele>254.3</ele>
        <time>2025-09-30T12:12:12.825Z</time>
      </trkpt>
      <trkpt lat="43.67824" lon="2.28891">
        <ele>259.8</ele>
        <time>2025-09-30T12:12:34.203Z</time>
      </trkpt>
      <trkpt lat="43.67824" lon="2.28886">
        <ele>260.2</ele>
        <time>2025-09-30T12:12:35.767Z</time>
      </trkpt>
      <trkpt lat="43.67823" lon="2.28876">
        <ele>260.8</ele>
        <time>2025-09-30T12:12:38.003Z</time>
      </trkpt>
      <trkpt lat="43.67821" lon="2.28864">
        <ele>261.2</ele>
        <time>2025-09-30T12:12:39.667Z</time>
      </trkpt>
      <trkpt lat="43.67809" lon="2.28826">
        <ele>264.1</ele>
        <time>2025-09-30T12:12:50.776Z</time>
      </trkpt>
      <trkpt lat="43.67807" lon="2.28822">
        <ele>264.4</ele>
        <time>2025-09-30T12:12:51.900Z</time>
      </trkpt>
      <trkpt lat="43.67792" lon="2.28751">
        <ele>273.8</ele>
        <time>2025-09-30T12:13:18.080Z</time>
      </trkpt>
      <trkpt lat="43.67781" lon="2.28719">
        <ele>280.9</ele>
        <time>2025-09-30T12:13:30.621Z</time>
      </trkpt>
      <trkpt lat="43.67765" lon="2.28674">
        <ele>291.6</ele>
        <time>2025-09-30T12:13:48.369Z</time>
      </trkpt>
      <trkpt lat="43.67748" lon="2.2865">
        <ele>296.3</ele>
        <time>2025-09-30T12:14:00.260Z</time>
      </trkpt>
      <trkpt lat="43.67731" lon="2.2863">
        <ele>301</ele>
        <time>2025-09-30T12:14:11.184Z</time>
      </trkpt>
      <trkpt lat="43.67719" lon="2.28622">
        <ele>302.4</ele>
        <time>2025-09-30T12:14:16.628Z</time>
      </trkpt>
      <trkpt lat="43.67691" lon="2.28617">
        <ele>303.7</ele>
        <time>2025-09-30T12:14:21.978Z</time>
      </trkpt>
      <trkpt lat="43.67671" lon="2.28614">
        <ele>303.5</ele>
        <time>2025-09-30T12:14:24.074Z</time>
      </trkpt>
      <trkpt lat="43.67647" lon="2.2861">
        <ele>303.3</ele>
        <time>2025-09-30T12:14:26.631Z</time>
      </trkpt>
      <trkpt lat="43.6764" lon="2.2861">
        <ele>303.1</ele>
        <time>2025-09-30T12:14:27.255Z</time>
      </trkpt>
      <trkpt lat="43.67635" lon="2.28609">
        <ele>303.1</ele>
        <time>2025-09-30T12:14:27.832Z</time>
        <extensions>
          <visugpx:TrkExtension xmlns:visugpx="https://www.visugpx.com/editgpx/">
            <visugpx:node>19</visugpx:node>
            </visugpx:TrkExtension>
        </extensions>
      </trkpt>
      <trkpt lat="43.67589" lon="2.28607">
        <ele>303.9</ele>
        <time>2025-09-30T12:14:34.092Z</time>
      </trkpt>
      <trkpt lat="43.67579" lon="2.28614">
        <ele>303.7</ele>
        <time>2025-09-30T12:14:35.183Z</time>
      </trkpt>
      <trkpt lat="43.67572" lon="2.28618">
        <ele>303.4</ele>
        <time>2025-09-30T12:14:35.804Z</time>
      </trkpt>
      <trkpt lat="43.67545" lon="2.28634">
        <ele>301.8</ele>
        <time>2025-09-30T12:14:37.978Z</time>
      </trkpt>
      <trkpt lat="43.67492" lon="2.28662">
        <ele>299.6</ele>
        <time>2025-09-30T12:14:42.659Z</time>
      </trkpt>
      <trkpt lat="43.67479" lon="2.28674">
        <ele>298.9</ele>
        <time>2025-09-30T12:14:43.894Z</time>
      </trkpt>
      <trkpt lat="43.67458" lon="2.28704">
        <ele>296.5</ele>
        <time>2025-09-30T12:14:45.963Z</time>
      </trkpt>
      <trkpt lat="43.67445" lon="2.28731">
        <ele>296</ele>
        <time>2025-09-30T12:14:48.181Z</time>
      </trkpt>
      <trkpt lat="43.67421" lon="2.28785">
        <ele>292.2</ele>
        <time>2025-09-30T12:14:51.321Z</time>
      </trkpt>
      <trkpt lat="43.67416" lon="2.28792">
        <ele>292.9</ele>
        <time>2025-09-30T12:14:54.012Z</time>
      </trkpt>
      <trkpt lat="43.674" lon="2.2882">
        <ele>290.9</ele>
        <time>2025-09-30T12:14:55.780Z</time>
      </trkpt>
      <trkpt lat="43.67373" lon="2.28861">
        <ele>289.6</ele>
        <time>2025-09-30T12:14:59.251Z</time>
      </trkpt>
      <trkpt lat="43.67348" lon="2.28901">
        <ele>285.8</ele>
        <time>2025-09-30T12:15:01.871Z</time>
      </trkpt>
      <trkpt lat="43.67332" lon="2.28925">
        <ele>283.2</ele>
        <time>2025-09-30T12:15:03.488Z</time>
      </trkpt>
      <trkpt lat="43.67326" lon="2.28933">
        <ele>281.9</ele>
        <time>2025-09-30T12:15:04.059Z</time>
      </trkpt>
      <trkpt lat="43.67317" lon="2.28941">
        <ele>280.4</ele>
        <time>2025-09-30T12:15:04.792Z</time>
      </trkpt>
      <trkpt lat="43.6729" lon="2.28959">
        <ele>276.8</ele>
        <time>2025-09-30T12:15:06.846Z</time>
      </trkpt>
      <trkpt lat="43.67251" lon="2.28987">
        <ele>273.1</ele>
        <time>2025-09-30T12:15:09.857Z</time>
      </trkpt>
      <trkpt lat="43.67228" lon="2.29009">
        <ele>270.7</ele>
        <time>2025-09-30T12:15:11.773Z</time>
      </trkpt>
      <trkpt lat="43.67225" lon="2.29012">
        <ele>270.3</ele>
        <time>2025-09-30T12:15:12.027Z</time>
      </trkpt>
      <trkpt lat="43.67219" lon="2.29021">
        <ele>269.4</ele>
        <time>2025-09-30T12:15:12.634Z</time>
      </trkpt>
      <trkpt lat="43.67205" lon="2.29048">
        <ele>267.1</ele>
        <time>2025-09-30T12:15:14.280Z</time>
      </trkpt>
      <trkpt lat="43.67188" lon="2.2908">
        <ele>264.2</ele>
        <time>2025-09-30T12:15:16.247Z</time>
      </trkpt>
      <trkpt lat="43.67165" lon="2.2912">
        <ele>260.3</ele>
        <time>2025-09-30T12:15:18.780Z</time>
      </trkpt>
      <trkpt lat="43.67157" lon="2.29135">
        <ele>258.9</ele>
        <time>2025-09-30T12:15:19.703Z</time>
        <extensions>
          <visugpx:TrkExtension xmlns:visugpx="https://www.visugpx.com/editgpx/">
            <visugpx:node>20</visugpx:node>
            </visugpx:TrkExtension>
        </extensions>
      </trkpt>
      <trkpt lat="43.67153" lon="2.29139">
        <ele>258.5</ele>
        <time>2025-09-30T12:15:20.042Z</time>
      </trkpt>
      <trkpt lat="43.67147" lon="2.29096">
        <ele>261.2</ele>
        <time>2025-09-30T12:15:30.152Z</time>
      </trkpt>
      <trkpt lat="43.67142" lon="2.29072">
        <ele>261.4</ele>
        <time>2025-09-30T12:15:32.453Z</time>
      </trkpt>
      <trkpt lat="43.67143" lon="2.29041">
        <ele>260.8</ele>
        <time>2025-09-30T12:15:34.484Z</time>
      </trkpt>
      <trkpt lat="43.67153" lon="2.28993">
        <ele>258.4</ele>
        <time>2025-09-30T12:15:36.963Z</time>
      </trkpt>
      <trkpt lat="43.67186" lon="2.28942">
        <ele>254.5</ele>
        <time>2025-09-30T12:15:40.355Z</time>
      </trkpt>
      <trkpt lat="43.67231" lon="2.28895">
        <ele>253.7</ele>
        <time>2025-09-30T12:15:46.017Z</time>
      </trkpt>
      <trkpt lat="43.6733" lon="2.2874">
        <ele>256.6</ele>
        <time>2025-09-30T12:16:06.801Z</time>
      </trkpt>
      <trkpt lat="43.6736" lon="2.2866">
        <ele>255.5</ele>
        <time>2025-09-30T12:16:13.195Z</time>
      </trkpt>
      <trkpt lat="43.67352" lon="2.28651">
        <ele>256.1</ele>
        <time>2025-09-30T12:16:15.479Z</time>
      </trkpt>
      <trkpt lat="43.67349" lon="2.28649">
        <ele>256.6</ele>
        <time>2025-09-30T12:16:17.109Z</time>
      </trkpt>
      <trkpt lat="43.67342" lon="2.28655">
        <ele>256.7</ele>
        <time>2025-09-30T12:16:18.169Z</time>
      </trkpt>
      <trkpt lat="43.67323" lon="2.28669">
        <ele>258.7</ele>
        <time>2025-09-30T12:16:25.770Z</time>
      </trkpt>
      <trkpt lat="43.67268" lon="2.287">
        <ele>271.8</ele>
        <time>2025-09-30T12:16:54.838Z</time>
      </trkpt>
      <trkpt lat="43.67219" lon="2.28712">
        <ele>281.2</ele>
        <time>2025-09-30T12:17:19.192Z</time>
        <extensions>
          <visugpx:TrkExtension xmlns:visugpx="https://www.visugpx.com/editgpx/">
            <visugpx:node>21</visugpx:node>
            </visugpx:TrkExtension>
        </extensions>
      </trkpt>
      <trkpt lat="43.67211" lon="2.28714">
        <ele>281.7</ele>
        <time>2025-09-30T12:17:21.073Z</time>
      </trkpt>
      <trkpt lat="43.67189" lon="2.28708">
        <ele>283.9</ele>
        <time>2025-09-30T12:17:29.525Z</time>
      </trkpt>
      <trkpt lat="43.67207" lon="2.28685">
        <ele>285.6</ele>
        <time>2025-09-30T12:17:35.830Z</time>
      </trkpt>
      <trkpt lat="43.67227" lon="2.28645">
        <ele>289</ele>
        <time>2025-09-30T12:17:48.853Z</time>
      </trkpt>
      <trkpt lat="43.67249" lon="2.28584">
        <ele>292.9</ele>
        <time>2025-09-30T12:18:03.337Z</time>
      </trkpt>
      <trkpt lat="43.67231" lon="2.2857">
        <ele>293.3</ele>
        <time>2025-09-30T12:18:06.206Z</time>
        <extensions>
          <visugpx:TrkExtension xmlns:visugpx="https://www.visugpx.com/editgpx/">
            <visugpx:node>22</visugpx:node>
            </visugpx:TrkExtension>
        </extensions>
      </trkpt>
      <trkpt lat="43.67138" lon="2.28711">
        <ele>281.4</ele>
        <time>2025-09-30T12:18:15.663Z</time>
      </trkpt>
      <trkpt lat="43.67054" lon="2.28804">
        <ele>274.1</ele>
        <time>2025-09-30T12:18:23.036Z</time>
        <extensions>
          <visugpx:TrkExtension xmlns:visugpx="https://www.visugpx.com/editgpx/">
            <visugpx:node>23</visugpx:node>
            </visugpx:TrkExtension>
        </extensions>
      </trkpt>
      <trkpt lat="43.66967" lon="2.289">
        <ele>269.7</ele>
        <time>2025-09-30T12:18:32.170Z</time>
      </trkpt>
      <trkpt lat="43.66962" lon="2.28909">
        <ele>269.1</ele>
        <time>2025-09-30T12:18:32.732Z</time>
      </trkpt>
      <trkpt lat="43.66925" lon="2.28932">
        <ele>266.8</ele>
        <time>2025-09-30T12:18:35.691Z</time>
      </trkpt>
      <trkpt lat="43.66908" lon="2.28942">
        <ele>265.5</ele>
        <time>2025-09-30T12:18:36.957Z</time>
      </trkpt>
      <trkpt lat="43.66902" lon="2.28942">
        <ele>265</ele>
        <time>2025-09-30T12:18:37.368Z</time>
      </trkpt>
      <trkpt lat="43.66882" lon="2.28958">
        <ele>262.7</ele>
        <time>2025-09-30T12:18:38.951Z</time>
      </trkpt>
      <trkpt lat="43.66809" lon="2.28998">
        <ele>251.7</ele>
        <time>2025-09-30T12:18:44.331Z</time>
      </trkpt>
      <trkpt lat="43.6676" lon="2.29025">
        <ele>244.3</ele>
        <time>2025-09-30T12:18:47.946Z</time>
      </trkpt>
      <trkpt lat="43.66731" lon="2.2904">
        <ele>242.8</ele>
        <time>2025-09-30T12:18:50.331Z</time>
      </trkpt>
      <trkpt lat="43.66693" lon="2.29064">
        <ele>239.6</ele>
        <time>2025-09-30T12:18:53.194Z</time>
      </trkpt>
      <trkpt lat="43.66638" lon="2.29098">
        <ele>234.9</ele>
        <time>2025-09-30T12:18:57.322Z</time>
      </trkpt>
      <trkpt lat="43.66595" lon="2.29119">
        <ele>231</ele>
        <time>2025-09-30T12:19:00.446Z</time>
      </trkpt>
      <trkpt lat="43.66584" lon="2.29125">
        <ele>229.6</ele>
        <time>2025-09-30T12:19:01.256Z</time>
      </trkpt>
      <trkpt lat="43.66583" lon="2.29126">
        <ele>229.4</ele>
        <time>2025-09-30T12:19:01.341Z</time>
      </trkpt>
      <trkpt lat="43.66542" lon="2.29145">
        <ele>225</ele>
        <time>2025-09-30T12:19:04.304Z</time>
      </trkpt>
      <trkpt lat="43.66539" lon="2.29156">
        <ele>224.8</ele>
        <time>2025-09-30T12:19:05.093Z</time>
      </trkpt>
      <trkpt lat="43.66525" lon="2.2915">
        <ele>223.8</ele>
        <time>2025-09-30T12:19:06.097Z</time>
      </trkpt>
      <trkpt lat="43.66519" lon="2.29149">
        <ele>223.4</ele>
        <time>2025-09-30T12:19:06.513Z</time>
      </trkpt>
      <trkpt lat="43.66518" lon="2.29157">
        <ele>223.3</ele>
        <time>2025-09-30T12:19:07.088Z</time>
      </trkpt>
      <trkpt lat="43.66512" lon="2.29168">
        <ele>222.8</ele>
        <time>2025-09-30T12:19:07.847Z</time>
      </trkpt>
      <trkpt lat="43.6651" lon="2.29173">
        <ele>222.4</ele>
        <time>2025-09-30T12:19:08.130Z</time>
      </trkpt>
      <trkpt lat="43.66488" lon="2.29155">
        <ele>221.3</ele>
        <time>2025-09-30T12:19:10.176Z</time>
      </trkpt>
      <trkpt lat="43.66488" lon="2.29161">
        <ele>221.2</ele>
        <time>2025-09-30T12:19:10.580Z</time>
      </trkpt>
      <trkpt lat="43.66487" lon="2.29171">
        <ele>221</ele>
        <time>2025-09-30T12:19:11.237Z</time>
      </trkpt>
      <trkpt lat="43.66469" lon="2.29182">
        <ele>219.9</ele>
        <time>2025-09-30T12:19:12.680Z</time>
      </trkpt>
      <trkpt lat="43.66452" lon="2.29193">
        <ele>219.3</ele>
        <time>2025-09-30T12:19:14.310Z</time>
        <extensions>
          <visugpx:TrkExtension xmlns:visugpx="https://www.visugpx.com/editgpx/">
            <visugpx:node>24</visugpx:node>
            </visugpx:TrkExtension>
        </extensions>
      </trkpt>
      <trkpt lat="43.66445" lon="2.29198">
        <ele>160.6</ele>
        <time>2025-09-30T12:19:14.850Z</time>
        <extensions>
          <visugpx:TrkExtension xmlns:visugpx="https://www.visugpx.com/editgpx/">
            <visugpx:node>25</visugpx:node>
            </visugpx:TrkExtension>
        </extensions>
      </trkpt>
      <trkpt lat="43.6644" lon="2.29201">
        <ele>160.4</ele>
        <time>2025-09-30T12:19:15.307Z</time>
      </trkpt>
      <trkpt lat="43.66435" lon="2.29204">
        <ele>160.2</ele>
        <time>2025-09-30T12:19:15.763Z</time>
      </trkpt>
      <trkpt lat="43.66431" lon="2.29207">
        <ele>160</ele>
        <time>2025-09-30T12:19:16.125Z</time>
      </trkpt>
      <trkpt lat="43.66427" lon="2.2921">
        <ele>159.6</ele>
        <time>2025-09-30T12:19:16.437Z</time>
      </trkpt>
      <trkpt lat="43.66423" lon="2.29214">
        <ele>159.4</ele>
        <time>2025-09-30T12:19:16.839Z</time>
      </trkpt>
      <trkpt lat="43.6642" lon="2.29219">
        <ele>159.2</ele>
        <time>2025-09-30T12:19:17.216Z</time>
      </trkpt>
      <trkpt lat="43.66416" lon="2.29222">
        <ele>159</ele>
        <time>2025-09-30T12:19:17.578Z</time>
      </trkpt>
      <trkpt lat="43.66412" lon="2.29225">
        <ele>158.8</ele>
        <time>2025-09-30T12:19:17.940Z</time>
      </trkpt>
      <trkpt lat="43.66409" lon="2.29228">
        <ele>158.4</ele>
        <time>2025-09-30T12:19:18.194Z</time>
      </trkpt>
      <trkpt lat="43.66405" lon="2.2923">
        <ele>158.2</ele>
        <time>2025-09-30T12:19:18.525Z</time>
      </trkpt>
      <trkpt lat="43.66402" lon="2.29233">
        <ele>158</ele>
        <time>2025-09-30T12:19:18.799Z</time>
      </trkpt>
      <trkpt lat="43.66398" lon="2.29235">
        <ele>157.8</ele>
        <time>2025-09-30T12:19:19.130Z</time>
      </trkpt>
      <trkpt lat="43.66394" lon="2.29238">
        <ele>157.6</ele>
        <time>2025-09-30T12:19:19.492Z</time>
      </trkpt>
      <trkpt lat="43.6639" lon="2.2924">
        <ele>157.4</ele>
        <time>2025-09-30T12:19:19.823Z</time>
      </trkpt>
      <trkpt lat="43.66386" lon="2.29243">
        <ele>157.4</ele>
        <time>2025-09-30T12:19:20.343Z</time>
      </trkpt>
      <trkpt lat="43.66384" lon="2.29247">
        <ele>157.4</ele>
        <time>2025-09-30T12:19:20.744Z</time>
      </trkpt>
      <trkpt lat="43.66381" lon="2.29251">
        <ele>157.2</ele>
        <time>2025-09-30T12:19:21.067Z</time>
      </trkpt>
      <trkpt lat="43.66378" lon="2.29255">
        <ele>157.2</ele>
        <time>2025-09-30T12:19:21.542Z</time>
      </trkpt>
      <trkpt lat="43.66376" lon="2.29259">
        <ele>157.4</ele>
        <time>2025-09-30T12:19:22.308Z</time>
      </trkpt>
      <trkpt lat="43.66374" lon="2.29262">
        <ele>157.4</ele>
        <time>2025-09-30T12:19:22.645Z</time>
      </trkpt>
      <trkpt lat="43.66372" lon="2.29265">
        <ele>157.6</ele>
        <time>2025-09-30T12:19:23.388Z</time>
      </trkpt>
      <trkpt lat="43.6637" lon="2.29268">
        <ele>157.6</ele>
        <time>2025-09-30T12:19:23.725Z</time>
      </trkpt>
      <trkpt lat="43.66368" lon="2.29272">
        <ele>157.8</ele>
        <time>2025-09-30T12:19:24.491Z</time>
      </trkpt>
      <trkpt lat="43.66366" lon="2.29275">
        <ele>158</ele>
        <time>2025-09-30T12:19:25.234Z</time>
      </trkpt>
      <trkpt lat="43.66363" lon="2.29278">
        <ele>158.4</ele>
        <time>2025-09-30T12:19:26.795Z</time>
      </trkpt>
      <trkpt lat="43.66361" lon="2.29281">
        <ele>158.4</ele>
        <time>2025-09-30T12:19:27.132Z</time>
      </trkpt>
      <trkpt lat="43.66358" lon="2.29283">
        <ele>158.6</ele>
        <time>2025-09-30T12:19:27.888Z</time>
      </trkpt>
      <trkpt lat="43.66355" lon="2.29286">
        <ele>158.8</ele>
        <time>2025-09-30T12:19:28.664Z</time>
      </trkpt>
      <trkpt lat="43.66352" lon="2.29289">
        <ele>159</ele>
        <time>2025-09-30T12:19:29.441Z</time>
      </trkpt>
      <trkpt lat="43.6635" lon="2.29292">
        <ele>159</ele>
        <time>2025-09-30T12:19:29.778Z</time>
      </trkpt>
      <trkpt lat="43.66347" lon="2.29296">
        <ele>159.2</ele>
        <time>2025-09-30T12:19:30.587Z</time>
      </trkpt>
      <trkpt lat="43.66344" lon="2.29299">
        <ele>159.4</ele>
        <time>2025-09-30T12:19:31.364Z</time>
      </trkpt>
      <trkpt lat="43.66341" lon="2.29302">
        <ele>159.4</ele>
        <time>2025-09-30T12:19:31.787Z</time>
      </trkpt>
      <trkpt lat="43.66337" lon="2.29306">
        <ele>159.4</ele>
        <time>2025-09-30T12:19:32.351Z</time>
      </trkpt>
      <trkpt lat="43.66334" lon="2.29309">
        <ele>159.6</ele>
        <time>2025-09-30T12:19:33.127Z</time>
      </trkpt>
      <trkpt lat="43.66331" lon="2.29312">
        <ele>159.6</ele>
        <time>2025-09-30T12:19:33.550Z</time>
      </trkpt>
      <trkpt lat="43.66327" lon="2.29315">
        <ele>159.6</ele>
        <time>2025-09-30T12:19:34.070Z</time>
      </trkpt>
      <trkpt lat="43.66324" lon="2.29319">
        <ele>159.6</ele>
        <time>2025-09-30T12:19:34.546Z</time>
      </trkpt>
      <trkpt lat="43.66321" lon="2.29322">
        <ele>159.6</ele>
        <time>2025-09-30T12:19:34.969Z</time>
      </trkpt>
      <trkpt lat="43.66317" lon="2.29326">
        <ele>159.6</ele>
        <time>2025-09-30T12:19:35.532Z</time>
      </trkpt>
      <trkpt lat="43.66314" lon="2.2933">
        <ele>159.6</ele>
        <time>2025-09-30T12:19:36.008Z</time>
      </trkpt>
      <trkpt lat="43.66311" lon="2.29334">
        <ele>159.8</ele>
        <time>2025-09-30T12:19:36.818Z</time>
      </trkpt>
      <trkpt lat="43.66308" lon="2.29338">
        <ele>159.8</ele>
        <time>2025-09-30T12:19:37.294Z</time>
      </trkpt>
      <trkpt lat="43.66305" lon="2.29342">
        <ele>159.8</ele>
        <time>2025-09-30T12:19:37.770Z</time>
      </trkpt>
      <trkpt lat="43.66302" lon="2.29346">
        <ele>160</ele>
        <time>2025-09-30T12:19:38.579Z</time>
      </trkpt>
      <trkpt lat="43.663" lon="2.2935">
        <ele>160</ele>
        <time>2025-09-30T12:19:38.981Z</time>
      </trkpt>
      <trkpt lat="43.66298" lon="2.29352">
        <ele>160.2</ele>
        <time>2025-09-30T12:19:39.725Z</time>
      </trkpt>
      <trkpt lat="43.66296" lon="2.29354">
        <ele>160.2</ele>
        <time>2025-09-30T12:19:40.007Z</time>
      </trkpt>
      <trkpt lat="43.66294" lon="2.29356">
        <ele>160.4</ele>
        <time>2025-09-30T12:19:40.751Z</time>
      </trkpt>
      <trkpt lat="43.66291" lon="2.29359">
        <ele>160.4</ele>
        <time>2025-09-30T12:19:41.174Z</time>
      </trkpt>
      <trkpt lat="43.66289" lon="2.29362">
        <ele>160.6</ele>
        <time>2025-09-30T12:19:41.917Z</time>
      </trkpt>
      <trkpt lat="43.66286" lon="2.29364">
        <ele>160.6</ele>
        <time>2025-09-30T12:19:42.297Z</time>
      </trkpt>
      <trkpt lat="43.66284" lon="2.29366">
        <ele>160.6</ele>
        <time>2025-09-30T12:19:42.579Z</time>
      </trkpt>
      <trkpt lat="43.66281" lon="2.29368">
        <ele>160.8</ele>
        <time>2025-09-30T12:19:43.335Z</time>
      </trkpt>
      <trkpt lat="43.66279" lon="2.29371">
        <ele>160.8</ele>
        <time>2025-09-30T12:19:43.672Z</time>
      </trkpt>
      <trkpt lat="43.66277" lon="2.29373">
        <ele>161</ele>
        <time>2025-09-30T12:19:44.417Z</time>
      </trkpt>
      <trkpt lat="43.66274" lon="2.29375">
        <ele>161</ele>
        <time>2025-09-30T12:19:44.797Z</time>
      </trkpt>
      <trkpt lat="43.66272" lon="2.29378">
        <ele>161.2</ele>
        <time>2025-09-30T12:19:45.540Z</time>
      </trkpt>
      <trkpt lat="43.66271" lon="2.2938">
        <ele>161.2</ele>
        <time>2025-09-30T12:19:45.741Z</time>
      </trkpt>
      <trkpt lat="43.6627" lon="2.29383">
        <ele>161.2</ele>
        <time>2025-09-30T12:19:46.014Z</time>
      </trkpt>
      <trkpt lat="43.66269" lon="2.29386">
        <ele>161.2</ele>
        <time>2025-09-30T12:19:46.287Z</time>
      </trkpt>
      <trkpt lat="43.66268" lon="2.29388">
        <ele>161.4</ele>
        <time>2025-09-30T12:19:47.069Z</time>
      </trkpt>
      <trkpt lat="43.66266" lon="2.2939">
        <ele>161.4</ele>
        <time>2025-09-30T12:19:47.351Z</time>
      </trkpt>
      <trkpt lat="43.66264" lon="2.2939">
        <ele>161.4</ele>
        <time>2025-09-30T12:19:47.579Z</time>
      </trkpt>
      <trkpt lat="43.66261" lon="2.29389">
        <ele>161.4</ele>
        <time>2025-09-30T12:19:47.932Z</time>
      </trkpt>
      <trkpt lat="43.66259" lon="2.29387">
        <ele>161.4</ele>
        <time>2025-09-30T12:19:48.213Z</time>
      </trkpt>
      <trkpt lat="43.66257" lon="2.29385">
        <ele>161.4</ele>
        <time>2025-09-30T12:19:48.495Z</time>
      </trkpt>
      <trkpt lat="43.66255" lon="2.29382">
        <ele>161.4</ele>
        <time>2025-09-30T12:19:48.832Z</time>
      </trkpt>
      <trkpt lat="43.66253" lon="2.29379">
        <ele>161.4</ele>
        <time>2025-09-30T12:19:49.169Z</time>
      </trkpt>
      <trkpt lat="43.66251" lon="2.29375">
        <ele>161.4</ele>
        <time>2025-09-30T12:19:49.571Z</time>
      </trkpt>
      <trkpt lat="43.66249" lon="2.29372">
        <ele>161.4</ele>
        <time>2025-09-30T12:19:49.908Z</time>
      </trkpt>
      <trkpt lat="43.66247" lon="2.29368">
        <ele>161.4</ele>
        <time>2025-09-30T12:19:50.310Z</time>
      </trkpt>
      <trkpt lat="43.66245" lon="2.29365">
        <ele>161.4</ele>
        <time>2025-09-30T12:19:50.647Z</time>
      </trkpt>
      <trkpt lat="43.66243" lon="2.29362">
        <ele>161.4</ele>
        <time>2025-09-30T12:19:50.984Z</time>
      </trkpt>
      <trkpt lat="43.66241" lon="2.29359">
        <ele>161.4</ele>
        <time>2025-09-30T12:19:51.321Z</time>
      </trkpt>
      <trkpt lat="43.66239" lon="2.29356">
        <ele>161.4</ele>
        <time>2025-09-30T12:19:51.658Z</time>
      </trkpt>
      <trkpt lat="43.66237" lon="2.29352">
        <ele>161.4</ele>
        <time>2025-09-30T12:19:52.059Z</time>
      </trkpt>
      <trkpt lat="43.66235" lon="2.29349">
        <ele>161.4</ele>
        <time>2025-09-30T12:19:52.396Z</time>
      </trkpt>
      <trkpt lat="43.66233" lon="2.29346">
        <ele>161.4</ele>
        <time>2025-09-30T12:19:52.733Z</time>
      </trkpt>
      <trkpt lat="43.66232" lon="2.29343">
        <ele>161.4</ele>
        <time>2025-09-30T12:19:53.006Z</time>
      </trkpt>
      <trkpt lat="43.6623" lon="2.2934">
        <ele>161.6</ele>
        <time>2025-09-30T12:19:53.749Z</time>
      </trkpt>
      <trkpt lat="43.66228" lon="2.29337">
        <ele>161.6</ele>
        <time>2025-09-30T12:19:54.086Z</time>
      </trkpt>
      <trkpt lat="43.66226" lon="2.29335">
        <ele>161.6</ele>
        <time>2025-09-30T12:19:54.368Z</time>
      </trkpt>
      <trkpt lat="43.66224" lon="2.29332">
        <ele>161.6</ele>
        <time>2025-09-30T12:19:54.705Z</time>
      </trkpt>
      <trkpt lat="43.66222" lon="2.29329">
        <ele>161.6</ele>
        <time>2025-09-30T12:19:55.042Z</time>
      </trkpt>
      <trkpt lat="43.66221" lon="2.29326">
        <ele>161.6</ele>
        <time>2025-09-30T12:19:55.315Z</time>
      </trkpt>
      <trkpt lat="43.66219" lon="2.29323">
        <ele>161.6</ele>
        <time>2025-09-30T12:19:55.652Z</time>
      </trkpt>
      <trkpt lat="43.66217" lon="2.2932">
        <ele>161.6</ele>
        <time>2025-09-30T12:19:55.989Z</time>
      </trkpt>
      <trkpt lat="43.66215" lon="2.29317">
        <ele>161.6</ele>
        <time>2025-09-30T12:19:56.326Z</time>
      </trkpt>
      <trkpt lat="43.66214" lon="2.29315">
        <ele>161.6</ele>
        <time>2025-09-30T12:19:56.527Z</time>
      </trkpt>
      <trkpt lat="43.66212" lon="2.29311">
        <ele>161.6</ele>
        <time>2025-09-30T12:19:56.929Z</time>
      </trkpt>
      <trkpt lat="43.6621" lon="2.29308">
        <ele>161.6</ele>
        <time>2025-09-30T12:19:57.266Z</time>
      </trkpt>
      <trkpt lat="43.66208" lon="2.29304">
        <ele>161.6</ele>
        <time>2025-09-30T12:19:57.667Z</time>
      </trkpt>
      <trkpt lat="43.66206" lon="2.29302">
        <ele>161.6</ele>
        <time>2025-09-30T12:19:57.949Z</time>
      </trkpt>
      <trkpt lat="43.66204" lon="2.29299">
        <ele>161.6</ele>
        <time>2025-09-30T12:19:58.286Z</time>
      </trkpt>
      <trkpt lat="43.66203" lon="2.29297">
        <ele>161.6</ele>
        <time>2025-09-30T12:19:58.487Z</time>
      </trkpt>
      <trkpt lat="43.662" lon="2.29294">
        <ele>161.6</ele>
        <time>2025-09-30T12:19:58.910Z</time>
      </trkpt>
      <trkpt lat="43.66198" lon="2.29292">
        <ele>161.6</ele>
        <time>2025-09-30T12:19:59.192Z</time>
      </trkpt>
      <trkpt lat="43.66195" lon="2.29288">
        <ele>161.6</ele>
        <time>2025-09-30T12:19:59.668Z</time>
      </trkpt>
      <trkpt lat="43.66192" lon="2.29285">
        <ele>161.6</ele>
        <time>2025-09-30T12:20:00.091Z</time>
      </trkpt>
      <trkpt lat="43.66189" lon="2.29283">
        <ele>161.6</ele>
        <time>2025-09-30T12:20:00.471Z</time>
      </trkpt>
      <trkpt lat="43.66186" lon="2.2928">
        <ele>161.6</ele>
        <time>2025-09-30T12:20:00.894Z</time>
      </trkpt>
      <trkpt lat="43.66184" lon="2.29278">
        <ele>161.6</ele>
        <time>2025-09-30T12:20:01.176Z</time>
      </trkpt>
      <trkpt lat="43.66181" lon="2.29276">
        <ele>161.6</ele>
        <time>2025-09-30T12:20:01.556Z</time>
      </trkpt>
      <trkpt lat="43.66179" lon="2.29274">
        <ele>161.6</ele>
        <time>2025-09-30T12:20:01.838Z</time>
      </trkpt>
      <trkpt lat="43.66176" lon="2.29272">
        <ele>161.6</ele>
        <time>2025-09-30T12:20:02.218Z</time>
      </trkpt>
      <trkpt lat="43.66173" lon="2.29271">
        <ele>161.6</ele>
        <time>2025-09-30T12:20:02.571Z</time>
      </trkpt>
      <trkpt lat="43.6617" lon="2.2927">
        <ele>161.6</ele>
        <time>2025-09-30T12:20:02.923Z</time>
      </trkpt>
      <trkpt lat="43.66167" lon="2.29269">
        <ele>161.4</ele>
        <time>2025-09-30T12:20:03.137Z</time>
      </trkpt>
      <trkpt lat="43.66163" lon="2.29267">
        <ele>161.4</ele>
        <time>2025-09-30T12:20:03.623Z</time>
      </trkpt>
      <trkpt lat="43.66159" lon="2.29266">
        <ele>161.4</ele>
        <time>2025-09-30T12:20:04.087Z</time>
      </trkpt>
      <trkpt lat="43.66155" lon="2.29264">
        <ele>161.4</ele>
        <time>2025-09-30T12:20:04.573Z</time>
      </trkpt>
      <trkpt lat="43.66151" lon="2.29263">
        <ele>161.4</ele>
        <time>2025-09-30T12:20:05.037Z</time>
      </trkpt>
      <trkpt lat="43.66147" lon="2.29262">
        <ele>161.4</ele>
        <time>2025-09-30T12:20:05.501Z</time>
      </trkpt>
      <trkpt lat="43.66143" lon="2.29261">
        <ele>161.4</ele>
        <time>2025-09-30T12:20:05.965Z</time>
      </trkpt>
      <trkpt lat="43.66138" lon="2.2926">
        <ele>161.4</ele>
        <time>2025-09-30T12:20:06.542Z</time>
      </trkpt>
      <trkpt lat="43.66135" lon="2.2926">
        <ele>161.4</ele>
        <time>2025-09-30T12:20:06.885Z</time>
      </trkpt>
      <trkpt lat="43.66131" lon="2.2926">
        <ele>161.4</ele>
        <time>2025-09-30T12:20:07.341Z</time>
      </trkpt>
      <trkpt lat="43.66128" lon="2.29261">
        <ele>161.4</ele>
        <time>2025-09-30T12:20:07.694Z</time>
      </trkpt>
      <trkpt lat="43.66124" lon="2.29261">
        <ele>161.4</ele>
        <time>2025-09-30T12:20:08.151Z</time>
      </trkpt>
      <trkpt lat="43.66121" lon="2.29262">
        <ele>161.4</ele>
        <time>2025-09-30T12:20:08.503Z</time>
      </trkpt>
      <trkpt lat="43.66117" lon="2.29262">
        <ele>161.4</ele>
        <time>2025-09-30T12:20:08.960Z</time>
      </trkpt>
      <trkpt lat="43.66113" lon="2.29263">
        <ele>161.4</ele>
        <time>2025-09-30T12:20:09.424Z</time>
      </trkpt>
      <trkpt lat="43.6611" lon="2.29264">
        <ele>161.4</ele>
        <time>2025-09-30T12:20:09.776Z</time>
      </trkpt>
      <trkpt lat="43.66106" lon="2.29266">
        <ele>161.4</ele>
        <time>2025-09-30T12:20:10.262Z</time>
      </trkpt>
      <trkpt lat="43.66103" lon="2.29268">
        <ele>161.4</ele>
        <time>2025-09-30T12:20:10.642Z</time>
      </trkpt>
      <trkpt lat="43.661" lon="2.2927">
        <ele>161.2</ele>
        <time>2025-09-30T12:20:10.880Z</time>
      </trkpt>
      <trkpt lat="43.66097" lon="2.29272">
        <ele>161.2</ele>
        <time>2025-09-30T12:20:11.261Z</time>
      </trkpt>
      <trkpt lat="43.66093" lon="2.29274">
        <ele>161.2</ele>
        <time>2025-09-30T12:20:11.746Z</time>
      </trkpt>
      <trkpt lat="43.6609" lon="2.29277">
        <ele>161.2</ele>
        <time>2025-09-30T12:20:12.169Z</time>
      </trkpt>
      <trkpt lat="43.66086" lon="2.2928">
        <ele>161.2</ele>
        <time>2025-09-30T12:20:12.689Z</time>
      </trkpt>
      <trkpt lat="43.66082" lon="2.29283">
        <ele>161.2</ele>
        <time>2025-09-30T12:20:13.208Z</time>
      </trkpt>
      <trkpt lat="43.66078" lon="2.29287">
        <ele>161</ele>
        <time>2025-09-30T12:20:13.611Z</time>
      </trkpt>
      <trkpt lat="43.66075" lon="2.29291">
        <ele>161</ele>
        <time>2025-09-30T12:20:14.087Z</time>
      </trkpt>
      <trkpt lat="43.66072" lon="2.29294">
        <ele>161</ele>
        <time>2025-09-30T12:20:14.509Z</time>
      </trkpt>
      <trkpt lat="43.66069" lon="2.29298">
        <ele>161</ele>
        <time>2025-09-30T12:20:14.985Z</time>
      </trkpt>
      <trkpt lat="43.66065" lon="2.29302">
        <ele>161</ele>
        <time>2025-09-30T12:20:15.549Z</time>
      </trkpt>
      <trkpt lat="43.66062" lon="2.29306">
        <ele>161</ele>
        <time>2025-09-30T12:20:16.025Z</time>
      </trkpt>
      <trkpt lat="43.66059" lon="2.2931">
        <ele>161</ele>
        <time>2025-09-30T12:20:16.501Z</time>
      </trkpt>
      <trkpt lat="43.66056" lon="2.29314">
        <ele>161</ele>
        <time>2025-09-30T12:20:16.977Z</time>
      </trkpt>
      <trkpt lat="43.66053" lon="2.29317">
        <ele>161</ele>
        <time>2025-09-30T12:20:17.400Z</time>
      </trkpt>
      <trkpt lat="43.6605" lon="2.29321">
        <ele>161</ele>
        <time>2025-09-30T12:20:17.876Z</time>
      </trkpt>
      <trkpt lat="43.66046" lon="2.29325">
        <ele>161</ele>
        <time>2025-09-30T12:20:18.440Z</time>
      </trkpt>
      <trkpt lat="43.66043" lon="2.29329">
        <ele>161</ele>
        <time>2025-09-30T12:20:18.916Z</time>
      </trkpt>
      <trkpt lat="43.6604" lon="2.29333">
        <ele>161</ele>
        <time>2025-09-30T12:20:19.392Z</time>
      </trkpt>
      <trkpt lat="43.66038" lon="2.29336">
        <ele>161</ele>
        <time>2025-09-30T12:20:19.729Z</time>
      </trkpt>
      <trkpt lat="43.66035" lon="2.2934">
        <ele>161</ele>
        <time>2025-09-30T12:20:20.205Z</time>
      </trkpt>
      <trkpt lat="43.66033" lon="2.29342">
        <ele>161</ele>
        <time>2025-09-30T12:20:20.487Z</time>
      </trkpt>
      <trkpt lat="43.6603" lon="2.29345">
        <ele>161</ele>
        <time>2025-09-30T12:20:20.909Z</time>
      </trkpt>
      <trkpt lat="43.66028" lon="2.29348">
        <ele>161</ele>
        <time>2025-09-30T12:20:21.246Z</time>
      </trkpt>
      <trkpt lat="43.66025" lon="2.29352">
        <ele>161.2</ele>
        <time>2025-09-30T12:20:22.056Z</time>
      </trkpt>
      <trkpt lat="43.66022" lon="2.29355">
        <ele>161.2</ele>
        <time>2025-09-30T12:20:22.479Z</time>
      </trkpt>
      <trkpt lat="43.66019" lon="2.29359">
        <ele>161.2</ele>
        <time>2025-09-30T12:20:22.955Z</time>
      </trkpt>
      <trkpt lat="43.66016" lon="2.29363">
        <ele>161.4</ele>
        <time>2025-09-30T12:20:23.764Z</time>
      </trkpt>
      <trkpt lat="43.66012" lon="2.29366">
        <ele>161.4</ele>
        <time>2025-09-30T12:20:24.284Z</time>
      </trkpt>
      <trkpt lat="43.66009" lon="2.29369">
        <ele>161.6</ele>
        <time>2025-09-30T12:20:25.060Z</time>
      </trkpt>
      <trkpt lat="43.66005" lon="2.29372">
        <ele>161.6</ele>
        <time>2025-09-30T12:20:25.580Z</time>
      </trkpt>
      <trkpt lat="43.66001" lon="2.29375">
        <ele>161.8</ele>
        <time>2025-09-30T12:20:26.420Z</time>
      </trkpt>
      <trkpt lat="43.65998" lon="2.29378">
        <ele>161.8</ele>
        <time>2025-09-30T12:20:26.843Z</time>
      </trkpt>
      <trkpt lat="43.65995" lon="2.29381">
        <ele>162</ele>
        <time>2025-09-30T12:20:27.620Z</time>
      </trkpt>
      <trkpt lat="43.65992" lon="2.29383">
        <ele>162</ele>
        <time>2025-09-30T12:20:28.000Z</time>
      </trkpt>
      <trkpt lat="43.65988" lon="2.29386">
        <ele>162.2</ele>
        <time>2025-09-30T12:20:28.840Z</time>
      </trkpt>
      <trkpt lat="43.65984" lon="2.29388">
        <ele>162.2</ele>
        <time>2025-09-30T12:20:29.326Z</time>
      </trkpt>
      <trkpt lat="43.65981" lon="2.2939">
        <ele>162.4</ele>
        <time>2025-09-30T12:20:30.082Z</time>
      </trkpt>
      <trkpt lat="43.65977" lon="2.29392">
        <ele>162.4</ele>
        <time>2025-09-30T12:20:30.568Z</time>
      </trkpt>
      <trkpt lat="43.65974" lon="2.29394">
        <ele>162.6</ele>
        <time>2025-09-30T12:20:31.324Z</time>
      </trkpt>
      <trkpt lat="43.6597" lon="2.29395">
        <ele>162.6</ele>
        <time>2025-09-30T12:20:31.788Z</time>
      </trkpt>
      <trkpt lat="43.65967" lon="2.29397">
        <ele>162.6</ele>
        <time>2025-09-30T12:20:32.168Z</time>
      </trkpt>
      <trkpt lat="43.65964" lon="2.29398">
        <ele>162.8</ele>
        <time>2025-09-30T12:20:32.915Z</time>
      </trkpt>
      <trkpt lat="43.65962" lon="2.294">
        <ele>162.8</ele>
        <time>2025-09-30T12:20:33.197Z</time>
      </trkpt>
      <trkpt lat="43.6596" lon="2.29401">
        <ele>162.8</ele>
        <time>2025-09-30T12:20:33.440Z</time>
      </trkpt>
      <trkpt lat="43.65958" lon="2.29401">
        <ele>163</ele>
        <time>2025-09-30T12:20:34.211Z</time>
      </trkpt>
      <trkpt lat="43.65957" lon="2.29402">
        <ele>163</ele>
        <time>2025-09-30T12:20:34.352Z</time>
      </trkpt>
      <trkpt lat="43.65942" lon="2.29407">
        <ele>163.2</ele>
        <time>2025-09-30T12:20:36.355Z</time>
      </trkpt>
      <trkpt lat="43.65941" lon="2.29407">
        <ele>163.2</ele>
        <time>2025-09-30T12:20:36.470Z</time>
      </trkpt>
      <trkpt lat="43.65939" lon="2.29407">
        <ele>163.2</ele>
        <time>2025-09-30T12:20:36.698Z</time>
      </trkpt>
      <trkpt lat="43.65936" lon="2.29407">
        <ele>163.2</ele>
        <time>2025-09-30T12:20:37.041Z</time>
      </trkpt>
      <trkpt lat="43.65935" lon="2.29407">
        <ele>163.2</ele>
        <time>2025-09-30T12:20:37.155Z</time>
      </trkpt>
      <trkpt lat="43.65933" lon="2.29406">
        <ele>163.4</ele>
        <time>2025-09-30T12:20:37.917Z</time>
      </trkpt>
      <trkpt lat="43.65931" lon="2.29406">
        <ele>163.4</ele>
        <time>2025-09-30T12:20:38.145Z</time>
      </trkpt>
      <trkpt lat="43.65928" lon="2.29406">
        <ele>163.4</ele>
        <time>2025-09-30T12:20:38.488Z</time>
      </trkpt>
      <trkpt lat="43.65925" lon="2.29406">
        <ele>163.4</ele>
        <time>2025-09-30T12:20:38.830Z</time>
      </trkpt>
      <trkpt lat="43.65923" lon="2.29406">
        <ele>163.4</ele>
        <time>2025-09-30T12:20:39.059Z</time>
      </trkpt>
      <trkpt lat="43.6592" lon="2.29406">
        <ele>163.6</ele>
        <time>2025-09-30T12:20:39.803Z</time>
      </trkpt>
      <trkpt lat="43.65918" lon="2.29406">
        <ele>163.6</ele>
        <time>2025-09-30T12:20:40.031Z</time>
      </trkpt>
      <trkpt lat="43.65916" lon="2.29407">
        <ele>163.6</ele>
        <time>2025-09-30T12:20:40.274Z</time>
      </trkpt>
      <trkpt lat="43.65914" lon="2.29407">
        <ele>163.6</ele>
        <time>2025-09-30T12:20:40.502Z</time>
      </trkpt>
      <trkpt lat="43.65912" lon="2.29407">
        <ele>163.8</ele>
        <time>2025-09-30T12:20:41.274Z</time>
      </trkpt>
      <trkpt lat="43.65909" lon="2.29406">
        <ele>163.8</ele>
        <time>2025-09-30T12:20:41.626Z</time>
      </trkpt>
      <trkpt lat="43.65907" lon="2.29406">
        <ele>163.8</ele>
        <time>2025-09-30T12:20:41.854Z</time>
      </trkpt>
      <trkpt lat="43.65905" lon="2.29406">
        <ele>164</ele>
        <time>2025-09-30T12:20:42.625Z</time>
      </trkpt>
      <trkpt lat="43.65904" lon="2.29405">
        <ele>164</ele>
        <time>2025-09-30T12:20:42.766Z</time>
      </trkpt>
      <trkpt lat="43.65902" lon="2.29405">
        <ele>164</ele>
        <time>2025-09-30T12:20:42.995Z</time>
      </trkpt>
      <trkpt lat="43.65901" lon="2.29405">
        <ele>164.2</ele>
        <time>2025-09-30T12:20:43.484Z</time>
      </trkpt>
      <trkpt lat="43.659" lon="2.29404">
        <ele>164.2</ele>
        <time>2025-09-30T12:20:43.625Z</time>
      </trkpt>
      <trkpt lat="43.65899" lon="2.29403">
        <ele>164.2</ele>
        <time>2025-09-30T12:20:43.766Z</time>
      </trkpt>
      <trkpt lat="43.65898" lon="2.29401">
        <ele>164.2</ele>
        <time>2025-09-30T12:20:43.967Z</time>
      </trkpt>
      <trkpt lat="43.65896" lon="2.29399">
        <ele>164.2</ele>
        <time>2025-09-30T12:20:44.249Z</time>
      </trkpt>
      <trkpt lat="43.65895" lon="2.29397">
        <ele>164</ele>
        <time>2025-09-30T12:20:44.369Z</time>
      </trkpt>
      <trkpt lat="43.65892" lon="2.29395">
        <ele>163.8</ele>
        <time>2025-09-30T12:20:44.607Z</time>
      </trkpt>
      <trkpt lat="43.65889" lon="2.29391">
        <ele>163.6</ele>
        <time>2025-09-30T12:20:44.929Z</time>
      </trkpt>
      <trkpt lat="43.65886" lon="2.29388">
        <ele>163.4</ele>
        <time>2025-09-30T12:20:45.204Z</time>
      </trkpt>
      <trkpt lat="43.65883" lon="2.29384">
        <ele>163.2</ele>
        <time>2025-09-30T12:20:45.526Z</time>
      </trkpt>
      <trkpt lat="43.65879" lon="2.2938">
        <ele>162.8</ele>
        <time>2025-09-30T12:20:45.865Z</time>
      </trkpt>
      <trkpt lat="43.65874" lon="2.29376">
        <ele>162.4</ele>
        <time>2025-09-30T12:20:46.260Z</time>
      </trkpt>
      <trkpt lat="43.6587" lon="2.29371">
        <ele>162.2</ele>
        <time>2025-09-30T12:20:46.711Z</time>
      </trkpt>
      <trkpt lat="43.65865" lon="2.29366">
        <ele>161.8</ele>
        <time>2025-09-30T12:20:47.139Z</time>
      </trkpt>
      <trkpt lat="43.6586" lon="2.29361">
        <ele>161.6</ele>
        <time>2025-09-30T12:20:47.673Z</time>
      </trkpt>
      <trkpt lat="43.65855" lon="2.29356">
        <ele>161.4</ele>
        <time>2025-09-30T12:20:48.207Z</time>
      </trkpt>
      <trkpt lat="43.65852" lon="2.29351">
        <ele>161.4</ele>
        <time>2025-09-30T12:20:48.743Z</time>
      </trkpt>
      <trkpt lat="43.65848" lon="2.29347">
        <ele>161.2</ele>
        <time>2025-09-30T12:20:49.146Z</time>
      </trkpt>
      <trkpt lat="43.65845" lon="2.29343">
        <ele>161.2</ele>
        <time>2025-09-30T12:20:49.622Z</time>
      </trkpt>
      <trkpt lat="43.65841" lon="2.29339">
        <ele>161</ele>
        <time>2025-09-30T12:20:50.024Z</time>
      </trkpt>
      <trkpt lat="43.65838" lon="2.29336">
        <ele>161.2</ele>
        <time>2025-09-30T12:20:50.801Z</time>
      </trkpt>
      <trkpt lat="43.65835" lon="2.29332">
        <ele>161.2</ele>
        <time>2025-09-30T12:20:51.276Z</time>
      </trkpt>
      <trkpt lat="43.65833" lon="2.29329">
        <ele>161.2</ele>
        <time>2025-09-30T12:20:51.614Z</time>
      </trkpt>
      <trkpt lat="43.6583" lon="2.29326">
        <ele>161.4</ele>
        <time>2025-09-30T12:20:52.390Z</time>
      </trkpt>
      <trkpt lat="43.65827" lon="2.29323">
        <ele>161.4</ele>
        <time>2025-09-30T12:20:52.813Z</time>
      </trkpt>
      <trkpt lat="43.65826" lon="2.2932">
        <ele>161.6</ele>
        <time>2025-09-30T12:20:53.560Z</time>
      </trkpt>
      <trkpt lat="43.65824" lon="2.29316">
        <ele>161.6</ele>
        <time>2025-09-30T12:20:53.962Z</time>
      </trkpt>
      <trkpt lat="43.65822" lon="2.29312">
        <ele>161.6</ele>
        <time>2025-09-30T12:20:54.363Z</time>
      </trkpt>
      <trkpt lat="43.6582" lon="2.29309">
        <ele>161.8</ele>
        <time>2025-09-30T12:20:55.106Z</time>
      </trkpt>
      <trkpt lat="43.65817" lon="2.29305">
        <ele>161.8</ele>
        <time>2025-09-30T12:20:55.582Z</time>
      </trkpt>
      <trkpt lat="43.65814" lon="2.29302">
        <ele>161.8</ele>
        <time>2025-09-30T12:20:56.005Z</time>
      </trkpt>
      <trkpt lat="43.65811" lon="2.293">
        <ele>162</ele>
        <time>2025-09-30T12:20:56.761Z</time>
      </trkpt>
      <trkpt lat="43.65808" lon="2.29297">
        <ele>162.2</ele>
        <time>2025-09-30T12:20:57.538Z</time>
      </trkpt>
      <trkpt lat="43.65806" lon="2.29295">
        <ele>162.4</ele>
        <time>2025-09-30T12:20:58.282Z</time>
      </trkpt>
      <trkpt lat="43.65803" lon="2.29292">
        <ele>162.6</ele>
        <time>2025-09-30T12:20:59.059Z</time>
      </trkpt>
      <trkpt lat="43.658" lon="2.2929">
        <ele>162.8</ele>
        <time>2025-09-30T12:20:59.815Z</time>
      </trkpt>
      <trkpt lat="43.65797" lon="2.29288">
        <ele>163</ele>
        <time>2025-09-30T12:21:00.571Z</time>
      </trkpt>
      <trkpt lat="43.65795" lon="2.29286">
        <ele>163.2</ele>
        <time>2025-09-30T12:21:01.316Z</time>
      </trkpt>
      <trkpt lat="43.65793" lon="2.29284">
        <ele>163.6</ele>
        <time>2025-09-30T12:21:02.524Z</time>
      </trkpt>
      <trkpt lat="43.65791" lon="2.29283">
        <ele>163.8</ele>
        <time>2025-09-30T12:21:03.286Z</time>
      </trkpt>
      <trkpt lat="43.65789" lon="2.29281">
        <ele>164</ele>
        <time>2025-09-30T12:21:04.030Z</time>
      </trkpt>
      <trkpt lat="43.65787" lon="2.29279">
        <ele>164.4</ele>
        <time>2025-09-30T12:21:05.238Z</time>
      </trkpt>
      <trkpt lat="43.65786" lon="2.29277">
        <ele>164.6</ele>
        <time>2025-09-30T12:21:06.020Z</time>
      </trkpt>
      <trkpt lat="43.65784" lon="2.29275">
        <ele>165</ele>
        <time>2025-09-30T12:21:07.228Z</time>
      </trkpt>
      <trkpt lat="43.65782" lon="2.29274">
        <ele>165.2</ele>
        <time>2025-09-30T12:21:07.990Z</time>
      </trkpt>
      <trkpt lat="43.6578" lon="2.29272">
        <ele>165.6</ele>
        <time>2025-09-30T12:21:09.198Z</time>
      </trkpt>
      <trkpt lat="43.65778" lon="2.2927">
        <ele>165.8</ele>
        <time>2025-09-30T12:21:09.943Z</time>
      </trkpt>
      <trkpt lat="43.65776" lon="2.29269">
        <ele>166</ele>
        <time>2025-09-30T12:21:10.705Z</time>
      </trkpt>
      <trkpt lat="43.65774" lon="2.29267">
        <ele>166.2</ele>
        <time>2025-09-30T12:21:11.449Z</time>
      </trkpt>
      <trkpt lat="43.65772" lon="2.29266">
        <ele>166.6</ele>
        <time>2025-09-30T12:21:12.490Z</time>
      </trkpt>
      <trkpt lat="43.65771" lon="2.29265">
        <ele>166.8</ele>
        <time>2025-09-30T12:21:13.094Z</time>
      </trkpt>
      <trkpt lat="43.65769" lon="2.29264">
        <ele>167</ele>
        <time>2025-09-30T12:21:13.856Z</time>
      </trkpt>
      <trkpt lat="43.65767" lon="2.29262">
        <ele>167.4</ele>
        <time>2025-09-30T12:21:15.064Z</time>
      </trkpt>
      <trkpt lat="43.65765" lon="2.29261">
        <ele>167.6</ele>
        <time>2025-09-30T12:21:15.826Z</time>
      </trkpt>
      <trkpt lat="43.65763" lon="2.2926">
        <ele>167.8</ele>
        <time>2025-09-30T12:21:16.588Z</time>
      </trkpt>
      <trkpt lat="43.65761" lon="2.29259">
        <ele>168.2</ele>
        <time>2025-09-30T12:21:17.628Z</time>
      </trkpt>
      <trkpt lat="43.65759" lon="2.29259">
        <ele>168.4</ele>
        <time>2025-09-30T12:21:18.400Z</time>
      </trkpt>
      <trkpt lat="43.65757" lon="2.29259">
        <ele>168.8</ele>
        <time>2025-09-30T12:21:19.378Z</time>
      </trkpt>
      <trkpt lat="43.65755" lon="2.29259">
        <ele>169</ele>
        <time>2025-09-30T12:21:20.150Z</time>
      </trkpt>
      <trkpt lat="43.65754" lon="2.29261">
        <ele>169.2</ele>
        <time>2025-09-30T12:21:20.932Z</time>
        <extensions>
          <visugpx:TrkExtension xmlns:visugpx="https://www.visugpx.com/editgpx/">
            <visugpx:node>26</visugpx:node>
            </visugpx:TrkExtension>
        </extensions>
      </trkpt>
      <trkpt lat="43.65671" lon="2.29202">
        <ele>234.2</ele>
        <time>2025-09-30T12:22:06.609Z</time>
      </trkpt>
      <trkpt lat="43.65646" lon="2.29248">
        <ele>245.7</ele>
        <time>2025-09-30T12:22:26.980Z</time>
        <extensions>
          <visugpx:TrkExtension xmlns:visugpx="https://www.visugpx.com/editgpx/">
            <visugpx:node>27</visugpx:node>
            </visugpx:TrkExtension>
        </extensions>
      </trkpt>
      <trkpt lat="43.65643" lon="2.29247">
        <ele>245.5</ele>
        <time>2025-09-30T12:22:27.194Z</time>
      </trkpt>
      <trkpt lat="43.65644" lon="2.29255">
        <ele>247</ele>
        <time>2025-09-30T12:22:30.068Z</time>
      </trkpt>
      <trkpt lat="43.65659" lon="2.29288">
        <ele>251.6</ele>
        <time>2025-09-30T12:22:43.867Z</time>
      </trkpt>
      <trkpt lat="43.65665" lon="2.29312">
        <ele>255.3</ele>
        <time>2025-09-30T12:22:52.858Z</time>
      </trkpt>
      <trkpt lat="43.65673" lon="2.29333">
        <ele>258.3</ele>
        <time>2025-09-30T12:23:01.262Z</time>
      </trkpt>
      <trkpt lat="43.6568" lon="2.29347">
        <ele>261.3</ele>
        <time>2025-09-30T12:23:07.287Z</time>
      </trkpt>
      <trkpt lat="43.65689" lon="2.2936">
        <ele>263.5</ele>
        <time>2025-09-30T12:23:13.658Z</time>
        <extensions>
          <visugpx:TrkExtension xmlns:visugpx="https://www.visugpx.com/editgpx/">
            <visugpx:node>28</visugpx:node>
            </visugpx:TrkExtension>
        </extensions>
      </trkpt>
      <trkpt lat="43.65689" lon="2.29361">
        <ele>263.6</ele>
        <time>2025-09-30T12:23:13.842Z</time>
      </trkpt>
      <trkpt lat="43.65696" lon="2.29366">
        <ele>264.6</ele>
        <time>2025-09-30T12:23:17.581Z</time>
      </trkpt>
      <trkpt lat="43.65708" lon="2.29375">
        <ele>266.3</ele>
        <time>2025-09-30T12:23:24.150Z</time>
      </trkpt>
      <trkpt lat="43.65765" lon="2.29396">
        <ele>270.9</ele>
        <time>2025-09-30T12:23:41.215Z</time>
      </trkpt>
      <trkpt lat="43.65788" lon="2.29413">
        <ele>272</ele>
        <time>2025-09-30T12:23:45.902Z</time>
      </trkpt>
      <trkpt lat="43.65828" lon="2.29474">
        <ele>280.7</ele>
        <time>2025-09-30T12:24:14.993Z</time>
      </trkpt>
      <trkpt lat="43.65831" lon="2.29488">
        <ele>283.5</ele>
        <time>2025-09-30T12:24:20.244Z</time>
      </trkpt>
      <trkpt lat="43.65832" lon="2.29528">
        <ele>288.4</ele>
        <time>2025-09-30T12:24:34.358Z</time>
      </trkpt>
      <trkpt lat="43.65833" lon="2.29534">
        <ele>288.6</ele>
        <time>2025-09-30T12:24:35.185Z</time>
        <extensions>
          <visugpx:TrkExtension xmlns:visugpx="https://www.visugpx.com/editgpx/">
            <visugpx:node>29</visugpx:node>
            </visugpx:TrkExtension>
        </extensions>
      </trkpt>
      <trkpt lat="43.65834" lon="2.2954">
        <ele>288.8</ele>
        <time>2025-09-30T12:24:36.019Z</time>
      </trkpt>
      <trkpt lat="43.65837" lon="2.29557">
        <ele>289.3</ele>
        <time>2025-09-30T12:24:38.244Z</time>
      </trkpt>
      <trkpt lat="43.65847" lon="2.29578">
        <ele>291</ele>
        <time>2025-09-30T12:24:44.732Z</time>
      </trkpt>
      <trkpt lat="43.65845" lon="2.29585">
        <ele>292.1</ele>
        <time>2025-09-30T12:24:47.522Z</time>
      </trkpt>
      <trkpt lat="43.65838" lon="2.29592">
        <ele>292.4</ele>
        <time>2025-09-30T12:24:48.985Z</time>
      </trkpt>
      <trkpt lat="43.65825" lon="2.29591">
        <ele>294.9</ele>
        <time>2025-09-30T12:24:55.552Z</time>
      </trkpt>
      <trkpt lat="43.65813" lon="2.2958">
        <ele>298.9</ele>
        <time>2025-09-30T12:25:02.196Z</time>
      </trkpt>
      <trkpt lat="43.65805" lon="2.29568">
        <ele>301.1</ele>
        <time>2025-09-30T12:25:08.314Z</time>
      </trkpt>
      <trkpt lat="43.65799" lon="2.29557">
        <ele>302.7</ele>
        <time>2025-09-30T12:25:12.818Z</time>
      </trkpt>
      <trkpt lat="43.65793" lon="2.29549">
        <ele>304.4</ele>
        <time>2025-09-30T12:25:17.138Z</time>
      </trkpt>
      <trkpt lat="43.65788" lon="2.29541">
        <ele>305.7</ele>
        <time>2025-09-30T12:25:21.052Z</time>
      </trkpt>
      <trkpt lat="43.65785" lon="2.29535">
        <ele>306.6</ele>
        <time>2025-09-30T12:25:23.435Z</time>
      </trkpt>
      <trkpt lat="43.65778" lon="2.29529">
        <ele>309</ele>
        <time>2025-09-30T12:25:27.702Z</time>
      </trkpt>
      <trkpt lat="43.6577" lon="2.29524">
        <ele>310.2</ele>
        <time>2025-09-30T12:25:31.916Z</time>
      </trkpt>
      <trkpt lat="43.65758" lon="2.29525">
        <ele>312.8</ele>
        <time>2025-09-30T12:25:37.693Z</time>
      </trkpt>
      <trkpt lat="43.65743" lon="2.2953">
        <ele>316</ele>
        <time>2025-09-30T12:25:45.221Z</time>
      </trkpt>
      <trkpt lat="43.65715" lon="2.29548">
        <ele>321</ele>
        <time>2025-09-30T12:26:00.482Z</time>
      </trkpt>
      <trkpt lat="43.6571" lon="2.2955">
        <ele>321.9</ele>
        <time>2025-09-30T12:26:02.889Z</time>
        <extensions>
          <visugpx:TrkExtension xmlns:visugpx="https://www.visugpx.com/editgpx/">
            <visugpx:node>30</visugpx:node>
            </visugpx:TrkExtension>
        </extensions>
      </trkpt>
      <trkpt lat="43.65703" lon="2.29553">
        <ele>323.3</ele>
        <time>2025-09-30T12:26:06.419Z</time>
        <extensions>
          <visugpx:TrkExtension xmlns:visugpx="https://www.visugpx.com/editgpx/">
            <visugpx:node>31</visugpx:node>
            </visugpx:TrkExtension>
        </extensions>
      </trkpt>
      <trkpt lat="43.65668" lon="2.29561">
        <ele>327.4</ele>
        <time>2025-09-30T12:26:22.444Z</time>
      </trkpt>
      <trkpt lat="43.6564" lon="2.2957">
        <ele>330.8</ele>
        <time>2025-09-30T12:26:35.697Z</time>
      </trkpt>
      <trkpt lat="43.65603" lon="2.29574">
        <ele>337.7</ele>
        <time>2025-09-30T12:26:53.860Z</time>
      </trkpt>
      <trkpt lat="43.6559" lon="2.29578">
        <ele>340</ele>
        <time>2025-09-30T12:27:00.378Z</time>
      </trkpt>
      <trkpt lat="43.65572" lon="2.29586">
        <ele>343.1</ele>
        <time>2025-09-30T12:27:09.632Z</time>
      </trkpt>
      <trkpt lat="43.65543" lon="2.29595">
        <ele>347.2</ele>
        <time>2025-09-30T12:27:24.178Z</time>
      </trkpt>
      <trkpt lat="43.65536" lon="2.296">
        <ele>348.6</ele>
        <time>2025-09-30T12:27:28.034Z</time>
      </trkpt>
      <trkpt lat="43.65529" lon="2.2961">
        <ele>350.7</ele>
        <time>2025-09-30T12:27:32.961Z</time>
      </trkpt>
      <trkpt lat="43.65527" lon="2.29618">
        <ele>351.3</ele>
        <time>2025-09-30T12:27:35.265Z</time>
      </trkpt>
      <trkpt lat="43.65477" lon="2.29706">
        <ele>362.5</ele>
        <time>2025-09-30T12:28:14.884Z</time>
      </trkpt>
      <trkpt lat="43.65462" lon="2.29723">
        <ele>364.7</ele>
        <time>2025-09-30T12:28:23.490Z</time>
      </trkpt>
      <trkpt lat="43.65426" lon="2.29747">
        <ele>366.7</ele>
        <time>2025-09-30T12:28:31.456Z</time>
      </trkpt>
      <trkpt lat="43.65404" lon="2.29758">
        <ele>366.4</ele>
        <time>2025-09-30T12:28:33.833Z</time>
      </trkpt>
      <trkpt lat="43.6537" lon="2.29781">
        <ele>363.9</ele>
        <time>2025-09-30T12:28:36.437Z</time>
      </trkpt>
      <trkpt lat="43.65361" lon="2.29783">
        <ele>363.2</ele>
        <time>2025-09-30T12:28:37.062Z</time>
      </trkpt>
      <trkpt lat="43.65343" lon="2.29795">
        <ele>361.9</ele>
        <time>2025-09-30T12:28:38.445Z</time>
      </trkpt>
      <trkpt lat="43.65316" lon="2.29809">
        <ele>361.2</ele>
        <time>2025-09-30T12:28:41.105Z</time>
      </trkpt>
      <trkpt lat="43.65306" lon="2.29817">
        <ele>360.7</ele>
        <time>2025-09-30T12:28:42.028Z</time>
      </trkpt>
      <trkpt lat="43.6529" lon="2.29836">
        <ele>360.7</ele>
        <time>2025-09-30T12:28:44.437Z</time>
        <extensions>
          <visugpx:TrkExtension xmlns:visugpx="https://www.visugpx.com/editgpx/">
            <visugpx:node>32</visugpx:node>
            </visugpx:TrkExtension>
        </extensions>
      </trkpt>
      <trkpt lat="43.65255" lon="2.29879">
        <ele>365.8</ele>
        <time>2025-09-30T12:29:04.354Z</time>
      </trkpt>
      <trkpt lat="43.65247" lon="2.29885">
        <ele>366.9</ele>
        <time>2025-09-30T12:29:08.622Z</time>
      </trkpt>
      <trkpt lat="43.65233" lon="2.29888">
        <ele>368.1</ele>
        <time>2025-09-30T12:29:13.112Z</time>
      </trkpt>
      <trkpt lat="43.65227" lon="2.29897">
        <ele>369.2</ele>
        <time>2025-09-30T12:29:17.340Z</time>
      </trkpt>
      <trkpt lat="43.65218" lon="2.29937">
        <ele>371.3</ele>
        <time>2025-09-30T12:29:25.130Z</time>
      </trkpt>
      <trkpt lat="43.65214" lon="2.29948">
        <ele>371.2</ele>
        <time>2025-09-30T12:29:26.047Z</time>
      </trkpt>
      <trkpt lat="43.65227" lon="2.29937">
        <ele>371.4</ele>
        <time>2025-09-30T12:29:28.030Z</time>
      </trkpt>
      <trkpt lat="43.65237" lon="2.29938">
        <ele>370.7</ele>
        <time>2025-09-30T12:29:28.717Z</time>
      </trkpt>
      <trkpt lat="43.65239" lon="2.29949">
        <ele>370.6</ele>
        <time>2025-09-30T12:29:29.555Z</time>
      </trkpt>
      <trkpt lat="43.65233" lon="2.29985">
        <ele>370.3</ele>
        <time>2025-09-30T12:29:32.309Z</time>
      </trkpt>
      <trkpt lat="43.65238" lon="2.30023">
        <ele>368.7</ele>
        <time>2025-09-30T12:29:34.340Z</time>
      </trkpt>
      <trkpt lat="43.6524" lon="2.30076">
        <ele>365.7</ele>
        <time>2025-09-30T12:29:36.971Z</time>
      </trkpt>
      <trkpt lat="43.65231" lon="2.30159">
        <ele>362.8</ele>
        <time>2025-09-30T12:29:41.672Z</time>
      </trkpt>
      <trkpt lat="43.65229" lon="2.30207">
        <ele>363.7</ele>
        <time>2025-09-30T12:29:46.862Z</time>
      </trkpt>
      <trkpt lat="43.65231" lon="2.30218">
        <ele>364.1</ele>
        <time>2025-09-30T12:29:48.471Z</time>
      </trkpt>
      <trkpt lat="43.65233" lon="2.30221">
        <ele>364.1</ele>
        <time>2025-09-30T12:29:48.808Z</time>
      </trkpt>
      <trkpt lat="43.65238" lon="2.30222">
        <ele>363.8</ele>
        <time>2025-09-30T12:29:49.170Z</time>
      </trkpt>
      <trkpt lat="43.65283" lon="2.30193">
        <ele>360.2</ele>
        <time>2025-09-30T12:29:52.572Z</time>
      </trkpt>
      <trkpt lat="43.65299" lon="2.30185">
        <ele>359.9</ele>
        <time>2025-09-30T12:29:54.231Z</time>
      </trkpt>
      <trkpt lat="43.65317" lon="2.3018">
        <ele>360.6</ele>
        <time>2025-09-30T12:29:57.388Z</time>
      </trkpt>
      <trkpt lat="43.65343" lon="2.30177">
        <ele>362.8</ele>
        <time>2025-09-30T12:30:05.614Z</time>
      </trkpt>
      <trkpt lat="43.65374" lon="2.30168">
        <ele>363.2</ele>
        <time>2025-09-30T12:30:09.714Z</time>
      </trkpt>
      <trkpt lat="43.65401" lon="2.30155">
        <ele>361.5</ele>
        <time>2025-09-30T12:30:11.762Z</time>
      </trkpt>
      <trkpt lat="43.65418" lon="2.30148">
        <ele>360.5</ele>
        <time>2025-09-30T12:30:13.059Z</time>
      </trkpt>
      <trkpt lat="43.65428" lon="2.30154">
        <ele>359.8</ele>
        <time>2025-09-30T12:30:13.817Z</time>
      </trkpt>
      <trkpt lat="43.65435" lon="2.30162">
        <ele>359.2</ele>
        <time>2025-09-30T12:30:14.442Z</time>
      </trkpt>
      <trkpt lat="43.65436" lon="2.30245">
        <ele>357.8</ele>
        <time>2025-09-30T12:30:20.027Z</time>
      </trkpt>
      <trkpt lat="43.65439" lon="2.30256">
        <ele>357.3</ele>
        <time>2025-09-30T12:30:20.639Z</time>
      </trkpt>
      <trkpt lat="43.65448" lon="2.30267">
        <ele>356.5</ele>
        <time>2025-09-30T12:30:21.462Z</time>
      </trkpt>
      <trkpt lat="43.65492" lon="2.30283">
        <ele>358.7</ele>
        <time>2025-09-30T12:30:30.338Z</time>
        <extensions>
          <visugpx:TrkExtension xmlns:visugpx="https://www.visugpx.com/editgpx/">
            <visugpx:node>33</visugpx:node>
            </visugpx:TrkExtension>
        </extensions>
      </trkpt>
      <trkpt lat="43.65498" lon="2.30285">
        <ele>359.2</ele>
        <time>2025-09-30T12:30:32.199Z</time>
      </trkpt>
      <trkpt lat="43.65567" lon="2.30303">
        <ele>364.9</ele>
        <time>2025-09-30T12:30:53.416Z</time>
      </trkpt>
      <trkpt lat="43.65634" lon="2.30292">
        <ele>363.2</ele>
        <time>2025-09-30T12:30:59.595Z</time>
      </trkpt>
      <trkpt lat="43.65725" lon="2.30265">
        <ele>358.3</ele>
        <time>2025-09-30T12:31:06.565Z</time>
      </trkpt>
      <trkpt lat="43.65786" lon="2.30258">
        <ele>357.2</ele>
        <time>2025-09-30T12:31:12.515Z</time>
      </trkpt>
      <trkpt lat="43.65811" lon="2.30243">
        <ele>354</ele>
        <time>2025-09-30T12:31:14.382Z</time>
      </trkpt>
      <trkpt lat="43.65862" lon="2.30219">
        <ele>348</ele>
        <time>2025-09-30T12:31:18.073Z</time>
      </trkpt>
      <trkpt lat="43.65886" lon="2.30214">
        <ele>344.5</ele>
        <time>2025-09-30T12:31:19.736Z</time>
      </trkpt>
      <trkpt lat="43.65901" lon="2.30219">
        <ele>342.3</ele>
        <time>2025-09-30T12:31:20.793Z</time>
      </trkpt>
      <trkpt lat="43.6591" lon="2.30227">
        <ele>341.4</ele>
        <time>2025-09-30T12:31:21.526Z</time>
      </trkpt>
      <trkpt lat="43.65913" lon="2.30231">
        <ele>341.2</ele>
        <time>2025-09-30T12:31:21.849Z</time>
      </trkpt>
      <trkpt lat="43.6592" lon="2.30239">
        <ele>340.5</ele>
        <time>2025-09-30T12:31:22.471Z</time>
      </trkpt>
      <trkpt lat="43.65925" lon="2.30252">
        <ele>341.2</ele>
        <time>2025-09-30T12:31:25.079Z</time>
      </trkpt>
      <trkpt lat="43.65935" lon="2.30257">
        <ele>339.4</ele>
        <time>2025-09-30T12:31:25.808Z</time>
      </trkpt>
      <trkpt lat="43.65943" lon="2.30268">
        <ele>339</ele>
        <time>2025-09-30T12:31:26.762Z</time>
      </trkpt>
      <trkpt lat="43.65948" lon="2.30271">
        <ele>337.9</ele>
        <time>2025-09-30T12:31:27.136Z</time>
      </trkpt>
      <trkpt lat="43.65955" lon="2.30283">
        <ele>337.6</ele>
        <time>2025-09-30T12:31:28.143Z</time>
      </trkpt>
      <trkpt lat="43.65975" lon="2.30355">
        <ele>346.3</ele>
        <time>2025-09-30T12:31:55.450Z</time>
      </trkpt>
      <trkpt lat="43.65988" lon="2.30367">
        <ele>348.5</ele>
        <time>2025-09-30T12:32:03.100Z</time>
      </trkpt>
      <trkpt lat="43.66011" lon="2.30373">
        <ele>350.1</ele>
        <time>2025-09-30T12:32:09.040Z</time>
      </trkpt>
      <trkpt lat="43.6604" lon="2.30368">
        <ele>350.9</ele>
        <time>2025-09-30T12:32:13.475Z</time>
      </trkpt>
      <trkpt lat="43.66058" lon="2.30368">
        <ele>351.8</ele>
        <time>2025-09-30T12:32:17.061Z</time>
      </trkpt>
      <trkpt lat="43.66067" lon="2.30372">
        <ele>352.4</ele>
        <time>2025-09-30T12:32:19.307Z</time>
      </trkpt>
      <trkpt lat="43.66071" lon="2.3038">
        <ele>353.2</ele>
        <time>2025-09-30T12:32:22.436Z</time>
      </trkpt>
      <trkpt lat="43.66071" lon="2.30393">
        <ele>354.2</ele>
        <time>2025-09-30T12:32:26.331Z</time>
      </trkpt>
      <trkpt lat="43.66066" lon="2.30403">
        <ele>355</ele>
        <time>2025-09-30T12:32:29.359Z</time>
      </trkpt>
      <trkpt lat="43.66058" lon="2.30407">
        <ele>355.8</ele>
        <time>2025-09-30T12:32:32.407Z</time>
      </trkpt>
      <trkpt lat="43.66046" lon="2.30411">
        <ele>356.7</ele>
        <time>2025-09-30T12:32:35.740Z</time>
      </trkpt>
      <trkpt lat="43.66038" lon="2.30417">
        <ele>357.6</ele>
        <time>2025-09-30T12:32:39.202Z</time>
      </trkpt>
      <trkpt lat="43.66029" lon="2.30426">
        <ele>358.6</ele>
        <time>2025-09-30T12:32:42.981Z</time>
      </trkpt>
      <trkpt lat="43.6601" lon="2.3045">
        <ele>362.9</ele>
        <time>2025-09-30T12:32:55.577Z</time>
      </trkpt>
      <trkpt lat="43.66004" lon="2.30465">
        <ele>364.8</ele>
        <time>2025-09-30T12:33:01.645Z</time>
      </trkpt>
      <trkpt lat="43.65986" lon="2.30494">
        <ele>368.4</ele>
        <time>2025-09-30T12:33:15.118Z</time>
      </trkpt>
      <trkpt lat="43.65949" lon="2.30472">
        <ele>373.3</ele>
        <time>2025-09-30T12:33:34.095Z</time>
      </trkpt>
      <trkpt lat="43.65877" lon="2.30441">
        <ele>379.5</ele>
        <time>2025-09-30T12:33:57.205Z</time>
      </trkpt>
      <trkpt lat="43.65852" lon="2.30434">
        <ele>380.9</ele>
        <time>2025-09-30T12:34:02.616Z</time>
      </trkpt>
      <trkpt lat="43.65846" lon="2.30431">
        <ele>381.1</ele>
        <time>2025-09-30T12:34:03.629Z</time>
      </trkpt>
      <trkpt lat="43.65834" lon="2.30428">
        <ele>381.8</ele>
        <time>2025-09-30T12:34:06.302Z</time>
      </trkpt>
      <trkpt lat="43.65799" lon="2.30429">
        <ele>382.9</ele>
        <time>2025-09-30T12:34:11.866Z</time>
      </trkpt>
      <trkpt lat="43.65723" lon="2.30436">
        <ele>384.4</ele>
        <time>2025-09-30T12:34:22.485Z</time>
      </trkpt>
      <trkpt lat="43.65705" lon="2.30439">
        <ele>385.1</ele>
        <time>2025-09-30T12:34:25.621Z</time>
      </trkpt>
      <trkpt lat="43.65685" lon="2.30445">
        <ele>386</ele>
        <time>2025-09-30T12:34:29.401Z</time>
      </trkpt>
      <trkpt lat="43.65566" lon="2.30459">
        <ele>385.9</ele>
        <time>2025-09-30T12:34:42.931Z</time>
      </trkpt>
      <trkpt lat="43.65563" lon="2.30459">
        <ele>385.9</ele>
        <time>2025-09-30T12:34:43.274Z</time>
      </trkpt>
      <trkpt lat="43.65555" lon="2.30461">
        <ele>386.2</ele>
        <time>2025-09-30T12:34:44.652Z</time>
      </trkpt>
      <trkpt lat="43.65513" lon="2.30473">
        <ele>387.5</ele>
        <time>2025-09-30T12:34:51.381Z</time>
      </trkpt>
      <trkpt lat="43.65476" lon="2.30473">
        <ele>387.2</ele>
        <time>2025-09-30T12:34:55.301Z</time>
      </trkpt>
      <trkpt lat="43.65423" lon="2.30491">
        <ele>385.8</ele>
        <time>2025-09-30T12:35:00.281Z</time>
      </trkpt>
      <trkpt lat="43.65386" lon="2.30501">
        <ele>385.1</ele>
        <time>2025-09-30T12:35:03.927Z</time>
      </trkpt>
      <trkpt lat="43.65309" lon="2.30541">
        <ele>391</ele>
        <time>2025-09-30T12:35:25.779Z</time>
      </trkpt>
      <trkpt lat="43.65256" lon="2.30572">
        <ele>397.4</ele>
        <time>2025-09-30T12:35:50.807Z</time>
        <extensions>
          <visugpx:TrkExtension xmlns:visugpx="https://www.visugpx.com/editgpx/">
            <visugpx:node>34</visugpx:node>
            </visugpx:TrkExtension>
        </extensions>
      </trkpt>
      <trkpt lat="43.65246" lon="2.30577">
        <ele>398.5</ele>
        <time>2025-09-30T12:35:55.074Z</time>
      </trkpt>
      <trkpt lat="43.65174" lon="2.30616">
        <ele>408.6</ele>
        <time>2025-09-30T12:36:32.791Z</time>
      </trkpt>
      <trkpt lat="43.65128" lon="2.30667">
        <ele>416.3</ele>
        <time>2025-09-30T12:37:01.552Z</time>
      </trkpt>
      <trkpt lat="43.65111" lon="2.30704">
        <ele>418.7</ele>
        <time>2025-09-30T12:37:10.443Z</time>
      </trkpt>
      <trkpt lat="43.65069" lon="2.3077">
        <ele>427.2</ele>
        <time>2025-09-30T12:37:41.567Z</time>
      </trkpt>
      <trkpt lat="43.65048" lon="2.30792">
        <ele>429</ele>
        <time>2025-09-30T12:37:48.250Z</time>
      </trkpt>
      <trkpt lat="43.65042" lon="2.30805">
        <ele>429</ele>
        <time>2025-09-30T12:37:49.524Z</time>
      </trkpt>
      <trkpt lat="43.65033" lon="2.30838">
        <ele>428.6</ele>
        <time>2025-09-30T12:37:52.053Z</time>
      </trkpt>
      <trkpt lat="43.6503" lon="2.30842">
        <ele>428.6</ele>
        <time>2025-09-30T12:37:52.529Z</time>
      </trkpt>
      <trkpt lat="43.65035" lon="2.30871">
        <ele>427.5</ele>
        <time>2025-09-30T12:37:54.162Z</time>
      </trkpt>
      <trkpt lat="43.65046" lon="2.30911">
        <ele>426.2</ele>
        <time>2025-09-30T12:37:56.658Z</time>
      </trkpt>
      <trkpt lat="43.6506" lon="2.30949">
        <ele>425</ele>
        <time>2025-09-30T12:37:59.202Z</time>
      </trkpt>
      <trkpt lat="43.6509" lon="2.31014">
        <ele>426.5</ele>
        <time>2025-09-30T12:38:07.621Z</time>
      </trkpt>
      <trkpt lat="43.65111" lon="2.31064">
        <ele>425.4</ele>
        <time>2025-09-30T12:38:11.418Z</time>
      </trkpt>
      <trkpt lat="43.65153" lon="2.31148">
        <ele>422.7</ele>
        <time>2025-09-30T12:38:17.615Z</time>
      </trkpt>
      <trkpt lat="43.65158" lon="2.31163">
        <ele>423.3</ele>
        <time>2025-09-30T12:38:20.002Z</time>
      </trkpt>
      <trkpt lat="43.65166" lon="2.31193">
        <ele>424.9</ele>
        <time>2025-09-30T12:38:25.937Z</time>
      </trkpt>
      <trkpt lat="43.65171" lon="2.31227">
        <ele>428.8</ele>
        <time>2025-09-30T12:38:38.223Z</time>
      </trkpt>
      <trkpt lat="43.65172" lon="2.31244">
        <ele>430.3</ele>
        <time>2025-09-30T12:38:44.034Z</time>
      </trkpt>
      <trkpt lat="43.65167" lon="2.3131">
        <ele>436.4</ele>
        <time>2025-09-30T12:39:07.230Z</time>
      </trkpt>
      <trkpt lat="43.65167" lon="2.31378">
        <ele>440.6</ele>
        <time>2025-09-30T12:39:22.961Z</time>
      </trkpt>
      <trkpt lat="43.6517" lon="2.31397">
        <ele>441.1</ele>
        <time>2025-09-30T12:39:25.307Z</time>
        <extensions>
          <visugpx:TrkExtension xmlns:visugpx="https://www.visugpx.com/editgpx/">
            <visugpx:node>35</visugpx:node>
            </visugpx:TrkExtension>
        </extensions>
      </trkpt>
      <trkpt lat="43.65171" lon="2.31398">
        <ele>441.2</ele>
        <time>2025-09-30T12:39:25.680Z</time>
      </trkpt>
      <trkpt lat="43.65177" lon="2.31418">
        <ele>441.3</ele>
        <time>2025-09-30T12:39:27.583Z</time>
      </trkpt>
      <trkpt lat="43.65207" lon="2.31488">
        <ele>438.7</ele>
        <time>2025-09-30T12:39:32.255Z</time>
      </trkpt>
      <trkpt lat="43.65224" lon="2.31523">
        <ele>436.3</ele>
        <time>2025-09-30T12:39:34.345Z</time>
      </trkpt>
      <trkpt lat="43.65228" lon="2.31536">
        <ele>435.5</ele>
        <time>2025-09-30T12:39:35.045Z</time>
      </trkpt>
      <trkpt lat="43.65235" lon="2.3157">
        <ele>434.3</ele>
        <time>2025-09-30T12:39:37.037Z</time>
      </trkpt>
      <trkpt lat="43.65247" lon="2.31657">
        <ele>433.8</ele>
        <time>2025-09-30T12:39:43.844Z</time>
      </trkpt>
      <trkpt lat="43.65249" lon="2.31682">
        <ele>434.4</ele>
        <time>2025-09-30T12:39:46.788Z</time>
      </trkpt>
      <trkpt lat="43.65247" lon="2.31695">
        <ele>434.6</ele>
        <time>2025-09-30T12:39:48.145Z</time>
      </trkpt>
      <trkpt lat="43.65218" lon="2.31763">
        <ele>432.6</ele>
        <time>2025-09-30T12:39:52.991Z</time>
      </trkpt>
      <trkpt lat="43.65214" lon="2.31775">
        <ele>432.1</ele>
        <time>2025-09-30T12:39:53.708Z</time>
      </trkpt>
      <trkpt lat="43.65209" lon="2.31794">
        <ele>432</ele>
        <time>2025-09-30T12:39:55.276Z</time>
      </trkpt>
      <trkpt lat="43.652" lon="2.31837">
        <ele>431.5</ele>
        <time>2025-09-30T12:39:58.492Z</time>
      </trkpt>
      <trkpt lat="43.65194" lon="2.31886">
        <ele>430</ele>
        <time>2025-09-30T12:40:01.397Z</time>
      </trkpt>
      <trkpt lat="43.65178" lon="2.3194">
        <ele>425.7</ele>
        <time>2025-09-30T12:40:04.289Z</time>
      </trkpt>
      <trkpt lat="43.65176" lon="2.31949">
        <ele>425.1</ele>
        <time>2025-09-30T12:40:04.756Z</time>
      </trkpt>
      <trkpt lat="43.65166" lon="2.31967">
        <ele>423.1</ele>
        <time>2025-09-30T12:40:05.881Z</time>
      </trkpt>
      <trkpt lat="43.65126" lon="2.32033">
        <ele>417.3</ele>
        <time>2025-09-30T12:40:10.149Z</time>
      </trkpt>
      <trkpt lat="43.65097" lon="2.32072">
        <ele>411.9</ele>
        <time>2025-09-30T12:40:12.922Z</time>
      </trkpt>
      <trkpt lat="43.65086" lon="2.32101">
        <ele>409.5</ele>
        <time>2025-09-30T12:40:14.545Z</time>
      </trkpt>
      <trkpt lat="43.65085" lon="2.32124">
        <ele>407.2</ele>
        <time>2025-09-30T12:40:15.687Z</time>
      </trkpt>
      <trkpt lat="43.65098" lon="2.32153">
        <ele>403</ele>
        <time>2025-09-30T12:40:17.378Z</time>
      </trkpt>
      <trkpt lat="43.65147" lon="2.32181">
        <ele>394.8</ele>
        <time>2025-09-30T12:40:21.011Z</time>
      </trkpt>
      <trkpt lat="43.65164" lon="2.32188">
        <ele>391.8</ele>
        <time>2025-09-30T12:40:22.227Z</time>
      </trkpt>
      <trkpt lat="43.65179" lon="2.32187">
        <ele>390.5</ele>
        <time>2025-09-30T12:40:23.256Z</time>
      </trkpt>
      <trkpt lat="43.65189" lon="2.32188">
        <ele>389.2</ele>
        <time>2025-09-30T12:40:23.943Z</time>
      </trkpt>
      <trkpt lat="43.65198" lon="2.32192">
        <ele>387.3</ele>
        <time>2025-09-30T12:40:24.590Z</time>
      </trkpt>
      <trkpt lat="43.65225" lon="2.32194">
        <ele>384.6</ele>
        <time>2025-09-30T12:40:26.443Z</time>
      </trkpt>
      <trkpt lat="43.6523" lon="2.32199">
        <ele>382.3</ele>
        <time>2025-09-30T12:40:26.866Z</time>
      </trkpt>
      <trkpt lat="43.65229" lon="2.32209">
        <ele>379.7</ele>
        <time>2025-09-30T12:40:27.366Z</time>
      </trkpt>
      <trkpt lat="43.65205" lon="2.32231">
        <ele>376.1</ele>
        <time>2025-09-30T12:40:29.339Z</time>
      </trkpt>
      <trkpt lat="43.65185" lon="2.32243">
        <ele>373.7</ele>
        <time>2025-09-30T12:40:30.833Z</time>
      </trkpt>
      <trkpt lat="43.65172" lon="2.32245">
        <ele>373.6</ele>
        <time>2025-09-30T12:40:32.225Z</time>
      </trkpt>
      <trkpt lat="43.65165" lon="2.32251">
        <ele>371.8</ele>
        <time>2025-09-30T12:40:32.789Z</time>
      </trkpt>
      <trkpt lat="43.65164" lon="2.32258">
        <ele>369.4</ele>
        <time>2025-09-30T12:40:33.143Z</time>
      </trkpt>
      <trkpt lat="43.6517" lon="2.32266">
        <ele>366.1</ele>
        <time>2025-09-30T12:40:33.714Z</time>
      </trkpt>
      <trkpt lat="43.65194" lon="2.32273">
        <ele>362.7</ele>
        <time>2025-09-30T12:40:35.395Z</time>
      </trkpt>
      <trkpt lat="43.65207" lon="2.32271">
        <ele>362.2</ele>
        <time>2025-09-30T12:40:36.478Z</time>
      </trkpt>
      <trkpt lat="43.6521" lon="2.32273">
        <ele>361.1</ele>
        <time>2025-09-30T12:40:36.706Z</time>
      </trkpt>
      <trkpt lat="43.65211" lon="2.32278">
        <ele>359.1</ele>
        <time>2025-09-30T12:40:36.964Z</time>
      </trkpt>
      <trkpt lat="43.6521" lon="2.32282">
        <ele>358</ele>
        <time>2025-09-30T12:40:37.173Z</time>
      </trkpt>
      <trkpt lat="43.65189" lon="2.32286">
        <ele>358.1</ele>
        <time>2025-09-30T12:40:39.707Z</time>
      </trkpt>
      <trkpt lat="43.65188" lon="2.3229">
        <ele>356.5</ele>
        <time>2025-09-30T12:40:39.917Z</time>
      </trkpt>
      <trkpt lat="43.65188" lon="2.32294">
        <ele>355</ele>
        <time>2025-09-30T12:40:40.115Z</time>
      </trkpt>
      <trkpt lat="43.65192" lon="2.32299">
        <ele>353.2</ele>
        <time>2025-09-30T12:40:40.485Z</time>
      </trkpt>
      <trkpt lat="43.65232" lon="2.32309">
        <ele>346.7</ele>
        <time>2025-09-30T12:40:43.270Z</time>
      </trkpt>
      <trkpt lat="43.65241" lon="2.3231">
        <ele>344.6</ele>
        <time>2025-09-30T12:40:43.888Z</time>
      </trkpt>
      <trkpt lat="43.6526" lon="2.32306">
        <ele>341.6</ele>
        <time>2025-09-30T12:40:45.205Z</time>
      </trkpt>
      <trkpt lat="43.65284" lon="2.32296">
        <ele>338.1</ele>
        <time>2025-09-30T12:40:46.923Z</time>
      </trkpt>
      <trkpt lat="43.65344" lon="2.32267">
        <ele>330.2</ele>
        <time>2025-09-30T12:40:51.278Z</time>
      </trkpt>
      <trkpt lat="43.65352" lon="2.3226">
        <ele>328.8</ele>
        <time>2025-09-30T12:40:51.926Z</time>
      </trkpt>
      <trkpt lat="43.65358" lon="2.32248">
        <ele>328.7</ele>
        <time>2025-09-30T12:40:53.031Z</time>
      </trkpt>
      <trkpt lat="43.65368" lon="2.32246">
        <ele>327.9</ele>
        <time>2025-09-30T12:40:53.723Z</time>
      </trkpt>
      <trkpt lat="43.65399" lon="2.32259">
        <ele>327.7</ele>
        <time>2025-09-30T12:40:57.216Z</time>
      </trkpt>
      <trkpt lat="43.65401" lon="2.32262">
        <ele>327.5</ele>
        <time>2025-09-30T12:40:57.418Z</time>
      </trkpt>
      <trkpt lat="43.65398" lon="2.3227">
        <ele>324.8</ele>
        <time>2025-09-30T12:40:57.864Z</time>
      </trkpt>
      <trkpt lat="43.65413" lon="2.32283">
        <ele>325.2</ele>
        <time>2025-09-30T12:41:00.412Z</time>
      </trkpt>
      <trkpt lat="43.65418" lon="2.32292">
        <ele>324.2</ele>
        <time>2025-09-30T12:41:00.974Z</time>
      </trkpt>
      <trkpt lat="43.65417" lon="2.32296">
        <ele>323.7</ele>
        <time>2025-09-30T12:41:01.184Z</time>
      </trkpt>
      <trkpt lat="43.65413" lon="2.32298">
        <ele>322.5</ele>
        <time>2025-09-30T12:41:01.476Z</time>
      </trkpt>
      <trkpt lat="43.65409" lon="2.32297">
        <ele>321.7</ele>
        <time>2025-09-30T12:41:01.754Z</time>
      </trkpt>
      <trkpt lat="43.65406" lon="2.32293">
        <ele>321.7</ele>
        <time>2025-09-30T12:41:02.230Z</time>
      </trkpt>
      <trkpt lat="43.65404" lon="2.32295">
        <ele>320.9</ele>
        <time>2025-09-30T12:41:02.399Z</time>
      </trkpt>
      <trkpt lat="43.65404" lon="2.32299">
        <ele>320.1</ele>
        <time>2025-09-30T12:41:02.598Z</time>
      </trkpt>
      <trkpt lat="43.65409" lon="2.32314">
        <ele>318.3</ele>
        <time>2025-09-30T12:41:03.416Z</time>
      </trkpt>
      <trkpt lat="43.65409" lon="2.3232">
        <ele>317.1</ele>
        <time>2025-09-30T12:41:03.714Z</time>
      </trkpt>
      <trkpt lat="43.65415" lon="2.32336">
        <ele>315.3</ele>
        <time>2025-09-30T12:41:04.607Z</time>
      </trkpt>
      <trkpt lat="43.65418" lon="2.32349">
        <ele>313.2</ele>
        <time>2025-09-30T12:41:05.284Z</time>
      </trkpt>
      <trkpt lat="43.65417" lon="2.32355">
        <ele>312.7</ele>
        <time>2025-09-30T12:41:05.589Z</time>
      </trkpt>
      <trkpt lat="43.65411" lon="2.32365">
        <ele>310</ele>
        <time>2025-09-30T12:41:06.233Z</time>
      </trkpt>
      <trkpt lat="43.6541" lon="2.32397">
        <ele>304.3</ele>
        <time>2025-09-30T12:41:07.821Z</time>
      </trkpt>
      <trkpt lat="43.65405" lon="2.32433">
        <ele>299.4</ele>
        <time>2025-09-30T12:41:09.638Z</time>
      </trkpt>
      <trkpt lat="43.65404" lon="2.32496">
        <ele>293</ele>
        <time>2025-09-30T12:41:12.762Z</time>
      </trkpt>
      <trkpt lat="43.65407" lon="2.32519">
        <ele>290.3</ele>
        <time>2025-09-30T12:41:13.920Z</time>
      </trkpt>
      <trkpt lat="43.65405" lon="2.32522">
        <ele>289.8</ele>
        <time>2025-09-30T12:41:14.122Z</time>
      </trkpt>
      <trkpt lat="43.65398" lon="2.32521">
        <ele>289.6</ele>
        <time>2025-09-30T12:41:14.750Z</time>
      </trkpt>
      <trkpt lat="43.65388" lon="2.3251">
        <ele>290.8</ele>
        <time>2025-09-30T12:41:19.321Z</time>
      </trkpt>
      <trkpt lat="43.6538" lon="2.32506">
        <ele>287.8</ele>
        <time>2025-09-30T12:41:19.903Z</time>
      </trkpt>
      <trkpt lat="43.65378" lon="2.32508">
        <ele>286.5</ele>
        <time>2025-09-30T12:41:20.073Z</time>
      </trkpt>
      <trkpt lat="43.65378" lon="2.32514">
        <ele>285.4</ele>
        <time>2025-09-30T12:41:20.370Z</time>
      </trkpt>
      <trkpt lat="43.65387" lon="2.32535">
        <ele>285.3</ele>
        <time>2025-09-30T12:41:22.283Z</time>
      </trkpt>
      <trkpt lat="43.65389" lon="2.32548">
        <ele>282.9</ele>
        <time>2025-09-30T12:41:22.942Z</time>
      </trkpt>
      <trkpt lat="43.65409" lon="2.32594">
        <ele>275.8</ele>
        <time>2025-09-30T12:41:25.602Z</time>
      </trkpt>
      <trkpt lat="43.65421" lon="2.32612">
        <ele>272.3</ele>
        <time>2025-09-30T12:41:26.815Z</time>
      </trkpt>
      <trkpt lat="43.65424" lon="2.32621">
        <ele>270.2</ele>
        <time>2025-09-30T12:41:27.307Z</time>
      </trkpt>
      <trkpt lat="43.65424" lon="2.32631">
        <ele>269.1</ele>
        <time>2025-09-30T12:41:27.802Z</time>
      </trkpt>
      <trkpt lat="43.6543" lon="2.32641">
        <ele>267.2</ele>
        <time>2025-09-30T12:41:28.446Z</time>
      </trkpt>
      <trkpt lat="43.65439" lon="2.32647">
        <ele>266</ele>
        <time>2025-09-30T12:41:29.131Z</time>
      </trkpt>
      <trkpt lat="43.65444" lon="2.32658">
        <ele>265.3</ele>
        <time>2025-09-30T12:41:29.775Z</time>
      </trkpt>
      <trkpt lat="43.65447" lon="2.3267">
        <ele>263.4</ele>
        <time>2025-09-30T12:41:30.404Z</time>
      </trkpt>
      <trkpt lat="43.65445" lon="2.32677">
        <ele>263.3</ele>
        <time>2025-09-30T12:41:30.932Z</time>
      </trkpt>
      <trkpt lat="43.65434" lon="2.32682">
        <ele>261.2</ele>
        <time>2025-09-30T12:41:31.725Z</time>
      </trkpt>
      <trkpt lat="43.65433" lon="2.32688">
        <ele>260.1</ele>
        <time>2025-09-30T12:41:32.030Z</time>
      </trkpt>
      <trkpt lat="43.65435" lon="2.32693">
        <ele>259.5</ele>
        <time>2025-09-30T12:41:32.314Z</time>
      </trkpt>
      <trkpt lat="43.6544" lon="2.32698">
        <ele>259.5</ele>
        <time>2025-09-30T12:41:33.018Z</time>
      </trkpt>
      <trkpt lat="43.65445" lon="2.32701">
        <ele>259.7</ele>
        <time>2025-09-30T12:41:33.940Z</time>
      </trkpt>
      <trkpt lat="43.65456" lon="2.327">
        <ele>257.3</ele>
        <time>2025-09-30T12:41:34.695Z</time>
      </trkpt>
      <trkpt lat="43.65461" lon="2.32703">
        <ele>255.7</ele>
        <time>2025-09-30T12:41:35.069Z</time>
      </trkpt>
      <trkpt lat="43.65463" lon="2.32716">
        <ele>253.5</ele>
        <time>2025-09-30T12:41:35.727Z</time>
      </trkpt>
      <trkpt lat="43.6546" lon="2.32729">
        <ele>251.6</ele>
        <time>2025-09-30T12:41:36.404Z</time>
      </trkpt>
      <trkpt lat="43.65451" lon="2.32742">
        <ele>250</ele>
        <time>2025-09-30T12:41:37.296Z</time>
      </trkpt>
      <trkpt lat="43.65447" lon="2.32745">
        <ele>249.9</ele>
        <time>2025-09-30T12:41:37.724Z</time>
      </trkpt>
      <trkpt lat="43.6544" lon="2.32745">
        <ele>249.3</ele>
        <time>2025-09-30T12:41:38.203Z</time>
      </trkpt>
      <trkpt lat="43.65428" lon="2.32743">
        <ele>247.2</ele>
        <time>2025-09-30T12:41:39.031Z</time>
      </trkpt>
      <trkpt lat="43.65424" lon="2.32744">
        <ele>246.1</ele>
        <time>2025-09-30T12:41:39.310Z</time>
      </trkpt>
      <trkpt lat="43.65423" lon="2.32746">
        <ele>245.4</ele>
        <time>2025-09-30T12:41:39.430Z</time>
      </trkpt>
      <trkpt lat="43.65422" lon="2.32751">
        <ele>243.9</ele>
        <time>2025-09-30T12:41:39.688Z</time>
      </trkpt>
      <trkpt lat="43.65433" lon="2.32772">
        <ele>240.1</ele>
        <time>2025-09-30T12:41:40.973Z</time>
      </trkpt>
      <trkpt lat="43.65442" lon="2.32779">
        <ele>239.3</ele>
        <time>2025-09-30T12:41:41.680Z</time>
      </trkpt>
      <trkpt lat="43.65445" lon="2.32783">
        <ele>238.4</ele>
        <time>2025-09-30T12:41:41.966Z</time>
      </trkpt>
      <trkpt lat="43.65445" lon="2.32787">
        <ele>237.3</ele>
        <time>2025-09-30T12:41:42.164Z</time>
      </trkpt>
      <trkpt lat="43.65442" lon="2.32794">
        <ele>235</ele>
        <time>2025-09-30T12:41:42.568Z</time>
      </trkpt>
      <trkpt lat="43.65424" lon="2.328">
        <ele>231.2</ele>
        <time>2025-09-30T12:41:43.836Z</time>
      </trkpt>
      <trkpt lat="43.65418" lon="2.328">
        <ele>230.6</ele>
        <time>2025-09-30T12:41:44.247Z</time>
      </trkpt>
      <trkpt lat="43.65384" lon="2.32778">
        <ele>222.7</ele>
        <time>2025-09-30T12:41:46.820Z</time>
      </trkpt>
      <trkpt lat="43.6537" lon="2.3276">
        <ele>219.6</ele>
        <time>2025-09-30T12:41:48.130Z</time>
      </trkpt>
      <trkpt lat="43.65356" lon="2.32749">
        <ele>215.6</ele>
        <time>2025-09-30T12:41:49.233Z</time>
        <extensions>
          <visugpx:TrkExtension xmlns:visugpx="https://www.visugpx.com/editgpx/">
            <visugpx:node>36</visugpx:node>
            </visugpx:TrkExtension>
        </extensions>
      </trkpt>
      <trkpt lat="43.65353" lon="2.32741">
        <ele>216.2</ele>
        <time>2025-09-30T12:41:51.509Z</time>
      </trkpt>
      <trkpt lat="43.65329" lon="2.32725">
        <ele>208.2</ele>
        <time>2025-09-30T12:41:53.335Z</time>
      </trkpt>
      <trkpt lat="43.65323" lon="2.32719">
        <ele>206.4</ele>
        <time>2025-09-30T12:41:53.842Z</time>
      </trkpt>
      <trkpt lat="43.65318" lon="2.32706">
        <ele>205.8</ele>
        <time>2025-09-30T12:41:54.621Z</time>
      </trkpt>
      <trkpt lat="43.65311" lon="2.32696">
        <ele>203</ele>
        <time>2025-09-30T12:41:55.311Z</time>
      </trkpt>
      <trkpt lat="43.65305" lon="2.32673">
        <ele>204.5</ele>
        <time>2025-09-30T12:42:00.924Z</time>
      </trkpt>
      <trkpt lat="43.65297" lon="2.32659">
        <ele>204.9</ele>
        <time>2025-09-30T12:42:02.965Z</time>
      </trkpt>
      <trkpt lat="43.6529" lon="2.32652">
        <ele>203.7</ele>
        <time>2025-09-30T12:42:03.557Z</time>
      </trkpt>
      <trkpt lat="43.65197" lon="2.32608">
        <ele>198.7</ele>
        <time>2025-09-30T12:42:11.007Z</time>
      </trkpt>
      <trkpt lat="43.65176" lon="2.32605">
        <ele>198.5</ele>
        <time>2025-09-30T12:42:13.216Z</time>
      </trkpt>
      <trkpt lat="43.65172" lon="2.32607">
        <ele>197.6</ele>
        <time>2025-09-30T12:42:13.507Z</time>
      </trkpt>
      <trkpt lat="43.65151" lon="2.32605">
        <ele>196.9</ele>
        <time>2025-09-30T12:42:15.317Z</time>
      </trkpt>
      <trkpt lat="43.65141" lon="2.32602">
        <ele>196.8</ele>
        <time>2025-09-30T12:42:16.385Z</time>
      </trkpt>
      <trkpt lat="43.6511" lon="2.326">
        <ele>197</ele>
        <time>2025-09-30T12:42:20.158Z</time>
      </trkpt>
      <trkpt lat="43.65098" lon="2.326">
        <ele>197.4</ele>
        <time>2025-09-30T12:42:22.108Z</time>
      </trkpt>
      <trkpt lat="43.65079" lon="2.32607">
        <ele>196.4</ele>
        <time>2025-09-30T12:42:23.598Z</time>
      </trkpt>
      <trkpt lat="43.65051" lon="2.32607">
        <ele>199.2</ele>
        <time>2025-09-30T12:42:34.394Z</time>
      </trkpt>
      <trkpt lat="43.65039" lon="2.32612">
        <ele>198.7</ele>
        <time>2025-09-30T12:42:35.420Z</time>
      </trkpt>
      <trkpt lat="43.6502" lon="2.32617">
        <ele>200.4</ele>
        <time>2025-09-30T12:42:41.816Z</time>
      </trkpt>
      <trkpt lat="43.64986" lon="2.32643">
        <ele>196.7</ele>
        <time>2025-09-30T12:42:44.479Z</time>
      </trkpt>
      <trkpt lat="43.64964" lon="2.32646">
        <ele>196.7</ele>
        <time>2025-09-30T12:42:47.003Z</time>
      </trkpt>
      <trkpt lat="43.64934" lon="2.32647">
        <ele>197.9</ele>
        <time>2025-09-30T12:42:52.282Z</time>
      </trkpt>
      <trkpt lat="43.64908" lon="2.32654">
        <ele>198.2</ele>
        <time>2025-09-30T12:42:55.664Z</time>
      </trkpt>
      <trkpt lat="43.64898" lon="2.32658">
        <ele>197.5</ele>
        <time>2025-09-30T12:42:56.377Z</time>
      </trkpt>
      <trkpt lat="43.64877" lon="2.32659">
        <ele>197.4</ele>
        <time>2025-09-30T12:42:58.672Z</time>
      </trkpt>
      <trkpt lat="43.64855" lon="2.32648">
        <ele>199.5</ele>
        <time>2025-09-30T12:43:06.602Z</time>
      </trkpt>
      <trkpt lat="43.64832" lon="2.32633">
        <ele>198.9</ele>
        <time>2025-09-30T12:43:08.962Z</time>
      </trkpt>
      <trkpt lat="43.648" lon="2.32575">
        <ele>200.9</ele>
        <time>2025-09-30T12:43:18.013Z</time>
      </trkpt>
      <trkpt lat="43.64793" lon="2.32566">
        <ele>200.5</ele>
        <time>2025-09-30T12:43:18.785Z</time>
      </trkpt>
      <trkpt lat="43.64781" lon="2.32542">
        <ele>197.7</ele>
        <time>2025-09-30T12:43:20.231Z</time>
      </trkpt>
      <trkpt lat="43.64773" lon="2.32512">
        <ele>199</ele>
        <time>2025-09-30T12:43:25.223Z</time>
      </trkpt>
      <trkpt lat="43.64768" lon="2.3248">
        <ele>200.9</ele>
        <time>2025-09-30T12:43:32.287Z</time>
      </trkpt>
      <trkpt lat="43.64754" lon="2.32446">
        <ele>196.6</ele>
        <time>2025-09-30T12:43:34.227Z</time>
      </trkpt>
      <trkpt lat="43.64746" lon="2.32409">
        <ele>197.4</ele>
        <time>2025-09-30T12:43:38.528Z</time>
      </trkpt>
      <trkpt lat="43.64742" lon="2.32397">
        <ele>197.9</ele>
        <time>2025-09-30T12:43:40.489Z</time>
      </trkpt>
      <trkpt lat="43.6474" lon="2.32387">
        <ele>198.3</ele>
        <time>2025-09-30T12:43:42.049Z</time>
      </trkpt>
      <trkpt lat="43.64738" lon="2.32359">
        <ele>199.1</ele>
        <time>2025-09-30T12:43:45.600Z</time>
      </trkpt>
      <trkpt lat="43.6473" lon="2.32328">
        <ele>197.7</ele>
        <time>2025-09-30T12:43:47.314Z</time>
      </trkpt>
      <trkpt lat="43.64724" lon="2.32315">
        <ele>196.2</ele>
        <time>2025-09-30T12:43:48.078Z</time>
      </trkpt>
      <trkpt lat="43.64716" lon="2.32275">
        <ele>196.7</ele>
        <time>2025-09-30T12:43:52.131Z</time>
      </trkpt>
      <trkpt lat="43.64715" lon="2.32256">
        <ele>197.6</ele>
        <time>2025-09-30T12:43:55.487Z</time>
      </trkpt>
      <trkpt lat="43.64706" lon="2.32213">
        <ele>197.8</ele>
        <time>2025-09-30T12:43:59.414Z</time>
      </trkpt>
      <trkpt lat="43.64704" lon="2.32197">
        <ele>197.7</ele>
        <time>2025-09-30T12:44:00.655Z</time>
      </trkpt>
      <trkpt lat="43.64676" lon="2.32105">
        <ele>196.9</ele>
        <time>2025-09-30T12:44:08.105Z</time>
      </trkpt>
      <trkpt lat="43.64672" lon="2.32094">
        <ele>196.9</ele>
        <time>2025-09-30T12:44:09.122Z</time>
      </trkpt>
      <trkpt lat="43.64647" lon="2.32053">
        <ele>196.8</ele>
        <time>2025-09-30T12:44:13.446Z</time>
      </trkpt>
      <trkpt lat="43.64625" lon="2.32023">
        <ele>196.5</ele>
        <time>2025-09-30T12:44:16.674Z</time>
      </trkpt>
      <trkpt lat="43.64572" lon="2.31988">
        <ele>196.8</ele>
        <time>2025-09-30T12:44:23.721Z</time>
      </trkpt>
      <trkpt lat="43.64561" lon="2.31984">
        <ele>196.8</ele>
        <time>2025-09-30T12:44:25.020Z</time>
      </trkpt>
      <trkpt lat="43.64548" lon="2.31985">
        <ele>195.7</ele>
        <time>2025-09-30T12:44:25.912Z</time>
      </trkpt>
      <trkpt lat="43.64521" lon="2.3198">
        <ele>195</ele>
        <time>2025-09-30T12:44:28.397Z</time>
      </trkpt>
      <trkpt lat="43.6449" lon="2.31985">
        <ele>193.7</ele>
        <time>2025-09-30T12:44:30.918Z</time>
      </trkpt>
      <trkpt lat="43.64476" lon="2.31982">
        <ele>193.2</ele>
        <time>2025-09-30T12:44:32.118Z</time>
      </trkpt>
      <trkpt lat="43.64446" lon="2.3197">
        <ele>193.6</ele>
        <time>2025-09-30T12:44:36.167Z</time>
      </trkpt>
      <trkpt lat="43.64406" lon="2.31947">
        <ele>193.7</ele>
        <time>2025-09-30T12:44:41.225Z</time>
      </trkpt>
      <trkpt lat="43.644" lon="2.31943">
        <ele>193.8</ele>
        <time>2025-09-30T12:44:42.109Z</time>
      </trkpt>
      <trkpt lat="43.64397" lon="2.31936">
        <ele>195.6</ele>
        <time>2025-09-30T12:44:44.990Z</time>
      </trkpt>
      <trkpt lat="43.64393" lon="2.31931">
        <ele>196.5</ele>
        <time>2025-09-30T12:44:47.630Z</time>
      </trkpt>
      <trkpt lat="43.64368" lon="2.31917">
        <ele>195.2</ele>
        <time>2025-09-30T12:44:49.712Z</time>
      </trkpt>
      <trkpt lat="43.64347" lon="2.31903">
        <ele>196.4</ele>
        <time>2025-09-30T12:44:54.444Z</time>
      </trkpt>
      <trkpt lat="43.64327" lon="2.31894">
        <ele>195.1</ele>
        <time>2025-09-30T12:44:55.929Z</time>
      </trkpt>
      <trkpt lat="43.64308" lon="2.31892">
        <ele>194</ele>
        <time>2025-09-30T12:44:57.310Z</time>
      </trkpt>
      <trkpt lat="43.64284" lon="2.31884">
        <ele>194.2</ele>
        <time>2025-09-30T12:45:00.361Z</time>
      </trkpt>
      <trkpt lat="43.64268" lon="2.31875">
        <ele>194.8</ele>
        <time>2025-09-30T12:45:03.214Z</time>
      </trkpt>
      <trkpt lat="43.64253" lon="2.3187">
        <ele>194</ele>
        <time>2025-09-30T12:45:04.376Z</time>
      </trkpt>
      <trkpt lat="43.6424" lon="2.31863">
        <ele>193.6</ele>
        <time>2025-09-30T12:45:05.619Z</time>
      </trkpt>
      <trkpt lat="43.64226" lon="2.31851">
        <ele>195.2</ele>
        <time>2025-09-30T12:45:11.753Z</time>
      </trkpt>
      <trkpt lat="43.64192" lon="2.31835">
        <ele>194.7</ele>
        <time>2025-09-30T12:45:15.368Z</time>
      </trkpt>
      <trkpt lat="43.6416" lon="2.31824">
        <ele>196.7</ele>
        <time>2025-09-30T12:45:22.914Z</time>
      </trkpt>
      <trkpt lat="43.64123" lon="2.31819">
        <ele>197.2</ele>
        <time>2025-09-30T12:45:27.766Z</time>
      </trkpt>
      <trkpt lat="43.64113" lon="2.31815">
        <ele>197.2</ele>
        <time>2025-09-30T12:45:28.954Z</time>
      </trkpt>
      <trkpt lat="43.64072" lon="2.31806">
        <ele>194</ele>
        <time>2025-09-30T12:45:31.799Z</time>
      </trkpt>
      <trkpt lat="43.64059" lon="2.31805">
        <ele>194.3</ele>
        <time>2025-09-30T12:45:33.681Z</time>
      </trkpt>
      <trkpt lat="43.64032" lon="2.31812">
        <ele>195.7</ele>
        <time>2025-09-30T12:45:39.221Z</time>
      </trkpt>
      <trkpt lat="43.64021" lon="2.31809">
        <ele>195.6</ele>
        <time>2025-09-30T12:45:40.401Z</time>
      </trkpt>
      <trkpt lat="43.64001" lon="2.318">
        <ele>196.9</ele>
        <time>2025-09-30T12:45:45.288Z</time>
      </trkpt>
      <trkpt lat="43.6399" lon="2.31798">
        <ele>197.7</ele>
        <time>2025-09-30T12:45:48.251Z</time>
        <extensions>
          <visugpx:TrkExtension xmlns:visugpx="https://www.visugpx.com/editgpx/">
            <visugpx:node>37</visugpx:node>
            </visugpx:TrkExtension>
        </extensions>
      </trkpt>
      <trkpt lat="43.63976" lon="2.31801">
        <ele>195.4</ele>
        <time>2025-09-30T12:45:49.222Z</time>
      </trkpt>
      <trkpt lat="43.63962" lon="2.31807">
        <ele>193.3</ele>
        <time>2025-09-30T12:45:50.226Z</time>
      </trkpt>
      <trkpt lat="43.63947" lon="2.31812">
        <ele>193.7</ele>
        <time>2025-09-30T12:45:52.530Z</time>
      </trkpt>
      <trkpt lat="43.63924" lon="2.31822">
        <ele>193</ele>
        <time>2025-09-30T12:45:54.672Z</time>
        <extensions>
          <visugpx:TrkExtension xmlns:visugpx="https://www.visugpx.com/editgpx/">
            <visugpx:node>38</visugpx:node>
            </visugpx:TrkExtension>
        </extensions>
      </trkpt>
      <trkpt lat="43.63918" lon="2.31825">
        <ele>192.6</ele>
        <time>2025-09-30T12:45:55.120Z</time>
      </trkpt>
      <trkpt lat="43.63918" lon="2.31829">
        <ele>192.4</ele>
        <time>2025-09-30T12:45:55.318Z</time>
      </trkpt>
      <trkpt lat="43.63918" lon="2.31838">
        <ele>192</ele>
        <time>2025-09-30T12:45:55.779Z</time>
      </trkpt>
      <trkpt lat="43.63861" lon="2.31871">
        <ele>193</ele>
        <time>2025-09-30T12:46:04.078Z</time>
      </trkpt>
      <trkpt lat="43.6383" lon="2.31901">
        <ele>193.5</ele>
        <time>2025-09-30T12:46:09.006Z</time>
      </trkpt>
      <trkpt lat="43.63803" lon="2.31907">
        <ele>193.6</ele>
        <time>2025-09-30T12:46:12.241Z</time>
      </trkpt>
      <trkpt lat="43.63791" lon="2.3191">
        <ele>193.6</ele>
        <time>2025-09-30T12:46:13.633Z</time>
      </trkpt>
      <trkpt lat="43.6378" lon="2.31918">
        <ele>194</ele>
        <time>2025-09-30T12:46:15.626Z</time>
        <extensions>
          <visugpx:TrkExtension xmlns:visugpx="https://www.visugpx.com/editgpx/">
            <visugpx:node>39</visugpx:node>
            </visugpx:TrkExtension>
        </extensions>
      </trkpt>
      <trkpt lat="43.63773" lon="2.31937">
        <ele>193.7</ele>
        <time>2025-09-30T12:46:17.107Z</time>
      </trkpt>
      <trkpt lat="43.63768" lon="2.31942">
        <ele>193.3</ele>
        <time>2025-09-30T12:46:17.535Z</time>
      </trkpt>
      <trkpt lat="43.63763" lon="2.31938">
        <ele>193.1</ele>
        <time>2025-09-30T12:46:18.027Z</time>
      </trkpt>
      <trkpt lat="43.63755" lon="2.31926">
        <ele>192.9</ele>
        <time>2025-09-30T12:46:19.185Z</time>
      </trkpt>
      <trkpt lat="43.63746" lon="2.31925">
        <ele>192.7</ele>
        <time>2025-09-30T12:46:20.032Z</time>
      </trkpt>
      <trkpt lat="43.63742" lon="2.31925">
        <ele>192.7</ele>
        <time>2025-09-30T12:46:20.489Z</time>
      </trkpt>
      <trkpt lat="43.63732" lon="2.31924">
        <ele>192.7</ele>
        <time>2025-09-30T12:46:21.634Z</time>
      </trkpt>
      <trkpt lat="43.63722" lon="2.31924">
        <ele>192.7</ele>
        <time>2025-09-30T12:46:22.776Z</time>
      </trkpt>
      <trkpt lat="43.63713" lon="2.31951">
        <ele>191.3</ele>
        <time>2025-09-30T12:46:24.264Z</time>
      </trkpt>
      <trkpt lat="43.63699" lon="2.31942">
        <ele>191.3</ele>
        <time>2025-09-30T12:46:26.028Z</time>
      </trkpt>
      <trkpt lat="43.63683" lon="2.31937">
        <ele>191.5</ele>
        <time>2025-09-30T12:46:28.141Z</time>
      </trkpt>
      <trkpt lat="43.63678" lon="2.31929">
        <ele>192.1</ele>
        <time>2025-09-30T12:46:30.368Z</time>
      </trkpt>
      <trkpt lat="43.63661" lon="2.31926">
        <ele>192.1</ele>
        <time>2025-09-30T12:46:32.325Z</time>
        <extensions>
          <visugpx:TrkExtension xmlns:visugpx="https://www.visugpx.com/editgpx/">
            <visugpx:node>40</visugpx:node>
            </visugpx:TrkExtension>
        </extensions>
      </trkpt>
      <trkpt lat="43.63658" lon="2.31876">
        <ele>194.2</ele>
        <time>2025-09-30T12:46:40.331Z</time>
      </trkpt>
      <trkpt lat="43.63655" lon="2.31877">
        <ele>194</ele>
        <time>2025-09-30T12:46:40.544Z</time>
      </trkpt>
      <trkpt lat="43.63648" lon="2.31875">
        <ele>193.8</ele>
        <time>2025-09-30T12:46:41.185Z</time>
      </trkpt>
      <trkpt lat="43.63634" lon="2.31873">
        <ele>193.6</ele>
        <time>2025-09-30T12:46:42.597Z</time>
      </trkpt>
      <trkpt lat="43.63631" lon="2.31888">
        <ele>193</ele>
        <time>2025-09-30T12:46:43.437Z</time>
      </trkpt>
      <trkpt lat="43.63629" lon="2.31887">
        <ele>193.1</ele>
        <time>2025-09-30T12:46:43.845Z</time>
      </trkpt>
      <trkpt lat="43.63608" lon="2.31874">
        <ele>193.3</ele>
        <time>2025-09-30T12:46:46.706Z</time>
      </trkpt>
      <trkpt lat="43.63603" lon="2.31871">
        <ele>193</ele>
        <time>2025-09-30T12:46:47.108Z</time>
      </trkpt>
      <trkpt lat="43.63593" lon="2.31865">
        <ele>192.5</ele>
        <time>2025-09-30T12:46:47.963Z</time>
      </trkpt>
      <trkpt lat="43.63554" lon="2.31834">
        <ele>195.5</ele>
        <time>2025-09-30T12:46:59.125Z</time>
      </trkpt>
      <trkpt lat="43.63553" lon="2.31836">
        <ele>194.9</ele>
        <time>2025-09-30T12:46:59.245Z</time>
      </trkpt>
      <trkpt lat="43.63534" lon="2.31898">
        <ele>192.1</ele>
        <time>2025-09-30T12:47:02.782Z</time>
      </trkpt>
      <trkpt lat="43.63533" lon="2.31902">
        <ele>193.1</ele>
        <time>2025-09-30T12:47:04.281Z</time>
      </trkpt>
      <trkpt lat="43.63533" lon="2.31906">
        <ele>194.1</ele>
        <time>2025-09-30T12:47:05.698Z</time>
      </trkpt>
      <trkpt lat="43.63533" lon="2.31908">
        <ele>194.6</ele>
        <time>2025-09-30T12:47:06.406Z</time>
      </trkpt>
      <trkpt lat="43.63529" lon="2.3191">
        <ele>195.3</ele>
        <time>2025-09-30T12:47:08.488Z</time>
      </trkpt>
      <trkpt lat="43.63519" lon="2.31906">
        <ele>195.6</ele>
        <time>2025-09-30T12:47:10.094Z</time>
      </trkpt>
      <trkpt lat="43.63512" lon="2.31901">
        <ele>195.3</ele>
        <time>2025-09-30T12:47:10.747Z</time>
      </trkpt>
      <trkpt lat="43.63507" lon="2.31896">
        <ele>194.8</ele>
        <time>2025-09-30T12:47:11.170Z</time>
      </trkpt>
      <trkpt lat="43.63493" lon="2.31883">
        <ele>193.9</ele>
        <time>2025-09-30T12:47:12.427Z</time>
      </trkpt>
      <trkpt lat="43.63489" lon="2.31878">
        <ele>193.6</ele>
        <time>2025-09-30T12:47:12.824Z</time>
      </trkpt>
      <trkpt lat="43.63485" lon="2.31871">
        <ele>193.1</ele>
        <time>2025-09-30T12:47:13.266Z</time>
      </trkpt>
      <trkpt lat="43.63484" lon="2.31869">
        <ele>193</ele>
        <time>2025-09-30T12:47:13.394Z</time>
        <extensions>
          <visugpx:TrkExtension xmlns:visugpx="https://www.visugpx.com/editgpx/">
            <visugpx:node>41</visugpx:node>
            </visugpx:TrkExtension>
        </extensions>
      </trkpt>
      <trkpt lat="43.6348" lon="2.31863">
        <ele>192.6</ele>
        <time>2025-09-30T12:47:13.799Z</time>
        <extensions>
          <visugpx:TrkExtension xmlns:visugpx="https://www.visugpx.com/editgpx/">
            <visugpx:node>42</visugpx:node>
            </visugpx:TrkExtension>
        </extensions>
      </trkpt>
      <trkpt lat="43.63448" lon="2.31837">
        <ele>192.3</ele>
        <time>2025-09-30T12:47:17.732Z</time>
      </trkpt>
      <trkpt lat="43.63395" lon="2.318">
        <ele>193.4</ele>
        <time>2025-09-30T12:47:25.908Z</time>
      </trkpt>
      <trkpt lat="43.63385" lon="2.31792">
        <ele>193.7</ele>
        <time>2025-09-30T12:47:27.633Z</time>
      </trkpt>
      <trkpt lat="43.63383" lon="2.31791">
        <ele>194</ele>
        <time>2025-09-30T12:47:28.674Z</time>
      </trkpt>
      <trkpt lat="43.63369" lon="2.31782">
        <ele>196.4</ele>
        <time>2025-09-30T12:47:36.231Z</time>
      </trkpt>
      <trkpt lat="43.63365" lon="2.31779">
        <ele>197.2</ele>
        <time>2025-09-30T12:47:38.459Z</time>
      </trkpt>
      <trkpt lat="43.63351" lon="2.31789">
        <ele>201.9</ele>
        <time>2025-09-30T12:47:46.172Z</time>
      </trkpt>
      <trkpt lat="43.63334" lon="2.31819">
        <ele>207.3</ele>
        <time>2025-09-30T12:47:59.667Z</time>
      </trkpt>
      <trkpt lat="43.63294" lon="2.31878">
        <ele>216.7</ele>
        <time>2025-09-30T12:48:28.302Z</time>
      </trkpt>
      <trkpt lat="43.63239" lon="2.31987">
        <ele>231.6</ele>
        <time>2025-09-30T12:49:15.369Z</time>
      </trkpt>
      <trkpt lat="43.63216" lon="2.32038">
        <ele>238.6</ele>
        <time>2025-09-30T12:49:36.653Z</time>
      </trkpt>
      <trkpt lat="43.63203" lon="2.32071">
        <ele>243.5</ele>
        <time>2025-09-30T12:49:49.962Z</time>
      </trkpt>
      <trkpt lat="43.63196" lon="2.32082">
        <ele>246.4</ele>
        <time>2025-09-30T12:49:55.150Z</time>
      </trkpt>
      <trkpt lat="43.63192" lon="2.32084">
        <ele>248.3</ele>
        <time>2025-09-30T12:49:57.232Z</time>
      </trkpt>
      <trkpt lat="43.63187" lon="2.32084">
        <ele>250.6</ele>
        <time>2025-09-30T12:49:59.679Z</time>
      </trkpt>
      <trkpt lat="43.63184" lon="2.32079">
        <ele>252.1</ele>
        <time>2025-09-30T12:50:01.980Z</time>
      </trkpt>
      <trkpt lat="43.63182" lon="2.32071">
        <ele>253.4</ele>
        <time>2025-09-30T12:50:04.978Z</time>
      </trkpt>
      <trkpt lat="43.63182" lon="2.32056">
        <ele>254.1</ele>
        <time>2025-09-30T12:50:07.592Z</time>
      </trkpt>
      <trkpt lat="43.63185" lon="2.3204">
        <ele>254.5</ele>
        <time>2025-09-30T12:50:09.539Z</time>
      </trkpt>
      <trkpt lat="43.63186" lon="2.32014">
        <ele>258.8</ele>
        <time>2025-09-30T12:50:18.761Z</time>
      </trkpt>
      <trkpt lat="43.63192" lon="2.31962">
        <ele>262.9</ele>
        <time>2025-09-30T12:50:34.753Z</time>
      </trkpt>
      <trkpt lat="43.63191" lon="2.31932">
        <ele>268.1</ele>
        <time>2025-09-30T12:50:45.391Z</time>
      </trkpt>
      <trkpt lat="43.6319" lon="2.31903">
        <ele>275.6</ele>
        <time>2025-09-30T12:50:55.675Z</time>
      </trkpt>
      <trkpt lat="43.63205" lon="2.31839">
        <ele>284.5</ele>
        <time>2025-09-30T12:51:19.504Z</time>
      </trkpt>
      <trkpt lat="43.63205" lon="2.318">
        <ele>288.8</ele>
        <time>2025-09-30T12:51:33.319Z</time>
      </trkpt>
      <trkpt lat="43.63173" lon="2.31728">
        <ele>300.4</ele>
        <time>2025-09-30T12:52:03.247Z</time>
      </trkpt>
      <trkpt lat="43.63136" lon="2.31687">
        <ele>309.4</ele>
        <time>2025-09-30T12:52:26.459Z</time>
      </trkpt>
      <trkpt lat="43.63105" lon="2.31674">
        <ele>320.5</ele>
        <time>2025-09-30T12:52:42.314Z</time>
      </trkpt>
      <trkpt lat="43.63078" lon="2.31624">
        <ele>326.7</ele>
        <time>2025-09-30T12:53:04.411Z</time>
      </trkpt>
      <trkpt lat="43.63067" lon="2.31616">
        <ele>329.9</ele>
        <time>2025-09-30T12:53:10.495Z</time>
      </trkpt>
      <trkpt lat="43.6305" lon="2.3162">
        <ele>332.6</ele>
        <time>2025-09-30T12:53:18.935Z</time>
      </trkpt>
      <trkpt lat="43.63043" lon="2.31629">
        <ele>332.4</ele>
        <time>2025-09-30T12:53:19.841Z</time>
      </trkpt>
      <trkpt lat="43.63041" lon="2.31637">
        <ele>333.2</ele>
        <time>2025-09-30T12:53:22.829Z</time>
      </trkpt>
      <trkpt lat="43.63006" lon="2.31682">
        <ele>331.5</ele>
        <time>2025-09-30T12:53:26.869Z</time>
      </trkpt>
      <trkpt lat="43.62976" lon="2.31722">
        <ele>326.7</ele>
        <time>2025-09-30T12:53:29.726Z</time>
      </trkpt>
      <trkpt lat="43.62961" lon="2.31751">
        <ele>329.8</ele>
        <time>2025-09-30T12:53:41.772Z</time>
      </trkpt>
      <trkpt lat="43.62938" lon="2.31745">
        <ele>327.6</ele>
        <time>2025-09-30T12:53:43.375Z</time>
      </trkpt>
      <trkpt lat="43.62927" lon="2.31722">
        <ele>327.8</ele>
        <time>2025-09-30T12:53:45.890Z</time>
      </trkpt>
      <trkpt lat="43.62905" lon="2.31686">
        <ele>330.5</ele>
        <time>2025-09-30T12:53:55.917Z</time>
      </trkpt>
      <trkpt lat="43.62888" lon="2.31673">
        <ele>334.7</ele>
        <time>2025-09-30T12:54:05.426Z</time>
      </trkpt>
      <trkpt lat="43.62862" lon="2.31682">
        <ele>335.7</ele>
        <time>2025-09-30T12:54:09.991Z</time>
      </trkpt>
      <trkpt lat="43.6283" lon="2.31715">
        <ele>332.2</ele>
        <time>2025-09-30T12:54:12.727Z</time>
      </trkpt>
      <trkpt lat="43.62801" lon="2.31768">
        <ele>329.2</ele>
        <time>2025-09-30T12:54:16.111Z</time>
      </trkpt>
      <trkpt lat="43.62775" lon="2.3182">
        <ele>329.5</ele>
        <time>2025-09-30T12:54:21.678Z</time>
      </trkpt>
      <trkpt lat="43.62763" lon="2.31833">
        <ele>331.4</ele>
        <time>2025-09-30T12:54:28.973Z</time>
      </trkpt>
      <trkpt lat="43.6276" lon="2.3183">
        <ele>330.8</ele>
        <time>2025-09-30T12:54:29.227Z</time>
        <extensions>
          <visugpx:TrkExtension xmlns:visugpx="https://www.visugpx.com/editgpx/">
            <visugpx:node>43</visugpx:node>
            </visugpx:TrkExtension>
        </extensions>
      </trkpt>
      <trkpt lat="43.62763" lon="2.31833">
        <ele>331.4</ele>
        <time>2025-09-30T12:54:31.039Z</time>
      </trkpt>
      <trkpt lat="43.62775" lon="2.3182">
        <ele>329.5</ele>
        <time>2025-09-30T12:54:32.084Z</time>
      </trkpt>
      <trkpt lat="43.62801" lon="2.31768">
        <ele>329.2</ele>
        <time>2025-09-30T12:54:36.998Z</time>
      </trkpt>
      <trkpt lat="43.6283" lon="2.31715">
        <ele>332.2</ele>
        <time>2025-09-30T12:54:48.260Z</time>
      </trkpt>
      <trkpt lat="43.6285" lon="2.31695">
        <ele>334.7</ele>
        <time>2025-09-30T12:54:57.922Z</time>
        <extensions>
          <visugpx:TrkExtension xmlns:visugpx="https://www.visugpx.com/editgpx/">
            <visugpx:node>44</visugpx:node>
            </visugpx:TrkExtension>
        </extensions>
      </trkpt>
      <trkpt lat="43.6283" lon="2.31715">
        <ele>332.2</ele>
        <time>2025-09-30T12:54:59.613Z</time>
      </trkpt>
      <trkpt lat="43.62801" lon="2.31768">
        <ele>329.2</ele>
        <time>2025-09-30T12:55:02.997Z</time>
      </trkpt>
      <trkpt lat="43.62775" lon="2.3182">
        <ele>329.5</ele>
        <time>2025-09-30T12:55:08.564Z</time>
      </trkpt>
      <trkpt lat="43.62763" lon="2.31833">
        <ele>331.4</ele>
        <time>2025-09-30T12:55:15.859Z</time>
      </trkpt>
      <trkpt lat="43.62745" lon="2.31818">
        <ele>330.3</ele>
        <time>2025-09-30T12:55:17.437Z</time>
      </trkpt>
      <trkpt lat="43.62721" lon="2.31772">
        <ele>330.5</ele>
        <time>2025-09-30T12:55:22.350Z</time>
      </trkpt>
      <trkpt lat="43.62698" lon="2.31743">
        <ele>331.9</ele>
        <time>2025-09-30T12:55:28.171Z</time>
      </trkpt>
      <trkpt lat="43.62668" lon="2.31747">
        <ele>336.1</ele>
        <time>2025-09-30T12:55:42.921Z</time>
      </trkpt>
      <trkpt lat="43.62605" lon="2.31787">
        <ele>339.9</ele>
        <time>2025-09-30T12:55:57.615Z</time>
      </trkpt>
      <trkpt lat="43.62581" lon="2.31787">
        <ele>335.5</ele>
        <time>2025-09-30T12:55:59.259Z</time>
      </trkpt>
      <trkpt lat="43.62555" lon="2.3181">
        <ele>333.1</ele>
        <time>2025-09-30T12:56:01.374Z</time>
      </trkpt>
      <trkpt lat="43.62548" lon="2.31843">
        <ele>333</ele>
        <time>2025-09-30T12:56:04.112Z</time>
      </trkpt>
      <trkpt lat="43.62541" lon="2.31867">
        <ele>332.1</ele>
        <time>2025-09-30T12:56:05.559Z</time>
      </trkpt>
      <trkpt lat="43.62517" lon="2.31877">
        <ele>329.8</ele>
        <time>2025-09-30T12:56:07.276Z</time>
      </trkpt>
      <trkpt lat="43.62501" lon="2.31864">
        <ele>327.5</ele>
        <time>2025-09-30T12:56:08.548Z</time>
      </trkpt>
      <trkpt lat="43.62483" lon="2.31839">
        <ele>328.3</ele>
        <time>2025-09-30T12:56:12.601Z</time>
      </trkpt>
      <trkpt lat="43.62467" lon="2.3181">
        <ele>329.6</ele>
        <time>2025-09-30T12:56:17.809Z</time>
        <extensions>
          <visugpx:TrkExtension xmlns:visugpx="https://www.visugpx.com/editgpx/">
            <visugpx:node>45</visugpx:node>
            </visugpx:TrkExtension>
        </extensions>
      </trkpt>
      <trkpt lat="43.62467" lon="2.3179">
        <ele>328.5</ele>
        <time>2025-09-30T12:56:18.806Z</time>
      </trkpt>
      <trkpt lat="43.6245" lon="2.31778">
        <ele>333.1</ele>
        <time>2025-09-30T12:56:27.836Z</time>
      </trkpt>
      <trkpt lat="43.62405" lon="2.31779">
        <ele>346.2</ele>
        <time>2025-09-30T12:56:49.866Z</time>
      </trkpt>
      <trkpt lat="43.62371" lon="2.31777">
        <ele>356.3</ele>
        <time>2025-09-30T12:57:06.971Z</time>
      </trkpt>
      <trkpt lat="43.62335" lon="2.31773">
        <ele>361.6</ele>
        <time>2025-09-30T12:57:24.189Z</time>
      </trkpt>
      <trkpt lat="43.62336" lon="2.31755">
        <ele>361</ele>
        <time>2025-09-30T12:57:25.255Z</time>
      </trkpt>
      <trkpt lat="43.62343" lon="2.31721">
        <ele>361</ele>
        <time>2025-09-30T12:57:28.168Z</time>
      </trkpt>
      <trkpt lat="43.62348" lon="2.31703">
        <ele>361.4</ele>
        <time>2025-09-30T12:57:30.302Z</time>
      </trkpt>
      <trkpt lat="43.62353" lon="2.31688">
        <ele>361.6</ele>
        <time>2025-09-30T12:57:31.968Z</time>
      </trkpt>
      <trkpt lat="43.62381" lon="2.31623">
        <ele>362.4</ele>
        <time>2025-09-30T12:57:39.177Z</time>
        <extensions>
          <visugpx:TrkExtension xmlns:visugpx="https://www.visugpx.com/editgpx/">
            <visugpx:node>46</visugpx:node>
            </visugpx:TrkExtension>
        </extensions>
      </trkpt>
      <trkpt lat="43.62389" lon="2.31604">
        <ele>363</ele>
        <time>2025-09-30T12:57:41.891Z</time>
      </trkpt>
      <trkpt lat="43.62389" lon="2.31554">
        <ele>361.9</ele>
        <time>2025-09-30T12:57:45.072Z</time>
      </trkpt>
      <trkpt lat="43.62395" lon="2.31501">
        <ele>358.4</ele>
        <time>2025-09-30T12:57:47.733Z</time>
      </trkpt>
      <trkpt lat="43.62417" lon="2.31462">
        <ele>354.9</ele>
        <time>2025-09-30T12:57:50.185Z</time>
      </trkpt>
      <trkpt lat="43.62448" lon="2.31424">
        <ele>351.2</ele>
        <time>2025-09-30T12:57:53.024Z</time>
      </trkpt>
      <trkpt lat="43.62493" lon="2.31413">
        <ele>346.1</ele>
        <time>2025-09-30T12:57:56.155Z</time>
      </trkpt>
      <trkpt lat="43.62566" lon="2.31355">
        <ele>343.3</ele>
        <time>2025-09-30T12:58:03.397Z</time>
      </trkpt>
      <trkpt lat="43.62632" lon="2.31291">
        <ele>342.1</ele>
        <time>2025-09-30T12:58:11.443Z</time>
      </trkpt>
      <trkpt lat="43.62658" lon="2.31242">
        <ele>339.3</ele>
        <time>2025-09-30T12:58:14.513Z</time>
      </trkpt>
      <trkpt lat="43.62705" lon="2.31098">
        <ele>323.7</ele>
        <time>2025-09-30T12:58:22.347Z</time>
        <extensions>
          <visugpx:TrkExtension xmlns:visugpx="https://www.visugpx.com/editgpx/">
            <visugpx:node>47</visugpx:node>
            </visugpx:TrkExtension>
        </extensions>
      </trkpt>
      <trkpt lat="43.62733" lon="2.31034">
        <ele>319.3</ele>
        <time>2025-09-30T12:58:26.056Z</time>
      </trkpt>
      <trkpt lat="43.62743" lon="2.31029">
        <ele>318.5</ele>
        <time>2025-09-30T12:58:26.784Z</time>
      </trkpt>
      <trkpt lat="43.62825" lon="2.31047">
        <ele>299.3</ele>
        <time>2025-09-30T12:58:32.473Z</time>
      </trkpt>
      <trkpt lat="43.62851" lon="2.31026">
        <ele>291</ele>
        <time>2025-09-30T12:58:34.537Z</time>
      </trkpt>
      <trkpt lat="43.62875" lon="2.3095">
        <ele>283.9</ele>
        <time>2025-09-30T12:58:38.649Z</time>
      </trkpt>
      <trkpt lat="43.62897" lon="2.30924">
        <ele>283.1</ele>
        <time>2025-09-30T12:58:41.249Z</time>
      </trkpt>
      <trkpt lat="43.62948" lon="2.30922">
        <ele>279.1</ele>
        <time>2025-09-30T12:58:44.745Z</time>
        <extensions>
          <visugpx:TrkExtension xmlns:visugpx="https://www.visugpx.com/editgpx/">
            <visugpx:node>48</visugpx:node>
            </visugpx:TrkExtension>
        </extensions>
      </trkpt>
      <trkpt lat="43.62948" lon="2.30921">
        <ele>279.2</ele>
        <time>2025-09-30T12:58:45.099Z</time>
      </trkpt>
      <trkpt lat="43.62965" lon="2.30911">
        <ele>279</ele>
        <time>2025-09-30T12:58:47.009Z</time>
      </trkpt>
      <trkpt lat="43.62974" lon="2.30909">
        <ele>278.4</ele>
        <time>2025-09-30T12:58:47.637Z</time>
      </trkpt>
      <trkpt lat="43.63016" lon="2.30908">
        <ele>280.5</ele>
        <time>2025-09-30T12:58:56.004Z</time>
      </trkpt>
      <trkpt lat="43.63043" lon="2.30891">
        <ele>283.5</ele>
        <time>2025-09-30T12:59:07.595Z</time>
      </trkpt>
      <trkpt lat="43.63071" lon="2.30721">
        <ele>281.1</ele>
        <time>2025-09-30T12:59:19.753Z</time>
      </trkpt>
      <trkpt lat="43.63067" lon="2.30691">
        <ele>281.3</ele>
        <time>2025-09-30T12:59:22.508Z</time>
      </trkpt>
      <trkpt lat="43.6304" lon="2.30642">
        <ele>281.7</ele>
        <time>2025-09-30T12:59:28.066Z</time>
      </trkpt>
      <trkpt lat="43.63023" lon="2.30611">
        <ele>283.3</ele>
        <time>2025-09-30T12:59:34.192Z</time>
      </trkpt>
      <trkpt lat="43.63033" lon="2.306">
        <ele>280.6</ele>
        <time>2025-09-30T12:59:35.067Z</time>
      </trkpt>
      <trkpt lat="43.63067" lon="2.30635">
        <ele>275.5</ele>
        <time>2025-09-30T12:59:37.972Z</time>
      </trkpt>
      <trkpt lat="43.63074" lon="2.30627">
        <ele>273.3</ele>
        <time>2025-09-30T12:59:38.595Z</time>
      </trkpt>
      <trkpt lat="43.63067" lon="2.30565">
        <ele>272.1</ele>
        <time>2025-09-30T12:59:42.714Z</time>
      </trkpt>
      <trkpt lat="43.63077" lon="2.30536">
        <ele>242.80921</ele>
        <time>2025-09-30T12:59:44.307Z</time>
      </trkpt>
      <trkpt lat="43.63078" lon="2.30534">
        <ele>242.685008</ele>
        <time>2025-09-30T12:59:44.427Z</time>
      </trkpt>
      <trkpt lat="43.63079" lon="2.30533">
        <ele>242.601389</ele>
        <time>2025-09-30T12:59:44.512Z</time>
      </trkpt>
      <trkpt lat="43.6308" lon="2.30532">
        <ele>242.470958</ele>
        <time>2025-09-30T12:59:44.596Z</time>
      </trkpt>
      <trkpt lat="43.63082" lon="2.3053">
        <ele>242.289289</ele>
        <time>2025-09-30T12:59:44.766Z</time>
      </trkpt>
      <trkpt lat="43.63083" lon="2.30527">
        <ele>242.123587</ele>
        <time>2025-09-30T12:59:44.929Z</time>
      </trkpt>
      <trkpt lat="43.63084" lon="2.30525">
        <ele>241.970204</ele>
        <time>2025-09-30T12:59:45.050Z</time>
      </trkpt>
      <trkpt lat="43.63085" lon="2.30522">
        <ele>241.784855</ele>
        <time>2025-09-30T12:59:45.214Z</time>
      </trkpt>
      <trkpt lat="43.63086" lon="2.30521">
        <ele>241.623739</ele>
        <time>2025-09-30T12:59:45.298Z</time>
      </trkpt>
      <trkpt lat="43.63088" lon="2.30518">
        <ele>241.463018</ele>
        <time>2025-09-30T12:59:45.517Z</time>
      </trkpt>
      <trkpt lat="43.63089" lon="2.30517">
        <ele>241.315923</ele>
        <time>2025-09-30T12:59:45.601Z</time>
      </trkpt>
      <trkpt lat="43.6309" lon="2.30515">
        <ele>241.138582</ele>
        <time>2025-09-30T12:59:45.722Z</time>
      </trkpt>
      <trkpt lat="43.63091" lon="2.30512">
        <ele>240.988609</ele>
        <time>2025-09-30T12:59:45.890Z</time>
      </trkpt>
      <trkpt lat="43.63091" lon="2.3051">
        <ele>240.875431</ele>
        <time>2025-09-30T12:59:45.989Z</time>
      </trkpt>
      <trkpt lat="43.63092" lon="2.30509">
        <ele>240.738369</ele>
        <time>2025-09-30T12:59:46.073Z</time>
      </trkpt>
      <trkpt lat="43.63092" lon="2.30507">
        <ele>240.636186</ele>
        <time>2025-09-30T12:59:46.173Z</time>
      </trkpt>
      <trkpt lat="43.63092" lon="2.30505">
        <ele>240.491927</ele>
        <time>2025-09-30T12:59:46.272Z</time>
      </trkpt>
      <trkpt lat="43.63092" lon="2.30501">
        <ele>240.251353</ele>
        <time>2025-09-30T12:59:46.470Z</time>
      </trkpt>
      <trkpt lat="43.63092" lon="2.30497">
        <ele>240.033092</ele>
        <time>2025-09-30T12:59:46.669Z</time>
      </trkpt>
      <trkpt lat="43.63091" lon="2.30493">
        <ele>239.783651</ele>
        <time>2025-09-30T12:59:46.878Z</time>
      </trkpt>
      <trkpt lat="43.63089" lon="2.30489">
        <ele>239.487676</ele>
        <time>2025-09-30T12:59:47.120Z</time>
      </trkpt>
      <trkpt lat="43.63087" lon="2.30485">
        <ele>239.194515</ele>
        <time>2025-09-30T12:59:47.361Z</time>
      </trkpt>
      <trkpt lat="43.63085" lon="2.30483">
        <ele>238.957957</ele>
        <time>2025-09-30T12:59:47.530Z</time>
      </trkpt>
      <trkpt lat="43.63083" lon="2.30482">
        <ele>238.799715</ele>
        <time>2025-09-30T12:59:47.675Z</time>
      </trkpt>
      <trkpt lat="43.63081" lon="2.30481">
        <ele>238.630869</ele>
        <time>2025-09-30T12:59:47.821Z</time>
      </trkpt>
      <trkpt lat="43.63079" lon="2.3048">
        <ele>238.426701</ele>
        <time>2025-09-30T12:59:47.967Z</time>
      </trkpt>
      <trkpt lat="43.63077" lon="2.30479">
        <ele>238.24051</ele>
        <time>2025-09-30T12:59:48.113Z</time>
      </trkpt>
      <trkpt lat="43.63074" lon="2.30477">
        <ele>237.990404</ele>
        <time>2025-09-30T12:59:48.341Z</time>
      </trkpt>
      <trkpt lat="43.63071" lon="2.30475">
        <ele>237.735989</ele>
        <time>2025-09-30T12:59:48.569Z</time>
      </trkpt>
      <trkpt lat="43.63069" lon="2.30473">
        <ele>237.510304</ele>
        <time>2025-09-30T12:59:48.738Z</time>
      </trkpt>
      <trkpt lat="43.63066" lon="2.30471">
        <ele>237.235488</ele>
        <time>2025-09-30T12:59:48.967Z</time>
      </trkpt>
      <trkpt lat="43.63063" lon="2.30469">
        <ele>236.993981</ele>
        <time>2025-09-30T12:59:49.195Z</time>
      </trkpt>
      <trkpt lat="43.63061" lon="2.30467">
        <ele>236.758195</ele>
        <time>2025-09-30T12:59:49.364Z</time>
      </trkpt>
      <trkpt lat="43.63059" lon="2.30466">
        <ele>236.551827</ele>
        <time>2025-09-30T12:59:49.510Z</time>
      </trkpt>
      <trkpt lat="43.63056" lon="2.30464">
        <ele>236.317842</ele>
        <time>2025-09-30T12:59:49.738Z</time>
      </trkpt>
      <trkpt lat="43.63054" lon="2.30463">
        <ele>236.139075</ele>
        <time>2025-09-30T12:59:49.884Z</time>
      </trkpt>
      <trkpt lat="43.63052" lon="2.30462">
        <ele>235.940559</ele>
        <time>2025-09-30T12:59:50.029Z</time>
      </trkpt>
      <trkpt lat="43.6305" lon="2.30461">
        <ele>235.740322</ele>
        <time>2025-09-30T12:59:50.175Z</time>
      </trkpt>
      <trkpt lat="43.63047" lon="2.30459">
        <ele>235.471046</ele>
        <time>2025-09-30T12:59:50.403Z</time>
      </trkpt>
      <trkpt lat="43.63045" lon="2.30458">
        <ele>235.289318</ele>
        <time>2025-09-30T12:59:50.549Z</time>
      </trkpt>
      <trkpt lat="43.63043" lon="2.30457">
        <ele>235.130349</ele>
        <time>2025-09-30T12:59:50.695Z</time>
      </trkpt>
      <trkpt lat="43.63042" lon="2.30454">
        <ele>234.940405</ele>
        <time>2025-09-30T12:59:50.859Z</time>
      </trkpt>
      <trkpt lat="43.63039" lon="2.30453">
        <ele>234.716278</ele>
        <time>2025-09-30T12:59:51.070Z</time>
      </trkpt>
      <trkpt lat="43.63036" lon="2.30452">
        <ele>234.482512</ele>
        <time>2025-09-30T12:59:51.281Z</time>
      </trkpt>
      <trkpt lat="43.63034" lon="2.30451">
        <ele>234.250777</ele>
        <time>2025-09-30T12:59:51.427Z</time>
      </trkpt>
      <trkpt lat="43.63032" lon="2.30449">
        <ele>234.085782</ele>
        <time>2025-09-30T12:59:51.596Z</time>
      </trkpt>
      <trkpt lat="43.63031" lon="2.30447">
        <ele>233.899692</ele>
        <time>2025-09-30T12:59:51.717Z</time>
      </trkpt>
      <trkpt lat="43.63029" lon="2.30444">
        <ele>233.677708</ele>
        <time>2025-09-30T12:59:51.919Z</time>
      </trkpt>
      <trkpt lat="43.63028" lon="2.30442">
        <ele>233.530613</ele>
        <time>2025-09-30T12:59:52.040Z</time>
      </trkpt>
      <trkpt lat="43.63025" lon="2.30438">
        <ele>233.376576</ele>
        <time>2025-09-30T12:59:52.388Z</time>
      </trkpt>
      <trkpt lat="43.63022" lon="2.30435">
        <ele>233.35739</ele>
        <time>2025-09-30T12:59:52.791Z</time>
      </trkpt>
      <trkpt lat="43.6302" lon="2.30431">
        <ele>233.343993</ele>
        <time>2025-09-30T12:59:53.179Z</time>
      </trkpt>
      <trkpt lat="43.63019" lon="2.30429">
        <ele>233.33413</ele>
        <time>2025-09-30T12:59:53.370Z</time>
      </trkpt>
      <trkpt lat="43.63019" lon="2.30424">
        <ele>233.318846</ele>
        <time>2025-09-30T12:59:53.767Z</time>
      </trkpt>
      <trkpt lat="43.63019" lon="2.3042">
        <ele>233.304899</ele>
        <time>2025-09-30T12:59:54.083Z</time>
      </trkpt>
      <trkpt lat="43.6302" lon="2.30417">
        <ele>233.293307</ele>
        <time>2025-09-30T12:59:54.344Z</time>
      </trkpt>
      <trkpt lat="43.6302" lon="2.30413">
        <ele>233.280488</ele>
        <time>2025-09-30T12:59:54.661Z</time>
      </trkpt>
      <trkpt lat="43.6302" lon="2.30411">
        <ele>233.271945</ele>
        <time>2025-09-30T12:59:54.817Z</time>
      </trkpt>
      <trkpt lat="43.63021" lon="2.30408">
        <ele>233.261238</ele>
        <time>2025-09-30T12:59:55.079Z</time>
      </trkpt>
      <trkpt lat="43.63022" lon="2.30404">
        <ele>233.248684</ele>
        <time>2025-09-30T12:59:55.416Z</time>
      </trkpt>
      <trkpt lat="43.63023" lon="2.30401">
        <ele>233.236832</ele>
        <time>2025-09-30T12:59:55.676Z</time>
      </trkpt>
      <trkpt lat="43.63025" lon="2.30396">
        <ele>233.219323</ele>
        <time>2025-09-30T12:59:56.130Z</time>
      </trkpt>
      <trkpt lat="43.63028" lon="2.30392">
        <ele>233.199905</ele>
        <time>2025-09-30T12:59:56.586Z</time>
      </trkpt>
      <trkpt lat="43.6303" lon="2.30388">
        <ele>233.18316</ele>
        <time>2025-09-30T12:59:56.970Z</time>
      </trkpt>
      <trkpt lat="43.63031" lon="2.30384">
        <ele>233.169492</ele>
        <time>2025-09-30T12:59:57.306Z</time>
      </trkpt>
      <trkpt lat="43.63032" lon="2.30382">
        <ele>233.160584</ele>
        <time>2025-09-30T12:59:57.497Z</time>
      </trkpt>
      <trkpt lat="43.63033" lon="2.30379">
        <ele>233.147398</ele>
        <time>2025-09-30T12:59:57.757Z</time>
      </trkpt>
      <trkpt lat="43.63035" lon="2.30377">
        <ele>233.138105</ele>
        <time>2025-09-30T12:59:58.029Z</time>
      </trkpt>
      <trkpt lat="43.63036" lon="2.30374">
        <ele>233.126361</ele>
        <time>2025-09-30T12:59:58.289Z</time>
      </trkpt>
      <trkpt lat="43.63036" lon="2.30371">
        <ele>233.11674</ele>
        <time>2025-09-30T12:59:58.527Z</time>
      </trkpt>
      <trkpt lat="43.63037" lon="2.30369">
        <ele>233.108109</ele>
        <time>2025-09-30T12:59:58.719Z</time>
      </trkpt>
      <trkpt lat="43.63038" lon="2.30367">
        <ele>233.099641</ele>
        <time>2025-09-30T12:59:58.911Z</time>
      </trkpt>
      <trkpt lat="43.63039" lon="2.30364">
        <ele>233.089246</ele>
        <time>2025-09-30T12:59:59.173Z</time>
      </trkpt>
      <trkpt lat="43.6304" lon="2.30361">
        <ele>233.077833</ele>
        <time>2025-09-30T12:59:59.434Z</time>
      </trkpt>
      <trkpt lat="43.63043" lon="2.30356">
        <ele>233.055416</ele>
        <time>2025-09-30T12:59:59.948Z</time>
      </trkpt>
      <trkpt lat="43.63045" lon="2.30354">
        <ele>233.042759</ele>
        <time>2025-09-30T13:00:00.217Z</time>
      </trkpt>
      <trkpt lat="43.63047" lon="2.30351">
        <ele>233.030732</ele>
        <time>2025-09-30T13:00:00.541Z</time>
      </trkpt>
      <trkpt lat="43.63049" lon="2.30349">
        <ele>233.018251</ele>
        <time>2025-09-30T13:00:00.810Z</time>
      </trkpt>
      <trkpt lat="43.63051" lon="2.30347">
        <ele>233.005402</ele>
        <time>2025-09-30T13:00:01.078Z</time>
      </trkpt>
      <trkpt lat="43.63053" lon="2.30345">
        <ele>232.995792</ele>
        <time>2025-09-30T13:00:01.350Z</time>
      </trkpt>
      <trkpt lat="43.63055" lon="2.30343">
        <ele>232.985637</ele>
        <time>2025-09-30T13:00:01.622Z</time>
      </trkpt>
      <trkpt lat="43.63055" lon="2.3034">
        <ele>232.975353</ele>
        <time>2025-09-30T13:00:01.859Z</time>
      </trkpt>
      <trkpt lat="43.63056" lon="2.30338">
        <ele>232.967864</ele>
        <time>2025-09-30T13:00:02.052Z</time>
      </trkpt>
      <trkpt lat="43.63056" lon="2.30336">
        <ele>232.960731</ele>
        <time>2025-09-30T13:00:02.210Z</time>
      </trkpt>
      <trkpt lat="43.63057" lon="2.30335">
        <ele>232.953533</ele>
        <time>2025-09-30T13:00:02.343Z</time>
      </trkpt>
      <trkpt lat="43.63059" lon="2.30333">
        <ele>232.944055</ele>
        <time>2025-09-30T13:00:02.615Z</time>
      </trkpt>
      <trkpt lat="43.63059" lon="2.3033">
        <ele>232.935424</ele>
        <time>2025-09-30T13:00:02.854Z</time>
      </trkpt>
      <trkpt lat="43.63061" lon="2.30328">
        <ele>232.92395</ele>
        <time>2025-09-30T13:00:03.124Z</time>
      </trkpt>
      <trkpt lat="43.63061" lon="2.30324">
        <ele>232.912403</ele>
        <time>2025-09-30T13:00:03.442Z</time>
      </trkpt>
      <trkpt lat="43.63061" lon="2.30322">
        <ele>232.903195</ele>
        <time>2025-09-30T13:00:03.598Z</time>
      </trkpt>
      <trkpt lat="43.63061" lon="2.30319">
        <ele>232.895778</ele>
        <time>2025-09-30T13:00:03.838Z</time>
      </trkpt>
      <trkpt lat="43.63061" lon="2.30316">
        <ele>232.884307</ele>
        <time>2025-09-30T13:00:04.074Z</time>
      </trkpt>
      <trkpt lat="43.6306" lon="2.30313">
        <ele>232.873764</ele>
        <time>2025-09-30T13:00:04.336Z</time>
      </trkpt>
      <trkpt lat="43.6306" lon="2.30309">
        <ele>232.860616</ele>
        <time>2025-09-30T13:00:04.653Z</time>
      </trkpt>
      <trkpt lat="43.6306" lon="2.30304">
        <ele>232.844663</ele>
        <time>2025-09-30T13:00:05.050Z</time>
      </trkpt>
      <trkpt lat="43.6306" lon="2.303">
        <ele>232.830382</ele>
        <time>2025-09-30T13:00:05.365Z</time>
      </trkpt>
      <trkpt lat="43.63059" lon="2.30297">
        <ele>232.820004</ele>
        <time>2025-09-30T13:00:05.627Z</time>
      </trkpt>
      <trkpt lat="43.63057" lon="2.30292">
        <ele>232.800269</ele>
        <time>2025-09-30T13:00:06.079Z</time>
      </trkpt>
      <trkpt lat="43.63056" lon="2.30286">
        <ele>232.778633</ele>
        <time>2025-09-30T13:00:06.565Z</time>
      </trkpt>
      <trkpt lat="43.63055" lon="2.30279">
        <ele>232.757147</ele>
        <time>2025-09-30T13:00:07.132Z</time>
      </trkpt>
      <trkpt lat="43.63055" lon="2.30274">
        <ele>232.738512</ele>
        <time>2025-09-30T13:00:07.526Z</time>
      </trkpt>
      <trkpt lat="43.63055" lon="2.30269">
        <ele>232.723949</ele>
        <time>2025-09-30T13:00:07.924Z</time>
      </trkpt>
      <trkpt lat="43.63055" lon="2.30262">
        <ele>232.697651</ele>
        <time>2025-09-30T13:00:08.475Z</time>
      </trkpt>
      <trkpt lat="43.63054" lon="2.30256">
        <ele>232.677496</ele>
        <time>2025-09-30T13:00:08.963Z</time>
      </trkpt>
      <trkpt lat="43.63053" lon="2.3025">
        <ele>232.659245</ele>
        <time>2025-09-30T13:00:09.453Z</time>
      </trkpt>
      <trkpt lat="43.63052" lon="2.30244">
        <ele>232.637725</ele>
        <time>2025-09-30T13:00:09.939Z</time>
      </trkpt>
      <trkpt lat="43.63052" lon="2.30238">
        <ele>232.618084</ele>
        <time>2025-09-30T13:00:10.415Z</time>
      </trkpt>
      <trkpt lat="43.63052" lon="2.30231">
        <ele>232.591723</ele>
        <time>2025-09-30T13:00:10.966Z</time>
      </trkpt>
      <trkpt lat="43.63052" lon="2.30224">
        <ele>232.567716</ele>
        <time>2025-09-30T13:00:11.519Z</time>
      </trkpt>
      <trkpt lat="43.63052" lon="2.30215">
        <ele>232.625128</ele>
        <time>2025-09-30T13:00:12.330Z</time>
      </trkpt>
      <trkpt lat="43.63054" lon="2.30208">
        <ele>232.801077</ele>
        <time>2025-09-30T13:00:13.205Z</time>
      </trkpt>
      <trkpt lat="43.63054" lon="2.302">
        <ele>232.995541</ele>
        <time>2025-09-30T13:00:14.148Z</time>
      </trkpt>
      <trkpt lat="43.63056" lon="2.30193">
        <ele>233.157423</ele>
        <time>2025-09-30T13:00:14.997Z</time>
      </trkpt>
      <trkpt lat="43.63057" lon="2.30188">
        <ele>233.291562</ele>
        <time>2025-09-30T13:00:15.625Z</time>
      </trkpt>
      <trkpt lat="43.63059" lon="2.30184">
        <ele>233.417284</ele>
        <time>2025-09-30T13:00:16.213Z</time>
      </trkpt>
      <trkpt lat="43.63061" lon="2.30179">
        <ele>233.556202</ele>
        <time>2025-09-30T13:00:16.887Z</time>
      </trkpt>
      <trkpt lat="43.63063" lon="2.30174">
        <ele>233.67576</ele>
        <time>2025-09-30T13:00:17.525Z</time>
      </trkpt>
      <trkpt lat="43.63065" lon="2.3017">
        <ele>233.797337</ele>
        <time>2025-09-30T13:00:18.105Z</time>
      </trkpt>
      <trkpt lat="43.63066" lon="2.30165">
        <ele>233.938033</ele>
        <time>2025-09-30T13:00:18.746Z</time>
      </trkpt>
      <trkpt lat="43.63067" lon="2.30158">
        <ele>234.095776</ele>
        <time>2025-09-30T13:00:19.559Z</time>
      </trkpt>
      <trkpt lat="43.63067" lon="2.30153">
        <ele>234.218674</ele>
        <time>2025-09-30T13:00:20.151Z</time>
      </trkpt>
      <trkpt lat="43.63068" lon="2.30147">
        <ele>234.373444</ele>
        <time>2025-09-30T13:00:20.887Z</time>
      </trkpt>
      <trkpt lat="43.63068" lon="2.30139">
        <ele>234.55252</ele>
        <time>2025-09-30T13:00:21.802Z</time>
      </trkpt>
      <trkpt lat="43.63068" lon="2.30131">
        <ele>234.740752</ele>
        <time>2025-09-30T13:00:22.734Z</time>
      </trkpt>
      <trkpt lat="43.63068" lon="2.30123">
        <ele>234.939086</ele>
        <time>2025-09-30T13:00:23.685Z</time>
      </trkpt>
      <trkpt lat="43.63069" lon="2.30115">
        <ele>235.13876</ele>
        <time>2025-09-30T13:00:24.647Z</time>
      </trkpt>
      <trkpt lat="43.63069" lon="2.30106">
        <ele>235.351124</ele>
        <time>2025-09-30T13:00:25.697Z</time>
      </trkpt>
      <trkpt lat="43.6307" lon="2.30098">
        <ele>235.554082</ele>
        <time>2025-09-30T13:00:26.665Z</time>
      </trkpt>
      <trkpt lat="43.63069" lon="2.3009">
        <ele>235.741805</ele>
        <time>2025-09-30T13:00:27.605Z</time>
      </trkpt>
      <trkpt lat="43.63068" lon="2.30083">
        <ele>235.922365</ele>
        <time>2025-09-30T13:00:28.460Z</time>
      </trkpt>
      <trkpt lat="43.63067" lon="2.30075">
        <ele>236.109402</ele>
        <time>2025-09-30T13:00:29.398Z</time>
      </trkpt>
      <trkpt lat="43.63066" lon="2.30067">
        <ele>236.297125</ele>
        <time>2025-09-30T13:00:30.338Z</time>
      </trkpt>
      <trkpt lat="43.63065" lon="2.30059">
        <ele>236.501232</ele>
        <time>2025-09-30T13:00:31.309Z</time>
      </trkpt>
      <trkpt lat="43.63063" lon="2.30051">
        <ele>236.721518</ele>
        <time>2025-09-30T13:00:32.335Z</time>
      </trkpt>
      <trkpt lat="43.6306" lon="2.3004">
        <ele>236.976052</ele>
        <time>2025-09-30T13:00:33.664Z</time>
      </trkpt>
      <trkpt lat="43.63059" lon="2.3003">
        <ele>237.237349</ele>
        <time>2025-09-30T13:00:34.886Z</time>
      </trkpt>
      <trkpt lat="43.63057" lon="2.30019">
        <ele>237.497033</ele>
        <time>2025-09-30T13:00:36.194Z</time>
      </trkpt>
      <trkpt lat="43.63054" lon="2.30008">
        <ele>237.780703</ele>
        <time>2025-09-30T13:00:37.577Z</time>
      </trkpt>
      <trkpt lat="43.63052" lon="2.3">
        <ele>237.995166</ele>
        <time>2025-09-30T13:00:38.592Z</time>
      </trkpt>
      <trkpt lat="43.63049" lon="2.29992">
        <ele>238.20569</ele>
        <time>2025-09-30T13:00:39.639Z</time>
      </trkpt>
      <trkpt lat="43.63046" lon="2.29985">
        <ele>238.401673</ele>
        <time>2025-09-30T13:00:40.595Z</time>
      </trkpt>
      <trkpt lat="43.63042" lon="2.29978">
        <ele>238.582993</ele>
        <time>2025-09-30T13:00:41.582Z</time>
      </trkpt>
      <trkpt lat="43.63037" lon="2.29971">
        <ele>238.682572</ele>
        <time>2025-09-30T13:00:42.517Z</time>
      </trkpt>
      <trkpt lat="43.63033" lon="2.29964">
        <ele>238.784313</ele>
        <time>2025-09-30T13:00:43.380Z</time>
      </trkpt>
      <trkpt lat="43.63027" lon="2.29957">
        <ele>238.892938</ele>
        <time>2025-09-30T13:00:44.409Z</time>
      </trkpt>
      <trkpt lat="43.63021" lon="2.29953">
        <ele>238.980668</ele>
        <time>2025-09-30T13:00:45.276Z</time>
      </trkpt>
      <trkpt lat="43.63015" lon="2.29949">
        <ele>239.087011</ele>
        <time>2025-09-30T13:00:46.168Z</time>
      </trkpt>
      <trkpt lat="43.63009" lon="2.29947">
        <ele>239.173712</ele>
        <time>2025-09-30T13:00:46.979Z</time>
      </trkpt>
      <trkpt lat="43.63003" lon="2.29945">
        <ele>239.264367</ele>
        <time>2025-09-30T13:00:47.795Z</time>
      </trkpt>
      <trkpt lat="43.62997" lon="2.29944">
        <ele>239.352958</ele>
        <time>2025-09-30T13:00:48.594Z</time>
      </trkpt>
      <trkpt lat="43.62991" lon="2.29943">
        <ele>239.442144</ele>
        <time>2025-09-30T13:00:49.393Z</time>
      </trkpt>
      <trkpt lat="43.62985" lon="2.29943">
        <ele>239.530586</ele>
        <time>2025-09-30T13:00:50.187Z</time>
      </trkpt>
      <trkpt lat="43.62979" lon="2.29943">
        <ele>239.605981</ele>
        <time>2025-09-30T13:00:50.963Z</time>
      </trkpt>
      <trkpt lat="43.62975" lon="2.29943">
        <ele>239.674152</ele>
        <time>2025-09-30T13:00:51.505Z</time>
      </trkpt>
      <trkpt lat="43.62969" lon="2.29942">
        <ele>239.761296</ele>
        <time>2025-09-30T13:00:52.302Z</time>
      </trkpt>
      <trkpt lat="43.62964" lon="2.29942">
        <ele>239.828281</ele>
        <time>2025-09-30T13:00:52.954Z</time>
      </trkpt>
      <trkpt lat="43.62959" lon="2.2994">
        <ele>239.897887</ele>
        <time>2025-09-30T13:00:53.633Z</time>
      </trkpt>
      <trkpt lat="43.62955" lon="2.29937">
        <ele>239.970787</ele>
        <time>2025-09-30T13:00:54.243Z</time>
      </trkpt>
      <trkpt lat="43.62951" lon="2.29933">
        <ele>240.043572</ele>
        <time>2025-09-30T13:00:54.896Z</time>
      </trkpt>
      <trkpt lat="43.62947" lon="2.29928">
        <ele>240.111833</ele>
        <time>2025-09-30T13:00:55.594Z</time>
      </trkpt>
      <trkpt lat="43.62945" lon="2.29925">
        <ele>240.165199</ele>
        <time>2025-09-30T13:00:55.999Z</time>
      </trkpt>
      <trkpt lat="43.62942" lon="2.29921">
        <ele>240.218806</ele>
        <time>2025-09-30T13:00:56.540Z</time>
      </trkpt>
      <trkpt lat="43.62941" lon="2.29918">
        <ele>240.261432</ele>
        <time>2025-09-30T13:00:56.866Z</time>
      </trkpt>
      <trkpt lat="43.62939" lon="2.29916">
        <ele>240.291654</ele>
        <time>2025-09-30T13:00:57.185Z</time>
      </trkpt>
      <trkpt lat="43.62937" lon="2.29914">
        <ele>240.323649</ele>
        <time>2025-09-30T13:00:57.505Z</time>
      </trkpt>
      <trkpt lat="43.62936" lon="2.29912">
        <ele>240.350494</ele>
        <time>2025-09-30T13:00:57.739Z</time>
      </trkpt>
      <trkpt lat="43.62933" lon="2.29912">
        <ele>240.389988</ele>
        <time>2025-09-30T13:00:58.130Z</time>
      </trkpt>
      <trkpt lat="43.62931" lon="2.29912">
        <ele>240.423349</ele>
        <time>2025-09-30T13:00:58.400Z</time>
      </trkpt>
      <trkpt lat="43.62929" lon="2.29912">
        <ele>240.457734</ele>
        <time>2025-09-30T13:00:58.671Z</time>
      </trkpt>
      <trkpt lat="43.62926" lon="2.29913">
        <ele>240.492691</ele>
        <time>2025-09-30T13:00:59.065Z</time>
      </trkpt>
      <trkpt lat="43.62924" lon="2.29916">
        <ele>240.538677</ele>
        <time>2025-09-30T13:00:59.459Z</time>
      </trkpt>
      <trkpt lat="43.62921" lon="2.29919">
        <ele>240.587122</ele>
        <time>2025-09-30T13:00:59.941Z</time>
      </trkpt>
      <trkpt lat="43.62918" lon="2.29921">
        <ele>240.641399</ele>
        <time>2025-09-30T13:01:00.389Z</time>
      </trkpt>
      <trkpt lat="43.62915" lon="2.29924">
        <ele>240.690343</ele>
        <time>2025-09-30T13:01:00.871Z</time>
      </trkpt>
      <trkpt lat="43.62912" lon="2.29927">
        <ele>240.744656</ele>
        <time>2025-09-30T13:01:01.360Z</time>
      </trkpt>
      <trkpt lat="43.62909" lon="2.2993">
        <ele>240.799527</ele>
        <time>2025-09-30T13:01:01.851Z</time>
      </trkpt>
      <trkpt lat="43.62906" lon="2.29933">
        <ele>240.858586</ele>
        <time>2025-09-30T13:01:02.347Z</time>
      </trkpt>
      <trkpt lat="43.62903" lon="2.29937">
        <ele>240.914181</ele>
        <time>2025-09-30T13:01:02.890Z</time>
      </trkpt>
      <trkpt lat="43.629" lon="2.2994">
        <ele>240.961504</ele>
        <time>2025-09-30T13:01:03.370Z</time>
      </trkpt>
      <trkpt lat="43.62899" lon="2.29943">
        <ele>240.997221</ele>
        <time>2025-09-30T13:01:03.687Z</time>
      </trkpt>
      <trkpt lat="43.62897" lon="2.29945">
        <ele>241.032937</ele>
        <time>2025-09-30T13:01:04.013Z</time>
      </trkpt>
      <trkpt lat="43.62896" lon="2.29947">
        <ele>241.066337</ele>
        <time>2025-09-30T13:01:04.256Z</time>
      </trkpt>
      <trkpt lat="43.62893" lon="2.29952">
        <ele>241.134741</ele>
        <time>2025-09-30T13:01:04.877Z</time>
      </trkpt>
      <trkpt lat="43.62892" lon="2.29953">
        <ele>241.151104</ele>
        <time>2025-09-30T13:01:05.038Z</time>
      </trkpt>
      <trkpt lat="43.62891" lon="2.29956">
        <ele>241.172685</ele>
        <time>2025-09-30T13:01:05.336Z</time>
      </trkpt>
      <trkpt lat="43.62889" lon="2.29959">
        <ele>241.200851</ele>
        <time>2025-09-30T13:01:05.706Z</time>
      </trkpt>
      <trkpt lat="43.62887" lon="2.29963">
        <ele>241.234623</ele>
        <time>2025-09-30T13:01:06.147Z</time>
      </trkpt>
      <trkpt lat="43.62884" lon="2.29967">
        <ele>241.271093</ele>
        <time>2025-09-30T13:01:06.666Z</time>
      </trkpt>
      <trkpt lat="43.62882" lon="2.29972">
        <ele>241.310954</ele>
        <time>2025-09-30T13:01:07.185Z</time>
      </trkpt>
      <trkpt lat="43.6288" lon="2.29976">
        <ele>241.342368</ele>
        <time>2025-09-30T13:01:07.624Z</time>
      </trkpt>
      <trkpt lat="43.62878" lon="2.2998">
        <ele>241.379738</ele>
        <time>2025-09-30T13:01:08.070Z</time>
      </trkpt>
      <trkpt lat="43.62875" lon="2.29983">
        <ele>241.413771</ele>
        <time>2025-09-30T13:01:08.533Z</time>
      </trkpt>
      <trkpt lat="43.62872" lon="2.29986">
        <ele>241.446627</ele>
        <time>2025-09-30T13:01:08.994Z</time>
      </trkpt>
      <trkpt lat="43.6287" lon="2.29988">
        <ele>241.476972</ele>
        <time>2025-09-30T13:01:09.312Z</time>
      </trkpt>
      <trkpt lat="43.62866" lon="2.2999">
        <ele>241.510313</ele>
        <time>2025-09-30T13:01:09.837Z</time>
      </trkpt>
      <trkpt lat="43.62863" lon="2.29992">
        <ele>241.542221</ele>
        <time>2025-09-30T13:01:10.254Z</time>
      </trkpt>
      <trkpt lat="43.6286" lon="2.29995">
        <ele>241.580448</ele>
        <time>2025-09-30T13:01:10.722Z</time>
      </trkpt>
      <trkpt lat="43.62856" lon="2.29998">
        <ele>241.621782</ele>
        <time>2025-09-30T13:01:11.291Z</time>
      </trkpt>
      <trkpt lat="43.62853" lon="2.30002">
        <ele>241.659959</ele>
        <time>2025-09-30T13:01:11.811Z</time>
      </trkpt>
      <trkpt lat="43.6285" lon="2.30004">
        <ele>241.689602</ele>
        <time>2025-09-30T13:01:12.226Z</time>
      </trkpt>
      <trkpt lat="43.62848" lon="2.30006">
        <ele>241.714422</ele>
        <time>2025-09-30T13:01:12.538Z</time>
      </trkpt>
      <trkpt lat="43.62847" lon="2.30008">
        <ele>241.73638</ele>
        <time>2025-09-30T13:01:12.765Z</time>
      </trkpt>
      <trkpt lat="43.62846" lon="2.30011">
        <ele>241.759823</ele>
        <time>2025-09-30T13:01:13.065Z</time>
      </trkpt>
      <trkpt lat="43.62845" lon="2.30014">
        <ele>241.78231</ele>
        <time>2025-09-30T13:01:13.365Z</time>
      </trkpt>
      <trkpt lat="43.62844" lon="2.30018">
        <ele>241.811047</ele>
        <time>2025-09-30T13:01:13.748Z</time>
      </trkpt>
      <trkpt lat="43.62843" lon="2.30021">
        <ele>241.834954</ele>
        <time>2025-09-30T13:01:14.049Z</time>
      </trkpt>
      <trkpt lat="43.62843" lon="2.30024">
        <ele>241.853251</ele>
        <time>2025-09-30T13:01:14.319Z</time>
      </trkpt>
      <trkpt lat="43.62842" lon="2.30027">
        <ele>241.876282</ele>
        <time>2025-09-30T13:01:14.619Z</time>
      </trkpt>
      <trkpt lat="43.62842" lon="2.3003">
        <ele>241.899845</ele>
        <time>2025-09-30T13:01:14.895Z</time>
      </trkpt>
      <trkpt lat="43.62841" lon="2.30034">
        <ele>241.925634</ele>
        <time>2025-09-30T13:01:15.275Z</time>
      </trkpt>
      <trkpt lat="43.6284" lon="2.30037">
        <ele>241.952452</ele>
        <time>2025-09-30T13:01:15.579Z</time>
      </trkpt>
      <trkpt lat="43.62838" lon="2.30041">
        <ele>241.984099</ele>
        <time>2025-09-30T13:01:16.018Z</time>
      </trkpt>
      <trkpt lat="43.62836" lon="2.30045">
        <ele>242.016652</ele>
        <time>2025-09-30T13:01:16.458Z</time>
      </trkpt>
      <trkpt lat="43.62834" lon="2.30048">
        <ele>242.044256</ele>
        <time>2025-09-30T13:01:16.828Z</time>
      </trkpt>
      <trkpt lat="43.62833" lon="2.30052">
        <ele>242.07567</ele>
        <time>2025-09-30T13:01:17.215Z</time>
      </trkpt>
      <trkpt lat="43.62831" lon="2.30056">
        <ele>242.106522</ele>
        <time>2025-09-30T13:01:17.652Z</time>
      </trkpt>
      <trkpt lat="43.62829" lon="2.3006">
        <ele>242.141408</ele>
        <time>2025-09-30T13:01:18.095Z</time>
      </trkpt>
      <trkpt lat="43.62828" lon="2.30064">
        <ele>242.170392</ele>
        <time>2025-09-30T13:01:18.479Z</time>
      </trkpt>
      <trkpt lat="43.62826" lon="2.30067">
        <ele>242.197897</ele>
        <time>2025-09-30T13:01:18.849Z</time>
      </trkpt>
      <trkpt lat="43.62824" lon="2.30071">
        <ele>242.231054</ele>
        <time>2025-09-30T13:01:19.289Z</time>
      </trkpt>
      <trkpt lat="43.62821" lon="2.30075">
        <ele>242.269205</ele>
        <time>2025-09-30T13:01:19.810Z</time>
      </trkpt>
      <trkpt lat="43.62819" lon="2.3008">
        <ele>242.308547</ele>
        <time>2025-09-30T13:01:20.328Z</time>
      </trkpt>
      <trkpt lat="43.62818" lon="2.30085">
        <ele>242.345141</ele>
        <time>2025-09-30T13:01:20.800Z</time>
      </trkpt>
      <trkpt lat="43.62816" lon="2.3009">
        <ele>242.386097</ele>
        <time>2025-09-30T13:01:21.321Z</time>
      </trkpt>
      <trkpt lat="43.62814" lon="2.30095">
        <ele>242.426011</ele>
        <time>2025-09-30T13:01:21.840Z</time>
      </trkpt>
      <trkpt lat="43.62813" lon="2.301">
        <ele>242.460119</ele>
        <time>2025-09-30T13:01:22.308Z</time>
      </trkpt>
      <trkpt lat="43.62812" lon="2.30104">
        <ele>242.493798</ele>
        <time>2025-09-30T13:01:22.698Z</time>
      </trkpt>
      <trkpt lat="43.6281" lon="2.30109">
        <ele>242.526664</ele>
        <time>2025-09-30T13:01:23.208Z</time>
      </trkpt>
      <trkpt lat="43.62809" lon="2.30113">
        <ele>242.559718</ele>
        <time>2025-09-30T13:01:23.597Z</time>
      </trkpt>
      <trkpt lat="43.62807" lon="2.30116">
        <ele>242.588917</ele>
        <time>2025-09-30T13:01:23.969Z</time>
      </trkpt>
      <trkpt lat="43.62805" lon="2.3012">
        <ele>242.615901</ele>
        <time>2025-09-30T13:01:24.402Z</time>
      </trkpt>
      <trkpt lat="43.62803" lon="2.30123">
        <ele>242.646239</ele>
        <time>2025-09-30T13:01:24.775Z</time>
      </trkpt>
      <trkpt lat="43.62801" lon="2.30126">
        <ele>242.678974</ele>
        <time>2025-09-30T13:01:25.151Z</time>
      </trkpt>
      <trkpt lat="43.62799" lon="2.3013">
        <ele>242.71267</ele>
        <time>2025-09-30T13:01:25.592Z</time>
      </trkpt>
      <trkpt lat="43.62796" lon="2.30134">
        <ele>242.748045</ele>
        <time>2025-09-30T13:01:26.110Z</time>
      </trkpt>
      <trkpt lat="43.62794" lon="2.30138">
        <ele>242.78027</ele>
        <time>2025-09-30T13:01:26.549Z</time>
      </trkpt>
      <trkpt lat="43.62792" lon="2.30142">
        <ele>242.813982</ele>
        <time>2025-09-30T13:01:26.991Z</time>
      </trkpt>
      <trkpt lat="43.62791" lon="2.30146">
        <ele>242.844564</ele>
        <time>2025-09-30T13:01:27.376Z</time>
      </trkpt>
      <trkpt lat="43.62789" lon="2.3015">
        <ele>242.866962</ele>
        <time>2025-09-30T13:01:27.804Z</time>
      </trkpt>
      <trkpt lat="43.62788" lon="2.30154">
        <ele>242.754914</ele>
        <time>2025-09-30T13:01:28.061Z</time>
      </trkpt>
      <trkpt lat="43.62786" lon="2.30157">
        <ele>242.662286</ele>
        <time>2025-09-30T13:01:28.318Z</time>
      </trkpt>
      <trkpt lat="43.62786" lon="2.30161">
        <ele>242.567167</ele>
        <time>2025-09-30T13:01:28.568Z</time>
      </trkpt>
      <trkpt lat="43.62786" lon="2.30164">
        <ele>242.477626</ele>
        <time>2025-09-30T13:01:28.744Z</time>
      </trkpt>
      <trkpt lat="43.62785" lon="2.30168">
        <ele>242.394405</ele>
        <time>2025-09-30T13:01:29.020Z</time>
      </trkpt>
      <trkpt lat="43.62785" lon="2.30171">
        <ele>242.311258</ele>
        <time>2025-09-30T13:01:29.200Z</time>
      </trkpt>
      <trkpt lat="43.62784" lon="2.30173">
        <ele>242.245146</ele>
        <time>2025-09-30T13:01:29.346Z</time>
      </trkpt>
      <trkpt lat="43.62784" lon="2.30176">
        <ele>242.184569</ele>
        <time>2025-09-30T13:01:29.541Z</time>
      </trkpt>
      <trkpt lat="43.62782" lon="2.30184">
        <ele>241.50915</ele>
        <time>2025-09-30T13:01:29.961Z</time>
      </trkpt>
      <trkpt lat="43.6278" lon="2.30188">
        <ele>241.400335</ele>
        <time>2025-09-30T13:01:30.269Z</time>
      </trkpt>
      <trkpt lat="43.62778" lon="2.30191">
        <ele>241.28817</ele>
        <time>2025-09-30T13:01:30.514Z</time>
      </trkpt>
      <trkpt lat="43.62776" lon="2.30194">
        <ele>241.182692</ele>
        <time>2025-09-30T13:01:30.763Z</time>
      </trkpt>
      <trkpt lat="43.62775" lon="2.30198">
        <ele>241.085958</ele>
        <time>2025-09-30T13:01:31.030Z</time>
      </trkpt>
      <trkpt lat="43.62773" lon="2.30201">
        <ele>240.991135</ele>
        <time>2025-09-30T13:01:31.286Z</time>
      </trkpt>
      <trkpt lat="43.62772" lon="2.30204">
        <ele>240.902482</ele>
        <time>2025-09-30T13:01:31.486Z</time>
      </trkpt>
      <trkpt lat="43.6277" lon="2.30206">
        <ele>240.819481</ele>
        <time>2025-09-30T13:01:31.697Z</time>
      </trkpt>
      <trkpt lat="43.62768" lon="2.30209">
        <ele>240.724021</ele>
        <time>2025-09-30T13:01:31.953Z</time>
      </trkpt>
      <trkpt lat="43.62766" lon="2.30211">
        <ele>240.630637</ele>
        <time>2025-09-30T13:01:32.158Z</time>
      </trkpt>
      <trkpt lat="43.62764" lon="2.30213">
        <ele>240.540142</ele>
        <time>2025-09-30T13:01:32.365Z</time>
      </trkpt>
      <trkpt lat="43.62762" lon="2.30215">
        <ele>240.46851</ele>
        <time>2025-09-30T13:01:32.584Z</time>
      </trkpt>
      <trkpt lat="43.6276" lon="2.30217">
        <ele>240.3849</ele>
        <time>2025-09-30T13:01:32.796Z</time>
      </trkpt>
      <trkpt lat="43.62759" lon="2.30219">
        <ele>240.307332</ele>
        <time>2025-09-30T13:01:32.935Z</time>
      </trkpt>
      <trkpt lat="43.62756" lon="2.30222">
        <ele>240.209768</ele>
        <time>2025-09-30T13:01:33.271Z</time>
      </trkpt>
      <trkpt lat="43.62754" lon="2.30223">
        <ele>240.139903</ele>
        <time>2025-09-30T13:01:33.455Z</time>
      </trkpt>
      <trkpt lat="43.62752" lon="2.30224">
        <ele>240.068117</ele>
        <time>2025-09-30T13:01:33.637Z</time>
      </trkpt>
      <trkpt lat="43.6275" lon="2.30225">
        <ele>239.981754</ele>
        <time>2025-09-30T13:01:33.810Z</time>
      </trkpt>
      <trkpt lat="43.62748" lon="2.30226">
        <ele>239.910966</ele>
        <time>2025-09-30T13:01:33.993Z</time>
      </trkpt>
      <trkpt lat="43.62747" lon="2.30228">
        <ele>239.85012</ele>
        <time>2025-09-30T13:01:34.143Z</time>
      </trkpt>
      <trkpt lat="43.62744" lon="2.30229">
        <ele>239.759288</ele>
        <time>2025-09-30T13:01:34.416Z</time>
      </trkpt>
      <trkpt lat="43.62743" lon="2.30231">
        <ele>239.684093</ele>
        <time>2025-09-30T13:01:34.557Z</time>
      </trkpt>
      <trkpt lat="43.6274" lon="2.30232">
        <ele>239.596697</ele>
        <time>2025-09-30T13:01:34.833Z</time>
      </trkpt>
      <trkpt lat="43.62738" lon="2.30234">
        <ele>239.516101</ele>
        <time>2025-09-30T13:01:35.046Z</time>
      </trkpt>
      <trkpt lat="43.62736" lon="2.30236">
        <ele>239.440905</ele>
        <time>2025-09-30T13:01:35.263Z</time>
      </trkpt>
      <trkpt lat="43.62735" lon="2.30237">
        <ele>239.369119</ele>
        <time>2025-09-30T13:01:35.352Z</time>
      </trkpt>
      <trkpt lat="43.62732" lon="2.30238">
        <ele>239.28762</ele>
        <time>2025-09-30T13:01:35.632Z</time>
      </trkpt>
      <trkpt lat="43.6273" lon="2.30239">
        <ele>239.20223</ele>
        <time>2025-09-30T13:01:35.806Z</time>
      </trkpt>
      <trkpt lat="43.62728" lon="2.30241">
        <ele>239.12577</ele>
        <time>2025-09-30T13:01:36.022Z</time>
      </trkpt>
      <trkpt lat="43.62726" lon="2.30242">
        <ele>239.036137</ele>
        <time>2025-09-30T13:01:36.193Z</time>
      </trkpt>
      <trkpt lat="43.62724" lon="2.30244">
        <ele>238.958354</ele>
        <time>2025-09-30T13:01:36.408Z</time>
      </trkpt>
      <trkpt lat="43.62722" lon="2.30246">
        <ele>238.893235</ele>
        <time>2025-09-30T13:01:36.632Z</time>
      </trkpt>
      <trkpt lat="43.62721" lon="2.30246">
        <ele>238.85162</ele>
        <time>2025-09-30T13:01:36.713Z</time>
      </trkpt>
      <trkpt lat="43.6272" lon="2.30247">
        <ele>238.798599</ele>
        <time>2025-09-30T13:01:36.812Z</time>
        <extensions>
          <visugpx:TrkExtension xmlns:visugpx="https://www.visugpx.com/editgpx/">
            <visugpx:node>49</visugpx:node>
            </visugpx:TrkExtension>
        </extensions>
      </trkpt>
      <trkpt lat="43.62681" lon="2.30225">
        <ele>246.9</ele>
        <time>2025-09-30T13:01:57.428Z</time>
        <extensions>
          <visugpx:TrkExtension xmlns:visugpx="https://www.visugpx.com/editgpx/">
            <visugpx:node>50</visugpx:node>
            </visugpx:TrkExtension>
        </extensions>
      </trkpt>
      <trkpt lat="43.62656" lon="2.30157">
        <ele>253.7</ele>
        <time>2025-09-30T13:02:23.656Z</time>
      </trkpt>
      <trkpt lat="43.62644" lon="2.30095">
        <ele>258.7</ele>
        <time>2025-09-30T13:02:43.159Z</time>
      </trkpt>
      <trkpt lat="43.62644" lon="2.30011">
        <ele>264.8</ele>
        <time>2025-09-30T13:03:06.693Z</time>
      </trkpt>
      <trkpt lat="43.6264" lon="2.29963">
        <ele>268.8</ele>
        <time>2025-09-30T13:03:22.337Z</time>
      </trkpt>
      <trkpt lat="43.62617" lon="2.29935">
        <ele>270.4</ele>
        <time>2025-09-30T13:03:28.618Z</time>
      </trkpt>
      <trkpt lat="43.62575" lon="2.29902">
        <ele>266.8</ele>
        <time>2025-09-30T13:03:31.928Z</time>
      </trkpt>
      <trkpt lat="43.62537" lon="2.29889">
        <ele>266.4</ele>
        <time>2025-09-30T13:03:35.998Z</time>
      </trkpt>
      <trkpt lat="43.62519" lon="2.29879">
        <ele>267.6</ele>
        <time>2025-09-30T13:03:40.509Z</time>
      </trkpt>
      <trkpt lat="43.62487" lon="2.29838">
        <ele>273.3</ele>
        <time>2025-09-30T13:04:01.795Z</time>
      </trkpt>
      <trkpt lat="43.62444" lon="2.29792">
        <ele>276.5</ele>
        <time>2025-09-30T13:04:13.946Z</time>
      </trkpt>
      <trkpt lat="43.62411" lon="2.29772">
        <ele>276.4</ele>
        <time>2025-09-30T13:04:17.955Z</time>
      </trkpt>
      <trkpt lat="43.62409" lon="2.29765">
        <ele>276</ele>
        <time>2025-09-30T13:04:18.328Z</time>
      </trkpt>
      <trkpt lat="43.62414" lon="2.29722">
        <ele>274.9</ele>
        <time>2025-09-30T13:04:21.005Z</time>
        <extensions>
          <visugpx:TrkExtension xmlns:visugpx="https://www.visugpx.com/editgpx/">
            <visugpx:node>51</visugpx:node>
            </visugpx:TrkExtension>
        </extensions>
      </trkpt>
      <trkpt lat="43.62416" lon="2.29706">
        <ele>275</ele>
        <time>2025-09-30T13:04:22.464Z</time>
      </trkpt>
      <trkpt lat="43.6242" lon="2.29666">
        <ele>274.1</ele>
        <time>2025-09-30T13:04:25.025Z</time>
      </trkpt>
      <trkpt lat="43.62425" lon="2.29609">
        <ele>273.3</ele>
        <time>2025-09-30T13:04:29.022Z</time>
      </trkpt>
      <trkpt lat="43.6245" lon="2.29389">
        <ele>270</ele>
        <time>2025-09-30T13:04:44.366Z</time>
      </trkpt>
      <trkpt lat="43.62452" lon="2.29325">
        <ele>268</ele>
        <time>2025-09-30T13:04:48.073Z</time>
      </trkpt>
      <trkpt lat="43.62449" lon="2.29263">
        <ele>267.1</ele>
        <time>2025-09-30T13:04:52.371Z</time>
      </trkpt>
      <trkpt lat="43.62444" lon="2.29167">
        <ele>265.9</ele>
        <time>2025-09-30T13:04:59.186Z</time>
      </trkpt>
      <trkpt lat="43.62438" lon="2.29107">
        <ele>263</ele>
        <time>2025-09-30T13:05:02.201Z</time>
      </trkpt>
      <trkpt lat="43.62414" lon="2.2897">
        <ele>254.4</ele>
        <time>2025-09-30T13:05:09.191Z</time>
      </trkpt>
      <trkpt lat="43.62413" lon="2.28867">
        <ele>251.6</ele>
        <time>2025-09-30T13:05:15.400Z</time>
      </trkpt>
      <trkpt lat="43.6242" lon="2.28789">
        <ele>250</ele>
        <time>2025-09-30T13:05:20.490Z</time>
      </trkpt>
      <trkpt lat="43.62428" lon="2.28743">
        <ele>250.1</ele>
        <time>2025-09-30T13:05:24.512Z</time>
      </trkpt>
      <trkpt lat="43.62457" lon="2.28593">
        <ele>247.3</ele>
        <time>2025-09-30T13:05:34.828Z</time>
      </trkpt>
      <trkpt lat="43.62466" lon="2.28519">
        <ele>244.2</ele>
        <time>2025-09-30T13:05:38.779Z</time>
      </trkpt>
      <trkpt lat="43.6247" lon="2.28471">
        <ele>240.7</ele>
        <time>2025-09-30T13:05:41.176Z</time>
      </trkpt>
      <trkpt lat="43.6246" lon="2.28353">
        <ele>236</ele>
        <time>2025-09-30T13:05:47.532Z</time>
      </trkpt>
      <trkpt lat="43.62465" lon="2.28332">
        <ele>235</ele>
        <time>2025-09-30T13:05:48.657Z</time>
      </trkpt>
      <trkpt lat="43.62467" lon="2.28311">
        <ele>232.1</ele>
        <time>2025-09-30T13:05:49.707Z</time>
      </trkpt>
      <trkpt lat="43.62471" lon="2.28295">
        <ele>230.7</ele>
        <time>2025-09-30T13:05:50.547Z</time>
      </trkpt>
      <trkpt lat="43.62475" lon="2.28273">
        <ele>229.5</ele>
        <time>2025-09-30T13:05:51.672Z</time>
        <extensions>
          <visugpx:TrkExtension xmlns:visugpx="https://www.visugpx.com/editgpx/">
            <visugpx:node>52</visugpx:node>
            </visugpx:TrkExtension>
        </extensions>
      </trkpt>
      <trkpt lat="43.62477" lon="2.28264">
        <ele>229.4</ele>
      </trkpt>
      <trkpt lat="43.6249" lon="2.282">
        <ele>224.4</ele>
      </trkpt>
      <trkpt lat="43.625" lon="2.28127">
        <ele>218.3</ele>
      </trkpt>
      <trkpt lat="43.62513" lon="2.28067">
        <ele>215.9</ele>
      </trkpt>
      <trkpt lat="43.62524" lon="2.27982">
        <ele>209.1</ele>
      </trkpt>
      <trkpt lat="43.62531" lon="2.27908">
        <ele>203.5</ele>
      </trkpt>
      <trkpt lat="43.62531" lon="2.27872">
        <ele>201.5</ele>
      </trkpt>
      <trkpt lat="43.62531" lon="2.2784">
        <ele>200</ele>
      </trkpt>
      <trkpt lat="43.6253" lon="2.27805">
        <ele>199.3</ele>
      </trkpt>
      <trkpt lat="43.62528" lon="2.27783">
        <ele>197.4</ele>
      </trkpt>
      <trkpt lat="43.62523" lon="2.27752">
        <ele>195.7</ele>
      </trkpt>
      <trkpt lat="43.62517" lon="2.27722">
        <ele>194.3</ele>
      </trkpt>
      <trkpt lat="43.62515" lon="2.27711">
        <ele>193.8</ele>
      </trkpt>
      <trkpt lat="43.62512" lon="2.27696">
        <ele>193.5</ele>
      </trkpt>
      <trkpt lat="43.62526" lon="2.27671">
        <ele>193.1</ele>
      </trkpt>
      <trkpt lat="43.62544" lon="2.27639">
        <ele>193.6</ele>
        <extensions>
          <visugpx:TrkExtension xmlns:visugpx="https://www.visugpx.com/editgpx/">
            <visugpx:node>53</visugpx:node>
            </visugpx:TrkExtension>
        </extensions>
      </trkpt>
      <trkpt lat="43.62683" lon="2.27395">
        <ele>192.7</ele>
      </trkpt>
      <trkpt lat="43.6269" lon="2.27388">
        <ele>192.8</ele>
      </trkpt>
      <trkpt lat="43.62698" lon="2.27385">
        <ele>192.8</ele>
      </trkpt>
      <trkpt lat="43.62704" lon="2.27387">
        <ele>192.6</ele>
      </trkpt>
      <trkpt lat="43.6276" lon="2.27424">
        <ele>192.9</ele>
      </trkpt>
      <trkpt lat="43.62796" lon="2.27309">
        <ele>191</ele>
      </trkpt>
      <trkpt lat="43.62826" lon="2.27318">
        <ele>191</ele>
      </trkpt>
      <trkpt lat="43.62844" lon="2.27323">
        <ele>190.8</ele>
      </trkpt>
      <trkpt lat="43.62845" lon="2.27316">
        <ele>190.8</ele>
      </trkpt>
      <trkpt lat="43.62846" lon="2.27304">
        <ele>190.9</ele>
      </trkpt>
      <trkpt lat="43.62848" lon="2.27287">
        <ele>190.3</ele>
      </trkpt>
      <trkpt lat="43.62862" lon="2.27282">
        <ele>190.2</ele>
      </trkpt>
      <trkpt lat="43.62871" lon="2.27272">
        <ele>190.5</ele>
      </trkpt>
      <trkpt lat="43.62873" lon="2.27257">
        <ele>190.8</ele>
      </trkpt>
      <trkpt lat="43.62865" lon="2.27223">
        <ele>190</ele>
      </trkpt>
      <trkpt lat="43.62862" lon="2.27195">
        <ele>190</ele>
      </trkpt>
      <trkpt lat="43.62854" lon="2.2712">
        <ele>190</ele>
      </trkpt>
      <trkpt lat="43.62849" lon="2.27068">
        <ele>189.8</ele>
      </trkpt>
      <trkpt lat="43.62845" lon="2.27062">
        <ele>189.6</ele>
      </trkpt>
      <trkpt lat="43.62841" lon="2.27011">
        <ele>190</ele>
        <extensions>
          <visugpx:TrkExtension xmlns:visugpx="https://www.visugpx.com/editgpx/">
            <visugpx:node>54</visugpx:node>
            </visugpx:TrkExtension>
        </extensions>
      </trkpt>
    </trkseg>
  </trk>
</gpx>